<?xml version="1.0" encoding="UTF-8" standalone="no" ?>
<gpx xmlns="http://www.topografix.com/GPX/1/1" xmlns:xsi="http://www.w3.org/2001/XMLSchema-instance" xsi:schemaLocation="http://www.topografix.com/GPX/1/1 http://www.topografix.com/GPX/1/1/gpx.xsd" version="1.1" creator="VisuGPX - https://www.visugpx.com">
  <metadata>
    <name>J1 Angers-&gt; St Saturnin </name>
    <desc><![CDATA[depuis Angers]]></desc>
  </metadata>
  <trk>
    <name><![CDATA[J1 Angers-> St Saturnin ]]></name>
    <trkseg>
      <trkpt lat="47.46458" lon="-0.56124">
        <ele>94.4</ele>
        <time>2023-07-19T10:44:41Z</time>
      </trkpt>
      <trkpt lat="47.46458" lon="-0.56124">
        <ele>37.8</ele>
        <time>2023-07-19T10:45:02Z</time>
      </trkpt>
      <trkpt lat="47.46447" lon="-0.56121">
        <ele>37.8</ele>
        <time>2023-07-19T10:46:20Z</time>
      </trkpt>
      <trkpt lat="47.46449" lon="-0.56116">
        <ele>38</ele>
        <time>2023-07-19T10:46:22Z</time>
      </trkpt>
      <trkpt lat="47.4645" lon="-0.56113">
        <ele>38</ele>
        <time>2023-07-19T10:46:23Z</time>
      </trkpt>
      <trkpt lat="47.46451" lon="-0.56111">
        <ele>38</ele>
        <time>2023-07-19T10:46:24Z</time>
      </trkpt>
      <trkpt lat="47.46452" lon="-0.56108">
        <ele>38</ele>
        <time>2023-07-19T10:46:25Z</time>
      </trkpt>
      <trkpt lat="47.46453" lon="-0.56105">
        <ele>38</ele>
        <time>2023-07-19T10:46:26Z</time>
      </trkpt>
      <trkpt lat="47.46453" lon="-0.56102">
        <ele>38</ele>
        <time>2023-07-19T10:46:27Z</time>
      </trkpt>
      <trkpt lat="47.46451" lon="-0.56098">
        <ele>38</ele>
        <time>2023-07-19T10:46:28Z</time>
      </trkpt>
      <trkpt lat="47.4645" lon="-0.56095">
        <ele>38</ele>
        <time>2023-07-19T10:46:29Z</time>
      </trkpt>
      <trkpt lat="47.4645" lon="-0.56083">
        <ele>38</ele>
        <time>2023-07-19T10:46:32Z</time>
      </trkpt>
      <trkpt lat="47.46452" lon="-0.56079">
        <ele>38</ele>
        <time>2023-07-19T10:46:33Z</time>
      </trkpt>
      <trkpt lat="47.46453" lon="-0.56075">
        <ele>38</ele>
        <time>2023-07-19T10:46:34Z</time>
      </trkpt>
      <trkpt lat="47.46458" lon="-0.56068">
        <ele>38</ele>
        <time>2023-07-19T10:46:36Z</time>
      </trkpt>
      <trkpt lat="47.4646" lon="-0.56064">
        <ele>38</ele>
        <time>2023-07-19T10:46:37Z</time>
      </trkpt>
      <trkpt lat="47.46462" lon="-0.5606">
        <ele>38</ele>
        <time>2023-07-19T10:46:38Z</time>
      </trkpt>
      <trkpt lat="47.46464" lon="-0.56057">
        <ele>37.8</ele>
        <time>2023-07-19T10:46:39Z</time>
      </trkpt>
      <trkpt lat="47.46463" lon="-0.56053">
        <ele>37.8</ele>
        <time>2023-07-19T10:46:40Z</time>
      </trkpt>
      <trkpt lat="47.46462" lon="-0.56049">
        <ele>37.8</ele>
        <time>2023-07-19T10:46:41Z</time>
      </trkpt>
      <trkpt lat="47.4646" lon="-0.56045">
        <ele>37.8</ele>
        <time>2023-07-19T10:46:42Z</time>
      </trkpt>
      <trkpt lat="47.46458" lon="-0.56042">
        <ele>37.8</ele>
        <time>2023-07-19T10:46:43Z</time>
      </trkpt>
      <trkpt lat="47.46458" lon="-0.56039">
        <ele>37.8</ele>
        <time>2023-07-19T10:46:44Z</time>
      </trkpt>
      <trkpt lat="47.46459" lon="-0.56036">
        <ele>37.8</ele>
        <time>2023-07-19T10:46:45Z</time>
      </trkpt>
      <trkpt lat="47.4646" lon="-0.56033">
        <ele>37.8</ele>
        <time>2023-07-19T10:46:46Z</time>
      </trkpt>
      <trkpt lat="47.46462" lon="-0.5603">
        <ele>37.8</ele>
        <time>2023-07-19T10:46:47Z</time>
      </trkpt>
      <trkpt lat="47.46463" lon="-0.56028">
        <ele>37.8</ele>
        <time>2023-07-19T10:46:48Z</time>
      </trkpt>
      <trkpt lat="47.46466" lon="-0.56025">
        <ele>37.8</ele>
        <time>2023-07-19T10:46:49Z</time>
      </trkpt>
      <trkpt lat="47.46469" lon="-0.56023">
        <ele>37.8</ele>
        <time>2023-07-19T10:46:50Z</time>
      </trkpt>
      <trkpt lat="47.46471" lon="-0.5602">
        <ele>37.8</ele>
        <time>2023-07-19T10:46:51Z</time>
      </trkpt>
      <trkpt lat="47.46473" lon="-0.56014">
        <ele>37.8</ele>
        <time>2023-07-19T10:46:53Z</time>
      </trkpt>
      <trkpt lat="47.46474" lon="-0.5601">
        <ele>37.8</ele>
        <time>2023-07-19T10:46:54Z</time>
      </trkpt>
      <trkpt lat="47.46475" lon="-0.56007">
        <ele>37.8</ele>
        <time>2023-07-19T10:46:55Z</time>
      </trkpt>
      <trkpt lat="47.46473" lon="-0.56004">
        <ele>37.8</ele>
        <time>2023-07-19T10:46:56Z</time>
      </trkpt>
      <trkpt lat="47.46472" lon="-0.56001">
        <ele>37.8</ele>
        <time>2023-07-19T10:46:57Z</time>
      </trkpt>
      <trkpt lat="47.46472" lon="-0.55995">
        <ele>37.8</ele>
        <time>2023-07-19T10:46:59Z</time>
      </trkpt>
      <trkpt lat="47.46472" lon="-0.55992">
        <ele>37.6</ele>
        <time>2023-07-19T10:47:00Z</time>
      </trkpt>
      <trkpt lat="47.46472" lon="-0.55989">
        <ele>37.8</ele>
        <time>2023-07-19T10:47:01Z</time>
      </trkpt>
      <trkpt lat="47.46475" lon="-0.55968">
        <ele>37.8</ele>
        <time>2023-07-19T10:47:07Z</time>
      </trkpt>
      <trkpt lat="47.46476" lon="-0.55964">
        <ele>37.8</ele>
        <time>2023-07-19T10:47:08Z</time>
      </trkpt>
      <trkpt lat="47.46475" lon="-0.55957">
        <ele>37.8</ele>
        <time>2023-07-19T10:47:10Z</time>
      </trkpt>
      <trkpt lat="47.46475" lon="-0.55953">
        <ele>38</ele>
        <time>2023-07-19T10:47:11Z</time>
      </trkpt>
      <trkpt lat="47.46476" lon="-0.55949">
        <ele>38</ele>
        <time>2023-07-19T10:47:12Z</time>
      </trkpt>
      <trkpt lat="47.46477" lon="-0.55943">
        <ele>38</ele>
        <time>2023-07-19T10:47:14Z</time>
      </trkpt>
      <trkpt lat="47.46477" lon="-0.5594">
        <ele>38</ele>
        <time>2023-07-19T10:47:15Z</time>
      </trkpt>
      <trkpt lat="47.46478" lon="-0.55935">
        <ele>38</ele>
        <time>2023-07-19T10:47:17Z</time>
      </trkpt>
      <trkpt lat="47.46479" lon="-0.55933">
        <ele>38</ele>
        <time>2023-07-19T10:47:18Z</time>
      </trkpt>
      <trkpt lat="47.4648" lon="-0.55931">
        <ele>38</ele>
        <time>2023-07-19T10:47:19Z</time>
      </trkpt>
      <trkpt lat="47.46481" lon="-0.55927">
        <ele>38</ele>
        <time>2023-07-19T10:47:20Z</time>
      </trkpt>
      <trkpt lat="47.46481" lon="-0.55923">
        <ele>38</ele>
        <time>2023-07-19T10:47:21Z</time>
      </trkpt>
      <trkpt lat="47.46481" lon="-0.55919">
        <ele>38</ele>
        <time>2023-07-19T10:47:22Z</time>
      </trkpt>
      <trkpt lat="47.46486" lon="-0.55916">
        <ele>38.2</ele>
        <time>2023-07-19T10:47:23Z</time>
      </trkpt>
      <trkpt lat="47.46488" lon="-0.55912">
        <ele>38.2</ele>
        <time>2023-07-19T10:47:24Z</time>
      </trkpt>
      <trkpt lat="47.4649" lon="-0.55909">
        <ele>38.2</ele>
        <time>2023-07-19T10:47:25Z</time>
      </trkpt>
      <trkpt lat="47.46493" lon="-0.55901">
        <ele>38.2</ele>
        <time>2023-07-19T10:47:27Z</time>
      </trkpt>
      <trkpt lat="47.46493" lon="-0.55897">
        <ele>38.2</ele>
        <time>2023-07-19T10:47:28Z</time>
      </trkpt>
      <trkpt lat="47.46494" lon="-0.55893">
        <ele>38.4</ele>
        <time>2023-07-19T10:47:29Z</time>
      </trkpt>
      <trkpt lat="47.46494" lon="-0.5589">
        <ele>38.4</ele>
        <time>2023-07-19T10:47:30Z</time>
      </trkpt>
      <trkpt lat="47.46489" lon="-0.55886">
        <ele>38.4</ele>
        <time>2023-07-19T10:47:31Z</time>
      </trkpt>
      <trkpt lat="47.46488" lon="-0.55883">
        <ele>38.4</ele>
        <time>2023-07-19T10:47:32Z</time>
      </trkpt>
      <trkpt lat="47.46487" lon="-0.55879">
        <ele>38.4</ele>
        <time>2023-07-19T10:47:33Z</time>
      </trkpt>
      <trkpt lat="47.46488" lon="-0.55875">
        <ele>38.6</ele>
        <time>2023-07-19T10:47:34Z</time>
      </trkpt>
      <trkpt lat="47.46488" lon="-0.55872">
        <ele>38.6</ele>
        <time>2023-07-19T10:47:35Z</time>
      </trkpt>
      <trkpt lat="47.46488" lon="-0.55867">
        <ele>38.6</ele>
        <time>2023-07-19T10:47:37Z</time>
      </trkpt>
      <trkpt lat="47.46489" lon="-0.55866">
        <ele>38.6</ele>
        <time>2023-07-19T10:47:38Z</time>
      </trkpt>
      <trkpt lat="47.46489" lon="-0.55865">
        <ele>38.6</ele>
        <time>2023-07-19T10:47:39Z</time>
      </trkpt>
      <trkpt lat="47.46489" lon="-0.55865">
        <ele>38.6</ele>
        <time>2023-07-19T10:47:40Z</time>
      </trkpt>
      <trkpt lat="47.46495" lon="-0.55861">
        <ele>38.6</ele>
        <time>2023-07-19T10:47:46Z</time>
      </trkpt>
      <trkpt lat="47.46496" lon="-0.55861">
        <ele>38.6</ele>
        <time>2023-07-19T10:47:47Z</time>
      </trkpt>
      <trkpt lat="47.46497" lon="-0.55861">
        <ele>38.6</ele>
        <time>2023-07-19T10:47:48Z</time>
      </trkpt>
      <trkpt lat="47.46498" lon="-0.55862">
        <ele>38.4</ele>
        <time>2023-07-19T10:47:49Z</time>
      </trkpt>
      <trkpt lat="47.46499" lon="-0.55862">
        <ele>38.4</ele>
        <time>2023-07-19T10:47:50Z</time>
      </trkpt>
      <trkpt lat="47.465" lon="-0.55863">
        <ele>38.4</ele>
        <time>2023-07-19T10:47:51Z</time>
      </trkpt>
      <trkpt lat="47.46504" lon="-0.55867">
        <ele>38.4</ele>
        <time>2023-07-19T10:47:53Z</time>
      </trkpt>
      <trkpt lat="47.46515" lon="-0.55879">
        <ele>38.2</ele>
        <time>2023-07-19T10:47:58Z</time>
      </trkpt>
      <trkpt lat="47.46518" lon="-0.5588">
        <ele>38.2</ele>
        <time>2023-07-19T10:47:59Z</time>
      </trkpt>
      <trkpt lat="47.46523" lon="-0.55884">
        <ele>38.2</ele>
        <time>2023-07-19T10:48:01Z</time>
      </trkpt>
      <trkpt lat="47.46531" lon="-0.55885">
        <ele>38</ele>
        <time>2023-07-19T10:48:04Z</time>
      </trkpt>
      <trkpt lat="47.46533" lon="-0.55885">
        <ele>38</ele>
        <time>2023-07-19T10:48:05Z</time>
      </trkpt>
      <trkpt lat="47.46538" lon="-0.5588">
        <ele>38</ele>
        <time>2023-07-19T10:48:07Z</time>
      </trkpt>
      <trkpt lat="47.46539" lon="-0.55876">
        <ele>38</ele>
        <time>2023-07-19T10:48:08Z</time>
      </trkpt>
      <trkpt lat="47.46542" lon="-0.55872">
        <ele>38</ele>
        <time>2023-07-19T10:48:09Z</time>
      </trkpt>
      <trkpt lat="47.46543" lon="-0.5587">
        <ele>38</ele>
        <time>2023-07-19T10:48:10Z</time>
      </trkpt>
      <trkpt lat="47.46544" lon="-0.55869">
        <ele>38</ele>
        <time>2023-07-19T10:48:11Z</time>
      </trkpt>
      <trkpt lat="47.46545" lon="-0.55868">
        <ele>38</ele>
        <time>2023-07-19T10:48:12Z</time>
      </trkpt>
      <trkpt lat="47.46547" lon="-0.55865">
        <ele>38</ele>
        <time>2023-07-19T10:48:13Z</time>
      </trkpt>
      <trkpt lat="47.4655" lon="-0.55862">
        <ele>38</ele>
        <time>2023-07-19T10:48:14Z</time>
      </trkpt>
      <trkpt lat="47.46552" lon="-0.55859">
        <ele>38</ele>
        <time>2023-07-19T10:48:15Z</time>
      </trkpt>
      <trkpt lat="47.46554" lon="-0.55857">
        <ele>38.2</ele>
        <time>2023-07-19T10:48:16Z</time>
      </trkpt>
      <trkpt lat="47.46556" lon="-0.55854">
        <ele>38.2</ele>
        <time>2023-07-19T10:48:17Z</time>
      </trkpt>
      <trkpt lat="47.46569" lon="-0.55834">
        <ele>38.4</ele>
        <time>2023-07-19T10:48:24Z</time>
      </trkpt>
      <trkpt lat="47.46587" lon="-0.55808">
        <ele>39</ele>
        <time>2023-07-19T10:48:33Z</time>
      </trkpt>
      <trkpt lat="47.46589" lon="-0.55806">
        <ele>39</ele>
        <time>2023-07-19T10:48:34Z</time>
      </trkpt>
      <trkpt lat="47.46593" lon="-0.55802">
        <ele>39.2</ele>
        <time>2023-07-19T10:48:36Z</time>
      </trkpt>
      <trkpt lat="47.46596" lon="-0.55801">
        <ele>39.2</ele>
        <time>2023-07-19T10:48:37Z</time>
      </trkpt>
      <trkpt lat="47.46604" lon="-0.55796">
        <ele>39.4</ele>
        <time>2023-07-19T10:48:40Z</time>
      </trkpt>
      <trkpt lat="47.46608" lon="-0.55793">
        <ele>39.4</ele>
        <time>2023-07-19T10:48:42Z</time>
      </trkpt>
      <trkpt lat="47.4661" lon="-0.55792">
        <ele>39.4</ele>
        <time>2023-07-19T10:48:43Z</time>
      </trkpt>
      <trkpt lat="47.46612" lon="-0.5579">
        <ele>39.4</ele>
        <time>2023-07-19T10:48:44Z</time>
      </trkpt>
      <trkpt lat="47.46614" lon="-0.55788">
        <ele>39.4</ele>
        <time>2023-07-19T10:48:45Z</time>
      </trkpt>
      <trkpt lat="47.46617" lon="-0.55784">
        <ele>39.4</ele>
        <time>2023-07-19T10:48:47Z</time>
      </trkpt>
      <trkpt lat="47.4662" lon="-0.55779">
        <ele>39.4</ele>
        <time>2023-07-19T10:48:49Z</time>
      </trkpt>
      <trkpt lat="47.46623" lon="-0.55777">
        <ele>39.4</ele>
        <time>2023-07-19T10:48:50Z</time>
      </trkpt>
      <trkpt lat="47.46624" lon="-0.55774">
        <ele>39.4</ele>
        <time>2023-07-19T10:48:51Z</time>
      </trkpt>
      <trkpt lat="47.46625" lon="-0.5577">
        <ele>39.4</ele>
        <time>2023-07-19T10:48:52Z</time>
      </trkpt>
      <trkpt lat="47.46627" lon="-0.55768">
        <ele>39.4</ele>
        <time>2023-07-19T10:48:53Z</time>
      </trkpt>
      <trkpt lat="47.46628" lon="-0.55765">
        <ele>39.4</ele>
        <time>2023-07-19T10:48:54Z</time>
      </trkpt>
      <trkpt lat="47.46629" lon="-0.55762">
        <ele>39.4</ele>
        <time>2023-07-19T10:48:55Z</time>
      </trkpt>
      <trkpt lat="47.46631" lon="-0.55758">
        <ele>39.4</ele>
        <time>2023-07-19T10:48:56Z</time>
      </trkpt>
      <trkpt lat="47.46641" lon="-0.5573">
        <ele>39.6</ele>
        <time>2023-07-19T10:49:03Z</time>
      </trkpt>
      <trkpt lat="47.46645" lon="-0.55721">
        <ele>39.6</ele>
        <time>2023-07-19T10:49:06Z</time>
      </trkpt>
      <trkpt lat="47.46649" lon="-0.55721">
        <ele>39.6</ele>
        <time>2023-07-19T10:49:08Z</time>
      </trkpt>
      <trkpt lat="47.46651" lon="-0.55722">
        <ele>39.6</ele>
        <time>2023-07-19T10:49:09Z</time>
      </trkpt>
      <trkpt lat="47.46652" lon="-0.55724">
        <ele>39.6</ele>
        <time>2023-07-19T10:49:10Z</time>
      </trkpt>
      <trkpt lat="47.46656" lon="-0.55727">
        <ele>39.6</ele>
        <time>2023-07-19T10:49:11Z</time>
      </trkpt>
      <trkpt lat="47.46658" lon="-0.55731">
        <ele>39.6</ele>
        <time>2023-07-19T10:49:12Z</time>
      </trkpt>
      <trkpt lat="47.4666" lon="-0.55732">
        <ele>39.6</ele>
        <time>2023-07-19T10:49:13Z</time>
      </trkpt>
      <trkpt lat="47.46662" lon="-0.55733">
        <ele>39.8</ele>
        <time>2023-07-19T10:49:14Z</time>
      </trkpt>
      <trkpt lat="47.46664" lon="-0.55735">
        <ele>39.8</ele>
        <time>2023-07-19T10:49:15Z</time>
      </trkpt>
      <trkpt lat="47.46668" lon="-0.55739">
        <ele>39.6</ele>
        <time>2023-07-19T10:49:18Z</time>
      </trkpt>
      <trkpt lat="47.46669" lon="-0.55739">
        <ele>39.6</ele>
        <time>2023-07-19T10:49:19Z</time>
      </trkpt>
      <trkpt lat="47.4667" lon="-0.55739">
        <ele>39.8</ele>
        <time>2023-07-19T10:49:20Z</time>
      </trkpt>
      <trkpt lat="47.46672" lon="-0.55739">
        <ele>39.8</ele>
        <time>2023-07-19T10:49:21Z</time>
      </trkpt>
      <trkpt lat="47.46673" lon="-0.55739">
        <ele>39.8</ele>
        <time>2023-07-19T10:49:22Z</time>
      </trkpt>
      <trkpt lat="47.46674" lon="-0.55738">
        <ele>39.8</ele>
        <time>2023-07-19T10:49:23Z</time>
      </trkpt>
      <trkpt lat="47.46675" lon="-0.55736">
        <ele>39.8</ele>
        <time>2023-07-19T10:49:24Z</time>
      </trkpt>
      <trkpt lat="47.46675" lon="-0.55734">
        <ele>40</ele>
        <time>2023-07-19T10:49:25Z</time>
      </trkpt>
      <trkpt lat="47.46675" lon="-0.5573">
        <ele>40</ele>
        <time>2023-07-19T10:49:27Z</time>
      </trkpt>
      <trkpt lat="47.46674" lon="-0.5573">
        <ele>40</ele>
        <time>2023-07-19T10:49:28Z</time>
      </trkpt>
      <trkpt lat="47.46673" lon="-0.55728">
        <ele>40</ele>
        <time>2023-07-19T10:49:29Z</time>
      </trkpt>
      <trkpt lat="47.46673" lon="-0.55727">
        <ele>40</ele>
        <time>2023-07-19T10:49:30Z</time>
      </trkpt>
      <trkpt lat="47.46673" lon="-0.55726">
        <ele>40</ele>
        <time>2023-07-19T10:49:31Z</time>
      </trkpt>
      <trkpt lat="47.46673" lon="-0.55725">
        <ele>40</ele>
        <time>2023-07-19T10:49:32Z</time>
      </trkpt>
      <trkpt lat="47.46672" lon="-0.55725">
        <ele>40</ele>
        <time>2023-07-19T10:49:33Z</time>
      </trkpt>
      <trkpt lat="47.46672" lon="-0.55725">
        <ele>40</ele>
        <time>2023-07-19T10:49:34Z</time>
      </trkpt>
      <trkpt lat="47.4668" lon="-0.557">
        <ele>41.8</ele>
        <time>2023-07-19T10:56:33Z</time>
      </trkpt>
      <trkpt lat="47.46682" lon="-0.55704">
        <ele>41.8</ele>
        <time>2023-07-19T10:56:36Z</time>
      </trkpt>
      <trkpt lat="47.46682" lon="-0.55706">
        <ele>41.8</ele>
        <time>2023-07-19T10:56:37Z</time>
      </trkpt>
      <trkpt lat="47.46681" lon="-0.55708">
        <ele>41.8</ele>
        <time>2023-07-19T10:56:38Z</time>
      </trkpt>
      <trkpt lat="47.4668" lon="-0.55709">
        <ele>41.8</ele>
        <time>2023-07-19T10:56:39Z</time>
      </trkpt>
      <trkpt lat="47.46679" lon="-0.5571">
        <ele>41.8</ele>
        <time>2023-07-19T10:56:40Z</time>
      </trkpt>
      <trkpt lat="47.46675" lon="-0.55714">
        <ele>41.8</ele>
        <time>2023-07-19T10:56:42Z</time>
      </trkpt>
      <trkpt lat="47.46676" lon="-0.55714">
        <ele>41.8</ele>
        <time>2023-07-19T10:56:43Z</time>
      </trkpt>
      <trkpt lat="47.46677" lon="-0.55715">
        <ele>41.8</ele>
        <time>2023-07-19T10:56:44Z</time>
      </trkpt>
      <trkpt lat="47.46675" lon="-0.5572">
        <ele>41.8</ele>
        <time>2023-07-19T10:56:47Z</time>
      </trkpt>
      <trkpt lat="47.46672" lon="-0.55725">
        <ele>41.8</ele>
        <time>2023-07-19T10:56:50Z</time>
      </trkpt>
      <trkpt lat="47.46671" lon="-0.55732">
        <ele>41.8</ele>
        <time>2023-07-19T10:56:52Z</time>
      </trkpt>
      <trkpt lat="47.4667" lon="-0.55736">
        <ele>41.8</ele>
        <time>2023-07-19T10:56:53Z</time>
      </trkpt>
      <trkpt lat="47.46668" lon="-0.55744">
        <ele>41.8</ele>
        <time>2023-07-19T10:56:55Z</time>
      </trkpt>
      <trkpt lat="47.46668" lon="-0.55758">
        <ele>41.6</ele>
        <time>2023-07-19T10:56:59Z</time>
      </trkpt>
      <trkpt lat="47.46668" lon="-0.55759">
        <ele>41.6</ele>
        <time>2023-07-19T10:57:00Z</time>
      </trkpt>
      <trkpt lat="47.46668" lon="-0.55761">
        <ele>41.4</ele>
        <time>2023-07-19T10:57:01Z</time>
      </trkpt>
      <trkpt lat="47.46668" lon="-0.55766">
        <ele>41.4</ele>
        <time>2023-07-19T10:57:02Z</time>
      </trkpt>
      <trkpt lat="47.46663" lon="-0.55774">
        <ele>41.2</ele>
        <time>2023-07-19T10:57:03Z</time>
      </trkpt>
      <trkpt lat="47.46663" lon="-0.55778">
        <ele>41.2</ele>
        <time>2023-07-19T10:57:04Z</time>
      </trkpt>
      <trkpt lat="47.46662" lon="-0.55783">
        <ele>41.2</ele>
        <time>2023-07-19T10:57:05Z</time>
      </trkpt>
      <trkpt lat="47.46662" lon="-0.55784">
        <ele>41.2</ele>
        <time>2023-07-19T10:57:06Z</time>
      </trkpt>
      <trkpt lat="47.46662" lon="-0.55786">
        <ele>41</ele>
        <time>2023-07-19T10:57:07Z</time>
      </trkpt>
      <trkpt lat="47.46661" lon="-0.55804">
        <ele>41</ele>
        <time>2023-07-19T10:57:11Z</time>
      </trkpt>
      <trkpt lat="47.46658" lon="-0.55808">
        <ele>41</ele>
        <time>2023-07-19T10:57:12Z</time>
      </trkpt>
      <trkpt lat="47.46656" lon="-0.55814">
        <ele>41</ele>
        <time>2023-07-19T10:57:13Z</time>
      </trkpt>
      <trkpt lat="47.46654" lon="-0.5582">
        <ele>41</ele>
        <time>2023-07-19T10:57:14Z</time>
      </trkpt>
      <trkpt lat="47.46652" lon="-0.55826">
        <ele>41</ele>
        <time>2023-07-19T10:57:15Z</time>
      </trkpt>
      <trkpt lat="47.4665" lon="-0.55834">
        <ele>40.8</ele>
        <time>2023-07-19T10:57:17Z</time>
      </trkpt>
      <trkpt lat="47.46651" lon="-0.55837">
        <ele>40.8</ele>
        <time>2023-07-19T10:57:18Z</time>
      </trkpt>
      <trkpt lat="47.46651" lon="-0.55841">
        <ele>40.8</ele>
        <time>2023-07-19T10:57:19Z</time>
      </trkpt>
      <trkpt lat="47.46652" lon="-0.55844">
        <ele>40.8</ele>
        <time>2023-07-19T10:57:20Z</time>
      </trkpt>
      <trkpt lat="47.46651" lon="-0.55849">
        <ele>40.6</ele>
        <time>2023-07-19T10:57:21Z</time>
      </trkpt>
      <trkpt lat="47.4665" lon="-0.55856">
        <ele>40.6</ele>
        <time>2023-07-19T10:57:23Z</time>
      </trkpt>
      <trkpt lat="47.46649" lon="-0.5586">
        <ele>40.6</ele>
        <time>2023-07-19T10:57:24Z</time>
      </trkpt>
      <trkpt lat="47.46647" lon="-0.55864">
        <ele>40.4</ele>
        <time>2023-07-19T10:57:25Z</time>
      </trkpt>
      <trkpt lat="47.46646" lon="-0.55868">
        <ele>40.4</ele>
        <time>2023-07-19T10:57:26Z</time>
      </trkpt>
      <trkpt lat="47.46645" lon="-0.55875">
        <ele>40.4</ele>
        <time>2023-07-19T10:57:28Z</time>
      </trkpt>
      <trkpt lat="47.46638" lon="-0.559">
        <ele>40</ele>
        <time>2023-07-19T10:57:34Z</time>
      </trkpt>
      <trkpt lat="47.46636" lon="-0.55914">
        <ele>39.8</ele>
        <time>2023-07-19T10:57:37Z</time>
      </trkpt>
      <trkpt lat="47.46636" lon="-0.55918">
        <ele>39.8</ele>
        <time>2023-07-19T10:57:38Z</time>
      </trkpt>
      <trkpt lat="47.46637" lon="-0.55921">
        <ele>39.8</ele>
        <time>2023-07-19T10:57:39Z</time>
      </trkpt>
      <trkpt lat="47.46637" lon="-0.55925">
        <ele>39.8</ele>
        <time>2023-07-19T10:57:40Z</time>
      </trkpt>
      <trkpt lat="47.46636" lon="-0.55929">
        <ele>39.8</ele>
        <time>2023-07-19T10:57:41Z</time>
      </trkpt>
      <trkpt lat="47.46635" lon="-0.55932">
        <ele>39.8</ele>
        <time>2023-07-19T10:57:42Z</time>
      </trkpt>
      <trkpt lat="47.46634" lon="-0.55935">
        <ele>39.6</ele>
        <time>2023-07-19T10:57:43Z</time>
      </trkpt>
      <trkpt lat="47.46633" lon="-0.55939">
        <ele>39.6</ele>
        <time>2023-07-19T10:57:44Z</time>
      </trkpt>
      <trkpt lat="47.46634" lon="-0.55942">
        <ele>39.6</ele>
        <time>2023-07-19T10:57:45Z</time>
      </trkpt>
      <trkpt lat="47.46637" lon="-0.55953">
        <ele>39.6</ele>
        <time>2023-07-19T10:57:47Z</time>
      </trkpt>
      <trkpt lat="47.46638" lon="-0.55958">
        <ele>39.6</ele>
        <time>2023-07-19T10:57:48Z</time>
      </trkpt>
      <trkpt lat="47.4664" lon="-0.55962">
        <ele>39.4</ele>
        <time>2023-07-19T10:57:49Z</time>
      </trkpt>
      <trkpt lat="47.46643" lon="-0.55966">
        <ele>39.4</ele>
        <time>2023-07-19T10:57:50Z</time>
      </trkpt>
      <trkpt lat="47.46647" lon="-0.55976">
        <ele>39.4</ele>
        <time>2023-07-19T10:57:52Z</time>
      </trkpt>
      <trkpt lat="47.46648" lon="-0.55981">
        <ele>39.2</ele>
        <time>2023-07-19T10:57:53Z</time>
      </trkpt>
      <trkpt lat="47.46654" lon="-0.55997">
        <ele>38.6</ele>
        <time>2023-07-19T10:57:56Z</time>
      </trkpt>
      <trkpt lat="47.46661" lon="-0.56012">
        <ele>38.4</ele>
        <time>2023-07-19T10:57:59Z</time>
      </trkpt>
      <trkpt lat="47.4667" lon="-0.56031">
        <ele>37.6</ele>
        <time>2023-07-19T10:58:03Z</time>
      </trkpt>
      <trkpt lat="47.46679" lon="-0.56049">
        <ele>37.2</ele>
        <time>2023-07-19T10:58:07Z</time>
      </trkpt>
      <trkpt lat="47.46682" lon="-0.56053">
        <ele>37</ele>
        <time>2023-07-19T10:58:08Z</time>
      </trkpt>
      <trkpt lat="47.46689" lon="-0.56067">
        <ele>36.6</ele>
        <time>2023-07-19T10:58:11Z</time>
      </trkpt>
      <trkpt lat="47.46694" lon="-0.56077">
        <ele>36.4</ele>
        <time>2023-07-19T10:58:13Z</time>
      </trkpt>
      <trkpt lat="47.46702" lon="-0.56088">
        <ele>36.2</ele>
        <time>2023-07-19T10:58:16Z</time>
      </trkpt>
      <trkpt lat="47.46703" lon="-0.56089">
        <ele>36</ele>
        <time>2023-07-19T10:58:17Z</time>
      </trkpt>
      <trkpt lat="47.46704" lon="-0.56092">
        <ele>36</ele>
        <time>2023-07-19T10:58:18Z</time>
      </trkpt>
      <trkpt lat="47.46705" lon="-0.56093">
        <ele>36</ele>
        <time>2023-07-19T10:58:19Z</time>
      </trkpt>
      <trkpt lat="47.46706" lon="-0.56095">
        <ele>36</ele>
        <time>2023-07-19T10:58:20Z</time>
      </trkpt>
      <trkpt lat="47.46707" lon="-0.56096">
        <ele>35.8</ele>
        <time>2023-07-19T10:58:21Z</time>
      </trkpt>
      <trkpt lat="47.46708" lon="-0.56099">
        <ele>35.8</ele>
        <time>2023-07-19T10:58:22Z</time>
      </trkpt>
      <trkpt lat="47.46707" lon="-0.56106">
        <ele>35.8</ele>
        <time>2023-07-19T10:58:24Z</time>
      </trkpt>
      <trkpt lat="47.46706" lon="-0.5611">
        <ele>35.6</ele>
        <time>2023-07-19T10:58:25Z</time>
      </trkpt>
      <trkpt lat="47.46704" lon="-0.56118">
        <ele>35.6</ele>
        <time>2023-07-19T10:58:27Z</time>
      </trkpt>
      <trkpt lat="47.46702" lon="-0.56122">
        <ele>35.6</ele>
        <time>2023-07-19T10:58:28Z</time>
      </trkpt>
      <trkpt lat="47.46699" lon="-0.56127">
        <ele>35.6</ele>
        <time>2023-07-19T10:58:29Z</time>
      </trkpt>
      <trkpt lat="47.46694" lon="-0.56137">
        <ele>35.2</ele>
        <time>2023-07-19T10:58:31Z</time>
      </trkpt>
      <trkpt lat="47.46682" lon="-0.5616">
        <ele>35</ele>
        <time>2023-07-19T10:58:35Z</time>
      </trkpt>
      <trkpt lat="47.46669" lon="-0.56187">
        <ele>34.2</ele>
        <time>2023-07-19T10:58:39Z</time>
      </trkpt>
      <trkpt lat="47.46666" lon="-0.56193">
        <ele>33.8</ele>
        <time>2023-07-19T10:58:40Z</time>
      </trkpt>
      <trkpt lat="47.46664" lon="-0.56198">
        <ele>33.4</ele>
        <time>2023-07-19T10:58:41Z</time>
      </trkpt>
      <trkpt lat="47.46662" lon="-0.56202">
        <ele>33.2</ele>
        <time>2023-07-19T10:58:42Z</time>
      </trkpt>
      <trkpt lat="47.46661" lon="-0.56206">
        <ele>33</ele>
        <time>2023-07-19T10:58:43Z</time>
      </trkpt>
      <trkpt lat="47.46659" lon="-0.5621">
        <ele>32.8</ele>
        <time>2023-07-19T10:58:44Z</time>
      </trkpt>
      <trkpt lat="47.46657" lon="-0.56213">
        <ele>32.2</ele>
        <time>2023-07-19T10:58:45Z</time>
      </trkpt>
      <trkpt lat="47.46655" lon="-0.56216">
        <ele>31.8</ele>
        <time>2023-07-19T10:58:46Z</time>
      </trkpt>
      <trkpt lat="47.46654" lon="-0.56219">
        <ele>31.4</ele>
        <time>2023-07-19T10:58:47Z</time>
      </trkpt>
      <trkpt lat="47.46652" lon="-0.56223">
        <ele>31</ele>
        <time>2023-07-19T10:58:48Z</time>
      </trkpt>
      <trkpt lat="47.46651" lon="-0.56228">
        <ele>30.8</ele>
        <time>2023-07-19T10:58:49Z</time>
      </trkpt>
      <trkpt lat="47.46649" lon="-0.56232">
        <ele>30.4</ele>
        <time>2023-07-19T10:58:50Z</time>
      </trkpt>
      <trkpt lat="47.46646" lon="-0.56237">
        <ele>30</ele>
        <time>2023-07-19T10:58:51Z</time>
      </trkpt>
      <trkpt lat="47.46638" lon="-0.56254">
        <ele>29.2</ele>
        <time>2023-07-19T10:58:54Z</time>
      </trkpt>
      <trkpt lat="47.46632" lon="-0.56267">
        <ele>29</ele>
        <time>2023-07-19T10:58:56Z</time>
      </trkpt>
      <trkpt lat="47.46626" lon="-0.56279">
        <ele>28.8</ele>
        <time>2023-07-19T10:58:58Z</time>
      </trkpt>
      <trkpt lat="47.46617" lon="-0.56299">
        <ele>28</ele>
        <time>2023-07-19T10:59:01Z</time>
      </trkpt>
      <trkpt lat="47.4661" lon="-0.56312">
        <ele>27.4</ele>
        <time>2023-07-19T10:59:03Z</time>
      </trkpt>
      <trkpt lat="47.46607" lon="-0.56319">
        <ele>27</ele>
        <time>2023-07-19T10:59:04Z</time>
      </trkpt>
      <trkpt lat="47.46598" lon="-0.5634">
        <ele>25.8</ele>
        <time>2023-07-19T10:59:07Z</time>
      </trkpt>
      <trkpt lat="47.46585" lon="-0.56366">
        <ele>24.8</ele>
        <time>2023-07-19T10:59:11Z</time>
      </trkpt>
      <trkpt lat="47.46579" lon="-0.56379">
        <ele>24.6</ele>
        <time>2023-07-19T10:59:13Z</time>
      </trkpt>
      <trkpt lat="47.4656" lon="-0.56422">
        <ele>23.8</ele>
        <time>2023-07-19T10:59:19Z</time>
      </trkpt>
      <trkpt lat="47.46556" lon="-0.56429">
        <ele>23.8</ele>
        <time>2023-07-19T10:59:20Z</time>
      </trkpt>
      <trkpt lat="47.46526" lon="-0.56493">
        <ele>22.8</ele>
        <time>2023-07-19T10:59:29Z</time>
      </trkpt>
      <trkpt lat="47.46518" lon="-0.56506">
        <ele>22.6</ele>
        <time>2023-07-19T10:59:31Z</time>
      </trkpt>
      <trkpt lat="47.46508" lon="-0.56533">
        <ele>21.6</ele>
        <time>2023-07-19T10:59:35Z</time>
      </trkpt>
      <trkpt lat="47.46506" lon="-0.56539">
        <ele>21.4</ele>
        <time>2023-07-19T10:59:36Z</time>
      </trkpt>
      <trkpt lat="47.46504" lon="-0.56545">
        <ele>21.2</ele>
        <time>2023-07-19T10:59:37Z</time>
      </trkpt>
      <trkpt lat="47.46504" lon="-0.5655">
        <ele>21.2</ele>
        <time>2023-07-19T10:59:38Z</time>
      </trkpt>
      <trkpt lat="47.46504" lon="-0.56556">
        <ele>21</ele>
        <time>2023-07-19T10:59:39Z</time>
      </trkpt>
      <trkpt lat="47.46504" lon="-0.56562">
        <ele>20.6</ele>
        <time>2023-07-19T10:59:40Z</time>
      </trkpt>
      <trkpt lat="47.46505" lon="-0.56568">
        <ele>20.4</ele>
        <time>2023-07-19T10:59:41Z</time>
      </trkpt>
      <trkpt lat="47.46504" lon="-0.56574">
        <ele>20.2</ele>
        <time>2023-07-19T10:59:42Z</time>
      </trkpt>
      <trkpt lat="47.46502" lon="-0.56579">
        <ele>20</ele>
        <time>2023-07-19T10:59:43Z</time>
      </trkpt>
      <trkpt lat="47.465" lon="-0.56584">
        <ele>19.8</ele>
        <time>2023-07-19T10:59:44Z</time>
      </trkpt>
      <trkpt lat="47.46497" lon="-0.56589">
        <ele>19.4</ele>
        <time>2023-07-19T10:59:45Z</time>
      </trkpt>
      <trkpt lat="47.46494" lon="-0.56592">
        <ele>19.2</ele>
        <time>2023-07-19T10:59:46Z</time>
      </trkpt>
      <trkpt lat="47.46491" lon="-0.56596">
        <ele>19</ele>
        <time>2023-07-19T10:59:47Z</time>
      </trkpt>
      <trkpt lat="47.46488" lon="-0.56599">
        <ele>18.6</ele>
        <time>2023-07-19T10:59:48Z</time>
      </trkpt>
      <trkpt lat="47.46486" lon="-0.56602">
        <ele>18.4</ele>
        <time>2023-07-19T10:59:49Z</time>
      </trkpt>
      <trkpt lat="47.46484" lon="-0.56605">
        <ele>18.4</ele>
        <time>2023-07-19T10:59:50Z</time>
      </trkpt>
      <trkpt lat="47.46481" lon="-0.56606">
        <ele>18.4</ele>
        <time>2023-07-19T10:59:51Z</time>
      </trkpt>
      <trkpt lat="47.46479" lon="-0.56607">
        <ele>18.4</ele>
        <time>2023-07-19T10:59:52Z</time>
      </trkpt>
      <trkpt lat="47.46476" lon="-0.56606">
        <ele>18.4</ele>
        <time>2023-07-19T10:59:53Z</time>
      </trkpt>
      <trkpt lat="47.46474" lon="-0.56604">
        <ele>18.2</ele>
        <time>2023-07-19T10:59:54Z</time>
      </trkpt>
      <trkpt lat="47.46469" lon="-0.566">
        <ele>18.2</ele>
        <time>2023-07-19T10:59:56Z</time>
      </trkpt>
      <trkpt lat="47.46467" lon="-0.56599">
        <ele>18.2</ele>
        <time>2023-07-19T10:59:57Z</time>
      </trkpt>
      <trkpt lat="47.46466" lon="-0.56597">
        <ele>18.2</ele>
        <time>2023-07-19T10:59:58Z</time>
      </trkpt>
      <trkpt lat="47.46465" lon="-0.56595">
        <ele>18.4</ele>
        <time>2023-07-19T10:59:59Z</time>
      </trkpt>
      <trkpt lat="47.46465" lon="-0.56594">
        <ele>18.4</ele>
        <time>2023-07-19T11:00:00Z</time>
      </trkpt>
      <trkpt lat="47.46466" lon="-0.56592">
        <ele>18.4</ele>
        <time>2023-07-19T11:00:01Z</time>
      </trkpt>
      <trkpt lat="47.46467" lon="-0.56592">
        <ele>18.4</ele>
        <time>2023-07-19T11:00:02Z</time>
      </trkpt>
      <trkpt lat="47.46468" lon="-0.56592">
        <ele>18.6</ele>
        <time>2023-07-19T11:00:03Z</time>
      </trkpt>
      <trkpt lat="47.4647" lon="-0.56605">
        <ele>18.8</ele>
        <time>2023-07-19T11:00:08Z</time>
      </trkpt>
      <trkpt lat="47.46473" lon="-0.56617">
        <ele>18.8</ele>
        <time>2023-07-19T11:00:12Z</time>
      </trkpt>
      <trkpt lat="47.46475" lon="-0.56619">
        <ele>18.8</ele>
        <time>2023-07-19T11:00:13Z</time>
      </trkpt>
      <trkpt lat="47.46476" lon="-0.56622">
        <ele>18.8</ele>
        <time>2023-07-19T11:00:14Z</time>
      </trkpt>
      <trkpt lat="47.46479" lon="-0.56635">
        <ele>18.8</ele>
        <time>2023-07-19T11:00:19Z</time>
      </trkpt>
      <trkpt lat="47.46479" lon="-0.56637">
        <ele>18.8</ele>
        <time>2023-07-19T11:00:20Z</time>
      </trkpt>
      <trkpt lat="47.46479" lon="-0.56639">
        <ele>18.8</ele>
        <time>2023-07-19T11:00:21Z</time>
      </trkpt>
      <trkpt lat="47.46478" lon="-0.56641">
        <ele>18.8</ele>
        <time>2023-07-19T11:00:22Z</time>
      </trkpt>
      <trkpt lat="47.46476" lon="-0.5664">
        <ele>18.8</ele>
        <time>2023-07-19T11:00:23Z</time>
      </trkpt>
      <trkpt lat="47.46474" lon="-0.56639">
        <ele>18.8</ele>
        <time>2023-07-19T11:00:24Z</time>
      </trkpt>
      <trkpt lat="47.46463" lon="-0.56628">
        <ele>18.8</ele>
        <time>2023-07-19T11:00:29Z</time>
      </trkpt>
      <trkpt lat="47.46455" lon="-0.5662">
        <ele>18.8</ele>
        <time>2023-07-19T11:00:32Z</time>
      </trkpt>
      <trkpt lat="47.46444" lon="-0.56606">
        <ele>18.8</ele>
        <time>2023-07-19T11:00:37Z</time>
      </trkpt>
      <trkpt lat="47.46442" lon="-0.56605">
        <ele>18.6</ele>
        <time>2023-07-19T11:00:38Z</time>
      </trkpt>
      <trkpt lat="47.4644" lon="-0.56604">
        <ele>18.6</ele>
        <time>2023-07-19T11:00:39Z</time>
      </trkpt>
      <trkpt lat="47.46437" lon="-0.56604">
        <ele>18.6</ele>
        <time>2023-07-19T11:00:40Z</time>
      </trkpt>
      <trkpt lat="47.46434" lon="-0.56605">
        <ele>18.6</ele>
        <time>2023-07-19T11:00:41Z</time>
      </trkpt>
      <trkpt lat="47.46431" lon="-0.56606">
        <ele>18.6</ele>
        <time>2023-07-19T11:00:42Z</time>
      </trkpt>
      <trkpt lat="47.46429" lon="-0.56607">
        <ele>18.6</ele>
        <time>2023-07-19T11:00:43Z</time>
      </trkpt>
      <trkpt lat="47.46426" lon="-0.56608">
        <ele>18.6</ele>
        <time>2023-07-19T11:00:44Z</time>
      </trkpt>
      <trkpt lat="47.46421" lon="-0.5661">
        <ele>18.6</ele>
        <time>2023-07-19T11:00:46Z</time>
      </trkpt>
      <trkpt lat="47.46419" lon="-0.5661">
        <ele>18.6</ele>
        <time>2023-07-19T11:00:47Z</time>
      </trkpt>
      <trkpt lat="47.46416" lon="-0.56611">
        <ele>18.6</ele>
        <time>2023-07-19T11:00:48Z</time>
      </trkpt>
      <trkpt lat="47.46396" lon="-0.56616">
        <ele>18.8</ele>
        <time>2023-07-19T11:00:54Z</time>
      </trkpt>
      <trkpt lat="47.4638" lon="-0.56621">
        <ele>18.8</ele>
        <time>2023-07-19T11:00:59Z</time>
      </trkpt>
      <trkpt lat="47.46371" lon="-0.56624">
        <ele>18.8</ele>
        <time>2023-07-19T11:01:02Z</time>
      </trkpt>
      <trkpt lat="47.46368" lon="-0.56625">
        <ele>18.8</ele>
        <time>2023-07-19T11:01:03Z</time>
      </trkpt>
      <trkpt lat="47.46362" lon="-0.56627">
        <ele>18.8</ele>
        <time>2023-07-19T11:01:05Z</time>
      </trkpt>
      <trkpt lat="47.46347" lon="-0.56633">
        <ele>18.8</ele>
        <time>2023-07-19T11:01:10Z</time>
      </trkpt>
      <trkpt lat="47.46338" lon="-0.56635">
        <ele>18.6</ele>
        <time>2023-07-19T11:01:13Z</time>
      </trkpt>
      <trkpt lat="47.46335" lon="-0.56637">
        <ele>18.6</ele>
        <time>2023-07-19T11:01:14Z</time>
      </trkpt>
      <trkpt lat="47.46329" lon="-0.56638">
        <ele>18.6</ele>
        <time>2023-07-19T11:01:16Z</time>
      </trkpt>
      <trkpt lat="47.46321" lon="-0.56641">
        <ele>18.6</ele>
        <time>2023-07-19T11:01:19Z</time>
      </trkpt>
      <trkpt lat="47.46318" lon="-0.56642">
        <ele>18.6</ele>
        <time>2023-07-19T11:01:20Z</time>
      </trkpt>
      <trkpt lat="47.46315" lon="-0.56643">
        <ele>18.6</ele>
        <time>2023-07-19T11:01:21Z</time>
      </trkpt>
      <trkpt lat="47.46313" lon="-0.56644">
        <ele>18.6</ele>
        <time>2023-07-19T11:01:22Z</time>
      </trkpt>
      <trkpt lat="47.4631" lon="-0.56645">
        <ele>18.6</ele>
        <time>2023-07-19T11:01:23Z</time>
      </trkpt>
      <trkpt lat="47.46308" lon="-0.56646">
        <ele>18.6</ele>
        <time>2023-07-19T11:01:24Z</time>
      </trkpt>
      <trkpt lat="47.46298" lon="-0.5665">
        <ele>18.4</ele>
        <time>2023-07-19T11:01:27Z</time>
      </trkpt>
      <trkpt lat="47.46277" lon="-0.56655">
        <ele>18.2</ele>
        <time>2023-07-19T11:01:35Z</time>
      </trkpt>
      <trkpt lat="47.46259" lon="-0.56662">
        <ele>18.4</ele>
        <time>2023-07-19T11:01:41Z</time>
      </trkpt>
      <trkpt lat="47.46257" lon="-0.56663">
        <ele>18.4</ele>
        <time>2023-07-19T11:01:42Z</time>
      </trkpt>
      <trkpt lat="47.46254" lon="-0.56664">
        <ele>18.4</ele>
        <time>2023-07-19T11:01:43Z</time>
      </trkpt>
      <trkpt lat="47.46251" lon="-0.56665">
        <ele>18.2</ele>
        <time>2023-07-19T11:01:44Z</time>
      </trkpt>
      <trkpt lat="47.46248" lon="-0.56666">
        <ele>18.2</ele>
        <time>2023-07-19T11:01:45Z</time>
      </trkpt>
      <trkpt lat="47.46244" lon="-0.56668">
        <ele>18.2</ele>
        <time>2023-07-19T11:01:47Z</time>
      </trkpt>
      <trkpt lat="47.46238" lon="-0.5667">
        <ele>18.2</ele>
        <time>2023-07-19T11:01:49Z</time>
      </trkpt>
      <trkpt lat="47.46235" lon="-0.5667">
        <ele>18.2</ele>
        <time>2023-07-19T11:01:50Z</time>
      </trkpt>
      <trkpt lat="47.46232" lon="-0.56672">
        <ele>18.4</ele>
        <time>2023-07-19T11:01:51Z</time>
      </trkpt>
      <trkpt lat="47.4623" lon="-0.56674">
        <ele>18.4</ele>
        <time>2023-07-19T11:01:52Z</time>
      </trkpt>
      <trkpt lat="47.46228" lon="-0.56677">
        <ele>18.4</ele>
        <time>2023-07-19T11:01:53Z</time>
      </trkpt>
      <trkpt lat="47.46226" lon="-0.56679">
        <ele>18.4</ele>
        <time>2023-07-19T11:01:54Z</time>
      </trkpt>
      <trkpt lat="47.46224" lon="-0.56682">
        <ele>18.4</ele>
        <time>2023-07-19T11:01:55Z</time>
      </trkpt>
      <trkpt lat="47.46222" lon="-0.56684">
        <ele>18.4</ele>
        <time>2023-07-19T11:01:56Z</time>
      </trkpt>
      <trkpt lat="47.46219" lon="-0.56686">
        <ele>18</ele>
        <time>2023-07-19T11:01:57Z</time>
      </trkpt>
      <trkpt lat="47.46217" lon="-0.56687">
        <ele>18</ele>
        <time>2023-07-19T11:01:58Z</time>
      </trkpt>
      <trkpt lat="47.46215" lon="-0.56688">
        <ele>18</ele>
        <time>2023-07-19T11:01:59Z</time>
      </trkpt>
      <trkpt lat="47.46213" lon="-0.56689">
        <ele>18</ele>
        <time>2023-07-19T11:02:00Z</time>
      </trkpt>
      <trkpt lat="47.4621" lon="-0.56692">
        <ele>18.2</ele>
        <time>2023-07-19T11:02:01Z</time>
      </trkpt>
      <trkpt lat="47.46208" lon="-0.56694">
        <ele>18</ele>
        <time>2023-07-19T11:02:02Z</time>
      </trkpt>
      <trkpt lat="47.46206" lon="-0.56695">
        <ele>18</ele>
        <time>2023-07-19T11:02:03Z</time>
      </trkpt>
      <trkpt lat="47.46204" lon="-0.56698">
        <ele>18</ele>
        <time>2023-07-19T11:02:04Z</time>
      </trkpt>
      <trkpt lat="47.46201" lon="-0.56701">
        <ele>18</ele>
        <time>2023-07-19T11:02:05Z</time>
      </trkpt>
      <trkpt lat="47.46199" lon="-0.56703">
        <ele>18</ele>
        <time>2023-07-19T11:02:06Z</time>
      </trkpt>
      <trkpt lat="47.46181" lon="-0.56719">
        <ele>18</ele>
        <time>2023-07-19T11:02:13Z</time>
      </trkpt>
      <trkpt lat="47.46161" lon="-0.56735">
        <ele>18</ele>
        <time>2023-07-19T11:02:20Z</time>
      </trkpt>
      <trkpt lat="47.46158" lon="-0.56736">
        <ele>18</ele>
        <time>2023-07-19T11:02:21Z</time>
      </trkpt>
      <trkpt lat="47.46156" lon="-0.56738">
        <ele>18</ele>
        <time>2023-07-19T11:02:22Z</time>
      </trkpt>
      <trkpt lat="47.46138" lon="-0.56751">
        <ele>18</ele>
        <time>2023-07-19T11:02:28Z</time>
      </trkpt>
      <trkpt lat="47.46115" lon="-0.56768">
        <ele>17.8</ele>
        <time>2023-07-19T11:02:36Z</time>
      </trkpt>
      <trkpt lat="47.46094" lon="-0.56782">
        <ele>17.4</ele>
        <time>2023-07-19T11:02:43Z</time>
      </trkpt>
      <trkpt lat="47.46091" lon="-0.56784">
        <ele>17.4</ele>
        <time>2023-07-19T11:02:44Z</time>
      </trkpt>
      <trkpt lat="47.46089" lon="-0.56785">
        <ele>17.4</ele>
        <time>2023-07-19T11:02:45Z</time>
      </trkpt>
      <trkpt lat="47.46086" lon="-0.56787">
        <ele>17.4</ele>
        <time>2023-07-19T11:02:46Z</time>
      </trkpt>
      <trkpt lat="47.46083" lon="-0.56789">
        <ele>17.4</ele>
        <time>2023-07-19T11:02:47Z</time>
      </trkpt>
      <trkpt lat="47.46081" lon="-0.56791">
        <ele>17.4</ele>
        <time>2023-07-19T11:02:48Z</time>
      </trkpt>
      <trkpt lat="47.46078" lon="-0.56793">
        <ele>17.4</ele>
        <time>2023-07-19T11:02:49Z</time>
      </trkpt>
      <trkpt lat="47.46076" lon="-0.56795">
        <ele>17.4</ele>
        <time>2023-07-19T11:02:50Z</time>
      </trkpt>
      <trkpt lat="47.46074" lon="-0.56797">
        <ele>17.4</ele>
        <time>2023-07-19T11:02:51Z</time>
      </trkpt>
      <trkpt lat="47.46066" lon="-0.56802">
        <ele>17.4</ele>
        <time>2023-07-19T11:02:54Z</time>
      </trkpt>
      <trkpt lat="47.46047" lon="-0.56816">
        <ele>17.6</ele>
        <time>2023-07-19T11:03:01Z</time>
      </trkpt>
      <trkpt lat="47.46039" lon="-0.56821">
        <ele>17.8</ele>
        <time>2023-07-19T11:03:04Z</time>
      </trkpt>
      <trkpt lat="47.46037" lon="-0.56823">
        <ele>17.8</ele>
        <time>2023-07-19T11:03:05Z</time>
      </trkpt>
      <trkpt lat="47.46034" lon="-0.56825">
        <ele>17.8</ele>
        <time>2023-07-19T11:03:06Z</time>
      </trkpt>
      <trkpt lat="47.46032" lon="-0.56826">
        <ele>18</ele>
        <time>2023-07-19T11:03:07Z</time>
      </trkpt>
      <trkpt lat="47.46029" lon="-0.56828">
        <ele>18</ele>
        <time>2023-07-19T11:03:08Z</time>
      </trkpt>
      <trkpt lat="47.46026" lon="-0.5683">
        <ele>18</ele>
        <time>2023-07-19T11:03:09Z</time>
      </trkpt>
      <trkpt lat="47.46023" lon="-0.56832">
        <ele>18</ele>
        <time>2023-07-19T11:03:10Z</time>
      </trkpt>
      <trkpt lat="47.46018" lon="-0.56835">
        <ele>18</ele>
        <time>2023-07-19T11:03:12Z</time>
      </trkpt>
      <trkpt lat="47.46015" lon="-0.56837">
        <ele>18</ele>
        <time>2023-07-19T11:03:13Z</time>
      </trkpt>
      <trkpt lat="47.46012" lon="-0.56839">
        <ele>18</ele>
        <time>2023-07-19T11:03:14Z</time>
      </trkpt>
      <trkpt lat="47.4601" lon="-0.56841">
        <ele>18</ele>
        <time>2023-07-19T11:03:15Z</time>
      </trkpt>
      <trkpt lat="47.46008" lon="-0.56842">
        <ele>18</ele>
        <time>2023-07-19T11:03:16Z</time>
      </trkpt>
      <trkpt lat="47.46005" lon="-0.56844">
        <ele>18</ele>
        <time>2023-07-19T11:03:17Z</time>
      </trkpt>
      <trkpt lat="47.45989" lon="-0.56855">
        <ele>18</ele>
        <time>2023-07-19T11:03:23Z</time>
      </trkpt>
      <trkpt lat="47.4597" lon="-0.56869">
        <ele>17.8</ele>
        <time>2023-07-19T11:03:30Z</time>
      </trkpt>
      <trkpt lat="47.45967" lon="-0.5687">
        <ele>18</ele>
        <time>2023-07-19T11:03:31Z</time>
      </trkpt>
      <trkpt lat="47.45965" lon="-0.56872">
        <ele>18</ele>
        <time>2023-07-19T11:03:32Z</time>
      </trkpt>
      <trkpt lat="47.45957" lon="-0.56879">
        <ele>18</ele>
        <time>2023-07-19T11:03:35Z</time>
      </trkpt>
      <trkpt lat="47.45955" lon="-0.56881">
        <ele>18</ele>
        <time>2023-07-19T11:03:36Z</time>
      </trkpt>
      <trkpt lat="47.45953" lon="-0.56883">
        <ele>18</ele>
        <time>2023-07-19T11:03:37Z</time>
      </trkpt>
      <trkpt lat="47.4595" lon="-0.56884">
        <ele>18</ele>
        <time>2023-07-19T11:03:38Z</time>
      </trkpt>
      <trkpt lat="47.45948" lon="-0.56885">
        <ele>18</ele>
        <time>2023-07-19T11:03:39Z</time>
      </trkpt>
      <trkpt lat="47.45946" lon="-0.56885">
        <ele>17.8</ele>
        <time>2023-07-19T11:03:40Z</time>
      </trkpt>
      <trkpt lat="47.45944" lon="-0.56886">
        <ele>17.8</ele>
        <time>2023-07-19T11:03:41Z</time>
      </trkpt>
      <trkpt lat="47.45942" lon="-0.56887">
        <ele>17.8</ele>
        <time>2023-07-19T11:03:42Z</time>
      </trkpt>
      <trkpt lat="47.45942" lon="-0.56888">
        <ele>17.8</ele>
        <time>2023-07-19T11:03:43Z</time>
      </trkpt>
      <trkpt lat="47.45942" lon="-0.56888">
        <ele>17.8</ele>
        <time>2023-07-19T11:03:44Z</time>
      </trkpt>
      <trkpt lat="47.45942" lon="-0.56888">
        <ele>17.8</ele>
        <time>2023-07-19T11:03:45Z</time>
      </trkpt>
      <trkpt lat="47.45936" lon="-0.56892">
        <ele>17.8</ele>
        <time>2023-07-19T11:05:00Z</time>
      </trkpt>
      <trkpt lat="47.45933" lon="-0.56896">
        <ele>17.8</ele>
        <time>2023-07-19T11:05:02Z</time>
      </trkpt>
      <trkpt lat="47.45923" lon="-0.56906">
        <ele>17.6</ele>
        <time>2023-07-19T11:05:07Z</time>
      </trkpt>
      <trkpt lat="47.4592" lon="-0.56908">
        <ele>17.6</ele>
        <time>2023-07-19T11:05:08Z</time>
      </trkpt>
      <trkpt lat="47.45903" lon="-0.56919">
        <ele>17.6</ele>
        <time>2023-07-19T11:05:14Z</time>
      </trkpt>
      <trkpt lat="47.45877" lon="-0.56937">
        <ele>17.6</ele>
        <time>2023-07-19T11:05:23Z</time>
      </trkpt>
      <trkpt lat="47.45862" lon="-0.56947">
        <ele>17.8</ele>
        <time>2023-07-19T11:05:28Z</time>
      </trkpt>
      <trkpt lat="47.45841" lon="-0.56956">
        <ele>18</ele>
        <time>2023-07-19T11:05:35Z</time>
      </trkpt>
      <trkpt lat="47.45839" lon="-0.56958">
        <ele>18</ele>
        <time>2023-07-19T11:05:36Z</time>
      </trkpt>
      <trkpt lat="47.45835" lon="-0.56961">
        <ele>18</ele>
        <time>2023-07-19T11:05:38Z</time>
      </trkpt>
      <trkpt lat="47.45832" lon="-0.56963">
        <ele>18</ele>
        <time>2023-07-19T11:05:39Z</time>
      </trkpt>
      <trkpt lat="47.45829" lon="-0.56964">
        <ele>18</ele>
        <time>2023-07-19T11:05:40Z</time>
      </trkpt>
      <trkpt lat="47.45827" lon="-0.56966">
        <ele>18</ele>
        <time>2023-07-19T11:05:41Z</time>
      </trkpt>
      <trkpt lat="47.45825" lon="-0.56969">
        <ele>18</ele>
        <time>2023-07-19T11:05:42Z</time>
      </trkpt>
      <trkpt lat="47.4581" lon="-0.56982">
        <ele>18</ele>
        <time>2023-07-19T11:05:48Z</time>
      </trkpt>
      <trkpt lat="47.45806" lon="-0.56986">
        <ele>18</ele>
        <time>2023-07-19T11:05:50Z</time>
      </trkpt>
      <trkpt lat="47.45803" lon="-0.56988">
        <ele>18</ele>
        <time>2023-07-19T11:05:51Z</time>
      </trkpt>
      <trkpt lat="47.45801" lon="-0.5699">
        <ele>18</ele>
        <time>2023-07-19T11:05:52Z</time>
      </trkpt>
      <trkpt lat="47.45795" lon="-0.56994">
        <ele>18</ele>
        <time>2023-07-19T11:05:54Z</time>
      </trkpt>
      <trkpt lat="47.4579" lon="-0.56999">
        <ele>18.2</ele>
        <time>2023-07-19T11:05:56Z</time>
      </trkpt>
      <trkpt lat="47.45767" lon="-0.57018">
        <ele>18.2</ele>
        <time>2023-07-19T11:06:05Z</time>
      </trkpt>
      <trkpt lat="47.45765" lon="-0.5702">
        <ele>18.2</ele>
        <time>2023-07-19T11:06:06Z</time>
      </trkpt>
      <trkpt lat="47.45762" lon="-0.57023">
        <ele>18.2</ele>
        <time>2023-07-19T11:06:07Z</time>
      </trkpt>
      <trkpt lat="47.45758" lon="-0.57026">
        <ele>18.2</ele>
        <time>2023-07-19T11:06:09Z</time>
      </trkpt>
      <trkpt lat="47.45756" lon="-0.57028">
        <ele>18.2</ele>
        <time>2023-07-19T11:06:10Z</time>
      </trkpt>
      <trkpt lat="47.45753" lon="-0.5703">
        <ele>18.2</ele>
        <time>2023-07-19T11:06:11Z</time>
      </trkpt>
      <trkpt lat="47.45748" lon="-0.57034">
        <ele>18.2</ele>
        <time>2023-07-19T11:06:13Z</time>
      </trkpt>
      <trkpt lat="47.45741" lon="-0.5704">
        <ele>18.2</ele>
        <time>2023-07-19T11:06:16Z</time>
      </trkpt>
      <trkpt lat="47.45728" lon="-0.57053">
        <ele>18.2</ele>
        <time>2023-07-19T11:06:21Z</time>
      </trkpt>
      <trkpt lat="47.45726" lon="-0.57056">
        <ele>18.2</ele>
        <time>2023-07-19T11:06:22Z</time>
      </trkpt>
      <trkpt lat="47.45715" lon="-0.57081">
        <ele>18</ele>
        <time>2023-07-19T11:06:29Z</time>
      </trkpt>
      <trkpt lat="47.45714" lon="-0.57085">
        <ele>18</ele>
        <time>2023-07-19T11:06:30Z</time>
      </trkpt>
      <trkpt lat="47.45714" lon="-0.57089">
        <ele>18</ele>
        <time>2023-07-19T11:06:31Z</time>
      </trkpt>
      <trkpt lat="47.45713" lon="-0.57092">
        <ele>18</ele>
        <time>2023-07-19T11:06:32Z</time>
      </trkpt>
      <trkpt lat="47.45713" lon="-0.57095">
        <ele>18</ele>
        <time>2023-07-19T11:06:33Z</time>
      </trkpt>
      <trkpt lat="47.45712" lon="-0.57097">
        <ele>18</ele>
        <time>2023-07-19T11:06:34Z</time>
      </trkpt>
      <trkpt lat="47.45712" lon="-0.571">
        <ele>18</ele>
        <time>2023-07-19T11:06:35Z</time>
      </trkpt>
      <trkpt lat="47.45712" lon="-0.57104">
        <ele>18</ele>
        <time>2023-07-19T11:06:36Z</time>
      </trkpt>
      <trkpt lat="47.45712" lon="-0.57107">
        <ele>18</ele>
        <time>2023-07-19T11:06:37Z</time>
      </trkpt>
      <trkpt lat="47.45711" lon="-0.57109">
        <ele>18</ele>
        <time>2023-07-19T11:06:38Z</time>
      </trkpt>
      <trkpt lat="47.45709" lon="-0.57111">
        <ele>18</ele>
        <time>2023-07-19T11:06:39Z</time>
      </trkpt>
      <trkpt lat="47.45707" lon="-0.57112">
        <ele>18</ele>
        <time>2023-07-19T11:06:40Z</time>
      </trkpt>
      <trkpt lat="47.45705" lon="-0.57111">
        <ele>18</ele>
        <time>2023-07-19T11:06:41Z</time>
      </trkpt>
      <trkpt lat="47.45703" lon="-0.57109">
        <ele>18</ele>
        <time>2023-07-19T11:06:42Z</time>
      </trkpt>
      <trkpt lat="47.45701" lon="-0.57108">
        <ele>18</ele>
        <time>2023-07-19T11:06:43Z</time>
      </trkpt>
      <trkpt lat="47.45698" lon="-0.57107">
        <ele>18.2</ele>
        <time>2023-07-19T11:06:44Z</time>
      </trkpt>
      <trkpt lat="47.45696" lon="-0.57106">
        <ele>18.2</ele>
        <time>2023-07-19T11:06:45Z</time>
      </trkpt>
      <trkpt lat="47.45693" lon="-0.57105">
        <ele>18.4</ele>
        <time>2023-07-19T11:06:46Z</time>
      </trkpt>
      <trkpt lat="47.4569" lon="-0.57104">
        <ele>18.4</ele>
        <time>2023-07-19T11:06:47Z</time>
      </trkpt>
      <trkpt lat="47.45684" lon="-0.57104">
        <ele>18.4</ele>
        <time>2023-07-19T11:06:49Z</time>
      </trkpt>
      <trkpt lat="47.45678" lon="-0.57108">
        <ele>18.4</ele>
        <time>2023-07-19T11:06:51Z</time>
      </trkpt>
      <trkpt lat="47.45675" lon="-0.5711">
        <ele>18.4</ele>
        <time>2023-07-19T11:06:52Z</time>
      </trkpt>
      <trkpt lat="47.45673" lon="-0.57114">
        <ele>18.4</ele>
        <time>2023-07-19T11:06:53Z</time>
      </trkpt>
      <trkpt lat="47.4567" lon="-0.57118">
        <ele>18.4</ele>
        <time>2023-07-19T11:06:54Z</time>
      </trkpt>
      <trkpt lat="47.45667" lon="-0.57122">
        <ele>18.4</ele>
        <time>2023-07-19T11:06:55Z</time>
      </trkpt>
      <trkpt lat="47.45665" lon="-0.57125">
        <ele>18.4</ele>
        <time>2023-07-19T11:06:56Z</time>
      </trkpt>
      <trkpt lat="47.45656" lon="-0.57138">
        <ele>18.2</ele>
        <time>2023-07-19T11:07:00Z</time>
      </trkpt>
      <trkpt lat="47.45647" lon="-0.5715">
        <ele>18</ele>
        <time>2023-07-19T11:07:03Z</time>
      </trkpt>
      <trkpt lat="47.45643" lon="-0.57154">
        <ele>18</ele>
        <time>2023-07-19T11:07:04Z</time>
      </trkpt>
      <trkpt lat="47.45637" lon="-0.57167">
        <ele>17.8</ele>
        <time>2023-07-19T11:07:08Z</time>
      </trkpt>
      <trkpt lat="47.45637" lon="-0.57171">
        <ele>17.6</ele>
        <time>2023-07-19T11:07:09Z</time>
      </trkpt>
      <trkpt lat="47.45636" lon="-0.57175">
        <ele>17.4</ele>
        <time>2023-07-19T11:07:10Z</time>
      </trkpt>
      <trkpt lat="47.45636" lon="-0.5718">
        <ele>17.4</ele>
        <time>2023-07-19T11:07:11Z</time>
      </trkpt>
      <trkpt lat="47.45636" lon="-0.57184">
        <ele>17.2</ele>
        <time>2023-07-19T11:07:12Z</time>
      </trkpt>
      <trkpt lat="47.45636" lon="-0.57188">
        <ele>17.2</ele>
        <time>2023-07-19T11:07:13Z</time>
      </trkpt>
      <trkpt lat="47.45634" lon="-0.57191">
        <ele>17.2</ele>
        <time>2023-07-19T11:07:14Z</time>
      </trkpt>
      <trkpt lat="47.45632" lon="-0.57194">
        <ele>17.2</ele>
        <time>2023-07-19T11:07:15Z</time>
      </trkpt>
      <trkpt lat="47.4563" lon="-0.57196">
        <ele>17.2</ele>
        <time>2023-07-19T11:07:16Z</time>
      </trkpt>
      <trkpt lat="47.45625" lon="-0.572">
        <ele>17.2</ele>
        <time>2023-07-19T11:07:18Z</time>
      </trkpt>
      <trkpt lat="47.45623" lon="-0.57202">
        <ele>17.2</ele>
        <time>2023-07-19T11:07:19Z</time>
      </trkpt>
      <trkpt lat="47.45616" lon="-0.57207">
        <ele>17.2</ele>
        <time>2023-07-19T11:07:22Z</time>
      </trkpt>
      <trkpt lat="47.45614" lon="-0.57208">
        <ele>17.2</ele>
        <time>2023-07-19T11:07:23Z</time>
      </trkpt>
      <trkpt lat="47.45611" lon="-0.5721">
        <ele>17.2</ele>
        <time>2023-07-19T11:07:24Z</time>
      </trkpt>
      <trkpt lat="47.45609" lon="-0.57212">
        <ele>17.4</ele>
        <time>2023-07-19T11:07:25Z</time>
      </trkpt>
      <trkpt lat="47.45606" lon="-0.57214">
        <ele>17.4</ele>
        <time>2023-07-19T11:07:26Z</time>
      </trkpt>
      <trkpt lat="47.456" lon="-0.57222">
        <ele>17.6</ele>
        <time>2023-07-19T11:07:29Z</time>
      </trkpt>
      <trkpt lat="47.45598" lon="-0.57225">
        <ele>17.8</ele>
        <time>2023-07-19T11:07:30Z</time>
      </trkpt>
      <trkpt lat="47.45597" lon="-0.57228">
        <ele>17.8</ele>
        <time>2023-07-19T11:07:31Z</time>
      </trkpt>
      <trkpt lat="47.45583" lon="-0.5725">
        <ele>17.8</ele>
        <time>2023-07-19T11:07:38Z</time>
      </trkpt>
      <trkpt lat="47.4557" lon="-0.5727">
        <ele>18</ele>
        <time>2023-07-19T11:07:45Z</time>
      </trkpt>
      <trkpt lat="47.45568" lon="-0.57272">
        <ele>18</ele>
        <time>2023-07-19T11:07:46Z</time>
      </trkpt>
      <trkpt lat="47.45566" lon="-0.57274">
        <ele>18</ele>
        <time>2023-07-19T11:07:47Z</time>
      </trkpt>
      <trkpt lat="47.45564" lon="-0.57276">
        <ele>18</ele>
        <time>2023-07-19T11:07:48Z</time>
      </trkpt>
      <trkpt lat="47.45562" lon="-0.57279">
        <ele>18.2</ele>
        <time>2023-07-19T11:07:49Z</time>
      </trkpt>
      <trkpt lat="47.4556" lon="-0.57281">
        <ele>18.2</ele>
        <time>2023-07-19T11:07:50Z</time>
      </trkpt>
      <trkpt lat="47.45558" lon="-0.57283">
        <ele>18.2</ele>
        <time>2023-07-19T11:07:51Z</time>
      </trkpt>
      <trkpt lat="47.45556" lon="-0.57285">
        <ele>18.2</ele>
        <time>2023-07-19T11:07:52Z</time>
      </trkpt>
      <trkpt lat="47.45551" lon="-0.57289">
        <ele>18.2</ele>
        <time>2023-07-19T11:07:54Z</time>
      </trkpt>
      <trkpt lat="47.4553" lon="-0.57313">
        <ele>18.8</ele>
        <time>2023-07-19T11:08:04Z</time>
      </trkpt>
      <trkpt lat="47.45527" lon="-0.5732">
        <ele>19</ele>
        <time>2023-07-19T11:08:06Z</time>
      </trkpt>
      <trkpt lat="47.45526" lon="-0.57324">
        <ele>19</ele>
        <time>2023-07-19T11:08:07Z</time>
      </trkpt>
      <trkpt lat="47.45525" lon="-0.57328">
        <ele>19</ele>
        <time>2023-07-19T11:08:08Z</time>
      </trkpt>
      <trkpt lat="47.45524" lon="-0.57336">
        <ele>19.2</ele>
        <time>2023-07-19T11:08:10Z</time>
      </trkpt>
      <trkpt lat="47.45523" lon="-0.57342">
        <ele>19.2</ele>
        <time>2023-07-19T11:08:12Z</time>
      </trkpt>
      <trkpt lat="47.45518" lon="-0.57356">
        <ele>19.4</ele>
        <time>2023-07-19T11:08:16Z</time>
      </trkpt>
      <trkpt lat="47.45517" lon="-0.5736">
        <ele>19.4</ele>
        <time>2023-07-19T11:08:17Z</time>
      </trkpt>
      <trkpt lat="47.45514" lon="-0.57368">
        <ele>19.4</ele>
        <time>2023-07-19T11:08:19Z</time>
      </trkpt>
      <trkpt lat="47.4551" lon="-0.57379">
        <ele>19.4</ele>
        <time>2023-07-19T11:08:22Z</time>
      </trkpt>
      <trkpt lat="47.45506" lon="-0.5739">
        <ele>19.4</ele>
        <time>2023-07-19T11:08:25Z</time>
      </trkpt>
      <trkpt lat="47.45501" lon="-0.57401">
        <ele>19.6</ele>
        <time>2023-07-19T11:08:28Z</time>
      </trkpt>
      <trkpt lat="47.45495" lon="-0.57414">
        <ele>19.8</ele>
        <time>2023-07-19T11:08:32Z</time>
      </trkpt>
      <trkpt lat="47.4549" lon="-0.57419">
        <ele>19.8</ele>
        <time>2023-07-19T11:08:34Z</time>
      </trkpt>
      <trkpt lat="47.45488" lon="-0.57422">
        <ele>19.8</ele>
        <time>2023-07-19T11:08:35Z</time>
      </trkpt>
      <trkpt lat="47.45474" lon="-0.57439">
        <ele>20</ele>
        <time>2023-07-19T11:08:41Z</time>
      </trkpt>
      <trkpt lat="47.45472" lon="-0.57442">
        <ele>20</ele>
        <time>2023-07-19T11:08:42Z</time>
      </trkpt>
      <trkpt lat="47.4547" lon="-0.57444">
        <ele>20.2</ele>
        <time>2023-07-19T11:08:43Z</time>
      </trkpt>
      <trkpt lat="47.45454" lon="-0.57458">
        <ele>20.6</ele>
        <time>2023-07-19T11:08:49Z</time>
      </trkpt>
      <trkpt lat="47.45447" lon="-0.57465">
        <ele>20.6</ele>
        <time>2023-07-19T11:08:52Z</time>
      </trkpt>
      <trkpt lat="47.45445" lon="-0.57468">
        <ele>20.6</ele>
        <time>2023-07-19T11:08:53Z</time>
      </trkpt>
      <trkpt lat="47.45444" lon="-0.57472">
        <ele>20.6</ele>
        <time>2023-07-19T11:08:54Z</time>
      </trkpt>
      <trkpt lat="47.45443" lon="-0.57474">
        <ele>20.6</ele>
        <time>2023-07-19T11:08:55Z</time>
      </trkpt>
      <trkpt lat="47.45443" lon="-0.57477">
        <ele>20.6</ele>
        <time>2023-07-19T11:08:56Z</time>
      </trkpt>
      <trkpt lat="47.45443" lon="-0.5748">
        <ele>20.6</ele>
        <time>2023-07-19T11:08:57Z</time>
      </trkpt>
      <trkpt lat="47.45443" lon="-0.57484">
        <ele>20.4</ele>
        <time>2023-07-19T11:08:58Z</time>
      </trkpt>
      <trkpt lat="47.45441" lon="-0.57492">
        <ele>20.2</ele>
        <time>2023-07-19T11:09:00Z</time>
      </trkpt>
      <trkpt lat="47.45439" lon="-0.57496">
        <ele>20.2</ele>
        <time>2023-07-19T11:09:01Z</time>
      </trkpt>
      <trkpt lat="47.45438" lon="-0.575">
        <ele>20.2</ele>
        <time>2023-07-19T11:09:02Z</time>
      </trkpt>
      <trkpt lat="47.45437" lon="-0.57505">
        <ele>20.2</ele>
        <time>2023-07-19T11:09:03Z</time>
      </trkpt>
      <trkpt lat="47.45435" lon="-0.57515">
        <ele>20.2</ele>
        <time>2023-07-19T11:09:05Z</time>
      </trkpt>
      <trkpt lat="47.45433" lon="-0.57529">
        <ele>20.2</ele>
        <time>2023-07-19T11:09:08Z</time>
      </trkpt>
      <trkpt lat="47.45431" lon="-0.57544">
        <ele>20.2</ele>
        <time>2023-07-19T11:09:11Z</time>
      </trkpt>
      <trkpt lat="47.4543" lon="-0.57572">
        <ele>20.4</ele>
        <time>2023-07-19T11:09:17Z</time>
      </trkpt>
      <trkpt lat="47.4543" lon="-0.5759">
        <ele>20.4</ele>
        <time>2023-07-19T11:09:21Z</time>
      </trkpt>
      <trkpt lat="47.4543" lon="-0.57595">
        <ele>20.4</ele>
        <time>2023-07-19T11:09:22Z</time>
      </trkpt>
      <trkpt lat="47.45431" lon="-0.57599">
        <ele>20.4</ele>
        <time>2023-07-19T11:09:23Z</time>
      </trkpt>
      <trkpt lat="47.45431" lon="-0.57601">
        <ele>20.4</ele>
        <time>2023-07-19T11:09:24Z</time>
      </trkpt>
      <trkpt lat="47.4543" lon="-0.57602">
        <ele>20.4</ele>
        <time>2023-07-19T11:09:25Z</time>
      </trkpt>
      <trkpt lat="47.4543" lon="-0.57602">
        <ele>20.4</ele>
        <time>2023-07-19T11:09:26Z</time>
      </trkpt>
      <trkpt lat="47.45427" lon="-0.5759">
        <ele>21.2</ele>
        <time>2023-07-19T11:10:41Z</time>
      </trkpt>
      <trkpt lat="47.45427" lon="-0.57586">
        <ele>21.2</ele>
        <time>2023-07-19T11:10:42Z</time>
      </trkpt>
      <trkpt lat="47.45427" lon="-0.57582">
        <ele>21.4</ele>
        <time>2023-07-19T11:10:43Z</time>
      </trkpt>
      <trkpt lat="47.45428" lon="-0.5756">
        <ele>21.4</ele>
        <time>2023-07-19T11:10:48Z</time>
      </trkpt>
      <trkpt lat="47.45428" lon="-0.5755">
        <ele>21.4</ele>
        <time>2023-07-19T11:10:50Z</time>
      </trkpt>
      <trkpt lat="47.45429" lon="-0.57535">
        <ele>21.2</ele>
        <time>2023-07-19T11:10:53Z</time>
      </trkpt>
      <trkpt lat="47.45433" lon="-0.57509">
        <ele>21</ele>
        <time>2023-07-19T11:10:58Z</time>
      </trkpt>
      <trkpt lat="47.45441" lon="-0.57477">
        <ele>20.8</ele>
        <time>2023-07-19T11:11:05Z</time>
      </trkpt>
      <trkpt lat="47.45443" lon="-0.5747">
        <ele>20.6</ele>
        <time>2023-07-19T11:11:07Z</time>
      </trkpt>
      <trkpt lat="47.45442" lon="-0.57467">
        <ele>20.6</ele>
        <time>2023-07-19T11:11:08Z</time>
      </trkpt>
      <trkpt lat="47.45441" lon="-0.57465">
        <ele>20.6</ele>
        <time>2023-07-19T11:11:09Z</time>
      </trkpt>
      <trkpt lat="47.45439" lon="-0.57463">
        <ele>20.4</ele>
        <time>2023-07-19T11:11:10Z</time>
      </trkpt>
      <trkpt lat="47.45437" lon="-0.57463">
        <ele>20.4</ele>
        <time>2023-07-19T11:11:11Z</time>
      </trkpt>
      <trkpt lat="47.45435" lon="-0.57464">
        <ele>20.4</ele>
        <time>2023-07-19T11:11:12Z</time>
      </trkpt>
      <trkpt lat="47.45433" lon="-0.57467">
        <ele>20.4</ele>
        <time>2023-07-19T11:11:13Z</time>
      </trkpt>
      <trkpt lat="47.45431" lon="-0.57469">
        <ele>20.4</ele>
        <time>2023-07-19T11:11:14Z</time>
      </trkpt>
      <trkpt lat="47.4543" lon="-0.57472">
        <ele>20.2</ele>
        <time>2023-07-19T11:11:15Z</time>
      </trkpt>
      <trkpt lat="47.45429" lon="-0.57474">
        <ele>20.2</ele>
        <time>2023-07-19T11:11:16Z</time>
      </trkpt>
      <trkpt lat="47.45428" lon="-0.57477">
        <ele>20.2</ele>
        <time>2023-07-19T11:11:17Z</time>
      </trkpt>
      <trkpt lat="47.45426" lon="-0.57484">
        <ele>20</ele>
        <time>2023-07-19T11:11:19Z</time>
      </trkpt>
      <trkpt lat="47.45421" lon="-0.57499">
        <ele>20</ele>
        <time>2023-07-19T11:11:24Z</time>
      </trkpt>
      <trkpt lat="47.4542" lon="-0.57502">
        <ele>20</ele>
        <time>2023-07-19T11:11:25Z</time>
      </trkpt>
      <trkpt lat="47.45419" lon="-0.57504">
        <ele>20.2</ele>
        <time>2023-07-19T11:11:26Z</time>
      </trkpt>
      <trkpt lat="47.45419" lon="-0.57508">
        <ele>20.4</ele>
        <time>2023-07-19T11:11:27Z</time>
      </trkpt>
      <trkpt lat="47.45418" lon="-0.57511">
        <ele>20.6</ele>
        <time>2023-07-19T11:11:28Z</time>
      </trkpt>
      <trkpt lat="47.45414" lon="-0.57522">
        <ele>21.4</ele>
        <time>2023-07-19T11:11:31Z</time>
      </trkpt>
      <trkpt lat="47.45412" lon="-0.57529">
        <ele>21.6</ele>
        <time>2023-07-19T11:11:33Z</time>
      </trkpt>
      <trkpt lat="47.45411" lon="-0.57542">
        <ele>22.4</ele>
        <time>2023-07-19T11:11:36Z</time>
      </trkpt>
      <trkpt lat="47.4541" lon="-0.57547">
        <ele>22.6</ele>
        <time>2023-07-19T11:11:37Z</time>
      </trkpt>
      <trkpt lat="47.4541" lon="-0.57559">
        <ele>23.2</ele>
        <time>2023-07-19T11:11:40Z</time>
      </trkpt>
      <trkpt lat="47.45408" lon="-0.5757">
        <ele>23.4</ele>
        <time>2023-07-19T11:11:43Z</time>
      </trkpt>
      <trkpt lat="47.45408" lon="-0.57574">
        <ele>23.6</ele>
        <time>2023-07-19T11:11:44Z</time>
      </trkpt>
      <trkpt lat="47.45408" lon="-0.57577">
        <ele>23.8</ele>
        <time>2023-07-19T11:11:45Z</time>
      </trkpt>
      <trkpt lat="47.45408" lon="-0.57582">
        <ele>24</ele>
        <time>2023-07-19T11:11:46Z</time>
      </trkpt>
      <trkpt lat="47.45408" lon="-0.57586">
        <ele>24.2</ele>
        <time>2023-07-19T11:11:47Z</time>
      </trkpt>
      <trkpt lat="47.45407" lon="-0.57589">
        <ele>24.4</ele>
        <time>2023-07-19T11:11:48Z</time>
      </trkpt>
      <trkpt lat="47.45408" lon="-0.57593">
        <ele>24.4</ele>
        <time>2023-07-19T11:11:49Z</time>
      </trkpt>
      <trkpt lat="47.45408" lon="-0.57597">
        <ele>24.6</ele>
        <time>2023-07-19T11:11:50Z</time>
      </trkpt>
      <trkpt lat="47.45408" lon="-0.57601">
        <ele>24.6</ele>
        <time>2023-07-19T11:11:51Z</time>
      </trkpt>
      <trkpt lat="47.45408" lon="-0.57605">
        <ele>24.8</ele>
        <time>2023-07-19T11:11:52Z</time>
      </trkpt>
      <trkpt lat="47.45409" lon="-0.57609">
        <ele>25</ele>
        <time>2023-07-19T11:11:53Z</time>
      </trkpt>
      <trkpt lat="47.45409" lon="-0.57613">
        <ele>25</ele>
        <time>2023-07-19T11:11:54Z</time>
      </trkpt>
      <trkpt lat="47.4541" lon="-0.57618">
        <ele>25.2</ele>
        <time>2023-07-19T11:11:55Z</time>
      </trkpt>
      <trkpt lat="47.4541" lon="-0.57622">
        <ele>25.2</ele>
        <time>2023-07-19T11:11:56Z</time>
      </trkpt>
      <trkpt lat="47.4541" lon="-0.57626">
        <ele>25.2</ele>
        <time>2023-07-19T11:11:57Z</time>
      </trkpt>
      <trkpt lat="47.4541" lon="-0.5763">
        <ele>25.4</ele>
        <time>2023-07-19T11:11:58Z</time>
      </trkpt>
      <trkpt lat="47.45411" lon="-0.57634">
        <ele>25.4</ele>
        <time>2023-07-19T11:11:59Z</time>
      </trkpt>
      <trkpt lat="47.45411" lon="-0.57638">
        <ele>25.4</ele>
        <time>2023-07-19T11:12:00Z</time>
      </trkpt>
      <trkpt lat="47.45411" lon="-0.57642">
        <ele>25.4</ele>
        <time>2023-07-19T11:12:01Z</time>
      </trkpt>
      <trkpt lat="47.45411" lon="-0.57646">
        <ele>25.6</ele>
        <time>2023-07-19T11:12:02Z</time>
      </trkpt>
      <trkpt lat="47.45411" lon="-0.57651">
        <ele>25.6</ele>
        <time>2023-07-19T11:12:03Z</time>
      </trkpt>
      <trkpt lat="47.45412" lon="-0.57655">
        <ele>25.6</ele>
        <time>2023-07-19T11:12:04Z</time>
      </trkpt>
      <trkpt lat="47.45412" lon="-0.5766">
        <ele>25.6</ele>
        <time>2023-07-19T11:12:05Z</time>
      </trkpt>
      <trkpt lat="47.45413" lon="-0.57664">
        <ele>25.6</ele>
        <time>2023-07-19T11:12:06Z</time>
      </trkpt>
      <trkpt lat="47.45413" lon="-0.57669">
        <ele>25.8</ele>
        <time>2023-07-19T11:12:07Z</time>
      </trkpt>
      <trkpt lat="47.45413" lon="-0.57673">
        <ele>25.8</ele>
        <time>2023-07-19T11:12:08Z</time>
      </trkpt>
      <trkpt lat="47.45414" lon="-0.57678">
        <ele>25.8</ele>
        <time>2023-07-19T11:12:09Z</time>
      </trkpt>
      <trkpt lat="47.45414" lon="-0.57683">
        <ele>26</ele>
        <time>2023-07-19T11:12:10Z</time>
      </trkpt>
      <trkpt lat="47.45414" lon="-0.57687">
        <ele>26</ele>
        <time>2023-07-19T11:12:11Z</time>
      </trkpt>
      <trkpt lat="47.4541" lon="-0.57735">
        <ele>26.2</ele>
        <time>2023-07-19T11:12:21Z</time>
      </trkpt>
      <trkpt lat="47.45403" lon="-0.57785">
        <ele>26.4</ele>
        <time>2023-07-19T11:12:31Z</time>
      </trkpt>
      <trkpt lat="47.45402" lon="-0.5779">
        <ele>26.6</ele>
        <time>2023-07-19T11:12:32Z</time>
      </trkpt>
      <trkpt lat="47.45402" lon="-0.57794">
        <ele>26.6</ele>
        <time>2023-07-19T11:12:33Z</time>
      </trkpt>
      <trkpt lat="47.454" lon="-0.57803">
        <ele>26.6</ele>
        <time>2023-07-19T11:12:35Z</time>
      </trkpt>
      <trkpt lat="47.45398" lon="-0.57813">
        <ele>26.6</ele>
        <time>2023-07-19T11:12:37Z</time>
      </trkpt>
      <trkpt lat="47.45398" lon="-0.57817">
        <ele>26.6</ele>
        <time>2023-07-19T11:12:38Z</time>
      </trkpt>
      <trkpt lat="47.45397" lon="-0.57822">
        <ele>26.6</ele>
        <time>2023-07-19T11:12:39Z</time>
      </trkpt>
      <trkpt lat="47.45397" lon="-0.57826">
        <ele>26.6</ele>
        <time>2023-07-19T11:12:40Z</time>
      </trkpt>
      <trkpt lat="47.45396" lon="-0.57831">
        <ele>26.6</ele>
        <time>2023-07-19T11:12:41Z</time>
      </trkpt>
      <trkpt lat="47.45394" lon="-0.57856">
        <ele>26.4</ele>
        <time>2023-07-19T11:12:46Z</time>
      </trkpt>
      <trkpt lat="47.45391" lon="-0.57896">
        <ele>26</ele>
        <time>2023-07-19T11:12:54Z</time>
      </trkpt>
      <trkpt lat="47.45389" lon="-0.57911">
        <ele>25.8</ele>
        <time>2023-07-19T11:12:57Z</time>
      </trkpt>
      <trkpt lat="47.45387" lon="-0.57914">
        <ele>26</ele>
        <time>2023-07-19T11:12:58Z</time>
      </trkpt>
      <trkpt lat="47.45387" lon="-0.57917">
        <ele>25.8</ele>
        <time>2023-07-19T11:12:59Z</time>
      </trkpt>
      <trkpt lat="47.45386" lon="-0.57919">
        <ele>26</ele>
        <time>2023-07-19T11:13:00Z</time>
      </trkpt>
      <trkpt lat="47.45385" lon="-0.57921">
        <ele>25.8</ele>
        <time>2023-07-19T11:13:01Z</time>
      </trkpt>
      <trkpt lat="47.45384" lon="-0.57924">
        <ele>25.8</ele>
        <time>2023-07-19T11:13:02Z</time>
      </trkpt>
      <trkpt lat="47.4538" lon="-0.57937">
        <ele>25.8</ele>
        <time>2023-07-19T11:13:06Z</time>
      </trkpt>
      <trkpt lat="47.45367" lon="-0.57963">
        <ele>25.4</ele>
        <time>2023-07-19T11:13:12Z</time>
      </trkpt>
      <trkpt lat="47.45357" lon="-0.5798">
        <ele>24.8</ele>
        <time>2023-07-19T11:13:16Z</time>
      </trkpt>
      <trkpt lat="47.45354" lon="-0.57985">
        <ele>24.6</ele>
        <time>2023-07-19T11:13:17Z</time>
      </trkpt>
      <trkpt lat="47.45348" lon="-0.57997">
        <ele>24</ele>
        <time>2023-07-19T11:13:20Z</time>
      </trkpt>
      <trkpt lat="47.45346" lon="-0.58001">
        <ele>23.6</ele>
        <time>2023-07-19T11:13:21Z</time>
      </trkpt>
      <trkpt lat="47.45343" lon="-0.58004">
        <ele>23.4</ele>
        <time>2023-07-19T11:13:22Z</time>
      </trkpt>
      <trkpt lat="47.45341" lon="-0.58007">
        <ele>23.4</ele>
        <time>2023-07-19T11:13:23Z</time>
      </trkpt>
      <trkpt lat="47.4534" lon="-0.58012">
        <ele>23.2</ele>
        <time>2023-07-19T11:13:24Z</time>
      </trkpt>
      <trkpt lat="47.45338" lon="-0.58014">
        <ele>22.8</ele>
        <time>2023-07-19T11:13:25Z</time>
      </trkpt>
      <trkpt lat="47.45337" lon="-0.58016">
        <ele>22.4</ele>
        <time>2023-07-19T11:13:26Z</time>
      </trkpt>
      <trkpt lat="47.45337" lon="-0.58017">
        <ele>22</ele>
        <time>2023-07-19T11:13:27Z</time>
      </trkpt>
      <trkpt lat="47.45336" lon="-0.58019">
        <ele>21.8</ele>
        <time>2023-07-19T11:13:28Z</time>
      </trkpt>
      <trkpt lat="47.45334" lon="-0.58021">
        <ele>21.8</ele>
        <time>2023-07-19T11:13:29Z</time>
      </trkpt>
      <trkpt lat="47.45332" lon="-0.58024">
        <ele>21.6</ele>
        <time>2023-07-19T11:13:31Z</time>
      </trkpt>
      <trkpt lat="47.4533" lon="-0.58026">
        <ele>21.6</ele>
        <time>2023-07-19T11:13:32Z</time>
      </trkpt>
      <trkpt lat="47.45322" lon="-0.58037">
        <ele>21.4</ele>
        <time>2023-07-19T11:13:37Z</time>
      </trkpt>
      <trkpt lat="47.45321" lon="-0.58039">
        <ele>21.2</ele>
        <time>2023-07-19T11:13:38Z</time>
      </trkpt>
      <trkpt lat="47.45309" lon="-0.58055">
        <ele>21</ele>
        <time>2023-07-19T11:13:45Z</time>
      </trkpt>
      <trkpt lat="47.45303" lon="-0.58062">
        <ele>21</ele>
        <time>2023-07-19T11:13:48Z</time>
      </trkpt>
      <trkpt lat="47.45295" lon="-0.58076">
        <ele>21.2</ele>
        <time>2023-07-19T11:13:53Z</time>
      </trkpt>
      <trkpt lat="47.45282" lon="-0.58098">
        <ele>22.2</ele>
        <time>2023-07-19T11:14:01Z</time>
      </trkpt>
      <trkpt lat="47.45281" lon="-0.581">
        <ele>22.2</ele>
        <time>2023-07-19T11:14:02Z</time>
      </trkpt>
      <trkpt lat="47.4528" lon="-0.58103">
        <ele>22.2</ele>
        <time>2023-07-19T11:14:03Z</time>
      </trkpt>
      <trkpt lat="47.45279" lon="-0.58105">
        <ele>22.2</ele>
        <time>2023-07-19T11:14:04Z</time>
      </trkpt>
      <trkpt lat="47.45277" lon="-0.58109">
        <ele>22.6</ele>
        <time>2023-07-19T11:14:06Z</time>
      </trkpt>
      <trkpt lat="47.45275" lon="-0.58111">
        <ele>22.6</ele>
        <time>2023-07-19T11:14:07Z</time>
      </trkpt>
      <trkpt lat="47.45275" lon="-0.58111">
        <ele>22.6</ele>
        <time>2023-07-19T11:14:08Z</time>
      </trkpt>
      <trkpt lat="47.45275" lon="-0.58111">
        <ele>22.6</ele>
        <time>2023-07-19T11:14:09Z</time>
      </trkpt>
      <trkpt lat="47.45275" lon="-0.58111">
        <ele>22.8</ele>
        <time>2023-07-19T11:14:10Z</time>
      </trkpt>
      <trkpt lat="47.45275" lon="-0.58111">
        <ele>22.8</ele>
        <time>2023-07-19T11:14:11Z</time>
      </trkpt>
      <trkpt lat="47.4527" lon="-0.58116">
        <ele>23.2</ele>
        <time>2023-07-19T11:14:35Z</time>
      </trkpt>
      <trkpt lat="47.45266" lon="-0.58121">
        <ele>23</ele>
        <time>2023-07-19T11:14:37Z</time>
      </trkpt>
      <trkpt lat="47.45264" lon="-0.58124">
        <ele>23</ele>
        <time>2023-07-19T11:14:38Z</time>
      </trkpt>
      <trkpt lat="47.45258" lon="-0.58133">
        <ele>23</ele>
        <time>2023-07-19T11:14:41Z</time>
      </trkpt>
      <trkpt lat="47.45257" lon="-0.58136">
        <ele>23</ele>
        <time>2023-07-19T11:14:42Z</time>
      </trkpt>
      <trkpt lat="47.45255" lon="-0.58139">
        <ele>23</ele>
        <time>2023-07-19T11:14:43Z</time>
      </trkpt>
      <trkpt lat="47.45236" lon="-0.58166">
        <ele>23</ele>
        <time>2023-07-19T11:14:52Z</time>
      </trkpt>
      <trkpt lat="47.45215" lon="-0.58189">
        <ele>23</ele>
        <time>2023-07-19T11:15:00Z</time>
      </trkpt>
      <trkpt lat="47.45204" lon="-0.58194">
        <ele>25.8</ele>
        <time>2023-07-19T11:15:04Z</time>
      </trkpt>
      <trkpt lat="47.45201" lon="-0.58193">
        <ele>23</ele>
        <time>2023-07-19T11:15:05Z</time>
      </trkpt>
      <trkpt lat="47.45199" lon="-0.58192">
        <ele>23</ele>
        <time>2023-07-19T11:15:06Z</time>
      </trkpt>
      <trkpt lat="47.45196" lon="-0.58191">
        <ele>23</ele>
        <time>2023-07-19T11:15:07Z</time>
      </trkpt>
      <trkpt lat="47.45194" lon="-0.58189">
        <ele>23</ele>
        <time>2023-07-19T11:15:08Z</time>
      </trkpt>
      <trkpt lat="47.45192" lon="-0.58187">
        <ele>23</ele>
        <time>2023-07-19T11:15:09Z</time>
      </trkpt>
      <trkpt lat="47.4519" lon="-0.58185">
        <ele>23</ele>
        <time>2023-07-19T11:15:10Z</time>
      </trkpt>
      <trkpt lat="47.45188" lon="-0.58183">
        <ele>23</ele>
        <time>2023-07-19T11:15:11Z</time>
      </trkpt>
      <trkpt lat="47.45186" lon="-0.58181">
        <ele>23</ele>
        <time>2023-07-19T11:15:12Z</time>
      </trkpt>
      <trkpt lat="47.45185" lon="-0.58179">
        <ele>23.2</ele>
        <time>2023-07-19T11:15:13Z</time>
      </trkpt>
      <trkpt lat="47.45184" lon="-0.58177">
        <ele>23.2</ele>
        <time>2023-07-19T11:15:14Z</time>
      </trkpt>
      <trkpt lat="47.45182" lon="-0.58174">
        <ele>23.4</ele>
        <time>2023-07-19T11:15:15Z</time>
      </trkpt>
      <trkpt lat="47.45181" lon="-0.58172">
        <ele>23.6</ele>
        <time>2023-07-19T11:15:16Z</time>
      </trkpt>
      <trkpt lat="47.4518" lon="-0.58169">
        <ele>23.8</ele>
        <time>2023-07-19T11:15:17Z</time>
      </trkpt>
      <trkpt lat="47.45178" lon="-0.58167">
        <ele>24.2</ele>
        <time>2023-07-19T11:15:18Z</time>
      </trkpt>
      <trkpt lat="47.45177" lon="-0.58165">
        <ele>24.4</ele>
        <time>2023-07-19T11:15:19Z</time>
      </trkpt>
      <trkpt lat="47.45175" lon="-0.58163">
        <ele>24.4</ele>
        <time>2023-07-19T11:15:20Z</time>
      </trkpt>
      <trkpt lat="47.45174" lon="-0.5816">
        <ele>24.6</ele>
        <time>2023-07-19T11:15:21Z</time>
      </trkpt>
      <trkpt lat="47.45172" lon="-0.58158">
        <ele>25</ele>
        <time>2023-07-19T11:15:22Z</time>
      </trkpt>
      <trkpt lat="47.4517" lon="-0.58156">
        <ele>25.2</ele>
        <time>2023-07-19T11:15:23Z</time>
      </trkpt>
      <trkpt lat="47.45165" lon="-0.58151">
        <ele>25.6</ele>
        <time>2023-07-19T11:15:26Z</time>
      </trkpt>
      <trkpt lat="47.45164" lon="-0.58148">
        <ele>25.6</ele>
        <time>2023-07-19T11:15:27Z</time>
      </trkpt>
      <trkpt lat="47.4516" lon="-0.58142">
        <ele>26.2</ele>
        <time>2023-07-19T11:15:30Z</time>
      </trkpt>
      <trkpt lat="47.45158" lon="-0.5814">
        <ele>26.4</ele>
        <time>2023-07-19T11:15:31Z</time>
      </trkpt>
      <trkpt lat="47.45157" lon="-0.58139">
        <ele>26.4</ele>
        <time>2023-07-19T11:15:32Z</time>
      </trkpt>
      <trkpt lat="47.45156" lon="-0.58137">
        <ele>26.4</ele>
        <time>2023-07-19T11:15:33Z</time>
      </trkpt>
      <trkpt lat="47.45154" lon="-0.58135">
        <ele>26.8</ele>
        <time>2023-07-19T11:15:34Z</time>
      </trkpt>
      <trkpt lat="47.45153" lon="-0.58133">
        <ele>26.8</ele>
        <time>2023-07-19T11:15:35Z</time>
      </trkpt>
      <trkpt lat="47.45151" lon="-0.58131">
        <ele>27</ele>
        <time>2023-07-19T11:15:36Z</time>
      </trkpt>
      <trkpt lat="47.45149" lon="-0.5813">
        <ele>27.2</ele>
        <time>2023-07-19T11:15:37Z</time>
      </trkpt>
      <trkpt lat="47.45147" lon="-0.58127">
        <ele>27.2</ele>
        <time>2023-07-19T11:15:38Z</time>
      </trkpt>
      <trkpt lat="47.45146" lon="-0.58125">
        <ele>27.4</ele>
        <time>2023-07-19T11:15:39Z</time>
      </trkpt>
      <trkpt lat="47.45144" lon="-0.58123">
        <ele>27.6</ele>
        <time>2023-07-19T11:15:40Z</time>
      </trkpt>
      <trkpt lat="47.45143" lon="-0.58121">
        <ele>27.8</ele>
        <time>2023-07-19T11:15:41Z</time>
      </trkpt>
      <trkpt lat="47.45142" lon="-0.58118">
        <ele>28</ele>
        <time>2023-07-19T11:15:42Z</time>
      </trkpt>
      <trkpt lat="47.45141" lon="-0.58116">
        <ele>28</ele>
        <time>2023-07-19T11:15:43Z</time>
      </trkpt>
      <trkpt lat="47.45139" lon="-0.58114">
        <ele>28</ele>
        <time>2023-07-19T11:15:44Z</time>
      </trkpt>
      <trkpt lat="47.45138" lon="-0.58112">
        <ele>28.2</ele>
        <time>2023-07-19T11:15:45Z</time>
      </trkpt>
      <trkpt lat="47.45136" lon="-0.5811">
        <ele>28.4</ele>
        <time>2023-07-19T11:15:46Z</time>
      </trkpt>
      <trkpt lat="47.45135" lon="-0.58108">
        <ele>28.6</ele>
        <time>2023-07-19T11:15:47Z</time>
      </trkpt>
      <trkpt lat="47.45133" lon="-0.58106">
        <ele>28.8</ele>
        <time>2023-07-19T11:15:48Z</time>
      </trkpt>
      <trkpt lat="47.45132" lon="-0.58104">
        <ele>29</ele>
        <time>2023-07-19T11:15:49Z</time>
      </trkpt>
      <trkpt lat="47.4513" lon="-0.58102">
        <ele>29.2</ele>
        <time>2023-07-19T11:15:50Z</time>
      </trkpt>
      <trkpt lat="47.45129" lon="-0.581">
        <ele>29.2</ele>
        <time>2023-07-19T11:15:51Z</time>
      </trkpt>
      <trkpt lat="47.45127" lon="-0.58098">
        <ele>29.4</ele>
        <time>2023-07-19T11:15:52Z</time>
      </trkpt>
      <trkpt lat="47.45125" lon="-0.58097">
        <ele>29.6</ele>
        <time>2023-07-19T11:15:53Z</time>
      </trkpt>
      <trkpt lat="47.45124" lon="-0.58095">
        <ele>29.6</ele>
        <time>2023-07-19T11:15:54Z</time>
      </trkpt>
      <trkpt lat="47.45122" lon="-0.58092">
        <ele>29.8</ele>
        <time>2023-07-19T11:15:55Z</time>
      </trkpt>
      <trkpt lat="47.45121" lon="-0.5809">
        <ele>30</ele>
        <time>2023-07-19T11:15:56Z</time>
      </trkpt>
      <trkpt lat="47.4512" lon="-0.58087">
        <ele>30.2</ele>
        <time>2023-07-19T11:15:57Z</time>
      </trkpt>
      <trkpt lat="47.45119" lon="-0.58086">
        <ele>30.2</ele>
        <time>2023-07-19T11:15:58Z</time>
      </trkpt>
      <trkpt lat="47.45117" lon="-0.58083">
        <ele>30.4</ele>
        <time>2023-07-19T11:15:59Z</time>
      </trkpt>
      <trkpt lat="47.45116" lon="-0.58081">
        <ele>30.6</ele>
        <time>2023-07-19T11:16:00Z</time>
      </trkpt>
      <trkpt lat="47.45115" lon="-0.58079">
        <ele>30.8</ele>
        <time>2023-07-19T11:16:01Z</time>
      </trkpt>
      <trkpt lat="47.45114" lon="-0.58077">
        <ele>31</ele>
        <time>2023-07-19T11:16:02Z</time>
      </trkpt>
      <trkpt lat="47.45112" lon="-0.58076">
        <ele>31.2</ele>
        <time>2023-07-19T11:16:03Z</time>
      </trkpt>
      <trkpt lat="47.4511" lon="-0.58075">
        <ele>31.4</ele>
        <time>2023-07-19T11:16:04Z</time>
      </trkpt>
      <trkpt lat="47.45109" lon="-0.58073">
        <ele>31.4</ele>
        <time>2023-07-19T11:16:05Z</time>
      </trkpt>
      <trkpt lat="47.45107" lon="-0.58071">
        <ele>31.4</ele>
        <time>2023-07-19T11:16:06Z</time>
      </trkpt>
      <trkpt lat="47.45106" lon="-0.58069">
        <ele>31.6</ele>
        <time>2023-07-19T11:16:07Z</time>
      </trkpt>
      <trkpt lat="47.45105" lon="-0.58067">
        <ele>31.8</ele>
        <time>2023-07-19T11:16:08Z</time>
      </trkpt>
      <trkpt lat="47.45103" lon="-0.58065">
        <ele>32</ele>
        <time>2023-07-19T11:16:09Z</time>
      </trkpt>
      <trkpt lat="47.45102" lon="-0.58063">
        <ele>32.2</ele>
        <time>2023-07-19T11:16:10Z</time>
      </trkpt>
      <trkpt lat="47.451" lon="-0.58061">
        <ele>32.2</ele>
        <time>2023-07-19T11:16:11Z</time>
      </trkpt>
      <trkpt lat="47.45098" lon="-0.58059">
        <ele>32.4</ele>
        <time>2023-07-19T11:16:12Z</time>
      </trkpt>
      <trkpt lat="47.45097" lon="-0.58057">
        <ele>32.6</ele>
        <time>2023-07-19T11:16:13Z</time>
      </trkpt>
      <trkpt lat="47.45095" lon="-0.58056">
        <ele>32.8</ele>
        <time>2023-07-19T11:16:14Z</time>
      </trkpt>
      <trkpt lat="47.45093" lon="-0.58054">
        <ele>33</ele>
        <time>2023-07-19T11:16:15Z</time>
      </trkpt>
      <trkpt lat="47.45092" lon="-0.58052">
        <ele>33</ele>
        <time>2023-07-19T11:16:16Z</time>
      </trkpt>
      <trkpt lat="47.4509" lon="-0.5805">
        <ele>33.2</ele>
        <time>2023-07-19T11:16:17Z</time>
      </trkpt>
      <trkpt lat="47.45089" lon="-0.58048">
        <ele>33.4</ele>
        <time>2023-07-19T11:16:18Z</time>
      </trkpt>
      <trkpt lat="47.45087" lon="-0.58047">
        <ele>33.4</ele>
        <time>2023-07-19T11:16:19Z</time>
      </trkpt>
      <trkpt lat="47.45086" lon="-0.58045">
        <ele>33.6</ele>
        <time>2023-07-19T11:16:20Z</time>
      </trkpt>
      <trkpt lat="47.45084" lon="-0.58042">
        <ele>33.8</ele>
        <time>2023-07-19T11:16:21Z</time>
      </trkpt>
      <trkpt lat="47.45083" lon="-0.5804">
        <ele>33.8</ele>
        <time>2023-07-19T11:16:22Z</time>
      </trkpt>
      <trkpt lat="47.45081" lon="-0.58037">
        <ele>34</ele>
        <time>2023-07-19T11:16:23Z</time>
      </trkpt>
      <trkpt lat="47.4508" lon="-0.58035">
        <ele>34.2</ele>
        <time>2023-07-19T11:16:24Z</time>
      </trkpt>
      <trkpt lat="47.45078" lon="-0.58034">
        <ele>34.2</ele>
        <time>2023-07-19T11:16:25Z</time>
      </trkpt>
      <trkpt lat="47.45077" lon="-0.58032">
        <ele>34.2</ele>
        <time>2023-07-19T11:16:26Z</time>
      </trkpt>
      <trkpt lat="47.45075" lon="-0.5803">
        <ele>34.4</ele>
        <time>2023-07-19T11:16:27Z</time>
      </trkpt>
      <trkpt lat="47.45073" lon="-0.58028">
        <ele>34.6</ele>
        <time>2023-07-19T11:16:28Z</time>
      </trkpt>
      <trkpt lat="47.45071" lon="-0.58026">
        <ele>34.6</ele>
        <time>2023-07-19T11:16:29Z</time>
      </trkpt>
      <trkpt lat="47.45069" lon="-0.58024">
        <ele>34.8</ele>
        <time>2023-07-19T11:16:30Z</time>
      </trkpt>
      <trkpt lat="47.45068" lon="-0.58022">
        <ele>35</ele>
        <time>2023-07-19T11:16:31Z</time>
      </trkpt>
      <trkpt lat="47.45066" lon="-0.58021">
        <ele>35.2</ele>
        <time>2023-07-19T11:16:32Z</time>
      </trkpt>
      <trkpt lat="47.45064" lon="-0.5802">
        <ele>35.4</ele>
        <time>2023-07-19T11:16:33Z</time>
      </trkpt>
      <trkpt lat="47.45062" lon="-0.58019">
        <ele>35.4</ele>
        <time>2023-07-19T11:16:34Z</time>
      </trkpt>
      <trkpt lat="47.4506" lon="-0.58019">
        <ele>35.6</ele>
        <time>2023-07-19T11:16:35Z</time>
      </trkpt>
      <trkpt lat="47.45058" lon="-0.5802">
        <ele>35.8</ele>
        <time>2023-07-19T11:16:36Z</time>
      </trkpt>
      <trkpt lat="47.45056" lon="-0.58021">
        <ele>35.8</ele>
        <time>2023-07-19T11:16:37Z</time>
      </trkpt>
      <trkpt lat="47.45054" lon="-0.58023">
        <ele>36</ele>
        <time>2023-07-19T11:16:38Z</time>
      </trkpt>
      <trkpt lat="47.45052" lon="-0.58025">
        <ele>36.2</ele>
        <time>2023-07-19T11:16:39Z</time>
      </trkpt>
      <trkpt lat="47.45051" lon="-0.58028">
        <ele>36.2</ele>
        <time>2023-07-19T11:16:40Z</time>
      </trkpt>
      <trkpt lat="47.45049" lon="-0.58031">
        <ele>36.4</ele>
        <time>2023-07-19T11:16:41Z</time>
      </trkpt>
      <trkpt lat="47.45048" lon="-0.58033">
        <ele>36.4</ele>
        <time>2023-07-19T11:16:42Z</time>
      </trkpt>
      <trkpt lat="47.45046" lon="-0.58036">
        <ele>36.4</ele>
        <time>2023-07-19T11:16:43Z</time>
      </trkpt>
      <trkpt lat="47.45045" lon="-0.58039">
        <ele>36.4</ele>
        <time>2023-07-19T11:16:44Z</time>
      </trkpt>
      <trkpt lat="47.45043" lon="-0.58041">
        <ele>36.4</ele>
        <time>2023-07-19T11:16:45Z</time>
      </trkpt>
      <trkpt lat="47.45041" lon="-0.58044">
        <ele>36.4</ele>
        <time>2023-07-19T11:16:46Z</time>
      </trkpt>
      <trkpt lat="47.45039" lon="-0.58046">
        <ele>36.4</ele>
        <time>2023-07-19T11:16:47Z</time>
      </trkpt>
      <trkpt lat="47.45038" lon="-0.58049">
        <ele>36.4</ele>
        <time>2023-07-19T11:16:48Z</time>
      </trkpt>
      <trkpt lat="47.45036" lon="-0.58052">
        <ele>36.4</ele>
        <time>2023-07-19T11:16:49Z</time>
      </trkpt>
      <trkpt lat="47.45034" lon="-0.58055">
        <ele>36.4</ele>
        <time>2023-07-19T11:16:50Z</time>
      </trkpt>
      <trkpt lat="47.45032" lon="-0.58059">
        <ele>36.4</ele>
        <time>2023-07-19T11:16:51Z</time>
      </trkpt>
      <trkpt lat="47.45031" lon="-0.58063">
        <ele>36.4</ele>
        <time>2023-07-19T11:16:52Z</time>
      </trkpt>
      <trkpt lat="47.45024" lon="-0.58079">
        <ele>36.4</ele>
        <time>2023-07-19T11:16:56Z</time>
      </trkpt>
      <trkpt lat="47.45022" lon="-0.58084">
        <ele>36.4</ele>
        <time>2023-07-19T11:16:57Z</time>
      </trkpt>
      <trkpt lat="47.45013" lon="-0.58115">
        <ele>36.2</ele>
        <time>2023-07-19T11:17:04Z</time>
      </trkpt>
      <trkpt lat="47.45012" lon="-0.58119">
        <ele>36.2</ele>
        <time>2023-07-19T11:17:05Z</time>
      </trkpt>
      <trkpt lat="47.45011" lon="-0.58123">
        <ele>36</ele>
        <time>2023-07-19T11:17:06Z</time>
      </trkpt>
      <trkpt lat="47.4501" lon="-0.58126">
        <ele>35.8</ele>
        <time>2023-07-19T11:17:07Z</time>
      </trkpt>
      <trkpt lat="47.45009" lon="-0.58129">
        <ele>35.8</ele>
        <time>2023-07-19T11:17:08Z</time>
      </trkpt>
      <trkpt lat="47.45008" lon="-0.58133">
        <ele>35.6</ele>
        <time>2023-07-19T11:17:10Z</time>
      </trkpt>
      <trkpt lat="47.45008" lon="-0.58133">
        <ele>35.6</ele>
        <time>2023-07-19T11:17:11Z</time>
      </trkpt>
      <trkpt lat="47.45008" lon="-0.58133">
        <ele>35.4</ele>
        <time>2023-07-19T11:17:12Z</time>
      </trkpt>
      <trkpt lat="47.45009" lon="-0.58129">
        <ele>35</ele>
        <time>2023-07-19T11:17:25Z</time>
      </trkpt>
      <trkpt lat="47.45009" lon="-0.58128">
        <ele>35</ele>
        <time>2023-07-19T11:17:26Z</time>
      </trkpt>
      <trkpt lat="47.45009" lon="-0.58126">
        <ele>35</ele>
        <time>2023-07-19T11:17:27Z</time>
      </trkpt>
      <trkpt lat="47.45008" lon="-0.58126">
        <ele>35</ele>
        <time>2023-07-19T11:17:28Z</time>
      </trkpt>
      <trkpt lat="47.45008" lon="-0.58126">
        <ele>34.8</ele>
        <time>2023-07-19T11:17:29Z</time>
      </trkpt>
      <trkpt lat="47.45008" lon="-0.58126">
        <ele>34.8</ele>
        <time>2023-07-19T11:17:30Z</time>
      </trkpt>
      <trkpt lat="47.45014" lon="-0.58114">
        <ele>35.2</ele>
        <time>2023-07-19T11:18:04Z</time>
      </trkpt>
      <trkpt lat="47.45014" lon="-0.5811">
        <ele>35.2</ele>
        <time>2023-07-19T11:18:05Z</time>
      </trkpt>
      <trkpt lat="47.45015" lon="-0.58107">
        <ele>35.2</ele>
        <time>2023-07-19T11:18:06Z</time>
      </trkpt>
      <trkpt lat="47.45016" lon="-0.58104">
        <ele>35.2</ele>
        <time>2023-07-19T11:18:07Z</time>
      </trkpt>
      <trkpt lat="47.45019" lon="-0.58098">
        <ele>34.8</ele>
        <time>2023-07-19T11:18:09Z</time>
      </trkpt>
      <trkpt lat="47.45021" lon="-0.58094">
        <ele>34.8</ele>
        <time>2023-07-19T11:18:10Z</time>
      </trkpt>
      <trkpt lat="47.45022" lon="-0.58091">
        <ele>34.8</ele>
        <time>2023-07-19T11:18:11Z</time>
      </trkpt>
      <trkpt lat="47.45028" lon="-0.5807">
        <ele>34.8</ele>
        <time>2023-07-19T11:18:17Z</time>
      </trkpt>
      <trkpt lat="47.45038" lon="-0.58049">
        <ele>35.2</ele>
        <time>2023-07-19T11:18:24Z</time>
      </trkpt>
      <trkpt lat="47.4504" lon="-0.58046">
        <ele>35.2</ele>
        <time>2023-07-19T11:18:25Z</time>
      </trkpt>
      <trkpt lat="47.45048" lon="-0.58032">
        <ele>35.8</ele>
        <time>2023-07-19T11:18:30Z</time>
      </trkpt>
      <trkpt lat="47.4505" lon="-0.5803">
        <ele>36</ele>
        <time>2023-07-19T11:18:31Z</time>
      </trkpt>
      <trkpt lat="47.45051" lon="-0.58027">
        <ele>36.2</ele>
        <time>2023-07-19T11:18:32Z</time>
      </trkpt>
      <trkpt lat="47.45053" lon="-0.58025">
        <ele>36.2</ele>
        <time>2023-07-19T11:18:33Z</time>
      </trkpt>
      <trkpt lat="47.45054" lon="-0.58022">
        <ele>36.2</ele>
        <time>2023-07-19T11:18:34Z</time>
      </trkpt>
      <trkpt lat="47.45057" lon="-0.58019">
        <ele>36.4</ele>
        <time>2023-07-19T11:18:36Z</time>
      </trkpt>
      <trkpt lat="47.45062" lon="-0.58018">
        <ele>36.4</ele>
        <time>2023-07-19T11:18:38Z</time>
      </trkpt>
      <trkpt lat="47.45072" lon="-0.58026">
        <ele>36.4</ele>
        <time>2023-07-19T11:18:42Z</time>
      </trkpt>
      <trkpt lat="47.45075" lon="-0.5803">
        <ele>36.4</ele>
        <time>2023-07-19T11:18:43Z</time>
      </trkpt>
      <trkpt lat="47.45078" lon="-0.58034">
        <ele>36.4</ele>
        <time>2023-07-19T11:18:44Z</time>
      </trkpt>
      <trkpt lat="47.45093" lon="-0.58054">
        <ele>36.4</ele>
        <time>2023-07-19T11:18:48Z</time>
      </trkpt>
      <trkpt lat="47.45124" lon="-0.58095">
        <ele>35.6</ele>
        <time>2023-07-19T11:18:55Z</time>
      </trkpt>
      <trkpt lat="47.45128" lon="-0.58101">
        <ele>35</ele>
        <time>2023-07-19T11:18:56Z</time>
      </trkpt>
      <trkpt lat="47.45138" lon="-0.58113">
        <ele>33.6</ele>
        <time>2023-07-19T11:18:58Z</time>
      </trkpt>
      <trkpt lat="47.45153" lon="-0.58134">
        <ele>32.2</ele>
        <time>2023-07-19T11:19:01Z</time>
      </trkpt>
      <trkpt lat="47.4517" lon="-0.58154">
        <ele>31</ele>
        <time>2023-07-19T11:19:04Z</time>
      </trkpt>
      <trkpt lat="47.45185" lon="-0.58174">
        <ele>30.4</ele>
        <time>2023-07-19T11:19:07Z</time>
      </trkpt>
      <trkpt lat="47.45189" lon="-0.5818">
        <ele>30</ele>
        <time>2023-07-19T11:19:08Z</time>
      </trkpt>
      <trkpt lat="47.45194" lon="-0.58185">
        <ele>29.4</ele>
        <time>2023-07-19T11:19:09Z</time>
      </trkpt>
      <trkpt lat="47.45199" lon="-0.5819">
        <ele>29.2</ele>
        <time>2023-07-19T11:19:10Z</time>
      </trkpt>
      <trkpt lat="47.45203" lon="-0.58192">
        <ele>28.8</ele>
        <time>2023-07-19T11:19:11Z</time>
      </trkpt>
      <trkpt lat="47.45207" lon="-0.58194">
        <ele>28.4</ele>
        <time>2023-07-19T11:19:12Z</time>
      </trkpt>
      <trkpt lat="47.4521" lon="-0.58194">
        <ele>28</ele>
        <time>2023-07-19T11:19:13Z</time>
      </trkpt>
      <trkpt lat="47.45213" lon="-0.58193">
        <ele>27.4</ele>
        <time>2023-07-19T11:19:14Z</time>
      </trkpt>
      <trkpt lat="47.45215" lon="-0.58192">
        <ele>26.8</ele>
        <time>2023-07-19T11:19:15Z</time>
      </trkpt>
      <trkpt lat="47.45218" lon="-0.5819">
        <ele>26</ele>
        <time>2023-07-19T11:19:16Z</time>
      </trkpt>
      <trkpt lat="47.4522" lon="-0.58187">
        <ele>25.6</ele>
        <time>2023-07-19T11:19:17Z</time>
      </trkpt>
      <trkpt lat="47.45222" lon="-0.58184">
        <ele>25.2</ele>
        <time>2023-07-19T11:19:18Z</time>
      </trkpt>
      <trkpt lat="47.45225" lon="-0.58182">
        <ele>25</ele>
        <time>2023-07-19T11:19:19Z</time>
      </trkpt>
      <trkpt lat="47.45227" lon="-0.58179">
        <ele>24.8</ele>
        <time>2023-07-19T11:19:20Z</time>
      </trkpt>
      <trkpt lat="47.4523" lon="-0.58176">
        <ele>24.8</ele>
        <time>2023-07-19T11:19:21Z</time>
      </trkpt>
      <trkpt lat="47.45232" lon="-0.58174">
        <ele>24.6</ele>
        <time>2023-07-19T11:19:22Z</time>
      </trkpt>
      <trkpt lat="47.45235" lon="-0.58171">
        <ele>24.6</ele>
        <time>2023-07-19T11:19:23Z</time>
      </trkpt>
      <trkpt lat="47.45257" lon="-0.58139">
        <ele>24.2</ele>
        <time>2023-07-19T11:19:32Z</time>
      </trkpt>
      <trkpt lat="47.45281" lon="-0.58104">
        <ele>24</ele>
        <time>2023-07-19T11:19:41Z</time>
      </trkpt>
      <trkpt lat="47.45299" lon="-0.58077">
        <ele>24</ele>
        <time>2023-07-19T11:19:47Z</time>
      </trkpt>
      <trkpt lat="47.45305" lon="-0.58066">
        <ele>23.8</ele>
        <time>2023-07-19T11:19:49Z</time>
      </trkpt>
      <trkpt lat="47.45315" lon="-0.58051">
        <ele>23.6</ele>
        <time>2023-07-19T11:19:52Z</time>
      </trkpt>
      <trkpt lat="47.45318" lon="-0.58049">
        <ele>23.4</ele>
        <time>2023-07-19T11:19:53Z</time>
      </trkpt>
      <trkpt lat="47.4532" lon="-0.5805">
        <ele>23.2</ele>
        <time>2023-07-19T11:19:54Z</time>
      </trkpt>
      <trkpt lat="47.45322" lon="-0.58053">
        <ele>23.2</ele>
        <time>2023-07-19T11:19:55Z</time>
      </trkpt>
      <trkpt lat="47.45323" lon="-0.58057">
        <ele>23</ele>
        <time>2023-07-19T11:19:56Z</time>
      </trkpt>
      <trkpt lat="47.45322" lon="-0.58062">
        <ele>22.8</ele>
        <time>2023-07-19T11:19:57Z</time>
      </trkpt>
      <trkpt lat="47.4532" lon="-0.58071">
        <ele>22.4</ele>
        <time>2023-07-19T11:19:59Z</time>
      </trkpt>
      <trkpt lat="47.45318" lon="-0.58076">
        <ele>22.4</ele>
        <time>2023-07-19T11:20:00Z</time>
      </trkpt>
      <trkpt lat="47.45316" lon="-0.58081">
        <ele>22.4</ele>
        <time>2023-07-19T11:20:01Z</time>
      </trkpt>
      <trkpt lat="47.45314" lon="-0.58085">
        <ele>22.4</ele>
        <time>2023-07-19T11:20:02Z</time>
      </trkpt>
      <trkpt lat="47.45307" lon="-0.58097">
        <ele>22.2</ele>
        <time>2023-07-19T11:20:05Z</time>
      </trkpt>
      <trkpt lat="47.45305" lon="-0.58101">
        <ele>22</ele>
        <time>2023-07-19T11:20:06Z</time>
      </trkpt>
      <trkpt lat="47.453" lon="-0.5811">
        <ele>21.6</ele>
        <time>2023-07-19T11:20:08Z</time>
      </trkpt>
      <trkpt lat="47.45298" lon="-0.58114">
        <ele>21.4</ele>
        <time>2023-07-19T11:20:09Z</time>
      </trkpt>
      <trkpt lat="47.45286" lon="-0.58134">
        <ele>20.4</ele>
        <time>2023-07-19T11:20:14Z</time>
      </trkpt>
      <trkpt lat="47.45284" lon="-0.58138">
        <ele>20.4</ele>
        <time>2023-07-19T11:20:15Z</time>
      </trkpt>
      <trkpt lat="47.45282" lon="-0.58141">
        <ele>20.2</ele>
        <time>2023-07-19T11:20:16Z</time>
      </trkpt>
      <trkpt lat="47.4528" lon="-0.58144">
        <ele>20</ele>
        <time>2023-07-19T11:20:17Z</time>
      </trkpt>
      <trkpt lat="47.45278" lon="-0.58147">
        <ele>19.8</ele>
        <time>2023-07-19T11:20:18Z</time>
      </trkpt>
      <trkpt lat="47.45276" lon="-0.5815">
        <ele>19.8</ele>
        <time>2023-07-19T11:20:19Z</time>
      </trkpt>
      <trkpt lat="47.45272" lon="-0.58155">
        <ele>19.6</ele>
        <time>2023-07-19T11:20:21Z</time>
      </trkpt>
      <trkpt lat="47.4527" lon="-0.58158">
        <ele>19.6</ele>
        <time>2023-07-19T11:20:22Z</time>
      </trkpt>
      <trkpt lat="47.45268" lon="-0.5816">
        <ele>19.6</ele>
        <time>2023-07-19T11:20:23Z</time>
      </trkpt>
      <trkpt lat="47.45266" lon="-0.58162">
        <ele>19.6</ele>
        <time>2023-07-19T11:20:24Z</time>
      </trkpt>
      <trkpt lat="47.45264" lon="-0.58165">
        <ele>19.4</ele>
        <time>2023-07-19T11:20:25Z</time>
      </trkpt>
      <trkpt lat="47.45262" lon="-0.58167">
        <ele>19.4</ele>
        <time>2023-07-19T11:20:26Z</time>
      </trkpt>
      <trkpt lat="47.45257" lon="-0.58174">
        <ele>19.4</ele>
        <time>2023-07-19T11:20:28Z</time>
      </trkpt>
      <trkpt lat="47.45252" lon="-0.58182">
        <ele>19.4</ele>
        <time>2023-07-19T11:20:31Z</time>
      </trkpt>
      <trkpt lat="47.4525" lon="-0.58184">
        <ele>19.4</ele>
        <time>2023-07-19T11:20:32Z</time>
      </trkpt>
      <trkpt lat="47.45248" lon="-0.58187">
        <ele>19.4</ele>
        <time>2023-07-19T11:20:33Z</time>
      </trkpt>
      <trkpt lat="47.45246" lon="-0.5819">
        <ele>19.4</ele>
        <time>2023-07-19T11:20:34Z</time>
      </trkpt>
      <trkpt lat="47.45244" lon="-0.58194">
        <ele>19.4</ele>
        <time>2023-07-19T11:20:35Z</time>
      </trkpt>
      <trkpt lat="47.45238" lon="-0.58204">
        <ele>19.4</ele>
        <time>2023-07-19T11:20:38Z</time>
      </trkpt>
      <trkpt lat="47.45235" lon="-0.58207">
        <ele>19.4</ele>
        <time>2023-07-19T11:20:39Z</time>
      </trkpt>
      <trkpt lat="47.45233" lon="-0.58211">
        <ele>19.4</ele>
        <time>2023-07-19T11:20:40Z</time>
      </trkpt>
      <trkpt lat="47.4523" lon="-0.58219">
        <ele>19.2</ele>
        <time>2023-07-19T11:20:42Z</time>
      </trkpt>
      <trkpt lat="47.45222" lon="-0.58237">
        <ele>19.2</ele>
        <time>2023-07-19T11:20:47Z</time>
      </trkpt>
      <trkpt lat="47.4521" lon="-0.58257">
        <ele>19</ele>
        <time>2023-07-19T11:20:54Z</time>
      </trkpt>
      <trkpt lat="47.45207" lon="-0.58262">
        <ele>19</ele>
        <time>2023-07-19T11:20:56Z</time>
      </trkpt>
      <trkpt lat="47.45205" lon="-0.58266">
        <ele>19</ele>
        <time>2023-07-19T11:20:57Z</time>
      </trkpt>
      <trkpt lat="47.45191" lon="-0.58284">
        <ele>18.8</ele>
        <time>2023-07-19T11:21:03Z</time>
      </trkpt>
      <trkpt lat="47.45186" lon="-0.58295">
        <ele>18.8</ele>
        <time>2023-07-19T11:21:06Z</time>
      </trkpt>
      <trkpt lat="47.45184" lon="-0.583">
        <ele>18.8</ele>
        <time>2023-07-19T11:21:07Z</time>
      </trkpt>
      <trkpt lat="47.45182" lon="-0.58305">
        <ele>18.8</ele>
        <time>2023-07-19T11:21:08Z</time>
      </trkpt>
      <trkpt lat="47.45165" lon="-0.58345">
        <ele>18.6</ele>
        <time>2023-07-19T11:21:17Z</time>
      </trkpt>
      <trkpt lat="47.45162" lon="-0.58353">
        <ele>18.8</ele>
        <time>2023-07-19T11:21:19Z</time>
      </trkpt>
      <trkpt lat="47.45161" lon="-0.58357">
        <ele>18.6</ele>
        <time>2023-07-19T11:21:20Z</time>
      </trkpt>
      <trkpt lat="47.45159" lon="-0.58361">
        <ele>18.6</ele>
        <time>2023-07-19T11:21:21Z</time>
      </trkpt>
      <trkpt lat="47.45158" lon="-0.58364">
        <ele>18.6</ele>
        <time>2023-07-19T11:21:22Z</time>
      </trkpt>
      <trkpt lat="47.45156" lon="-0.58368">
        <ele>18.6</ele>
        <time>2023-07-19T11:21:23Z</time>
      </trkpt>
      <trkpt lat="47.45154" lon="-0.58371">
        <ele>18.4</ele>
        <time>2023-07-19T11:21:24Z</time>
      </trkpt>
      <trkpt lat="47.45152" lon="-0.58374">
        <ele>18.4</ele>
        <time>2023-07-19T11:21:25Z</time>
      </trkpt>
      <trkpt lat="47.45151" lon="-0.58378">
        <ele>18.4</ele>
        <time>2023-07-19T11:21:26Z</time>
      </trkpt>
      <trkpt lat="47.45149" lon="-0.58382">
        <ele>18.4</ele>
        <time>2023-07-19T11:21:27Z</time>
      </trkpt>
      <trkpt lat="47.45148" lon="-0.58385">
        <ele>18.2</ele>
        <time>2023-07-19T11:21:28Z</time>
      </trkpt>
      <trkpt lat="47.45147" lon="-0.58388">
        <ele>18.2</ele>
        <time>2023-07-19T11:21:29Z</time>
      </trkpt>
      <trkpt lat="47.45146" lon="-0.58391">
        <ele>18.2</ele>
        <time>2023-07-19T11:21:30Z</time>
      </trkpt>
      <trkpt lat="47.45144" lon="-0.58395">
        <ele>18.2</ele>
        <time>2023-07-19T11:21:31Z</time>
      </trkpt>
      <trkpt lat="47.45143" lon="-0.58398">
        <ele>18.2</ele>
        <time>2023-07-19T11:21:32Z</time>
      </trkpt>
      <trkpt lat="47.45142" lon="-0.58401">
        <ele>18.2</ele>
        <time>2023-07-19T11:21:33Z</time>
      </trkpt>
      <trkpt lat="47.4514" lon="-0.58404">
        <ele>18.2</ele>
        <time>2023-07-19T11:21:34Z</time>
      </trkpt>
      <trkpt lat="47.45138" lon="-0.58407">
        <ele>18.2</ele>
        <time>2023-07-19T11:21:35Z</time>
      </trkpt>
      <trkpt lat="47.45137" lon="-0.58411">
        <ele>18.2</ele>
        <time>2023-07-19T11:21:36Z</time>
      </trkpt>
      <trkpt lat="47.45136" lon="-0.58415">
        <ele>18.2</ele>
        <time>2023-07-19T11:21:37Z</time>
      </trkpt>
      <trkpt lat="47.45133" lon="-0.58423">
        <ele>18.2</ele>
        <time>2023-07-19T11:21:39Z</time>
      </trkpt>
      <trkpt lat="47.45117" lon="-0.58456">
        <ele>18.2</ele>
        <time>2023-07-19T11:21:48Z</time>
      </trkpt>
      <trkpt lat="47.45115" lon="-0.5846">
        <ele>18.2</ele>
        <time>2023-07-19T11:21:49Z</time>
      </trkpt>
      <trkpt lat="47.45106" lon="-0.58481">
        <ele>18.4</ele>
        <time>2023-07-19T11:21:54Z</time>
      </trkpt>
      <trkpt lat="47.45101" lon="-0.58497">
        <ele>18.4</ele>
        <time>2023-07-19T11:21:57Z</time>
      </trkpt>
      <trkpt lat="47.45098" lon="-0.5851">
        <ele>18.4</ele>
        <time>2023-07-19T11:21:59Z</time>
      </trkpt>
      <trkpt lat="47.45097" lon="-0.58522">
        <ele>18.4</ele>
        <time>2023-07-19T11:22:01Z</time>
      </trkpt>
      <trkpt lat="47.45096" lon="-0.58527">
        <ele>18.4</ele>
        <time>2023-07-19T11:22:02Z</time>
      </trkpt>
      <trkpt lat="47.45095" lon="-0.58533">
        <ele>18.4</ele>
        <time>2023-07-19T11:22:03Z</time>
      </trkpt>
      <trkpt lat="47.45095" lon="-0.58538">
        <ele>18.4</ele>
        <time>2023-07-19T11:22:04Z</time>
      </trkpt>
      <trkpt lat="47.45094" lon="-0.58544">
        <ele>18.2</ele>
        <time>2023-07-19T11:22:05Z</time>
      </trkpt>
      <trkpt lat="47.45092" lon="-0.58561">
        <ele>17.8</ele>
        <time>2023-07-19T11:22:08Z</time>
      </trkpt>
      <trkpt lat="47.45092" lon="-0.58567">
        <ele>17.6</ele>
        <time>2023-07-19T11:22:09Z</time>
      </trkpt>
      <trkpt lat="47.45091" lon="-0.58573">
        <ele>17.4</ele>
        <time>2023-07-19T11:22:10Z</time>
      </trkpt>
      <trkpt lat="47.4509" lon="-0.58578">
        <ele>17</ele>
        <time>2023-07-19T11:22:11Z</time>
      </trkpt>
      <trkpt lat="47.4509" lon="-0.58584">
        <ele>17</ele>
        <time>2023-07-19T11:22:12Z</time>
      </trkpt>
      <trkpt lat="47.45089" lon="-0.58591">
        <ele>16.8</ele>
        <time>2023-07-19T11:22:13Z</time>
      </trkpt>
      <trkpt lat="47.45089" lon="-0.58597">
        <ele>16.8</ele>
        <time>2023-07-19T11:22:14Z</time>
      </trkpt>
      <trkpt lat="47.45087" lon="-0.58623">
        <ele>16.6</ele>
        <time>2023-07-19T11:22:18Z</time>
      </trkpt>
      <trkpt lat="47.45089" lon="-0.5865">
        <ele>16.2</ele>
        <time>2023-07-19T11:22:23Z</time>
      </trkpt>
      <trkpt lat="47.45092" lon="-0.58667">
        <ele>16</ele>
        <time>2023-07-19T11:22:26Z</time>
      </trkpt>
      <trkpt lat="47.45098" lon="-0.5869">
        <ele>16</ele>
        <time>2023-07-19T11:22:30Z</time>
      </trkpt>
      <trkpt lat="47.451" lon="-0.58701">
        <ele>15.8</ele>
        <time>2023-07-19T11:22:32Z</time>
      </trkpt>
      <trkpt lat="47.45101" lon="-0.5871">
        <ele>15.6</ele>
        <time>2023-07-19T11:22:34Z</time>
      </trkpt>
      <trkpt lat="47.45102" lon="-0.58714">
        <ele>15.6</ele>
        <time>2023-07-19T11:22:35Z</time>
      </trkpt>
      <trkpt lat="47.45102" lon="-0.58718">
        <ele>15.4</ele>
        <time>2023-07-19T11:22:36Z</time>
      </trkpt>
      <trkpt lat="47.45103" lon="-0.58721">
        <ele>15.4</ele>
        <time>2023-07-19T11:22:37Z</time>
      </trkpt>
      <trkpt lat="47.45102" lon="-0.58724">
        <ele>15.4</ele>
        <time>2023-07-19T11:22:38Z</time>
      </trkpt>
      <trkpt lat="47.45101" lon="-0.58727">
        <ele>15.4</ele>
        <time>2023-07-19T11:22:39Z</time>
      </trkpt>
      <trkpt lat="47.45101" lon="-0.5873">
        <ele>15.4</ele>
        <time>2023-07-19T11:22:40Z</time>
      </trkpt>
      <trkpt lat="47.45101" lon="-0.58732">
        <ele>15.2</ele>
        <time>2023-07-19T11:22:41Z</time>
      </trkpt>
      <trkpt lat="47.45101" lon="-0.58736">
        <ele>15.2</ele>
        <time>2023-07-19T11:22:42Z</time>
      </trkpt>
      <trkpt lat="47.451" lon="-0.58739">
        <ele>15.2</ele>
        <time>2023-07-19T11:22:43Z</time>
      </trkpt>
      <trkpt lat="47.451" lon="-0.58742">
        <ele>15.2</ele>
        <time>2023-07-19T11:22:44Z</time>
      </trkpt>
      <trkpt lat="47.451" lon="-0.58747">
        <ele>15.2</ele>
        <time>2023-07-19T11:22:46Z</time>
      </trkpt>
      <trkpt lat="47.45098" lon="-0.58757">
        <ele>15.2</ele>
        <time>2023-07-19T11:22:49Z</time>
      </trkpt>
      <trkpt lat="47.45098" lon="-0.5876">
        <ele>15.2</ele>
        <time>2023-07-19T11:22:50Z</time>
      </trkpt>
      <trkpt lat="47.45099" lon="-0.58763">
        <ele>15.2</ele>
        <time>2023-07-19T11:22:51Z</time>
      </trkpt>
      <trkpt lat="47.45099" lon="-0.58766">
        <ele>15.2</ele>
        <time>2023-07-19T11:22:52Z</time>
      </trkpt>
      <trkpt lat="47.45099" lon="-0.58769">
        <ele>15</ele>
        <time>2023-07-19T11:22:53Z</time>
      </trkpt>
      <trkpt lat="47.451" lon="-0.58773">
        <ele>15</ele>
        <time>2023-07-19T11:22:54Z</time>
      </trkpt>
      <trkpt lat="47.45101" lon="-0.58776">
        <ele>15</ele>
        <time>2023-07-19T11:22:55Z</time>
      </trkpt>
      <trkpt lat="47.45103" lon="-0.58779">
        <ele>15</ele>
        <time>2023-07-19T11:22:56Z</time>
      </trkpt>
      <trkpt lat="47.45104" lon="-0.58782">
        <ele>14.8</ele>
        <time>2023-07-19T11:22:57Z</time>
      </trkpt>
      <trkpt lat="47.45105" lon="-0.58785">
        <ele>14.8</ele>
        <time>2023-07-19T11:22:58Z</time>
      </trkpt>
      <trkpt lat="47.45106" lon="-0.58788">
        <ele>15</ele>
        <time>2023-07-19T11:22:59Z</time>
      </trkpt>
      <trkpt lat="47.45107" lon="-0.58791">
        <ele>15</ele>
        <time>2023-07-19T11:23:00Z</time>
      </trkpt>
      <trkpt lat="47.45108" lon="-0.58793">
        <ele>15</ele>
        <time>2023-07-19T11:23:01Z</time>
      </trkpt>
      <trkpt lat="47.45109" lon="-0.58795">
        <ele>14.8</ele>
        <time>2023-07-19T11:23:02Z</time>
      </trkpt>
      <trkpt lat="47.45109" lon="-0.58797">
        <ele>14.8</ele>
        <time>2023-07-19T11:23:03Z</time>
      </trkpt>
      <trkpt lat="47.45109" lon="-0.58799">
        <ele>14.8</ele>
        <time>2023-07-19T11:23:04Z</time>
      </trkpt>
      <trkpt lat="47.45108" lon="-0.58799">
        <ele>14.8</ele>
        <time>2023-07-19T11:23:05Z</time>
      </trkpt>
      <trkpt lat="47.45108" lon="-0.58799">
        <ele>14.8</ele>
        <time>2023-07-19T11:23:06Z</time>
      </trkpt>
      <trkpt lat="47.45108" lon="-0.58799">
        <ele>14.8</ele>
        <time>2023-07-19T11:23:07Z</time>
      </trkpt>
      <trkpt lat="47.45108" lon="-0.58799">
        <ele>14.8</ele>
        <time>2023-07-19T11:23:08Z</time>
      </trkpt>
      <trkpt lat="47.45108" lon="-0.58799">
        <ele>14.8</ele>
        <time>2023-07-19T11:23:09Z</time>
      </trkpt>
      <trkpt lat="47.45109" lon="-0.58799">
        <ele>14.8</ele>
        <time>2023-07-19T11:23:10Z</time>
      </trkpt>
      <trkpt lat="47.45109" lon="-0.58799">
        <ele>14.6</ele>
        <time>2023-07-19T11:23:11Z</time>
      </trkpt>
      <trkpt lat="47.45109" lon="-0.58799">
        <ele>14.6</ele>
        <time>2023-07-19T11:23:12Z</time>
      </trkpt>
      <trkpt lat="47.45109" lon="-0.58799">
        <ele>14.6</ele>
        <time>2023-07-19T11:23:13Z</time>
      </trkpt>
      <trkpt lat="47.45109" lon="-0.58799">
        <ele>14.6</ele>
        <time>2023-07-19T11:23:14Z</time>
      </trkpt>
      <trkpt lat="47.45109" lon="-0.58799">
        <ele>14.6</ele>
        <time>2023-07-19T11:23:15Z</time>
      </trkpt>
      <trkpt lat="47.45109" lon="-0.58799">
        <ele>14.6</ele>
        <time>2023-07-19T11:23:16Z</time>
      </trkpt>
      <trkpt lat="47.45111" lon="-0.58809">
        <ele>15.4</ele>
        <time>2023-07-19T11:25:07Z</time>
      </trkpt>
      <trkpt lat="47.45111" lon="-0.5881">
        <ele>15.4</ele>
        <time>2023-07-19T11:25:13Z</time>
      </trkpt>
      <trkpt lat="47.45111" lon="-0.5881">
        <ele>15.6</ele>
        <time>2023-07-19T11:25:14Z</time>
      </trkpt>
      <trkpt lat="47.4511" lon="-0.5881">
        <ele>15.8</ele>
        <time>2023-07-19T11:25:15Z</time>
      </trkpt>
      <trkpt lat="47.45108" lon="-0.5881">
        <ele>15.8</ele>
        <time>2023-07-19T11:25:16Z</time>
      </trkpt>
      <trkpt lat="47.45108" lon="-0.5881">
        <ele>16</ele>
        <time>2023-07-19T11:25:17Z</time>
      </trkpt>
      <trkpt lat="47.45108" lon="-0.5881">
        <ele>16.2</ele>
        <time>2023-07-19T11:25:19Z</time>
      </trkpt>
      <trkpt lat="47.45108" lon="-0.5881">
        <ele>16.2</ele>
        <time>2023-07-19T11:25:20Z</time>
      </trkpt>
      <trkpt lat="47.45108" lon="-0.5881">
        <ele>16.2</ele>
        <time>2023-07-19T11:25:21Z</time>
      </trkpt>
      <trkpt lat="47.45108" lon="-0.5881">
        <ele>16.4</ele>
        <time>2023-07-19T11:25:22Z</time>
      </trkpt>
      <trkpt lat="47.45108" lon="-0.5881">
        <ele>16.4</ele>
        <time>2023-07-19T11:25:23Z</time>
      </trkpt>
      <trkpt lat="47.45108" lon="-0.5881">
        <ele>16.6</ele>
        <time>2023-07-19T11:25:28Z</time>
      </trkpt>
      <trkpt lat="47.45108" lon="-0.5881">
        <ele>16.6</ele>
        <time>2023-07-19T11:25:29Z</time>
      </trkpt>
      <trkpt lat="47.45108" lon="-0.5881">
        <ele>17</ele>
        <time>2023-07-19T11:25:32Z</time>
      </trkpt>
      <trkpt lat="47.45043" lon="-0.58853">
        <ele>16.2</ele>
        <time>2023-07-19T11:33:31Z</time>
      </trkpt>
      <trkpt lat="47.45043" lon="-0.58853">
        <ele>16.2</ele>
        <time>2023-07-19T11:33:33Z</time>
      </trkpt>
      <trkpt lat="47.45042" lon="-0.58853">
        <ele>16.2</ele>
        <time>2023-07-19T11:33:35Z</time>
      </trkpt>
      <trkpt lat="47.45042" lon="-0.58853">
        <ele>16.2</ele>
        <time>2023-07-19T11:33:36Z</time>
      </trkpt>
      <trkpt lat="47.45042" lon="-0.58853">
        <ele>16.2</ele>
        <time>2023-07-19T11:33:37Z</time>
      </trkpt>
      <trkpt lat="47.45042" lon="-0.58853">
        <ele>16.2</ele>
        <time>2023-07-19T11:33:40Z</time>
      </trkpt>
      <trkpt lat="47.45039" lon="-0.58862">
        <ele>17.8</ele>
        <time>2023-07-19T11:59:27Z</time>
      </trkpt>
      <trkpt lat="47.45035" lon="-0.58863">
        <ele>17.8</ele>
        <time>2023-07-19T11:59:31Z</time>
      </trkpt>
      <trkpt lat="47.45035" lon="-0.58863">
        <ele>17.8</ele>
        <time>2023-07-19T11:59:32Z</time>
      </trkpt>
      <trkpt lat="47.45032" lon="-0.58865">
        <ele>17.6</ele>
        <time>2023-07-19T11:59:38Z</time>
      </trkpt>
      <trkpt lat="47.45029" lon="-0.58867">
        <ele>17.6</ele>
        <time>2023-07-19T11:59:40Z</time>
      </trkpt>
      <trkpt lat="47.45027" lon="-0.58868">
        <ele>17.6</ele>
        <time>2023-07-19T11:59:41Z</time>
      </trkpt>
      <trkpt lat="47.45024" lon="-0.58869">
        <ele>17.6</ele>
        <time>2023-07-19T11:59:42Z</time>
      </trkpt>
      <trkpt lat="47.45011" lon="-0.5887">
        <ele>17.4</ele>
        <time>2023-07-19T11:59:48Z</time>
      </trkpt>
      <trkpt lat="47.45009" lon="-0.58869">
        <ele>17.4</ele>
        <time>2023-07-19T11:59:49Z</time>
      </trkpt>
      <trkpt lat="47.45002" lon="-0.5887">
        <ele>17.4</ele>
        <time>2023-07-19T11:59:52Z</time>
      </trkpt>
      <trkpt lat="47.45" lon="-0.58871">
        <ele>17.4</ele>
        <time>2023-07-19T11:59:53Z</time>
      </trkpt>
      <trkpt lat="47.44994" lon="-0.58872">
        <ele>17.4</ele>
        <time>2023-07-19T11:59:55Z</time>
      </trkpt>
      <trkpt lat="47.44986" lon="-0.58874">
        <ele>17.8</ele>
        <time>2023-07-19T11:59:58Z</time>
      </trkpt>
      <trkpt lat="47.44976" lon="-0.58878">
        <ele>18</ele>
        <time>2023-07-19T12:00:02Z</time>
      </trkpt>
      <trkpt lat="47.44964" lon="-0.58882">
        <ele>18.2</ele>
        <time>2023-07-19T12:00:07Z</time>
      </trkpt>
      <trkpt lat="47.44962" lon="-0.58882">
        <ele>18.2</ele>
        <time>2023-07-19T12:00:08Z</time>
      </trkpt>
      <trkpt lat="47.4496" lon="-0.58884">
        <ele>18.4</ele>
        <time>2023-07-19T12:00:09Z</time>
      </trkpt>
      <trkpt lat="47.44958" lon="-0.58885">
        <ele>18.4</ele>
        <time>2023-07-19T12:00:10Z</time>
      </trkpt>
      <trkpt lat="47.44956" lon="-0.58885">
        <ele>18.4</ele>
        <time>2023-07-19T12:00:11Z</time>
      </trkpt>
      <trkpt lat="47.44954" lon="-0.58884">
        <ele>18.4</ele>
        <time>2023-07-19T12:00:12Z</time>
      </trkpt>
      <trkpt lat="47.44951" lon="-0.58884">
        <ele>18.4</ele>
        <time>2023-07-19T12:00:13Z</time>
      </trkpt>
      <trkpt lat="47.44949" lon="-0.58883">
        <ele>18.4</ele>
        <time>2023-07-19T12:00:14Z</time>
      </trkpt>
      <trkpt lat="47.44947" lon="-0.58882">
        <ele>18.4</ele>
        <time>2023-07-19T12:00:15Z</time>
      </trkpt>
      <trkpt lat="47.44945" lon="-0.58882">
        <ele>18.4</ele>
        <time>2023-07-19T12:00:16Z</time>
      </trkpt>
      <trkpt lat="47.44939" lon="-0.58881">
        <ele>18.6</ele>
        <time>2023-07-19T12:00:18Z</time>
      </trkpt>
      <trkpt lat="47.44936" lon="-0.58881">
        <ele>18.6</ele>
        <time>2023-07-19T12:00:19Z</time>
      </trkpt>
      <trkpt lat="47.44911" lon="-0.58878">
        <ele>18.6</ele>
        <time>2023-07-19T12:00:28Z</time>
      </trkpt>
      <trkpt lat="47.44906" lon="-0.58876">
        <ele>18.6</ele>
        <time>2023-07-19T12:00:30Z</time>
      </trkpt>
      <trkpt lat="47.44904" lon="-0.58876">
        <ele>18.6</ele>
        <time>2023-07-19T12:00:31Z</time>
      </trkpt>
      <trkpt lat="47.44902" lon="-0.58876">
        <ele>18.6</ele>
        <time>2023-07-19T12:00:32Z</time>
      </trkpt>
      <trkpt lat="47.449" lon="-0.58876">
        <ele>18.6</ele>
        <time>2023-07-19T12:00:33Z</time>
      </trkpt>
      <trkpt lat="47.44898" lon="-0.58875">
        <ele>18.6</ele>
        <time>2023-07-19T12:00:34Z</time>
      </trkpt>
      <trkpt lat="47.44896" lon="-0.58875">
        <ele>18.6</ele>
        <time>2023-07-19T12:00:35Z</time>
      </trkpt>
      <trkpt lat="47.44894" lon="-0.58875">
        <ele>18.6</ele>
        <time>2023-07-19T12:00:36Z</time>
      </trkpt>
      <trkpt lat="47.44893" lon="-0.58875">
        <ele>18.6</ele>
        <time>2023-07-19T12:00:37Z</time>
      </trkpt>
      <trkpt lat="47.44891" lon="-0.58875">
        <ele>18.6</ele>
        <time>2023-07-19T12:00:38Z</time>
      </trkpt>
      <trkpt lat="47.44889" lon="-0.58875">
        <ele>18.6</ele>
        <time>2023-07-19T12:00:39Z</time>
      </trkpt>
      <trkpt lat="47.44887" lon="-0.58874">
        <ele>18.6</ele>
        <time>2023-07-19T12:00:40Z</time>
      </trkpt>
      <trkpt lat="47.44886" lon="-0.58874">
        <ele>18.6</ele>
        <time>2023-07-19T12:00:41Z</time>
      </trkpt>
      <trkpt lat="47.44884" lon="-0.58874">
        <ele>18.6</ele>
        <time>2023-07-19T12:00:42Z</time>
      </trkpt>
      <trkpt lat="47.44882" lon="-0.58874">
        <ele>18.6</ele>
        <time>2023-07-19T12:00:43Z</time>
      </trkpt>
      <trkpt lat="47.44875" lon="-0.58873">
        <ele>18.6</ele>
        <time>2023-07-19T12:00:47Z</time>
      </trkpt>
      <trkpt lat="47.44872" lon="-0.58874">
        <ele>18.6</ele>
        <time>2023-07-19T12:00:49Z</time>
      </trkpt>
      <trkpt lat="47.4487" lon="-0.58874">
        <ele>18.6</ele>
        <time>2023-07-19T12:00:50Z</time>
      </trkpt>
      <trkpt lat="47.44856" lon="-0.58875">
        <ele>18.8</ele>
        <time>2023-07-19T12:00:55Z</time>
      </trkpt>
      <trkpt lat="47.44854" lon="-0.58876">
        <ele>19</ele>
        <time>2023-07-19T12:00:56Z</time>
      </trkpt>
      <trkpt lat="47.44852" lon="-0.58877">
        <ele>19</ele>
        <time>2023-07-19T12:00:57Z</time>
      </trkpt>
      <trkpt lat="47.44848" lon="-0.58876">
        <ele>19.2</ele>
        <time>2023-07-19T12:00:59Z</time>
      </trkpt>
      <trkpt lat="47.44847" lon="-0.58876">
        <ele>19.2</ele>
        <time>2023-07-19T12:01:00Z</time>
      </trkpt>
      <trkpt lat="47.44845" lon="-0.58876">
        <ele>19.2</ele>
        <time>2023-07-19T12:01:01Z</time>
      </trkpt>
      <trkpt lat="47.44844" lon="-0.58877">
        <ele>19.2</ele>
        <time>2023-07-19T12:01:02Z</time>
      </trkpt>
      <trkpt lat="47.44843" lon="-0.58877">
        <ele>19.4</ele>
        <time>2023-07-19T12:01:03Z</time>
      </trkpt>
      <trkpt lat="47.44841" lon="-0.58878">
        <ele>19.4</ele>
        <time>2023-07-19T12:01:04Z</time>
      </trkpt>
      <trkpt lat="47.44839" lon="-0.5888">
        <ele>19.6</ele>
        <time>2023-07-19T12:01:05Z</time>
      </trkpt>
      <trkpt lat="47.44837" lon="-0.58881">
        <ele>19.8</ele>
        <time>2023-07-19T12:01:06Z</time>
      </trkpt>
      <trkpt lat="47.44836" lon="-0.58883">
        <ele>19.8</ele>
        <time>2023-07-19T12:01:07Z</time>
      </trkpt>
      <trkpt lat="47.44835" lon="-0.58886">
        <ele>19.8</ele>
        <time>2023-07-19T12:01:08Z</time>
      </trkpt>
      <trkpt lat="47.44834" lon="-0.58887">
        <ele>19.8</ele>
        <time>2023-07-19T12:01:09Z</time>
      </trkpt>
      <trkpt lat="47.44833" lon="-0.58888">
        <ele>19.8</ele>
        <time>2023-07-19T12:01:10Z</time>
      </trkpt>
      <trkpt lat="47.44833" lon="-0.58889">
        <ele>19.8</ele>
        <time>2023-07-19T12:01:11Z</time>
      </trkpt>
      <trkpt lat="47.44833" lon="-0.58889">
        <ele>19.8</ele>
        <time>2023-07-19T12:01:12Z</time>
      </trkpt>
      <trkpt lat="47.44833" lon="-0.58889">
        <ele>19.8</ele>
        <time>2023-07-19T12:01:13Z</time>
      </trkpt>
      <trkpt lat="47.44832" lon="-0.58889">
        <ele>19.8</ele>
        <time>2023-07-19T12:01:14Z</time>
      </trkpt>
      <trkpt lat="47.44831" lon="-0.5889">
        <ele>19.8</ele>
        <time>2023-07-19T12:01:15Z</time>
      </trkpt>
      <trkpt lat="47.44831" lon="-0.58892">
        <ele>19.8</ele>
        <time>2023-07-19T12:01:16Z</time>
      </trkpt>
      <trkpt lat="47.4483" lon="-0.58895">
        <ele>19.8</ele>
        <time>2023-07-19T12:01:17Z</time>
      </trkpt>
      <trkpt lat="47.44826" lon="-0.589">
        <ele>19.6</ele>
        <time>2023-07-19T12:01:19Z</time>
      </trkpt>
      <trkpt lat="47.44823" lon="-0.58902">
        <ele>19.6</ele>
        <time>2023-07-19T12:01:20Z</time>
      </trkpt>
      <trkpt lat="47.4482" lon="-0.58903">
        <ele>19.4</ele>
        <time>2023-07-19T12:01:21Z</time>
      </trkpt>
      <trkpt lat="47.44817" lon="-0.58903">
        <ele>19.4</ele>
        <time>2023-07-19T12:01:22Z</time>
      </trkpt>
      <trkpt lat="47.44813" lon="-0.58904">
        <ele>19.4</ele>
        <time>2023-07-19T12:01:23Z</time>
      </trkpt>
      <trkpt lat="47.4481" lon="-0.58904">
        <ele>19.4</ele>
        <time>2023-07-19T12:01:24Z</time>
      </trkpt>
      <trkpt lat="47.44803" lon="-0.58906">
        <ele>19.2</ele>
        <time>2023-07-19T12:01:26Z</time>
      </trkpt>
      <trkpt lat="47.44789" lon="-0.5891">
        <ele>19.2</ele>
        <time>2023-07-19T12:01:30Z</time>
      </trkpt>
      <trkpt lat="47.44768" lon="-0.58914">
        <ele>18.8</ele>
        <time>2023-07-19T12:01:36Z</time>
      </trkpt>
      <trkpt lat="47.44747" lon="-0.58918">
        <ele>18.4</ele>
        <time>2023-07-19T12:01:42Z</time>
      </trkpt>
      <trkpt lat="47.44738" lon="-0.58919">
        <ele>18.4</ele>
        <time>2023-07-19T12:01:45Z</time>
      </trkpt>
      <trkpt lat="47.44735" lon="-0.58919">
        <ele>18.4</ele>
        <time>2023-07-19T12:01:46Z</time>
      </trkpt>
      <trkpt lat="47.44732" lon="-0.58919">
        <ele>18.4</ele>
        <time>2023-07-19T12:01:47Z</time>
      </trkpt>
      <trkpt lat="47.44729" lon="-0.58919">
        <ele>18.4</ele>
        <time>2023-07-19T12:01:48Z</time>
      </trkpt>
      <trkpt lat="47.44726" lon="-0.58919">
        <ele>18.4</ele>
        <time>2023-07-19T12:01:49Z</time>
      </trkpt>
      <trkpt lat="47.44724" lon="-0.5892">
        <ele>18.4</ele>
        <time>2023-07-19T12:01:50Z</time>
      </trkpt>
      <trkpt lat="47.44721" lon="-0.5892">
        <ele>18.4</ele>
        <time>2023-07-19T12:01:51Z</time>
      </trkpt>
      <trkpt lat="47.44718" lon="-0.58921">
        <ele>18.4</ele>
        <time>2023-07-19T12:01:52Z</time>
      </trkpt>
      <trkpt lat="47.44715" lon="-0.58921">
        <ele>18.4</ele>
        <time>2023-07-19T12:01:53Z</time>
      </trkpt>
      <trkpt lat="47.44712" lon="-0.58922">
        <ele>18.6</ele>
        <time>2023-07-19T12:01:54Z</time>
      </trkpt>
      <trkpt lat="47.44706" lon="-0.58923">
        <ele>18.6</ele>
        <time>2023-07-19T12:01:56Z</time>
      </trkpt>
      <trkpt lat="47.44704" lon="-0.58924">
        <ele>18.6</ele>
        <time>2023-07-19T12:01:57Z</time>
      </trkpt>
      <trkpt lat="47.44691" lon="-0.58927">
        <ele>18.8</ele>
        <time>2023-07-19T12:02:01Z</time>
      </trkpt>
      <trkpt lat="47.4468" lon="-0.58929">
        <ele>18.8</ele>
        <time>2023-07-19T12:02:05Z</time>
      </trkpt>
      <trkpt lat="47.44677" lon="-0.58929">
        <ele>18.8</ele>
        <time>2023-07-19T12:02:06Z</time>
      </trkpt>
      <trkpt lat="47.44669" lon="-0.58929">
        <ele>18.8</ele>
        <time>2023-07-19T12:02:09Z</time>
      </trkpt>
      <trkpt lat="47.44666" lon="-0.58929">
        <ele>18.8</ele>
        <time>2023-07-19T12:02:10Z</time>
      </trkpt>
      <trkpt lat="47.44639" lon="-0.58931">
        <ele>19.2</ele>
        <time>2023-07-19T12:02:19Z</time>
      </trkpt>
      <trkpt lat="47.44618" lon="-0.58935">
        <ele>19.4</ele>
        <time>2023-07-19T12:02:26Z</time>
      </trkpt>
      <trkpt lat="47.44612" lon="-0.58937">
        <ele>19.4</ele>
        <time>2023-07-19T12:02:28Z</time>
      </trkpt>
      <trkpt lat="47.44589" lon="-0.5894">
        <ele>19.4</ele>
        <time>2023-07-19T12:02:35Z</time>
      </trkpt>
      <trkpt lat="47.44572" lon="-0.58942">
        <ele>18.8</ele>
        <time>2023-07-19T12:02:41Z</time>
      </trkpt>
      <trkpt lat="47.4457" lon="-0.58941">
        <ele>18.8</ele>
        <time>2023-07-19T12:02:42Z</time>
      </trkpt>
      <trkpt lat="47.44568" lon="-0.58941">
        <ele>18.8</ele>
        <time>2023-07-19T12:02:43Z</time>
      </trkpt>
      <trkpt lat="47.44567" lon="-0.58941">
        <ele>18.8</ele>
        <time>2023-07-19T12:02:44Z</time>
      </trkpt>
      <trkpt lat="47.44565" lon="-0.5894">
        <ele>18.8</ele>
        <time>2023-07-19T12:02:45Z</time>
      </trkpt>
      <trkpt lat="47.44563" lon="-0.58941">
        <ele>18.6</ele>
        <time>2023-07-19T12:02:46Z</time>
      </trkpt>
      <trkpt lat="47.44562" lon="-0.58941">
        <ele>18.6</ele>
        <time>2023-07-19T12:02:47Z</time>
      </trkpt>
      <trkpt lat="47.4456" lon="-0.58942">
        <ele>18.6</ele>
        <time>2023-07-19T12:02:48Z</time>
      </trkpt>
      <trkpt lat="47.44558" lon="-0.58941">
        <ele>18.6</ele>
        <time>2023-07-19T12:02:49Z</time>
      </trkpt>
      <trkpt lat="47.44554" lon="-0.5894">
        <ele>18.6</ele>
        <time>2023-07-19T12:02:51Z</time>
      </trkpt>
      <trkpt lat="47.44552" lon="-0.58939">
        <ele>18.6</ele>
        <time>2023-07-19T12:02:52Z</time>
      </trkpt>
      <trkpt lat="47.44543" lon="-0.58939">
        <ele>18.6</ele>
        <time>2023-07-19T12:02:56Z</time>
      </trkpt>
      <trkpt lat="47.44527" lon="-0.5894">
        <ele>19</ele>
        <time>2023-07-19T12:03:03Z</time>
      </trkpt>
      <trkpt lat="47.44525" lon="-0.5894">
        <ele>19.2</ele>
        <time>2023-07-19T12:03:04Z</time>
      </trkpt>
      <trkpt lat="47.44523" lon="-0.5894">
        <ele>19.2</ele>
        <time>2023-07-19T12:03:05Z</time>
      </trkpt>
      <trkpt lat="47.44514" lon="-0.58942">
        <ele>19.2</ele>
        <time>2023-07-19T12:03:09Z</time>
      </trkpt>
      <trkpt lat="47.44512" lon="-0.58942">
        <ele>19.4</ele>
        <time>2023-07-19T12:03:10Z</time>
      </trkpt>
      <trkpt lat="47.4451" lon="-0.58943">
        <ele>19.4</ele>
        <time>2023-07-19T12:03:11Z</time>
      </trkpt>
      <trkpt lat="47.44507" lon="-0.58944">
        <ele>19.4</ele>
        <time>2023-07-19T12:03:12Z</time>
      </trkpt>
      <trkpt lat="47.44491" lon="-0.58948">
        <ele>19.8</ele>
        <time>2023-07-19T12:03:18Z</time>
      </trkpt>
      <trkpt lat="47.44474" lon="-0.58953">
        <ele>19.8</ele>
        <time>2023-07-19T12:03:24Z</time>
      </trkpt>
      <trkpt lat="47.44457" lon="-0.5896">
        <ele>19.6</ele>
        <time>2023-07-19T12:03:30Z</time>
      </trkpt>
      <trkpt lat="47.44439" lon="-0.58968">
        <ele>19.4</ele>
        <time>2023-07-19T12:03:36Z</time>
      </trkpt>
      <trkpt lat="47.44435" lon="-0.58969">
        <ele>19.4</ele>
        <time>2023-07-19T12:03:37Z</time>
      </trkpt>
      <trkpt lat="47.44416" lon="-0.58976">
        <ele>19.4</ele>
        <time>2023-07-19T12:03:44Z</time>
      </trkpt>
      <trkpt lat="47.44411" lon="-0.5898">
        <ele>19.4</ele>
        <time>2023-07-19T12:03:46Z</time>
      </trkpt>
      <trkpt lat="47.44408" lon="-0.58982">
        <ele>19.4</ele>
        <time>2023-07-19T12:03:47Z</time>
      </trkpt>
      <trkpt lat="47.44403" lon="-0.58986">
        <ele>19.4</ele>
        <time>2023-07-19T12:03:49Z</time>
      </trkpt>
      <trkpt lat="47.44389" lon="-0.58996">
        <ele>19.4</ele>
        <time>2023-07-19T12:03:54Z</time>
      </trkpt>
      <trkpt lat="47.44386" lon="-0.58998">
        <ele>19.4</ele>
        <time>2023-07-19T12:03:55Z</time>
      </trkpt>
      <trkpt lat="47.44384" lon="-0.58997">
        <ele>19.4</ele>
        <time>2023-07-19T12:03:56Z</time>
      </trkpt>
      <trkpt lat="47.44381" lon="-0.58996">
        <ele>19.2</ele>
        <time>2023-07-19T12:03:57Z</time>
      </trkpt>
      <trkpt lat="47.44378" lon="-0.58997">
        <ele>19.2</ele>
        <time>2023-07-19T12:03:58Z</time>
      </trkpt>
      <trkpt lat="47.44374" lon="-0.58998">
        <ele>19.2</ele>
        <time>2023-07-19T12:03:59Z</time>
      </trkpt>
      <trkpt lat="47.44371" lon="-0.58998">
        <ele>19.2</ele>
        <time>2023-07-19T12:04:00Z</time>
      </trkpt>
      <trkpt lat="47.44367" lon="-0.58998">
        <ele>19.2</ele>
        <time>2023-07-19T12:04:02Z</time>
      </trkpt>
      <trkpt lat="47.44366" lon="-0.58998">
        <ele>19.2</ele>
        <time>2023-07-19T12:04:03Z</time>
      </trkpt>
      <trkpt lat="47.44361" lon="-0.58997">
        <ele>19.2</ele>
        <time>2023-07-19T12:04:05Z</time>
      </trkpt>
      <trkpt lat="47.44351" lon="-0.59003">
        <ele>19.4</ele>
        <time>2023-07-19T12:04:08Z</time>
      </trkpt>
      <trkpt lat="47.44348" lon="-0.59004">
        <ele>19.4</ele>
        <time>2023-07-19T12:04:09Z</time>
      </trkpt>
      <trkpt lat="47.44345" lon="-0.59005">
        <ele>19.4</ele>
        <time>2023-07-19T12:04:10Z</time>
      </trkpt>
      <trkpt lat="47.4434" lon="-0.59006">
        <ele>19.4</ele>
        <time>2023-07-19T12:04:12Z</time>
      </trkpt>
      <trkpt lat="47.44313" lon="-0.59017">
        <ele>19</ele>
        <time>2023-07-19T12:04:20Z</time>
      </trkpt>
      <trkpt lat="47.44302" lon="-0.59019">
        <ele>18.8</ele>
        <time>2023-07-19T12:04:24Z</time>
      </trkpt>
      <trkpt lat="47.44299" lon="-0.59019">
        <ele>18.8</ele>
        <time>2023-07-19T12:04:25Z</time>
      </trkpt>
      <trkpt lat="47.44295" lon="-0.5902">
        <ele>18.8</ele>
        <time>2023-07-19T12:04:26Z</time>
      </trkpt>
      <trkpt lat="47.44263" lon="-0.59025">
        <ele>18.8</ele>
        <time>2023-07-19T12:04:35Z</time>
      </trkpt>
      <trkpt lat="47.44247" lon="-0.59026">
        <ele>18.8</ele>
        <time>2023-07-19T12:04:40Z</time>
      </trkpt>
      <trkpt lat="47.44244" lon="-0.59026">
        <ele>18.8</ele>
        <time>2023-07-19T12:04:41Z</time>
      </trkpt>
      <trkpt lat="47.44242" lon="-0.59027">
        <ele>18.8</ele>
        <time>2023-07-19T12:04:42Z</time>
      </trkpt>
      <trkpt lat="47.44239" lon="-0.59028">
        <ele>19</ele>
        <time>2023-07-19T12:04:43Z</time>
      </trkpt>
      <trkpt lat="47.44235" lon="-0.59029">
        <ele>19</ele>
        <time>2023-07-19T12:04:44Z</time>
      </trkpt>
      <trkpt lat="47.44232" lon="-0.59029">
        <ele>19</ele>
        <time>2023-07-19T12:04:45Z</time>
      </trkpt>
      <trkpt lat="47.44229" lon="-0.5903">
        <ele>19</ele>
        <time>2023-07-19T12:04:46Z</time>
      </trkpt>
      <trkpt lat="47.44226" lon="-0.5903">
        <ele>19</ele>
        <time>2023-07-19T12:04:47Z</time>
      </trkpt>
      <trkpt lat="47.44223" lon="-0.5903">
        <ele>19</ele>
        <time>2023-07-19T12:04:48Z</time>
      </trkpt>
      <trkpt lat="47.44196" lon="-0.59031">
        <ele>19</ele>
        <time>2023-07-19T12:04:56Z</time>
      </trkpt>
      <trkpt lat="47.44186" lon="-0.59031">
        <ele>19</ele>
        <time>2023-07-19T12:04:59Z</time>
      </trkpt>
      <trkpt lat="47.44183" lon="-0.59032">
        <ele>19</ele>
        <time>2023-07-19T12:05:00Z</time>
      </trkpt>
      <trkpt lat="47.44168" lon="-0.59033">
        <ele>19</ele>
        <time>2023-07-19T12:05:05Z</time>
      </trkpt>
      <trkpt lat="47.44162" lon="-0.59033">
        <ele>18.8</ele>
        <time>2023-07-19T12:05:07Z</time>
      </trkpt>
      <trkpt lat="47.44156" lon="-0.59033">
        <ele>18.6</ele>
        <time>2023-07-19T12:05:09Z</time>
      </trkpt>
      <trkpt lat="47.44154" lon="-0.59033">
        <ele>18.6</ele>
        <time>2023-07-19T12:05:10Z</time>
      </trkpt>
      <trkpt lat="47.44151" lon="-0.59034">
        <ele>18.6</ele>
        <time>2023-07-19T12:05:11Z</time>
      </trkpt>
      <trkpt lat="47.44148" lon="-0.59035">
        <ele>18.6</ele>
        <time>2023-07-19T12:05:12Z</time>
      </trkpt>
      <trkpt lat="47.44145" lon="-0.59035">
        <ele>18.6</ele>
        <time>2023-07-19T12:05:13Z</time>
      </trkpt>
      <trkpt lat="47.44141" lon="-0.59036">
        <ele>18.6</ele>
        <time>2023-07-19T12:05:14Z</time>
      </trkpt>
      <trkpt lat="47.44139" lon="-0.59037">
        <ele>18.4</ele>
        <time>2023-07-19T12:05:15Z</time>
      </trkpt>
      <trkpt lat="47.44136" lon="-0.59037">
        <ele>18.4</ele>
        <time>2023-07-19T12:05:16Z</time>
      </trkpt>
      <trkpt lat="47.44126" lon="-0.59038">
        <ele>18.4</ele>
        <time>2023-07-19T12:05:19Z</time>
      </trkpt>
      <trkpt lat="47.44123" lon="-0.59038">
        <ele>18.4</ele>
        <time>2023-07-19T12:05:20Z</time>
      </trkpt>
      <trkpt lat="47.44103" lon="-0.59035">
        <ele>18.4</ele>
        <time>2023-07-19T12:05:26Z</time>
      </trkpt>
      <trkpt lat="47.44101" lon="-0.59035">
        <ele>18.4</ele>
        <time>2023-07-19T12:05:27Z</time>
      </trkpt>
      <trkpt lat="47.44097" lon="-0.59036">
        <ele>18.4</ele>
        <time>2023-07-19T12:05:28Z</time>
      </trkpt>
      <trkpt lat="47.44094" lon="-0.59035">
        <ele>18.4</ele>
        <time>2023-07-19T12:05:29Z</time>
      </trkpt>
      <trkpt lat="47.44089" lon="-0.59035">
        <ele>18.4</ele>
        <time>2023-07-19T12:05:31Z</time>
      </trkpt>
      <trkpt lat="47.44086" lon="-0.59035">
        <ele>18.4</ele>
        <time>2023-07-19T12:05:32Z</time>
      </trkpt>
      <trkpt lat="47.44083" lon="-0.59035">
        <ele>18.4</ele>
        <time>2023-07-19T12:05:33Z</time>
      </trkpt>
      <trkpt lat="47.44079" lon="-0.59035">
        <ele>18.4</ele>
        <time>2023-07-19T12:05:34Z</time>
      </trkpt>
      <trkpt lat="47.44063" lon="-0.59036">
        <ele>18.4</ele>
        <time>2023-07-19T12:05:39Z</time>
      </trkpt>
      <trkpt lat="47.44049" lon="-0.59036">
        <ele>18.4</ele>
        <time>2023-07-19T12:05:44Z</time>
      </trkpt>
      <trkpt lat="47.44046" lon="-0.59036">
        <ele>18.4</ele>
        <time>2023-07-19T12:05:45Z</time>
      </trkpt>
      <trkpt lat="47.44043" lon="-0.59036">
        <ele>18.4</ele>
        <time>2023-07-19T12:05:46Z</time>
      </trkpt>
      <trkpt lat="47.44039" lon="-0.59036">
        <ele>18.4</ele>
        <time>2023-07-19T12:05:47Z</time>
      </trkpt>
      <trkpt lat="47.44036" lon="-0.59036">
        <ele>18.4</ele>
        <time>2023-07-19T12:05:48Z</time>
      </trkpt>
      <trkpt lat="47.4403" lon="-0.59036">
        <ele>18.2</ele>
        <time>2023-07-19T12:05:50Z</time>
      </trkpt>
      <trkpt lat="47.44015" lon="-0.59035">
        <ele>18</ele>
        <time>2023-07-19T12:05:55Z</time>
      </trkpt>
      <trkpt lat="47.44" lon="-0.59033">
        <ele>18</ele>
        <time>2023-07-19T12:06:00Z</time>
      </trkpt>
      <trkpt lat="47.43998" lon="-0.59032">
        <ele>18</ele>
        <time>2023-07-19T12:06:01Z</time>
      </trkpt>
      <trkpt lat="47.43995" lon="-0.59032">
        <ele>18</ele>
        <time>2023-07-19T12:06:02Z</time>
      </trkpt>
      <trkpt lat="47.43993" lon="-0.59032">
        <ele>18</ele>
        <time>2023-07-19T12:06:03Z</time>
      </trkpt>
      <trkpt lat="47.4399" lon="-0.59031">
        <ele>18</ele>
        <time>2023-07-19T12:06:04Z</time>
      </trkpt>
      <trkpt lat="47.43987" lon="-0.59031">
        <ele>18</ele>
        <time>2023-07-19T12:06:05Z</time>
      </trkpt>
      <trkpt lat="47.43984" lon="-0.59031">
        <ele>18</ele>
        <time>2023-07-19T12:06:06Z</time>
      </trkpt>
      <trkpt lat="47.43982" lon="-0.59031">
        <ele>18</ele>
        <time>2023-07-19T12:06:07Z</time>
      </trkpt>
      <trkpt lat="47.43979" lon="-0.59031">
        <ele>18</ele>
        <time>2023-07-19T12:06:08Z</time>
      </trkpt>
      <trkpt lat="47.43976" lon="-0.59031">
        <ele>18</ele>
        <time>2023-07-19T12:06:09Z</time>
      </trkpt>
      <trkpt lat="47.43973" lon="-0.59031">
        <ele>18</ele>
        <time>2023-07-19T12:06:10Z</time>
      </trkpt>
      <trkpt lat="47.43951" lon="-0.59033">
        <ele>18</ele>
        <time>2023-07-19T12:06:17Z</time>
      </trkpt>
      <trkpt lat="47.43924" lon="-0.59031">
        <ele>18</ele>
        <time>2023-07-19T12:06:25Z</time>
      </trkpt>
      <trkpt lat="47.43906" lon="-0.59019">
        <ele>18</ele>
        <time>2023-07-19T12:06:32Z</time>
      </trkpt>
      <trkpt lat="47.43906" lon="-0.59016">
        <ele>18</ele>
        <time>2023-07-19T12:06:33Z</time>
      </trkpt>
      <trkpt lat="47.43907" lon="-0.59014">
        <ele>18</ele>
        <time>2023-07-19T12:06:34Z</time>
      </trkpt>
      <trkpt lat="47.43907" lon="-0.59013">
        <ele>18</ele>
        <time>2023-07-19T12:06:35Z</time>
      </trkpt>
      <trkpt lat="47.43907" lon="-0.59013">
        <ele>18</ele>
        <time>2023-07-19T12:06:36Z</time>
      </trkpt>
      <trkpt lat="47.43907" lon="-0.59013">
        <ele>18</ele>
        <time>2023-07-19T12:06:37Z</time>
      </trkpt>
      <trkpt lat="47.43902" lon="-0.59008">
        <ele>18.4</ele>
        <time>2023-07-19T12:07:20Z</time>
      </trkpt>
      <trkpt lat="47.439" lon="-0.59008">
        <ele>18.4</ele>
        <time>2023-07-19T12:07:21Z</time>
      </trkpt>
      <trkpt lat="47.43898" lon="-0.59009">
        <ele>18.4</ele>
        <time>2023-07-19T12:07:22Z</time>
      </trkpt>
      <trkpt lat="47.43881" lon="-0.59013">
        <ele>18.2</ele>
        <time>2023-07-19T12:07:27Z</time>
      </trkpt>
      <trkpt lat="47.43875" lon="-0.59012">
        <ele>18.2</ele>
        <time>2023-07-19T12:07:29Z</time>
      </trkpt>
      <trkpt lat="47.43872" lon="-0.59012">
        <ele>18.2</ele>
        <time>2023-07-19T12:07:30Z</time>
      </trkpt>
      <trkpt lat="47.4387" lon="-0.59012">
        <ele>18.2</ele>
        <time>2023-07-19T12:07:31Z</time>
      </trkpt>
      <trkpt lat="47.43867" lon="-0.59012">
        <ele>18.2</ele>
        <time>2023-07-19T12:07:32Z</time>
      </trkpt>
      <trkpt lat="47.43864" lon="-0.59013">
        <ele>18.2</ele>
        <time>2023-07-19T12:07:33Z</time>
      </trkpt>
      <trkpt lat="47.43862" lon="-0.59013">
        <ele>18.2</ele>
        <time>2023-07-19T12:07:34Z</time>
      </trkpt>
      <trkpt lat="47.43858" lon="-0.59014">
        <ele>18.2</ele>
        <time>2023-07-19T12:07:36Z</time>
      </trkpt>
      <trkpt lat="47.43856" lon="-0.59015">
        <ele>18.2</ele>
        <time>2023-07-19T12:07:37Z</time>
      </trkpt>
      <trkpt lat="47.43854" lon="-0.59016">
        <ele>18.2</ele>
        <time>2023-07-19T12:07:38Z</time>
      </trkpt>
      <trkpt lat="47.43852" lon="-0.59016">
        <ele>18.4</ele>
        <time>2023-07-19T12:07:39Z</time>
      </trkpt>
      <trkpt lat="47.43851" lon="-0.59017">
        <ele>18.2</ele>
        <time>2023-07-19T12:07:40Z</time>
      </trkpt>
      <trkpt lat="47.43849" lon="-0.59017">
        <ele>18.2</ele>
        <time>2023-07-19T12:07:41Z</time>
      </trkpt>
      <trkpt lat="47.43848" lon="-0.59018">
        <ele>18.2</ele>
        <time>2023-07-19T12:07:42Z</time>
      </trkpt>
      <trkpt lat="47.43845" lon="-0.59017">
        <ele>18.2</ele>
        <time>2023-07-19T12:07:44Z</time>
      </trkpt>
      <trkpt lat="47.43845" lon="-0.59018">
        <ele>18.4</ele>
        <time>2023-07-19T12:07:45Z</time>
      </trkpt>
      <trkpt lat="47.43845" lon="-0.59018">
        <ele>18.4</ele>
        <time>2023-07-19T12:07:46Z</time>
      </trkpt>
      <trkpt lat="47.43845" lon="-0.59018">
        <ele>18.4</ele>
        <time>2023-07-19T12:07:47Z</time>
      </trkpt>
      <trkpt lat="47.4384" lon="-0.5902">
        <ele>18.6</ele>
        <time>2023-07-19T12:09:25Z</time>
      </trkpt>
      <trkpt lat="47.43838" lon="-0.5902">
        <ele>18.6</ele>
        <time>2023-07-19T12:09:26Z</time>
      </trkpt>
      <trkpt lat="47.43826" lon="-0.59023">
        <ele>18.6</ele>
        <time>2023-07-19T12:09:30Z</time>
      </trkpt>
      <trkpt lat="47.43821" lon="-0.59025">
        <ele>18.6</ele>
        <time>2023-07-19T12:09:33Z</time>
      </trkpt>
      <trkpt lat="47.43821" lon="-0.59025">
        <ele>18.6</ele>
        <time>2023-07-19T12:09:34Z</time>
      </trkpt>
      <trkpt lat="47.43821" lon="-0.59025">
        <ele>18.6</ele>
        <time>2023-07-19T12:09:35Z</time>
      </trkpt>
      <trkpt lat="47.43818" lon="-0.59027">
        <ele>18.6</ele>
        <time>2023-07-19T12:09:40Z</time>
      </trkpt>
      <trkpt lat="47.43811" lon="-0.5903">
        <ele>18.6</ele>
        <time>2023-07-19T12:09:43Z</time>
      </trkpt>
      <trkpt lat="47.43808" lon="-0.59031">
        <ele>18.8</ele>
        <time>2023-07-19T12:09:44Z</time>
      </trkpt>
      <trkpt lat="47.43806" lon="-0.59032">
        <ele>18.8</ele>
        <time>2023-07-19T12:09:45Z</time>
      </trkpt>
      <trkpt lat="47.43798" lon="-0.59034">
        <ele>19</ele>
        <time>2023-07-19T12:09:48Z</time>
      </trkpt>
      <trkpt lat="47.43792" lon="-0.59035">
        <ele>19</ele>
        <time>2023-07-19T12:09:50Z</time>
      </trkpt>
      <trkpt lat="47.43768" lon="-0.59039">
        <ele>19.2</ele>
        <time>2023-07-19T12:09:58Z</time>
      </trkpt>
      <trkpt lat="47.43739" lon="-0.59047">
        <ele>19.2</ele>
        <time>2023-07-19T12:10:07Z</time>
      </trkpt>
      <trkpt lat="47.43723" lon="-0.59052">
        <ele>19.4</ele>
        <time>2023-07-19T12:10:12Z</time>
      </trkpt>
      <trkpt lat="47.43717" lon="-0.59054">
        <ele>19.4</ele>
        <time>2023-07-19T12:10:14Z</time>
      </trkpt>
      <trkpt lat="47.43698" lon="-0.59057">
        <ele>19.4</ele>
        <time>2023-07-19T12:10:20Z</time>
      </trkpt>
      <trkpt lat="47.43695" lon="-0.59058">
        <ele>19.4</ele>
        <time>2023-07-19T12:10:21Z</time>
      </trkpt>
      <trkpt lat="47.43692" lon="-0.59058">
        <ele>19.4</ele>
        <time>2023-07-19T12:10:22Z</time>
      </trkpt>
      <trkpt lat="47.43689" lon="-0.5906">
        <ele>19.4</ele>
        <time>2023-07-19T12:10:23Z</time>
      </trkpt>
      <trkpt lat="47.43685" lon="-0.59061">
        <ele>19.4</ele>
        <time>2023-07-19T12:10:24Z</time>
      </trkpt>
      <trkpt lat="47.43666" lon="-0.59064">
        <ele>19.4</ele>
        <time>2023-07-19T12:10:29Z</time>
      </trkpt>
      <trkpt lat="47.43631" lon="-0.59066">
        <ele>19.2</ele>
        <time>2023-07-19T12:10:38Z</time>
      </trkpt>
      <trkpt lat="47.43602" lon="-0.59067">
        <ele>18.8</ele>
        <time>2023-07-19T12:10:46Z</time>
      </trkpt>
      <trkpt lat="47.43566" lon="-0.59068">
        <ele>18.8</ele>
        <time>2023-07-19T12:10:56Z</time>
      </trkpt>
      <trkpt lat="47.43546" lon="-0.59066">
        <ele>18.8</ele>
        <time>2023-07-19T12:11:02Z</time>
      </trkpt>
      <trkpt lat="47.43542" lon="-0.59066">
        <ele>18.8</ele>
        <time>2023-07-19T12:11:03Z</time>
      </trkpt>
      <trkpt lat="47.43538" lon="-0.59066">
        <ele>18.6</ele>
        <time>2023-07-19T12:11:04Z</time>
      </trkpt>
      <trkpt lat="47.43535" lon="-0.59066">
        <ele>18.6</ele>
        <time>2023-07-19T12:11:05Z</time>
      </trkpt>
      <trkpt lat="47.43513" lon="-0.59063">
        <ele>18.6</ele>
        <time>2023-07-19T12:11:11Z</time>
      </trkpt>
      <trkpt lat="47.43492" lon="-0.59069">
        <ele>18.6</ele>
        <time>2023-07-19T12:11:17Z</time>
      </trkpt>
      <trkpt lat="47.43488" lon="-0.5907">
        <ele>18.6</ele>
        <time>2023-07-19T12:11:18Z</time>
      </trkpt>
      <trkpt lat="47.43485" lon="-0.59071">
        <ele>18.6</ele>
        <time>2023-07-19T12:11:19Z</time>
      </trkpt>
      <trkpt lat="47.43482" lon="-0.59072">
        <ele>18.6</ele>
        <time>2023-07-19T12:11:20Z</time>
      </trkpt>
      <trkpt lat="47.43478" lon="-0.59073">
        <ele>18.6</ele>
        <time>2023-07-19T12:11:21Z</time>
      </trkpt>
      <trkpt lat="47.43474" lon="-0.59074">
        <ele>18.4</ele>
        <time>2023-07-19T12:11:22Z</time>
      </trkpt>
      <trkpt lat="47.43467" lon="-0.59075">
        <ele>18.4</ele>
        <time>2023-07-19T12:11:24Z</time>
      </trkpt>
      <trkpt lat="47.43464" lon="-0.59076">
        <ele>18.4</ele>
        <time>2023-07-19T12:11:25Z</time>
      </trkpt>
      <trkpt lat="47.43461" lon="-0.59078">
        <ele>18.4</ele>
        <time>2023-07-19T12:11:26Z</time>
      </trkpt>
      <trkpt lat="47.43452" lon="-0.59081">
        <ele>18.4</ele>
        <time>2023-07-19T12:11:29Z</time>
      </trkpt>
      <trkpt lat="47.43449" lon="-0.59082">
        <ele>18.4</ele>
        <time>2023-07-19T12:11:30Z</time>
      </trkpt>
      <trkpt lat="47.43446" lon="-0.59083">
        <ele>18.4</ele>
        <time>2023-07-19T12:11:31Z</time>
      </trkpt>
      <trkpt lat="47.43443" lon="-0.59084">
        <ele>18.4</ele>
        <time>2023-07-19T12:11:32Z</time>
      </trkpt>
      <trkpt lat="47.43416" lon="-0.59091">
        <ele>18.4</ele>
        <time>2023-07-19T12:11:40Z</time>
      </trkpt>
      <trkpt lat="47.43402" lon="-0.59092">
        <ele>18.2</ele>
        <time>2023-07-19T12:11:44Z</time>
      </trkpt>
      <trkpt lat="47.43399" lon="-0.59093">
        <ele>18.4</ele>
        <time>2023-07-19T12:11:45Z</time>
      </trkpt>
      <trkpt lat="47.43396" lon="-0.59093">
        <ele>18.4</ele>
        <time>2023-07-19T12:11:46Z</time>
      </trkpt>
      <trkpt lat="47.43393" lon="-0.59093">
        <ele>18.4</ele>
        <time>2023-07-19T12:11:47Z</time>
      </trkpt>
      <trkpt lat="47.43381" lon="-0.59094">
        <ele>18.4</ele>
        <time>2023-07-19T12:11:51Z</time>
      </trkpt>
      <trkpt lat="47.43379" lon="-0.59094">
        <ele>18.4</ele>
        <time>2023-07-19T12:11:52Z</time>
      </trkpt>
      <trkpt lat="47.43376" lon="-0.59094">
        <ele>18.4</ele>
        <time>2023-07-19T12:11:53Z</time>
      </trkpt>
      <trkpt lat="47.43372" lon="-0.59094">
        <ele>18.4</ele>
        <time>2023-07-19T12:11:54Z</time>
      </trkpt>
      <trkpt lat="47.43369" lon="-0.59093">
        <ele>18.4</ele>
        <time>2023-07-19T12:11:55Z</time>
      </trkpt>
      <trkpt lat="47.43357" lon="-0.59088">
        <ele>18.6</ele>
        <time>2023-07-19T12:11:59Z</time>
      </trkpt>
      <trkpt lat="47.43355" lon="-0.59088">
        <ele>18.6</ele>
        <time>2023-07-19T12:12:00Z</time>
      </trkpt>
      <trkpt lat="47.43352" lon="-0.59088">
        <ele>18.8</ele>
        <time>2023-07-19T12:12:01Z</time>
      </trkpt>
      <trkpt lat="47.43347" lon="-0.59091">
        <ele>18.8</ele>
        <time>2023-07-19T12:12:03Z</time>
      </trkpt>
      <trkpt lat="47.43345" lon="-0.59094">
        <ele>18.8</ele>
        <time>2023-07-19T12:12:04Z</time>
      </trkpt>
      <trkpt lat="47.43343" lon="-0.59097">
        <ele>18.8</ele>
        <time>2023-07-19T12:12:05Z</time>
      </trkpt>
      <trkpt lat="47.43338" lon="-0.59101">
        <ele>19</ele>
        <time>2023-07-19T12:12:07Z</time>
      </trkpt>
      <trkpt lat="47.43335" lon="-0.59104">
        <ele>19</ele>
        <time>2023-07-19T12:12:08Z</time>
      </trkpt>
      <trkpt lat="47.43332" lon="-0.59106">
        <ele>19</ele>
        <time>2023-07-19T12:12:09Z</time>
      </trkpt>
      <trkpt lat="47.43312" lon="-0.59124">
        <ele>19.2</ele>
        <time>2023-07-19T12:12:16Z</time>
      </trkpt>
      <trkpt lat="47.43298" lon="-0.59138">
        <ele>19.2</ele>
        <time>2023-07-19T12:12:22Z</time>
      </trkpt>
      <trkpt lat="47.43293" lon="-0.59142">
        <ele>19.2</ele>
        <time>2023-07-19T12:12:24Z</time>
      </trkpt>
      <trkpt lat="47.4329" lon="-0.59145">
        <ele>19.2</ele>
        <time>2023-07-19T12:12:25Z</time>
      </trkpt>
      <trkpt lat="47.43288" lon="-0.59148">
        <ele>19.4</ele>
        <time>2023-07-19T12:12:26Z</time>
      </trkpt>
      <trkpt lat="47.43285" lon="-0.59151">
        <ele>19.4</ele>
        <time>2023-07-19T12:12:27Z</time>
      </trkpt>
      <trkpt lat="47.43276" lon="-0.59161">
        <ele>19.4</ele>
        <time>2023-07-19T12:12:30Z</time>
      </trkpt>
      <trkpt lat="47.43258" lon="-0.59181">
        <ele>19.4</ele>
        <time>2023-07-19T12:12:37Z</time>
      </trkpt>
      <trkpt lat="47.43255" lon="-0.59184">
        <ele>19.4</ele>
        <time>2023-07-19T12:12:38Z</time>
      </trkpt>
      <trkpt lat="47.43253" lon="-0.59187">
        <ele>19.6</ele>
        <time>2023-07-19T12:12:39Z</time>
      </trkpt>
      <trkpt lat="47.43249" lon="-0.59191">
        <ele>19.6</ele>
        <time>2023-07-19T12:12:41Z</time>
      </trkpt>
      <trkpt lat="47.43247" lon="-0.59194">
        <ele>19.6</ele>
        <time>2023-07-19T12:12:42Z</time>
      </trkpt>
      <trkpt lat="47.43245" lon="-0.59196">
        <ele>19.6</ele>
        <time>2023-07-19T12:12:43Z</time>
      </trkpt>
      <trkpt lat="47.43243" lon="-0.59198">
        <ele>19.6</ele>
        <time>2023-07-19T12:12:44Z</time>
      </trkpt>
      <trkpt lat="47.43241" lon="-0.59201">
        <ele>19.6</ele>
        <time>2023-07-19T12:12:45Z</time>
      </trkpt>
      <trkpt lat="47.43233" lon="-0.59208">
        <ele>19.6</ele>
        <time>2023-07-19T12:12:48Z</time>
      </trkpt>
      <trkpt lat="47.43211" lon="-0.59227">
        <ele>19.8</ele>
        <time>2023-07-19T12:12:56Z</time>
      </trkpt>
      <trkpt lat="47.432" lon="-0.59233">
        <ele>19.8</ele>
        <time>2023-07-19T12:13:00Z</time>
      </trkpt>
      <trkpt lat="47.4319" lon="-0.59237">
        <ele>19.8</ele>
        <time>2023-07-19T12:13:03Z</time>
      </trkpt>
      <trkpt lat="47.43188" lon="-0.59238">
        <ele>19.8</ele>
        <time>2023-07-19T12:13:04Z</time>
      </trkpt>
      <trkpt lat="47.43183" lon="-0.59239">
        <ele>19.8</ele>
        <time>2023-07-19T12:13:05Z</time>
      </trkpt>
      <trkpt lat="47.43178" lon="-0.59241">
        <ele>19.8</ele>
        <time>2023-07-19T12:13:06Z</time>
      </trkpt>
      <trkpt lat="47.43174" lon="-0.59244">
        <ele>19.8</ele>
        <time>2023-07-19T12:13:07Z</time>
      </trkpt>
      <trkpt lat="47.43169" lon="-0.59246">
        <ele>19.8</ele>
        <time>2023-07-19T12:13:08Z</time>
      </trkpt>
      <trkpt lat="47.43164" lon="-0.59247">
        <ele>19.8</ele>
        <time>2023-07-19T12:13:09Z</time>
      </trkpt>
      <trkpt lat="47.43157" lon="-0.5925">
        <ele>19.8</ele>
        <time>2023-07-19T12:13:11Z</time>
      </trkpt>
      <trkpt lat="47.43155" lon="-0.59252">
        <ele>19.8</ele>
        <time>2023-07-19T12:13:12Z</time>
      </trkpt>
      <trkpt lat="47.43153" lon="-0.59254">
        <ele>19.8</ele>
        <time>2023-07-19T12:13:13Z</time>
      </trkpt>
      <trkpt lat="47.43136" lon="-0.59263">
        <ele>19.8</ele>
        <time>2023-07-19T12:13:17Z</time>
      </trkpt>
      <trkpt lat="47.43125" lon="-0.59279">
        <ele>19.8</ele>
        <time>2023-07-19T12:13:21Z</time>
      </trkpt>
      <trkpt lat="47.43122" lon="-0.59281">
        <ele>19.8</ele>
        <time>2023-07-19T12:13:22Z</time>
      </trkpt>
      <trkpt lat="47.43118" lon="-0.59284">
        <ele>19.8</ele>
        <time>2023-07-19T12:13:23Z</time>
      </trkpt>
      <trkpt lat="47.43108" lon="-0.59285">
        <ele>19.6</ele>
        <time>2023-07-19T12:13:26Z</time>
      </trkpt>
      <trkpt lat="47.43105" lon="-0.59287">
        <ele>19.6</ele>
        <time>2023-07-19T12:13:27Z</time>
      </trkpt>
      <trkpt lat="47.43102" lon="-0.5929">
        <ele>19.6</ele>
        <time>2023-07-19T12:13:28Z</time>
      </trkpt>
      <trkpt lat="47.431" lon="-0.59293">
        <ele>19.6</ele>
        <time>2023-07-19T12:13:29Z</time>
      </trkpt>
      <trkpt lat="47.43097" lon="-0.59296">
        <ele>19.6</ele>
        <time>2023-07-19T12:13:30Z</time>
      </trkpt>
      <trkpt lat="47.43095" lon="-0.59299">
        <ele>19.6</ele>
        <time>2023-07-19T12:13:31Z</time>
      </trkpt>
      <trkpt lat="47.43089" lon="-0.59304">
        <ele>19.4</ele>
        <time>2023-07-19T12:13:33Z</time>
      </trkpt>
      <trkpt lat="47.43082" lon="-0.59308">
        <ele>19.4</ele>
        <time>2023-07-19T12:13:35Z</time>
      </trkpt>
      <trkpt lat="47.4308" lon="-0.59309">
        <ele>19.4</ele>
        <time>2023-07-19T12:13:36Z</time>
      </trkpt>
      <trkpt lat="47.43077" lon="-0.59311">
        <ele>19.4</ele>
        <time>2023-07-19T12:13:37Z</time>
      </trkpt>
      <trkpt lat="47.4307" lon="-0.59316">
        <ele>19.4</ele>
        <time>2023-07-19T12:13:39Z</time>
      </trkpt>
      <trkpt lat="47.43066" lon="-0.59319">
        <ele>19.4</ele>
        <time>2023-07-19T12:13:40Z</time>
      </trkpt>
      <trkpt lat="47.43048" lon="-0.5933">
        <ele>19.2</ele>
        <time>2023-07-19T12:13:44Z</time>
      </trkpt>
      <trkpt lat="47.43043" lon="-0.59332">
        <ele>19.2</ele>
        <time>2023-07-19T12:13:45Z</time>
      </trkpt>
      <trkpt lat="47.43025" lon="-0.59343">
        <ele>19.2</ele>
        <time>2023-07-19T12:13:50Z</time>
      </trkpt>
      <trkpt lat="47.43018" lon="-0.59347">
        <ele>19.4</ele>
        <time>2023-07-19T12:13:52Z</time>
      </trkpt>
      <trkpt lat="47.43014" lon="-0.59347">
        <ele>19.4</ele>
        <time>2023-07-19T12:13:53Z</time>
      </trkpt>
      <trkpt lat="47.43009" lon="-0.59349">
        <ele>19.4</ele>
        <time>2023-07-19T12:13:54Z</time>
      </trkpt>
      <trkpt lat="47.43005" lon="-0.59351">
        <ele>19.4</ele>
        <time>2023-07-19T12:13:55Z</time>
      </trkpt>
      <trkpt lat="47.42997" lon="-0.59357">
        <ele>19.4</ele>
        <time>2023-07-19T12:13:57Z</time>
      </trkpt>
      <trkpt lat="47.42993" lon="-0.5936">
        <ele>19.4</ele>
        <time>2023-07-19T12:13:58Z</time>
      </trkpt>
      <trkpt lat="47.4299" lon="-0.59362">
        <ele>19.4</ele>
        <time>2023-07-19T12:13:59Z</time>
      </trkpt>
      <trkpt lat="47.42985" lon="-0.59365">
        <ele>19.4</ele>
        <time>2023-07-19T12:14:00Z</time>
      </trkpt>
      <trkpt lat="47.42957" lon="-0.59379">
        <ele>19.4</ele>
        <time>2023-07-19T12:14:07Z</time>
      </trkpt>
      <trkpt lat="47.4295" lon="-0.59381">
        <ele>19.4</ele>
        <time>2023-07-19T12:14:09Z</time>
      </trkpt>
      <trkpt lat="47.42947" lon="-0.59383">
        <ele>19.2</ele>
        <time>2023-07-19T12:14:10Z</time>
      </trkpt>
      <trkpt lat="47.42941" lon="-0.59386">
        <ele>19.2</ele>
        <time>2023-07-19T12:14:12Z</time>
      </trkpt>
      <trkpt lat="47.42938" lon="-0.59387">
        <ele>19</ele>
        <time>2023-07-19T12:14:13Z</time>
      </trkpt>
      <trkpt lat="47.42931" lon="-0.5939">
        <ele>19</ele>
        <time>2023-07-19T12:14:15Z</time>
      </trkpt>
      <trkpt lat="47.42927" lon="-0.59391">
        <ele>19</ele>
        <time>2023-07-19T12:14:16Z</time>
      </trkpt>
      <trkpt lat="47.42923" lon="-0.59392">
        <ele>19</ele>
        <time>2023-07-19T12:14:17Z</time>
      </trkpt>
      <trkpt lat="47.4292" lon="-0.59393">
        <ele>18.8</ele>
        <time>2023-07-19T12:14:18Z</time>
      </trkpt>
      <trkpt lat="47.42918" lon="-0.59393">
        <ele>18.8</ele>
        <time>2023-07-19T12:14:19Z</time>
      </trkpt>
      <trkpt lat="47.42915" lon="-0.59394">
        <ele>18.8</ele>
        <time>2023-07-19T12:14:20Z</time>
      </trkpt>
      <trkpt lat="47.42912" lon="-0.59394">
        <ele>18.8</ele>
        <time>2023-07-19T12:14:21Z</time>
      </trkpt>
      <trkpt lat="47.42909" lon="-0.59395">
        <ele>18.8</ele>
        <time>2023-07-19T12:14:22Z</time>
      </trkpt>
      <trkpt lat="47.42906" lon="-0.59396">
        <ele>18.8</ele>
        <time>2023-07-19T12:14:23Z</time>
      </trkpt>
      <trkpt lat="47.42896" lon="-0.59402">
        <ele>18.8</ele>
        <time>2023-07-19T12:14:26Z</time>
      </trkpt>
      <trkpt lat="47.42893" lon="-0.59404">
        <ele>18.8</ele>
        <time>2023-07-19T12:14:27Z</time>
      </trkpt>
      <trkpt lat="47.42891" lon="-0.59405">
        <ele>18.8</ele>
        <time>2023-07-19T12:14:28Z</time>
      </trkpt>
      <trkpt lat="47.42884" lon="-0.59408">
        <ele>18.8</ele>
        <time>2023-07-19T12:14:31Z</time>
      </trkpt>
      <trkpt lat="47.4288" lon="-0.59409">
        <ele>18.8</ele>
        <time>2023-07-19T12:14:32Z</time>
      </trkpt>
      <trkpt lat="47.42877" lon="-0.59409">
        <ele>18.8</ele>
        <time>2023-07-19T12:14:33Z</time>
      </trkpt>
      <trkpt lat="47.42873" lon="-0.59413">
        <ele>18.8</ele>
        <time>2023-07-19T12:14:34Z</time>
      </trkpt>
      <trkpt lat="47.42868" lon="-0.59416">
        <ele>18.8</ele>
        <time>2023-07-19T12:14:36Z</time>
      </trkpt>
      <trkpt lat="47.42864" lon="-0.59417">
        <ele>19</ele>
        <time>2023-07-19T12:14:37Z</time>
      </trkpt>
      <trkpt lat="47.42861" lon="-0.59418">
        <ele>19</ele>
        <time>2023-07-19T12:14:38Z</time>
      </trkpt>
      <trkpt lat="47.42855" lon="-0.5942">
        <ele>19</ele>
        <time>2023-07-19T12:14:40Z</time>
      </trkpt>
      <trkpt lat="47.42853" lon="-0.59422">
        <ele>19</ele>
        <time>2023-07-19T12:14:41Z</time>
      </trkpt>
      <trkpt lat="47.42848" lon="-0.59427">
        <ele>19</ele>
        <time>2023-07-19T12:14:43Z</time>
      </trkpt>
      <trkpt lat="47.42845" lon="-0.5943">
        <ele>19</ele>
        <time>2023-07-19T12:14:44Z</time>
      </trkpt>
      <trkpt lat="47.42835" lon="-0.59434">
        <ele>19.2</ele>
        <time>2023-07-19T12:14:47Z</time>
      </trkpt>
      <trkpt lat="47.42832" lon="-0.59436">
        <ele>19.2</ele>
        <time>2023-07-19T12:14:48Z</time>
      </trkpt>
      <trkpt lat="47.42826" lon="-0.59438">
        <ele>19</ele>
        <time>2023-07-19T12:14:50Z</time>
      </trkpt>
      <trkpt lat="47.42808" lon="-0.59446">
        <ele>19</ele>
        <time>2023-07-19T12:14:55Z</time>
      </trkpt>
      <trkpt lat="47.42806" lon="-0.59448">
        <ele>19</ele>
        <time>2023-07-19T12:14:56Z</time>
      </trkpt>
      <trkpt lat="47.42804" lon="-0.5945">
        <ele>18.8</ele>
        <time>2023-07-19T12:14:57Z</time>
      </trkpt>
      <trkpt lat="47.42801" lon="-0.59453">
        <ele>18.8</ele>
        <time>2023-07-19T12:14:58Z</time>
      </trkpt>
      <trkpt lat="47.42798" lon="-0.59456">
        <ele>19</ele>
        <time>2023-07-19T12:14:59Z</time>
      </trkpt>
      <trkpt lat="47.4279" lon="-0.59463">
        <ele>18.8</ele>
        <time>2023-07-19T12:15:01Z</time>
      </trkpt>
      <trkpt lat="47.42789" lon="-0.59468">
        <ele>19</ele>
        <time>2023-07-19T12:15:02Z</time>
      </trkpt>
      <trkpt lat="47.42787" lon="-0.59472">
        <ele>19</ele>
        <time>2023-07-19T12:15:03Z</time>
      </trkpt>
      <trkpt lat="47.42785" lon="-0.59476">
        <ele>19</ele>
        <time>2023-07-19T12:15:04Z</time>
      </trkpt>
      <trkpt lat="47.42784" lon="-0.59481">
        <ele>19</ele>
        <time>2023-07-19T12:15:05Z</time>
      </trkpt>
      <trkpt lat="47.42782" lon="-0.59484">
        <ele>19</ele>
        <time>2023-07-19T12:15:06Z</time>
      </trkpt>
      <trkpt lat="47.4278" lon="-0.59488">
        <ele>18.8</ele>
        <time>2023-07-19T12:15:07Z</time>
      </trkpt>
      <trkpt lat="47.42775" lon="-0.595">
        <ele>18.8</ele>
        <time>2023-07-19T12:15:10Z</time>
      </trkpt>
      <trkpt lat="47.42769" lon="-0.59514">
        <ele>18.4</ele>
        <time>2023-07-19T12:15:13Z</time>
      </trkpt>
      <trkpt lat="47.42762" lon="-0.59539">
        <ele>18.4</ele>
        <time>2023-07-19T12:15:18Z</time>
      </trkpt>
      <trkpt lat="47.4275" lon="-0.59563">
        <ele>18.4</ele>
        <time>2023-07-19T12:15:23Z</time>
      </trkpt>
      <trkpt lat="47.42738" lon="-0.59596">
        <ele>18.6</ele>
        <time>2023-07-19T12:15:29Z</time>
      </trkpt>
      <trkpt lat="47.42731" lon="-0.59616">
        <ele>18.6</ele>
        <time>2023-07-19T12:15:33Z</time>
      </trkpt>
      <trkpt lat="47.42718" lon="-0.59647">
        <ele>18.6</ele>
        <time>2023-07-19T12:15:39Z</time>
      </trkpt>
      <trkpt lat="47.42716" lon="-0.59653">
        <ele>18.6</ele>
        <time>2023-07-19T12:15:40Z</time>
      </trkpt>
      <trkpt lat="47.42714" lon="-0.59664">
        <ele>18.6</ele>
        <time>2023-07-19T12:15:42Z</time>
      </trkpt>
      <trkpt lat="47.42707" lon="-0.59694">
        <ele>18.6</ele>
        <time>2023-07-19T12:15:47Z</time>
      </trkpt>
      <trkpt lat="47.42698" lon="-0.59723">
        <ele>18.4</ele>
        <time>2023-07-19T12:15:52Z</time>
      </trkpt>
      <trkpt lat="47.42695" lon="-0.59734">
        <ele>18.4</ele>
        <time>2023-07-19T12:15:54Z</time>
      </trkpt>
      <trkpt lat="47.42686" lon="-0.59762">
        <ele>18.2</ele>
        <time>2023-07-19T12:15:59Z</time>
      </trkpt>
      <trkpt lat="47.42685" lon="-0.59768">
        <ele>18.2</ele>
        <time>2023-07-19T12:16:00Z</time>
      </trkpt>
      <trkpt lat="47.42683" lon="-0.59774">
        <ele>18.2</ele>
        <time>2023-07-19T12:16:01Z</time>
      </trkpt>
      <trkpt lat="47.42681" lon="-0.59779">
        <ele>18.2</ele>
        <time>2023-07-19T12:16:02Z</time>
      </trkpt>
      <trkpt lat="47.42675" lon="-0.59795">
        <ele>18.2</ele>
        <time>2023-07-19T12:16:05Z</time>
      </trkpt>
      <trkpt lat="47.42672" lon="-0.59813">
        <ele>18.2</ele>
        <time>2023-07-19T12:16:08Z</time>
      </trkpt>
      <trkpt lat="47.42671" lon="-0.59819">
        <ele>18.2</ele>
        <time>2023-07-19T12:16:09Z</time>
      </trkpt>
      <trkpt lat="47.42669" lon="-0.59824">
        <ele>18.2</ele>
        <time>2023-07-19T12:16:10Z</time>
      </trkpt>
      <trkpt lat="47.42668" lon="-0.59835">
        <ele>18.2</ele>
        <time>2023-07-19T12:16:12Z</time>
      </trkpt>
      <trkpt lat="47.42667" lon="-0.59846">
        <ele>18.2</ele>
        <time>2023-07-19T12:16:14Z</time>
      </trkpt>
      <trkpt lat="47.42667" lon="-0.59852">
        <ele>18.2</ele>
        <time>2023-07-19T12:16:15Z</time>
      </trkpt>
      <trkpt lat="47.42666" lon="-0.59856">
        <ele>18.2</ele>
        <time>2023-07-19T12:16:16Z</time>
      </trkpt>
      <trkpt lat="47.42665" lon="-0.59861">
        <ele>18.2</ele>
        <time>2023-07-19T12:16:17Z</time>
      </trkpt>
      <trkpt lat="47.42664" lon="-0.59865">
        <ele>18.2</ele>
        <time>2023-07-19T12:16:18Z</time>
      </trkpt>
      <trkpt lat="47.42663" lon="-0.5987">
        <ele>18.2</ele>
        <time>2023-07-19T12:16:19Z</time>
      </trkpt>
      <trkpt lat="47.42662" lon="-0.59876">
        <ele>18.2</ele>
        <time>2023-07-19T12:16:20Z</time>
      </trkpt>
      <trkpt lat="47.42661" lon="-0.59881">
        <ele>18.2</ele>
        <time>2023-07-19T12:16:21Z</time>
      </trkpt>
      <trkpt lat="47.4266" lon="-0.59886">
        <ele>18.2</ele>
        <time>2023-07-19T12:16:22Z</time>
      </trkpt>
      <trkpt lat="47.42656" lon="-0.59907">
        <ele>18</ele>
        <time>2023-07-19T12:16:26Z</time>
      </trkpt>
      <trkpt lat="47.42655" lon="-0.59917">
        <ele>18</ele>
        <time>2023-07-19T12:16:28Z</time>
      </trkpt>
      <trkpt lat="47.42651" lon="-0.59938">
        <ele>18</ele>
        <time>2023-07-19T12:16:32Z</time>
      </trkpt>
      <trkpt lat="47.42649" lon="-0.59948">
        <ele>18</ele>
        <time>2023-07-19T12:16:34Z</time>
      </trkpt>
      <trkpt lat="47.42644" lon="-0.59979">
        <ele>18</ele>
        <time>2023-07-19T12:16:40Z</time>
      </trkpt>
      <trkpt lat="47.42643" lon="-0.59984">
        <ele>18</ele>
        <time>2023-07-19T12:16:41Z</time>
      </trkpt>
      <trkpt lat="47.42638" lon="-0.60017">
        <ele>18.2</ele>
        <time>2023-07-19T12:16:47Z</time>
      </trkpt>
      <trkpt lat="47.42637" lon="-0.60022">
        <ele>18.2</ele>
        <time>2023-07-19T12:16:48Z</time>
      </trkpt>
      <trkpt lat="47.42636" lon="-0.60027">
        <ele>18.2</ele>
        <time>2023-07-19T12:16:49Z</time>
      </trkpt>
      <trkpt lat="47.42635" lon="-0.60035">
        <ele>18.2</ele>
        <time>2023-07-19T12:16:51Z</time>
      </trkpt>
      <trkpt lat="47.42634" lon="-0.60041">
        <ele>18.2</ele>
        <time>2023-07-19T12:16:52Z</time>
      </trkpt>
      <trkpt lat="47.42633" lon="-0.60046">
        <ele>18.2</ele>
        <time>2023-07-19T12:16:53Z</time>
      </trkpt>
      <trkpt lat="47.42633" lon="-0.60051">
        <ele>18</ele>
        <time>2023-07-19T12:16:54Z</time>
      </trkpt>
      <trkpt lat="47.42631" lon="-0.60056">
        <ele>18</ele>
        <time>2023-07-19T12:16:55Z</time>
      </trkpt>
      <trkpt lat="47.42628" lon="-0.60084">
        <ele>18</ele>
        <time>2023-07-19T12:17:00Z</time>
      </trkpt>
      <trkpt lat="47.4262" lon="-0.60126">
        <ele>18</ele>
        <time>2023-07-19T12:17:08Z</time>
      </trkpt>
      <trkpt lat="47.42615" lon="-0.60158">
        <ele>18</ele>
        <time>2023-07-19T12:17:14Z</time>
      </trkpt>
      <trkpt lat="47.42611" lon="-0.60195">
        <ele>18.2</ele>
        <time>2023-07-19T12:17:21Z</time>
      </trkpt>
      <trkpt lat="47.42609" lon="-0.60205">
        <ele>18.2</ele>
        <time>2023-07-19T12:17:23Z</time>
      </trkpt>
      <trkpt lat="47.42608" lon="-0.60209">
        <ele>18.2</ele>
        <time>2023-07-19T12:17:24Z</time>
      </trkpt>
      <trkpt lat="47.42607" lon="-0.60223">
        <ele>18.2</ele>
        <time>2023-07-19T12:17:27Z</time>
      </trkpt>
      <trkpt lat="47.42607" lon="-0.60228">
        <ele>18.2</ele>
        <time>2023-07-19T12:17:28Z</time>
      </trkpt>
      <trkpt lat="47.42607" lon="-0.60232">
        <ele>18.2</ele>
        <time>2023-07-19T12:17:29Z</time>
      </trkpt>
      <trkpt lat="47.42607" lon="-0.60236">
        <ele>18.2</ele>
        <time>2023-07-19T12:17:30Z</time>
      </trkpt>
      <trkpt lat="47.42606" lon="-0.60241">
        <ele>18.2</ele>
        <time>2023-07-19T12:17:31Z</time>
      </trkpt>
      <trkpt lat="47.42606" lon="-0.60245">
        <ele>18.2</ele>
        <time>2023-07-19T12:17:32Z</time>
      </trkpt>
      <trkpt lat="47.42606" lon="-0.60249">
        <ele>18.2</ele>
        <time>2023-07-19T12:17:33Z</time>
      </trkpt>
      <trkpt lat="47.42605" lon="-0.60254">
        <ele>18.2</ele>
        <time>2023-07-19T12:17:34Z</time>
      </trkpt>
      <trkpt lat="47.42604" lon="-0.60258">
        <ele>18.2</ele>
        <time>2023-07-19T12:17:35Z</time>
      </trkpt>
      <trkpt lat="47.42604" lon="-0.60263">
        <ele>18.2</ele>
        <time>2023-07-19T12:17:36Z</time>
      </trkpt>
      <trkpt lat="47.42603" lon="-0.60267">
        <ele>18.2</ele>
        <time>2023-07-19T12:17:37Z</time>
      </trkpt>
      <trkpt lat="47.42601" lon="-0.60282">
        <ele>18</ele>
        <time>2023-07-19T12:17:41Z</time>
      </trkpt>
      <trkpt lat="47.426" lon="-0.60285">
        <ele>18</ele>
        <time>2023-07-19T12:17:42Z</time>
      </trkpt>
      <trkpt lat="47.42599" lon="-0.60288">
        <ele>18</ele>
        <time>2023-07-19T12:17:43Z</time>
      </trkpt>
      <trkpt lat="47.42598" lon="-0.60291">
        <ele>18</ele>
        <time>2023-07-19T12:17:44Z</time>
      </trkpt>
      <trkpt lat="47.42596" lon="-0.60292">
        <ele>18</ele>
        <time>2023-07-19T12:17:45Z</time>
      </trkpt>
      <trkpt lat="47.42594" lon="-0.60294">
        <ele>18</ele>
        <time>2023-07-19T12:17:46Z</time>
      </trkpt>
      <trkpt lat="47.42592" lon="-0.60295">
        <ele>17.8</ele>
        <time>2023-07-19T12:17:47Z</time>
      </trkpt>
      <trkpt lat="47.42589" lon="-0.60296">
        <ele>17.8</ele>
        <time>2023-07-19T12:17:48Z</time>
      </trkpt>
      <trkpt lat="47.42587" lon="-0.60296">
        <ele>17.6</ele>
        <time>2023-07-19T12:17:49Z</time>
      </trkpt>
      <trkpt lat="47.42585" lon="-0.60296">
        <ele>17.4</ele>
        <time>2023-07-19T12:17:50Z</time>
      </trkpt>
      <trkpt lat="47.42583" lon="-0.60295">
        <ele>17.4</ele>
        <time>2023-07-19T12:17:51Z</time>
      </trkpt>
      <trkpt lat="47.42581" lon="-0.60295">
        <ele>17.2</ele>
        <time>2023-07-19T12:17:52Z</time>
      </trkpt>
      <trkpt lat="47.42579" lon="-0.60295">
        <ele>17</ele>
        <time>2023-07-19T12:17:53Z</time>
      </trkpt>
      <trkpt lat="47.42574" lon="-0.60296">
        <ele>16.8</ele>
        <time>2023-07-19T12:17:55Z</time>
      </trkpt>
      <trkpt lat="47.42572" lon="-0.60295">
        <ele>16.6</ele>
        <time>2023-07-19T12:17:56Z</time>
      </trkpt>
      <trkpt lat="47.42568" lon="-0.60294">
        <ele>16.6</ele>
        <time>2023-07-19T12:17:57Z</time>
      </trkpt>
      <trkpt lat="47.42565" lon="-0.60292">
        <ele>16.6</ele>
        <time>2023-07-19T12:17:58Z</time>
      </trkpt>
      <trkpt lat="47.42563" lon="-0.60291">
        <ele>16.6</ele>
        <time>2023-07-19T12:17:59Z</time>
      </trkpt>
      <trkpt lat="47.42559" lon="-0.60287">
        <ele>16.6</ele>
        <time>2023-07-19T12:18:01Z</time>
      </trkpt>
      <trkpt lat="47.42558" lon="-0.60284">
        <ele>16.6</ele>
        <time>2023-07-19T12:18:02Z</time>
      </trkpt>
      <trkpt lat="47.42557" lon="-0.60281">
        <ele>16.6</ele>
        <time>2023-07-19T12:18:03Z</time>
      </trkpt>
      <trkpt lat="47.42557" lon="-0.60278">
        <ele>16.6</ele>
        <time>2023-07-19T12:18:04Z</time>
      </trkpt>
      <trkpt lat="47.42556" lon="-0.60275">
        <ele>16.6</ele>
        <time>2023-07-19T12:18:05Z</time>
      </trkpt>
      <trkpt lat="47.42554" lon="-0.60268">
        <ele>16.6</ele>
        <time>2023-07-19T12:18:07Z</time>
      </trkpt>
      <trkpt lat="47.42552" lon="-0.60265">
        <ele>16.6</ele>
        <time>2023-07-19T12:18:08Z</time>
      </trkpt>
      <trkpt lat="47.4255" lon="-0.60263">
        <ele>16.8</ele>
        <time>2023-07-19T12:18:09Z</time>
      </trkpt>
      <trkpt lat="47.42548" lon="-0.60263">
        <ele>16.8</ele>
        <time>2023-07-19T12:18:10Z</time>
      </trkpt>
      <trkpt lat="47.42542" lon="-0.60261">
        <ele>17</ele>
        <time>2023-07-19T12:18:12Z</time>
      </trkpt>
      <trkpt lat="47.4254" lon="-0.6026">
        <ele>17.2</ele>
        <time>2023-07-19T12:18:13Z</time>
      </trkpt>
      <trkpt lat="47.42526" lon="-0.60259">
        <ele>17.4</ele>
        <time>2023-07-19T12:18:18Z</time>
      </trkpt>
      <trkpt lat="47.42518" lon="-0.6026">
        <ele>17.6</ele>
        <time>2023-07-19T12:18:22Z</time>
      </trkpt>
      <trkpt lat="47.42515" lon="-0.6026">
        <ele>17.6</ele>
        <time>2023-07-19T12:18:23Z</time>
      </trkpt>
      <trkpt lat="47.42512" lon="-0.6026">
        <ele>17.6</ele>
        <time>2023-07-19T12:18:24Z</time>
      </trkpt>
      <trkpt lat="47.4251" lon="-0.6026">
        <ele>17.6</ele>
        <time>2023-07-19T12:18:25Z</time>
      </trkpt>
      <trkpt lat="47.42486" lon="-0.60258">
        <ele>17.6</ele>
        <time>2023-07-19T12:18:34Z</time>
      </trkpt>
      <trkpt lat="47.42461" lon="-0.60255">
        <ele>17.8</ele>
        <time>2023-07-19T12:18:43Z</time>
      </trkpt>
      <trkpt lat="47.42437" lon="-0.60252">
        <ele>18</ele>
        <time>2023-07-19T12:18:51Z</time>
      </trkpt>
      <trkpt lat="47.42407" lon="-0.6025">
        <ele>18</ele>
        <time>2023-07-19T12:19:01Z</time>
      </trkpt>
      <trkpt lat="47.42383" lon="-0.60254">
        <ele>18</ele>
        <time>2023-07-19T12:19:09Z</time>
      </trkpt>
      <trkpt lat="47.4238" lon="-0.60256">
        <ele>18</ele>
        <time>2023-07-19T12:19:10Z</time>
      </trkpt>
      <trkpt lat="47.42378" lon="-0.60258">
        <ele>18</ele>
        <time>2023-07-19T12:19:11Z</time>
      </trkpt>
      <trkpt lat="47.42376" lon="-0.6026">
        <ele>18</ele>
        <time>2023-07-19T12:19:12Z</time>
      </trkpt>
      <trkpt lat="47.42373" lon="-0.60261">
        <ele>18</ele>
        <time>2023-07-19T12:19:13Z</time>
      </trkpt>
      <trkpt lat="47.4236" lon="-0.60268">
        <ele>18</ele>
        <time>2023-07-19T12:19:17Z</time>
      </trkpt>
      <trkpt lat="47.42337" lon="-0.60283">
        <ele>17.6</ele>
        <time>2023-07-19T12:19:25Z</time>
      </trkpt>
      <trkpt lat="47.42331" lon="-0.60287">
        <ele>17.6</ele>
        <time>2023-07-19T12:19:27Z</time>
      </trkpt>
      <trkpt lat="47.42327" lon="-0.60289">
        <ele>17.6</ele>
        <time>2023-07-19T12:19:28Z</time>
      </trkpt>
      <trkpt lat="47.42325" lon="-0.6029">
        <ele>17.6</ele>
        <time>2023-07-19T12:19:29Z</time>
      </trkpt>
      <trkpt lat="47.42319" lon="-0.60291">
        <ele>17.6</ele>
        <time>2023-07-19T12:19:31Z</time>
      </trkpt>
      <trkpt lat="47.42316" lon="-0.60292">
        <ele>17.6</ele>
        <time>2023-07-19T12:19:32Z</time>
      </trkpt>
      <trkpt lat="47.42293" lon="-0.60302">
        <ele>17.6</ele>
        <time>2023-07-19T12:19:39Z</time>
      </trkpt>
      <trkpt lat="47.42277" lon="-0.60307">
        <ele>17.6</ele>
        <time>2023-07-19T12:19:44Z</time>
      </trkpt>
      <trkpt lat="47.42254" lon="-0.60319">
        <ele>17.6</ele>
        <time>2023-07-19T12:19:51Z</time>
      </trkpt>
      <trkpt lat="47.42248" lon="-0.60322">
        <ele>17.6</ele>
        <time>2023-07-19T12:19:53Z</time>
      </trkpt>
      <trkpt lat="47.42246" lon="-0.60324">
        <ele>17.6</ele>
        <time>2023-07-19T12:19:54Z</time>
      </trkpt>
      <trkpt lat="47.42243" lon="-0.60326">
        <ele>17.6</ele>
        <time>2023-07-19T12:19:55Z</time>
      </trkpt>
      <trkpt lat="47.4224" lon="-0.60328">
        <ele>17.6</ele>
        <time>2023-07-19T12:19:56Z</time>
      </trkpt>
      <trkpt lat="47.42238" lon="-0.60329">
        <ele>17.6</ele>
        <time>2023-07-19T12:19:57Z</time>
      </trkpt>
      <trkpt lat="47.42235" lon="-0.60331">
        <ele>17.6</ele>
        <time>2023-07-19T12:19:58Z</time>
      </trkpt>
      <trkpt lat="47.42233" lon="-0.60332">
        <ele>17.6</ele>
        <time>2023-07-19T12:19:59Z</time>
      </trkpt>
      <trkpt lat="47.42231" lon="-0.60334">
        <ele>17.8</ele>
        <time>2023-07-19T12:20:00Z</time>
      </trkpt>
      <trkpt lat="47.42228" lon="-0.60336">
        <ele>17.8</ele>
        <time>2023-07-19T12:20:01Z</time>
      </trkpt>
      <trkpt lat="47.42225" lon="-0.60337">
        <ele>17.8</ele>
        <time>2023-07-19T12:20:02Z</time>
      </trkpt>
      <trkpt lat="47.42223" lon="-0.60339">
        <ele>17.8</ele>
        <time>2023-07-19T12:20:03Z</time>
      </trkpt>
      <trkpt lat="47.4222" lon="-0.60341">
        <ele>17.8</ele>
        <time>2023-07-19T12:20:04Z</time>
      </trkpt>
      <trkpt lat="47.42218" lon="-0.60343">
        <ele>17.8</ele>
        <time>2023-07-19T12:20:05Z</time>
      </trkpt>
      <trkpt lat="47.42215" lon="-0.60345">
        <ele>17.8</ele>
        <time>2023-07-19T12:20:06Z</time>
      </trkpt>
      <trkpt lat="47.42213" lon="-0.60348">
        <ele>17.8</ele>
        <time>2023-07-19T12:20:07Z</time>
      </trkpt>
      <trkpt lat="47.42196" lon="-0.60364">
        <ele>17.8</ele>
        <time>2023-07-19T12:20:13Z</time>
      </trkpt>
      <trkpt lat="47.42173" lon="-0.60391">
        <ele>17.8</ele>
        <time>2023-07-19T12:20:22Z</time>
      </trkpt>
      <trkpt lat="47.42154" lon="-0.60417">
        <ele>17.6</ele>
        <time>2023-07-19T12:20:30Z</time>
      </trkpt>
      <trkpt lat="47.42144" lon="-0.60427">
        <ele>17.4</ele>
        <time>2023-07-19T12:20:34Z</time>
      </trkpt>
      <trkpt lat="47.42142" lon="-0.60429">
        <ele>17.4</ele>
        <time>2023-07-19T12:20:35Z</time>
      </trkpt>
      <trkpt lat="47.42141" lon="-0.6043">
        <ele>17.4</ele>
        <time>2023-07-19T12:20:36Z</time>
      </trkpt>
      <trkpt lat="47.42141" lon="-0.6043">
        <ele>17.4</ele>
        <time>2023-07-19T12:20:37Z</time>
      </trkpt>
      <trkpt lat="47.42141" lon="-0.6043">
        <ele>17.4</ele>
        <time>2023-07-19T12:20:38Z</time>
      </trkpt>
      <trkpt lat="47.42136" lon="-0.60435">
        <ele>17.4</ele>
        <time>2023-07-19T12:20:51Z</time>
      </trkpt>
      <trkpt lat="47.42134" lon="-0.60437">
        <ele>17.6</ele>
        <time>2023-07-19T12:20:52Z</time>
      </trkpt>
      <trkpt lat="47.42132" lon="-0.60439">
        <ele>17.6</ele>
        <time>2023-07-19T12:20:53Z</time>
      </trkpt>
      <trkpt lat="47.42123" lon="-0.60458">
        <ele>17.6</ele>
        <time>2023-07-19T12:20:58Z</time>
      </trkpt>
      <trkpt lat="47.42116" lon="-0.60475">
        <ele>17.6</ele>
        <time>2023-07-19T12:21:02Z</time>
      </trkpt>
      <trkpt lat="47.42114" lon="-0.60478">
        <ele>17.6</ele>
        <time>2023-07-19T12:21:03Z</time>
      </trkpt>
      <trkpt lat="47.42113" lon="-0.60481">
        <ele>17.6</ele>
        <time>2023-07-19T12:21:04Z</time>
      </trkpt>
      <trkpt lat="47.42111" lon="-0.60485">
        <ele>17.6</ele>
        <time>2023-07-19T12:21:05Z</time>
      </trkpt>
      <trkpt lat="47.42107" lon="-0.60496">
        <ele>17.6</ele>
        <time>2023-07-19T12:21:08Z</time>
      </trkpt>
      <trkpt lat="47.42106" lon="-0.60499">
        <ele>17.6</ele>
        <time>2023-07-19T12:21:09Z</time>
      </trkpt>
      <trkpt lat="47.42104" lon="-0.60503">
        <ele>17.6</ele>
        <time>2023-07-19T12:21:10Z</time>
      </trkpt>
      <trkpt lat="47.42103" lon="-0.60506">
        <ele>17.6</ele>
        <time>2023-07-19T12:21:11Z</time>
      </trkpt>
      <trkpt lat="47.42101" lon="-0.6051">
        <ele>17.6</ele>
        <time>2023-07-19T12:21:12Z</time>
      </trkpt>
      <trkpt lat="47.421" lon="-0.60514">
        <ele>17.6</ele>
        <time>2023-07-19T12:21:13Z</time>
      </trkpt>
      <trkpt lat="47.42098" lon="-0.60517">
        <ele>17.6</ele>
        <time>2023-07-19T12:21:14Z</time>
      </trkpt>
      <trkpt lat="47.42088" lon="-0.60549">
        <ele>17.6</ele>
        <time>2023-07-19T12:21:22Z</time>
      </trkpt>
      <trkpt lat="47.42079" lon="-0.60584">
        <ele>17.6</ele>
        <time>2023-07-19T12:21:31Z</time>
      </trkpt>
      <trkpt lat="47.42079" lon="-0.60588">
        <ele>17.6</ele>
        <time>2023-07-19T12:21:32Z</time>
      </trkpt>
      <trkpt lat="47.42078" lon="-0.60592">
        <ele>17.6</ele>
        <time>2023-07-19T12:21:33Z</time>
      </trkpt>
      <trkpt lat="47.42076" lon="-0.60596">
        <ele>17.6</ele>
        <time>2023-07-19T12:21:34Z</time>
      </trkpt>
      <trkpt lat="47.42075" lon="-0.606">
        <ele>17.6</ele>
        <time>2023-07-19T12:21:35Z</time>
      </trkpt>
      <trkpt lat="47.42074" lon="-0.60604">
        <ele>17.6</ele>
        <time>2023-07-19T12:21:36Z</time>
      </trkpt>
      <trkpt lat="47.42069" lon="-0.60614">
        <ele>17.6</ele>
        <time>2023-07-19T12:21:39Z</time>
      </trkpt>
      <trkpt lat="47.42067" lon="-0.60617">
        <ele>17.6</ele>
        <time>2023-07-19T12:21:40Z</time>
      </trkpt>
      <trkpt lat="47.42053" lon="-0.60642">
        <ele>18</ele>
        <time>2023-07-19T12:21:48Z</time>
      </trkpt>
      <trkpt lat="47.42037" lon="-0.60664">
        <ele>18.2</ele>
        <time>2023-07-19T12:21:55Z</time>
      </trkpt>
      <trkpt lat="47.42033" lon="-0.60669">
        <ele>18.2</ele>
        <time>2023-07-19T12:21:57Z</time>
      </trkpt>
      <trkpt lat="47.42025" lon="-0.6068">
        <ele>18.2</ele>
        <time>2023-07-19T12:22:01Z</time>
      </trkpt>
      <trkpt lat="47.42023" lon="-0.60682">
        <ele>18.2</ele>
        <time>2023-07-19T12:22:02Z</time>
      </trkpt>
      <trkpt lat="47.42022" lon="-0.60685">
        <ele>18.2</ele>
        <time>2023-07-19T12:22:03Z</time>
      </trkpt>
      <trkpt lat="47.4202" lon="-0.60688">
        <ele>18.2</ele>
        <time>2023-07-19T12:22:04Z</time>
      </trkpt>
      <trkpt lat="47.42019" lon="-0.6069">
        <ele>18.2</ele>
        <time>2023-07-19T12:22:05Z</time>
      </trkpt>
      <trkpt lat="47.42017" lon="-0.60693">
        <ele>18.2</ele>
        <time>2023-07-19T12:22:06Z</time>
      </trkpt>
      <trkpt lat="47.42015" lon="-0.60696">
        <ele>18.2</ele>
        <time>2023-07-19T12:22:07Z</time>
      </trkpt>
      <trkpt lat="47.42014" lon="-0.60699">
        <ele>18.2</ele>
        <time>2023-07-19T12:22:08Z</time>
      </trkpt>
      <trkpt lat="47.42013" lon="-0.60703">
        <ele>18.2</ele>
        <time>2023-07-19T12:22:09Z</time>
      </trkpt>
      <trkpt lat="47.42012" lon="-0.60706">
        <ele>18.2</ele>
        <time>2023-07-19T12:22:10Z</time>
      </trkpt>
      <trkpt lat="47.4201" lon="-0.60708">
        <ele>18</ele>
        <time>2023-07-19T12:22:11Z</time>
      </trkpt>
      <trkpt lat="47.42009" lon="-0.6071">
        <ele>18</ele>
        <time>2023-07-19T12:22:12Z</time>
      </trkpt>
      <trkpt lat="47.42008" lon="-0.60712">
        <ele>18</ele>
        <time>2023-07-19T12:22:13Z</time>
      </trkpt>
      <trkpt lat="47.42005" lon="-0.60713">
        <ele>18</ele>
        <time>2023-07-19T12:22:15Z</time>
      </trkpt>
      <trkpt lat="47.42004" lon="-0.60713">
        <ele>18</ele>
        <time>2023-07-19T12:22:16Z</time>
      </trkpt>
      <trkpt lat="47.42004" lon="-0.60713">
        <ele>18</ele>
        <time>2023-07-19T12:22:17Z</time>
      </trkpt>
      <trkpt lat="47.42004" lon="-0.60713">
        <ele>18.2</ele>
        <time>2023-07-19T12:22:18Z</time>
      </trkpt>
      <trkpt lat="47.42003" lon="-0.60719">
        <ele>18.2</ele>
        <time>2023-07-19T12:23:29Z</time>
      </trkpt>
      <trkpt lat="47.42002" lon="-0.60719">
        <ele>18.2</ele>
        <time>2023-07-19T12:23:30Z</time>
      </trkpt>
      <trkpt lat="47.42001" lon="-0.60718">
        <ele>18.2</ele>
        <time>2023-07-19T12:23:32Z</time>
      </trkpt>
      <trkpt lat="47.42001" lon="-0.60718">
        <ele>18.2</ele>
        <time>2023-07-19T12:23:33Z</time>
      </trkpt>
      <trkpt lat="47.42001" lon="-0.60718">
        <ele>18.2</ele>
        <time>2023-07-19T12:23:34Z</time>
      </trkpt>
      <trkpt lat="47.42001" lon="-0.60718">
        <ele>18.2</ele>
        <time>2023-07-19T12:23:36Z</time>
      </trkpt>
      <trkpt lat="47.41996" lon="-0.6071">
        <ele>18.6</ele>
        <time>2023-07-19T12:23:59Z</time>
      </trkpt>
      <trkpt lat="47.41996" lon="-0.60708">
        <ele>18.6</ele>
        <time>2023-07-19T12:24:00Z</time>
      </trkpt>
      <trkpt lat="47.41995" lon="-0.60705">
        <ele>18.6</ele>
        <time>2023-07-19T12:24:01Z</time>
      </trkpt>
      <trkpt lat="47.41989" lon="-0.60687">
        <ele>18.6</ele>
        <time>2023-07-19T12:24:07Z</time>
      </trkpt>
      <trkpt lat="47.41988" lon="-0.60684">
        <ele>18.8</ele>
        <time>2023-07-19T12:24:08Z</time>
      </trkpt>
      <trkpt lat="47.41988" lon="-0.60681">
        <ele>18.8</ele>
        <time>2023-07-19T12:24:09Z</time>
      </trkpt>
      <trkpt lat="47.41986" lon="-0.60678">
        <ele>18.8</ele>
        <time>2023-07-19T12:24:10Z</time>
      </trkpt>
      <trkpt lat="47.41985" lon="-0.60675">
        <ele>19</ele>
        <time>2023-07-19T12:24:11Z</time>
      </trkpt>
      <trkpt lat="47.41984" lon="-0.60668">
        <ele>19.2</ele>
        <time>2023-07-19T12:24:13Z</time>
      </trkpt>
      <trkpt lat="47.41981" lon="-0.60664">
        <ele>19.2</ele>
        <time>2023-07-19T12:24:14Z</time>
      </trkpt>
      <trkpt lat="47.41977" lon="-0.60655">
        <ele>19.6</ele>
        <time>2023-07-19T12:24:17Z</time>
      </trkpt>
      <trkpt lat="47.41976" lon="-0.60652">
        <ele>19.6</ele>
        <time>2023-07-19T12:24:18Z</time>
      </trkpt>
      <trkpt lat="47.41973" lon="-0.60644">
        <ele>20</ele>
        <time>2023-07-19T12:24:21Z</time>
      </trkpt>
      <trkpt lat="47.41971" lon="-0.60642">
        <ele>20.2</ele>
        <time>2023-07-19T12:24:22Z</time>
      </trkpt>
      <trkpt lat="47.41968" lon="-0.60641">
        <ele>20.6</ele>
        <time>2023-07-19T12:24:23Z</time>
      </trkpt>
      <trkpt lat="47.41966" lon="-0.60641">
        <ele>21</ele>
        <time>2023-07-19T12:24:24Z</time>
      </trkpt>
      <trkpt lat="47.41965" lon="-0.60643">
        <ele>21.2</ele>
        <time>2023-07-19T12:24:25Z</time>
      </trkpt>
      <trkpt lat="47.41963" lon="-0.60644">
        <ele>21.4</ele>
        <time>2023-07-19T12:24:26Z</time>
      </trkpt>
      <trkpt lat="47.41959" lon="-0.60646">
        <ele>22</ele>
        <time>2023-07-19T12:24:28Z</time>
      </trkpt>
      <trkpt lat="47.41957" lon="-0.60647">
        <ele>22.4</ele>
        <time>2023-07-19T12:24:29Z</time>
      </trkpt>
      <trkpt lat="47.41955" lon="-0.60648">
        <ele>22.6</ele>
        <time>2023-07-19T12:24:30Z</time>
      </trkpt>
      <trkpt lat="47.41953" lon="-0.6065">
        <ele>22.6</ele>
        <time>2023-07-19T12:24:31Z</time>
      </trkpt>
      <trkpt lat="47.41953" lon="-0.60653">
        <ele>22.6</ele>
        <time>2023-07-19T12:24:32Z</time>
      </trkpt>
      <trkpt lat="47.41953" lon="-0.60656">
        <ele>22.6</ele>
        <time>2023-07-19T12:24:33Z</time>
      </trkpt>
      <trkpt lat="47.41954" lon="-0.60659">
        <ele>22.6</ele>
        <time>2023-07-19T12:24:34Z</time>
      </trkpt>
      <trkpt lat="47.41955" lon="-0.60663">
        <ele>22.6</ele>
        <time>2023-07-19T12:24:35Z</time>
      </trkpt>
      <trkpt lat="47.41957" lon="-0.60667">
        <ele>22.6</ele>
        <time>2023-07-19T12:24:36Z</time>
      </trkpt>
      <trkpt lat="47.41959" lon="-0.60672">
        <ele>22.6</ele>
        <time>2023-07-19T12:24:37Z</time>
      </trkpt>
      <trkpt lat="47.4196" lon="-0.60677">
        <ele>22.6</ele>
        <time>2023-07-19T12:24:38Z</time>
      </trkpt>
      <trkpt lat="47.41962" lon="-0.60682">
        <ele>22.6</ele>
        <time>2023-07-19T12:24:39Z</time>
      </trkpt>
      <trkpt lat="47.41964" lon="-0.60689">
        <ele>22.6</ele>
        <time>2023-07-19T12:24:40Z</time>
      </trkpt>
      <trkpt lat="47.41965" lon="-0.60696">
        <ele>22.6</ele>
        <time>2023-07-19T12:24:41Z</time>
      </trkpt>
      <trkpt lat="47.41967" lon="-0.60703">
        <ele>22.6</ele>
        <time>2023-07-19T12:24:42Z</time>
      </trkpt>
      <trkpt lat="47.41968" lon="-0.60709">
        <ele>22.4</ele>
        <time>2023-07-19T12:24:43Z</time>
      </trkpt>
      <trkpt lat="47.4197" lon="-0.60714">
        <ele>22.2</ele>
        <time>2023-07-19T12:24:44Z</time>
      </trkpt>
      <trkpt lat="47.41971" lon="-0.6072">
        <ele>22</ele>
        <time>2023-07-19T12:24:45Z</time>
      </trkpt>
      <trkpt lat="47.41971" lon="-0.60726">
        <ele>21.8</ele>
        <time>2023-07-19T12:24:46Z</time>
      </trkpt>
      <trkpt lat="47.41971" lon="-0.60732">
        <ele>21.6</ele>
        <time>2023-07-19T12:24:47Z</time>
      </trkpt>
      <trkpt lat="47.4197" lon="-0.60738">
        <ele>21.2</ele>
        <time>2023-07-19T12:24:48Z</time>
      </trkpt>
      <trkpt lat="47.4197" lon="-0.60743">
        <ele>21</ele>
        <time>2023-07-19T12:24:49Z</time>
      </trkpt>
      <trkpt lat="47.41968" lon="-0.60747">
        <ele>20.6</ele>
        <time>2023-07-19T12:24:50Z</time>
      </trkpt>
      <trkpt lat="47.41967" lon="-0.60751">
        <ele>20.2</ele>
        <time>2023-07-19T12:24:51Z</time>
      </trkpt>
      <trkpt lat="47.41965" lon="-0.60754">
        <ele>20</ele>
        <time>2023-07-19T12:24:52Z</time>
      </trkpt>
      <trkpt lat="47.41964" lon="-0.60757">
        <ele>19.6</ele>
        <time>2023-07-19T12:24:53Z</time>
      </trkpt>
      <trkpt lat="47.41962" lon="-0.6076">
        <ele>19.6</ele>
        <time>2023-07-19T12:24:54Z</time>
      </trkpt>
      <trkpt lat="47.41956" lon="-0.60768">
        <ele>19.4</ele>
        <time>2023-07-19T12:24:57Z</time>
      </trkpt>
      <trkpt lat="47.41954" lon="-0.60769">
        <ele>19.4</ele>
        <time>2023-07-19T12:24:58Z</time>
      </trkpt>
      <trkpt lat="47.41952" lon="-0.6077">
        <ele>19.4</ele>
        <time>2023-07-19T12:24:59Z</time>
      </trkpt>
      <trkpt lat="47.4195" lon="-0.60773">
        <ele>19.4</ele>
        <time>2023-07-19T12:25:00Z</time>
      </trkpt>
      <trkpt lat="47.41947" lon="-0.60778">
        <ele>19.2</ele>
        <time>2023-07-19T12:25:01Z</time>
      </trkpt>
      <trkpt lat="47.41945" lon="-0.60783">
        <ele>19.2</ele>
        <time>2023-07-19T12:25:02Z</time>
      </trkpt>
      <trkpt lat="47.41943" lon="-0.60785">
        <ele>19.2</ele>
        <time>2023-07-19T12:25:03Z</time>
      </trkpt>
      <trkpt lat="47.41941" lon="-0.60788">
        <ele>19.2</ele>
        <time>2023-07-19T12:25:04Z</time>
      </trkpt>
      <trkpt lat="47.41939" lon="-0.6079">
        <ele>19.2</ele>
        <time>2023-07-19T12:25:05Z</time>
      </trkpt>
      <trkpt lat="47.41937" lon="-0.60793">
        <ele>19.2</ele>
        <time>2023-07-19T12:25:06Z</time>
      </trkpt>
      <trkpt lat="47.41926" lon="-0.60805">
        <ele>19.4</ele>
        <time>2023-07-19T12:25:11Z</time>
      </trkpt>
      <trkpt lat="47.41919" lon="-0.60812">
        <ele>19.4</ele>
        <time>2023-07-19T12:25:14Z</time>
      </trkpt>
      <trkpt lat="47.41905" lon="-0.60826">
        <ele>19.6</ele>
        <time>2023-07-19T12:25:20Z</time>
      </trkpt>
      <trkpt lat="47.41879" lon="-0.60846">
        <ele>19.8</ele>
        <time>2023-07-19T12:25:29Z</time>
      </trkpt>
      <trkpt lat="47.41845" lon="-0.60875">
        <ele>19.8</ele>
        <time>2023-07-19T12:25:40Z</time>
      </trkpt>
      <trkpt lat="47.41817" lon="-0.60899">
        <ele>19.6</ele>
        <time>2023-07-19T12:25:49Z</time>
      </trkpt>
      <trkpt lat="47.41796" lon="-0.6092">
        <ele>19.6</ele>
        <time>2023-07-19T12:25:56Z</time>
      </trkpt>
      <trkpt lat="47.41793" lon="-0.60922">
        <ele>19.8</ele>
        <time>2023-07-19T12:25:57Z</time>
      </trkpt>
      <trkpt lat="47.41791" lon="-0.60925">
        <ele>19.8</ele>
        <time>2023-07-19T12:25:58Z</time>
      </trkpt>
      <trkpt lat="47.41789" lon="-0.60927">
        <ele>19.8</ele>
        <time>2023-07-19T12:25:59Z</time>
      </trkpt>
      <trkpt lat="47.41787" lon="-0.60929">
        <ele>19.8</ele>
        <time>2023-07-19T12:26:00Z</time>
      </trkpt>
      <trkpt lat="47.41785" lon="-0.60932">
        <ele>19.8</ele>
        <time>2023-07-19T12:26:01Z</time>
      </trkpt>
      <trkpt lat="47.41781" lon="-0.60934">
        <ele>19.8</ele>
        <time>2023-07-19T12:26:02Z</time>
      </trkpt>
      <trkpt lat="47.41773" lon="-0.60943">
        <ele>19.8</ele>
        <time>2023-07-19T12:26:05Z</time>
      </trkpt>
      <trkpt lat="47.41771" lon="-0.60945">
        <ele>19.8</ele>
        <time>2023-07-19T12:26:06Z</time>
      </trkpt>
      <trkpt lat="47.41769" lon="-0.60948">
        <ele>19.8</ele>
        <time>2023-07-19T12:26:07Z</time>
      </trkpt>
      <trkpt lat="47.41767" lon="-0.6095">
        <ele>19.8</ele>
        <time>2023-07-19T12:26:08Z</time>
      </trkpt>
      <trkpt lat="47.41765" lon="-0.60952">
        <ele>19.8</ele>
        <time>2023-07-19T12:26:09Z</time>
      </trkpt>
      <trkpt lat="47.41762" lon="-0.60955">
        <ele>19.8</ele>
        <time>2023-07-19T12:26:10Z</time>
      </trkpt>
      <trkpt lat="47.41755" lon="-0.60962">
        <ele>19.8</ele>
        <time>2023-07-19T12:26:13Z</time>
      </trkpt>
      <trkpt lat="47.4174" lon="-0.60973">
        <ele>20</ele>
        <time>2023-07-19T12:26:18Z</time>
      </trkpt>
      <trkpt lat="47.41735" lon="-0.60978">
        <ele>20.2</ele>
        <time>2023-07-19T12:26:20Z</time>
      </trkpt>
      <trkpt lat="47.41714" lon="-0.60996">
        <ele>20.2</ele>
        <time>2023-07-19T12:26:27Z</time>
      </trkpt>
      <trkpt lat="47.41705" lon="-0.61006">
        <ele>20.2</ele>
        <time>2023-07-19T12:26:30Z</time>
      </trkpt>
      <trkpt lat="47.41703" lon="-0.61008">
        <ele>20.4</ele>
        <time>2023-07-19T12:26:31Z</time>
      </trkpt>
      <trkpt lat="47.41701" lon="-0.61011">
        <ele>20.4</ele>
        <time>2023-07-19T12:26:32Z</time>
      </trkpt>
      <trkpt lat="47.41698" lon="-0.61013">
        <ele>20.4</ele>
        <time>2023-07-19T12:26:33Z</time>
      </trkpt>
      <trkpt lat="47.41695" lon="-0.61016">
        <ele>20.4</ele>
        <time>2023-07-19T12:26:34Z</time>
      </trkpt>
      <trkpt lat="47.41692" lon="-0.61019">
        <ele>20.2</ele>
        <time>2023-07-19T12:26:35Z</time>
      </trkpt>
      <trkpt lat="47.4167" lon="-0.61042">
        <ele>20</ele>
        <time>2023-07-19T12:26:42Z</time>
      </trkpt>
      <trkpt lat="47.41654" lon="-0.61067">
        <ele>20</ele>
        <time>2023-07-19T12:26:49Z</time>
      </trkpt>
      <trkpt lat="47.41633" lon="-0.61091">
        <ele>19.8</ele>
        <time>2023-07-19T12:26:56Z</time>
      </trkpt>
      <trkpt lat="47.41623" lon="-0.61102">
        <ele>19.8</ele>
        <time>2023-07-19T12:27:00Z</time>
      </trkpt>
      <trkpt lat="47.41615" lon="-0.6111">
        <ele>19.8</ele>
        <time>2023-07-19T12:27:03Z</time>
      </trkpt>
      <trkpt lat="47.41613" lon="-0.61113">
        <ele>19.8</ele>
        <time>2023-07-19T12:27:04Z</time>
      </trkpt>
      <trkpt lat="47.41611" lon="-0.61115">
        <ele>19.8</ele>
        <time>2023-07-19T12:27:05Z</time>
      </trkpt>
      <trkpt lat="47.41608" lon="-0.61118">
        <ele>19.6</ele>
        <time>2023-07-19T12:27:06Z</time>
      </trkpt>
      <trkpt lat="47.41602" lon="-0.61124">
        <ele>19.6</ele>
        <time>2023-07-19T12:27:08Z</time>
      </trkpt>
      <trkpt lat="47.41589" lon="-0.61139">
        <ele>19.6</ele>
        <time>2023-07-19T12:27:13Z</time>
      </trkpt>
      <trkpt lat="47.41586" lon="-0.61142">
        <ele>19.6</ele>
        <time>2023-07-19T12:27:14Z</time>
      </trkpt>
      <trkpt lat="47.41583" lon="-0.61145">
        <ele>19.6</ele>
        <time>2023-07-19T12:27:15Z</time>
      </trkpt>
      <trkpt lat="47.41567" lon="-0.61156">
        <ele>19.4</ele>
        <time>2023-07-19T12:27:20Z</time>
      </trkpt>
      <trkpt lat="47.41564" lon="-0.61158">
        <ele>19.4</ele>
        <time>2023-07-19T12:27:21Z</time>
      </trkpt>
      <trkpt lat="47.41557" lon="-0.61162">
        <ele>19.4</ele>
        <time>2023-07-19T12:27:23Z</time>
      </trkpt>
      <trkpt lat="47.41544" lon="-0.61169">
        <ele>19.4</ele>
        <time>2023-07-19T12:27:27Z</time>
      </trkpt>
      <trkpt lat="47.4154" lon="-0.61172">
        <ele>19.6</ele>
        <time>2023-07-19T12:27:28Z</time>
      </trkpt>
      <trkpt lat="47.41537" lon="-0.61175">
        <ele>19.6</ele>
        <time>2023-07-19T12:27:29Z</time>
      </trkpt>
      <trkpt lat="47.41519" lon="-0.61193">
        <ele>19.6</ele>
        <time>2023-07-19T12:27:35Z</time>
      </trkpt>
      <trkpt lat="47.41508" lon="-0.61203">
        <ele>19.6</ele>
        <time>2023-07-19T12:27:39Z</time>
      </trkpt>
      <trkpt lat="47.41505" lon="-0.61205">
        <ele>19.6</ele>
        <time>2023-07-19T12:27:40Z</time>
      </trkpt>
      <trkpt lat="47.41501" lon="-0.61207">
        <ele>19.6</ele>
        <time>2023-07-19T12:27:41Z</time>
      </trkpt>
      <trkpt lat="47.41497" lon="-0.61209">
        <ele>19.6</ele>
        <time>2023-07-19T12:27:42Z</time>
      </trkpt>
      <trkpt lat="47.41493" lon="-0.61212">
        <ele>19.6</ele>
        <time>2023-07-19T12:27:43Z</time>
      </trkpt>
      <trkpt lat="47.41485" lon="-0.61221">
        <ele>19.4</ele>
        <time>2023-07-19T12:27:46Z</time>
      </trkpt>
      <trkpt lat="47.41484" lon="-0.61222">
        <ele>19.4</ele>
        <time>2023-07-19T12:27:47Z</time>
      </trkpt>
      <trkpt lat="47.4148" lon="-0.61226">
        <ele>19.4</ele>
        <time>2023-07-19T12:27:48Z</time>
      </trkpt>
      <trkpt lat="47.41478" lon="-0.61228">
        <ele>19.4</ele>
        <time>2023-07-19T12:27:49Z</time>
      </trkpt>
      <trkpt lat="47.41463" lon="-0.61235">
        <ele>19.6</ele>
        <time>2023-07-19T12:27:53Z</time>
      </trkpt>
      <trkpt lat="47.41453" lon="-0.61247">
        <ele>19.6</ele>
        <time>2023-07-19T12:27:56Z</time>
      </trkpt>
      <trkpt lat="47.41451" lon="-0.6125">
        <ele>19.6</ele>
        <time>2023-07-19T12:27:57Z</time>
      </trkpt>
      <trkpt lat="47.41448" lon="-0.61252">
        <ele>19.6</ele>
        <time>2023-07-19T12:27:58Z</time>
      </trkpt>
      <trkpt lat="47.41445" lon="-0.61255">
        <ele>19.8</ele>
        <time>2023-07-19T12:27:59Z</time>
      </trkpt>
      <trkpt lat="47.41436" lon="-0.61265">
        <ele>19.8</ele>
        <time>2023-07-19T12:28:02Z</time>
      </trkpt>
      <trkpt lat="47.41434" lon="-0.61267">
        <ele>19.8</ele>
        <time>2023-07-19T12:28:03Z</time>
      </trkpt>
      <trkpt lat="47.41429" lon="-0.6127">
        <ele>19.8</ele>
        <time>2023-07-19T12:28:05Z</time>
      </trkpt>
      <trkpt lat="47.41413" lon="-0.61279">
        <ele>19.6</ele>
        <time>2023-07-19T12:28:10Z</time>
      </trkpt>
      <trkpt lat="47.41401" lon="-0.61286">
        <ele>19.6</ele>
        <time>2023-07-19T12:28:14Z</time>
      </trkpt>
      <trkpt lat="47.41398" lon="-0.61288">
        <ele>19.4</ele>
        <time>2023-07-19T12:28:15Z</time>
      </trkpt>
      <trkpt lat="47.41378" lon="-0.61296">
        <ele>19.4</ele>
        <time>2023-07-19T12:28:21Z</time>
      </trkpt>
      <trkpt lat="47.41375" lon="-0.61297">
        <ele>19.4</ele>
        <time>2023-07-19T12:28:22Z</time>
      </trkpt>
      <trkpt lat="47.41352" lon="-0.61305">
        <ele>19.4</ele>
        <time>2023-07-19T12:28:29Z</time>
      </trkpt>
      <trkpt lat="47.41328" lon="-0.61313">
        <ele>19.4</ele>
        <time>2023-07-19T12:28:36Z</time>
      </trkpt>
      <trkpt lat="47.4132" lon="-0.61318">
        <ele>19.4</ele>
        <time>2023-07-19T12:28:39Z</time>
      </trkpt>
      <trkpt lat="47.41295" lon="-0.61329">
        <ele>19.4</ele>
        <time>2023-07-19T12:28:46Z</time>
      </trkpt>
      <trkpt lat="47.4129" lon="-0.6133">
        <ele>19.4</ele>
        <time>2023-07-19T12:28:47Z</time>
      </trkpt>
      <trkpt lat="47.41278" lon="-0.61332">
        <ele>19.2</ele>
        <time>2023-07-19T12:28:50Z</time>
      </trkpt>
      <trkpt lat="47.41275" lon="-0.61333">
        <ele>19.2</ele>
        <time>2023-07-19T12:28:51Z</time>
      </trkpt>
      <trkpt lat="47.41271" lon="-0.61334">
        <ele>19</ele>
        <time>2023-07-19T12:28:52Z</time>
      </trkpt>
      <trkpt lat="47.41267" lon="-0.61334">
        <ele>19</ele>
        <time>2023-07-19T12:28:53Z</time>
      </trkpt>
      <trkpt lat="47.41248" lon="-0.61343">
        <ele>19</ele>
        <time>2023-07-19T12:28:58Z</time>
      </trkpt>
      <trkpt lat="47.41245" lon="-0.61345">
        <ele>19</ele>
        <time>2023-07-19T12:28:59Z</time>
      </trkpt>
      <trkpt lat="47.41227" lon="-0.61353">
        <ele>19</ele>
        <time>2023-07-19T12:29:04Z</time>
      </trkpt>
      <trkpt lat="47.41225" lon="-0.61355">
        <ele>19</ele>
        <time>2023-07-19T12:29:05Z</time>
      </trkpt>
      <trkpt lat="47.41222" lon="-0.61357">
        <ele>19</ele>
        <time>2023-07-19T12:29:06Z</time>
      </trkpt>
      <trkpt lat="47.41219" lon="-0.61358">
        <ele>19</ele>
        <time>2023-07-19T12:29:07Z</time>
      </trkpt>
      <trkpt lat="47.41217" lon="-0.61359">
        <ele>19</ele>
        <time>2023-07-19T12:29:08Z</time>
      </trkpt>
      <trkpt lat="47.41211" lon="-0.6136">
        <ele>19</ele>
        <time>2023-07-19T12:29:10Z</time>
      </trkpt>
      <trkpt lat="47.41209" lon="-0.61361">
        <ele>19.2</ele>
        <time>2023-07-19T12:29:11Z</time>
      </trkpt>
      <trkpt lat="47.41206" lon="-0.61361">
        <ele>19.2</ele>
        <time>2023-07-19T12:29:12Z</time>
      </trkpt>
      <trkpt lat="47.41203" lon="-0.61361">
        <ele>19.2</ele>
        <time>2023-07-19T12:29:13Z</time>
      </trkpt>
      <trkpt lat="47.412" lon="-0.61362">
        <ele>19.2</ele>
        <time>2023-07-19T12:29:14Z</time>
      </trkpt>
      <trkpt lat="47.41198" lon="-0.61363">
        <ele>19.2</ele>
        <time>2023-07-19T12:29:15Z</time>
      </trkpt>
      <trkpt lat="47.41195" lon="-0.61364">
        <ele>19.2</ele>
        <time>2023-07-19T12:29:16Z</time>
      </trkpt>
      <trkpt lat="47.41193" lon="-0.61366">
        <ele>19.2</ele>
        <time>2023-07-19T12:29:17Z</time>
      </trkpt>
      <trkpt lat="47.4119" lon="-0.61368">
        <ele>19.2</ele>
        <time>2023-07-19T12:29:18Z</time>
      </trkpt>
      <trkpt lat="47.41189" lon="-0.6137">
        <ele>19.2</ele>
        <time>2023-07-19T12:29:19Z</time>
      </trkpt>
      <trkpt lat="47.41188" lon="-0.61372">
        <ele>19.2</ele>
        <time>2023-07-19T12:29:20Z</time>
      </trkpt>
      <trkpt lat="47.41187" lon="-0.61373">
        <ele>19.2</ele>
        <time>2023-07-19T12:29:21Z</time>
      </trkpt>
      <trkpt lat="47.41187" lon="-0.61374">
        <ele>19</ele>
        <time>2023-07-19T12:29:22Z</time>
      </trkpt>
      <trkpt lat="47.41187" lon="-0.61374">
        <ele>19</ele>
        <time>2023-07-19T12:29:23Z</time>
      </trkpt>
      <trkpt lat="47.41187" lon="-0.61374">
        <ele>19</ele>
        <time>2023-07-19T12:29:24Z</time>
      </trkpt>
      <trkpt lat="47.41192" lon="-0.61365">
        <ele>20</ele>
        <time>2023-07-19T12:31:22Z</time>
      </trkpt>
      <trkpt lat="47.41194" lon="-0.61364">
        <ele>20</ele>
        <time>2023-07-19T12:31:23Z</time>
      </trkpt>
      <trkpt lat="47.41196" lon="-0.61362">
        <ele>20</ele>
        <time>2023-07-19T12:31:24Z</time>
      </trkpt>
      <trkpt lat="47.41205" lon="-0.61355">
        <ele>20.2</ele>
        <time>2023-07-19T12:31:28Z</time>
      </trkpt>
      <trkpt lat="47.4121" lon="-0.61349">
        <ele>20.2</ele>
        <time>2023-07-19T12:31:31Z</time>
      </trkpt>
      <trkpt lat="47.41219" lon="-0.61336">
        <ele>20.2</ele>
        <time>2023-07-19T12:31:37Z</time>
      </trkpt>
      <trkpt lat="47.4122" lon="-0.61333">
        <ele>20.2</ele>
        <time>2023-07-19T12:31:38Z</time>
      </trkpt>
      <trkpt lat="47.41222" lon="-0.61331">
        <ele>20.2</ele>
        <time>2023-07-19T12:31:39Z</time>
      </trkpt>
      <trkpt lat="47.41226" lon="-0.61327">
        <ele>20.4</ele>
        <time>2023-07-19T12:31:41Z</time>
      </trkpt>
      <trkpt lat="47.41227" lon="-0.61324">
        <ele>20.4</ele>
        <time>2023-07-19T12:31:42Z</time>
      </trkpt>
      <trkpt lat="47.41229" lon="-0.61321">
        <ele>20.4</ele>
        <time>2023-07-19T12:31:43Z</time>
      </trkpt>
      <trkpt lat="47.41231" lon="-0.61319">
        <ele>20.4</ele>
        <time>2023-07-19T12:31:44Z</time>
      </trkpt>
      <trkpt lat="47.41234" lon="-0.61316">
        <ele>20.4</ele>
        <time>2023-07-19T12:31:45Z</time>
      </trkpt>
      <trkpt lat="47.41245" lon="-0.613">
        <ele>21</ele>
        <time>2023-07-19T12:31:50Z</time>
      </trkpt>
      <trkpt lat="47.41247" lon="-0.61297">
        <ele>21</ele>
        <time>2023-07-19T12:31:51Z</time>
      </trkpt>
      <trkpt lat="47.41263" lon="-0.6127">
        <ele>21.2</ele>
        <time>2023-07-19T12:32:00Z</time>
      </trkpt>
      <trkpt lat="47.4128" lon="-0.61237">
        <ele>21.2</ele>
        <time>2023-07-19T12:32:09Z</time>
      </trkpt>
      <trkpt lat="47.41299" lon="-0.61204">
        <ele>21.4</ele>
        <time>2023-07-19T12:32:18Z</time>
      </trkpt>
      <trkpt lat="47.41317" lon="-0.61172">
        <ele>21.4</ele>
        <time>2023-07-19T12:32:27Z</time>
      </trkpt>
      <trkpt lat="47.41319" lon="-0.61168">
        <ele>21.4</ele>
        <time>2023-07-19T12:32:28Z</time>
      </trkpt>
      <trkpt lat="47.4132" lon="-0.61164">
        <ele>21.2</ele>
        <time>2023-07-19T12:32:29Z</time>
      </trkpt>
      <trkpt lat="47.41322" lon="-0.61161">
        <ele>21.2</ele>
        <time>2023-07-19T12:32:30Z</time>
      </trkpt>
      <trkpt lat="47.41324" lon="-0.61158">
        <ele>21.2</ele>
        <time>2023-07-19T12:32:31Z</time>
      </trkpt>
      <trkpt lat="47.41326" lon="-0.61154">
        <ele>21.2</ele>
        <time>2023-07-19T12:32:32Z</time>
      </trkpt>
      <trkpt lat="47.41328" lon="-0.61151">
        <ele>21.2</ele>
        <time>2023-07-19T12:32:33Z</time>
      </trkpt>
      <trkpt lat="47.41343" lon="-0.61122">
        <ele>21</ele>
        <time>2023-07-19T12:32:41Z</time>
      </trkpt>
      <trkpt lat="47.41365" lon="-0.61081">
        <ele>21.2</ele>
        <time>2023-07-19T12:32:51Z</time>
      </trkpt>
      <trkpt lat="47.41386" lon="-0.61038">
        <ele>21.4</ele>
        <time>2023-07-19T12:33:00Z</time>
      </trkpt>
      <trkpt lat="47.41402" lon="-0.60998">
        <ele>21.4</ele>
        <time>2023-07-19T12:33:08Z</time>
      </trkpt>
      <trkpt lat="47.41419" lon="-0.60966">
        <ele>21.4</ele>
        <time>2023-07-19T12:33:15Z</time>
      </trkpt>
      <trkpt lat="47.41421" lon="-0.60962">
        <ele>21.4</ele>
        <time>2023-07-19T12:33:16Z</time>
      </trkpt>
      <trkpt lat="47.41423" lon="-0.60958">
        <ele>21.4</ele>
        <time>2023-07-19T12:33:17Z</time>
      </trkpt>
      <trkpt lat="47.41426" lon="-0.60955">
        <ele>21.2</ele>
        <time>2023-07-19T12:33:18Z</time>
      </trkpt>
      <trkpt lat="47.41428" lon="-0.60952">
        <ele>21.2</ele>
        <time>2023-07-19T12:33:19Z</time>
      </trkpt>
      <trkpt lat="47.41431" lon="-0.60949">
        <ele>21.2</ele>
        <time>2023-07-19T12:33:20Z</time>
      </trkpt>
      <trkpt lat="47.41434" lon="-0.60945">
        <ele>21</ele>
        <time>2023-07-19T12:33:21Z</time>
      </trkpt>
      <trkpt lat="47.41437" lon="-0.60942">
        <ele>21</ele>
        <time>2023-07-19T12:33:22Z</time>
      </trkpt>
      <trkpt lat="47.4144" lon="-0.60938">
        <ele>21</ele>
        <time>2023-07-19T12:33:23Z</time>
      </trkpt>
      <trkpt lat="47.41449" lon="-0.6093">
        <ele>20.8</ele>
        <time>2023-07-19T12:33:26Z</time>
      </trkpt>
      <trkpt lat="47.41452" lon="-0.60928">
        <ele>20.8</ele>
        <time>2023-07-19T12:33:27Z</time>
      </trkpt>
      <trkpt lat="47.41455" lon="-0.60927">
        <ele>20.8</ele>
        <time>2023-07-19T12:33:28Z</time>
      </trkpt>
      <trkpt lat="47.41458" lon="-0.60926">
        <ele>20.8</ele>
        <time>2023-07-19T12:33:29Z</time>
      </trkpt>
      <trkpt lat="47.41461" lon="-0.60926">
        <ele>20.8</ele>
        <time>2023-07-19T12:33:30Z</time>
      </trkpt>
      <trkpt lat="47.41463" lon="-0.60926">
        <ele>20.8</ele>
        <time>2023-07-19T12:33:31Z</time>
      </trkpt>
      <trkpt lat="47.41466" lon="-0.60926">
        <ele>20.8</ele>
        <time>2023-07-19T12:33:32Z</time>
      </trkpt>
      <trkpt lat="47.41468" lon="-0.60926">
        <ele>20.8</ele>
        <time>2023-07-19T12:33:33Z</time>
      </trkpt>
      <trkpt lat="47.41469" lon="-0.60926">
        <ele>20.8</ele>
        <time>2023-07-19T12:33:34Z</time>
      </trkpt>
      <trkpt lat="47.4147" lon="-0.60925">
        <ele>20.8</ele>
        <time>2023-07-19T12:33:35Z</time>
      </trkpt>
      <trkpt lat="47.41472" lon="-0.60924">
        <ele>20.8</ele>
        <time>2023-07-19T12:33:36Z</time>
      </trkpt>
      <trkpt lat="47.41474" lon="-0.60923">
        <ele>20.8</ele>
        <time>2023-07-19T12:33:37Z</time>
      </trkpt>
      <trkpt lat="47.41477" lon="-0.6092">
        <ele>20.8</ele>
        <time>2023-07-19T12:33:38Z</time>
      </trkpt>
      <trkpt lat="47.41479" lon="-0.60915">
        <ele>20.8</ele>
        <time>2023-07-19T12:33:39Z</time>
      </trkpt>
      <trkpt lat="47.41481" lon="-0.60911">
        <ele>20.8</ele>
        <time>2023-07-19T12:33:40Z</time>
      </trkpt>
      <trkpt lat="47.41483" lon="-0.60906">
        <ele>20.8</ele>
        <time>2023-07-19T12:33:41Z</time>
      </trkpt>
      <trkpt lat="47.41485" lon="-0.60901">
        <ele>20.8</ele>
        <time>2023-07-19T12:33:42Z</time>
      </trkpt>
      <trkpt lat="47.41487" lon="-0.60896">
        <ele>20.8</ele>
        <time>2023-07-19T12:33:43Z</time>
      </trkpt>
      <trkpt lat="47.41492" lon="-0.60886">
        <ele>20.8</ele>
        <time>2023-07-19T12:33:45Z</time>
      </trkpt>
      <trkpt lat="47.41494" lon="-0.60881">
        <ele>20.6</ele>
        <time>2023-07-19T12:33:46Z</time>
      </trkpt>
      <trkpt lat="47.41496" lon="-0.60877">
        <ele>20.6</ele>
        <time>2023-07-19T12:33:47Z</time>
      </trkpt>
      <trkpt lat="47.41502" lon="-0.60856">
        <ele>20.4</ele>
        <time>2023-07-19T12:33:51Z</time>
      </trkpt>
      <trkpt lat="47.41512" lon="-0.60826">
        <ele>20.4</ele>
        <time>2023-07-19T12:33:57Z</time>
      </trkpt>
      <trkpt lat="47.41516" lon="-0.6082">
        <ele>20.4</ele>
        <time>2023-07-19T12:33:59Z</time>
      </trkpt>
      <trkpt lat="47.41517" lon="-0.60817">
        <ele>20.4</ele>
        <time>2023-07-19T12:34:00Z</time>
      </trkpt>
      <trkpt lat="47.41519" lon="-0.60814">
        <ele>20.6</ele>
        <time>2023-07-19T12:34:01Z</time>
      </trkpt>
      <trkpt lat="47.4152" lon="-0.60811">
        <ele>20.6</ele>
        <time>2023-07-19T12:34:02Z</time>
      </trkpt>
      <trkpt lat="47.41521" lon="-0.60808">
        <ele>20.6</ele>
        <time>2023-07-19T12:34:03Z</time>
      </trkpt>
      <trkpt lat="47.41523" lon="-0.60805">
        <ele>20.6</ele>
        <time>2023-07-19T12:34:04Z</time>
      </trkpt>
      <trkpt lat="47.41524" lon="-0.608">
        <ele>20.6</ele>
        <time>2023-07-19T12:34:06Z</time>
      </trkpt>
      <trkpt lat="47.41524" lon="-0.60798">
        <ele>20.6</ele>
        <time>2023-07-19T12:34:07Z</time>
      </trkpt>
      <trkpt lat="47.41524" lon="-0.60795">
        <ele>20.6</ele>
        <time>2023-07-19T12:34:08Z</time>
      </trkpt>
      <trkpt lat="47.41525" lon="-0.60792">
        <ele>20.8</ele>
        <time>2023-07-19T12:34:09Z</time>
      </trkpt>
      <trkpt lat="47.41529" lon="-0.60778">
        <ele>21</ele>
        <time>2023-07-19T12:34:12Z</time>
      </trkpt>
      <trkpt lat="47.41535" lon="-0.60758">
        <ele>21.2</ele>
        <time>2023-07-19T12:34:16Z</time>
      </trkpt>
      <trkpt lat="47.41536" lon="-0.60754">
        <ele>21.2</ele>
        <time>2023-07-19T12:34:17Z</time>
      </trkpt>
      <trkpt lat="47.41538" lon="-0.6075">
        <ele>21.2</ele>
        <time>2023-07-19T12:34:18Z</time>
      </trkpt>
      <trkpt lat="47.41539" lon="-0.60746">
        <ele>21.2</ele>
        <time>2023-07-19T12:34:19Z</time>
      </trkpt>
      <trkpt lat="47.41541" lon="-0.60742">
        <ele>21.2</ele>
        <time>2023-07-19T12:34:20Z</time>
      </trkpt>
      <trkpt lat="47.41543" lon="-0.60733">
        <ele>21.2</ele>
        <time>2023-07-19T12:34:22Z</time>
      </trkpt>
      <trkpt lat="47.41544" lon="-0.60729">
        <ele>21.2</ele>
        <time>2023-07-19T12:34:23Z</time>
      </trkpt>
      <trkpt lat="47.41545" lon="-0.60726">
        <ele>21.2</ele>
        <time>2023-07-19T12:34:24Z</time>
      </trkpt>
      <trkpt lat="47.41547" lon="-0.60722">
        <ele>21.2</ele>
        <time>2023-07-19T12:34:25Z</time>
      </trkpt>
      <trkpt lat="47.41548" lon="-0.60719">
        <ele>21.2</ele>
        <time>2023-07-19T12:34:26Z</time>
      </trkpt>
      <trkpt lat="47.41549" lon="-0.60714">
        <ele>21.2</ele>
        <time>2023-07-19T12:34:27Z</time>
      </trkpt>
      <trkpt lat="47.4155" lon="-0.60709">
        <ele>21.2</ele>
        <time>2023-07-19T12:34:28Z</time>
      </trkpt>
      <trkpt lat="47.41551" lon="-0.60705">
        <ele>21.2</ele>
        <time>2023-07-19T12:34:29Z</time>
      </trkpt>
      <trkpt lat="47.41553" lon="-0.60701">
        <ele>21</ele>
        <time>2023-07-19T12:34:30Z</time>
      </trkpt>
      <trkpt lat="47.41554" lon="-0.60697">
        <ele>21</ele>
        <time>2023-07-19T12:34:31Z</time>
      </trkpt>
      <trkpt lat="47.41558" lon="-0.60678">
        <ele>21.2</ele>
        <time>2023-07-19T12:34:35Z</time>
      </trkpt>
      <trkpt lat="47.41564" lon="-0.60657">
        <ele>21.2</ele>
        <time>2023-07-19T12:34:40Z</time>
      </trkpt>
      <trkpt lat="47.41567" lon="-0.60652">
        <ele>21.2</ele>
        <time>2023-07-19T12:34:41Z</time>
      </trkpt>
      <trkpt lat="47.41569" lon="-0.60648">
        <ele>21.2</ele>
        <time>2023-07-19T12:34:42Z</time>
      </trkpt>
      <trkpt lat="47.4158" lon="-0.60629">
        <ele>21</ele>
        <time>2023-07-19T12:34:48Z</time>
      </trkpt>
      <trkpt lat="47.41582" lon="-0.60625">
        <ele>21</ele>
        <time>2023-07-19T12:34:49Z</time>
      </trkpt>
      <trkpt lat="47.41586" lon="-0.60618">
        <ele>21</ele>
        <time>2023-07-19T12:34:51Z</time>
      </trkpt>
      <trkpt lat="47.41587" lon="-0.60614">
        <ele>21.2</ele>
        <time>2023-07-19T12:34:52Z</time>
      </trkpt>
      <trkpt lat="47.41589" lon="-0.60609">
        <ele>21.2</ele>
        <time>2023-07-19T12:34:53Z</time>
      </trkpt>
      <trkpt lat="47.41591" lon="-0.60604">
        <ele>21.2</ele>
        <time>2023-07-19T12:34:54Z</time>
      </trkpt>
      <trkpt lat="47.41601" lon="-0.60578">
        <ele>21</ele>
        <time>2023-07-19T12:35:00Z</time>
      </trkpt>
      <trkpt lat="47.41608" lon="-0.60552">
        <ele>21</ele>
        <time>2023-07-19T12:35:05Z</time>
      </trkpt>
      <trkpt lat="47.41615" lon="-0.60512">
        <ele>21</ele>
        <time>2023-07-19T12:35:11Z</time>
      </trkpt>
      <trkpt lat="47.41621" lon="-0.60473">
        <ele>21</ele>
        <time>2023-07-19T12:35:17Z</time>
      </trkpt>
      <trkpt lat="47.41624" lon="-0.60462">
        <ele>21</ele>
        <time>2023-07-19T12:35:19Z</time>
      </trkpt>
      <trkpt lat="47.41624" lon="-0.60456">
        <ele>21</ele>
        <time>2023-07-19T12:35:20Z</time>
      </trkpt>
      <trkpt lat="47.41626" lon="-0.60451">
        <ele>21</ele>
        <time>2023-07-19T12:35:21Z</time>
      </trkpt>
      <trkpt lat="47.41627" lon="-0.60441">
        <ele>20.8</ele>
        <time>2023-07-19T12:35:23Z</time>
      </trkpt>
      <trkpt lat="47.41627" lon="-0.60435">
        <ele>20.8</ele>
        <time>2023-07-19T12:35:24Z</time>
      </trkpt>
      <trkpt lat="47.41627" lon="-0.6043">
        <ele>20.8</ele>
        <time>2023-07-19T12:35:25Z</time>
      </trkpt>
      <trkpt lat="47.41627" lon="-0.60424">
        <ele>20.8</ele>
        <time>2023-07-19T12:35:26Z</time>
      </trkpt>
      <trkpt lat="47.41627" lon="-0.60419">
        <ele>20.8</ele>
        <time>2023-07-19T12:35:27Z</time>
      </trkpt>
      <trkpt lat="47.41627" lon="-0.60413">
        <ele>20.8</ele>
        <time>2023-07-19T12:35:28Z</time>
      </trkpt>
      <trkpt lat="47.41628" lon="-0.60385">
        <ele>20.8</ele>
        <time>2023-07-19T12:35:33Z</time>
      </trkpt>
      <trkpt lat="47.41628" lon="-0.6038">
        <ele>20.8</ele>
        <time>2023-07-19T12:35:34Z</time>
      </trkpt>
      <trkpt lat="47.41629" lon="-0.60361">
        <ele>20.8</ele>
        <time>2023-07-19T12:35:38Z</time>
      </trkpt>
      <trkpt lat="47.41629" lon="-0.60356">
        <ele>20.8</ele>
        <time>2023-07-19T12:35:39Z</time>
      </trkpt>
      <trkpt lat="47.41629" lon="-0.60351">
        <ele>20.8</ele>
        <time>2023-07-19T12:35:40Z</time>
      </trkpt>
      <trkpt lat="47.4163" lon="-0.60347">
        <ele>20.8</ele>
        <time>2023-07-19T12:35:41Z</time>
      </trkpt>
      <trkpt lat="47.4163" lon="-0.60342">
        <ele>20.8</ele>
        <time>2023-07-19T12:35:42Z</time>
      </trkpt>
      <trkpt lat="47.4163" lon="-0.60337">
        <ele>20.8</ele>
        <time>2023-07-19T12:35:43Z</time>
      </trkpt>
      <trkpt lat="47.4163" lon="-0.60332">
        <ele>20.8</ele>
        <time>2023-07-19T12:35:44Z</time>
      </trkpt>
      <trkpt lat="47.4163" lon="-0.60326">
        <ele>20.8</ele>
        <time>2023-07-19T12:35:45Z</time>
      </trkpt>
      <trkpt lat="47.4163" lon="-0.6031">
        <ele>20.8</ele>
        <time>2023-07-19T12:35:48Z</time>
      </trkpt>
      <trkpt lat="47.4163" lon="-0.60264">
        <ele>20.6</ele>
        <time>2023-07-19T12:35:56Z</time>
      </trkpt>
      <trkpt lat="47.4163" lon="-0.60226">
        <ele>20.8</ele>
        <time>2023-07-19T12:36:03Z</time>
      </trkpt>
      <trkpt lat="47.4163" lon="-0.60221">
        <ele>20.8</ele>
        <time>2023-07-19T12:36:04Z</time>
      </trkpt>
      <trkpt lat="47.41631" lon="-0.60185">
        <ele>21</ele>
        <time>2023-07-19T12:36:10Z</time>
      </trkpt>
      <trkpt lat="47.41632" lon="-0.60179">
        <ele>21</ele>
        <time>2023-07-19T12:36:11Z</time>
      </trkpt>
      <trkpt lat="47.41632" lon="-0.60174">
        <ele>21</ele>
        <time>2023-07-19T12:36:12Z</time>
      </trkpt>
      <trkpt lat="47.4164" lon="-0.60134">
        <ele>21.2</ele>
        <time>2023-07-19T12:36:19Z</time>
      </trkpt>
      <trkpt lat="47.41647" lon="-0.601">
        <ele>21.2</ele>
        <time>2023-07-19T12:36:25Z</time>
      </trkpt>
      <trkpt lat="47.41648" lon="-0.60095">
        <ele>21.2</ele>
        <time>2023-07-19T12:36:26Z</time>
      </trkpt>
      <trkpt lat="47.41649" lon="-0.6009">
        <ele>21.2</ele>
        <time>2023-07-19T12:36:27Z</time>
      </trkpt>
      <trkpt lat="47.41651" lon="-0.60085">
        <ele>21.2</ele>
        <time>2023-07-19T12:36:28Z</time>
      </trkpt>
      <trkpt lat="47.41652" lon="-0.60078">
        <ele>21.2</ele>
        <time>2023-07-19T12:36:29Z</time>
      </trkpt>
      <trkpt lat="47.41656" lon="-0.60062">
        <ele>21.2</ele>
        <time>2023-07-19T12:36:32Z</time>
      </trkpt>
      <trkpt lat="47.41661" lon="-0.60034">
        <ele>21.6</ele>
        <time>2023-07-19T12:36:37Z</time>
      </trkpt>
      <trkpt lat="47.41664" lon="-0.60011">
        <ele>21.6</ele>
        <time>2023-07-19T12:36:41Z</time>
      </trkpt>
      <trkpt lat="47.41665" lon="-0.59985">
        <ele>21.6</ele>
        <time>2023-07-19T12:36:45Z</time>
      </trkpt>
      <trkpt lat="47.41664" lon="-0.59968">
        <ele>21.8</ele>
        <time>2023-07-19T12:36:48Z</time>
      </trkpt>
      <trkpt lat="47.41665" lon="-0.59947">
        <ele>21.8</ele>
        <time>2023-07-19T12:36:52Z</time>
      </trkpt>
      <trkpt lat="47.41665" lon="-0.59942">
        <ele>22</ele>
        <time>2023-07-19T12:36:53Z</time>
      </trkpt>
      <trkpt lat="47.41665" lon="-0.59939">
        <ele>22</ele>
        <time>2023-07-19T12:36:54Z</time>
      </trkpt>
      <trkpt lat="47.41665" lon="-0.59936">
        <ele>22</ele>
        <time>2023-07-19T12:36:55Z</time>
      </trkpt>
      <trkpt lat="47.41665" lon="-0.59933">
        <ele>22</ele>
        <time>2023-07-19T12:36:56Z</time>
      </trkpt>
      <trkpt lat="47.41665" lon="-0.5993">
        <ele>22</ele>
        <time>2023-07-19T12:36:57Z</time>
      </trkpt>
      <trkpt lat="47.41664" lon="-0.59927">
        <ele>22</ele>
        <time>2023-07-19T12:36:58Z</time>
      </trkpt>
      <trkpt lat="47.41664" lon="-0.59925">
        <ele>22</ele>
        <time>2023-07-19T12:36:59Z</time>
      </trkpt>
      <trkpt lat="47.41664" lon="-0.59922">
        <ele>22</ele>
        <time>2023-07-19T12:37:00Z</time>
      </trkpt>
      <trkpt lat="47.41664" lon="-0.59919">
        <ele>22.2</ele>
        <time>2023-07-19T12:37:01Z</time>
      </trkpt>
      <trkpt lat="47.41664" lon="-0.59917">
        <ele>22.2</ele>
        <time>2023-07-19T12:37:02Z</time>
      </trkpt>
      <trkpt lat="47.41662" lon="-0.59916">
        <ele>22.2</ele>
        <time>2023-07-19T12:37:03Z</time>
      </trkpt>
      <trkpt lat="47.41661" lon="-0.59916">
        <ele>22.2</ele>
        <time>2023-07-19T12:37:04Z</time>
      </trkpt>
      <trkpt lat="47.41661" lon="-0.59916">
        <ele>22.2</ele>
        <time>2023-07-19T12:37:05Z</time>
      </trkpt>
      <trkpt lat="47.41661" lon="-0.59916">
        <ele>22.4</ele>
        <time>2023-07-19T12:37:06Z</time>
      </trkpt>
      <trkpt lat="47.41662" lon="-0.59909">
        <ele>22.4</ele>
        <time>2023-07-19T12:38:04Z</time>
      </trkpt>
      <trkpt lat="47.41663" lon="-0.59902">
        <ele>22.4</ele>
        <time>2023-07-19T12:38:06Z</time>
      </trkpt>
      <trkpt lat="47.41662" lon="-0.59893">
        <ele>22.4</ele>
        <time>2023-07-19T12:38:08Z</time>
      </trkpt>
      <trkpt lat="47.41661" lon="-0.59889">
        <ele>22.4</ele>
        <time>2023-07-19T12:38:09Z</time>
      </trkpt>
      <trkpt lat="47.4166" lon="-0.59885">
        <ele>22.4</ele>
        <time>2023-07-19T12:38:10Z</time>
      </trkpt>
      <trkpt lat="47.41659" lon="-0.5988">
        <ele>22.4</ele>
        <time>2023-07-19T12:38:11Z</time>
      </trkpt>
      <trkpt lat="47.41658" lon="-0.59875">
        <ele>22.4</ele>
        <time>2023-07-19T12:38:12Z</time>
      </trkpt>
      <trkpt lat="47.41656" lon="-0.59857">
        <ele>22</ele>
        <time>2023-07-19T12:38:16Z</time>
      </trkpt>
      <trkpt lat="47.41654" lon="-0.59815">
        <ele>21.6</ele>
        <time>2023-07-19T12:38:25Z</time>
      </trkpt>
      <trkpt lat="47.41654" lon="-0.5981">
        <ele>21.6</ele>
        <time>2023-07-19T12:38:26Z</time>
      </trkpt>
      <trkpt lat="47.41652" lon="-0.59772">
        <ele>21.6</ele>
        <time>2023-07-19T12:38:34Z</time>
      </trkpt>
      <trkpt lat="47.4165" lon="-0.59734">
        <ele>21.6</ele>
        <time>2023-07-19T12:38:42Z</time>
      </trkpt>
      <trkpt lat="47.41651" lon="-0.59701">
        <ele>21.4</ele>
        <time>2023-07-19T12:38:48Z</time>
      </trkpt>
      <trkpt lat="47.41655" lon="-0.5969">
        <ele>21.4</ele>
        <time>2023-07-19T12:38:50Z</time>
      </trkpt>
      <trkpt lat="47.41658" lon="-0.59686">
        <ele>21.4</ele>
        <time>2023-07-19T12:38:51Z</time>
      </trkpt>
      <trkpt lat="47.4166" lon="-0.59682">
        <ele>21.4</ele>
        <time>2023-07-19T12:38:52Z</time>
      </trkpt>
      <trkpt lat="47.41663" lon="-0.59679">
        <ele>21.4</ele>
        <time>2023-07-19T12:38:53Z</time>
      </trkpt>
      <trkpt lat="47.41671" lon="-0.59671">
        <ele>21.2</ele>
        <time>2023-07-19T12:38:56Z</time>
      </trkpt>
      <trkpt lat="47.41674" lon="-0.5967">
        <ele>21</ele>
        <time>2023-07-19T12:38:57Z</time>
      </trkpt>
      <trkpt lat="47.41676" lon="-0.59668">
        <ele>21</ele>
        <time>2023-07-19T12:38:58Z</time>
      </trkpt>
      <trkpt lat="47.41678" lon="-0.59667">
        <ele>21</ele>
        <time>2023-07-19T12:38:59Z</time>
      </trkpt>
      <trkpt lat="47.41681" lon="-0.59664">
        <ele>21</ele>
        <time>2023-07-19T12:39:00Z</time>
      </trkpt>
      <trkpt lat="47.41681" lon="-0.59662">
        <ele>21</ele>
        <time>2023-07-19T12:39:01Z</time>
      </trkpt>
      <trkpt lat="47.41681" lon="-0.59661">
        <ele>21</ele>
        <time>2023-07-19T12:39:02Z</time>
      </trkpt>
      <trkpt lat="47.41679" lon="-0.5966">
        <ele>21</ele>
        <time>2023-07-19T12:39:03Z</time>
      </trkpt>
      <trkpt lat="47.41677" lon="-0.59659">
        <ele>21</ele>
        <time>2023-07-19T12:39:04Z</time>
      </trkpt>
      <trkpt lat="47.41675" lon="-0.5966">
        <ele>21</ele>
        <time>2023-07-19T12:39:05Z</time>
      </trkpt>
      <trkpt lat="47.41669" lon="-0.59661">
        <ele>21</ele>
        <time>2023-07-19T12:39:07Z</time>
      </trkpt>
      <trkpt lat="47.41653" lon="-0.59666">
        <ele>21</ele>
        <time>2023-07-19T12:39:13Z</time>
      </trkpt>
      <trkpt lat="47.41649" lon="-0.59663">
        <ele>20.8</ele>
        <time>2023-07-19T12:39:15Z</time>
      </trkpt>
      <trkpt lat="47.41648" lon="-0.5966">
        <ele>20.4</ele>
        <time>2023-07-19T12:39:16Z</time>
      </trkpt>
      <trkpt lat="47.41648" lon="-0.59657">
        <ele>20.2</ele>
        <time>2023-07-19T12:39:17Z</time>
      </trkpt>
      <trkpt lat="47.41648" lon="-0.59651">
        <ele>19.6</ele>
        <time>2023-07-19T12:39:19Z</time>
      </trkpt>
      <trkpt lat="47.41648" lon="-0.59648">
        <ele>19.4</ele>
        <time>2023-07-19T12:39:20Z</time>
      </trkpt>
      <trkpt lat="47.41648" lon="-0.59645">
        <ele>19.4</ele>
        <time>2023-07-19T12:39:21Z</time>
      </trkpt>
      <trkpt lat="47.41648" lon="-0.59642">
        <ele>19.4</ele>
        <time>2023-07-19T12:39:22Z</time>
      </trkpt>
      <trkpt lat="47.41648" lon="-0.5964">
        <ele>19.6</ele>
        <time>2023-07-19T12:39:23Z</time>
      </trkpt>
      <trkpt lat="47.41648" lon="-0.59637">
        <ele>19.4</ele>
        <time>2023-07-19T12:39:24Z</time>
      </trkpt>
      <trkpt lat="47.41648" lon="-0.59635">
        <ele>19.6</ele>
        <time>2023-07-19T12:39:25Z</time>
      </trkpt>
      <trkpt lat="47.41649" lon="-0.59633">
        <ele>19.6</ele>
        <time>2023-07-19T12:39:26Z</time>
      </trkpt>
      <trkpt lat="47.41649" lon="-0.59631">
        <ele>19.6</ele>
        <time>2023-07-19T12:39:27Z</time>
      </trkpt>
      <trkpt lat="47.41649" lon="-0.59628">
        <ele>19.6</ele>
        <time>2023-07-19T12:39:28Z</time>
      </trkpt>
      <trkpt lat="47.41649" lon="-0.59626">
        <ele>19.6</ele>
        <time>2023-07-19T12:39:29Z</time>
      </trkpt>
      <trkpt lat="47.41649" lon="-0.59623">
        <ele>19.8</ele>
        <time>2023-07-19T12:39:30Z</time>
      </trkpt>
      <trkpt lat="47.41649" lon="-0.5962">
        <ele>20.2</ele>
        <time>2023-07-19T12:39:31Z</time>
      </trkpt>
      <trkpt lat="47.41649" lon="-0.59616">
        <ele>20.4</ele>
        <time>2023-07-19T12:39:32Z</time>
      </trkpt>
      <trkpt lat="47.4165" lon="-0.59607">
        <ele>20.6</ele>
        <time>2023-07-19T12:39:35Z</time>
      </trkpt>
      <trkpt lat="47.41649" lon="-0.59599">
        <ele>20.8</ele>
        <time>2023-07-19T12:39:38Z</time>
      </trkpt>
      <trkpt lat="47.4165" lon="-0.5958">
        <ele>21.2</ele>
        <time>2023-07-19T12:39:44Z</time>
      </trkpt>
      <trkpt lat="47.4165" lon="-0.5957">
        <ele>21.4</ele>
        <time>2023-07-19T12:39:47Z</time>
      </trkpt>
      <trkpt lat="47.4165" lon="-0.5956">
        <ele>21.4</ele>
        <time>2023-07-19T12:39:50Z</time>
      </trkpt>
      <trkpt lat="47.41652" lon="-0.59528">
        <ele>21.6</ele>
        <time>2023-07-19T12:39:58Z</time>
      </trkpt>
      <trkpt lat="47.41654" lon="-0.59505">
        <ele>21.6</ele>
        <time>2023-07-19T12:40:04Z</time>
      </trkpt>
      <trkpt lat="47.41653" lon="-0.59498">
        <ele>21.6</ele>
        <time>2023-07-19T12:40:06Z</time>
      </trkpt>
      <trkpt lat="47.41653" lon="-0.59494">
        <ele>21.4</ele>
        <time>2023-07-19T12:40:07Z</time>
      </trkpt>
      <trkpt lat="47.41653" lon="-0.5949">
        <ele>21.4</ele>
        <time>2023-07-19T12:40:08Z</time>
      </trkpt>
      <trkpt lat="47.41654" lon="-0.59486">
        <ele>21.4</ele>
        <time>2023-07-19T12:40:09Z</time>
      </trkpt>
      <trkpt lat="47.41654" lon="-0.59483">
        <ele>21.4</ele>
        <time>2023-07-19T12:40:10Z</time>
      </trkpt>
      <trkpt lat="47.41654" lon="-0.5948">
        <ele>21.4</ele>
        <time>2023-07-19T12:40:11Z</time>
      </trkpt>
      <trkpt lat="47.41654" lon="-0.59476">
        <ele>21.4</ele>
        <time>2023-07-19T12:40:12Z</time>
      </trkpt>
      <trkpt lat="47.41654" lon="-0.59464">
        <ele>21.4</ele>
        <time>2023-07-19T12:40:16Z</time>
      </trkpt>
      <trkpt lat="47.41654" lon="-0.5946">
        <ele>21.4</ele>
        <time>2023-07-19T12:40:17Z</time>
      </trkpt>
      <trkpt lat="47.41654" lon="-0.59457">
        <ele>21.4</ele>
        <time>2023-07-19T12:40:18Z</time>
      </trkpt>
      <trkpt lat="47.41654" lon="-0.59453">
        <ele>21.6</ele>
        <time>2023-07-19T12:40:19Z</time>
      </trkpt>
      <trkpt lat="47.41654" lon="-0.59446">
        <ele>21.6</ele>
        <time>2023-07-19T12:40:21Z</time>
      </trkpt>
      <trkpt lat="47.41655" lon="-0.59435">
        <ele>21.8</ele>
        <time>2023-07-19T12:40:24Z</time>
      </trkpt>
      <trkpt lat="47.41656" lon="-0.59432">
        <ele>21.8</ele>
        <time>2023-07-19T12:40:25Z</time>
      </trkpt>
      <trkpt lat="47.41658" lon="-0.59425">
        <ele>22</ele>
        <time>2023-07-19T12:40:27Z</time>
      </trkpt>
      <trkpt lat="47.41659" lon="-0.59418">
        <ele>22</ele>
        <time>2023-07-19T12:40:29Z</time>
      </trkpt>
      <trkpt lat="47.4166" lon="-0.59414">
        <ele>22</ele>
        <time>2023-07-19T12:40:30Z</time>
      </trkpt>
      <trkpt lat="47.4166" lon="-0.59411">
        <ele>22</ele>
        <time>2023-07-19T12:40:31Z</time>
      </trkpt>
      <trkpt lat="47.41659" lon="-0.59408">
        <ele>22</ele>
        <time>2023-07-19T12:40:32Z</time>
      </trkpt>
      <trkpt lat="47.41659" lon="-0.59406">
        <ele>22</ele>
        <time>2023-07-19T12:40:33Z</time>
      </trkpt>
      <trkpt lat="47.41659" lon="-0.59403">
        <ele>22</ele>
        <time>2023-07-19T12:40:34Z</time>
      </trkpt>
      <trkpt lat="47.4166" lon="-0.594">
        <ele>22</ele>
        <time>2023-07-19T12:40:35Z</time>
      </trkpt>
      <trkpt lat="47.4166" lon="-0.59398">
        <ele>22</ele>
        <time>2023-07-19T12:40:36Z</time>
      </trkpt>
      <trkpt lat="47.41661" lon="-0.59398">
        <ele>22</ele>
        <time>2023-07-19T12:40:37Z</time>
      </trkpt>
      <trkpt lat="47.41661" lon="-0.59398">
        <ele>22</ele>
        <time>2023-07-19T12:40:38Z</time>
      </trkpt>
      <trkpt lat="47.41661" lon="-0.59397">
        <ele>22</ele>
        <time>2023-07-19T12:40:39Z</time>
      </trkpt>
      <trkpt lat="47.41661" lon="-0.59397">
        <ele>22</ele>
        <time>2023-07-19T12:40:40Z</time>
      </trkpt>
      <trkpt lat="47.41662" lon="-0.59396">
        <ele>22</ele>
        <time>2023-07-19T12:40:41Z</time>
      </trkpt>
      <trkpt lat="47.41662" lon="-0.59396">
        <ele>21.8</ele>
        <time>2023-07-19T12:40:42Z</time>
      </trkpt>
      <trkpt lat="47.41662" lon="-0.59396">
        <ele>21.4</ele>
        <time>2023-07-19T12:40:43Z</time>
      </trkpt>
      <trkpt lat="47.41662" lon="-0.59395">
        <ele>21.2</ele>
        <time>2023-07-19T12:40:44Z</time>
      </trkpt>
      <trkpt lat="47.41662" lon="-0.59394">
        <ele>20.8</ele>
        <time>2023-07-19T12:40:45Z</time>
      </trkpt>
      <trkpt lat="47.41662" lon="-0.59393">
        <ele>20.4</ele>
        <time>2023-07-19T12:40:46Z</time>
      </trkpt>
      <trkpt lat="47.41663" lon="-0.5939">
        <ele>20.2</ele>
        <time>2023-07-19T12:40:48Z</time>
      </trkpt>
      <trkpt lat="47.41664" lon="-0.59388">
        <ele>20.2</ele>
        <time>2023-07-19T12:40:49Z</time>
      </trkpt>
      <trkpt lat="47.41665" lon="-0.59386">
        <ele>20.2</ele>
        <time>2023-07-19T12:40:50Z</time>
      </trkpt>
      <trkpt lat="47.41665" lon="-0.59386">
        <ele>20.2</ele>
        <time>2023-07-19T12:40:51Z</time>
      </trkpt>
      <trkpt lat="47.41665" lon="-0.59386">
        <ele>20.2</ele>
        <time>2023-07-19T12:40:53Z</time>
      </trkpt>
      <trkpt lat="47.4167" lon="-0.59378">
        <ele>19.8</ele>
        <time>2023-07-19T12:41:14Z</time>
      </trkpt>
      <trkpt lat="47.41671" lon="-0.59375">
        <ele>19.8</ele>
        <time>2023-07-19T12:41:15Z</time>
      </trkpt>
      <trkpt lat="47.41673" lon="-0.59369">
        <ele>19.8</ele>
        <time>2023-07-19T12:41:17Z</time>
      </trkpt>
      <trkpt lat="47.41673" lon="-0.59366">
        <ele>19.8</ele>
        <time>2023-07-19T12:41:18Z</time>
      </trkpt>
      <trkpt lat="47.41673" lon="-0.59363">
        <ele>19.8</ele>
        <time>2023-07-19T12:41:19Z</time>
      </trkpt>
      <trkpt lat="47.41673" lon="-0.5936">
        <ele>19.8</ele>
        <time>2023-07-19T12:41:20Z</time>
      </trkpt>
      <trkpt lat="47.41674" lon="-0.59357">
        <ele>19.8</ele>
        <time>2023-07-19T12:41:21Z</time>
      </trkpt>
      <trkpt lat="47.41674" lon="-0.59353">
        <ele>19.8</ele>
        <time>2023-07-19T12:41:22Z</time>
      </trkpt>
      <trkpt lat="47.41674" lon="-0.59339">
        <ele>19.4</ele>
        <time>2023-07-19T12:41:26Z</time>
      </trkpt>
      <trkpt lat="47.41674" lon="-0.59336">
        <ele>19.4</ele>
        <time>2023-07-19T12:41:27Z</time>
      </trkpt>
      <trkpt lat="47.41673" lon="-0.59332">
        <ele>19.4</ele>
        <time>2023-07-19T12:41:28Z</time>
      </trkpt>
      <trkpt lat="47.41673" lon="-0.59329">
        <ele>19.4</ele>
        <time>2023-07-19T12:41:29Z</time>
      </trkpt>
      <trkpt lat="47.41673" lon="-0.59325">
        <ele>19.4</ele>
        <time>2023-07-19T12:41:30Z</time>
      </trkpt>
      <trkpt lat="47.41673" lon="-0.59321">
        <ele>19.4</ele>
        <time>2023-07-19T12:41:31Z</time>
      </trkpt>
      <trkpt lat="47.41675" lon="-0.59315">
        <ele>19.4</ele>
        <time>2023-07-19T12:41:33Z</time>
      </trkpt>
      <trkpt lat="47.41675" lon="-0.59312">
        <ele>19.4</ele>
        <time>2023-07-19T12:41:34Z</time>
      </trkpt>
      <trkpt lat="47.41676" lon="-0.59298">
        <ele>19.4</ele>
        <time>2023-07-19T12:41:38Z</time>
      </trkpt>
      <trkpt lat="47.41678" lon="-0.59284">
        <ele>20</ele>
        <time>2023-07-19T12:41:42Z</time>
      </trkpt>
      <trkpt lat="47.41678" lon="-0.59281">
        <ele>20</ele>
        <time>2023-07-19T12:41:43Z</time>
      </trkpt>
      <trkpt lat="47.41679" lon="-0.59278">
        <ele>20.2</ele>
        <time>2023-07-19T12:41:44Z</time>
      </trkpt>
      <trkpt lat="47.4168" lon="-0.5927">
        <ele>20.4</ele>
        <time>2023-07-19T12:41:46Z</time>
      </trkpt>
      <trkpt lat="47.4168" lon="-0.59262">
        <ele>20.6</ele>
        <time>2023-07-19T12:41:48Z</time>
      </trkpt>
      <trkpt lat="47.4168" lon="-0.59257">
        <ele>20.6</ele>
        <time>2023-07-19T12:41:49Z</time>
      </trkpt>
      <trkpt lat="47.4168" lon="-0.59249">
        <ele>20.8</ele>
        <time>2023-07-19T12:41:51Z</time>
      </trkpt>
      <trkpt lat="47.41685" lon="-0.59218">
        <ele>21</ele>
        <time>2023-07-19T12:41:58Z</time>
      </trkpt>
      <trkpt lat="47.41686" lon="-0.59181">
        <ele>21</ele>
        <time>2023-07-19T12:42:05Z</time>
      </trkpt>
      <trkpt lat="47.41687" lon="-0.5916">
        <ele>21</ele>
        <time>2023-07-19T12:42:09Z</time>
      </trkpt>
      <trkpt lat="47.41688" lon="-0.59155">
        <ele>21</ele>
        <time>2023-07-19T12:42:10Z</time>
      </trkpt>
      <trkpt lat="47.41688" lon="-0.59151">
        <ele>21</ele>
        <time>2023-07-19T12:42:11Z</time>
      </trkpt>
      <trkpt lat="47.41688" lon="-0.59147">
        <ele>20.8</ele>
        <time>2023-07-19T12:42:12Z</time>
      </trkpt>
      <trkpt lat="47.41689" lon="-0.59144">
        <ele>20.6</ele>
        <time>2023-07-19T12:42:13Z</time>
      </trkpt>
      <trkpt lat="47.41689" lon="-0.59139">
        <ele>20.6</ele>
        <time>2023-07-19T12:42:14Z</time>
      </trkpt>
      <trkpt lat="47.41689" lon="-0.59135">
        <ele>20.6</ele>
        <time>2023-07-19T12:42:15Z</time>
      </trkpt>
      <trkpt lat="47.41689" lon="-0.59131">
        <ele>20.6</ele>
        <time>2023-07-19T12:42:16Z</time>
      </trkpt>
      <trkpt lat="47.41689" lon="-0.59116">
        <ele>20.6</ele>
        <time>2023-07-19T12:42:20Z</time>
      </trkpt>
      <trkpt lat="47.41689" lon="-0.59113">
        <ele>20.6</ele>
        <time>2023-07-19T12:42:21Z</time>
      </trkpt>
      <trkpt lat="47.4169" lon="-0.59108">
        <ele>20.6</ele>
        <time>2023-07-19T12:42:22Z</time>
      </trkpt>
      <trkpt lat="47.41691" lon="-0.59104">
        <ele>20.6</ele>
        <time>2023-07-19T12:42:23Z</time>
      </trkpt>
      <trkpt lat="47.41692" lon="-0.59099">
        <ele>20.6</ele>
        <time>2023-07-19T12:42:24Z</time>
      </trkpt>
      <trkpt lat="47.41693" lon="-0.59082">
        <ele>20.8</ele>
        <time>2023-07-19T12:42:27Z</time>
      </trkpt>
      <trkpt lat="47.41694" lon="-0.59077">
        <ele>20.8</ele>
        <time>2023-07-19T12:42:28Z</time>
      </trkpt>
      <trkpt lat="47.41694" lon="-0.59072">
        <ele>20.8</ele>
        <time>2023-07-19T12:42:29Z</time>
      </trkpt>
      <trkpt lat="47.41696" lon="-0.59054">
        <ele>21</ele>
        <time>2023-07-19T12:42:33Z</time>
      </trkpt>
      <trkpt lat="47.41701" lon="-0.59029">
        <ele>20.8</ele>
        <time>2023-07-19T12:42:38Z</time>
      </trkpt>
      <trkpt lat="47.41702" lon="-0.59024">
        <ele>20.8</ele>
        <time>2023-07-19T12:42:39Z</time>
      </trkpt>
      <trkpt lat="47.41702" lon="-0.5902">
        <ele>20.8</ele>
        <time>2023-07-19T12:42:40Z</time>
      </trkpt>
      <trkpt lat="47.41701" lon="-0.59016">
        <ele>20.8</ele>
        <time>2023-07-19T12:42:41Z</time>
      </trkpt>
      <trkpt lat="47.417" lon="-0.59012">
        <ele>20.8</ele>
        <time>2023-07-19T12:42:42Z</time>
      </trkpt>
      <trkpt lat="47.41698" lon="-0.59003">
        <ele>20.8</ele>
        <time>2023-07-19T12:42:44Z</time>
      </trkpt>
      <trkpt lat="47.41697" lon="-0.58998">
        <ele>20.8</ele>
        <time>2023-07-19T12:42:45Z</time>
      </trkpt>
      <trkpt lat="47.41696" lon="-0.58994">
        <ele>20.8</ele>
        <time>2023-07-19T12:42:46Z</time>
      </trkpt>
      <trkpt lat="47.41695" lon="-0.5899">
        <ele>20.8</ele>
        <time>2023-07-19T12:42:47Z</time>
      </trkpt>
      <trkpt lat="47.41694" lon="-0.58985">
        <ele>20.8</ele>
        <time>2023-07-19T12:42:48Z</time>
      </trkpt>
      <trkpt lat="47.41694" lon="-0.58981">
        <ele>20.8</ele>
        <time>2023-07-19T12:42:49Z</time>
      </trkpt>
      <trkpt lat="47.41695" lon="-0.58977">
        <ele>20.8</ele>
        <time>2023-07-19T12:42:50Z</time>
      </trkpt>
      <trkpt lat="47.41696" lon="-0.58969">
        <ele>21</ele>
        <time>2023-07-19T12:42:52Z</time>
      </trkpt>
      <trkpt lat="47.41696" lon="-0.58964">
        <ele>21</ele>
        <time>2023-07-19T12:42:53Z</time>
      </trkpt>
      <trkpt lat="47.41696" lon="-0.58953">
        <ele>21</ele>
        <time>2023-07-19T12:42:55Z</time>
      </trkpt>
      <trkpt lat="47.41697" lon="-0.58948">
        <ele>21</ele>
        <time>2023-07-19T12:42:56Z</time>
      </trkpt>
      <trkpt lat="47.41697" lon="-0.58942">
        <ele>21</ele>
        <time>2023-07-19T12:42:57Z</time>
      </trkpt>
      <trkpt lat="47.41699" lon="-0.58929">
        <ele>21</ele>
        <time>2023-07-19T12:43:00Z</time>
      </trkpt>
      <trkpt lat="47.41701" lon="-0.58921">
        <ele>21</ele>
        <time>2023-07-19T12:43:02Z</time>
      </trkpt>
      <trkpt lat="47.41705" lon="-0.58886">
        <ele>21.4</ele>
        <time>2023-07-19T12:43:09Z</time>
      </trkpt>
      <trkpt lat="47.41707" lon="-0.58847">
        <ele>21.4</ele>
        <time>2023-07-19T12:43:17Z</time>
      </trkpt>
      <trkpt lat="47.41709" lon="-0.58809">
        <ele>21.4</ele>
        <time>2023-07-19T12:43:24Z</time>
      </trkpt>
      <trkpt lat="47.41707" lon="-0.58768">
        <ele>21.4</ele>
        <time>2023-07-19T12:43:31Z</time>
      </trkpt>
      <trkpt lat="47.41708" lon="-0.58762">
        <ele>21.4</ele>
        <time>2023-07-19T12:43:32Z</time>
      </trkpt>
      <trkpt lat="47.41711" lon="-0.58714">
        <ele>21.4</ele>
        <time>2023-07-19T12:43:40Z</time>
      </trkpt>
      <trkpt lat="47.41718" lon="-0.58693">
        <ele>21.4</ele>
        <time>2023-07-19T12:43:44Z</time>
      </trkpt>
      <trkpt lat="47.41719" lon="-0.58689">
        <ele>21.4</ele>
        <time>2023-07-19T12:43:45Z</time>
      </trkpt>
      <trkpt lat="47.4172" lon="-0.58686">
        <ele>21.4</ele>
        <time>2023-07-19T12:43:46Z</time>
      </trkpt>
      <trkpt lat="47.41721" lon="-0.58682">
        <ele>21.4</ele>
        <time>2023-07-19T12:43:47Z</time>
      </trkpt>
      <trkpt lat="47.41722" lon="-0.58678">
        <ele>21.4</ele>
        <time>2023-07-19T12:43:48Z</time>
      </trkpt>
      <trkpt lat="47.41724" lon="-0.58672">
        <ele>21.4</ele>
        <time>2023-07-19T12:43:50Z</time>
      </trkpt>
      <trkpt lat="47.41725" lon="-0.58669">
        <ele>21.4</ele>
        <time>2023-07-19T12:43:51Z</time>
      </trkpt>
      <trkpt lat="47.41725" lon="-0.58667">
        <ele>21.4</ele>
        <time>2023-07-19T12:43:52Z</time>
      </trkpt>
      <trkpt lat="47.41726" lon="-0.58663">
        <ele>21.4</ele>
        <time>2023-07-19T12:43:53Z</time>
      </trkpt>
      <trkpt lat="47.41726" lon="-0.58659">
        <ele>21.4</ele>
        <time>2023-07-19T12:43:54Z</time>
      </trkpt>
      <trkpt lat="47.41727" lon="-0.58655">
        <ele>21.4</ele>
        <time>2023-07-19T12:43:55Z</time>
      </trkpt>
      <trkpt lat="47.41729" lon="-0.58631">
        <ele>21.4</ele>
        <time>2023-07-19T12:44:00Z</time>
      </trkpt>
      <trkpt lat="47.41733" lon="-0.586">
        <ele>21.2</ele>
        <time>2023-07-19T12:44:07Z</time>
      </trkpt>
      <trkpt lat="47.41737" lon="-0.58589">
        <ele>21</ele>
        <time>2023-07-19T12:44:10Z</time>
      </trkpt>
      <trkpt lat="47.41738" lon="-0.58585">
        <ele>21</ele>
        <time>2023-07-19T12:44:11Z</time>
      </trkpt>
      <trkpt lat="47.41738" lon="-0.5858">
        <ele>21</ele>
        <time>2023-07-19T12:44:12Z</time>
      </trkpt>
      <trkpt lat="47.41738" lon="-0.58576">
        <ele>21</ele>
        <time>2023-07-19T12:44:13Z</time>
      </trkpt>
      <trkpt lat="47.41738" lon="-0.58571">
        <ele>21</ele>
        <time>2023-07-19T12:44:14Z</time>
      </trkpt>
      <trkpt lat="47.41741" lon="-0.58542">
        <ele>21</ele>
        <time>2023-07-19T12:44:20Z</time>
      </trkpt>
      <trkpt lat="47.41743" lon="-0.58505">
        <ele>21.4</ele>
        <time>2023-07-19T12:44:27Z</time>
      </trkpt>
      <trkpt lat="47.41744" lon="-0.58492">
        <ele>21.4</ele>
        <time>2023-07-19T12:44:29Z</time>
      </trkpt>
      <trkpt lat="47.41746" lon="-0.58468">
        <ele>21.4</ele>
        <time>2023-07-19T12:44:33Z</time>
      </trkpt>
      <trkpt lat="47.41747" lon="-0.58413">
        <ele>21.4</ele>
        <time>2023-07-19T12:44:42Z</time>
      </trkpt>
      <trkpt lat="47.41746" lon="-0.58403">
        <ele>21.4</ele>
        <time>2023-07-19T12:44:44Z</time>
      </trkpt>
      <trkpt lat="47.41745" lon="-0.58393">
        <ele>21.4</ele>
        <time>2023-07-19T12:44:46Z</time>
      </trkpt>
      <trkpt lat="47.41744" lon="-0.58389">
        <ele>21.4</ele>
        <time>2023-07-19T12:44:47Z</time>
      </trkpt>
      <trkpt lat="47.41743" lon="-0.58384">
        <ele>21.4</ele>
        <time>2023-07-19T12:44:48Z</time>
      </trkpt>
      <trkpt lat="47.41738" lon="-0.58357">
        <ele>21.2</ele>
        <time>2023-07-19T12:44:53Z</time>
      </trkpt>
      <trkpt lat="47.41738" lon="-0.58352">
        <ele>21.2</ele>
        <time>2023-07-19T12:44:54Z</time>
      </trkpt>
      <trkpt lat="47.41738" lon="-0.58348">
        <ele>21.2</ele>
        <time>2023-07-19T12:44:55Z</time>
      </trkpt>
      <trkpt lat="47.41736" lon="-0.5833">
        <ele>21</ele>
        <time>2023-07-19T12:44:59Z</time>
      </trkpt>
      <trkpt lat="47.41736" lon="-0.58326">
        <ele>21.2</ele>
        <time>2023-07-19T12:45:00Z</time>
      </trkpt>
      <trkpt lat="47.41736" lon="-0.58323">
        <ele>21.2</ele>
        <time>2023-07-19T12:45:01Z</time>
      </trkpt>
      <trkpt lat="47.41735" lon="-0.5832">
        <ele>21.2</ele>
        <time>2023-07-19T12:45:02Z</time>
      </trkpt>
      <trkpt lat="47.41735" lon="-0.58317">
        <ele>21.2</ele>
        <time>2023-07-19T12:45:03Z</time>
      </trkpt>
      <trkpt lat="47.41736" lon="-0.58315">
        <ele>21.2</ele>
        <time>2023-07-19T12:45:04Z</time>
      </trkpt>
      <trkpt lat="47.41736" lon="-0.58313">
        <ele>21.2</ele>
        <time>2023-07-19T12:45:05Z</time>
      </trkpt>
      <trkpt lat="47.41739" lon="-0.58309">
        <ele>21.2</ele>
        <time>2023-07-19T12:45:06Z</time>
      </trkpt>
      <trkpt lat="47.41744" lon="-0.58305">
        <ele>21.2</ele>
        <time>2023-07-19T12:45:09Z</time>
      </trkpt>
      <trkpt lat="47.41746" lon="-0.58304">
        <ele>21.4</ele>
        <time>2023-07-19T12:45:10Z</time>
      </trkpt>
      <trkpt lat="47.41748" lon="-0.58302">
        <ele>21.6</ele>
        <time>2023-07-19T12:45:11Z</time>
      </trkpt>
      <trkpt lat="47.41751" lon="-0.58298">
        <ele>21.8</ele>
        <time>2023-07-19T12:45:13Z</time>
      </trkpt>
      <trkpt lat="47.41752" lon="-0.58294">
        <ele>22</ele>
        <time>2023-07-19T12:45:14Z</time>
      </trkpt>
      <trkpt lat="47.41753" lon="-0.58291">
        <ele>22.2</ele>
        <time>2023-07-19T12:45:15Z</time>
      </trkpt>
      <trkpt lat="47.41753" lon="-0.58287">
        <ele>22.2</ele>
        <time>2023-07-19T12:45:16Z</time>
      </trkpt>
      <trkpt lat="47.41753" lon="-0.58284">
        <ele>22.4</ele>
        <time>2023-07-19T12:45:17Z</time>
      </trkpt>
      <trkpt lat="47.41753" lon="-0.58281">
        <ele>22.6</ele>
        <time>2023-07-19T12:45:18Z</time>
      </trkpt>
      <trkpt lat="47.41753" lon="-0.58278">
        <ele>22.6</ele>
        <time>2023-07-19T12:45:19Z</time>
      </trkpt>
      <trkpt lat="47.41752" lon="-0.58271">
        <ele>22.6</ele>
        <time>2023-07-19T12:45:22Z</time>
      </trkpt>
      <trkpt lat="47.41752" lon="-0.58269">
        <ele>22.6</ele>
        <time>2023-07-19T12:45:23Z</time>
      </trkpt>
      <trkpt lat="47.41752" lon="-0.58267">
        <ele>22.6</ele>
        <time>2023-07-19T12:45:24Z</time>
      </trkpt>
      <trkpt lat="47.41752" lon="-0.58267">
        <ele>22.6</ele>
        <time>2023-07-19T12:45:25Z</time>
      </trkpt>
      <trkpt lat="47.41752" lon="-0.58266">
        <ele>22.6</ele>
        <time>2023-07-19T12:45:26Z</time>
      </trkpt>
      <trkpt lat="47.41752" lon="-0.58266">
        <ele>22.6</ele>
        <time>2023-07-19T12:45:27Z</time>
      </trkpt>
      <trkpt lat="47.41752" lon="-0.58266">
        <ele>22.6</ele>
        <time>2023-07-19T12:45:28Z</time>
      </trkpt>
      <trkpt lat="47.41752" lon="-0.58266">
        <ele>22.4</ele>
        <time>2023-07-19T12:45:29Z</time>
      </trkpt>
      <trkpt lat="47.41752" lon="-0.58266">
        <ele>22.4</ele>
        <time>2023-07-19T12:45:30Z</time>
      </trkpt>
      <trkpt lat="47.41751" lon="-0.58259">
        <ele>21.8</ele>
        <time>2023-07-19T12:45:35Z</time>
      </trkpt>
      <trkpt lat="47.4175" lon="-0.5825">
        <ele>21.8</ele>
        <time>2023-07-19T12:45:38Z</time>
      </trkpt>
      <trkpt lat="47.41749" lon="-0.58247">
        <ele>21.8</ele>
        <time>2023-07-19T12:45:39Z</time>
      </trkpt>
      <trkpt lat="47.41748" lon="-0.5824">
        <ele>21.8</ele>
        <time>2023-07-19T12:45:41Z</time>
      </trkpt>
      <trkpt lat="47.41748" lon="-0.58237">
        <ele>21.8</ele>
        <time>2023-07-19T12:45:42Z</time>
      </trkpt>
      <trkpt lat="47.41743" lon="-0.58218">
        <ele>21.8</ele>
        <time>2023-07-19T12:45:48Z</time>
      </trkpt>
      <trkpt lat="47.4174" lon="-0.58198">
        <ele>21.6</ele>
        <time>2023-07-19T12:45:54Z</time>
      </trkpt>
      <trkpt lat="47.41739" lon="-0.58194">
        <ele>21.6</ele>
        <time>2023-07-19T12:45:55Z</time>
      </trkpt>
      <trkpt lat="47.41737" lon="-0.58167">
        <ele>21.6</ele>
        <time>2023-07-19T12:46:03Z</time>
      </trkpt>
      <trkpt lat="47.41736" lon="-0.58166">
        <ele>21.6</ele>
        <time>2023-07-19T12:46:04Z</time>
      </trkpt>
      <trkpt lat="47.41736" lon="-0.58166">
        <ele>21.6</ele>
        <time>2023-07-19T12:46:05Z</time>
      </trkpt>
      <trkpt lat="47.41736" lon="-0.58166">
        <ele>21.6</ele>
        <time>2023-07-19T12:46:07Z</time>
      </trkpt>
      <trkpt lat="47.41736" lon="-0.58157">
        <ele>21.4</ele>
        <time>2023-07-19T12:46:24Z</time>
      </trkpt>
      <trkpt lat="47.41737" lon="-0.58153">
        <ele>21.2</ele>
        <time>2023-07-19T12:46:25Z</time>
      </trkpt>
      <trkpt lat="47.41737" lon="-0.58148">
        <ele>21.2</ele>
        <time>2023-07-19T12:46:26Z</time>
      </trkpt>
      <trkpt lat="47.41735" lon="-0.58128">
        <ele>21.2</ele>
        <time>2023-07-19T12:46:30Z</time>
      </trkpt>
      <trkpt lat="47.41734" lon="-0.58123">
        <ele>21.2</ele>
        <time>2023-07-19T12:46:31Z</time>
      </trkpt>
      <trkpt lat="47.41732" lon="-0.58102">
        <ele>21.4</ele>
        <time>2023-07-19T12:46:36Z</time>
      </trkpt>
      <trkpt lat="47.41732" lon="-0.58099">
        <ele>21.6</ele>
        <time>2023-07-19T12:46:37Z</time>
      </trkpt>
      <trkpt lat="47.41732" lon="-0.58096">
        <ele>21.6</ele>
        <time>2023-07-19T12:46:38Z</time>
      </trkpt>
      <trkpt lat="47.41732" lon="-0.58093">
        <ele>21.6</ele>
        <time>2023-07-19T12:46:39Z</time>
      </trkpt>
      <trkpt lat="47.41732" lon="-0.58083">
        <ele>21.6</ele>
        <time>2023-07-19T12:46:42Z</time>
      </trkpt>
      <trkpt lat="47.41733" lon="-0.58081">
        <ele>21.6</ele>
        <time>2023-07-19T12:46:43Z</time>
      </trkpt>
      <trkpt lat="47.41733" lon="-0.58078">
        <ele>21.6</ele>
        <time>2023-07-19T12:46:44Z</time>
      </trkpt>
      <trkpt lat="47.41733" lon="-0.58075">
        <ele>21.6</ele>
        <time>2023-07-19T12:46:45Z</time>
      </trkpt>
      <trkpt lat="47.41733" lon="-0.58071">
        <ele>21.6</ele>
        <time>2023-07-19T12:46:46Z</time>
      </trkpt>
      <trkpt lat="47.41734" lon="-0.58061">
        <ele>21.6</ele>
        <time>2023-07-19T12:46:49Z</time>
      </trkpt>
      <trkpt lat="47.41734" lon="-0.58058">
        <ele>21.6</ele>
        <time>2023-07-19T12:46:50Z</time>
      </trkpt>
      <trkpt lat="47.41734" lon="-0.58055">
        <ele>21.6</ele>
        <time>2023-07-19T12:46:51Z</time>
      </trkpt>
      <trkpt lat="47.41734" lon="-0.58052">
        <ele>21.6</ele>
        <time>2023-07-19T12:46:52Z</time>
      </trkpt>
      <trkpt lat="47.41737" lon="-0.58035">
        <ele>21.6</ele>
        <time>2023-07-19T12:46:57Z</time>
      </trkpt>
      <trkpt lat="47.41739" lon="-0.58015">
        <ele>21.6</ele>
        <time>2023-07-19T12:47:03Z</time>
      </trkpt>
      <trkpt lat="47.4174" lon="-0.58011">
        <ele>21.6</ele>
        <time>2023-07-19T12:47:04Z</time>
      </trkpt>
      <trkpt lat="47.41741" lon="-0.58001">
        <ele>21.6</ele>
        <time>2023-07-19T12:47:07Z</time>
      </trkpt>
      <trkpt lat="47.41742" lon="-0.57998">
        <ele>21.6</ele>
        <time>2023-07-19T12:47:08Z</time>
      </trkpt>
      <trkpt lat="47.41742" lon="-0.57995">
        <ele>21.6</ele>
        <time>2023-07-19T12:47:09Z</time>
      </trkpt>
      <trkpt lat="47.41742" lon="-0.57989">
        <ele>21.6</ele>
        <time>2023-07-19T12:47:11Z</time>
      </trkpt>
      <trkpt lat="47.41742" lon="-0.57983">
        <ele>21.6</ele>
        <time>2023-07-19T12:47:13Z</time>
      </trkpt>
      <trkpt lat="47.41743" lon="-0.5798">
        <ele>21.6</ele>
        <time>2023-07-19T12:47:14Z</time>
      </trkpt>
      <trkpt lat="47.41743" lon="-0.57978">
        <ele>21.6</ele>
        <time>2023-07-19T12:47:15Z</time>
      </trkpt>
      <trkpt lat="47.41744" lon="-0.57975">
        <ele>21.6</ele>
        <time>2023-07-19T12:47:16Z</time>
      </trkpt>
      <trkpt lat="47.41744" lon="-0.57974">
        <ele>21.6</ele>
        <time>2023-07-19T12:47:17Z</time>
      </trkpt>
      <trkpt lat="47.41744" lon="-0.57974">
        <ele>21.6</ele>
        <time>2023-07-19T12:47:18Z</time>
      </trkpt>
      <trkpt lat="47.41744" lon="-0.57974">
        <ele>21.6</ele>
        <time>2023-07-19T12:47:19Z</time>
      </trkpt>
      <trkpt lat="47.41747" lon="-0.57967">
        <ele>21.2</ele>
        <time>2023-07-19T12:47:35Z</time>
      </trkpt>
      <trkpt lat="47.41748" lon="-0.57959">
        <ele>21.2</ele>
        <time>2023-07-19T12:47:37Z</time>
      </trkpt>
      <trkpt lat="47.41752" lon="-0.57938">
        <ele>21.2</ele>
        <time>2023-07-19T12:47:42Z</time>
      </trkpt>
      <trkpt lat="47.41752" lon="-0.57933">
        <ele>21.4</ele>
        <time>2023-07-19T12:47:43Z</time>
      </trkpt>
      <trkpt lat="47.41753" lon="-0.57908">
        <ele>21.4</ele>
        <time>2023-07-19T12:47:48Z</time>
      </trkpt>
      <trkpt lat="47.41754" lon="-0.57904">
        <ele>21.4</ele>
        <time>2023-07-19T12:47:49Z</time>
      </trkpt>
      <trkpt lat="47.41754" lon="-0.57895">
        <ele>21.4</ele>
        <time>2023-07-19T12:47:51Z</time>
      </trkpt>
      <trkpt lat="47.41755" lon="-0.57881">
        <ele>21.6</ele>
        <time>2023-07-19T12:47:54Z</time>
      </trkpt>
      <trkpt lat="47.41757" lon="-0.57855">
        <ele>22</ele>
        <time>2023-07-19T12:48:00Z</time>
      </trkpt>
      <trkpt lat="47.41759" lon="-0.57848">
        <ele>22</ele>
        <time>2023-07-19T12:48:02Z</time>
      </trkpt>
      <trkpt lat="47.4176" lon="-0.57845">
        <ele>22</ele>
        <time>2023-07-19T12:48:03Z</time>
      </trkpt>
      <trkpt lat="47.4176" lon="-0.57842">
        <ele>22</ele>
        <time>2023-07-19T12:48:04Z</time>
      </trkpt>
      <trkpt lat="47.4176" lon="-0.57838">
        <ele>22</ele>
        <time>2023-07-19T12:48:05Z</time>
      </trkpt>
      <trkpt lat="47.41758" lon="-0.57833">
        <ele>22</ele>
        <time>2023-07-19T12:48:06Z</time>
      </trkpt>
      <trkpt lat="47.41758" lon="-0.57828">
        <ele>22</ele>
        <time>2023-07-19T12:48:07Z</time>
      </trkpt>
      <trkpt lat="47.41759" lon="-0.57814">
        <ele>22</ele>
        <time>2023-07-19T12:48:10Z</time>
      </trkpt>
      <trkpt lat="47.4176" lon="-0.5781">
        <ele>22</ele>
        <time>2023-07-19T12:48:11Z</time>
      </trkpt>
      <trkpt lat="47.41762" lon="-0.57795">
        <ele>22</ele>
        <time>2023-07-19T12:48:14Z</time>
      </trkpt>
      <trkpt lat="47.41765" lon="-0.57772">
        <ele>22</ele>
        <time>2023-07-19T12:48:19Z</time>
      </trkpt>
      <trkpt lat="47.41767" lon="-0.57762">
        <ele>22</ele>
        <time>2023-07-19T12:48:21Z</time>
      </trkpt>
      <trkpt lat="47.41769" lon="-0.57749">
        <ele>22</ele>
        <time>2023-07-19T12:48:24Z</time>
      </trkpt>
      <trkpt lat="47.4177" lon="-0.57745">
        <ele>22</ele>
        <time>2023-07-19T12:48:25Z</time>
      </trkpt>
      <trkpt lat="47.41773" lon="-0.57736">
        <ele>22</ele>
        <time>2023-07-19T12:48:27Z</time>
      </trkpt>
      <trkpt lat="47.41773" lon="-0.57731">
        <ele>22</ele>
        <time>2023-07-19T12:48:28Z</time>
      </trkpt>
      <trkpt lat="47.41774" lon="-0.57727">
        <ele>22</ele>
        <time>2023-07-19T12:48:29Z</time>
      </trkpt>
      <trkpt lat="47.41775" lon="-0.57723">
        <ele>22</ele>
        <time>2023-07-19T12:48:30Z</time>
      </trkpt>
      <trkpt lat="47.41777" lon="-0.57719">
        <ele>22</ele>
        <time>2023-07-19T12:48:31Z</time>
      </trkpt>
      <trkpt lat="47.41777" lon="-0.57717">
        <ele>22</ele>
        <time>2023-07-19T12:48:32Z</time>
      </trkpt>
      <trkpt lat="47.41779" lon="-0.57716">
        <ele>22</ele>
        <time>2023-07-19T12:48:33Z</time>
      </trkpt>
      <trkpt lat="47.41779" lon="-0.57715">
        <ele>22</ele>
        <time>2023-07-19T12:48:34Z</time>
      </trkpt>
      <trkpt lat="47.4178" lon="-0.57714">
        <ele>22</ele>
        <time>2023-07-19T12:48:35Z</time>
      </trkpt>
      <trkpt lat="47.4178" lon="-0.57713">
        <ele>22</ele>
        <time>2023-07-19T12:48:36Z</time>
      </trkpt>
      <trkpt lat="47.4178" lon="-0.57712">
        <ele>22</ele>
        <time>2023-07-19T12:48:37Z</time>
      </trkpt>
      <trkpt lat="47.41779" lon="-0.57708">
        <ele>22</ele>
        <time>2023-07-19T12:48:39Z</time>
      </trkpt>
      <trkpt lat="47.41779" lon="-0.57707">
        <ele>22</ele>
        <time>2023-07-19T12:48:40Z</time>
      </trkpt>
      <trkpt lat="47.41779" lon="-0.57705">
        <ele>22</ele>
        <time>2023-07-19T12:48:41Z</time>
      </trkpt>
      <trkpt lat="47.4178" lon="-0.57703">
        <ele>22</ele>
        <time>2023-07-19T12:48:42Z</time>
      </trkpt>
      <trkpt lat="47.4178" lon="-0.57701">
        <ele>22</ele>
        <time>2023-07-19T12:48:43Z</time>
      </trkpt>
      <trkpt lat="47.41781" lon="-0.57695">
        <ele>22</ele>
        <time>2023-07-19T12:48:45Z</time>
      </trkpt>
      <trkpt lat="47.41785" lon="-0.57677">
        <ele>22</ele>
        <time>2023-07-19T12:48:50Z</time>
      </trkpt>
      <trkpt lat="47.41785" lon="-0.57675">
        <ele>22</ele>
        <time>2023-07-19T12:48:51Z</time>
      </trkpt>
      <trkpt lat="47.41787" lon="-0.57671">
        <ele>22</ele>
        <time>2023-07-19T12:48:52Z</time>
      </trkpt>
      <trkpt lat="47.41791" lon="-0.57647">
        <ele>22.2</ele>
        <time>2023-07-19T12:48:58Z</time>
      </trkpt>
      <trkpt lat="47.41795" lon="-0.57634">
        <ele>22.2</ele>
        <time>2023-07-19T12:49:02Z</time>
      </trkpt>
      <trkpt lat="47.41795" lon="-0.57633">
        <ele>22.2</ele>
        <time>2023-07-19T12:49:03Z</time>
      </trkpt>
      <trkpt lat="47.41796" lon="-0.57632">
        <ele>22.2</ele>
        <time>2023-07-19T12:49:04Z</time>
      </trkpt>
      <trkpt lat="47.41795" lon="-0.57632">
        <ele>22.2</ele>
        <time>2023-07-19T12:49:05Z</time>
      </trkpt>
      <trkpt lat="47.41795" lon="-0.57631">
        <ele>22.2</ele>
        <time>2023-07-19T12:49:06Z</time>
      </trkpt>
      <trkpt lat="47.41795" lon="-0.57631">
        <ele>22.2</ele>
        <time>2023-07-19T12:49:07Z</time>
      </trkpt>
      <trkpt lat="47.41795" lon="-0.57631">
        <ele>22.2</ele>
        <time>2023-07-19T12:49:08Z</time>
      </trkpt>
      <trkpt lat="47.41795" lon="-0.57631">
        <ele>22.2</ele>
        <time>2023-07-19T12:49:09Z</time>
      </trkpt>
      <trkpt lat="47.41796" lon="-0.57631">
        <ele>22.2</ele>
        <time>2023-07-19T12:49:10Z</time>
      </trkpt>
      <trkpt lat="47.41797" lon="-0.57631">
        <ele>22.2</ele>
        <time>2023-07-19T12:49:11Z</time>
      </trkpt>
      <trkpt lat="47.41796" lon="-0.5763">
        <ele>22.2</ele>
        <time>2023-07-19T12:49:13Z</time>
      </trkpt>
      <trkpt lat="47.41795" lon="-0.57627">
        <ele>21.8</ele>
        <time>2023-07-19T12:49:15Z</time>
      </trkpt>
      <trkpt lat="47.41795" lon="-0.57625">
        <ele>22</ele>
        <time>2023-07-19T12:49:18Z</time>
      </trkpt>
      <trkpt lat="47.41795" lon="-0.57625">
        <ele>22</ele>
        <time>2023-07-19T12:49:19Z</time>
      </trkpt>
      <trkpt lat="47.41795" lon="-0.57623">
        <ele>22</ele>
        <time>2023-07-19T12:49:21Z</time>
      </trkpt>
      <trkpt lat="47.41795" lon="-0.57621">
        <ele>22</ele>
        <time>2023-07-19T12:49:22Z</time>
      </trkpt>
      <trkpt lat="47.41795" lon="-0.5762">
        <ele>21.8</ele>
        <time>2023-07-19T12:49:23Z</time>
      </trkpt>
      <trkpt lat="47.41795" lon="-0.5762">
        <ele>21.6</ele>
        <time>2023-07-19T12:49:24Z</time>
      </trkpt>
      <trkpt lat="47.41795" lon="-0.5762">
        <ele>21.8</ele>
        <time>2023-07-19T12:49:26Z</time>
      </trkpt>
      <trkpt lat="47.41798" lon="-0.57611">
        <ele>21.8</ele>
        <time>2023-07-19T12:49:34Z</time>
      </trkpt>
      <trkpt lat="47.41799" lon="-0.57608">
        <ele>21.6</ele>
        <time>2023-07-19T12:49:35Z</time>
      </trkpt>
      <trkpt lat="47.41803" lon="-0.57591">
        <ele>21.4</ele>
        <time>2023-07-19T12:49:40Z</time>
      </trkpt>
      <trkpt lat="47.41804" lon="-0.57588">
        <ele>21.4</ele>
        <time>2023-07-19T12:49:41Z</time>
      </trkpt>
      <trkpt lat="47.41806" lon="-0.57585">
        <ele>21.4</ele>
        <time>2023-07-19T12:49:42Z</time>
      </trkpt>
      <trkpt lat="47.41808" lon="-0.57582">
        <ele>21.4</ele>
        <time>2023-07-19T12:49:43Z</time>
      </trkpt>
      <trkpt lat="47.41818" lon="-0.57558">
        <ele>21.6</ele>
        <time>2023-07-19T12:49:50Z</time>
      </trkpt>
      <trkpt lat="47.41828" lon="-0.5753">
        <ele>21.8</ele>
        <time>2023-07-19T12:49:58Z</time>
      </trkpt>
      <trkpt lat="47.41835" lon="-0.57516">
        <ele>22</ele>
        <time>2023-07-19T12:50:03Z</time>
      </trkpt>
      <trkpt lat="47.41836" lon="-0.57516">
        <ele>22</ele>
        <time>2023-07-19T12:50:04Z</time>
      </trkpt>
      <trkpt lat="47.41836" lon="-0.57516">
        <ele>22</ele>
        <time>2023-07-19T12:50:06Z</time>
      </trkpt>
      <trkpt lat="47.41837" lon="-0.57504">
        <ele>22</ele>
        <time>2023-07-19T12:50:16Z</time>
      </trkpt>
      <trkpt lat="47.41838" lon="-0.575">
        <ele>22</ele>
        <time>2023-07-19T12:50:18Z</time>
      </trkpt>
      <trkpt lat="47.41839" lon="-0.57498">
        <ele>22</ele>
        <time>2023-07-19T12:50:19Z</time>
      </trkpt>
      <trkpt lat="47.41839" lon="-0.57497">
        <ele>22</ele>
        <time>2023-07-19T12:50:20Z</time>
      </trkpt>
      <trkpt lat="47.4184" lon="-0.57495">
        <ele>21.8</ele>
        <time>2023-07-19T12:50:21Z</time>
      </trkpt>
      <trkpt lat="47.41842" lon="-0.57485">
        <ele>21.6</ele>
        <time>2023-07-19T12:50:27Z</time>
      </trkpt>
      <trkpt lat="47.41842" lon="-0.57484">
        <ele>21.6</ele>
        <time>2023-07-19T12:50:28Z</time>
      </trkpt>
      <trkpt lat="47.41843" lon="-0.57482">
        <ele>21.6</ele>
        <time>2023-07-19T12:50:29Z</time>
      </trkpt>
      <trkpt lat="47.41843" lon="-0.57481">
        <ele>21.6</ele>
        <time>2023-07-19T12:50:30Z</time>
      </trkpt>
      <trkpt lat="47.41844" lon="-0.5748">
        <ele>21.6</ele>
        <time>2023-07-19T12:50:31Z</time>
      </trkpt>
      <trkpt lat="47.41845" lon="-0.57478">
        <ele>21.6</ele>
        <time>2023-07-19T12:50:33Z</time>
      </trkpt>
      <trkpt lat="47.41846" lon="-0.57477">
        <ele>21.6</ele>
        <time>2023-07-19T12:50:34Z</time>
      </trkpt>
      <trkpt lat="47.41846" lon="-0.57477">
        <ele>21.6</ele>
        <time>2023-07-19T12:50:36Z</time>
      </trkpt>
      <trkpt lat="47.41847" lon="-0.57464">
        <ele>22.6</ele>
        <time>2023-07-19T12:51:32Z</time>
      </trkpt>
      <trkpt lat="47.41848" lon="-0.57461">
        <ele>22.6</ele>
        <time>2023-07-19T12:51:33Z</time>
      </trkpt>
      <trkpt lat="47.41849" lon="-0.57458">
        <ele>22.4</ele>
        <time>2023-07-19T12:51:34Z</time>
      </trkpt>
      <trkpt lat="47.41857" lon="-0.57436">
        <ele>22.4</ele>
        <time>2023-07-19T12:51:40Z</time>
      </trkpt>
      <trkpt lat="47.41858" lon="-0.57433">
        <ele>22.4</ele>
        <time>2023-07-19T12:51:41Z</time>
      </trkpt>
      <trkpt lat="47.41873" lon="-0.57399">
        <ele>22.4</ele>
        <time>2023-07-19T12:51:51Z</time>
      </trkpt>
      <trkpt lat="47.41876" lon="-0.57394">
        <ele>22.4</ele>
        <time>2023-07-19T12:51:53Z</time>
      </trkpt>
      <trkpt lat="47.41878" lon="-0.57392">
        <ele>22.4</ele>
        <time>2023-07-19T12:51:54Z</time>
      </trkpt>
      <trkpt lat="47.41878" lon="-0.57391">
        <ele>22.4</ele>
        <time>2023-07-19T12:51:55Z</time>
      </trkpt>
      <trkpt lat="47.41878" lon="-0.5739">
        <ele>22.4</ele>
        <time>2023-07-19T12:51:56Z</time>
      </trkpt>
      <trkpt lat="47.41878" lon="-0.5739">
        <ele>22.4</ele>
        <time>2023-07-19T12:51:57Z</time>
      </trkpt>
      <trkpt lat="47.41877" lon="-0.57389">
        <ele>22.4</ele>
        <time>2023-07-19T12:51:58Z</time>
      </trkpt>
      <trkpt lat="47.41877" lon="-0.57388">
        <ele>22.4</ele>
        <time>2023-07-19T12:51:59Z</time>
      </trkpt>
      <trkpt lat="47.41878" lon="-0.57388">
        <ele>22.4</ele>
        <time>2023-07-19T12:52:00Z</time>
      </trkpt>
      <trkpt lat="47.41879" lon="-0.57388">
        <ele>22.4</ele>
        <time>2023-07-19T12:52:01Z</time>
      </trkpt>
      <trkpt lat="47.4188" lon="-0.57387">
        <ele>22.4</ele>
        <time>2023-07-19T12:52:02Z</time>
      </trkpt>
      <trkpt lat="47.41881" lon="-0.57387">
        <ele>22.4</ele>
        <time>2023-07-19T12:52:03Z</time>
      </trkpt>
      <trkpt lat="47.41882" lon="-0.57386">
        <ele>22.4</ele>
        <time>2023-07-19T12:52:04Z</time>
      </trkpt>
      <trkpt lat="47.41886" lon="-0.57385">
        <ele>22.4</ele>
        <time>2023-07-19T12:52:07Z</time>
      </trkpt>
      <trkpt lat="47.41891" lon="-0.57385">
        <ele>22.4</ele>
        <time>2023-07-19T12:52:10Z</time>
      </trkpt>
      <trkpt lat="47.41892" lon="-0.57384">
        <ele>22.4</ele>
        <time>2023-07-19T12:52:11Z</time>
      </trkpt>
      <trkpt lat="47.41894" lon="-0.57383">
        <ele>22.4</ele>
        <time>2023-07-19T12:52:12Z</time>
      </trkpt>
      <trkpt lat="47.41895" lon="-0.57382">
        <ele>22.4</ele>
        <time>2023-07-19T12:52:13Z</time>
      </trkpt>
      <trkpt lat="47.41896" lon="-0.57378">
        <ele>22.4</ele>
        <time>2023-07-19T12:52:14Z</time>
      </trkpt>
      <trkpt lat="47.41895" lon="-0.57373">
        <ele>22.4</ele>
        <time>2023-07-19T12:52:16Z</time>
      </trkpt>
      <trkpt lat="47.41883" lon="-0.5736">
        <ele>22.4</ele>
        <time>2023-07-19T12:52:22Z</time>
      </trkpt>
      <trkpt lat="47.41882" lon="-0.57357">
        <ele>22.4</ele>
        <time>2023-07-19T12:52:23Z</time>
      </trkpt>
      <trkpt lat="47.41881" lon="-0.57353">
        <ele>22.4</ele>
        <time>2023-07-19T12:52:24Z</time>
      </trkpt>
      <trkpt lat="47.4188" lon="-0.57349">
        <ele>22.4</ele>
        <time>2023-07-19T12:52:25Z</time>
      </trkpt>
      <trkpt lat="47.4188" lon="-0.57345">
        <ele>22.2</ele>
        <time>2023-07-19T12:52:26Z</time>
      </trkpt>
      <trkpt lat="47.4188" lon="-0.57342">
        <ele>22</ele>
        <time>2023-07-19T12:52:27Z</time>
      </trkpt>
      <trkpt lat="47.41881" lon="-0.57339">
        <ele>22</ele>
        <time>2023-07-19T12:52:28Z</time>
      </trkpt>
      <trkpt lat="47.41881" lon="-0.57338">
        <ele>21.6</ele>
        <time>2023-07-19T12:52:30Z</time>
      </trkpt>
      <trkpt lat="47.41881" lon="-0.5733">
        <ele>21</ele>
        <time>2023-07-19T12:52:39Z</time>
      </trkpt>
      <trkpt lat="47.41881" lon="-0.57327">
        <ele>21</ele>
        <time>2023-07-19T12:52:40Z</time>
      </trkpt>
      <trkpt lat="47.41881" lon="-0.57323">
        <ele>21</ele>
        <time>2023-07-19T12:52:41Z</time>
      </trkpt>
      <trkpt lat="47.41881" lon="-0.57313">
        <ele>21</ele>
        <time>2023-07-19T12:52:44Z</time>
      </trkpt>
      <trkpt lat="47.41882" lon="-0.57299">
        <ele>21</ele>
        <time>2023-07-19T12:52:48Z</time>
      </trkpt>
      <trkpt lat="47.41884" lon="-0.57269">
        <ele>21.4</ele>
        <time>2023-07-19T12:52:56Z</time>
      </trkpt>
      <trkpt lat="47.41887" lon="-0.57246">
        <ele>21.4</ele>
        <time>2023-07-19T12:53:01Z</time>
      </trkpt>
      <trkpt lat="47.41889" lon="-0.57234">
        <ele>21.4</ele>
        <time>2023-07-19T12:53:04Z</time>
      </trkpt>
      <trkpt lat="47.41891" lon="-0.57208">
        <ele>21.6</ele>
        <time>2023-07-19T12:53:10Z</time>
      </trkpt>
      <trkpt lat="47.41892" lon="-0.57201">
        <ele>21.8</ele>
        <time>2023-07-19T12:53:12Z</time>
      </trkpt>
      <trkpt lat="47.41892" lon="-0.57197">
        <ele>21.8</ele>
        <time>2023-07-19T12:53:13Z</time>
      </trkpt>
      <trkpt lat="47.41893" lon="-0.57193">
        <ele>21.8</ele>
        <time>2023-07-19T12:53:14Z</time>
      </trkpt>
      <trkpt lat="47.41893" lon="-0.5719">
        <ele>21.8</ele>
        <time>2023-07-19T12:53:15Z</time>
      </trkpt>
      <trkpt lat="47.41893" lon="-0.57186">
        <ele>21.8</ele>
        <time>2023-07-19T12:53:16Z</time>
      </trkpt>
      <trkpt lat="47.41894" lon="-0.57182">
        <ele>21.8</ele>
        <time>2023-07-19T12:53:17Z</time>
      </trkpt>
      <trkpt lat="47.41894" lon="-0.57179">
        <ele>22</ele>
        <time>2023-07-19T12:53:18Z</time>
      </trkpt>
      <trkpt lat="47.41896" lon="-0.57171">
        <ele>22</ele>
        <time>2023-07-19T12:53:20Z</time>
      </trkpt>
      <trkpt lat="47.41897" lon="-0.57167">
        <ele>22</ele>
        <time>2023-07-19T12:53:21Z</time>
      </trkpt>
      <trkpt lat="47.41899" lon="-0.57137">
        <ele>22.2</ele>
        <time>2023-07-19T12:53:27Z</time>
      </trkpt>
      <trkpt lat="47.41902" lon="-0.57123">
        <ele>22.2</ele>
        <time>2023-07-19T12:53:30Z</time>
      </trkpt>
      <trkpt lat="47.41903" lon="-0.57119">
        <ele>22.2</ele>
        <time>2023-07-19T12:53:31Z</time>
      </trkpt>
      <trkpt lat="47.41905" lon="-0.5711">
        <ele>22.2</ele>
        <time>2023-07-19T12:53:33Z</time>
      </trkpt>
      <trkpt lat="47.41907" lon="-0.57092">
        <ele>22.4</ele>
        <time>2023-07-19T12:53:37Z</time>
      </trkpt>
      <trkpt lat="47.41908" lon="-0.57088">
        <ele>22.4</ele>
        <time>2023-07-19T12:53:38Z</time>
      </trkpt>
      <trkpt lat="47.41909" lon="-0.57083">
        <ele>22.4</ele>
        <time>2023-07-19T12:53:39Z</time>
      </trkpt>
      <trkpt lat="47.41909" lon="-0.57078">
        <ele>22.4</ele>
        <time>2023-07-19T12:53:40Z</time>
      </trkpt>
      <trkpt lat="47.4191" lon="-0.57074">
        <ele>22.4</ele>
        <time>2023-07-19T12:53:41Z</time>
      </trkpt>
      <trkpt lat="47.4191" lon="-0.57069">
        <ele>22.4</ele>
        <time>2023-07-19T12:53:42Z</time>
      </trkpt>
      <trkpt lat="47.41912" lon="-0.57034">
        <ele>22.4</ele>
        <time>2023-07-19T12:53:48Z</time>
      </trkpt>
      <trkpt lat="47.41915" lon="-0.57007">
        <ele>22.4</ele>
        <time>2023-07-19T12:53:54Z</time>
      </trkpt>
      <trkpt lat="47.41915" lon="-0.57003">
        <ele>22.4</ele>
        <time>2023-07-19T12:53:55Z</time>
      </trkpt>
      <trkpt lat="47.41914" lon="-0.56995">
        <ele>22.4</ele>
        <time>2023-07-19T12:53:57Z</time>
      </trkpt>
      <trkpt lat="47.41914" lon="-0.56991">
        <ele>22.4</ele>
        <time>2023-07-19T12:53:58Z</time>
      </trkpt>
      <trkpt lat="47.41915" lon="-0.56988">
        <ele>22.4</ele>
        <time>2023-07-19T12:53:59Z</time>
      </trkpt>
      <trkpt lat="47.41916" lon="-0.56985">
        <ele>22.4</ele>
        <time>2023-07-19T12:54:00Z</time>
      </trkpt>
      <trkpt lat="47.41916" lon="-0.56981">
        <ele>22.4</ele>
        <time>2023-07-19T12:54:01Z</time>
      </trkpt>
      <trkpt lat="47.41917" lon="-0.56977">
        <ele>22.4</ele>
        <time>2023-07-19T12:54:02Z</time>
      </trkpt>
      <trkpt lat="47.41917" lon="-0.56974">
        <ele>22.4</ele>
        <time>2023-07-19T12:54:03Z</time>
      </trkpt>
      <trkpt lat="47.41918" lon="-0.5697">
        <ele>22.4</ele>
        <time>2023-07-19T12:54:04Z</time>
      </trkpt>
      <trkpt lat="47.41918" lon="-0.56966">
        <ele>22.4</ele>
        <time>2023-07-19T12:54:05Z</time>
      </trkpt>
      <trkpt lat="47.41919" lon="-0.56961">
        <ele>22.4</ele>
        <time>2023-07-19T12:54:06Z</time>
      </trkpt>
      <trkpt lat="47.41919" lon="-0.56958">
        <ele>22.4</ele>
        <time>2023-07-19T12:54:07Z</time>
      </trkpt>
      <trkpt lat="47.41921" lon="-0.56925">
        <ele>22.4</ele>
        <time>2023-07-19T12:54:15Z</time>
      </trkpt>
      <trkpt lat="47.41921" lon="-0.56922">
        <ele>22.4</ele>
        <time>2023-07-19T12:54:16Z</time>
      </trkpt>
      <trkpt lat="47.4192" lon="-0.56918">
        <ele>22.4</ele>
        <time>2023-07-19T12:54:17Z</time>
      </trkpt>
      <trkpt lat="47.41921" lon="-0.56915">
        <ele>22.4</ele>
        <time>2023-07-19T12:54:18Z</time>
      </trkpt>
      <trkpt lat="47.4192" lon="-0.56913">
        <ele>22.4</ele>
        <time>2023-07-19T12:54:19Z</time>
      </trkpt>
      <trkpt lat="47.4192" lon="-0.56911">
        <ele>22.6</ele>
        <time>2023-07-19T12:54:20Z</time>
      </trkpt>
      <trkpt lat="47.4192" lon="-0.56911">
        <ele>22.6</ele>
        <time>2023-07-19T12:54:21Z</time>
      </trkpt>
      <trkpt lat="47.41919" lon="-0.5691">
        <ele>22.6</ele>
        <time>2023-07-19T12:54:22Z</time>
      </trkpt>
      <trkpt lat="47.41919" lon="-0.56909">
        <ele>22.6</ele>
        <time>2023-07-19T12:54:23Z</time>
      </trkpt>
      <trkpt lat="47.41918" lon="-0.56908">
        <ele>22.8</ele>
        <time>2023-07-19T12:54:24Z</time>
      </trkpt>
      <trkpt lat="47.41915" lon="-0.56905">
        <ele>22.8</ele>
        <time>2023-07-19T12:54:27Z</time>
      </trkpt>
      <trkpt lat="47.41908" lon="-0.569">
        <ele>23.2</ele>
        <time>2023-07-19T12:54:31Z</time>
      </trkpt>
      <trkpt lat="47.41907" lon="-0.56897">
        <ele>23.2</ele>
        <time>2023-07-19T12:54:32Z</time>
      </trkpt>
      <trkpt lat="47.41906" lon="-0.56895">
        <ele>23.2</ele>
        <time>2023-07-19T12:54:33Z</time>
      </trkpt>
      <trkpt lat="47.41906" lon="-0.56891">
        <ele>23.4</ele>
        <time>2023-07-19T12:54:34Z</time>
      </trkpt>
      <trkpt lat="47.41906" lon="-0.56883">
        <ele>23.4</ele>
        <time>2023-07-19T12:54:36Z</time>
      </trkpt>
      <trkpt lat="47.41907" lon="-0.5688">
        <ele>23.4</ele>
        <time>2023-07-19T12:54:37Z</time>
      </trkpt>
      <trkpt lat="47.41908" lon="-0.56861">
        <ele>23.4</ele>
        <time>2023-07-19T12:54:42Z</time>
      </trkpt>
      <trkpt lat="47.41911" lon="-0.56831">
        <ele>23</ele>
        <time>2023-07-19T12:54:50Z</time>
      </trkpt>
      <trkpt lat="47.41911" lon="-0.56824">
        <ele>22.8</ele>
        <time>2023-07-19T12:54:52Z</time>
      </trkpt>
      <trkpt lat="47.41912" lon="-0.5681">
        <ele>22.8</ele>
        <time>2023-07-19T12:54:56Z</time>
      </trkpt>
      <trkpt lat="47.41916" lon="-0.5676">
        <ele>23</ele>
        <time>2023-07-19T12:55:06Z</time>
      </trkpt>
      <trkpt lat="47.4192" lon="-0.56711">
        <ele>23</ele>
        <time>2023-07-19T12:55:15Z</time>
      </trkpt>
      <trkpt lat="47.41922" lon="-0.56688">
        <ele>23</ele>
        <time>2023-07-19T12:55:19Z</time>
      </trkpt>
      <trkpt lat="47.41925" lon="-0.5664">
        <ele>23</ele>
        <time>2023-07-19T12:55:27Z</time>
      </trkpt>
      <trkpt lat="47.4193" lon="-0.56593">
        <ele>23.2</ele>
        <time>2023-07-19T12:55:35Z</time>
      </trkpt>
      <trkpt lat="47.4193" lon="-0.56587">
        <ele>23.2</ele>
        <time>2023-07-19T12:55:36Z</time>
      </trkpt>
      <trkpt lat="47.41931" lon="-0.56581">
        <ele>23.2</ele>
        <time>2023-07-19T12:55:37Z</time>
      </trkpt>
      <trkpt lat="47.41932" lon="-0.56576">
        <ele>23.2</ele>
        <time>2023-07-19T12:55:38Z</time>
      </trkpt>
      <trkpt lat="47.41933" lon="-0.5657">
        <ele>23</ele>
        <time>2023-07-19T12:55:39Z</time>
      </trkpt>
      <trkpt lat="47.41937" lon="-0.56533">
        <ele>23</ele>
        <time>2023-07-19T12:55:45Z</time>
      </trkpt>
      <trkpt lat="47.41939" lon="-0.56505">
        <ele>23</ele>
        <time>2023-07-19T12:55:50Z</time>
      </trkpt>
      <trkpt lat="47.4194" lon="-0.56499">
        <ele>22.8</ele>
        <time>2023-07-19T12:55:51Z</time>
      </trkpt>
      <trkpt lat="47.4194" lon="-0.56495">
        <ele>22.8</ele>
        <time>2023-07-19T12:55:52Z</time>
      </trkpt>
      <trkpt lat="47.41941" lon="-0.5649">
        <ele>22.8</ele>
        <time>2023-07-19T12:55:53Z</time>
      </trkpt>
      <trkpt lat="47.41942" lon="-0.56484">
        <ele>22.8</ele>
        <time>2023-07-19T12:55:54Z</time>
      </trkpt>
      <trkpt lat="47.41942" lon="-0.56479">
        <ele>22.8</ele>
        <time>2023-07-19T12:55:55Z</time>
      </trkpt>
      <trkpt lat="47.41943" lon="-0.56475">
        <ele>22.8</ele>
        <time>2023-07-19T12:55:56Z</time>
      </trkpt>
      <trkpt lat="47.41943" lon="-0.56468">
        <ele>22.8</ele>
        <time>2023-07-19T12:55:57Z</time>
      </trkpt>
      <trkpt lat="47.41945" lon="-0.56448">
        <ele>22.8</ele>
        <time>2023-07-19T12:56:01Z</time>
      </trkpt>
      <trkpt lat="47.41946" lon="-0.56436">
        <ele>22.8</ele>
        <time>2023-07-19T12:56:03Z</time>
      </trkpt>
      <trkpt lat="47.41949" lon="-0.56392">
        <ele>22.8</ele>
        <time>2023-07-19T12:56:11Z</time>
      </trkpt>
      <trkpt lat="47.4195" lon="-0.56387">
        <ele>22.8</ele>
        <time>2023-07-19T12:56:12Z</time>
      </trkpt>
      <trkpt lat="47.41951" lon="-0.56382">
        <ele>22.6</ele>
        <time>2023-07-19T12:56:13Z</time>
      </trkpt>
      <trkpt lat="47.41953" lon="-0.56354">
        <ele>22.2</ele>
        <time>2023-07-19T12:56:18Z</time>
      </trkpt>
      <trkpt lat="47.41954" lon="-0.56347">
        <ele>22.2</ele>
        <time>2023-07-19T12:56:19Z</time>
      </trkpt>
      <trkpt lat="47.41958" lon="-0.56315">
        <ele>22.2</ele>
        <time>2023-07-19T12:56:25Z</time>
      </trkpt>
      <trkpt lat="47.41959" lon="-0.5631">
        <ele>22.2</ele>
        <time>2023-07-19T12:56:26Z</time>
      </trkpt>
      <trkpt lat="47.41963" lon="-0.56264">
        <ele>22.2</ele>
        <time>2023-07-19T12:56:34Z</time>
      </trkpt>
      <trkpt lat="47.41965" lon="-0.56213">
        <ele>22.4</ele>
        <time>2023-07-19T12:56:43Z</time>
      </trkpt>
      <trkpt lat="47.41966" lon="-0.56202">
        <ele>22.4</ele>
        <time>2023-07-19T12:56:45Z</time>
      </trkpt>
      <trkpt lat="47.41971" lon="-0.5616">
        <ele>22.6</ele>
        <time>2023-07-19T12:56:52Z</time>
      </trkpt>
      <trkpt lat="47.41973" lon="-0.56115">
        <ele>22.6</ele>
        <time>2023-07-19T12:57:00Z</time>
      </trkpt>
      <trkpt lat="47.41973" lon="-0.56081">
        <ele>22.6</ele>
        <time>2023-07-19T12:57:06Z</time>
      </trkpt>
      <trkpt lat="47.41973" lon="-0.56076">
        <ele>22.6</ele>
        <time>2023-07-19T12:57:07Z</time>
      </trkpt>
      <trkpt lat="47.41973" lon="-0.56071">
        <ele>22.6</ele>
        <time>2023-07-19T12:57:08Z</time>
      </trkpt>
      <trkpt lat="47.41973" lon="-0.56065">
        <ele>22.6</ele>
        <time>2023-07-19T12:57:09Z</time>
      </trkpt>
      <trkpt lat="47.41973" lon="-0.5606">
        <ele>22.8</ele>
        <time>2023-07-19T12:57:10Z</time>
      </trkpt>
      <trkpt lat="47.41973" lon="-0.56055">
        <ele>22.6</ele>
        <time>2023-07-19T12:57:11Z</time>
      </trkpt>
      <trkpt lat="47.41973" lon="-0.56049">
        <ele>22.6</ele>
        <time>2023-07-19T12:57:12Z</time>
      </trkpt>
      <trkpt lat="47.41973" lon="-0.56038">
        <ele>22.8</ele>
        <time>2023-07-19T12:57:14Z</time>
      </trkpt>
      <trkpt lat="47.41972" lon="-0.56027">
        <ele>22.8</ele>
        <time>2023-07-19T12:57:16Z</time>
      </trkpt>
      <trkpt lat="47.41973" lon="-0.56022">
        <ele>22.8</ele>
        <time>2023-07-19T12:57:17Z</time>
      </trkpt>
      <trkpt lat="47.41973" lon="-0.56017">
        <ele>22.8</ele>
        <time>2023-07-19T12:57:18Z</time>
      </trkpt>
      <trkpt lat="47.41974" lon="-0.56001">
        <ele>22.8</ele>
        <time>2023-07-19T12:57:21Z</time>
      </trkpt>
      <trkpt lat="47.41974" lon="-0.55995">
        <ele>22.8</ele>
        <time>2023-07-19T12:57:22Z</time>
      </trkpt>
      <trkpt lat="47.41975" lon="-0.55989">
        <ele>22.8</ele>
        <time>2023-07-19T12:57:23Z</time>
      </trkpt>
      <trkpt lat="47.41977" lon="-0.55973">
        <ele>22.8</ele>
        <time>2023-07-19T12:57:26Z</time>
      </trkpt>
      <trkpt lat="47.4198" lon="-0.55955">
        <ele>22.8</ele>
        <time>2023-07-19T12:57:30Z</time>
      </trkpt>
      <trkpt lat="47.41979" lon="-0.55951">
        <ele>22.8</ele>
        <time>2023-07-19T12:57:31Z</time>
      </trkpt>
      <trkpt lat="47.41978" lon="-0.55948">
        <ele>22.8</ele>
        <time>2023-07-19T12:57:32Z</time>
      </trkpt>
      <trkpt lat="47.41976" lon="-0.55945">
        <ele>22.8</ele>
        <time>2023-07-19T12:57:33Z</time>
      </trkpt>
      <trkpt lat="47.41974" lon="-0.55941">
        <ele>22.8</ele>
        <time>2023-07-19T12:57:34Z</time>
      </trkpt>
      <trkpt lat="47.41972" lon="-0.55936">
        <ele>22.8</ele>
        <time>2023-07-19T12:57:35Z</time>
      </trkpt>
      <trkpt lat="47.41972" lon="-0.55929">
        <ele>22.8</ele>
        <time>2023-07-19T12:57:37Z</time>
      </trkpt>
      <trkpt lat="47.41972" lon="-0.55924">
        <ele>22.6</ele>
        <time>2023-07-19T12:57:38Z</time>
      </trkpt>
      <trkpt lat="47.41973" lon="-0.5592">
        <ele>22.6</ele>
        <time>2023-07-19T12:57:39Z</time>
      </trkpt>
      <trkpt lat="47.41974" lon="-0.55913">
        <ele>22.6</ele>
        <time>2023-07-19T12:57:40Z</time>
      </trkpt>
      <trkpt lat="47.41977" lon="-0.55885">
        <ele>22.4</ele>
        <time>2023-07-19T12:57:45Z</time>
      </trkpt>
      <trkpt lat="47.4198" lon="-0.55869">
        <ele>22</ele>
        <time>2023-07-19T12:57:48Z</time>
      </trkpt>
      <trkpt lat="47.41985" lon="-0.55847">
        <ele>21.6</ele>
        <time>2023-07-19T12:57:52Z</time>
      </trkpt>
      <trkpt lat="47.41989" lon="-0.55818">
        <ele>21.4</ele>
        <time>2023-07-19T12:57:57Z</time>
      </trkpt>
      <trkpt lat="47.41995" lon="-0.55791">
        <ele>21.2</ele>
        <time>2023-07-19T12:58:02Z</time>
      </trkpt>
      <trkpt lat="47.41999" lon="-0.55782">
        <ele>21.2</ele>
        <time>2023-07-19T12:58:04Z</time>
      </trkpt>
      <trkpt lat="47.42001" lon="-0.55778">
        <ele>21</ele>
        <time>2023-07-19T12:58:05Z</time>
      </trkpt>
      <trkpt lat="47.42002" lon="-0.55774">
        <ele>21</ele>
        <time>2023-07-19T12:58:06Z</time>
      </trkpt>
      <trkpt lat="47.42004" lon="-0.5577">
        <ele>21</ele>
        <time>2023-07-19T12:58:07Z</time>
      </trkpt>
      <trkpt lat="47.42005" lon="-0.55766">
        <ele>20.8</ele>
        <time>2023-07-19T12:58:08Z</time>
      </trkpt>
      <trkpt lat="47.42006" lon="-0.55763">
        <ele>20.8</ele>
        <time>2023-07-19T12:58:09Z</time>
      </trkpt>
      <trkpt lat="47.42008" lon="-0.55759">
        <ele>20.8</ele>
        <time>2023-07-19T12:58:10Z</time>
      </trkpt>
      <trkpt lat="47.42017" lon="-0.55742">
        <ele>20.8</ele>
        <time>2023-07-19T12:58:14Z</time>
      </trkpt>
      <trkpt lat="47.42029" lon="-0.55722">
        <ele>20.2</ele>
        <time>2023-07-19T12:58:19Z</time>
      </trkpt>
      <trkpt lat="47.42038" lon="-0.55708">
        <ele>20.2</ele>
        <time>2023-07-19T12:58:23Z</time>
      </trkpt>
      <trkpt lat="47.4204" lon="-0.55705">
        <ele>20.4</ele>
        <time>2023-07-19T12:58:24Z</time>
      </trkpt>
      <trkpt lat="47.42043" lon="-0.55701">
        <ele>20.4</ele>
        <time>2023-07-19T12:58:25Z</time>
      </trkpt>
      <trkpt lat="47.42045" lon="-0.55698">
        <ele>20.4</ele>
        <time>2023-07-19T12:58:26Z</time>
      </trkpt>
      <trkpt lat="47.42047" lon="-0.55695">
        <ele>20.6</ele>
        <time>2023-07-19T12:58:27Z</time>
      </trkpt>
      <trkpt lat="47.42049" lon="-0.55693">
        <ele>20.4</ele>
        <time>2023-07-19T12:58:28Z</time>
      </trkpt>
      <trkpt lat="47.42058" lon="-0.55689">
        <ele>20.4</ele>
        <time>2023-07-19T12:58:31Z</time>
      </trkpt>
      <trkpt lat="47.4206" lon="-0.55689">
        <ele>20.4</ele>
        <time>2023-07-19T12:58:32Z</time>
      </trkpt>
      <trkpt lat="47.42062" lon="-0.55689">
        <ele>20.4</ele>
        <time>2023-07-19T12:58:33Z</time>
      </trkpt>
      <trkpt lat="47.42064" lon="-0.55688">
        <ele>20.6</ele>
        <time>2023-07-19T12:58:34Z</time>
      </trkpt>
      <trkpt lat="47.42065" lon="-0.55686">
        <ele>20.6</ele>
        <time>2023-07-19T12:58:35Z</time>
      </trkpt>
      <trkpt lat="47.42066" lon="-0.55684">
        <ele>20.6</ele>
        <time>2023-07-19T12:58:36Z</time>
      </trkpt>
      <trkpt lat="47.42072" lon="-0.55672">
        <ele>21</ele>
        <time>2023-07-19T12:58:40Z</time>
      </trkpt>
      <trkpt lat="47.42073" lon="-0.5567">
        <ele>21.2</ele>
        <time>2023-07-19T12:58:41Z</time>
      </trkpt>
      <trkpt lat="47.42075" lon="-0.55666">
        <ele>21.2</ele>
        <time>2023-07-19T12:58:42Z</time>
      </trkpt>
      <trkpt lat="47.42088" lon="-0.55634">
        <ele>22</ele>
        <time>2023-07-19T12:58:51Z</time>
      </trkpt>
      <trkpt lat="47.42095" lon="-0.55616">
        <ele>22.2</ele>
        <time>2023-07-19T12:58:55Z</time>
      </trkpt>
      <trkpt lat="47.42096" lon="-0.55612">
        <ele>22.2</ele>
        <time>2023-07-19T12:58:56Z</time>
      </trkpt>
      <trkpt lat="47.42098" lon="-0.55608">
        <ele>22.2</ele>
        <time>2023-07-19T12:58:57Z</time>
      </trkpt>
      <trkpt lat="47.42104" lon="-0.55591">
        <ele>22.4</ele>
        <time>2023-07-19T12:59:01Z</time>
      </trkpt>
      <trkpt lat="47.42106" lon="-0.55587">
        <ele>22.4</ele>
        <time>2023-07-19T12:59:02Z</time>
      </trkpt>
      <trkpt lat="47.42112" lon="-0.55576">
        <ele>22.4</ele>
        <time>2023-07-19T12:59:05Z</time>
      </trkpt>
      <trkpt lat="47.42118" lon="-0.55562">
        <ele>22.6</ele>
        <time>2023-07-19T12:59:09Z</time>
      </trkpt>
      <trkpt lat="47.42119" lon="-0.55558">
        <ele>22.6</ele>
        <time>2023-07-19T12:59:10Z</time>
      </trkpt>
      <trkpt lat="47.42121" lon="-0.55555">
        <ele>22.6</ele>
        <time>2023-07-19T12:59:11Z</time>
      </trkpt>
      <trkpt lat="47.42123" lon="-0.55552">
        <ele>22.6</ele>
        <time>2023-07-19T12:59:12Z</time>
      </trkpt>
      <trkpt lat="47.42125" lon="-0.55548">
        <ele>22.6</ele>
        <time>2023-07-19T12:59:13Z</time>
      </trkpt>
      <trkpt lat="47.42134" lon="-0.55525">
        <ele>22.8</ele>
        <time>2023-07-19T12:59:19Z</time>
      </trkpt>
      <trkpt lat="47.42152" lon="-0.55486">
        <ele>23</ele>
        <time>2023-07-19T12:59:29Z</time>
      </trkpt>
      <trkpt lat="47.42164" lon="-0.55452">
        <ele>23</ele>
        <time>2023-07-19T12:59:37Z</time>
      </trkpt>
      <trkpt lat="47.42168" lon="-0.55444">
        <ele>23</ele>
        <time>2023-07-19T12:59:39Z</time>
      </trkpt>
      <trkpt lat="47.42171" lon="-0.55435">
        <ele>23</ele>
        <time>2023-07-19T12:59:41Z</time>
      </trkpt>
      <trkpt lat="47.42178" lon="-0.55418">
        <ele>23</ele>
        <time>2023-07-19T12:59:45Z</time>
      </trkpt>
      <trkpt lat="47.4219" lon="-0.55377">
        <ele>23</ele>
        <time>2023-07-19T12:59:54Z</time>
      </trkpt>
      <trkpt lat="47.42204" lon="-0.55329">
        <ele>23.2</ele>
        <time>2023-07-19T13:00:04Z</time>
      </trkpt>
      <trkpt lat="47.42215" lon="-0.55282">
        <ele>23.6</ele>
        <time>2023-07-19T13:00:14Z</time>
      </trkpt>
      <trkpt lat="47.42217" lon="-0.55273">
        <ele>23.6</ele>
        <time>2023-07-19T13:00:16Z</time>
      </trkpt>
      <trkpt lat="47.4222" lon="-0.55264">
        <ele>23.6</ele>
        <time>2023-07-19T13:00:18Z</time>
      </trkpt>
      <trkpt lat="47.42221" lon="-0.55259">
        <ele>23.6</ele>
        <time>2023-07-19T13:00:19Z</time>
      </trkpt>
      <trkpt lat="47.42223" lon="-0.55255">
        <ele>23.8</ele>
        <time>2023-07-19T13:00:20Z</time>
      </trkpt>
      <trkpt lat="47.42224" lon="-0.55251">
        <ele>23.8</ele>
        <time>2023-07-19T13:00:21Z</time>
      </trkpt>
      <trkpt lat="47.42226" lon="-0.55247">
        <ele>23.8</ele>
        <time>2023-07-19T13:00:22Z</time>
      </trkpt>
      <trkpt lat="47.42227" lon="-0.55243">
        <ele>23.8</ele>
        <time>2023-07-19T13:00:23Z</time>
      </trkpt>
      <trkpt lat="47.42229" lon="-0.55239">
        <ele>23.8</ele>
        <time>2023-07-19T13:00:24Z</time>
      </trkpt>
      <trkpt lat="47.4223" lon="-0.55234">
        <ele>23.8</ele>
        <time>2023-07-19T13:00:25Z</time>
      </trkpt>
      <trkpt lat="47.42231" lon="-0.5523">
        <ele>23.8</ele>
        <time>2023-07-19T13:00:26Z</time>
      </trkpt>
      <trkpt lat="47.42234" lon="-0.55222">
        <ele>23.8</ele>
        <time>2023-07-19T13:00:28Z</time>
      </trkpt>
      <trkpt lat="47.42237" lon="-0.55219">
        <ele>23.8</ele>
        <time>2023-07-19T13:00:29Z</time>
      </trkpt>
      <trkpt lat="47.42239" lon="-0.55216">
        <ele>23.6</ele>
        <time>2023-07-19T13:00:30Z</time>
      </trkpt>
      <trkpt lat="47.42262" lon="-0.55181">
        <ele>23.6</ele>
        <time>2023-07-19T13:00:40Z</time>
      </trkpt>
      <trkpt lat="47.42277" lon="-0.55156">
        <ele>23.6</ele>
        <time>2023-07-19T13:00:47Z</time>
      </trkpt>
      <trkpt lat="47.42279" lon="-0.55153">
        <ele>23.6</ele>
        <time>2023-07-19T13:00:48Z</time>
      </trkpt>
      <trkpt lat="47.42283" lon="-0.55147">
        <ele>23.6</ele>
        <time>2023-07-19T13:00:50Z</time>
      </trkpt>
      <trkpt lat="47.42285" lon="-0.55145">
        <ele>23.6</ele>
        <time>2023-07-19T13:00:51Z</time>
      </trkpt>
      <trkpt lat="47.42286" lon="-0.55141">
        <ele>23.6</ele>
        <time>2023-07-19T13:00:52Z</time>
      </trkpt>
      <trkpt lat="47.42287" lon="-0.55138">
        <ele>23.6</ele>
        <time>2023-07-19T13:00:53Z</time>
      </trkpt>
      <trkpt lat="47.42289" lon="-0.55135">
        <ele>23.6</ele>
        <time>2023-07-19T13:00:54Z</time>
      </trkpt>
      <trkpt lat="47.4229" lon="-0.55132">
        <ele>23.6</ele>
        <time>2023-07-19T13:00:55Z</time>
      </trkpt>
      <trkpt lat="47.42292" lon="-0.55129">
        <ele>23.6</ele>
        <time>2023-07-19T13:00:56Z</time>
      </trkpt>
      <trkpt lat="47.42294" lon="-0.55126">
        <ele>23.6</ele>
        <time>2023-07-19T13:00:57Z</time>
      </trkpt>
      <trkpt lat="47.42296" lon="-0.55123">
        <ele>23.6</ele>
        <time>2023-07-19T13:00:58Z</time>
      </trkpt>
      <trkpt lat="47.42298" lon="-0.5512">
        <ele>23.6</ele>
        <time>2023-07-19T13:00:59Z</time>
      </trkpt>
      <trkpt lat="47.42299" lon="-0.55117">
        <ele>23.8</ele>
        <time>2023-07-19T13:01:00Z</time>
      </trkpt>
      <trkpt lat="47.42305" lon="-0.55109">
        <ele>24</ele>
        <time>2023-07-19T13:01:03Z</time>
      </trkpt>
      <trkpt lat="47.4231" lon="-0.55102">
        <ele>24</ele>
        <time>2023-07-19T13:01:06Z</time>
      </trkpt>
      <trkpt lat="47.42312" lon="-0.551">
        <ele>24</ele>
        <time>2023-07-19T13:01:07Z</time>
      </trkpt>
      <trkpt lat="47.42315" lon="-0.55099">
        <ele>24</ele>
        <time>2023-07-19T13:01:08Z</time>
      </trkpt>
      <trkpt lat="47.42317" lon="-0.55098">
        <ele>24</ele>
        <time>2023-07-19T13:01:09Z</time>
      </trkpt>
      <trkpt lat="47.42319" lon="-0.55096">
        <ele>24</ele>
        <time>2023-07-19T13:01:10Z</time>
      </trkpt>
      <trkpt lat="47.42321" lon="-0.55094">
        <ele>24.2</ele>
        <time>2023-07-19T13:01:11Z</time>
      </trkpt>
      <trkpt lat="47.42324" lon="-0.55092">
        <ele>24.2</ele>
        <time>2023-07-19T13:01:12Z</time>
      </trkpt>
      <trkpt lat="47.42326" lon="-0.5509">
        <ele>24.2</ele>
        <time>2023-07-19T13:01:13Z</time>
      </trkpt>
      <trkpt lat="47.42328" lon="-0.55087">
        <ele>24.2</ele>
        <time>2023-07-19T13:01:14Z</time>
      </trkpt>
      <trkpt lat="47.4233" lon="-0.55084">
        <ele>24.4</ele>
        <time>2023-07-19T13:01:15Z</time>
      </trkpt>
      <trkpt lat="47.42332" lon="-0.55082">
        <ele>24.4</ele>
        <time>2023-07-19T13:01:16Z</time>
      </trkpt>
      <trkpt lat="47.42334" lon="-0.55081">
        <ele>24.6</ele>
        <time>2023-07-19T13:01:17Z</time>
      </trkpt>
      <trkpt lat="47.42335" lon="-0.5508">
        <ele>24.6</ele>
        <time>2023-07-19T13:01:18Z</time>
      </trkpt>
      <trkpt lat="47.42337" lon="-0.55079">
        <ele>24.8</ele>
        <time>2023-07-19T13:01:19Z</time>
      </trkpt>
      <trkpt lat="47.42338" lon="-0.55077">
        <ele>24.8</ele>
        <time>2023-07-19T13:01:20Z</time>
      </trkpt>
      <trkpt lat="47.42339" lon="-0.55075">
        <ele>24.8</ele>
        <time>2023-07-19T13:01:21Z</time>
      </trkpt>
      <trkpt lat="47.4234" lon="-0.55073">
        <ele>25</ele>
        <time>2023-07-19T13:01:22Z</time>
      </trkpt>
      <trkpt lat="47.42341" lon="-0.55072">
        <ele>25</ele>
        <time>2023-07-19T13:01:23Z</time>
      </trkpt>
      <trkpt lat="47.42341" lon="-0.55072">
        <ele>25.2</ele>
        <time>2023-07-19T13:01:24Z</time>
      </trkpt>
      <trkpt lat="47.42341" lon="-0.55072">
        <ele>25.4</ele>
        <time>2023-07-19T13:01:25Z</time>
      </trkpt>
      <trkpt lat="47.42341" lon="-0.55072">
        <ele>25.6</ele>
        <time>2023-07-19T13:01:26Z</time>
      </trkpt>
      <trkpt lat="47.42342" lon="-0.55063">
        <ele>27</ele>
        <time>2023-07-19T13:01:37Z</time>
      </trkpt>
      <trkpt lat="47.42342" lon="-0.5506">
        <ele>27</ele>
        <time>2023-07-19T13:01:38Z</time>
      </trkpt>
      <trkpt lat="47.42341" lon="-0.55056">
        <ele>27</ele>
        <time>2023-07-19T13:01:39Z</time>
      </trkpt>
      <trkpt lat="47.42341" lon="-0.55053">
        <ele>27</ele>
        <time>2023-07-19T13:01:40Z</time>
      </trkpt>
      <trkpt lat="47.42339" lon="-0.5505">
        <ele>27</ele>
        <time>2023-07-19T13:01:41Z</time>
      </trkpt>
      <trkpt lat="47.42338" lon="-0.55047">
        <ele>27</ele>
        <time>2023-07-19T13:01:42Z</time>
      </trkpt>
      <trkpt lat="47.42337" lon="-0.55044">
        <ele>27</ele>
        <time>2023-07-19T13:01:43Z</time>
      </trkpt>
      <trkpt lat="47.42328" lon="-0.55023">
        <ele>27</ele>
        <time>2023-07-19T13:01:50Z</time>
      </trkpt>
      <trkpt lat="47.42319" lon="-0.54997">
        <ele>27.2</ele>
        <time>2023-07-19T13:01:57Z</time>
      </trkpt>
      <trkpt lat="47.42318" lon="-0.54995">
        <ele>27.2</ele>
        <time>2023-07-19T13:01:58Z</time>
      </trkpt>
      <trkpt lat="47.42317" lon="-0.54992">
        <ele>27.2</ele>
        <time>2023-07-19T13:01:59Z</time>
      </trkpt>
      <trkpt lat="47.42317" lon="-0.54991">
        <ele>27.2</ele>
        <time>2023-07-19T13:02:00Z</time>
      </trkpt>
      <trkpt lat="47.42317" lon="-0.5499">
        <ele>27.2</ele>
        <time>2023-07-19T13:02:01Z</time>
      </trkpt>
      <trkpt lat="47.42317" lon="-0.5499">
        <ele>27.2</ele>
        <time>2023-07-19T13:02:03Z</time>
      </trkpt>
      <trkpt lat="47.42321" lon="-0.54987">
        <ele>27</ele>
        <time>2023-07-19T13:02:13Z</time>
      </trkpt>
      <trkpt lat="47.42323" lon="-0.54985">
        <ele>27</ele>
        <time>2023-07-19T13:02:14Z</time>
      </trkpt>
      <trkpt lat="47.42325" lon="-0.54984">
        <ele>27.2</ele>
        <time>2023-07-19T13:02:15Z</time>
      </trkpt>
      <trkpt lat="47.42337" lon="-0.54968">
        <ele>27</ele>
        <time>2023-07-19T13:02:20Z</time>
      </trkpt>
      <trkpt lat="47.42349" lon="-0.54958">
        <ele>26.8</ele>
        <time>2023-07-19T13:02:24Z</time>
      </trkpt>
      <trkpt lat="47.4235" lon="-0.54954">
        <ele>26.8</ele>
        <time>2023-07-19T13:02:25Z</time>
      </trkpt>
      <trkpt lat="47.42349" lon="-0.54952">
        <ele>26.8</ele>
        <time>2023-07-19T13:02:26Z</time>
      </trkpt>
      <trkpt lat="47.42347" lon="-0.5495">
        <ele>26.8</ele>
        <time>2023-07-19T13:02:27Z</time>
      </trkpt>
      <trkpt lat="47.42344" lon="-0.5495">
        <ele>26.8</ele>
        <time>2023-07-19T13:02:28Z</time>
      </trkpt>
      <trkpt lat="47.42335" lon="-0.54959">
        <ele>26.4</ele>
        <time>2023-07-19T13:02:32Z</time>
      </trkpt>
      <trkpt lat="47.42331" lon="-0.54962">
        <ele>26.4</ele>
        <time>2023-07-19T13:02:33Z</time>
      </trkpt>
      <trkpt lat="47.42327" lon="-0.54966">
        <ele>26.2</ele>
        <time>2023-07-19T13:02:34Z</time>
      </trkpt>
      <trkpt lat="47.42318" lon="-0.54967">
        <ele>26.2</ele>
        <time>2023-07-19T13:02:36Z</time>
      </trkpt>
      <trkpt lat="47.42314" lon="-0.54965">
        <ele>26</ele>
        <time>2023-07-19T13:02:37Z</time>
      </trkpt>
      <trkpt lat="47.42311" lon="-0.54962">
        <ele>25.8</ele>
        <time>2023-07-19T13:02:38Z</time>
      </trkpt>
      <trkpt lat="47.4231" lon="-0.54958">
        <ele>25.6</ele>
        <time>2023-07-19T13:02:39Z</time>
      </trkpt>
      <trkpt lat="47.42309" lon="-0.54954">
        <ele>25.2</ele>
        <time>2023-07-19T13:02:40Z</time>
      </trkpt>
      <trkpt lat="47.42309" lon="-0.54949">
        <ele>25</ele>
        <time>2023-07-19T13:02:41Z</time>
      </trkpt>
      <trkpt lat="47.4231" lon="-0.54944">
        <ele>24.6</ele>
        <time>2023-07-19T13:02:42Z</time>
      </trkpt>
      <trkpt lat="47.42311" lon="-0.5494">
        <ele>24.2</ele>
        <time>2023-07-19T13:02:43Z</time>
      </trkpt>
      <trkpt lat="47.42312" lon="-0.54936">
        <ele>24</ele>
        <time>2023-07-19T13:02:44Z</time>
      </trkpt>
      <trkpt lat="47.42313" lon="-0.54932">
        <ele>23.6</ele>
        <time>2023-07-19T13:02:45Z</time>
      </trkpt>
      <trkpt lat="47.42314" lon="-0.54927">
        <ele>23.4</ele>
        <time>2023-07-19T13:02:46Z</time>
      </trkpt>
      <trkpt lat="47.42316" lon="-0.54923">
        <ele>23.2</ele>
        <time>2023-07-19T13:02:47Z</time>
      </trkpt>
      <trkpt lat="47.42317" lon="-0.5492">
        <ele>23.2</ele>
        <time>2023-07-19T13:02:48Z</time>
      </trkpt>
      <trkpt lat="47.42318" lon="-0.54916">
        <ele>23</ele>
        <time>2023-07-19T13:02:49Z</time>
      </trkpt>
      <trkpt lat="47.42319" lon="-0.54908">
        <ele>22.8</ele>
        <time>2023-07-19T13:02:51Z</time>
      </trkpt>
      <trkpt lat="47.42319" lon="-0.54906">
        <ele>22.8</ele>
        <time>2023-07-19T13:02:52Z</time>
      </trkpt>
      <trkpt lat="47.42319" lon="-0.54902">
        <ele>22.8</ele>
        <time>2023-07-19T13:02:53Z</time>
      </trkpt>
      <trkpt lat="47.4232" lon="-0.54899">
        <ele>22.8</ele>
        <time>2023-07-19T13:02:54Z</time>
      </trkpt>
      <trkpt lat="47.42321" lon="-0.54895">
        <ele>22.8</ele>
        <time>2023-07-19T13:02:55Z</time>
      </trkpt>
      <trkpt lat="47.42322" lon="-0.54891">
        <ele>22.8</ele>
        <time>2023-07-19T13:02:56Z</time>
      </trkpt>
      <trkpt lat="47.42323" lon="-0.54889">
        <ele>22.8</ele>
        <time>2023-07-19T13:02:57Z</time>
      </trkpt>
      <trkpt lat="47.42323" lon="-0.54885">
        <ele>22.8</ele>
        <time>2023-07-19T13:02:58Z</time>
      </trkpt>
      <trkpt lat="47.42324" lon="-0.54883">
        <ele>22.8</ele>
        <time>2023-07-19T13:02:59Z</time>
      </trkpt>
      <trkpt lat="47.42324" lon="-0.5488">
        <ele>22.8</ele>
        <time>2023-07-19T13:03:00Z</time>
      </trkpt>
      <trkpt lat="47.42324" lon="-0.54876">
        <ele>22.8</ele>
        <time>2023-07-19T13:03:01Z</time>
      </trkpt>
      <trkpt lat="47.42324" lon="-0.54873">
        <ele>22.8</ele>
        <time>2023-07-19T13:03:02Z</time>
      </trkpt>
      <trkpt lat="47.42325" lon="-0.5487">
        <ele>22.8</ele>
        <time>2023-07-19T13:03:03Z</time>
      </trkpt>
      <trkpt lat="47.42325" lon="-0.54867">
        <ele>22.8</ele>
        <time>2023-07-19T13:03:04Z</time>
      </trkpt>
      <trkpt lat="47.42329" lon="-0.54841">
        <ele>22.8</ele>
        <time>2023-07-19T13:03:11Z</time>
      </trkpt>
      <trkpt lat="47.42334" lon="-0.54817">
        <ele>23</ele>
        <time>2023-07-19T13:03:18Z</time>
      </trkpt>
      <trkpt lat="47.42335" lon="-0.54814">
        <ele>23</ele>
        <time>2023-07-19T13:03:19Z</time>
      </trkpt>
      <trkpt lat="47.42342" lon="-0.5479">
        <ele>23</ele>
        <time>2023-07-19T13:03:26Z</time>
      </trkpt>
      <trkpt lat="47.42343" lon="-0.54787">
        <ele>23</ele>
        <time>2023-07-19T13:03:27Z</time>
      </trkpt>
      <trkpt lat="47.42344" lon="-0.54784">
        <ele>23</ele>
        <time>2023-07-19T13:03:28Z</time>
      </trkpt>
      <trkpt lat="47.42345" lon="-0.54782">
        <ele>23</ele>
        <time>2023-07-19T13:03:29Z</time>
      </trkpt>
      <trkpt lat="47.42348" lon="-0.54771">
        <ele>23.2</ele>
        <time>2023-07-19T13:03:32Z</time>
      </trkpt>
      <trkpt lat="47.42349" lon="-0.54768">
        <ele>23.2</ele>
        <time>2023-07-19T13:03:33Z</time>
      </trkpt>
      <trkpt lat="47.4235" lon="-0.54765">
        <ele>23.2</ele>
        <time>2023-07-19T13:03:34Z</time>
      </trkpt>
      <trkpt lat="47.42365" lon="-0.54733">
        <ele>23.4</ele>
        <time>2023-07-19T13:03:43Z</time>
      </trkpt>
      <trkpt lat="47.42374" lon="-0.54719">
        <ele>23.6</ele>
        <time>2023-07-19T13:03:47Z</time>
      </trkpt>
      <trkpt lat="47.42386" lon="-0.54703">
        <ele>23.8</ele>
        <time>2023-07-19T13:03:52Z</time>
      </trkpt>
      <trkpt lat="47.42402" lon="-0.5468">
        <ele>23.8</ele>
        <time>2023-07-19T13:03:59Z</time>
      </trkpt>
      <trkpt lat="47.42409" lon="-0.54669">
        <ele>23.6</ele>
        <time>2023-07-19T13:04:02Z</time>
      </trkpt>
      <trkpt lat="47.42414" lon="-0.54662">
        <ele>23.6</ele>
        <time>2023-07-19T13:04:04Z</time>
      </trkpt>
      <trkpt lat="47.42416" lon="-0.5466">
        <ele>23.6</ele>
        <time>2023-07-19T13:04:05Z</time>
      </trkpt>
      <trkpt lat="47.42418" lon="-0.54656">
        <ele>23.6</ele>
        <time>2023-07-19T13:04:06Z</time>
      </trkpt>
      <trkpt lat="47.4242" lon="-0.54654">
        <ele>23.6</ele>
        <time>2023-07-19T13:04:07Z</time>
      </trkpt>
      <trkpt lat="47.42422" lon="-0.5465">
        <ele>23.4</ele>
        <time>2023-07-19T13:04:08Z</time>
      </trkpt>
      <trkpt lat="47.42424" lon="-0.54647">
        <ele>23.4</ele>
        <time>2023-07-19T13:04:09Z</time>
      </trkpt>
      <trkpt lat="47.42427" lon="-0.54644">
        <ele>23.4</ele>
        <time>2023-07-19T13:04:10Z</time>
      </trkpt>
      <trkpt lat="47.42429" lon="-0.54642">
        <ele>23.4</ele>
        <time>2023-07-19T13:04:11Z</time>
      </trkpt>
      <trkpt lat="47.42433" lon="-0.54635">
        <ele>23.4</ele>
        <time>2023-07-19T13:04:13Z</time>
      </trkpt>
      <trkpt lat="47.42435" lon="-0.54632">
        <ele>23.4</ele>
        <time>2023-07-19T13:04:14Z</time>
      </trkpt>
      <trkpt lat="47.42437" lon="-0.54629">
        <ele>23.4</ele>
        <time>2023-07-19T13:04:15Z</time>
      </trkpt>
      <trkpt lat="47.42439" lon="-0.54626">
        <ele>23.4</ele>
        <time>2023-07-19T13:04:16Z</time>
      </trkpt>
      <trkpt lat="47.42441" lon="-0.54623">
        <ele>23.4</ele>
        <time>2023-07-19T13:04:17Z</time>
      </trkpt>
      <trkpt lat="47.42442" lon="-0.5462">
        <ele>23.4</ele>
        <time>2023-07-19T13:04:18Z</time>
      </trkpt>
      <trkpt lat="47.42444" lon="-0.54618">
        <ele>23.4</ele>
        <time>2023-07-19T13:04:19Z</time>
      </trkpt>
      <trkpt lat="47.42445" lon="-0.54615">
        <ele>23.4</ele>
        <time>2023-07-19T13:04:20Z</time>
      </trkpt>
      <trkpt lat="47.42447" lon="-0.54612">
        <ele>23.6</ele>
        <time>2023-07-19T13:04:21Z</time>
      </trkpt>
      <trkpt lat="47.42448" lon="-0.54609">
        <ele>23.6</ele>
        <time>2023-07-19T13:04:22Z</time>
      </trkpt>
      <trkpt lat="47.42449" lon="-0.54606">
        <ele>23.6</ele>
        <time>2023-07-19T13:04:23Z</time>
      </trkpt>
      <trkpt lat="47.42451" lon="-0.54602">
        <ele>23.6</ele>
        <time>2023-07-19T13:04:24Z</time>
      </trkpt>
      <trkpt lat="47.42452" lon="-0.54599">
        <ele>23.6</ele>
        <time>2023-07-19T13:04:25Z</time>
      </trkpt>
      <trkpt lat="47.42454" lon="-0.54596">
        <ele>23.6</ele>
        <time>2023-07-19T13:04:26Z</time>
      </trkpt>
      <trkpt lat="47.4246" lon="-0.5458">
        <ele>23.6</ele>
        <time>2023-07-19T13:04:30Z</time>
      </trkpt>
      <trkpt lat="47.42476" lon="-0.54544">
        <ele>23.6</ele>
        <time>2023-07-19T13:04:39Z</time>
      </trkpt>
      <trkpt lat="47.42485" lon="-0.54524">
        <ele>23.4</ele>
        <time>2023-07-19T13:04:44Z</time>
      </trkpt>
      <trkpt lat="47.42486" lon="-0.54521">
        <ele>23.4</ele>
        <time>2023-07-19T13:04:45Z</time>
      </trkpt>
      <trkpt lat="47.42488" lon="-0.54517">
        <ele>23.4</ele>
        <time>2023-07-19T13:04:46Z</time>
      </trkpt>
      <trkpt lat="47.42493" lon="-0.54505">
        <ele>23.4</ele>
        <time>2023-07-19T13:04:49Z</time>
      </trkpt>
      <trkpt lat="47.42498" lon="-0.54494">
        <ele>23.2</ele>
        <time>2023-07-19T13:04:52Z</time>
      </trkpt>
      <trkpt lat="47.425" lon="-0.5449">
        <ele>23.2</ele>
        <time>2023-07-19T13:04:53Z</time>
      </trkpt>
      <trkpt lat="47.42501" lon="-0.54488">
        <ele>23.2</ele>
        <time>2023-07-19T13:04:54Z</time>
      </trkpt>
      <trkpt lat="47.42503" lon="-0.54484">
        <ele>23.2</ele>
        <time>2023-07-19T13:04:55Z</time>
      </trkpt>
      <trkpt lat="47.42504" lon="-0.5448">
        <ele>23.2</ele>
        <time>2023-07-19T13:04:56Z</time>
      </trkpt>
      <trkpt lat="47.42506" lon="-0.54476">
        <ele>23.2</ele>
        <time>2023-07-19T13:04:57Z</time>
      </trkpt>
      <trkpt lat="47.42508" lon="-0.54473">
        <ele>23.2</ele>
        <time>2023-07-19T13:04:58Z</time>
      </trkpt>
      <trkpt lat="47.4251" lon="-0.5447">
        <ele>23.4</ele>
        <time>2023-07-19T13:04:59Z</time>
      </trkpt>
      <trkpt lat="47.42512" lon="-0.54466">
        <ele>23.4</ele>
        <time>2023-07-19T13:05:00Z</time>
      </trkpt>
      <trkpt lat="47.42513" lon="-0.54463">
        <ele>23.4</ele>
        <time>2023-07-19T13:05:01Z</time>
      </trkpt>
      <trkpt lat="47.42516" lon="-0.54456">
        <ele>23.4</ele>
        <time>2023-07-19T13:05:03Z</time>
      </trkpt>
      <trkpt lat="47.42521" lon="-0.54444">
        <ele>23.4</ele>
        <time>2023-07-19T13:05:06Z</time>
      </trkpt>
      <trkpt lat="47.42534" lon="-0.54408">
        <ele>23.2</ele>
        <time>2023-07-19T13:05:15Z</time>
      </trkpt>
      <trkpt lat="47.42543" lon="-0.54368">
        <ele>23.2</ele>
        <time>2023-07-19T13:05:24Z</time>
      </trkpt>
      <trkpt lat="47.42548" lon="-0.54334">
        <ele>23</ele>
        <time>2023-07-19T13:05:31Z</time>
      </trkpt>
      <trkpt lat="47.42549" lon="-0.5433">
        <ele>23</ele>
        <time>2023-07-19T13:05:32Z</time>
      </trkpt>
      <trkpt lat="47.42556" lon="-0.54291">
        <ele>22.8</ele>
        <time>2023-07-19T13:05:40Z</time>
      </trkpt>
      <trkpt lat="47.42561" lon="-0.54256">
        <ele>22.8</ele>
        <time>2023-07-19T13:05:47Z</time>
      </trkpt>
      <trkpt lat="47.42568" lon="-0.5421">
        <ele>22.8</ele>
        <time>2023-07-19T13:05:56Z</time>
      </trkpt>
      <trkpt lat="47.42568" lon="-0.54206">
        <ele>22.8</ele>
        <time>2023-07-19T13:05:57Z</time>
      </trkpt>
      <trkpt lat="47.42571" lon="-0.5418">
        <ele>22.8</ele>
        <time>2023-07-19T13:06:02Z</time>
      </trkpt>
      <trkpt lat="47.42573" lon="-0.5417">
        <ele>22.8</ele>
        <time>2023-07-19T13:06:04Z</time>
      </trkpt>
      <trkpt lat="47.4258" lon="-0.54146">
        <ele>23</ele>
        <time>2023-07-19T13:06:09Z</time>
      </trkpt>
      <trkpt lat="47.42583" lon="-0.54132">
        <ele>23</ele>
        <time>2023-07-19T13:06:12Z</time>
      </trkpt>
      <trkpt lat="47.42585" lon="-0.54128">
        <ele>23</ele>
        <time>2023-07-19T13:06:13Z</time>
      </trkpt>
      <trkpt lat="47.42586" lon="-0.54124">
        <ele>23</ele>
        <time>2023-07-19T13:06:14Z</time>
      </trkpt>
      <trkpt lat="47.42587" lon="-0.54119">
        <ele>23</ele>
        <time>2023-07-19T13:06:15Z</time>
      </trkpt>
      <trkpt lat="47.42588" lon="-0.54114">
        <ele>23</ele>
        <time>2023-07-19T13:06:16Z</time>
      </trkpt>
      <trkpt lat="47.42589" lon="-0.54109">
        <ele>23</ele>
        <time>2023-07-19T13:06:17Z</time>
      </trkpt>
      <trkpt lat="47.4259" lon="-0.54104">
        <ele>23</ele>
        <time>2023-07-19T13:06:18Z</time>
      </trkpt>
      <trkpt lat="47.42591" lon="-0.541">
        <ele>23</ele>
        <time>2023-07-19T13:06:19Z</time>
      </trkpt>
      <trkpt lat="47.42591" lon="-0.54095">
        <ele>23</ele>
        <time>2023-07-19T13:06:20Z</time>
      </trkpt>
      <trkpt lat="47.42592" lon="-0.5409">
        <ele>23</ele>
        <time>2023-07-19T13:06:21Z</time>
      </trkpt>
      <trkpt lat="47.42593" lon="-0.54086">
        <ele>23.2</ele>
        <time>2023-07-19T13:06:22Z</time>
      </trkpt>
      <trkpt lat="47.42593" lon="-0.54082">
        <ele>23.2</ele>
        <time>2023-07-19T13:06:23Z</time>
      </trkpt>
      <trkpt lat="47.42598" lon="-0.54056">
        <ele>23.2</ele>
        <time>2023-07-19T13:06:29Z</time>
      </trkpt>
      <trkpt lat="47.42599" lon="-0.54052">
        <ele>23.2</ele>
        <time>2023-07-19T13:06:30Z</time>
      </trkpt>
      <trkpt lat="47.42602" lon="-0.54039">
        <ele>23.2</ele>
        <time>2023-07-19T13:06:33Z</time>
      </trkpt>
      <trkpt lat="47.42603" lon="-0.54035">
        <ele>23.2</ele>
        <time>2023-07-19T13:06:34Z</time>
      </trkpt>
      <trkpt lat="47.42603" lon="-0.5403">
        <ele>23.2</ele>
        <time>2023-07-19T13:06:35Z</time>
      </trkpt>
      <trkpt lat="47.42608" lon="-0.54">
        <ele>23.2</ele>
        <time>2023-07-19T13:06:42Z</time>
      </trkpt>
      <trkpt lat="47.42607" lon="-0.53987">
        <ele>23.2</ele>
        <time>2023-07-19T13:06:45Z</time>
      </trkpt>
      <trkpt lat="47.42609" lon="-0.53965">
        <ele>23.2</ele>
        <time>2023-07-19T13:06:50Z</time>
      </trkpt>
      <trkpt lat="47.42613" lon="-0.53932">
        <ele>23.2</ele>
        <time>2023-07-19T13:06:57Z</time>
      </trkpt>
      <trkpt lat="47.4262" lon="-0.53892">
        <ele>23.2</ele>
        <time>2023-07-19T13:07:05Z</time>
      </trkpt>
      <trkpt lat="47.42625" lon="-0.53863">
        <ele>23.2</ele>
        <time>2023-07-19T13:07:11Z</time>
      </trkpt>
      <trkpt lat="47.4263" lon="-0.53833">
        <ele>23.4</ele>
        <time>2023-07-19T13:07:17Z</time>
      </trkpt>
      <trkpt lat="47.42632" lon="-0.53823">
        <ele>23.4</ele>
        <time>2023-07-19T13:07:19Z</time>
      </trkpt>
      <trkpt lat="47.4264" lon="-0.53783">
        <ele>23.4</ele>
        <time>2023-07-19T13:07:27Z</time>
      </trkpt>
      <trkpt lat="47.42647" lon="-0.53758">
        <ele>23.4</ele>
        <time>2023-07-19T13:07:32Z</time>
      </trkpt>
      <trkpt lat="47.42648" lon="-0.53752">
        <ele>23.4</ele>
        <time>2023-07-19T13:07:33Z</time>
      </trkpt>
      <trkpt lat="47.42649" lon="-0.53748">
        <ele>23.4</ele>
        <time>2023-07-19T13:07:34Z</time>
      </trkpt>
      <trkpt lat="47.42651" lon="-0.53723">
        <ele>23.4</ele>
        <time>2023-07-19T13:07:39Z</time>
      </trkpt>
      <trkpt lat="47.42654" lon="-0.53709">
        <ele>23.4</ele>
        <time>2023-07-19T13:07:42Z</time>
      </trkpt>
      <trkpt lat="47.42657" lon="-0.53696">
        <ele>23.4</ele>
        <time>2023-07-19T13:07:45Z</time>
      </trkpt>
      <trkpt lat="47.42658" lon="-0.53691">
        <ele>23.4</ele>
        <time>2023-07-19T13:07:46Z</time>
      </trkpt>
      <trkpt lat="47.42658" lon="-0.53687">
        <ele>23.4</ele>
        <time>2023-07-19T13:07:47Z</time>
      </trkpt>
      <trkpt lat="47.42659" lon="-0.53682">
        <ele>23.4</ele>
        <time>2023-07-19T13:07:48Z</time>
      </trkpt>
      <trkpt lat="47.4266" lon="-0.53677">
        <ele>23.4</ele>
        <time>2023-07-19T13:07:49Z</time>
      </trkpt>
      <trkpt lat="47.42661" lon="-0.53672">
        <ele>23.4</ele>
        <time>2023-07-19T13:07:50Z</time>
      </trkpt>
      <trkpt lat="47.42662" lon="-0.53653">
        <ele>23.4</ele>
        <time>2023-07-19T13:07:54Z</time>
      </trkpt>
      <trkpt lat="47.42667" lon="-0.53614">
        <ele>23.6</ele>
        <time>2023-07-19T13:08:02Z</time>
      </trkpt>
      <trkpt lat="47.42673" lon="-0.53588">
        <ele>23.6</ele>
        <time>2023-07-19T13:08:07Z</time>
      </trkpt>
      <trkpt lat="47.42674" lon="-0.53584">
        <ele>23.6</ele>
        <time>2023-07-19T13:08:08Z</time>
      </trkpt>
      <trkpt lat="47.42675" lon="-0.53579">
        <ele>23.6</ele>
        <time>2023-07-19T13:08:09Z</time>
      </trkpt>
      <trkpt lat="47.42681" lon="-0.53548">
        <ele>23.8</ele>
        <time>2023-07-19T13:08:15Z</time>
      </trkpt>
      <trkpt lat="47.42685" lon="-0.53507">
        <ele>23.8</ele>
        <time>2023-07-19T13:08:23Z</time>
      </trkpt>
      <trkpt lat="47.42687" lon="-0.53491">
        <ele>23.8</ele>
        <time>2023-07-19T13:08:26Z</time>
      </trkpt>
      <trkpt lat="47.42687" lon="-0.53488">
        <ele>23.8</ele>
        <time>2023-07-19T13:08:27Z</time>
      </trkpt>
      <trkpt lat="47.42687" lon="-0.53483">
        <ele>23.8</ele>
        <time>2023-07-19T13:08:28Z</time>
      </trkpt>
      <trkpt lat="47.42687" lon="-0.53478">
        <ele>23.8</ele>
        <time>2023-07-19T13:08:29Z</time>
      </trkpt>
      <trkpt lat="47.42689" lon="-0.53436">
        <ele>23.8</ele>
        <time>2023-07-19T13:08:37Z</time>
      </trkpt>
      <trkpt lat="47.4269" lon="-0.53393">
        <ele>23.8</ele>
        <time>2023-07-19T13:08:45Z</time>
      </trkpt>
      <trkpt lat="47.42691" lon="-0.53355">
        <ele>23.8</ele>
        <time>2023-07-19T13:08:52Z</time>
      </trkpt>
      <trkpt lat="47.42691" lon="-0.53345">
        <ele>23.6</ele>
        <time>2023-07-19T13:08:54Z</time>
      </trkpt>
      <trkpt lat="47.42691" lon="-0.5334">
        <ele>23.6</ele>
        <time>2023-07-19T13:08:55Z</time>
      </trkpt>
      <trkpt lat="47.42691" lon="-0.53335">
        <ele>23.6</ele>
        <time>2023-07-19T13:08:56Z</time>
      </trkpt>
      <trkpt lat="47.42691" lon="-0.5333">
        <ele>23.6</ele>
        <time>2023-07-19T13:08:57Z</time>
      </trkpt>
      <trkpt lat="47.42691" lon="-0.53325">
        <ele>23.6</ele>
        <time>2023-07-19T13:08:58Z</time>
      </trkpt>
      <trkpt lat="47.42691" lon="-0.5332">
        <ele>23.6</ele>
        <time>2023-07-19T13:08:59Z</time>
      </trkpt>
      <trkpt lat="47.42694" lon="-0.53289">
        <ele>23.4</ele>
        <time>2023-07-19T13:09:05Z</time>
      </trkpt>
      <trkpt lat="47.42695" lon="-0.53269">
        <ele>23.4</ele>
        <time>2023-07-19T13:09:09Z</time>
      </trkpt>
      <trkpt lat="47.42695" lon="-0.53266">
        <ele>23.4</ele>
        <time>2023-07-19T13:09:10Z</time>
      </trkpt>
      <trkpt lat="47.42694" lon="-0.53263">
        <ele>23.4</ele>
        <time>2023-07-19T13:09:11Z</time>
      </trkpt>
      <trkpt lat="47.42694" lon="-0.53259">
        <ele>23.4</ele>
        <time>2023-07-19T13:09:12Z</time>
      </trkpt>
      <trkpt lat="47.42695" lon="-0.5325">
        <ele>23.4</ele>
        <time>2023-07-19T13:09:14Z</time>
      </trkpt>
      <trkpt lat="47.42696" lon="-0.53243">
        <ele>23.4</ele>
        <time>2023-07-19T13:09:16Z</time>
      </trkpt>
      <trkpt lat="47.42697" lon="-0.53235">
        <ele>23.4</ele>
        <time>2023-07-19T13:09:18Z</time>
      </trkpt>
      <trkpt lat="47.42697" lon="-0.53231">
        <ele>23.4</ele>
        <time>2023-07-19T13:09:19Z</time>
      </trkpt>
      <trkpt lat="47.42698" lon="-0.53228">
        <ele>23.4</ele>
        <time>2023-07-19T13:09:20Z</time>
      </trkpt>
      <trkpt lat="47.42704" lon="-0.53196">
        <ele>23.6</ele>
        <time>2023-07-19T13:09:26Z</time>
      </trkpt>
      <trkpt lat="47.4271" lon="-0.53157">
        <ele>23.6</ele>
        <time>2023-07-19T13:09:33Z</time>
      </trkpt>
      <trkpt lat="47.42711" lon="-0.53152">
        <ele>23.6</ele>
        <time>2023-07-19T13:09:34Z</time>
      </trkpt>
      <trkpt lat="47.42712" lon="-0.53129">
        <ele>23.6</ele>
        <time>2023-07-19T13:09:38Z</time>
      </trkpt>
      <trkpt lat="47.42711" lon="-0.53123">
        <ele>23.6</ele>
        <time>2023-07-19T13:09:39Z</time>
      </trkpt>
      <trkpt lat="47.42708" lon="-0.53113">
        <ele>23.6</ele>
        <time>2023-07-19T13:09:41Z</time>
      </trkpt>
      <trkpt lat="47.42707" lon="-0.53108">
        <ele>23.6</ele>
        <time>2023-07-19T13:09:42Z</time>
      </trkpt>
      <trkpt lat="47.42706" lon="-0.53096">
        <ele>23.6</ele>
        <time>2023-07-19T13:09:44Z</time>
      </trkpt>
      <trkpt lat="47.42707" lon="-0.53091">
        <ele>23.6</ele>
        <time>2023-07-19T13:09:45Z</time>
      </trkpt>
      <trkpt lat="47.42708" lon="-0.53087">
        <ele>23.4</ele>
        <time>2023-07-19T13:09:46Z</time>
      </trkpt>
      <trkpt lat="47.42709" lon="-0.53082">
        <ele>23.4</ele>
        <time>2023-07-19T13:09:47Z</time>
      </trkpt>
      <trkpt lat="47.42711" lon="-0.53077">
        <ele>23.4</ele>
        <time>2023-07-19T13:09:48Z</time>
      </trkpt>
      <trkpt lat="47.42712" lon="-0.53073">
        <ele>23.4</ele>
        <time>2023-07-19T13:09:49Z</time>
      </trkpt>
      <trkpt lat="47.42713" lon="-0.53068">
        <ele>23.4</ele>
        <time>2023-07-19T13:09:50Z</time>
      </trkpt>
      <trkpt lat="47.42714" lon="-0.53064">
        <ele>23.2</ele>
        <time>2023-07-19T13:09:51Z</time>
      </trkpt>
      <trkpt lat="47.42716" lon="-0.53054">
        <ele>23.2</ele>
        <time>2023-07-19T13:09:53Z</time>
      </trkpt>
      <trkpt lat="47.42717" lon="-0.53045">
        <ele>23.2</ele>
        <time>2023-07-19T13:09:55Z</time>
      </trkpt>
      <trkpt lat="47.42717" lon="-0.53042">
        <ele>23.2</ele>
        <time>2023-07-19T13:09:56Z</time>
      </trkpt>
      <trkpt lat="47.42718" lon="-0.53039">
        <ele>23.2</ele>
        <time>2023-07-19T13:09:57Z</time>
      </trkpt>
      <trkpt lat="47.42719" lon="-0.53035">
        <ele>23.2</ele>
        <time>2023-07-19T13:09:58Z</time>
      </trkpt>
      <trkpt lat="47.42719" lon="-0.53032">
        <ele>23.2</ele>
        <time>2023-07-19T13:09:59Z</time>
      </trkpt>
      <trkpt lat="47.42722" lon="-0.53012">
        <ele>23.8</ele>
        <time>2023-07-19T13:10:04Z</time>
      </trkpt>
      <trkpt lat="47.42726" lon="-0.52987">
        <ele>25.2</ele>
        <time>2023-07-19T13:10:10Z</time>
      </trkpt>
      <trkpt lat="47.42728" lon="-0.52974">
        <ele>25.2</ele>
        <time>2023-07-19T13:10:13Z</time>
      </trkpt>
      <trkpt lat="47.42733" lon="-0.52936">
        <ele>25.4</ele>
        <time>2023-07-19T13:10:21Z</time>
      </trkpt>
      <trkpt lat="47.42735" lon="-0.52892">
        <ele>25</ele>
        <time>2023-07-19T13:10:30Z</time>
      </trkpt>
      <trkpt lat="47.42736" lon="-0.52883">
        <ele>24.8</ele>
        <time>2023-07-19T13:10:32Z</time>
      </trkpt>
      <trkpt lat="47.42736" lon="-0.52878">
        <ele>24.8</ele>
        <time>2023-07-19T13:10:33Z</time>
      </trkpt>
      <trkpt lat="47.42736" lon="-0.52873">
        <ele>24.8</ele>
        <time>2023-07-19T13:10:34Z</time>
      </trkpt>
      <trkpt lat="47.42735" lon="-0.52869">
        <ele>24.8</ele>
        <time>2023-07-19T13:10:35Z</time>
      </trkpt>
      <trkpt lat="47.42735" lon="-0.52865">
        <ele>24.8</ele>
        <time>2023-07-19T13:10:36Z</time>
      </trkpt>
      <trkpt lat="47.42734" lon="-0.5286">
        <ele>24.8</ele>
        <time>2023-07-19T13:10:37Z</time>
      </trkpt>
      <trkpt lat="47.42735" lon="-0.52834">
        <ele>24.8</ele>
        <time>2023-07-19T13:10:42Z</time>
      </trkpt>
      <trkpt lat="47.42733" lon="-0.52791">
        <ele>24.6</ele>
        <time>2023-07-19T13:10:50Z</time>
      </trkpt>
      <trkpt lat="47.42732" lon="-0.52776">
        <ele>24.6</ele>
        <time>2023-07-19T13:10:53Z</time>
      </trkpt>
      <trkpt lat="47.42732" lon="-0.52771">
        <ele>24.6</ele>
        <time>2023-07-19T13:10:54Z</time>
      </trkpt>
      <trkpt lat="47.42732" lon="-0.52767">
        <ele>24.6</ele>
        <time>2023-07-19T13:10:55Z</time>
      </trkpt>
      <trkpt lat="47.42732" lon="-0.52763">
        <ele>24.6</ele>
        <time>2023-07-19T13:10:56Z</time>
      </trkpt>
      <trkpt lat="47.42731" lon="-0.52759">
        <ele>24.6</ele>
        <time>2023-07-19T13:10:57Z</time>
      </trkpt>
      <trkpt lat="47.4273" lon="-0.52754">
        <ele>24.6</ele>
        <time>2023-07-19T13:10:58Z</time>
      </trkpt>
      <trkpt lat="47.42729" lon="-0.52749">
        <ele>24.6</ele>
        <time>2023-07-19T13:10:59Z</time>
      </trkpt>
      <trkpt lat="47.42728" lon="-0.52745">
        <ele>24.6</ele>
        <time>2023-07-19T13:11:00Z</time>
      </trkpt>
      <trkpt lat="47.42728" lon="-0.52742">
        <ele>24.6</ele>
        <time>2023-07-19T13:11:01Z</time>
      </trkpt>
      <trkpt lat="47.42727" lon="-0.52738">
        <ele>24.6</ele>
        <time>2023-07-19T13:11:02Z</time>
      </trkpt>
      <trkpt lat="47.42727" lon="-0.52734">
        <ele>24.6</ele>
        <time>2023-07-19T13:11:03Z</time>
      </trkpt>
      <trkpt lat="47.42726" lon="-0.52731">
        <ele>24.6</ele>
        <time>2023-07-19T13:11:04Z</time>
      </trkpt>
      <trkpt lat="47.42726" lon="-0.52727">
        <ele>24.6</ele>
        <time>2023-07-19T13:11:05Z</time>
      </trkpt>
      <trkpt lat="47.42725" lon="-0.52724">
        <ele>24.6</ele>
        <time>2023-07-19T13:11:06Z</time>
      </trkpt>
      <trkpt lat="47.42725" lon="-0.52721">
        <ele>24.6</ele>
        <time>2023-07-19T13:11:07Z</time>
      </trkpt>
      <trkpt lat="47.42725" lon="-0.52718">
        <ele>24.6</ele>
        <time>2023-07-19T13:11:08Z</time>
      </trkpt>
      <trkpt lat="47.42725" lon="-0.52715">
        <ele>24.8</ele>
        <time>2023-07-19T13:11:09Z</time>
      </trkpt>
      <trkpt lat="47.42726" lon="-0.52712">
        <ele>24.8</ele>
        <time>2023-07-19T13:11:10Z</time>
      </trkpt>
      <trkpt lat="47.42726" lon="-0.52709">
        <ele>25</ele>
        <time>2023-07-19T13:11:11Z</time>
      </trkpt>
      <trkpt lat="47.42727" lon="-0.52707">
        <ele>25.2</ele>
        <time>2023-07-19T13:11:12Z</time>
      </trkpt>
      <trkpt lat="47.42728" lon="-0.52704">
        <ele>25.4</ele>
        <time>2023-07-19T13:11:13Z</time>
      </trkpt>
      <trkpt lat="47.42728" lon="-0.52701">
        <ele>25.4</ele>
        <time>2023-07-19T13:11:14Z</time>
      </trkpt>
      <trkpt lat="47.42729" lon="-0.52698">
        <ele>25.6</ele>
        <time>2023-07-19T13:11:15Z</time>
      </trkpt>
      <trkpt lat="47.4273" lon="-0.52696">
        <ele>25.8</ele>
        <time>2023-07-19T13:11:16Z</time>
      </trkpt>
      <trkpt lat="47.4273" lon="-0.52694">
        <ele>26</ele>
        <time>2023-07-19T13:11:17Z</time>
      </trkpt>
      <trkpt lat="47.42729" lon="-0.52692">
        <ele>26.2</ele>
        <time>2023-07-19T13:11:18Z</time>
      </trkpt>
      <trkpt lat="47.42728" lon="-0.52691">
        <ele>26.4</ele>
        <time>2023-07-19T13:11:19Z</time>
      </trkpt>
      <trkpt lat="47.4272" lon="-0.52684">
        <ele>27.2</ele>
        <time>2023-07-19T13:11:24Z</time>
      </trkpt>
      <trkpt lat="47.42715" lon="-0.52681">
        <ele>28</ele>
        <time>2023-07-19T13:11:27Z</time>
      </trkpt>
      <trkpt lat="47.42713" lon="-0.5268">
        <ele>28.2</ele>
        <time>2023-07-19T13:11:28Z</time>
      </trkpt>
      <trkpt lat="47.42711" lon="-0.52679">
        <ele>28.2</ele>
        <time>2023-07-19T13:11:29Z</time>
      </trkpt>
      <trkpt lat="47.42709" lon="-0.52677">
        <ele>28.2</ele>
        <time>2023-07-19T13:11:30Z</time>
      </trkpt>
      <trkpt lat="47.42707" lon="-0.52676">
        <ele>28.4</ele>
        <time>2023-07-19T13:11:31Z</time>
      </trkpt>
      <trkpt lat="47.42705" lon="-0.52675">
        <ele>28.4</ele>
        <time>2023-07-19T13:11:32Z</time>
      </trkpt>
      <trkpt lat="47.42703" lon="-0.52674">
        <ele>28.4</ele>
        <time>2023-07-19T13:11:33Z</time>
      </trkpt>
      <trkpt lat="47.42701" lon="-0.52672">
        <ele>28.6</ele>
        <time>2023-07-19T13:11:34Z</time>
      </trkpt>
      <trkpt lat="47.42699" lon="-0.52671">
        <ele>28.6</ele>
        <time>2023-07-19T13:11:35Z</time>
      </trkpt>
      <trkpt lat="47.42697" lon="-0.5267">
        <ele>28.6</ele>
        <time>2023-07-19T13:11:36Z</time>
      </trkpt>
      <trkpt lat="47.42696" lon="-0.52668">
        <ele>28.6</ele>
        <time>2023-07-19T13:11:37Z</time>
      </trkpt>
      <trkpt lat="47.42694" lon="-0.52667">
        <ele>28.6</ele>
        <time>2023-07-19T13:11:38Z</time>
      </trkpt>
      <trkpt lat="47.42691" lon="-0.52666">
        <ele>28.6</ele>
        <time>2023-07-19T13:11:39Z</time>
      </trkpt>
      <trkpt lat="47.42689" lon="-0.52664">
        <ele>28.8</ele>
        <time>2023-07-19T13:11:40Z</time>
      </trkpt>
      <trkpt lat="47.42687" lon="-0.52663">
        <ele>29</ele>
        <time>2023-07-19T13:11:41Z</time>
      </trkpt>
      <trkpt lat="47.42685" lon="-0.52662">
        <ele>29.2</ele>
        <time>2023-07-19T13:11:42Z</time>
      </trkpt>
      <trkpt lat="47.42682" lon="-0.5266">
        <ele>29.2</ele>
        <time>2023-07-19T13:11:43Z</time>
      </trkpt>
      <trkpt lat="47.4268" lon="-0.52659">
        <ele>29.4</ele>
        <time>2023-07-19T13:11:44Z</time>
      </trkpt>
      <trkpt lat="47.42678" lon="-0.52657">
        <ele>29.4</ele>
        <time>2023-07-19T13:11:45Z</time>
      </trkpt>
      <trkpt lat="47.42675" lon="-0.52655">
        <ele>29.4</ele>
        <time>2023-07-19T13:11:46Z</time>
      </trkpt>
      <trkpt lat="47.42673" lon="-0.52653">
        <ele>29.4</ele>
        <time>2023-07-19T13:11:47Z</time>
      </trkpt>
      <trkpt lat="47.4267" lon="-0.52651">
        <ele>29.6</ele>
        <time>2023-07-19T13:11:48Z</time>
      </trkpt>
      <trkpt lat="47.42667" lon="-0.52649">
        <ele>29.6</ele>
        <time>2023-07-19T13:11:49Z</time>
      </trkpt>
      <trkpt lat="47.42664" lon="-0.52647">
        <ele>29.6</ele>
        <time>2023-07-19T13:11:50Z</time>
      </trkpt>
      <trkpt lat="47.42661" lon="-0.52645">
        <ele>29.6</ele>
        <time>2023-07-19T13:11:51Z</time>
      </trkpt>
      <trkpt lat="47.42648" lon="-0.52637">
        <ele>29.6</ele>
        <time>2023-07-19T13:11:55Z</time>
      </trkpt>
      <trkpt lat="47.42636" lon="-0.5263">
        <ele>29.4</ele>
        <time>2023-07-19T13:11:59Z</time>
      </trkpt>
      <trkpt lat="47.42629" lon="-0.52625">
        <ele>29</ele>
        <time>2023-07-19T13:12:01Z</time>
      </trkpt>
      <trkpt lat="47.42623" lon="-0.52621">
        <ele>28.8</ele>
        <time>2023-07-19T13:12:03Z</time>
      </trkpt>
      <trkpt lat="47.4262" lon="-0.52619">
        <ele>28.6</ele>
        <time>2023-07-19T13:12:04Z</time>
      </trkpt>
      <trkpt lat="47.42618" lon="-0.52618">
        <ele>28.4</ele>
        <time>2023-07-19T13:12:05Z</time>
      </trkpt>
      <trkpt lat="47.42616" lon="-0.52616">
        <ele>28.4</ele>
        <time>2023-07-19T13:12:06Z</time>
      </trkpt>
      <trkpt lat="47.42614" lon="-0.52614">
        <ele>28.2</ele>
        <time>2023-07-19T13:12:07Z</time>
      </trkpt>
      <trkpt lat="47.42611" lon="-0.52611">
        <ele>28.2</ele>
        <time>2023-07-19T13:12:08Z</time>
      </trkpt>
      <trkpt lat="47.42599" lon="-0.52601">
        <ele>28</ele>
        <time>2023-07-19T13:12:12Z</time>
      </trkpt>
      <trkpt lat="47.42566" lon="-0.52577">
        <ele>27.6</ele>
        <time>2023-07-19T13:12:21Z</time>
      </trkpt>
      <trkpt lat="47.42555" lon="-0.52568">
        <ele>27.2</ele>
        <time>2023-07-19T13:12:24Z</time>
      </trkpt>
      <trkpt lat="47.42539" lon="-0.52556">
        <ele>26.8</ele>
        <time>2023-07-19T13:12:28Z</time>
      </trkpt>
      <trkpt lat="47.42536" lon="-0.52553">
        <ele>26.8</ele>
        <time>2023-07-19T13:12:29Z</time>
      </trkpt>
      <trkpt lat="47.42527" lon="-0.52547">
        <ele>26.6</ele>
        <time>2023-07-19T13:12:31Z</time>
      </trkpt>
      <trkpt lat="47.42507" lon="-0.52535">
        <ele>26.6</ele>
        <time>2023-07-19T13:12:36Z</time>
      </trkpt>
      <trkpt lat="47.42503" lon="-0.52533">
        <ele>26.6</ele>
        <time>2023-07-19T13:12:37Z</time>
      </trkpt>
      <trkpt lat="47.425" lon="-0.52532">
        <ele>26.4</ele>
        <time>2023-07-19T13:12:38Z</time>
      </trkpt>
      <trkpt lat="47.42498" lon="-0.52532">
        <ele>26.4</ele>
        <time>2023-07-19T13:12:39Z</time>
      </trkpt>
      <trkpt lat="47.42494" lon="-0.52532">
        <ele>26.4</ele>
        <time>2023-07-19T13:12:40Z</time>
      </trkpt>
      <trkpt lat="47.42491" lon="-0.52533">
        <ele>26.4</ele>
        <time>2023-07-19T13:12:41Z</time>
      </trkpt>
      <trkpt lat="47.42487" lon="-0.52535">
        <ele>26.4</ele>
        <time>2023-07-19T13:12:42Z</time>
      </trkpt>
      <trkpt lat="47.42478" lon="-0.52537">
        <ele>26.6</ele>
        <time>2023-07-19T13:12:45Z</time>
      </trkpt>
      <trkpt lat="47.42475" lon="-0.52536">
        <ele>26.6</ele>
        <time>2023-07-19T13:12:46Z</time>
      </trkpt>
      <trkpt lat="47.42471" lon="-0.52534">
        <ele>26.6</ele>
        <time>2023-07-19T13:12:47Z</time>
      </trkpt>
      <trkpt lat="47.42469" lon="-0.5253">
        <ele>26.6</ele>
        <time>2023-07-19T13:12:48Z</time>
      </trkpt>
      <trkpt lat="47.42467" lon="-0.52526">
        <ele>26.6</ele>
        <time>2023-07-19T13:12:49Z</time>
      </trkpt>
      <trkpt lat="47.42465" lon="-0.52516">
        <ele>26.4</ele>
        <time>2023-07-19T13:12:51Z</time>
      </trkpt>
      <trkpt lat="47.42463" lon="-0.52511">
        <ele>26.4</ele>
        <time>2023-07-19T13:12:52Z</time>
      </trkpt>
      <trkpt lat="47.42461" lon="-0.52506">
        <ele>26.4</ele>
        <time>2023-07-19T13:12:53Z</time>
      </trkpt>
      <trkpt lat="47.42458" lon="-0.52503">
        <ele>26.4</ele>
        <time>2023-07-19T13:12:54Z</time>
      </trkpt>
      <trkpt lat="47.42455" lon="-0.52499">
        <ele>26.4</ele>
        <time>2023-07-19T13:12:55Z</time>
      </trkpt>
      <trkpt lat="47.42451" lon="-0.52496">
        <ele>26.4</ele>
        <time>2023-07-19T13:12:56Z</time>
      </trkpt>
      <trkpt lat="47.42449" lon="-0.52494">
        <ele>26.4</ele>
        <time>2023-07-19T13:12:57Z</time>
      </trkpt>
      <trkpt lat="47.42446" lon="-0.5249">
        <ele>26.4</ele>
        <time>2023-07-19T13:12:58Z</time>
      </trkpt>
      <trkpt lat="47.42443" lon="-0.52488">
        <ele>26.4</ele>
        <time>2023-07-19T13:12:59Z</time>
      </trkpt>
      <trkpt lat="47.42429" lon="-0.52479">
        <ele>26.4</ele>
        <time>2023-07-19T13:13:03Z</time>
      </trkpt>
      <trkpt lat="47.42426" lon="-0.52477">
        <ele>26.4</ele>
        <time>2023-07-19T13:13:04Z</time>
      </trkpt>
      <trkpt lat="47.42423" lon="-0.52475">
        <ele>26.4</ele>
        <time>2023-07-19T13:13:05Z</time>
      </trkpt>
      <trkpt lat="47.42421" lon="-0.52472">
        <ele>26.4</ele>
        <time>2023-07-19T13:13:06Z</time>
      </trkpt>
      <trkpt lat="47.42418" lon="-0.5247">
        <ele>26.4</ele>
        <time>2023-07-19T13:13:07Z</time>
      </trkpt>
      <trkpt lat="47.42408" lon="-0.52463">
        <ele>26.6</ele>
        <time>2023-07-19T13:13:10Z</time>
      </trkpt>
      <trkpt lat="47.42405" lon="-0.52462">
        <ele>26.8</ele>
        <time>2023-07-19T13:13:11Z</time>
      </trkpt>
      <trkpt lat="47.4239" lon="-0.52451">
        <ele>27.2</ele>
        <time>2023-07-19T13:13:16Z</time>
      </trkpt>
      <trkpt lat="47.42385" lon="-0.52446">
        <ele>27.2</ele>
        <time>2023-07-19T13:13:18Z</time>
      </trkpt>
      <trkpt lat="47.42382" lon="-0.52444">
        <ele>27.2</ele>
        <time>2023-07-19T13:13:19Z</time>
      </trkpt>
      <trkpt lat="47.42379" lon="-0.52443">
        <ele>27.4</ele>
        <time>2023-07-19T13:13:20Z</time>
      </trkpt>
      <trkpt lat="47.42376" lon="-0.5244">
        <ele>27.4</ele>
        <time>2023-07-19T13:13:21Z</time>
      </trkpt>
      <trkpt lat="47.42373" lon="-0.52439">
        <ele>27.4</ele>
        <time>2023-07-19T13:13:22Z</time>
      </trkpt>
      <trkpt lat="47.42367" lon="-0.52436">
        <ele>27.4</ele>
        <time>2023-07-19T13:13:24Z</time>
      </trkpt>
      <trkpt lat="47.42345" lon="-0.52423">
        <ele>27.8</ele>
        <time>2023-07-19T13:13:31Z</time>
      </trkpt>
      <trkpt lat="47.42331" lon="-0.52414">
        <ele>28</ele>
        <time>2023-07-19T13:13:36Z</time>
      </trkpt>
      <trkpt lat="47.42325" lon="-0.52408">
        <ele>28.2</ele>
        <time>2023-07-19T13:13:39Z</time>
      </trkpt>
      <trkpt lat="47.42322" lon="-0.52405">
        <ele>28.4</ele>
        <time>2023-07-19T13:13:40Z</time>
      </trkpt>
      <trkpt lat="47.42319" lon="-0.52403">
        <ele>28.6</ele>
        <time>2023-07-19T13:13:41Z</time>
      </trkpt>
      <trkpt lat="47.42307" lon="-0.52397">
        <ele>29</ele>
        <time>2023-07-19T13:13:45Z</time>
      </trkpt>
      <trkpt lat="47.42305" lon="-0.52395">
        <ele>29</ele>
        <time>2023-07-19T13:13:46Z</time>
      </trkpt>
      <trkpt lat="47.42302" lon="-0.52393">
        <ele>29</ele>
        <time>2023-07-19T13:13:47Z</time>
      </trkpt>
      <trkpt lat="47.423" lon="-0.52392">
        <ele>29</ele>
        <time>2023-07-19T13:13:48Z</time>
      </trkpt>
      <trkpt lat="47.42298" lon="-0.52391">
        <ele>29</ele>
        <time>2023-07-19T13:13:49Z</time>
      </trkpt>
      <trkpt lat="47.42296" lon="-0.52391">
        <ele>29</ele>
        <time>2023-07-19T13:13:50Z</time>
      </trkpt>
      <trkpt lat="47.42294" lon="-0.52391">
        <ele>29.2</ele>
        <time>2023-07-19T13:13:51Z</time>
      </trkpt>
      <trkpt lat="47.42292" lon="-0.52391">
        <ele>29.2</ele>
        <time>2023-07-19T13:13:52Z</time>
      </trkpt>
      <trkpt lat="47.4229" lon="-0.5239">
        <ele>29.2</ele>
        <time>2023-07-19T13:13:53Z</time>
      </trkpt>
      <trkpt lat="47.42288" lon="-0.52389">
        <ele>29.2</ele>
        <time>2023-07-19T13:13:54Z</time>
      </trkpt>
      <trkpt lat="47.42285" lon="-0.52388">
        <ele>29.2</ele>
        <time>2023-07-19T13:13:55Z</time>
      </trkpt>
      <trkpt lat="47.42283" lon="-0.52388">
        <ele>29.2</ele>
        <time>2023-07-19T13:13:56Z</time>
      </trkpt>
      <trkpt lat="47.42281" lon="-0.52388">
        <ele>29.2</ele>
        <time>2023-07-19T13:13:57Z</time>
      </trkpt>
      <trkpt lat="47.42279" lon="-0.52388">
        <ele>29.2</ele>
        <time>2023-07-19T13:13:58Z</time>
      </trkpt>
      <trkpt lat="47.42276" lon="-0.52387">
        <ele>29.4</ele>
        <time>2023-07-19T13:13:59Z</time>
      </trkpt>
      <trkpt lat="47.42272" lon="-0.52386">
        <ele>29.4</ele>
        <time>2023-07-19T13:14:01Z</time>
      </trkpt>
      <trkpt lat="47.42264" lon="-0.52383">
        <ele>29.6</ele>
        <time>2023-07-19T13:14:05Z</time>
      </trkpt>
      <trkpt lat="47.42257" lon="-0.52379">
        <ele>29.8</ele>
        <time>2023-07-19T13:14:09Z</time>
      </trkpt>
      <trkpt lat="47.42256" lon="-0.52378">
        <ele>29.8</ele>
        <time>2023-07-19T13:14:10Z</time>
      </trkpt>
      <trkpt lat="47.42255" lon="-0.52378">
        <ele>29.8</ele>
        <time>2023-07-19T13:14:12Z</time>
      </trkpt>
      <trkpt lat="47.42261" lon="-0.52383">
        <ele>31.4</ele>
        <time>2023-07-19T13:16:56Z</time>
      </trkpt>
      <trkpt lat="47.42263" lon="-0.52384">
        <ele>31.4</ele>
        <time>2023-07-19T13:16:57Z</time>
      </trkpt>
      <trkpt lat="47.42279" lon="-0.52389">
        <ele>31</ele>
        <time>2023-07-19T13:17:02Z</time>
      </trkpt>
      <trkpt lat="47.42289" lon="-0.52387">
        <ele>31</ele>
        <time>2023-07-19T13:17:05Z</time>
      </trkpt>
      <trkpt lat="47.42292" lon="-0.52386">
        <ele>31</ele>
        <time>2023-07-19T13:17:06Z</time>
      </trkpt>
      <trkpt lat="47.42295" lon="-0.52386">
        <ele>31</ele>
        <time>2023-07-19T13:17:07Z</time>
      </trkpt>
      <trkpt lat="47.42296" lon="-0.52387">
        <ele>30.8</ele>
        <time>2023-07-19T13:17:08Z</time>
      </trkpt>
      <trkpt lat="47.42299" lon="-0.52388">
        <ele>30.8</ele>
        <time>2023-07-19T13:17:09Z</time>
      </trkpt>
      <trkpt lat="47.42301" lon="-0.52391">
        <ele>30.6</ele>
        <time>2023-07-19T13:17:10Z</time>
      </trkpt>
      <trkpt lat="47.42303" lon="-0.52393">
        <ele>30.4</ele>
        <time>2023-07-19T13:17:11Z</time>
      </trkpt>
      <trkpt lat="47.42305" lon="-0.52394">
        <ele>30.4</ele>
        <time>2023-07-19T13:17:12Z</time>
      </trkpt>
      <trkpt lat="47.42306" lon="-0.52396">
        <ele>30.2</ele>
        <time>2023-07-19T13:17:13Z</time>
      </trkpt>
      <trkpt lat="47.42308" lon="-0.52398">
        <ele>30.2</ele>
        <time>2023-07-19T13:17:14Z</time>
      </trkpt>
      <trkpt lat="47.4231" lon="-0.52399">
        <ele>30.2</ele>
        <time>2023-07-19T13:17:15Z</time>
      </trkpt>
      <trkpt lat="47.42312" lon="-0.524">
        <ele>30</ele>
        <time>2023-07-19T13:17:16Z</time>
      </trkpt>
      <trkpt lat="47.42313" lon="-0.524">
        <ele>30</ele>
        <time>2023-07-19T13:17:17Z</time>
      </trkpt>
      <trkpt lat="47.42314" lon="-0.52401">
        <ele>30</ele>
        <time>2023-07-19T13:17:18Z</time>
      </trkpt>
      <trkpt lat="47.42314" lon="-0.52401">
        <ele>30</ele>
        <time>2023-07-19T13:17:19Z</time>
      </trkpt>
      <trkpt lat="47.42314" lon="-0.52401">
        <ele>30</ele>
        <time>2023-07-19T13:17:20Z</time>
      </trkpt>
      <trkpt lat="47.42308" lon="-0.52397">
        <ele>28.8</ele>
        <time>2023-07-19T13:19:30Z</time>
      </trkpt>
      <trkpt lat="47.42303" lon="-0.52396">
        <ele>28.8</ele>
        <time>2023-07-19T13:19:32Z</time>
      </trkpt>
      <trkpt lat="47.42301" lon="-0.52395">
        <ele>28.8</ele>
        <time>2023-07-19T13:19:33Z</time>
      </trkpt>
      <trkpt lat="47.42297" lon="-0.52393">
        <ele>28.8</ele>
        <time>2023-07-19T13:19:35Z</time>
      </trkpt>
      <trkpt lat="47.42283" lon="-0.52389">
        <ele>28.8</ele>
        <time>2023-07-19T13:19:41Z</time>
      </trkpt>
      <trkpt lat="47.42262" lon="-0.52383">
        <ele>29.2</ele>
        <time>2023-07-19T13:19:50Z</time>
      </trkpt>
      <trkpt lat="47.42261" lon="-0.52382">
        <ele>29.2</ele>
        <time>2023-07-19T13:19:51Z</time>
      </trkpt>
      <trkpt lat="47.4226" lon="-0.5238">
        <ele>29.2</ele>
        <time>2023-07-19T13:19:52Z</time>
      </trkpt>
      <trkpt lat="47.4226" lon="-0.52378">
        <ele>29.2</ele>
        <time>2023-07-19T13:19:53Z</time>
      </trkpt>
      <trkpt lat="47.4226" lon="-0.52378">
        <ele>29.2</ele>
        <time>2023-07-19T13:19:54Z</time>
      </trkpt>
      <trkpt lat="47.4226" lon="-0.52378">
        <ele>29.6</ele>
        <time>2023-07-19T13:19:56Z</time>
      </trkpt>
      <trkpt lat="47.42258" lon="-0.52375">
        <ele>30</ele>
        <time>2023-07-19T13:20:04Z</time>
      </trkpt>
      <trkpt lat="47.42253" lon="-0.52373">
        <ele>30</ele>
        <time>2023-07-19T13:20:06Z</time>
      </trkpt>
      <trkpt lat="47.42251" lon="-0.52374">
        <ele>30</ele>
        <time>2023-07-19T13:20:07Z</time>
      </trkpt>
      <trkpt lat="47.42247" lon="-0.52374">
        <ele>30.2</ele>
        <time>2023-07-19T13:20:08Z</time>
      </trkpt>
      <trkpt lat="47.42244" lon="-0.52373">
        <ele>30.2</ele>
        <time>2023-07-19T13:20:09Z</time>
      </trkpt>
      <trkpt lat="47.42237" lon="-0.52373">
        <ele>30.2</ele>
        <time>2023-07-19T13:20:11Z</time>
      </trkpt>
      <trkpt lat="47.42205" lon="-0.52371">
        <ele>30.8</ele>
        <time>2023-07-19T13:20:21Z</time>
      </trkpt>
      <trkpt lat="47.4218" lon="-0.52368">
        <ele>31</ele>
        <time>2023-07-19T13:20:28Z</time>
      </trkpt>
      <trkpt lat="47.42173" lon="-0.52367">
        <ele>31</ele>
        <time>2023-07-19T13:20:30Z</time>
      </trkpt>
      <trkpt lat="47.42135" lon="-0.52364">
        <ele>32</ele>
        <time>2023-07-19T13:20:40Z</time>
      </trkpt>
      <trkpt lat="47.4212" lon="-0.52363">
        <ele>32</ele>
        <time>2023-07-19T13:20:44Z</time>
      </trkpt>
      <trkpt lat="47.42096" lon="-0.52361">
        <ele>32.2</ele>
        <time>2023-07-19T13:20:50Z</time>
      </trkpt>
      <trkpt lat="47.42053" lon="-0.52358">
        <ele>32.8</ele>
        <time>2023-07-19T13:21:00Z</time>
      </trkpt>
      <trkpt lat="47.4203" lon="-0.52356">
        <ele>32.8</ele>
        <time>2023-07-19T13:21:05Z</time>
      </trkpt>
      <trkpt lat="47.42011" lon="-0.52354">
        <ele>32.6</ele>
        <time>2023-07-19T13:21:09Z</time>
      </trkpt>
      <trkpt lat="47.41959" lon="-0.52349">
        <ele>32</ele>
        <time>2023-07-19T13:21:20Z</time>
      </trkpt>
      <trkpt lat="47.41951" lon="-0.52348">
        <ele>31.8</ele>
        <time>2023-07-19T13:21:22Z</time>
      </trkpt>
      <trkpt lat="47.41946" lon="-0.52347">
        <ele>31.6</ele>
        <time>2023-07-19T13:21:23Z</time>
      </trkpt>
      <trkpt lat="47.41942" lon="-0.52347">
        <ele>31.4</ele>
        <time>2023-07-19T13:21:24Z</time>
      </trkpt>
      <trkpt lat="47.41938" lon="-0.52347">
        <ele>31.2</ele>
        <time>2023-07-19T13:21:25Z</time>
      </trkpt>
      <trkpt lat="47.41935" lon="-0.52347">
        <ele>30.8</ele>
        <time>2023-07-19T13:21:26Z</time>
      </trkpt>
      <trkpt lat="47.41929" lon="-0.52347">
        <ele>30.8</ele>
        <time>2023-07-19T13:21:27Z</time>
      </trkpt>
      <trkpt lat="47.41916" lon="-0.52347">
        <ele>30.4</ele>
        <time>2023-07-19T13:21:30Z</time>
      </trkpt>
      <trkpt lat="47.41902" lon="-0.52346">
        <ele>30.4</ele>
        <time>2023-07-19T13:21:33Z</time>
      </trkpt>
      <trkpt lat="47.41897" lon="-0.52346">
        <ele>30.4</ele>
        <time>2023-07-19T13:21:34Z</time>
      </trkpt>
      <trkpt lat="47.41866" lon="-0.52343">
        <ele>30</ele>
        <time>2023-07-19T13:21:41Z</time>
      </trkpt>
      <trkpt lat="47.41858" lon="-0.52342">
        <ele>30</ele>
        <time>2023-07-19T13:21:43Z</time>
      </trkpt>
      <trkpt lat="47.4185" lon="-0.5234">
        <ele>30</ele>
        <time>2023-07-19T13:21:45Z</time>
      </trkpt>
      <trkpt lat="47.41846" lon="-0.5234">
        <ele>30</ele>
        <time>2023-07-19T13:21:46Z</time>
      </trkpt>
      <trkpt lat="47.41843" lon="-0.5234">
        <ele>29.8</ele>
        <time>2023-07-19T13:21:47Z</time>
      </trkpt>
      <trkpt lat="47.41839" lon="-0.5234">
        <ele>29.8</ele>
        <time>2023-07-19T13:21:48Z</time>
      </trkpt>
      <trkpt lat="47.41835" lon="-0.52341">
        <ele>29.8</ele>
        <time>2023-07-19T13:21:49Z</time>
      </trkpt>
      <trkpt lat="47.41831" lon="-0.5234">
        <ele>29.8</ele>
        <time>2023-07-19T13:21:50Z</time>
      </trkpt>
      <trkpt lat="47.41819" lon="-0.5234">
        <ele>29.8</ele>
        <time>2023-07-19T13:21:53Z</time>
      </trkpt>
      <trkpt lat="47.41799" lon="-0.5234">
        <ele>29.8</ele>
        <time>2023-07-19T13:21:58Z</time>
      </trkpt>
      <trkpt lat="47.41795" lon="-0.52339">
        <ele>29.8</ele>
        <time>2023-07-19T13:21:59Z</time>
      </trkpt>
      <trkpt lat="47.41783" lon="-0.52338">
        <ele>29.8</ele>
        <time>2023-07-19T13:22:02Z</time>
      </trkpt>
      <trkpt lat="47.41764" lon="-0.52336">
        <ele>29.8</ele>
        <time>2023-07-19T13:22:07Z</time>
      </trkpt>
      <trkpt lat="47.4176" lon="-0.52335">
        <ele>29.8</ele>
        <time>2023-07-19T13:22:08Z</time>
      </trkpt>
      <trkpt lat="47.41757" lon="-0.52335">
        <ele>29.8</ele>
        <time>2023-07-19T13:22:09Z</time>
      </trkpt>
      <trkpt lat="47.41749" lon="-0.52335">
        <ele>29.8</ele>
        <time>2023-07-19T13:22:11Z</time>
      </trkpt>
      <trkpt lat="47.41721" lon="-0.52332">
        <ele>29.8</ele>
        <time>2023-07-19T13:22:18Z</time>
      </trkpt>
      <trkpt lat="47.41681" lon="-0.52329">
        <ele>29.6</ele>
        <time>2023-07-19T13:22:27Z</time>
      </trkpt>
      <trkpt lat="47.41663" lon="-0.52328">
        <ele>29.6</ele>
        <time>2023-07-19T13:22:31Z</time>
      </trkpt>
      <trkpt lat="47.41649" lon="-0.52327">
        <ele>29.4</ele>
        <time>2023-07-19T13:22:34Z</time>
      </trkpt>
      <trkpt lat="47.41636" lon="-0.52326">
        <ele>29.4</ele>
        <time>2023-07-19T13:22:37Z</time>
      </trkpt>
      <trkpt lat="47.41632" lon="-0.52326">
        <ele>29.4</ele>
        <time>2023-07-19T13:22:38Z</time>
      </trkpt>
      <trkpt lat="47.41628" lon="-0.52325">
        <ele>29.4</ele>
        <time>2023-07-19T13:22:39Z</time>
      </trkpt>
      <trkpt lat="47.41625" lon="-0.52325">
        <ele>29.4</ele>
        <time>2023-07-19T13:22:40Z</time>
      </trkpt>
      <trkpt lat="47.41621" lon="-0.52324">
        <ele>29.4</ele>
        <time>2023-07-19T13:22:41Z</time>
      </trkpt>
      <trkpt lat="47.41617" lon="-0.52324">
        <ele>29.4</ele>
        <time>2023-07-19T13:22:42Z</time>
      </trkpt>
      <trkpt lat="47.41613" lon="-0.52323">
        <ele>29.4</ele>
        <time>2023-07-19T13:22:43Z</time>
      </trkpt>
      <trkpt lat="47.41609" lon="-0.52324">
        <ele>29.4</ele>
        <time>2023-07-19T13:22:44Z</time>
      </trkpt>
      <trkpt lat="47.41606" lon="-0.52324">
        <ele>29.4</ele>
        <time>2023-07-19T13:22:45Z</time>
      </trkpt>
      <trkpt lat="47.41602" lon="-0.52324">
        <ele>29.4</ele>
        <time>2023-07-19T13:22:46Z</time>
      </trkpt>
      <trkpt lat="47.41597" lon="-0.52324">
        <ele>29.4</ele>
        <time>2023-07-19T13:22:47Z</time>
      </trkpt>
      <trkpt lat="47.4158" lon="-0.52323">
        <ele>29.2</ele>
        <time>2023-07-19T13:22:51Z</time>
      </trkpt>
      <trkpt lat="47.41563" lon="-0.52321">
        <ele>29</ele>
        <time>2023-07-19T13:22:55Z</time>
      </trkpt>
      <trkpt lat="47.4155" lon="-0.5232">
        <ele>29</ele>
        <time>2023-07-19T13:22:58Z</time>
      </trkpt>
      <trkpt lat="47.41542" lon="-0.52319">
        <ele>29</ele>
        <time>2023-07-19T13:23:00Z</time>
      </trkpt>
      <trkpt lat="47.41538" lon="-0.52319">
        <ele>29</ele>
        <time>2023-07-19T13:23:01Z</time>
      </trkpt>
      <trkpt lat="47.41534" lon="-0.52319">
        <ele>29</ele>
        <time>2023-07-19T13:23:02Z</time>
      </trkpt>
      <trkpt lat="47.41531" lon="-0.52318">
        <ele>29</ele>
        <time>2023-07-19T13:23:03Z</time>
      </trkpt>
      <trkpt lat="47.41527" lon="-0.52318">
        <ele>28.8</ele>
        <time>2023-07-19T13:23:04Z</time>
      </trkpt>
      <trkpt lat="47.41524" lon="-0.52318">
        <ele>28.8</ele>
        <time>2023-07-19T13:23:05Z</time>
      </trkpt>
      <trkpt lat="47.41521" lon="-0.52317">
        <ele>28.8</ele>
        <time>2023-07-19T13:23:06Z</time>
      </trkpt>
      <trkpt lat="47.41518" lon="-0.52318">
        <ele>28.8</ele>
        <time>2023-07-19T13:23:07Z</time>
      </trkpt>
      <trkpt lat="47.41515" lon="-0.52317">
        <ele>28.8</ele>
        <time>2023-07-19T13:23:08Z</time>
      </trkpt>
      <trkpt lat="47.41515" lon="-0.52317">
        <ele>28.8</ele>
        <time>2023-07-19T13:23:09Z</time>
      </trkpt>
      <trkpt lat="47.41515" lon="-0.52317">
        <ele>28.8</ele>
        <time>2023-07-19T13:23:10Z</time>
      </trkpt>
      <trkpt lat="47.41515" lon="-0.52317">
        <ele>28.6</ele>
        <time>2023-07-19T13:23:11Z</time>
      </trkpt>
      <trkpt lat="47.41515" lon="-0.52317">
        <ele>28.6</ele>
        <time>2023-07-19T13:23:12Z</time>
      </trkpt>
      <trkpt lat="47.4151" lon="-0.52316">
        <ele>28.8</ele>
        <time>2023-07-19T13:23:34Z</time>
      </trkpt>
      <trkpt lat="47.41503" lon="-0.52316">
        <ele>28.8</ele>
        <time>2023-07-19T13:23:36Z</time>
      </trkpt>
      <trkpt lat="47.41484" lon="-0.52316">
        <ele>28.8</ele>
        <time>2023-07-19T13:23:42Z</time>
      </trkpt>
      <trkpt lat="47.41477" lon="-0.52315">
        <ele>28.8</ele>
        <time>2023-07-19T13:23:44Z</time>
      </trkpt>
      <trkpt lat="47.41474" lon="-0.52315">
        <ele>28.8</ele>
        <time>2023-07-19T13:23:45Z</time>
      </trkpt>
      <trkpt lat="47.41463" lon="-0.52316">
        <ele>28.8</ele>
        <time>2023-07-19T13:23:48Z</time>
      </trkpt>
      <trkpt lat="47.41459" lon="-0.52317">
        <ele>28.8</ele>
        <time>2023-07-19T13:23:49Z</time>
      </trkpt>
      <trkpt lat="47.41441" lon="-0.52324">
        <ele>28.8</ele>
        <time>2023-07-19T13:23:53Z</time>
      </trkpt>
      <trkpt lat="47.41436" lon="-0.52325">
        <ele>28.8</ele>
        <time>2023-07-19T13:23:54Z</time>
      </trkpt>
      <trkpt lat="47.41427" lon="-0.52327">
        <ele>28.8</ele>
        <time>2023-07-19T13:23:56Z</time>
      </trkpt>
      <trkpt lat="47.41413" lon="-0.5233">
        <ele>28.8</ele>
        <time>2023-07-19T13:23:59Z</time>
      </trkpt>
      <trkpt lat="47.41395" lon="-0.52334">
        <ele>28.8</ele>
        <time>2023-07-19T13:24:03Z</time>
      </trkpt>
      <trkpt lat="47.41388" lon="-0.52336">
        <ele>28.6</ele>
        <time>2023-07-19T13:24:05Z</time>
      </trkpt>
      <trkpt lat="47.41384" lon="-0.52336">
        <ele>28.6</ele>
        <time>2023-07-19T13:24:06Z</time>
      </trkpt>
      <trkpt lat="47.4138" lon="-0.52337">
        <ele>28.6</ele>
        <time>2023-07-19T13:24:07Z</time>
      </trkpt>
      <trkpt lat="47.41376" lon="-0.52338">
        <ele>28.6</ele>
        <time>2023-07-19T13:24:08Z</time>
      </trkpt>
      <trkpt lat="47.41372" lon="-0.52339">
        <ele>28.6</ele>
        <time>2023-07-19T13:24:09Z</time>
      </trkpt>
      <trkpt lat="47.41368" lon="-0.5234">
        <ele>28.6</ele>
        <time>2023-07-19T13:24:10Z</time>
      </trkpt>
      <trkpt lat="47.41364" lon="-0.52341">
        <ele>28.6</ele>
        <time>2023-07-19T13:24:11Z</time>
      </trkpt>
      <trkpt lat="47.4136" lon="-0.52342">
        <ele>28.6</ele>
        <time>2023-07-19T13:24:12Z</time>
      </trkpt>
      <trkpt lat="47.41356" lon="-0.52343">
        <ele>28.6</ele>
        <time>2023-07-19T13:24:13Z</time>
      </trkpt>
      <trkpt lat="47.41352" lon="-0.52345">
        <ele>28.6</ele>
        <time>2023-07-19T13:24:14Z</time>
      </trkpt>
      <trkpt lat="47.41304" lon="-0.52358">
        <ele>28.8</ele>
        <time>2023-07-19T13:24:25Z</time>
      </trkpt>
      <trkpt lat="47.41259" lon="-0.52371">
        <ele>28.8</ele>
        <time>2023-07-19T13:24:35Z</time>
      </trkpt>
      <trkpt lat="47.41254" lon="-0.52373">
        <ele>28.8</ele>
        <time>2023-07-19T13:24:36Z</time>
      </trkpt>
      <trkpt lat="47.41241" lon="-0.52376">
        <ele>28.8</ele>
        <time>2023-07-19T13:24:39Z</time>
      </trkpt>
      <trkpt lat="47.41214" lon="-0.52382">
        <ele>28.6</ele>
        <time>2023-07-19T13:24:45Z</time>
      </trkpt>
      <trkpt lat="47.41201" lon="-0.52386">
        <ele>28.6</ele>
        <time>2023-07-19T13:24:48Z</time>
      </trkpt>
      <trkpt lat="47.41197" lon="-0.52387">
        <ele>28.4</ele>
        <time>2023-07-19T13:24:49Z</time>
      </trkpt>
      <trkpt lat="47.41183" lon="-0.52391">
        <ele>28.2</ele>
        <time>2023-07-19T13:24:52Z</time>
      </trkpt>
      <trkpt lat="47.41179" lon="-0.52392">
        <ele>28.2</ele>
        <time>2023-07-19T13:24:53Z</time>
      </trkpt>
      <trkpt lat="47.41158" lon="-0.52398">
        <ele>28.2</ele>
        <time>2023-07-19T13:24:58Z</time>
      </trkpt>
      <trkpt lat="47.41154" lon="-0.524">
        <ele>28.2</ele>
        <time>2023-07-19T13:24:59Z</time>
      </trkpt>
      <trkpt lat="47.4115" lon="-0.52401">
        <ele>28</ele>
        <time>2023-07-19T13:25:00Z</time>
      </trkpt>
      <trkpt lat="47.41124" lon="-0.52411">
        <ele>28</ele>
        <time>2023-07-19T13:25:06Z</time>
      </trkpt>
      <trkpt lat="47.41102" lon="-0.52419">
        <ele>28</ele>
        <time>2023-07-19T13:25:11Z</time>
      </trkpt>
      <trkpt lat="47.41054" lon="-0.52435">
        <ele>28.2</ele>
        <time>2023-07-19T13:25:22Z</time>
      </trkpt>
      <trkpt lat="47.4102" lon="-0.52449">
        <ele>28.4</ele>
        <time>2023-07-19T13:25:30Z</time>
      </trkpt>
      <trkpt lat="47.41016" lon="-0.52451">
        <ele>28.4</ele>
        <time>2023-07-19T13:25:31Z</time>
      </trkpt>
      <trkpt lat="47.41012" lon="-0.52453">
        <ele>28.4</ele>
        <time>2023-07-19T13:25:32Z</time>
      </trkpt>
      <trkpt lat="47.41008" lon="-0.52454">
        <ele>28.4</ele>
        <time>2023-07-19T13:25:33Z</time>
      </trkpt>
      <trkpt lat="47.41003" lon="-0.52456">
        <ele>28.4</ele>
        <time>2023-07-19T13:25:34Z</time>
      </trkpt>
      <trkpt lat="47.40995" lon="-0.52459">
        <ele>28.4</ele>
        <time>2023-07-19T13:25:36Z</time>
      </trkpt>
      <trkpt lat="47.40991" lon="-0.52461">
        <ele>28.4</ele>
        <time>2023-07-19T13:25:37Z</time>
      </trkpt>
      <trkpt lat="47.40987" lon="-0.52462">
        <ele>28.4</ele>
        <time>2023-07-19T13:25:38Z</time>
      </trkpt>
      <trkpt lat="47.40961" lon="-0.52472">
        <ele>28.4</ele>
        <time>2023-07-19T13:25:44Z</time>
      </trkpt>
      <trkpt lat="47.4093" lon="-0.52483">
        <ele>28.4</ele>
        <time>2023-07-19T13:25:51Z</time>
      </trkpt>
      <trkpt lat="47.40922" lon="-0.52485">
        <ele>28.4</ele>
        <time>2023-07-19T13:25:53Z</time>
      </trkpt>
      <trkpt lat="47.40919" lon="-0.52486">
        <ele>28.4</ele>
        <time>2023-07-19T13:25:54Z</time>
      </trkpt>
      <trkpt lat="47.40916" lon="-0.52487">
        <ele>28.4</ele>
        <time>2023-07-19T13:25:55Z</time>
      </trkpt>
      <trkpt lat="47.40913" lon="-0.52488">
        <ele>28.4</ele>
        <time>2023-07-19T13:25:56Z</time>
      </trkpt>
      <trkpt lat="47.40911" lon="-0.52489">
        <ele>28.4</ele>
        <time>2023-07-19T13:25:57Z</time>
      </trkpt>
      <trkpt lat="47.40909" lon="-0.52489">
        <ele>28.4</ele>
        <time>2023-07-19T13:25:58Z</time>
      </trkpt>
      <trkpt lat="47.40906" lon="-0.5249">
        <ele>28.4</ele>
        <time>2023-07-19T13:25:59Z</time>
      </trkpt>
      <trkpt lat="47.40904" lon="-0.5249">
        <ele>28.4</ele>
        <time>2023-07-19T13:26:00Z</time>
      </trkpt>
      <trkpt lat="47.40902" lon="-0.52491">
        <ele>28.4</ele>
        <time>2023-07-19T13:26:01Z</time>
      </trkpt>
      <trkpt lat="47.409" lon="-0.52489">
        <ele>28.4</ele>
        <time>2023-07-19T13:26:02Z</time>
      </trkpt>
      <trkpt lat="47.40897" lon="-0.52486">
        <ele>28.4</ele>
        <time>2023-07-19T13:26:03Z</time>
      </trkpt>
      <trkpt lat="47.40896" lon="-0.52464">
        <ele>28.4</ele>
        <time>2023-07-19T13:26:07Z</time>
      </trkpt>
      <trkpt lat="47.40897" lon="-0.52459">
        <ele>28.4</ele>
        <time>2023-07-19T13:26:08Z</time>
      </trkpt>
      <trkpt lat="47.40899" lon="-0.52454">
        <ele>28.2</ele>
        <time>2023-07-19T13:26:09Z</time>
      </trkpt>
      <trkpt lat="47.40901" lon="-0.52449">
        <ele>28.2</ele>
        <time>2023-07-19T13:26:10Z</time>
      </trkpt>
      <trkpt lat="47.40903" lon="-0.52444">
        <ele>28.2</ele>
        <time>2023-07-19T13:26:11Z</time>
      </trkpt>
      <trkpt lat="47.40906" lon="-0.5244">
        <ele>28</ele>
        <time>2023-07-19T13:26:12Z</time>
      </trkpt>
      <trkpt lat="47.40921" lon="-0.52417">
        <ele>27.8</ele>
        <time>2023-07-19T13:26:18Z</time>
      </trkpt>
      <trkpt lat="47.40924" lon="-0.52404">
        <ele>27.8</ele>
        <time>2023-07-19T13:26:21Z</time>
      </trkpt>
      <trkpt lat="47.40925" lon="-0.524">
        <ele>27.8</ele>
        <time>2023-07-19T13:26:22Z</time>
      </trkpt>
      <trkpt lat="47.40926" lon="-0.52396">
        <ele>27.8</ele>
        <time>2023-07-19T13:26:23Z</time>
      </trkpt>
      <trkpt lat="47.40926" lon="-0.52392">
        <ele>27.8</ele>
        <time>2023-07-19T13:26:24Z</time>
      </trkpt>
      <trkpt lat="47.40927" lon="-0.5239">
        <ele>27.8</ele>
        <time>2023-07-19T13:26:25Z</time>
      </trkpt>
      <trkpt lat="47.40927" lon="-0.52389">
        <ele>27.8</ele>
        <time>2023-07-19T13:26:26Z</time>
      </trkpt>
      <trkpt lat="47.40927" lon="-0.52389">
        <ele>27.8</ele>
        <time>2023-07-19T13:26:28Z</time>
      </trkpt>
      <trkpt lat="47.40928" lon="-0.52381">
        <ele>27.8</ele>
        <time>2023-07-19T13:26:43Z</time>
      </trkpt>
      <trkpt lat="47.4093" lon="-0.52378">
        <ele>27.8</ele>
        <time>2023-07-19T13:26:44Z</time>
      </trkpt>
      <trkpt lat="47.40931" lon="-0.52374">
        <ele>27.8</ele>
        <time>2023-07-19T13:26:45Z</time>
      </trkpt>
      <trkpt lat="47.40935" lon="-0.5235">
        <ele>27.6</ele>
        <time>2023-07-19T13:26:50Z</time>
      </trkpt>
      <trkpt lat="47.40937" lon="-0.52339">
        <ele>27.2</ele>
        <time>2023-07-19T13:26:52Z</time>
      </trkpt>
      <trkpt lat="47.40941" lon="-0.52314">
        <ele>27</ele>
        <time>2023-07-19T13:26:56Z</time>
      </trkpt>
      <trkpt lat="47.40942" lon="-0.52306">
        <ele>26.8</ele>
        <time>2023-07-19T13:26:57Z</time>
      </trkpt>
      <trkpt lat="47.40945" lon="-0.52293">
        <ele>26.4</ele>
        <time>2023-07-19T13:26:59Z</time>
      </trkpt>
      <trkpt lat="47.40946" lon="-0.52287">
        <ele>26.2</ele>
        <time>2023-07-19T13:27:00Z</time>
      </trkpt>
      <trkpt lat="47.40949" lon="-0.52267">
        <ele>25.6</ele>
        <time>2023-07-19T13:27:03Z</time>
      </trkpt>
      <trkpt lat="47.40953" lon="-0.52252">
        <ele>25.2</ele>
        <time>2023-07-19T13:27:05Z</time>
      </trkpt>
      <trkpt lat="47.40955" lon="-0.52245">
        <ele>25.2</ele>
        <time>2023-07-19T13:27:06Z</time>
      </trkpt>
      <trkpt lat="47.40959" lon="-0.52226">
        <ele>25</ele>
        <time>2023-07-19T13:27:09Z</time>
      </trkpt>
      <trkpt lat="47.40962" lon="-0.52209">
        <ele>25</ele>
        <time>2023-07-19T13:27:12Z</time>
      </trkpt>
      <trkpt lat="47.40965" lon="-0.52198">
        <ele>25</ele>
        <time>2023-07-19T13:27:14Z</time>
      </trkpt>
      <trkpt lat="47.40966" lon="-0.52192">
        <ele>25.2</ele>
        <time>2023-07-19T13:27:15Z</time>
      </trkpt>
      <trkpt lat="47.40968" lon="-0.52187">
        <ele>25.2</ele>
        <time>2023-07-19T13:27:16Z</time>
      </trkpt>
      <trkpt lat="47.40968" lon="-0.52182">
        <ele>25.2</ele>
        <time>2023-07-19T13:27:17Z</time>
      </trkpt>
      <trkpt lat="47.40969" lon="-0.52177">
        <ele>25.2</ele>
        <time>2023-07-19T13:27:18Z</time>
      </trkpt>
      <trkpt lat="47.40971" lon="-0.52171">
        <ele>25.2</ele>
        <time>2023-07-19T13:27:19Z</time>
      </trkpt>
      <trkpt lat="47.40973" lon="-0.52165">
        <ele>25.4</ele>
        <time>2023-07-19T13:27:20Z</time>
      </trkpt>
      <trkpt lat="47.40986" lon="-0.52108">
        <ele>25.4</ele>
        <time>2023-07-19T13:27:30Z</time>
      </trkpt>
      <trkpt lat="47.40995" lon="-0.52045">
        <ele>25.2</ele>
        <time>2023-07-19T13:27:40Z</time>
      </trkpt>
      <trkpt lat="47.40999" lon="-0.52022">
        <ele>25.2</ele>
        <time>2023-07-19T13:27:44Z</time>
      </trkpt>
      <trkpt lat="47.41001" lon="-0.5201">
        <ele>25.2</ele>
        <time>2023-07-19T13:27:46Z</time>
      </trkpt>
      <trkpt lat="47.41003" lon="-0.51998">
        <ele>25.2</ele>
        <time>2023-07-19T13:27:48Z</time>
      </trkpt>
      <trkpt lat="47.41011" lon="-0.51942">
        <ele>25.4</ele>
        <time>2023-07-19T13:27:57Z</time>
      </trkpt>
      <trkpt lat="47.4102" lon="-0.51879">
        <ele>25.6</ele>
        <time>2023-07-19T13:28:06Z</time>
      </trkpt>
      <trkpt lat="47.41031" lon="-0.51814">
        <ele>25.4</ele>
        <time>2023-07-19T13:28:15Z</time>
      </trkpt>
      <trkpt lat="47.41041" lon="-0.51741">
        <ele>25.2</ele>
        <time>2023-07-19T13:28:25Z</time>
      </trkpt>
      <trkpt lat="47.41043" lon="-0.51726">
        <ele>25.2</ele>
        <time>2023-07-19T13:28:27Z</time>
      </trkpt>
      <trkpt lat="47.41047" lon="-0.51695">
        <ele>25.2</ele>
        <time>2023-07-19T13:28:31Z</time>
      </trkpt>
      <trkpt lat="47.41048" lon="-0.51688">
        <ele>25.2</ele>
        <time>2023-07-19T13:28:32Z</time>
      </trkpt>
      <trkpt lat="47.41048" lon="-0.5168">
        <ele>25.2</ele>
        <time>2023-07-19T13:28:33Z</time>
      </trkpt>
      <trkpt lat="47.4105" lon="-0.51665">
        <ele>25.2</ele>
        <time>2023-07-19T13:28:35Z</time>
      </trkpt>
      <trkpt lat="47.41054" lon="-0.51621">
        <ele>25.2</ele>
        <time>2023-07-19T13:28:41Z</time>
      </trkpt>
      <trkpt lat="47.41055" lon="-0.51614">
        <ele>25.2</ele>
        <time>2023-07-19T13:28:42Z</time>
      </trkpt>
      <trkpt lat="47.41056" lon="-0.51607">
        <ele>25.2</ele>
        <time>2023-07-19T13:28:43Z</time>
      </trkpt>
      <trkpt lat="47.41057" lon="-0.51599">
        <ele>25.2</ele>
        <time>2023-07-19T13:28:44Z</time>
      </trkpt>
      <trkpt lat="47.41058" lon="-0.51592">
        <ele>25.2</ele>
        <time>2023-07-19T13:28:45Z</time>
      </trkpt>
      <trkpt lat="47.41061" lon="-0.51572">
        <ele>25.2</ele>
        <time>2023-07-19T13:28:48Z</time>
      </trkpt>
      <trkpt lat="47.41062" lon="-0.51565">
        <ele>25.2</ele>
        <time>2023-07-19T13:28:49Z</time>
      </trkpt>
      <trkpt lat="47.41063" lon="-0.51558">
        <ele>25.2</ele>
        <time>2023-07-19T13:28:50Z</time>
      </trkpt>
      <trkpt lat="47.41064" lon="-0.51552">
        <ele>25.2</ele>
        <time>2023-07-19T13:28:51Z</time>
      </trkpt>
      <trkpt lat="47.41065" lon="-0.51545">
        <ele>25.2</ele>
        <time>2023-07-19T13:28:52Z</time>
      </trkpt>
      <trkpt lat="47.41067" lon="-0.51539">
        <ele>25.4</ele>
        <time>2023-07-19T13:28:53Z</time>
      </trkpt>
      <trkpt lat="47.41068" lon="-0.51533">
        <ele>25.4</ele>
        <time>2023-07-19T13:28:54Z</time>
      </trkpt>
      <trkpt lat="47.4107" lon="-0.51527">
        <ele>25.4</ele>
        <time>2023-07-19T13:28:55Z</time>
      </trkpt>
      <trkpt lat="47.41072" lon="-0.51521">
        <ele>25.4</ele>
        <time>2023-07-19T13:28:56Z</time>
      </trkpt>
      <trkpt lat="47.41073" lon="-0.51516">
        <ele>25.4</ele>
        <time>2023-07-19T13:28:57Z</time>
      </trkpt>
      <trkpt lat="47.41075" lon="-0.5151">
        <ele>25.4</ele>
        <time>2023-07-19T13:28:58Z</time>
      </trkpt>
      <trkpt lat="47.41076" lon="-0.51505">
        <ele>25.4</ele>
        <time>2023-07-19T13:28:59Z</time>
      </trkpt>
      <trkpt lat="47.41077" lon="-0.515">
        <ele>25.6</ele>
        <time>2023-07-19T13:29:00Z</time>
      </trkpt>
      <trkpt lat="47.41078" lon="-0.51495">
        <ele>25.6</ele>
        <time>2023-07-19T13:29:01Z</time>
      </trkpt>
      <trkpt lat="47.41078" lon="-0.51491">
        <ele>25.6</ele>
        <time>2023-07-19T13:29:02Z</time>
      </trkpt>
      <trkpt lat="47.41077" lon="-0.51487">
        <ele>25.6</ele>
        <time>2023-07-19T13:29:03Z</time>
      </trkpt>
      <trkpt lat="47.41078" lon="-0.51482">
        <ele>25.6</ele>
        <time>2023-07-19T13:29:04Z</time>
      </trkpt>
      <trkpt lat="47.41079" lon="-0.51474">
        <ele>25.6</ele>
        <time>2023-07-19T13:29:06Z</time>
      </trkpt>
      <trkpt lat="47.4108" lon="-0.5147">
        <ele>25.6</ele>
        <time>2023-07-19T13:29:07Z</time>
      </trkpt>
      <trkpt lat="47.41084" lon="-0.51442">
        <ele>25.4</ele>
        <time>2023-07-19T13:29:13Z</time>
      </trkpt>
      <trkpt lat="47.41085" lon="-0.51438">
        <ele>25.4</ele>
        <time>2023-07-19T13:29:14Z</time>
      </trkpt>
      <trkpt lat="47.41085" lon="-0.51434">
        <ele>25.4</ele>
        <time>2023-07-19T13:29:15Z</time>
      </trkpt>
      <trkpt lat="47.41085" lon="-0.51431">
        <ele>25.4</ele>
        <time>2023-07-19T13:29:16Z</time>
      </trkpt>
      <trkpt lat="47.41086" lon="-0.51427">
        <ele>25.4</ele>
        <time>2023-07-19T13:29:17Z</time>
      </trkpt>
      <trkpt lat="47.41085" lon="-0.51414">
        <ele>25.2</ele>
        <time>2023-07-19T13:29:20Z</time>
      </trkpt>
      <trkpt lat="47.41083" lon="-0.5141">
        <ele>25.2</ele>
        <time>2023-07-19T13:29:21Z</time>
      </trkpt>
      <trkpt lat="47.41082" lon="-0.51406">
        <ele>25.2</ele>
        <time>2023-07-19T13:29:22Z</time>
      </trkpt>
      <trkpt lat="47.41079" lon="-0.51403">
        <ele>25.2</ele>
        <time>2023-07-19T13:29:23Z</time>
      </trkpt>
      <trkpt lat="47.41076" lon="-0.514">
        <ele>25.2</ele>
        <time>2023-07-19T13:29:24Z</time>
      </trkpt>
      <trkpt lat="47.41071" lon="-0.51399">
        <ele>25</ele>
        <time>2023-07-19T13:29:25Z</time>
      </trkpt>
      <trkpt lat="47.41066" lon="-0.51397">
        <ele>25</ele>
        <time>2023-07-19T13:29:26Z</time>
      </trkpt>
      <trkpt lat="47.4106" lon="-0.51396">
        <ele>25</ele>
        <time>2023-07-19T13:29:27Z</time>
      </trkpt>
      <trkpt lat="47.41055" lon="-0.51394">
        <ele>25</ele>
        <time>2023-07-19T13:29:28Z</time>
      </trkpt>
      <trkpt lat="47.41051" lon="-0.51392">
        <ele>25</ele>
        <time>2023-07-19T13:29:29Z</time>
      </trkpt>
      <trkpt lat="47.41048" lon="-0.51386">
        <ele>25</ele>
        <time>2023-07-19T13:29:30Z</time>
      </trkpt>
      <trkpt lat="47.41046" lon="-0.51381">
        <ele>25</ele>
        <time>2023-07-19T13:29:31Z</time>
      </trkpt>
      <trkpt lat="47.41044" lon="-0.51377">
        <ele>25</ele>
        <time>2023-07-19T13:29:32Z</time>
      </trkpt>
      <trkpt lat="47.41041" lon="-0.51374">
        <ele>25</ele>
        <time>2023-07-19T13:29:33Z</time>
      </trkpt>
      <trkpt lat="47.41039" lon="-0.51372">
        <ele>25</ele>
        <time>2023-07-19T13:29:34Z</time>
      </trkpt>
      <trkpt lat="47.41027" lon="-0.51358">
        <ele>25</ele>
        <time>2023-07-19T13:29:38Z</time>
      </trkpt>
      <trkpt lat="47.41022" lon="-0.51356">
        <ele>25</ele>
        <time>2023-07-19T13:29:39Z</time>
      </trkpt>
      <trkpt lat="47.41014" lon="-0.5135">
        <ele>25</ele>
        <time>2023-07-19T13:29:41Z</time>
      </trkpt>
      <trkpt lat="47.41" lon="-0.51343">
        <ele>25</ele>
        <time>2023-07-19T13:29:44Z</time>
      </trkpt>
      <trkpt lat="47.4099" lon="-0.51338">
        <ele>24.8</ele>
        <time>2023-07-19T13:29:46Z</time>
      </trkpt>
      <trkpt lat="47.4098" lon="-0.51334">
        <ele>24.6</ele>
        <time>2023-07-19T13:29:48Z</time>
      </trkpt>
      <trkpt lat="47.40969" lon="-0.51331">
        <ele>24.4</ele>
        <time>2023-07-19T13:29:50Z</time>
      </trkpt>
      <trkpt lat="47.40965" lon="-0.51328">
        <ele>24.2</ele>
        <time>2023-07-19T13:29:51Z</time>
      </trkpt>
      <trkpt lat="47.4096" lon="-0.51326">
        <ele>24.2</ele>
        <time>2023-07-19T13:29:52Z</time>
      </trkpt>
      <trkpt lat="47.40956" lon="-0.51323">
        <ele>24</ele>
        <time>2023-07-19T13:29:53Z</time>
      </trkpt>
      <trkpt lat="47.40945" lon="-0.51319">
        <ele>24</ele>
        <time>2023-07-19T13:29:55Z</time>
      </trkpt>
      <trkpt lat="47.4094" lon="-0.51316">
        <ele>24</ele>
        <time>2023-07-19T13:29:56Z</time>
      </trkpt>
      <trkpt lat="47.40935" lon="-0.51316">
        <ele>24</ele>
        <time>2023-07-19T13:29:57Z</time>
      </trkpt>
      <trkpt lat="47.40924" lon="-0.51319">
        <ele>23.8</ele>
        <time>2023-07-19T13:29:59Z</time>
      </trkpt>
      <trkpt lat="47.4092" lon="-0.51322">
        <ele>23.8</ele>
        <time>2023-07-19T13:30:00Z</time>
      </trkpt>
      <trkpt lat="47.40916" lon="-0.51325">
        <ele>23.8</ele>
        <time>2023-07-19T13:30:01Z</time>
      </trkpt>
      <trkpt lat="47.40912" lon="-0.51328">
        <ele>23.8</ele>
        <time>2023-07-19T13:30:02Z</time>
      </trkpt>
      <trkpt lat="47.40908" lon="-0.51332">
        <ele>23.8</ele>
        <time>2023-07-19T13:30:03Z</time>
      </trkpt>
      <trkpt lat="47.40903" lon="-0.51334">
        <ele>23.8</ele>
        <time>2023-07-19T13:30:04Z</time>
      </trkpt>
      <trkpt lat="47.40899" lon="-0.51335">
        <ele>23.8</ele>
        <time>2023-07-19T13:30:05Z</time>
      </trkpt>
      <trkpt lat="47.40894" lon="-0.51336">
        <ele>23.8</ele>
        <time>2023-07-19T13:30:06Z</time>
      </trkpt>
      <trkpt lat="47.40889" lon="-0.51334">
        <ele>23.8</ele>
        <time>2023-07-19T13:30:07Z</time>
      </trkpt>
      <trkpt lat="47.40885" lon="-0.51331">
        <ele>23.8</ele>
        <time>2023-07-19T13:30:08Z</time>
      </trkpt>
      <trkpt lat="47.40882" lon="-0.51327">
        <ele>23.8</ele>
        <time>2023-07-19T13:30:09Z</time>
      </trkpt>
      <trkpt lat="47.40881" lon="-0.51322">
        <ele>23.8</ele>
        <time>2023-07-19T13:30:10Z</time>
      </trkpt>
      <trkpt lat="47.40878" lon="-0.51316">
        <ele>23.8</ele>
        <time>2023-07-19T13:30:11Z</time>
      </trkpt>
      <trkpt lat="47.40877" lon="-0.51311">
        <ele>23.8</ele>
        <time>2023-07-19T13:30:12Z</time>
      </trkpt>
      <trkpt lat="47.40877" lon="-0.51305">
        <ele>23.8</ele>
        <time>2023-07-19T13:30:13Z</time>
      </trkpt>
      <trkpt lat="47.40875" lon="-0.51299">
        <ele>23.8</ele>
        <time>2023-07-19T13:30:14Z</time>
      </trkpt>
      <trkpt lat="47.40871" lon="-0.51283">
        <ele>23.8</ele>
        <time>2023-07-19T13:30:17Z</time>
      </trkpt>
      <trkpt lat="47.40869" lon="-0.51243">
        <ele>24</ele>
        <time>2023-07-19T13:30:24Z</time>
      </trkpt>
      <trkpt lat="47.4087" lon="-0.51239">
        <ele>24</ele>
        <time>2023-07-19T13:30:25Z</time>
      </trkpt>
      <trkpt lat="47.40871" lon="-0.51234">
        <ele>24.2</ele>
        <time>2023-07-19T13:30:26Z</time>
      </trkpt>
      <trkpt lat="47.40875" lon="-0.51205">
        <ele>24.4</ele>
        <time>2023-07-19T13:30:31Z</time>
      </trkpt>
      <trkpt lat="47.40881" lon="-0.51177">
        <ele>24.8</ele>
        <time>2023-07-19T13:30:36Z</time>
      </trkpt>
      <trkpt lat="47.40884" lon="-0.51148">
        <ele>25</ele>
        <time>2023-07-19T13:30:41Z</time>
      </trkpt>
      <trkpt lat="47.40886" lon="-0.51136">
        <ele>25</ele>
        <time>2023-07-19T13:30:43Z</time>
      </trkpt>
      <trkpt lat="47.40886" lon="-0.51131">
        <ele>25</ele>
        <time>2023-07-19T13:30:44Z</time>
      </trkpt>
      <trkpt lat="47.40887" lon="-0.51126">
        <ele>25</ele>
        <time>2023-07-19T13:30:45Z</time>
      </trkpt>
      <trkpt lat="47.40887" lon="-0.5112">
        <ele>25</ele>
        <time>2023-07-19T13:30:46Z</time>
      </trkpt>
      <trkpt lat="47.40887" lon="-0.51114">
        <ele>25</ele>
        <time>2023-07-19T13:30:47Z</time>
      </trkpt>
      <trkpt lat="47.40886" lon="-0.51107">
        <ele>25</ele>
        <time>2023-07-19T13:30:48Z</time>
      </trkpt>
      <trkpt lat="47.40885" lon="-0.51101">
        <ele>25</ele>
        <time>2023-07-19T13:30:49Z</time>
      </trkpt>
      <trkpt lat="47.40885" lon="-0.51094">
        <ele>25</ele>
        <time>2023-07-19T13:30:50Z</time>
      </trkpt>
      <trkpt lat="47.40885" lon="-0.51088">
        <ele>25</ele>
        <time>2023-07-19T13:30:51Z</time>
      </trkpt>
      <trkpt lat="47.40885" lon="-0.51084">
        <ele>25</ele>
        <time>2023-07-19T13:30:52Z</time>
      </trkpt>
      <trkpt lat="47.40885" lon="-0.51078">
        <ele>25</ele>
        <time>2023-07-19T13:30:53Z</time>
      </trkpt>
      <trkpt lat="47.40886" lon="-0.51073">
        <ele>25</ele>
        <time>2023-07-19T13:30:54Z</time>
      </trkpt>
      <trkpt lat="47.4089" lon="-0.51055">
        <ele>25</ele>
        <time>2023-07-19T13:30:57Z</time>
      </trkpt>
      <trkpt lat="47.40892" lon="-0.5105">
        <ele>25</ele>
        <time>2023-07-19T13:30:58Z</time>
      </trkpt>
      <trkpt lat="47.40893" lon="-0.51045">
        <ele>25</ele>
        <time>2023-07-19T13:30:59Z</time>
      </trkpt>
      <trkpt lat="47.40898" lon="-0.51029">
        <ele>25</ele>
        <time>2023-07-19T13:31:02Z</time>
      </trkpt>
      <trkpt lat="47.409" lon="-0.51019">
        <ele>25</ele>
        <time>2023-07-19T13:31:04Z</time>
      </trkpt>
      <trkpt lat="47.40901" lon="-0.51013">
        <ele>25</ele>
        <time>2023-07-19T13:31:05Z</time>
      </trkpt>
      <trkpt lat="47.409" lon="-0.51">
        <ele>25</ele>
        <time>2023-07-19T13:31:07Z</time>
      </trkpt>
      <trkpt lat="47.40901" lon="-0.50994">
        <ele>25</ele>
        <time>2023-07-19T13:31:08Z</time>
      </trkpt>
      <trkpt lat="47.40901" lon="-0.50989">
        <ele>25</ele>
        <time>2023-07-19T13:31:09Z</time>
      </trkpt>
      <trkpt lat="47.40899" lon="-0.50982">
        <ele>25</ele>
        <time>2023-07-19T13:31:10Z</time>
      </trkpt>
      <trkpt lat="47.40893" lon="-0.50972">
        <ele>25.2</ele>
        <time>2023-07-19T13:31:12Z</time>
      </trkpt>
      <trkpt lat="47.4089" lon="-0.50968">
        <ele>25.2</ele>
        <time>2023-07-19T13:31:13Z</time>
      </trkpt>
      <trkpt lat="47.40888" lon="-0.50965">
        <ele>25.4</ele>
        <time>2023-07-19T13:31:14Z</time>
      </trkpt>
      <trkpt lat="47.40884" lon="-0.50962">
        <ele>25.4</ele>
        <time>2023-07-19T13:31:15Z</time>
      </trkpt>
      <trkpt lat="47.40881" lon="-0.50961">
        <ele>25.4</ele>
        <time>2023-07-19T13:31:16Z</time>
      </trkpt>
      <trkpt lat="47.40874" lon="-0.50958">
        <ele>25.4</ele>
        <time>2023-07-19T13:31:18Z</time>
      </trkpt>
      <trkpt lat="47.40872" lon="-0.50956">
        <ele>25.4</ele>
        <time>2023-07-19T13:31:19Z</time>
      </trkpt>
      <trkpt lat="47.40867" lon="-0.50952">
        <ele>25.4</ele>
        <time>2023-07-19T13:31:21Z</time>
      </trkpt>
      <trkpt lat="47.40864" lon="-0.5095">
        <ele>25.4</ele>
        <time>2023-07-19T13:31:22Z</time>
      </trkpt>
      <trkpt lat="47.40861" lon="-0.50949">
        <ele>25.4</ele>
        <time>2023-07-19T13:31:23Z</time>
      </trkpt>
      <trkpt lat="47.40858" lon="-0.50947">
        <ele>25.4</ele>
        <time>2023-07-19T13:31:24Z</time>
      </trkpt>
      <trkpt lat="47.40832" lon="-0.50931">
        <ele>25.2</ele>
        <time>2023-07-19T13:31:32Z</time>
      </trkpt>
      <trkpt lat="47.4081" lon="-0.50922">
        <ele>25.4</ele>
        <time>2023-07-19T13:31:39Z</time>
      </trkpt>
      <trkpt lat="47.40807" lon="-0.50922">
        <ele>25.4</ele>
        <time>2023-07-19T13:31:40Z</time>
      </trkpt>
      <trkpt lat="47.40804" lon="-0.50923">
        <ele>25.4</ele>
        <time>2023-07-19T13:31:41Z</time>
      </trkpt>
      <trkpt lat="47.40801" lon="-0.50923">
        <ele>25.4</ele>
        <time>2023-07-19T13:31:42Z</time>
      </trkpt>
      <trkpt lat="47.40798" lon="-0.50924">
        <ele>25.4</ele>
        <time>2023-07-19T13:31:43Z</time>
      </trkpt>
      <trkpt lat="47.40789" lon="-0.50927">
        <ele>25.8</ele>
        <time>2023-07-19T13:31:46Z</time>
      </trkpt>
      <trkpt lat="47.40786" lon="-0.50928">
        <ele>26</ele>
        <time>2023-07-19T13:31:47Z</time>
      </trkpt>
      <trkpt lat="47.40783" lon="-0.50929">
        <ele>26</ele>
        <time>2023-07-19T13:31:48Z</time>
      </trkpt>
      <trkpt lat="47.40763" lon="-0.50938">
        <ele>26.4</ele>
        <time>2023-07-19T13:31:54Z</time>
      </trkpt>
      <trkpt lat="47.40757" lon="-0.5094">
        <ele>26.4</ele>
        <time>2023-07-19T13:31:56Z</time>
      </trkpt>
      <trkpt lat="47.40729" lon="-0.50952">
        <ele>26.4</ele>
        <time>2023-07-19T13:32:03Z</time>
      </trkpt>
      <trkpt lat="47.40704" lon="-0.5096">
        <ele>25.8</ele>
        <time>2023-07-19T13:32:10Z</time>
      </trkpt>
      <trkpt lat="47.40701" lon="-0.50961">
        <ele>25.8</ele>
        <time>2023-07-19T13:32:11Z</time>
      </trkpt>
      <trkpt lat="47.40697" lon="-0.50962">
        <ele>25.8</ele>
        <time>2023-07-19T13:32:12Z</time>
      </trkpt>
      <trkpt lat="47.40694" lon="-0.50963">
        <ele>25.8</ele>
        <time>2023-07-19T13:32:13Z</time>
      </trkpt>
      <trkpt lat="47.40691" lon="-0.50964">
        <ele>25.8</ele>
        <time>2023-07-19T13:32:14Z</time>
      </trkpt>
      <trkpt lat="47.40687" lon="-0.50965">
        <ele>26</ele>
        <time>2023-07-19T13:32:15Z</time>
      </trkpt>
      <trkpt lat="47.40684" lon="-0.50966">
        <ele>26</ele>
        <time>2023-07-19T13:32:16Z</time>
      </trkpt>
      <trkpt lat="47.4068" lon="-0.50968">
        <ele>25.6</ele>
        <time>2023-07-19T13:32:17Z</time>
      </trkpt>
      <trkpt lat="47.40659" lon="-0.50975">
        <ele>25.8</ele>
        <time>2023-07-19T13:32:23Z</time>
      </trkpt>
      <trkpt lat="47.4063" lon="-0.50985">
        <ele>25.8</ele>
        <time>2023-07-19T13:32:31Z</time>
      </trkpt>
      <trkpt lat="47.40605" lon="-0.50986">
        <ele>25.8</ele>
        <time>2023-07-19T13:32:38Z</time>
      </trkpt>
      <trkpt lat="47.40602" lon="-0.50983">
        <ele>25.8</ele>
        <time>2023-07-19T13:32:39Z</time>
      </trkpt>
      <trkpt lat="47.406" lon="-0.5098">
        <ele>25.8</ele>
        <time>2023-07-19T13:32:40Z</time>
      </trkpt>
      <trkpt lat="47.40599" lon="-0.50978">
        <ele>25.8</ele>
        <time>2023-07-19T13:32:41Z</time>
      </trkpt>
      <trkpt lat="47.40599" lon="-0.50975">
        <ele>25.8</ele>
        <time>2023-07-19T13:32:42Z</time>
      </trkpt>
      <trkpt lat="47.40598" lon="-0.50972">
        <ele>25.8</ele>
        <time>2023-07-19T13:32:43Z</time>
      </trkpt>
      <trkpt lat="47.40598" lon="-0.50969">
        <ele>25.8</ele>
        <time>2023-07-19T13:32:44Z</time>
      </trkpt>
      <trkpt lat="47.40598" lon="-0.50966">
        <ele>25.8</ele>
        <time>2023-07-19T13:32:45Z</time>
      </trkpt>
      <trkpt lat="47.40597" lon="-0.50963">
        <ele>25.6</ele>
        <time>2023-07-19T13:32:46Z</time>
      </trkpt>
      <trkpt lat="47.40596" lon="-0.50951">
        <ele>25.6</ele>
        <time>2023-07-19T13:32:47Z</time>
      </trkpt>
      <trkpt lat="47.40596" lon="-0.50945">
        <ele>25.2</ele>
        <time>2023-07-19T13:32:48Z</time>
      </trkpt>
      <trkpt lat="47.40598" lon="-0.50938">
        <ele>25.2</ele>
        <time>2023-07-19T13:32:49Z</time>
      </trkpt>
      <trkpt lat="47.406" lon="-0.50934">
        <ele>25</ele>
        <time>2023-07-19T13:32:50Z</time>
      </trkpt>
      <trkpt lat="47.40602" lon="-0.50929">
        <ele>25</ele>
        <time>2023-07-19T13:32:51Z</time>
      </trkpt>
      <trkpt lat="47.40605" lon="-0.50925">
        <ele>24.8</ele>
        <time>2023-07-19T13:32:52Z</time>
      </trkpt>
      <trkpt lat="47.40607" lon="-0.50922">
        <ele>24.8</ele>
        <time>2023-07-19T13:32:53Z</time>
      </trkpt>
      <trkpt lat="47.40609" lon="-0.50921">
        <ele>24.8</ele>
        <time>2023-07-19T13:32:54Z</time>
      </trkpt>
      <trkpt lat="47.40613" lon="-0.50919">
        <ele>24.8</ele>
        <time>2023-07-19T13:32:55Z</time>
      </trkpt>
      <trkpt lat="47.40616" lon="-0.50918">
        <ele>24.8</ele>
        <time>2023-07-19T13:32:56Z</time>
      </trkpt>
      <trkpt lat="47.40631" lon="-0.50912">
        <ele>24.6</ele>
        <time>2023-07-19T13:33:01Z</time>
      </trkpt>
      <trkpt lat="47.40639" lon="-0.50908">
        <ele>24.8</ele>
        <time>2023-07-19T13:33:04Z</time>
      </trkpt>
      <trkpt lat="47.40646" lon="-0.50905">
        <ele>25</ele>
        <time>2023-07-19T13:33:06Z</time>
      </trkpt>
      <trkpt lat="47.40671" lon="-0.50895">
        <ele>25.4</ele>
        <time>2023-07-19T13:33:13Z</time>
      </trkpt>
      <trkpt lat="47.40681" lon="-0.50892">
        <ele>25.4</ele>
        <time>2023-07-19T13:33:16Z</time>
      </trkpt>
      <trkpt lat="47.40686" lon="-0.5089">
        <ele>25.4</ele>
        <time>2023-07-19T13:33:17Z</time>
      </trkpt>
      <trkpt lat="47.40692" lon="-0.50887">
        <ele>25.4</ele>
        <time>2023-07-19T13:33:18Z</time>
      </trkpt>
      <trkpt lat="47.40695" lon="-0.50886">
        <ele>25.4</ele>
        <time>2023-07-19T13:33:19Z</time>
      </trkpt>
      <trkpt lat="47.40702" lon="-0.50883">
        <ele>25.4</ele>
        <time>2023-07-19T13:33:21Z</time>
      </trkpt>
      <trkpt lat="47.40705" lon="-0.50882">
        <ele>25.4</ele>
        <time>2023-07-19T13:33:22Z</time>
      </trkpt>
      <trkpt lat="47.4071" lon="-0.50879">
        <ele>25.4</ele>
        <time>2023-07-19T13:33:23Z</time>
      </trkpt>
      <trkpt lat="47.40728" lon="-0.50871">
        <ele>25.4</ele>
        <time>2023-07-19T13:33:27Z</time>
      </trkpt>
      <trkpt lat="47.40732" lon="-0.50869">
        <ele>25.2</ele>
        <time>2023-07-19T13:33:28Z</time>
      </trkpt>
      <trkpt lat="47.40745" lon="-0.50857">
        <ele>25.2</ele>
        <time>2023-07-19T13:33:32Z</time>
      </trkpt>
      <trkpt lat="47.40748" lon="-0.50853">
        <ele>25.2</ele>
        <time>2023-07-19T13:33:33Z</time>
      </trkpt>
      <trkpt lat="47.4075" lon="-0.50848">
        <ele>25</ele>
        <time>2023-07-19T13:33:34Z</time>
      </trkpt>
      <trkpt lat="47.40751" lon="-0.50843">
        <ele>25</ele>
        <time>2023-07-19T13:33:35Z</time>
      </trkpt>
      <trkpt lat="47.40755" lon="-0.50832">
        <ele>25</ele>
        <time>2023-07-19T13:33:37Z</time>
      </trkpt>
      <trkpt lat="47.40757" lon="-0.50827">
        <ele>25</ele>
        <time>2023-07-19T13:33:38Z</time>
      </trkpt>
      <trkpt lat="47.40758" lon="-0.50822">
        <ele>25</ele>
        <time>2023-07-19T13:33:39Z</time>
      </trkpt>
      <trkpt lat="47.40764" lon="-0.50799">
        <ele>25</ele>
        <time>2023-07-19T13:33:43Z</time>
      </trkpt>
      <trkpt lat="47.40767" lon="-0.50787">
        <ele>25</ele>
        <time>2023-07-19T13:33:45Z</time>
      </trkpt>
      <trkpt lat="47.40768" lon="-0.50782">
        <ele>25</ele>
        <time>2023-07-19T13:33:46Z</time>
      </trkpt>
      <trkpt lat="47.40769" lon="-0.50777">
        <ele>25</ele>
        <time>2023-07-19T13:33:47Z</time>
      </trkpt>
      <trkpt lat="47.40771" lon="-0.50771">
        <ele>25</ele>
        <time>2023-07-19T13:33:48Z</time>
      </trkpt>
      <trkpt lat="47.40772" lon="-0.50766">
        <ele>25</ele>
        <time>2023-07-19T13:33:49Z</time>
      </trkpt>
      <trkpt lat="47.40772" lon="-0.5076">
        <ele>25</ele>
        <time>2023-07-19T13:33:50Z</time>
      </trkpt>
      <trkpt lat="47.40773" lon="-0.50748">
        <ele>25</ele>
        <time>2023-07-19T13:33:52Z</time>
      </trkpt>
      <trkpt lat="47.40774" lon="-0.5073">
        <ele>25</ele>
        <time>2023-07-19T13:33:55Z</time>
      </trkpt>
      <trkpt lat="47.40774" lon="-0.50707">
        <ele>25</ele>
        <time>2023-07-19T13:33:59Z</time>
      </trkpt>
      <trkpt lat="47.40777" lon="-0.50659">
        <ele>25.2</ele>
        <time>2023-07-19T13:34:07Z</time>
      </trkpt>
      <trkpt lat="47.40782" lon="-0.50631">
        <ele>25.2</ele>
        <time>2023-07-19T13:34:12Z</time>
      </trkpt>
      <trkpt lat="47.40782" lon="-0.50626">
        <ele>25.2</ele>
        <time>2023-07-19T13:34:13Z</time>
      </trkpt>
      <trkpt lat="47.40783" lon="-0.5062">
        <ele>25.2</ele>
        <time>2023-07-19T13:34:14Z</time>
      </trkpt>
      <trkpt lat="47.40784" lon="-0.50615">
        <ele>25.4</ele>
        <time>2023-07-19T13:34:15Z</time>
      </trkpt>
      <trkpt lat="47.40794" lon="-0.50569">
        <ele>25.6</ele>
        <time>2023-07-19T13:34:23Z</time>
      </trkpt>
      <trkpt lat="47.40798" lon="-0.50515">
        <ele>25.6</ele>
        <time>2023-07-19T13:34:32Z</time>
      </trkpt>
      <trkpt lat="47.40793" lon="-0.50475">
        <ele>25.8</ele>
        <time>2023-07-19T13:34:39Z</time>
      </trkpt>
      <trkpt lat="47.40792" lon="-0.5047">
        <ele>25.8</ele>
        <time>2023-07-19T13:34:40Z</time>
      </trkpt>
      <trkpt lat="47.40792" lon="-0.50465">
        <ele>25.8</ele>
        <time>2023-07-19T13:34:41Z</time>
      </trkpt>
      <trkpt lat="47.40791" lon="-0.50461">
        <ele>25.8</ele>
        <time>2023-07-19T13:34:42Z</time>
      </trkpt>
      <trkpt lat="47.4079" lon="-0.50455">
        <ele>25.8</ele>
        <time>2023-07-19T13:34:43Z</time>
      </trkpt>
      <trkpt lat="47.4079" lon="-0.5045">
        <ele>25.8</ele>
        <time>2023-07-19T13:34:44Z</time>
      </trkpt>
      <trkpt lat="47.4079" lon="-0.50444">
        <ele>25.8</ele>
        <time>2023-07-19T13:34:45Z</time>
      </trkpt>
      <trkpt lat="47.4079" lon="-0.50439">
        <ele>25.8</ele>
        <time>2023-07-19T13:34:46Z</time>
      </trkpt>
      <trkpt lat="47.40788" lon="-0.50416">
        <ele>25.8</ele>
        <time>2023-07-19T13:34:50Z</time>
      </trkpt>
      <trkpt lat="47.40788" lon="-0.5035">
        <ele>25.8</ele>
        <time>2023-07-19T13:35:00Z</time>
      </trkpt>
      <trkpt lat="47.4079" lon="-0.50303">
        <ele>25.6</ele>
        <time>2023-07-19T13:35:07Z</time>
      </trkpt>
      <trkpt lat="47.4079" lon="-0.50297">
        <ele>25.6</ele>
        <time>2023-07-19T13:35:08Z</time>
      </trkpt>
      <trkpt lat="47.4079" lon="-0.5029">
        <ele>25.6</ele>
        <time>2023-07-19T13:35:09Z</time>
      </trkpt>
      <trkpt lat="47.4079" lon="-0.50284">
        <ele>25.6</ele>
        <time>2023-07-19T13:35:10Z</time>
      </trkpt>
      <trkpt lat="47.4079" lon="-0.50271">
        <ele>25.6</ele>
        <time>2023-07-19T13:35:12Z</time>
      </trkpt>
      <trkpt lat="47.4079" lon="-0.50264">
        <ele>25.6</ele>
        <time>2023-07-19T13:35:13Z</time>
      </trkpt>
      <trkpt lat="47.40789" lon="-0.50245">
        <ele>25.6</ele>
        <time>2023-07-19T13:35:16Z</time>
      </trkpt>
      <trkpt lat="47.40789" lon="-0.50239">
        <ele>25.6</ele>
        <time>2023-07-19T13:35:17Z</time>
      </trkpt>
      <trkpt lat="47.40789" lon="-0.50232">
        <ele>25.6</ele>
        <time>2023-07-19T13:35:18Z</time>
      </trkpt>
      <trkpt lat="47.40789" lon="-0.50226">
        <ele>25.6</ele>
        <time>2023-07-19T13:35:19Z</time>
      </trkpt>
      <trkpt lat="47.40788" lon="-0.50207">
        <ele>25.6</ele>
        <time>2023-07-19T13:35:22Z</time>
      </trkpt>
      <trkpt lat="47.40788" lon="-0.50201">
        <ele>25.6</ele>
        <time>2023-07-19T13:35:23Z</time>
      </trkpt>
      <trkpt lat="47.40788" lon="-0.50196">
        <ele>25.6</ele>
        <time>2023-07-19T13:35:24Z</time>
      </trkpt>
      <trkpt lat="47.40788" lon="-0.50191">
        <ele>25.6</ele>
        <time>2023-07-19T13:35:25Z</time>
      </trkpt>
      <trkpt lat="47.40788" lon="-0.50185">
        <ele>25.6</ele>
        <time>2023-07-19T13:35:26Z</time>
      </trkpt>
      <trkpt lat="47.40788" lon="-0.50179">
        <ele>25.6</ele>
        <time>2023-07-19T13:35:27Z</time>
      </trkpt>
      <trkpt lat="47.40788" lon="-0.50173">
        <ele>25.6</ele>
        <time>2023-07-19T13:35:28Z</time>
      </trkpt>
      <trkpt lat="47.40788" lon="-0.50167">
        <ele>25.6</ele>
        <time>2023-07-19T13:35:29Z</time>
      </trkpt>
      <trkpt lat="47.40788" lon="-0.50141">
        <ele>25.4</ele>
        <time>2023-07-19T13:35:33Z</time>
      </trkpt>
      <trkpt lat="47.40787" lon="-0.50081">
        <ele>25</ele>
        <time>2023-07-19T13:35:42Z</time>
      </trkpt>
      <trkpt lat="47.40787" lon="-0.50075">
        <ele>24.8</ele>
        <time>2023-07-19T13:35:43Z</time>
      </trkpt>
      <trkpt lat="47.40787" lon="-0.50068">
        <ele>24.8</ele>
        <time>2023-07-19T13:35:44Z</time>
      </trkpt>
      <trkpt lat="47.40787" lon="-0.50062">
        <ele>24.8</ele>
        <time>2023-07-19T13:35:45Z</time>
      </trkpt>
      <trkpt lat="47.40787" lon="-0.50055">
        <ele>24.6</ele>
        <time>2023-07-19T13:35:46Z</time>
      </trkpt>
      <trkpt lat="47.40787" lon="-0.50042">
        <ele>24.6</ele>
        <time>2023-07-19T13:35:48Z</time>
      </trkpt>
      <trkpt lat="47.40786" lon="-0.50023">
        <ele>24.6</ele>
        <time>2023-07-19T13:35:51Z</time>
      </trkpt>
      <trkpt lat="47.40785" lon="-0.49998">
        <ele>24.6</ele>
        <time>2023-07-19T13:35:55Z</time>
      </trkpt>
      <trkpt lat="47.40785" lon="-0.49992">
        <ele>24.6</ele>
        <time>2023-07-19T13:35:56Z</time>
      </trkpt>
      <trkpt lat="47.40785" lon="-0.49952">
        <ele>24.6</ele>
        <time>2023-07-19T13:36:02Z</time>
      </trkpt>
      <trkpt lat="47.40786" lon="-0.49893">
        <ele>24.6</ele>
        <time>2023-07-19T13:36:11Z</time>
      </trkpt>
      <trkpt lat="47.40786" lon="-0.49887">
        <ele>24.6</ele>
        <time>2023-07-19T13:36:12Z</time>
      </trkpt>
      <trkpt lat="47.40786" lon="-0.49881">
        <ele>24.6</ele>
        <time>2023-07-19T13:36:13Z</time>
      </trkpt>
      <trkpt lat="47.40786" lon="-0.49875">
        <ele>24.6</ele>
        <time>2023-07-19T13:36:14Z</time>
      </trkpt>
      <trkpt lat="47.40786" lon="-0.4987">
        <ele>24.6</ele>
        <time>2023-07-19T13:36:15Z</time>
      </trkpt>
      <trkpt lat="47.40787" lon="-0.49864">
        <ele>24.6</ele>
        <time>2023-07-19T13:36:16Z</time>
      </trkpt>
      <trkpt lat="47.40788" lon="-0.49859">
        <ele>24.4</ele>
        <time>2023-07-19T13:36:17Z</time>
      </trkpt>
      <trkpt lat="47.4079" lon="-0.49854">
        <ele>24.4</ele>
        <time>2023-07-19T13:36:18Z</time>
      </trkpt>
      <trkpt lat="47.40792" lon="-0.49849">
        <ele>24.4</ele>
        <time>2023-07-19T13:36:19Z</time>
      </trkpt>
      <trkpt lat="47.40793" lon="-0.49844">
        <ele>24.4</ele>
        <time>2023-07-19T13:36:20Z</time>
      </trkpt>
      <trkpt lat="47.40795" lon="-0.49839">
        <ele>24.4</ele>
        <time>2023-07-19T13:36:21Z</time>
      </trkpt>
      <trkpt lat="47.40796" lon="-0.49834">
        <ele>24.2</ele>
        <time>2023-07-19T13:36:22Z</time>
      </trkpt>
      <trkpt lat="47.40797" lon="-0.49828">
        <ele>24.2</ele>
        <time>2023-07-19T13:36:23Z</time>
      </trkpt>
      <trkpt lat="47.40798" lon="-0.49822">
        <ele>24.2</ele>
        <time>2023-07-19T13:36:24Z</time>
      </trkpt>
      <trkpt lat="47.40799" lon="-0.49817">
        <ele>24.2</ele>
        <time>2023-07-19T13:36:25Z</time>
      </trkpt>
      <trkpt lat="47.408" lon="-0.49811">
        <ele>24.2</ele>
        <time>2023-07-19T13:36:26Z</time>
      </trkpt>
      <trkpt lat="47.40801" lon="-0.49806">
        <ele>24.2</ele>
        <time>2023-07-19T13:36:27Z</time>
      </trkpt>
      <trkpt lat="47.40801" lon="-0.498">
        <ele>24.2</ele>
        <time>2023-07-19T13:36:28Z</time>
      </trkpt>
      <trkpt lat="47.40801" lon="-0.49794">
        <ele>24.2</ele>
        <time>2023-07-19T13:36:29Z</time>
      </trkpt>
      <trkpt lat="47.40802" lon="-0.4979">
        <ele>24.2</ele>
        <time>2023-07-19T13:36:30Z</time>
      </trkpt>
      <trkpt lat="47.40803" lon="-0.49783">
        <ele>24.4</ele>
        <time>2023-07-19T13:36:31Z</time>
      </trkpt>
      <trkpt lat="47.40804" lon="-0.49772">
        <ele>24.4</ele>
        <time>2023-07-19T13:36:33Z</time>
      </trkpt>
      <trkpt lat="47.40809" lon="-0.49736">
        <ele>24.6</ele>
        <time>2023-07-19T13:36:39Z</time>
      </trkpt>
      <trkpt lat="47.40813" lon="-0.49702">
        <ele>24.6</ele>
        <time>2023-07-19T13:36:44Z</time>
      </trkpt>
      <trkpt lat="47.40814" lon="-0.49689">
        <ele>24.6</ele>
        <time>2023-07-19T13:36:46Z</time>
      </trkpt>
      <trkpt lat="47.40813" lon="-0.49651">
        <ele>24.6</ele>
        <time>2023-07-19T13:36:52Z</time>
      </trkpt>
      <trkpt lat="47.40815" lon="-0.49638">
        <ele>24.6</ele>
        <time>2023-07-19T13:36:54Z</time>
      </trkpt>
      <trkpt lat="47.40816" lon="-0.4963">
        <ele>24.8</ele>
        <time>2023-07-19T13:36:55Z</time>
      </trkpt>
      <trkpt lat="47.40816" lon="-0.49624">
        <ele>24.8</ele>
        <time>2023-07-19T13:36:56Z</time>
      </trkpt>
      <trkpt lat="47.40817" lon="-0.496">
        <ele>25</ele>
        <time>2023-07-19T13:37:00Z</time>
      </trkpt>
      <trkpt lat="47.40817" lon="-0.49594">
        <ele>25</ele>
        <time>2023-07-19T13:37:01Z</time>
      </trkpt>
      <trkpt lat="47.40817" lon="-0.49588">
        <ele>25</ele>
        <time>2023-07-19T13:37:02Z</time>
      </trkpt>
      <trkpt lat="47.40817" lon="-0.49583">
        <ele>25</ele>
        <time>2023-07-19T13:37:03Z</time>
      </trkpt>
      <trkpt lat="47.40816" lon="-0.49578">
        <ele>25</ele>
        <time>2023-07-19T13:37:04Z</time>
      </trkpt>
      <trkpt lat="47.40816" lon="-0.49572">
        <ele>25</ele>
        <time>2023-07-19T13:37:05Z</time>
      </trkpt>
      <trkpt lat="47.40816" lon="-0.49567">
        <ele>25</ele>
        <time>2023-07-19T13:37:06Z</time>
      </trkpt>
      <trkpt lat="47.40816" lon="-0.49561">
        <ele>25</ele>
        <time>2023-07-19T13:37:07Z</time>
      </trkpt>
      <trkpt lat="47.40816" lon="-0.49556">
        <ele>25</ele>
        <time>2023-07-19T13:37:08Z</time>
      </trkpt>
      <trkpt lat="47.40816" lon="-0.49551">
        <ele>25</ele>
        <time>2023-07-19T13:37:09Z</time>
      </trkpt>
      <trkpt lat="47.40816" lon="-0.49546">
        <ele>25</ele>
        <time>2023-07-19T13:37:10Z</time>
      </trkpt>
      <trkpt lat="47.40816" lon="-0.49541">
        <ele>25</ele>
        <time>2023-07-19T13:37:11Z</time>
      </trkpt>
      <trkpt lat="47.40817" lon="-0.49536">
        <ele>25</ele>
        <time>2023-07-19T13:37:12Z</time>
      </trkpt>
      <trkpt lat="47.40817" lon="-0.49532">
        <ele>25</ele>
        <time>2023-07-19T13:37:13Z</time>
      </trkpt>
      <trkpt lat="47.40818" lon="-0.49528">
        <ele>25.2</ele>
        <time>2023-07-19T13:37:14Z</time>
      </trkpt>
      <trkpt lat="47.40819" lon="-0.4952">
        <ele>25.2</ele>
        <time>2023-07-19T13:37:16Z</time>
      </trkpt>
      <trkpt lat="47.40819" lon="-0.49516">
        <ele>25.2</ele>
        <time>2023-07-19T13:37:17Z</time>
      </trkpt>
      <trkpt lat="47.4082" lon="-0.49512">
        <ele>25.2</ele>
        <time>2023-07-19T13:37:18Z</time>
      </trkpt>
      <trkpt lat="47.4082" lon="-0.49508">
        <ele>25.2</ele>
        <time>2023-07-19T13:37:19Z</time>
      </trkpt>
      <trkpt lat="47.40821" lon="-0.49505">
        <ele>25.2</ele>
        <time>2023-07-19T13:37:20Z</time>
      </trkpt>
      <trkpt lat="47.40822" lon="-0.49498">
        <ele>25.2</ele>
        <time>2023-07-19T13:37:22Z</time>
      </trkpt>
      <trkpt lat="47.40822" lon="-0.49495">
        <ele>25.2</ele>
        <time>2023-07-19T13:37:23Z</time>
      </trkpt>
      <trkpt lat="47.40822" lon="-0.49494">
        <ele>25.2</ele>
        <time>2023-07-19T13:37:24Z</time>
      </trkpt>
      <trkpt lat="47.40822" lon="-0.49494">
        <ele>25.4</ele>
        <time>2023-07-19T13:37:26Z</time>
      </trkpt>
      <trkpt lat="47.40824" lon="-0.49486">
        <ele>25.8</ele>
        <time>2023-07-19T13:38:08Z</time>
      </trkpt>
      <trkpt lat="47.40826" lon="-0.4948">
        <ele>25.8</ele>
        <time>2023-07-19T13:38:10Z</time>
      </trkpt>
      <trkpt lat="47.40827" lon="-0.49473">
        <ele>25.8</ele>
        <time>2023-07-19T13:38:12Z</time>
      </trkpt>
      <trkpt lat="47.40829" lon="-0.49461">
        <ele>25.8</ele>
        <time>2023-07-19T13:38:15Z</time>
      </trkpt>
      <trkpt lat="47.4083" lon="-0.49457">
        <ele>25.8</ele>
        <time>2023-07-19T13:38:16Z</time>
      </trkpt>
      <trkpt lat="47.40834" lon="-0.49427">
        <ele>26</ele>
        <time>2023-07-19T13:38:22Z</time>
      </trkpt>
      <trkpt lat="47.40837" lon="-0.49391">
        <ele>26</ele>
        <time>2023-07-19T13:38:29Z</time>
      </trkpt>
      <trkpt lat="47.4084" lon="-0.49354">
        <ele>26.2</ele>
        <time>2023-07-19T13:38:36Z</time>
      </trkpt>
      <trkpt lat="47.40842" lon="-0.49331">
        <ele>26.2</ele>
        <time>2023-07-19T13:38:41Z</time>
      </trkpt>
      <trkpt lat="47.40843" lon="-0.49326">
        <ele>26.2</ele>
        <time>2023-07-19T13:38:42Z</time>
      </trkpt>
      <trkpt lat="47.40843" lon="-0.49322">
        <ele>26.2</ele>
        <time>2023-07-19T13:38:43Z</time>
      </trkpt>
      <trkpt lat="47.40843" lon="-0.49318">
        <ele>26.2</ele>
        <time>2023-07-19T13:38:44Z</time>
      </trkpt>
      <trkpt lat="47.40843" lon="-0.49314">
        <ele>26.2</ele>
        <time>2023-07-19T13:38:45Z</time>
      </trkpt>
      <trkpt lat="47.40843" lon="-0.49309">
        <ele>26.2</ele>
        <time>2023-07-19T13:38:46Z</time>
      </trkpt>
      <trkpt lat="47.40843" lon="-0.49305">
        <ele>26.2</ele>
        <time>2023-07-19T13:38:47Z</time>
      </trkpt>
      <trkpt lat="47.40843" lon="-0.49291">
        <ele>26.6</ele>
        <time>2023-07-19T13:38:50Z</time>
      </trkpt>
      <trkpt lat="47.40841" lon="-0.49263">
        <ele>27.2</ele>
        <time>2023-07-19T13:38:56Z</time>
      </trkpt>
      <trkpt lat="47.40841" lon="-0.49258">
        <ele>27.4</ele>
        <time>2023-07-19T13:38:57Z</time>
      </trkpt>
      <trkpt lat="47.40842" lon="-0.49222">
        <ele>27.6</ele>
        <time>2023-07-19T13:39:04Z</time>
      </trkpt>
      <trkpt lat="47.40843" lon="-0.49218">
        <ele>27.6</ele>
        <time>2023-07-19T13:39:05Z</time>
      </trkpt>
      <trkpt lat="47.40844" lon="-0.4921">
        <ele>27.6</ele>
        <time>2023-07-19T13:39:07Z</time>
      </trkpt>
      <trkpt lat="47.40844" lon="-0.49206">
        <ele>27.6</ele>
        <time>2023-07-19T13:39:08Z</time>
      </trkpt>
      <trkpt lat="47.40845" lon="-0.49202">
        <ele>27.6</ele>
        <time>2023-07-19T13:39:09Z</time>
      </trkpt>
      <trkpt lat="47.40844" lon="-0.49179">
        <ele>27.8</ele>
        <time>2023-07-19T13:39:14Z</time>
      </trkpt>
      <trkpt lat="47.40845" lon="-0.49141">
        <ele>28</ele>
        <time>2023-07-19T13:39:20Z</time>
      </trkpt>
      <trkpt lat="47.40844" lon="-0.49129">
        <ele>28</ele>
        <time>2023-07-19T13:39:22Z</time>
      </trkpt>
      <trkpt lat="47.40844" lon="-0.49121">
        <ele>28</ele>
        <time>2023-07-19T13:39:23Z</time>
      </trkpt>
      <trkpt lat="47.40843" lon="-0.49115">
        <ele>28</ele>
        <time>2023-07-19T13:39:24Z</time>
      </trkpt>
      <trkpt lat="47.40841" lon="-0.49098">
        <ele>27.8</ele>
        <time>2023-07-19T13:39:27Z</time>
      </trkpt>
      <trkpt lat="47.4084" lon="-0.49094">
        <ele>27.8</ele>
        <time>2023-07-19T13:39:28Z</time>
      </trkpt>
      <trkpt lat="47.4084" lon="-0.49089">
        <ele>27.8</ele>
        <time>2023-07-19T13:39:29Z</time>
      </trkpt>
      <trkpt lat="47.40839" lon="-0.49085">
        <ele>27.6</ele>
        <time>2023-07-19T13:39:30Z</time>
      </trkpt>
      <trkpt lat="47.40834" lon="-0.49064">
        <ele>27.6</ele>
        <time>2023-07-19T13:39:34Z</time>
      </trkpt>
      <trkpt lat="47.40833" lon="-0.49059">
        <ele>27.6</ele>
        <time>2023-07-19T13:39:35Z</time>
      </trkpt>
      <trkpt lat="47.40832" lon="-0.49054">
        <ele>27.6</ele>
        <time>2023-07-19T13:39:36Z</time>
      </trkpt>
      <trkpt lat="47.4083" lon="-0.49049">
        <ele>27.6</ele>
        <time>2023-07-19T13:39:37Z</time>
      </trkpt>
      <trkpt lat="47.40829" lon="-0.49044">
        <ele>27.6</ele>
        <time>2023-07-19T13:39:38Z</time>
      </trkpt>
      <trkpt lat="47.40828" lon="-0.49039">
        <ele>27.6</ele>
        <time>2023-07-19T13:39:39Z</time>
      </trkpt>
      <trkpt lat="47.40826" lon="-0.49025">
        <ele>27.6</ele>
        <time>2023-07-19T13:39:42Z</time>
      </trkpt>
      <trkpt lat="47.40827" lon="-0.4902">
        <ele>27.6</ele>
        <time>2023-07-19T13:39:43Z</time>
      </trkpt>
      <trkpt lat="47.40827" lon="-0.49017">
        <ele>27.8</ele>
        <time>2023-07-19T13:39:44Z</time>
      </trkpt>
      <trkpt lat="47.40827" lon="-0.49011">
        <ele>27.8</ele>
        <time>2023-07-19T13:39:45Z</time>
      </trkpt>
      <trkpt lat="47.40827" lon="-0.49006">
        <ele>27.8</ele>
        <time>2023-07-19T13:39:46Z</time>
      </trkpt>
      <trkpt lat="47.40827" lon="-0.49001">
        <ele>27.8</ele>
        <time>2023-07-19T13:39:47Z</time>
      </trkpt>
      <trkpt lat="47.40828" lon="-0.48996">
        <ele>27.8</ele>
        <time>2023-07-19T13:39:48Z</time>
      </trkpt>
      <trkpt lat="47.40828" lon="-0.48992">
        <ele>27.8</ele>
        <time>2023-07-19T13:39:49Z</time>
      </trkpt>
      <trkpt lat="47.40828" lon="-0.48987">
        <ele>27.8</ele>
        <time>2023-07-19T13:39:50Z</time>
      </trkpt>
      <trkpt lat="47.40827" lon="-0.48982">
        <ele>28</ele>
        <time>2023-07-19T13:39:51Z</time>
      </trkpt>
      <trkpt lat="47.40829" lon="-0.48961">
        <ele>28.2</ele>
        <time>2023-07-19T13:39:55Z</time>
      </trkpt>
      <trkpt lat="47.4083" lon="-0.48955">
        <ele>28.2</ele>
        <time>2023-07-19T13:39:56Z</time>
      </trkpt>
      <trkpt lat="47.40832" lon="-0.48917">
        <ele>28.2</ele>
        <time>2023-07-19T13:40:02Z</time>
      </trkpt>
      <trkpt lat="47.40833" lon="-0.4891">
        <ele>28.2</ele>
        <time>2023-07-19T13:40:03Z</time>
      </trkpt>
      <trkpt lat="47.40833" lon="-0.48904">
        <ele>28.2</ele>
        <time>2023-07-19T13:40:04Z</time>
      </trkpt>
      <trkpt lat="47.40833" lon="-0.48897">
        <ele>28</ele>
        <time>2023-07-19T13:40:05Z</time>
      </trkpt>
      <trkpt lat="47.40834" lon="-0.48891">
        <ele>28</ele>
        <time>2023-07-19T13:40:06Z</time>
      </trkpt>
      <trkpt lat="47.40835" lon="-0.48885">
        <ele>28</ele>
        <time>2023-07-19T13:40:07Z</time>
      </trkpt>
      <trkpt lat="47.40835" lon="-0.48879">
        <ele>28</ele>
        <time>2023-07-19T13:40:08Z</time>
      </trkpt>
      <trkpt lat="47.40836" lon="-0.48868">
        <ele>27.8</ele>
        <time>2023-07-19T13:40:10Z</time>
      </trkpt>
      <trkpt lat="47.40836" lon="-0.48858">
        <ele>27.8</ele>
        <time>2023-07-19T13:40:12Z</time>
      </trkpt>
      <trkpt lat="47.40837" lon="-0.48852">
        <ele>27.8</ele>
        <time>2023-07-19T13:40:13Z</time>
      </trkpt>
      <trkpt lat="47.40837" lon="-0.48847">
        <ele>27.8</ele>
        <time>2023-07-19T13:40:14Z</time>
      </trkpt>
      <trkpt lat="47.40837" lon="-0.48843">
        <ele>27.8</ele>
        <time>2023-07-19T13:40:15Z</time>
      </trkpt>
      <trkpt lat="47.40838" lon="-0.48837">
        <ele>27.8</ele>
        <time>2023-07-19T13:40:16Z</time>
      </trkpt>
      <trkpt lat="47.40838" lon="-0.48827">
        <ele>27.8</ele>
        <time>2023-07-19T13:40:18Z</time>
      </trkpt>
      <trkpt lat="47.40839" lon="-0.48823">
        <ele>27.8</ele>
        <time>2023-07-19T13:40:19Z</time>
      </trkpt>
      <trkpt lat="47.40839" lon="-0.48819">
        <ele>28</ele>
        <time>2023-07-19T13:40:20Z</time>
      </trkpt>
      <trkpt lat="47.40839" lon="-0.48814">
        <ele>28</ele>
        <time>2023-07-19T13:40:21Z</time>
      </trkpt>
      <trkpt lat="47.4084" lon="-0.48794">
        <ele>28</ele>
        <time>2023-07-19T13:40:25Z</time>
      </trkpt>
      <trkpt lat="47.40841" lon="-0.48789">
        <ele>28</ele>
        <time>2023-07-19T13:40:26Z</time>
      </trkpt>
      <trkpt lat="47.40841" lon="-0.48785">
        <ele>28</ele>
        <time>2023-07-19T13:40:27Z</time>
      </trkpt>
      <trkpt lat="47.40842" lon="-0.48779">
        <ele>28</ele>
        <time>2023-07-19T13:40:28Z</time>
      </trkpt>
      <trkpt lat="47.40844" lon="-0.48751">
        <ele>28</ele>
        <time>2023-07-19T13:40:33Z</time>
      </trkpt>
      <trkpt lat="47.40842" lon="-0.48716">
        <ele>27.8</ele>
        <time>2023-07-19T13:40:38Z</time>
      </trkpt>
      <trkpt lat="47.40841" lon="-0.48702">
        <ele>27.8</ele>
        <time>2023-07-19T13:40:40Z</time>
      </trkpt>
      <trkpt lat="47.40842" lon="-0.48694">
        <ele>27.8</ele>
        <time>2023-07-19T13:40:41Z</time>
      </trkpt>
      <trkpt lat="47.40842" lon="-0.48688">
        <ele>27.6</ele>
        <time>2023-07-19T13:40:42Z</time>
      </trkpt>
      <trkpt lat="47.40841" lon="-0.48681">
        <ele>27.4</ele>
        <time>2023-07-19T13:40:43Z</time>
      </trkpt>
      <trkpt lat="47.40841" lon="-0.48675">
        <ele>27.4</ele>
        <time>2023-07-19T13:40:44Z</time>
      </trkpt>
      <trkpt lat="47.40842" lon="-0.48655">
        <ele>27</ele>
        <time>2023-07-19T13:40:47Z</time>
      </trkpt>
      <trkpt lat="47.40841" lon="-0.48649">
        <ele>27</ele>
        <time>2023-07-19T13:40:48Z</time>
      </trkpt>
      <trkpt lat="47.4084" lon="-0.48642">
        <ele>27</ele>
        <time>2023-07-19T13:40:49Z</time>
      </trkpt>
      <trkpt lat="47.40839" lon="-0.48635">
        <ele>26.8</ele>
        <time>2023-07-19T13:40:50Z</time>
      </trkpt>
      <trkpt lat="47.40834" lon="-0.48617">
        <ele>26.6</ele>
        <time>2023-07-19T13:40:53Z</time>
      </trkpt>
      <trkpt lat="47.40829" lon="-0.486">
        <ele>26.6</ele>
        <time>2023-07-19T13:40:56Z</time>
      </trkpt>
      <trkpt lat="47.40825" lon="-0.48583">
        <ele>26.6</ele>
        <time>2023-07-19T13:40:59Z</time>
      </trkpt>
      <trkpt lat="47.40824" lon="-0.48577">
        <ele>26.6</ele>
        <time>2023-07-19T13:41:00Z</time>
      </trkpt>
      <trkpt lat="47.40823" lon="-0.48572">
        <ele>26.6</ele>
        <time>2023-07-19T13:41:01Z</time>
      </trkpt>
      <trkpt lat="47.40822" lon="-0.48567">
        <ele>26.6</ele>
        <time>2023-07-19T13:41:02Z</time>
      </trkpt>
      <trkpt lat="47.40821" lon="-0.48562">
        <ele>26.6</ele>
        <time>2023-07-19T13:41:03Z</time>
      </trkpt>
      <trkpt lat="47.40819" lon="-0.48556">
        <ele>26.6</ele>
        <time>2023-07-19T13:41:04Z</time>
      </trkpt>
      <trkpt lat="47.40818" lon="-0.48551">
        <ele>26.6</ele>
        <time>2023-07-19T13:41:05Z</time>
      </trkpt>
      <trkpt lat="47.40816" lon="-0.48547">
        <ele>26.6</ele>
        <time>2023-07-19T13:41:06Z</time>
      </trkpt>
      <trkpt lat="47.40815" lon="-0.48542">
        <ele>26.6</ele>
        <time>2023-07-19T13:41:07Z</time>
      </trkpt>
      <trkpt lat="47.40814" lon="-0.48537">
        <ele>26.6</ele>
        <time>2023-07-19T13:41:08Z</time>
      </trkpt>
      <trkpt lat="47.40813" lon="-0.48533">
        <ele>26.6</ele>
        <time>2023-07-19T13:41:09Z</time>
      </trkpt>
      <trkpt lat="47.40811" lon="-0.4853">
        <ele>26.6</ele>
        <time>2023-07-19T13:41:10Z</time>
      </trkpt>
      <trkpt lat="47.40809" lon="-0.48524">
        <ele>26.6</ele>
        <time>2023-07-19T13:41:11Z</time>
      </trkpt>
      <trkpt lat="47.40808" lon="-0.4852">
        <ele>26.6</ele>
        <time>2023-07-19T13:41:12Z</time>
      </trkpt>
      <trkpt lat="47.40806" lon="-0.48515">
        <ele>26.6</ele>
        <time>2023-07-19T13:41:13Z</time>
      </trkpt>
      <trkpt lat="47.40801" lon="-0.48493">
        <ele>26.8</ele>
        <time>2023-07-19T13:41:17Z</time>
      </trkpt>
      <trkpt lat="47.40804" lon="-0.48457">
        <ele>27</ele>
        <time>2023-07-19T13:41:24Z</time>
      </trkpt>
      <trkpt lat="47.40805" lon="-0.48452">
        <ele>27</ele>
        <time>2023-07-19T13:41:25Z</time>
      </trkpt>
      <trkpt lat="47.40806" lon="-0.48448">
        <ele>27</ele>
        <time>2023-07-19T13:41:26Z</time>
      </trkpt>
      <trkpt lat="47.40806" lon="-0.48443">
        <ele>27</ele>
        <time>2023-07-19T13:41:27Z</time>
      </trkpt>
      <trkpt lat="47.40806" lon="-0.48438">
        <ele>27.2</ele>
        <time>2023-07-19T13:41:28Z</time>
      </trkpt>
      <trkpt lat="47.40806" lon="-0.48433">
        <ele>27.2</ele>
        <time>2023-07-19T13:41:29Z</time>
      </trkpt>
      <trkpt lat="47.40806" lon="-0.48428">
        <ele>27.2</ele>
        <time>2023-07-19T13:41:30Z</time>
      </trkpt>
      <trkpt lat="47.40806" lon="-0.48424">
        <ele>27.2</ele>
        <time>2023-07-19T13:41:31Z</time>
      </trkpt>
      <trkpt lat="47.40807" lon="-0.4842">
        <ele>27.2</ele>
        <time>2023-07-19T13:41:32Z</time>
      </trkpt>
      <trkpt lat="47.40807" lon="-0.48415">
        <ele>27.2</ele>
        <time>2023-07-19T13:41:33Z</time>
      </trkpt>
      <trkpt lat="47.40807" lon="-0.48411">
        <ele>27.2</ele>
        <time>2023-07-19T13:41:34Z</time>
      </trkpt>
      <trkpt lat="47.40807" lon="-0.48407">
        <ele>27.2</ele>
        <time>2023-07-19T13:41:35Z</time>
      </trkpt>
      <trkpt lat="47.40808" lon="-0.48403">
        <ele>27.2</ele>
        <time>2023-07-19T13:41:36Z</time>
      </trkpt>
      <trkpt lat="47.40808" lon="-0.48399">
        <ele>27.4</ele>
        <time>2023-07-19T13:41:37Z</time>
      </trkpt>
      <trkpt lat="47.40808" lon="-0.48395">
        <ele>27.4</ele>
        <time>2023-07-19T13:41:38Z</time>
      </trkpt>
      <trkpt lat="47.40808" lon="-0.48391">
        <ele>27.6</ele>
        <time>2023-07-19T13:41:39Z</time>
      </trkpt>
      <trkpt lat="47.40808" lon="-0.48387">
        <ele>27.6</ele>
        <time>2023-07-19T13:41:40Z</time>
      </trkpt>
      <trkpt lat="47.40808" lon="-0.48383">
        <ele>27.8</ele>
        <time>2023-07-19T13:41:41Z</time>
      </trkpt>
      <trkpt lat="47.40808" lon="-0.48378">
        <ele>28</ele>
        <time>2023-07-19T13:41:42Z</time>
      </trkpt>
      <trkpt lat="47.40808" lon="-0.48374">
        <ele>28.2</ele>
        <time>2023-07-19T13:41:43Z</time>
      </trkpt>
      <trkpt lat="47.40808" lon="-0.48371">
        <ele>28.2</ele>
        <time>2023-07-19T13:41:44Z</time>
      </trkpt>
      <trkpt lat="47.40808" lon="-0.48363">
        <ele>28.6</ele>
        <time>2023-07-19T13:41:46Z</time>
      </trkpt>
      <trkpt lat="47.40808" lon="-0.48355">
        <ele>29</ele>
        <time>2023-07-19T13:41:48Z</time>
      </trkpt>
      <trkpt lat="47.40808" lon="-0.48352">
        <ele>29.2</ele>
        <time>2023-07-19T13:41:49Z</time>
      </trkpt>
      <trkpt lat="47.40808" lon="-0.48348">
        <ele>29.2</ele>
        <time>2023-07-19T13:41:50Z</time>
      </trkpt>
      <trkpt lat="47.40808" lon="-0.48345">
        <ele>29.4</ele>
        <time>2023-07-19T13:41:51Z</time>
      </trkpt>
      <trkpt lat="47.40808" lon="-0.48341">
        <ele>29.4</ele>
        <time>2023-07-19T13:41:52Z</time>
      </trkpt>
      <trkpt lat="47.40809" lon="-0.48337">
        <ele>29.6</ele>
        <time>2023-07-19T13:41:53Z</time>
      </trkpt>
      <trkpt lat="47.40809" lon="-0.48328">
        <ele>30</ele>
        <time>2023-07-19T13:41:55Z</time>
      </trkpt>
      <trkpt lat="47.4081" lon="-0.48319">
        <ele>30.2</ele>
        <time>2023-07-19T13:41:57Z</time>
      </trkpt>
      <trkpt lat="47.4081" lon="-0.48314">
        <ele>30.4</ele>
        <time>2023-07-19T13:41:58Z</time>
      </trkpt>
      <trkpt lat="47.4081" lon="-0.48309">
        <ele>30.4</ele>
        <time>2023-07-19T13:41:59Z</time>
      </trkpt>
      <trkpt lat="47.40811" lon="-0.48304">
        <ele>30.4</ele>
        <time>2023-07-19T13:42:00Z</time>
      </trkpt>
      <trkpt lat="47.40812" lon="-0.483">
        <ele>30.6</ele>
        <time>2023-07-19T13:42:01Z</time>
      </trkpt>
      <trkpt lat="47.40813" lon="-0.48296">
        <ele>30.6</ele>
        <time>2023-07-19T13:42:02Z</time>
      </trkpt>
      <trkpt lat="47.40815" lon="-0.48292">
        <ele>30.6</ele>
        <time>2023-07-19T13:42:03Z</time>
      </trkpt>
      <trkpt lat="47.40816" lon="-0.48288">
        <ele>30.6</ele>
        <time>2023-07-19T13:42:04Z</time>
      </trkpt>
      <trkpt lat="47.40817" lon="-0.48283">
        <ele>30.6</ele>
        <time>2023-07-19T13:42:05Z</time>
      </trkpt>
      <trkpt lat="47.40818" lon="-0.48278">
        <ele>30.6</ele>
        <time>2023-07-19T13:42:06Z</time>
      </trkpt>
      <trkpt lat="47.40818" lon="-0.48273">
        <ele>30.6</ele>
        <time>2023-07-19T13:42:07Z</time>
      </trkpt>
      <trkpt lat="47.40819" lon="-0.48267">
        <ele>30.6</ele>
        <time>2023-07-19T13:42:08Z</time>
      </trkpt>
      <trkpt lat="47.40819" lon="-0.48261">
        <ele>30.8</ele>
        <time>2023-07-19T13:42:09Z</time>
      </trkpt>
      <trkpt lat="47.40819" lon="-0.48256">
        <ele>30.8</ele>
        <time>2023-07-19T13:42:10Z</time>
      </trkpt>
      <trkpt lat="47.40819" lon="-0.4825">
        <ele>30.6</ele>
        <time>2023-07-19T13:42:11Z</time>
      </trkpt>
      <trkpt lat="47.40823" lon="-0.48228">
        <ele>30.4</ele>
        <time>2023-07-19T13:42:15Z</time>
      </trkpt>
      <trkpt lat="47.40826" lon="-0.48223">
        <ele>30.2</ele>
        <time>2023-07-19T13:42:16Z</time>
      </trkpt>
      <trkpt lat="47.40827" lon="-0.48218">
        <ele>30.2</ele>
        <time>2023-07-19T13:42:17Z</time>
      </trkpt>
      <trkpt lat="47.4083" lon="-0.48202">
        <ele>30.2</ele>
        <time>2023-07-19T13:42:20Z</time>
      </trkpt>
      <trkpt lat="47.40831" lon="-0.48197">
        <ele>30</ele>
        <time>2023-07-19T13:42:21Z</time>
      </trkpt>
      <trkpt lat="47.40832" lon="-0.48191">
        <ele>30</ele>
        <time>2023-07-19T13:42:22Z</time>
      </trkpt>
      <trkpt lat="47.40833" lon="-0.48186">
        <ele>29.8</ele>
        <time>2023-07-19T13:42:23Z</time>
      </trkpt>
      <trkpt lat="47.40834" lon="-0.48181">
        <ele>29.8</ele>
        <time>2023-07-19T13:42:24Z</time>
      </trkpt>
      <trkpt lat="47.40835" lon="-0.48176">
        <ele>29.6</ele>
        <time>2023-07-19T13:42:25Z</time>
      </trkpt>
      <trkpt lat="47.40836" lon="-0.4817">
        <ele>29.6</ele>
        <time>2023-07-19T13:42:26Z</time>
      </trkpt>
      <trkpt lat="47.40837" lon="-0.48165">
        <ele>29.6</ele>
        <time>2023-07-19T13:42:27Z</time>
      </trkpt>
      <trkpt lat="47.40837" lon="-0.4816">
        <ele>29.4</ele>
        <time>2023-07-19T13:42:28Z</time>
      </trkpt>
      <trkpt lat="47.40839" lon="-0.48155">
        <ele>29.4</ele>
        <time>2023-07-19T13:42:29Z</time>
      </trkpt>
      <trkpt lat="47.40841" lon="-0.48151">
        <ele>29.4</ele>
        <time>2023-07-19T13:42:30Z</time>
      </trkpt>
      <trkpt lat="47.40844" lon="-0.48147">
        <ele>29.4</ele>
        <time>2023-07-19T13:42:31Z</time>
      </trkpt>
      <trkpt lat="47.40846" lon="-0.48143">
        <ele>29.4</ele>
        <time>2023-07-19T13:42:32Z</time>
      </trkpt>
      <trkpt lat="47.40847" lon="-0.48138">
        <ele>29.2</ele>
        <time>2023-07-19T13:42:33Z</time>
      </trkpt>
      <trkpt lat="47.40849" lon="-0.48128">
        <ele>29.2</ele>
        <time>2023-07-19T13:42:35Z</time>
      </trkpt>
      <trkpt lat="47.4085" lon="-0.48124">
        <ele>29.2</ele>
        <time>2023-07-19T13:42:36Z</time>
      </trkpt>
      <trkpt lat="47.40851" lon="-0.48118">
        <ele>29.2</ele>
        <time>2023-07-19T13:42:37Z</time>
      </trkpt>
      <trkpt lat="47.40852" lon="-0.48098">
        <ele>28.8</ele>
        <time>2023-07-19T13:42:41Z</time>
      </trkpt>
      <trkpt lat="47.40851" lon="-0.48094">
        <ele>28.6</ele>
        <time>2023-07-19T13:42:42Z</time>
      </trkpt>
      <trkpt lat="47.4085" lon="-0.4809">
        <ele>28.6</ele>
        <time>2023-07-19T13:42:43Z</time>
      </trkpt>
      <trkpt lat="47.4085" lon="-0.48086">
        <ele>28.4</ele>
        <time>2023-07-19T13:42:44Z</time>
      </trkpt>
      <trkpt lat="47.40849" lon="-0.48082">
        <ele>28.4</ele>
        <time>2023-07-19T13:42:45Z</time>
      </trkpt>
      <trkpt lat="47.40849" lon="-0.48073">
        <ele>28.4</ele>
        <time>2023-07-19T13:42:47Z</time>
      </trkpt>
      <trkpt lat="47.40849" lon="-0.48068">
        <ele>28.4</ele>
        <time>2023-07-19T13:42:48Z</time>
      </trkpt>
      <trkpt lat="47.40848" lon="-0.48063">
        <ele>28.4</ele>
        <time>2023-07-19T13:42:49Z</time>
      </trkpt>
      <trkpt lat="47.40843" lon="-0.48038">
        <ele>28.2</ele>
        <time>2023-07-19T13:42:54Z</time>
      </trkpt>
      <trkpt lat="47.40842" lon="-0.48027">
        <ele>28.2</ele>
        <time>2023-07-19T13:42:56Z</time>
      </trkpt>
      <trkpt lat="47.4084" lon="-0.48014">
        <ele>28.2</ele>
        <time>2023-07-19T13:42:59Z</time>
      </trkpt>
      <trkpt lat="47.40843" lon="-0.48012">
        <ele>28</ele>
        <time>2023-07-19T13:43:00Z</time>
      </trkpt>
      <trkpt lat="47.40852" lon="-0.48006">
        <ele>28</ele>
        <time>2023-07-19T13:43:03Z</time>
      </trkpt>
      <trkpt lat="47.40857" lon="-0.48003">
        <ele>27.8</ele>
        <time>2023-07-19T13:43:04Z</time>
      </trkpt>
      <trkpt lat="47.40861" lon="-0.48001">
        <ele>27.8</ele>
        <time>2023-07-19T13:43:05Z</time>
      </trkpt>
      <trkpt lat="47.40865" lon="-0.47999">
        <ele>27.8</ele>
        <time>2023-07-19T13:43:06Z</time>
      </trkpt>
      <trkpt lat="47.40867" lon="-0.47997">
        <ele>27.8</ele>
        <time>2023-07-19T13:43:07Z</time>
      </trkpt>
      <trkpt lat="47.40868" lon="-0.47994">
        <ele>27.8</ele>
        <time>2023-07-19T13:43:08Z</time>
      </trkpt>
      <trkpt lat="47.40868" lon="-0.4799">
        <ele>27.6</ele>
        <time>2023-07-19T13:43:09Z</time>
      </trkpt>
      <trkpt lat="47.40868" lon="-0.47986">
        <ele>27.4</ele>
        <time>2023-07-19T13:43:10Z</time>
      </trkpt>
      <trkpt lat="47.40867" lon="-0.47972">
        <ele>27.2</ele>
        <time>2023-07-19T13:43:13Z</time>
      </trkpt>
      <trkpt lat="47.40866" lon="-0.47967">
        <ele>27</ele>
        <time>2023-07-19T13:43:14Z</time>
      </trkpt>
      <trkpt lat="47.40865" lon="-0.47963">
        <ele>27</ele>
        <time>2023-07-19T13:43:15Z</time>
      </trkpt>
      <trkpt lat="47.40864" lon="-0.47958">
        <ele>26.8</ele>
        <time>2023-07-19T13:43:16Z</time>
      </trkpt>
      <trkpt lat="47.40863" lon="-0.47954">
        <ele>26.6</ele>
        <time>2023-07-19T13:43:17Z</time>
      </trkpt>
      <trkpt lat="47.40861" lon="-0.4795">
        <ele>26.6</ele>
        <time>2023-07-19T13:43:18Z</time>
      </trkpt>
      <trkpt lat="47.40861" lon="-0.47946">
        <ele>26.4</ele>
        <time>2023-07-19T13:43:19Z</time>
      </trkpt>
      <trkpt lat="47.40857" lon="-0.47933">
        <ele>26.4</ele>
        <time>2023-07-19T13:43:22Z</time>
      </trkpt>
      <trkpt lat="47.40857" lon="-0.4793">
        <ele>26.4</ele>
        <time>2023-07-19T13:43:23Z</time>
      </trkpt>
      <trkpt lat="47.40856" lon="-0.47926">
        <ele>26.2</ele>
        <time>2023-07-19T13:43:24Z</time>
      </trkpt>
      <trkpt lat="47.40856" lon="-0.47922">
        <ele>26.2</ele>
        <time>2023-07-19T13:43:25Z</time>
      </trkpt>
      <trkpt lat="47.40855" lon="-0.47918">
        <ele>26.2</ele>
        <time>2023-07-19T13:43:26Z</time>
      </trkpt>
      <trkpt lat="47.40855" lon="-0.47913">
        <ele>26.2</ele>
        <time>2023-07-19T13:43:27Z</time>
      </trkpt>
      <trkpt lat="47.40855" lon="-0.47909">
        <ele>26.2</ele>
        <time>2023-07-19T13:43:28Z</time>
      </trkpt>
      <trkpt lat="47.40855" lon="-0.47905">
        <ele>26.2</ele>
        <time>2023-07-19T13:43:29Z</time>
      </trkpt>
      <trkpt lat="47.40853" lon="-0.47892">
        <ele>26.4</ele>
        <time>2023-07-19T13:43:32Z</time>
      </trkpt>
      <trkpt lat="47.40842" lon="-0.47852">
        <ele>26.6</ele>
        <time>2023-07-19T13:43:40Z</time>
      </trkpt>
      <trkpt lat="47.40839" lon="-0.47825">
        <ele>26.6</ele>
        <time>2023-07-19T13:43:46Z</time>
      </trkpt>
      <trkpt lat="47.40838" lon="-0.47802">
        <ele>26.6</ele>
        <time>2023-07-19T13:43:52Z</time>
      </trkpt>
      <trkpt lat="47.40838" lon="-0.47798">
        <ele>26.6</ele>
        <time>2023-07-19T13:43:53Z</time>
      </trkpt>
      <trkpt lat="47.40838" lon="-0.47795">
        <ele>26.6</ele>
        <time>2023-07-19T13:43:54Z</time>
      </trkpt>
      <trkpt lat="47.40838" lon="-0.47791">
        <ele>26.6</ele>
        <time>2023-07-19T13:43:55Z</time>
      </trkpt>
      <trkpt lat="47.40837" lon="-0.47787">
        <ele>26.6</ele>
        <time>2023-07-19T13:43:56Z</time>
      </trkpt>
      <trkpt lat="47.40836" lon="-0.4777">
        <ele>26.8</ele>
        <time>2023-07-19T13:44:00Z</time>
      </trkpt>
      <trkpt lat="47.40835" lon="-0.47739">
        <ele>26.8</ele>
        <time>2023-07-19T13:44:07Z</time>
      </trkpt>
      <trkpt lat="47.40835" lon="-0.47726">
        <ele>26.8</ele>
        <time>2023-07-19T13:44:10Z</time>
      </trkpt>
      <trkpt lat="47.40834" lon="-0.47722">
        <ele>26.8</ele>
        <time>2023-07-19T13:44:11Z</time>
      </trkpt>
      <trkpt lat="47.40834" lon="-0.47708">
        <ele>26.8</ele>
        <time>2023-07-19T13:44:14Z</time>
      </trkpt>
      <trkpt lat="47.40832" lon="-0.47695">
        <ele>26.8</ele>
        <time>2023-07-19T13:44:17Z</time>
      </trkpt>
      <trkpt lat="47.4083" lon="-0.47691">
        <ele>26.8</ele>
        <time>2023-07-19T13:44:18Z</time>
      </trkpt>
      <trkpt lat="47.40828" lon="-0.47688">
        <ele>26.8</ele>
        <time>2023-07-19T13:44:19Z</time>
      </trkpt>
      <trkpt lat="47.40827" lon="-0.47685">
        <ele>26.8</ele>
        <time>2023-07-19T13:44:20Z</time>
      </trkpt>
      <trkpt lat="47.40827" lon="-0.47682">
        <ele>26.8</ele>
        <time>2023-07-19T13:44:21Z</time>
      </trkpt>
      <trkpt lat="47.40828" lon="-0.47678">
        <ele>26.8</ele>
        <time>2023-07-19T13:44:22Z</time>
      </trkpt>
      <trkpt lat="47.40829" lon="-0.47673">
        <ele>26.8</ele>
        <time>2023-07-19T13:44:23Z</time>
      </trkpt>
      <trkpt lat="47.40829" lon="-0.47668">
        <ele>26.8</ele>
        <time>2023-07-19T13:44:24Z</time>
      </trkpt>
      <trkpt lat="47.40829" lon="-0.47645">
        <ele>26.8</ele>
        <time>2023-07-19T13:44:28Z</time>
      </trkpt>
      <trkpt lat="47.40829" lon="-0.47641">
        <ele>26.8</ele>
        <time>2023-07-19T13:44:29Z</time>
      </trkpt>
      <trkpt lat="47.40828" lon="-0.47636">
        <ele>26.8</ele>
        <time>2023-07-19T13:44:30Z</time>
      </trkpt>
      <trkpt lat="47.40826" lon="-0.47617">
        <ele>26.6</ele>
        <time>2023-07-19T13:44:34Z</time>
      </trkpt>
      <trkpt lat="47.40826" lon="-0.47612">
        <ele>26.6</ele>
        <time>2023-07-19T13:44:35Z</time>
      </trkpt>
      <trkpt lat="47.40826" lon="-0.47607">
        <ele>26.4</ele>
        <time>2023-07-19T13:44:36Z</time>
      </trkpt>
      <trkpt lat="47.40826" lon="-0.47603">
        <ele>26.4</ele>
        <time>2023-07-19T13:44:37Z</time>
      </trkpt>
      <trkpt lat="47.40825" lon="-0.47598">
        <ele>26.4</ele>
        <time>2023-07-19T13:44:38Z</time>
      </trkpt>
      <trkpt lat="47.40824" lon="-0.47593">
        <ele>26.4</ele>
        <time>2023-07-19T13:44:39Z</time>
      </trkpt>
      <trkpt lat="47.40823" lon="-0.47584">
        <ele>26.4</ele>
        <time>2023-07-19T13:44:41Z</time>
      </trkpt>
      <trkpt lat="47.40821" lon="-0.47561">
        <ele>26.2</ele>
        <time>2023-07-19T13:44:46Z</time>
      </trkpt>
      <trkpt lat="47.4082" lon="-0.47557">
        <ele>26.4</ele>
        <time>2023-07-19T13:44:47Z</time>
      </trkpt>
      <trkpt lat="47.40819" lon="-0.47549">
        <ele>26.4</ele>
        <time>2023-07-19T13:44:49Z</time>
      </trkpt>
      <trkpt lat="47.40818" lon="-0.47545">
        <ele>26.4</ele>
        <time>2023-07-19T13:44:50Z</time>
      </trkpt>
      <trkpt lat="47.40818" lon="-0.47541">
        <ele>26.4</ele>
        <time>2023-07-19T13:44:51Z</time>
      </trkpt>
      <trkpt lat="47.40817" lon="-0.47537">
        <ele>26.4</ele>
        <time>2023-07-19T13:44:52Z</time>
      </trkpt>
      <trkpt lat="47.40816" lon="-0.47533">
        <ele>26.4</ele>
        <time>2023-07-19T13:44:53Z</time>
      </trkpt>
      <trkpt lat="47.40816" lon="-0.47529">
        <ele>26.4</ele>
        <time>2023-07-19T13:44:54Z</time>
      </trkpt>
      <trkpt lat="47.40815" lon="-0.47525">
        <ele>26.4</ele>
        <time>2023-07-19T13:44:55Z</time>
      </trkpt>
      <trkpt lat="47.40815" lon="-0.47521">
        <ele>26.4</ele>
        <time>2023-07-19T13:44:56Z</time>
      </trkpt>
      <trkpt lat="47.40812" lon="-0.47509">
        <ele>26.4</ele>
        <time>2023-07-19T13:44:59Z</time>
      </trkpt>
      <trkpt lat="47.40813" lon="-0.47507">
        <ele>26.4</ele>
        <time>2023-07-19T13:45:00Z</time>
      </trkpt>
      <trkpt lat="47.40813" lon="-0.47506">
        <ele>26.6</ele>
        <time>2023-07-19T13:45:01Z</time>
      </trkpt>
      <trkpt lat="47.40813" lon="-0.47506">
        <ele>26.6</ele>
        <time>2023-07-19T13:45:03Z</time>
      </trkpt>
      <trkpt lat="47.40809" lon="-0.47495">
        <ele>27.4</ele>
        <time>2023-07-19T13:46:13Z</time>
      </trkpt>
      <trkpt lat="47.40809" lon="-0.47492">
        <ele>27.4</ele>
        <time>2023-07-19T13:46:14Z</time>
      </trkpt>
      <trkpt lat="47.40807" lon="-0.47485">
        <ele>27.4</ele>
        <time>2023-07-19T13:46:17Z</time>
      </trkpt>
      <trkpt lat="47.40807" lon="-0.47483">
        <ele>27.4</ele>
        <time>2023-07-19T13:46:18Z</time>
      </trkpt>
      <trkpt lat="47.40807" lon="-0.4748">
        <ele>27.4</ele>
        <time>2023-07-19T13:46:19Z</time>
      </trkpt>
      <trkpt lat="47.40807" lon="-0.47478">
        <ele>27.4</ele>
        <time>2023-07-19T13:46:20Z</time>
      </trkpt>
      <trkpt lat="47.40808" lon="-0.47476">
        <ele>27.4</ele>
        <time>2023-07-19T13:46:21Z</time>
      </trkpt>
      <trkpt lat="47.40809" lon="-0.47474">
        <ele>27.4</ele>
        <time>2023-07-19T13:46:22Z</time>
      </trkpt>
      <trkpt lat="47.4081" lon="-0.47473">
        <ele>27.4</ele>
        <time>2023-07-19T13:46:23Z</time>
      </trkpt>
      <trkpt lat="47.4081" lon="-0.47473">
        <ele>27.4</ele>
        <time>2023-07-19T13:46:24Z</time>
      </trkpt>
      <trkpt lat="47.4081" lon="-0.47473">
        <ele>27.4</ele>
        <time>2023-07-19T13:46:25Z</time>
      </trkpt>
      <trkpt lat="47.4081" lon="-0.47473">
        <ele>27.4</ele>
        <time>2023-07-19T13:46:26Z</time>
      </trkpt>
      <trkpt lat="47.408" lon="-0.47465">
        <ele>26.6</ele>
        <time>2023-07-19T13:51:11Z</time>
      </trkpt>
      <trkpt lat="47.40799" lon="-0.47459">
        <ele>26.6</ele>
        <time>2023-07-19T13:51:13Z</time>
      </trkpt>
      <trkpt lat="47.40789" lon="-0.47441">
        <ele>26.6</ele>
        <time>2023-07-19T13:51:19Z</time>
      </trkpt>
      <trkpt lat="47.40787" lon="-0.47439">
        <ele>26.6</ele>
        <time>2023-07-19T13:51:20Z</time>
      </trkpt>
      <trkpt lat="47.40786" lon="-0.47437">
        <ele>26.6</ele>
        <time>2023-07-19T13:51:21Z</time>
      </trkpt>
      <trkpt lat="47.40778" lon="-0.47419">
        <ele>26.6</ele>
        <time>2023-07-19T13:51:26Z</time>
      </trkpt>
      <trkpt lat="47.40768" lon="-0.47402">
        <ele>26.6</ele>
        <time>2023-07-19T13:51:30Z</time>
      </trkpt>
      <trkpt lat="47.40765" lon="-0.47399">
        <ele>26.6</ele>
        <time>2023-07-19T13:51:31Z</time>
      </trkpt>
      <trkpt lat="47.40763" lon="-0.47396">
        <ele>26.6</ele>
        <time>2023-07-19T13:51:32Z</time>
      </trkpt>
      <trkpt lat="47.40761" lon="-0.47393">
        <ele>26.6</ele>
        <time>2023-07-19T13:51:33Z</time>
      </trkpt>
      <trkpt lat="47.40759" lon="-0.47389">
        <ele>26.6</ele>
        <time>2023-07-19T13:51:34Z</time>
      </trkpt>
      <trkpt lat="47.40757" lon="-0.47384">
        <ele>26.6</ele>
        <time>2023-07-19T13:51:35Z</time>
      </trkpt>
      <trkpt lat="47.40755" lon="-0.4738">
        <ele>26.6</ele>
        <time>2023-07-19T13:51:36Z</time>
      </trkpt>
      <trkpt lat="47.40753" lon="-0.47376">
        <ele>26.6</ele>
        <time>2023-07-19T13:51:37Z</time>
      </trkpt>
      <trkpt lat="47.40734" lon="-0.47349">
        <ele>26.8</ele>
        <time>2023-07-19T13:51:45Z</time>
      </trkpt>
      <trkpt lat="47.4072" lon="-0.47339">
        <ele>27</ele>
        <time>2023-07-19T13:51:50Z</time>
      </trkpt>
      <trkpt lat="47.40716" lon="-0.47338">
        <ele>27.2</ele>
        <time>2023-07-19T13:51:51Z</time>
      </trkpt>
      <trkpt lat="47.40709" lon="-0.47335">
        <ele>27.2</ele>
        <time>2023-07-19T13:51:53Z</time>
      </trkpt>
      <trkpt lat="47.40693" lon="-0.47319">
        <ele>27.2</ele>
        <time>2023-07-19T13:51:59Z</time>
      </trkpt>
      <trkpt lat="47.40687" lon="-0.4731">
        <ele>27.4</ele>
        <time>2023-07-19T13:52:02Z</time>
      </trkpt>
      <trkpt lat="47.40685" lon="-0.47307">
        <ele>27.4</ele>
        <time>2023-07-19T13:52:03Z</time>
      </trkpt>
      <trkpt lat="47.40683" lon="-0.47303">
        <ele>27.4</ele>
        <time>2023-07-19T13:52:04Z</time>
      </trkpt>
      <trkpt lat="47.40681" lon="-0.47301">
        <ele>27.4</ele>
        <time>2023-07-19T13:52:05Z</time>
      </trkpt>
      <trkpt lat="47.40678" lon="-0.47298">
        <ele>27.4</ele>
        <time>2023-07-19T13:52:06Z</time>
      </trkpt>
      <trkpt lat="47.40676" lon="-0.47295">
        <ele>27.4</ele>
        <time>2023-07-19T13:52:07Z</time>
      </trkpt>
      <trkpt lat="47.40674" lon="-0.47292">
        <ele>27.4</ele>
        <time>2023-07-19T13:52:08Z</time>
      </trkpt>
      <trkpt lat="47.40672" lon="-0.47289">
        <ele>27.4</ele>
        <time>2023-07-19T13:52:09Z</time>
      </trkpt>
      <trkpt lat="47.4067" lon="-0.47287">
        <ele>27.4</ele>
        <time>2023-07-19T13:52:10Z</time>
      </trkpt>
      <trkpt lat="47.40665" lon="-0.47282">
        <ele>27.4</ele>
        <time>2023-07-19T13:52:12Z</time>
      </trkpt>
      <trkpt lat="47.4065" lon="-0.47277">
        <ele>27.2</ele>
        <time>2023-07-19T13:52:17Z</time>
      </trkpt>
      <trkpt lat="47.40644" lon="-0.47274">
        <ele>27.2</ele>
        <time>2023-07-19T13:52:19Z</time>
      </trkpt>
      <trkpt lat="47.40638" lon="-0.4727">
        <ele>27.2</ele>
        <time>2023-07-19T13:52:21Z</time>
      </trkpt>
      <trkpt lat="47.40636" lon="-0.47265">
        <ele>27.2</ele>
        <time>2023-07-19T13:52:22Z</time>
      </trkpt>
      <trkpt lat="47.40634" lon="-0.4726">
        <ele>27.2</ele>
        <time>2023-07-19T13:52:23Z</time>
      </trkpt>
      <trkpt lat="47.40633" lon="-0.47255">
        <ele>27.2</ele>
        <time>2023-07-19T13:52:24Z</time>
      </trkpt>
      <trkpt lat="47.40632" lon="-0.4725">
        <ele>27.2</ele>
        <time>2023-07-19T13:52:25Z</time>
      </trkpt>
      <trkpt lat="47.40631" lon="-0.47246">
        <ele>27.2</ele>
        <time>2023-07-19T13:52:26Z</time>
      </trkpt>
      <trkpt lat="47.4063" lon="-0.47226">
        <ele>27.2</ele>
        <time>2023-07-19T13:52:30Z</time>
      </trkpt>
      <trkpt lat="47.40629" lon="-0.47211">
        <ele>27.2</ele>
        <time>2023-07-19T13:52:33Z</time>
      </trkpt>
      <trkpt lat="47.40628" lon="-0.47207">
        <ele>27.2</ele>
        <time>2023-07-19T13:52:34Z</time>
      </trkpt>
      <trkpt lat="47.40627" lon="-0.47203">
        <ele>27.2</ele>
        <time>2023-07-19T13:52:35Z</time>
      </trkpt>
      <trkpt lat="47.40622" lon="-0.47199">
        <ele>27.2</ele>
        <time>2023-07-19T13:52:37Z</time>
      </trkpt>
      <trkpt lat="47.4062" lon="-0.47198">
        <ele>27.2</ele>
        <time>2023-07-19T13:52:38Z</time>
      </trkpt>
      <trkpt lat="47.40617" lon="-0.47198">
        <ele>27.2</ele>
        <time>2023-07-19T13:52:39Z</time>
      </trkpt>
      <trkpt lat="47.40615" lon="-0.47198">
        <ele>27.2</ele>
        <time>2023-07-19T13:52:40Z</time>
      </trkpt>
      <trkpt lat="47.40613" lon="-0.47198">
        <ele>27.4</ele>
        <time>2023-07-19T13:52:41Z</time>
      </trkpt>
      <trkpt lat="47.4061" lon="-0.47198">
        <ele>27.4</ele>
        <time>2023-07-19T13:52:42Z</time>
      </trkpt>
      <trkpt lat="47.40608" lon="-0.47198">
        <ele>27.4</ele>
        <time>2023-07-19T13:52:43Z</time>
      </trkpt>
      <trkpt lat="47.40605" lon="-0.47198">
        <ele>27.4</ele>
        <time>2023-07-19T13:52:44Z</time>
      </trkpt>
      <trkpt lat="47.40603" lon="-0.47198">
        <ele>27.4</ele>
        <time>2023-07-19T13:52:45Z</time>
      </trkpt>
      <trkpt lat="47.40602" lon="-0.47199">
        <ele>27.6</ele>
        <time>2023-07-19T13:52:46Z</time>
      </trkpt>
      <trkpt lat="47.40601" lon="-0.472">
        <ele>27.8</ele>
        <time>2023-07-19T13:52:47Z</time>
      </trkpt>
      <trkpt lat="47.40599" lon="-0.47202">
        <ele>27.8</ele>
        <time>2023-07-19T13:52:48Z</time>
      </trkpt>
      <trkpt lat="47.40597" lon="-0.47203">
        <ele>28</ele>
        <time>2023-07-19T13:52:49Z</time>
      </trkpt>
      <trkpt lat="47.40596" lon="-0.47204">
        <ele>28.2</ele>
        <time>2023-07-19T13:52:50Z</time>
      </trkpt>
      <trkpt lat="47.40594" lon="-0.47204">
        <ele>28.4</ele>
        <time>2023-07-19T13:52:51Z</time>
      </trkpt>
      <trkpt lat="47.40593" lon="-0.47204">
        <ele>28.4</ele>
        <time>2023-07-19T13:52:52Z</time>
      </trkpt>
      <trkpt lat="47.40591" lon="-0.47204">
        <ele>28.4</ele>
        <time>2023-07-19T13:52:53Z</time>
      </trkpt>
      <trkpt lat="47.40589" lon="-0.47204">
        <ele>28.6</ele>
        <time>2023-07-19T13:52:54Z</time>
      </trkpt>
      <trkpt lat="47.40587" lon="-0.47202">
        <ele>28.8</ele>
        <time>2023-07-19T13:52:55Z</time>
      </trkpt>
      <trkpt lat="47.40586" lon="-0.472">
        <ele>29</ele>
        <time>2023-07-19T13:52:56Z</time>
      </trkpt>
      <trkpt lat="47.40584" lon="-0.47197">
        <ele>29</ele>
        <time>2023-07-19T13:52:57Z</time>
      </trkpt>
      <trkpt lat="47.40582" lon="-0.47194">
        <ele>29.2</ele>
        <time>2023-07-19T13:52:58Z</time>
      </trkpt>
      <trkpt lat="47.4058" lon="-0.4719">
        <ele>29.4</ele>
        <time>2023-07-19T13:52:59Z</time>
      </trkpt>
      <trkpt lat="47.40578" lon="-0.47186">
        <ele>29.4</ele>
        <time>2023-07-19T13:53:00Z</time>
      </trkpt>
      <trkpt lat="47.40572" lon="-0.47174">
        <ele>29.4</ele>
        <time>2023-07-19T13:53:03Z</time>
      </trkpt>
      <trkpt lat="47.40562" lon="-0.47151">
        <ele>29.4</ele>
        <time>2023-07-19T13:53:09Z</time>
      </trkpt>
      <trkpt lat="47.40558" lon="-0.47146">
        <ele>29.4</ele>
        <time>2023-07-19T13:53:11Z</time>
      </trkpt>
      <trkpt lat="47.40556" lon="-0.47144">
        <ele>29.4</ele>
        <time>2023-07-19T13:53:12Z</time>
      </trkpt>
      <trkpt lat="47.40554" lon="-0.47143">
        <ele>29.4</ele>
        <time>2023-07-19T13:53:13Z</time>
      </trkpt>
      <trkpt lat="47.40552" lon="-0.47143">
        <ele>29.4</ele>
        <time>2023-07-19T13:53:14Z</time>
      </trkpt>
      <trkpt lat="47.40549" lon="-0.47143">
        <ele>29.4</ele>
        <time>2023-07-19T13:53:15Z</time>
      </trkpt>
      <trkpt lat="47.40547" lon="-0.47143">
        <ele>29.4</ele>
        <time>2023-07-19T13:53:16Z</time>
      </trkpt>
      <trkpt lat="47.40545" lon="-0.47144">
        <ele>29.4</ele>
        <time>2023-07-19T13:53:17Z</time>
      </trkpt>
      <trkpt lat="47.40543" lon="-0.47144">
        <ele>29.4</ele>
        <time>2023-07-19T13:53:18Z</time>
      </trkpt>
      <trkpt lat="47.40541" lon="-0.47144">
        <ele>29.4</ele>
        <time>2023-07-19T13:53:19Z</time>
      </trkpt>
      <trkpt lat="47.40539" lon="-0.47145">
        <ele>29.6</ele>
        <time>2023-07-19T13:53:20Z</time>
      </trkpt>
      <trkpt lat="47.40537" lon="-0.47145">
        <ele>29.6</ele>
        <time>2023-07-19T13:53:21Z</time>
      </trkpt>
      <trkpt lat="47.40533" lon="-0.47145">
        <ele>29.8</ele>
        <time>2023-07-19T13:53:23Z</time>
      </trkpt>
      <trkpt lat="47.40526" lon="-0.47148">
        <ele>30</ele>
        <time>2023-07-19T13:53:26Z</time>
      </trkpt>
      <trkpt lat="47.40524" lon="-0.47149">
        <ele>30</ele>
        <time>2023-07-19T13:53:27Z</time>
      </trkpt>
      <trkpt lat="47.40522" lon="-0.4715">
        <ele>30</ele>
        <time>2023-07-19T13:53:28Z</time>
      </trkpt>
      <trkpt lat="47.40515" lon="-0.47155">
        <ele>30.4</ele>
        <time>2023-07-19T13:53:32Z</time>
      </trkpt>
      <trkpt lat="47.40514" lon="-0.47156">
        <ele>30.4</ele>
        <time>2023-07-19T13:53:33Z</time>
      </trkpt>
      <trkpt lat="47.40513" lon="-0.47158">
        <ele>30.4</ele>
        <time>2023-07-19T13:53:34Z</time>
      </trkpt>
      <trkpt lat="47.40512" lon="-0.47159">
        <ele>30.6</ele>
        <time>2023-07-19T13:53:35Z</time>
      </trkpt>
      <trkpt lat="47.40511" lon="-0.47159">
        <ele>30.6</ele>
        <time>2023-07-19T13:53:36Z</time>
      </trkpt>
      <trkpt lat="47.40511" lon="-0.47159">
        <ele>30.6</ele>
        <time>2023-07-19T13:53:37Z</time>
      </trkpt>
      <trkpt lat="47.40511" lon="-0.47159">
        <ele>30.8</ele>
        <time>2023-07-19T13:53:39Z</time>
      </trkpt>
      <trkpt lat="47.40504" lon="-0.47162">
        <ele>31.8</ele>
        <time>2023-07-19T13:53:46Z</time>
      </trkpt>
      <trkpt lat="47.40499" lon="-0.47163">
        <ele>31.8</ele>
        <time>2023-07-19T13:53:48Z</time>
      </trkpt>
      <trkpt lat="47.40495" lon="-0.47165">
        <ele>31.8</ele>
        <time>2023-07-19T13:53:50Z</time>
      </trkpt>
      <trkpt lat="47.40484" lon="-0.4717">
        <ele>32</ele>
        <time>2023-07-19T13:53:55Z</time>
      </trkpt>
      <trkpt lat="47.40476" lon="-0.47174">
        <ele>32.4</ele>
        <time>2023-07-19T13:53:59Z</time>
      </trkpt>
      <trkpt lat="47.40472" lon="-0.47176">
        <ele>32.6</ele>
        <time>2023-07-19T13:54:01Z</time>
      </trkpt>
      <trkpt lat="47.4047" lon="-0.47177">
        <ele>32.6</ele>
        <time>2023-07-19T13:54:02Z</time>
      </trkpt>
      <trkpt lat="47.40458" lon="-0.47182">
        <ele>32.8</ele>
        <time>2023-07-19T13:54:07Z</time>
      </trkpt>
      <trkpt lat="47.40456" lon="-0.47183">
        <ele>32.8</ele>
        <time>2023-07-19T13:54:08Z</time>
      </trkpt>
      <trkpt lat="47.40454" lon="-0.47183">
        <ele>32.8</ele>
        <time>2023-07-19T13:54:09Z</time>
      </trkpt>
      <trkpt lat="47.40444" lon="-0.47186">
        <ele>33</ele>
        <time>2023-07-19T13:54:14Z</time>
      </trkpt>
      <trkpt lat="47.40442" lon="-0.47186">
        <ele>33</ele>
        <time>2023-07-19T13:54:15Z</time>
      </trkpt>
      <trkpt lat="47.40429" lon="-0.47184">
        <ele>33.2</ele>
        <time>2023-07-19T13:54:20Z</time>
      </trkpt>
      <trkpt lat="47.40415" lon="-0.47179">
        <ele>34</ele>
        <time>2023-07-19T13:54:25Z</time>
      </trkpt>
      <trkpt lat="47.40412" lon="-0.47178">
        <ele>34.4</ele>
        <time>2023-07-19T13:54:26Z</time>
      </trkpt>
      <trkpt lat="47.40395" lon="-0.47171">
        <ele>35</ele>
        <time>2023-07-19T13:54:32Z</time>
      </trkpt>
      <trkpt lat="47.40392" lon="-0.47171">
        <ele>35</ele>
        <time>2023-07-19T13:54:33Z</time>
      </trkpt>
      <trkpt lat="47.40384" lon="-0.47171">
        <ele>35.2</ele>
        <time>2023-07-19T13:54:36Z</time>
      </trkpt>
      <trkpt lat="47.4038" lon="-0.47171">
        <ele>35.4</ele>
        <time>2023-07-19T13:54:38Z</time>
      </trkpt>
      <trkpt lat="47.40379" lon="-0.47173">
        <ele>35.6</ele>
        <time>2023-07-19T13:54:39Z</time>
      </trkpt>
      <trkpt lat="47.40378" lon="-0.47175">
        <ele>35.8</ele>
        <time>2023-07-19T13:54:40Z</time>
      </trkpt>
      <trkpt lat="47.40378" lon="-0.47178">
        <ele>35.8</ele>
        <time>2023-07-19T13:54:41Z</time>
      </trkpt>
      <trkpt lat="47.40377" lon="-0.47182">
        <ele>36</ele>
        <time>2023-07-19T13:54:42Z</time>
      </trkpt>
      <trkpt lat="47.40377" lon="-0.47185">
        <ele>36</ele>
        <time>2023-07-19T13:54:43Z</time>
      </trkpt>
      <trkpt lat="47.40377" lon="-0.47189">
        <ele>36</ele>
        <time>2023-07-19T13:54:44Z</time>
      </trkpt>
      <trkpt lat="47.40377" lon="-0.47193">
        <ele>36</ele>
        <time>2023-07-19T13:54:45Z</time>
      </trkpt>
      <trkpt lat="47.40377" lon="-0.47197">
        <ele>36</ele>
        <time>2023-07-19T13:54:46Z</time>
      </trkpt>
      <trkpt lat="47.40377" lon="-0.47201">
        <ele>36</ele>
        <time>2023-07-19T13:54:47Z</time>
      </trkpt>
      <trkpt lat="47.40377" lon="-0.47205">
        <ele>36.2</ele>
        <time>2023-07-19T13:54:48Z</time>
      </trkpt>
      <trkpt lat="47.40379" lon="-0.47231">
        <ele>36.4</ele>
        <time>2023-07-19T13:54:54Z</time>
      </trkpt>
      <trkpt lat="47.40382" lon="-0.47262">
        <ele>36.6</ele>
        <time>2023-07-19T13:55:01Z</time>
      </trkpt>
      <trkpt lat="47.40383" lon="-0.47272">
        <ele>36.6</ele>
        <time>2023-07-19T13:55:03Z</time>
      </trkpt>
      <trkpt lat="47.4039" lon="-0.47311">
        <ele>36.6</ele>
        <time>2023-07-19T13:55:10Z</time>
      </trkpt>
      <trkpt lat="47.40396" lon="-0.47329">
        <ele>36.6</ele>
        <time>2023-07-19T13:55:13Z</time>
      </trkpt>
      <trkpt lat="47.40403" lon="-0.4734">
        <ele>36.4</ele>
        <time>2023-07-19T13:55:15Z</time>
      </trkpt>
      <trkpt lat="47.40422" lon="-0.47371">
        <ele>36</ele>
        <time>2023-07-19T13:55:20Z</time>
      </trkpt>
      <trkpt lat="47.40426" lon="-0.47377">
        <ele>36</ele>
        <time>2023-07-19T13:55:21Z</time>
      </trkpt>
      <trkpt lat="47.40446" lon="-0.47396">
        <ele>35.6</ele>
        <time>2023-07-19T13:55:25Z</time>
      </trkpt>
      <trkpt lat="47.40467" lon="-0.47417">
        <ele>35</ele>
        <time>2023-07-19T13:55:29Z</time>
      </trkpt>
      <trkpt lat="47.40472" lon="-0.47424">
        <ele>34.8</ele>
        <time>2023-07-19T13:55:30Z</time>
      </trkpt>
      <trkpt lat="47.40475" lon="-0.47431">
        <ele>34.8</ele>
        <time>2023-07-19T13:55:31Z</time>
      </trkpt>
      <trkpt lat="47.4048" lon="-0.47446">
        <ele>34.6</ele>
        <time>2023-07-19T13:55:33Z</time>
      </trkpt>
      <trkpt lat="47.40483" lon="-0.47453">
        <ele>34.4</ele>
        <time>2023-07-19T13:55:34Z</time>
      </trkpt>
      <trkpt lat="47.40485" lon="-0.4746">
        <ele>34.2</ele>
        <time>2023-07-19T13:55:35Z</time>
      </trkpt>
      <trkpt lat="47.40487" lon="-0.47466">
        <ele>33.8</ele>
        <time>2023-07-19T13:55:36Z</time>
      </trkpt>
      <trkpt lat="47.40488" lon="-0.47473">
        <ele>33.4</ele>
        <time>2023-07-19T13:55:37Z</time>
      </trkpt>
      <trkpt lat="47.40489" lon="-0.47479">
        <ele>33.4</ele>
        <time>2023-07-19T13:55:38Z</time>
      </trkpt>
      <trkpt lat="47.40489" lon="-0.47483">
        <ele>33.4</ele>
        <time>2023-07-19T13:55:39Z</time>
      </trkpt>
      <trkpt lat="47.40489" lon="-0.47487">
        <ele>33.2</ele>
        <time>2023-07-19T13:55:40Z</time>
      </trkpt>
      <trkpt lat="47.40489" lon="-0.47491">
        <ele>33.2</ele>
        <time>2023-07-19T13:55:41Z</time>
      </trkpt>
      <trkpt lat="47.40489" lon="-0.47495">
        <ele>33.2</ele>
        <time>2023-07-19T13:55:42Z</time>
      </trkpt>
      <trkpt lat="47.40489" lon="-0.47499">
        <ele>33.2</ele>
        <time>2023-07-19T13:55:43Z</time>
      </trkpt>
      <trkpt lat="47.4049" lon="-0.47507">
        <ele>33.2</ele>
        <time>2023-07-19T13:55:45Z</time>
      </trkpt>
      <trkpt lat="47.40492" lon="-0.47523">
        <ele>33.4</ele>
        <time>2023-07-19T13:55:49Z</time>
      </trkpt>
      <trkpt lat="47.40503" lon="-0.47547">
        <ele>34.8</ele>
        <time>2023-07-19T13:55:56Z</time>
      </trkpt>
      <trkpt lat="47.40505" lon="-0.47551">
        <ele>35</ele>
        <time>2023-07-19T13:55:57Z</time>
      </trkpt>
      <trkpt lat="47.40506" lon="-0.47554">
        <ele>35.2</ele>
        <time>2023-07-19T13:55:58Z</time>
      </trkpt>
      <trkpt lat="47.40513" lon="-0.47573">
        <ele>36</ele>
        <time>2023-07-19T13:56:03Z</time>
      </trkpt>
      <trkpt lat="47.40514" lon="-0.47577">
        <ele>36.2</ele>
        <time>2023-07-19T13:56:04Z</time>
      </trkpt>
      <trkpt lat="47.40515" lon="-0.4758">
        <ele>36.4</ele>
        <time>2023-07-19T13:56:05Z</time>
      </trkpt>
      <trkpt lat="47.40516" lon="-0.47583">
        <ele>36.4</ele>
        <time>2023-07-19T13:56:06Z</time>
      </trkpt>
      <trkpt lat="47.4052" lon="-0.47594">
        <ele>37</ele>
        <time>2023-07-19T13:56:09Z</time>
      </trkpt>
      <trkpt lat="47.4052" lon="-0.47598">
        <ele>37</ele>
        <time>2023-07-19T13:56:10Z</time>
      </trkpt>
      <trkpt lat="47.40521" lon="-0.47602">
        <ele>37.2</ele>
        <time>2023-07-19T13:56:11Z</time>
      </trkpt>
      <trkpt lat="47.40519" lon="-0.47606">
        <ele>37.2</ele>
        <time>2023-07-19T13:56:12Z</time>
      </trkpt>
      <trkpt lat="47.40518" lon="-0.4761">
        <ele>37.2</ele>
        <time>2023-07-19T13:56:13Z</time>
      </trkpt>
      <trkpt lat="47.40516" lon="-0.47613">
        <ele>37.2</ele>
        <time>2023-07-19T13:56:14Z</time>
      </trkpt>
      <trkpt lat="47.40515" lon="-0.47616">
        <ele>37.4</ele>
        <time>2023-07-19T13:56:15Z</time>
      </trkpt>
      <trkpt lat="47.40512" lon="-0.4762">
        <ele>37.4</ele>
        <time>2023-07-19T13:56:16Z</time>
      </trkpt>
      <trkpt lat="47.40509" lon="-0.47623">
        <ele>37.4</ele>
        <time>2023-07-19T13:56:17Z</time>
      </trkpt>
      <trkpt lat="47.40506" lon="-0.47627">
        <ele>37.4</ele>
        <time>2023-07-19T13:56:18Z</time>
      </trkpt>
      <trkpt lat="47.40504" lon="-0.47631">
        <ele>37.4</ele>
        <time>2023-07-19T13:56:19Z</time>
      </trkpt>
      <trkpt lat="47.40501" lon="-0.47634">
        <ele>37.6</ele>
        <time>2023-07-19T13:56:20Z</time>
      </trkpt>
      <trkpt lat="47.40499" lon="-0.47639">
        <ele>37.6</ele>
        <time>2023-07-19T13:56:21Z</time>
      </trkpt>
      <trkpt lat="47.40496" lon="-0.47642">
        <ele>37.6</ele>
        <time>2023-07-19T13:56:22Z</time>
      </trkpt>
      <trkpt lat="47.40494" lon="-0.47646">
        <ele>37.6</ele>
        <time>2023-07-19T13:56:23Z</time>
      </trkpt>
      <trkpt lat="47.40491" lon="-0.47649">
        <ele>37.6</ele>
        <time>2023-07-19T13:56:24Z</time>
      </trkpt>
      <trkpt lat="47.40476" lon="-0.4767">
        <ele>37.4</ele>
        <time>2023-07-19T13:56:30Z</time>
      </trkpt>
      <trkpt lat="47.40473" lon="-0.47673">
        <ele>37.4</ele>
        <time>2023-07-19T13:56:31Z</time>
      </trkpt>
      <trkpt lat="47.4047" lon="-0.47675">
        <ele>37.2</ele>
        <time>2023-07-19T13:56:32Z</time>
      </trkpt>
      <trkpt lat="47.40467" lon="-0.47678">
        <ele>37.2</ele>
        <time>2023-07-19T13:56:33Z</time>
      </trkpt>
      <trkpt lat="47.40464" lon="-0.47681">
        <ele>37.2</ele>
        <time>2023-07-19T13:56:34Z</time>
      </trkpt>
      <trkpt lat="47.40462" lon="-0.47684">
        <ele>37.2</ele>
        <time>2023-07-19T13:56:35Z</time>
      </trkpt>
      <trkpt lat="47.40452" lon="-0.47691">
        <ele>37.2</ele>
        <time>2023-07-19T13:56:38Z</time>
      </trkpt>
      <trkpt lat="47.40446" lon="-0.47696">
        <ele>37.2</ele>
        <time>2023-07-19T13:56:40Z</time>
      </trkpt>
      <trkpt lat="47.40443" lon="-0.47698">
        <ele>37.2</ele>
        <time>2023-07-19T13:56:41Z</time>
      </trkpt>
      <trkpt lat="47.40441" lon="-0.47701">
        <ele>37.2</ele>
        <time>2023-07-19T13:56:42Z</time>
      </trkpt>
      <trkpt lat="47.40432" lon="-0.47707">
        <ele>37.6</ele>
        <time>2023-07-19T13:56:45Z</time>
      </trkpt>
      <trkpt lat="47.4043" lon="-0.47708">
        <ele>37.8</ele>
        <time>2023-07-19T13:56:46Z</time>
      </trkpt>
      <trkpt lat="47.40427" lon="-0.4771">
        <ele>38</ele>
        <time>2023-07-19T13:56:47Z</time>
      </trkpt>
      <trkpt lat="47.40424" lon="-0.47711">
        <ele>38</ele>
        <time>2023-07-19T13:56:48Z</time>
      </trkpt>
      <trkpt lat="47.40421" lon="-0.47713">
        <ele>38.2</ele>
        <time>2023-07-19T13:56:49Z</time>
      </trkpt>
      <trkpt lat="47.40419" lon="-0.47715">
        <ele>38.2</ele>
        <time>2023-07-19T13:56:50Z</time>
      </trkpt>
      <trkpt lat="47.40417" lon="-0.47717">
        <ele>38.2</ele>
        <time>2023-07-19T13:56:51Z</time>
      </trkpt>
      <trkpt lat="47.40415" lon="-0.47718">
        <ele>38.2</ele>
        <time>2023-07-19T13:56:52Z</time>
      </trkpt>
      <trkpt lat="47.40413" lon="-0.4772">
        <ele>38.4</ele>
        <time>2023-07-19T13:56:53Z</time>
      </trkpt>
      <trkpt lat="47.40411" lon="-0.47722">
        <ele>38.6</ele>
        <time>2023-07-19T13:56:54Z</time>
      </trkpt>
      <trkpt lat="47.40409" lon="-0.47723">
        <ele>38.6</ele>
        <time>2023-07-19T13:56:55Z</time>
      </trkpt>
      <trkpt lat="47.40406" lon="-0.47725">
        <ele>38.6</ele>
        <time>2023-07-19T13:56:56Z</time>
      </trkpt>
      <trkpt lat="47.40404" lon="-0.47726">
        <ele>38.8</ele>
        <time>2023-07-19T13:56:57Z</time>
      </trkpt>
      <trkpt lat="47.40402" lon="-0.47728">
        <ele>39</ele>
        <time>2023-07-19T13:56:58Z</time>
      </trkpt>
      <trkpt lat="47.40399" lon="-0.47729">
        <ele>39.2</ele>
        <time>2023-07-19T13:56:59Z</time>
      </trkpt>
      <trkpt lat="47.40395" lon="-0.47733">
        <ele>39.6</ele>
        <time>2023-07-19T13:57:01Z</time>
      </trkpt>
      <trkpt lat="47.40383" lon="-0.47744">
        <ele>40.6</ele>
        <time>2023-07-19T13:57:06Z</time>
      </trkpt>
      <trkpt lat="47.40378" lon="-0.47747">
        <ele>40.8</ele>
        <time>2023-07-19T13:57:08Z</time>
      </trkpt>
      <trkpt lat="47.40375" lon="-0.47748">
        <ele>41</ele>
        <time>2023-07-19T13:57:09Z</time>
      </trkpt>
      <trkpt lat="47.40373" lon="-0.47749">
        <ele>41</ele>
        <time>2023-07-19T13:57:10Z</time>
      </trkpt>
      <trkpt lat="47.40371" lon="-0.4775">
        <ele>41.2</ele>
        <time>2023-07-19T13:57:11Z</time>
      </trkpt>
      <trkpt lat="47.40369" lon="-0.47751">
        <ele>41.4</ele>
        <time>2023-07-19T13:57:12Z</time>
      </trkpt>
      <trkpt lat="47.40367" lon="-0.47753">
        <ele>41.4</ele>
        <time>2023-07-19T13:57:13Z</time>
      </trkpt>
      <trkpt lat="47.40364" lon="-0.47755">
        <ele>41.6</ele>
        <time>2023-07-19T13:57:14Z</time>
      </trkpt>
      <trkpt lat="47.40362" lon="-0.47757">
        <ele>41.8</ele>
        <time>2023-07-19T13:57:15Z</time>
      </trkpt>
      <trkpt lat="47.4036" lon="-0.47759">
        <ele>41.8</ele>
        <time>2023-07-19T13:57:16Z</time>
      </trkpt>
      <trkpt lat="47.40358" lon="-0.47761">
        <ele>41.8</ele>
        <time>2023-07-19T13:57:17Z</time>
      </trkpt>
      <trkpt lat="47.40356" lon="-0.47764">
        <ele>42</ele>
        <time>2023-07-19T13:57:18Z</time>
      </trkpt>
      <trkpt lat="47.40354" lon="-0.47766">
        <ele>42</ele>
        <time>2023-07-19T13:57:19Z</time>
      </trkpt>
      <trkpt lat="47.40351" lon="-0.47768">
        <ele>42</ele>
        <time>2023-07-19T13:57:20Z</time>
      </trkpt>
      <trkpt lat="47.40349" lon="-0.47769">
        <ele>42</ele>
        <time>2023-07-19T13:57:21Z</time>
      </trkpt>
      <trkpt lat="47.40347" lon="-0.47771">
        <ele>42</ele>
        <time>2023-07-19T13:57:22Z</time>
      </trkpt>
      <trkpt lat="47.40344" lon="-0.47773">
        <ele>42</ele>
        <time>2023-07-19T13:57:23Z</time>
      </trkpt>
      <trkpt lat="47.40342" lon="-0.47775">
        <ele>42</ele>
        <time>2023-07-19T13:57:24Z</time>
      </trkpt>
      <trkpt lat="47.40339" lon="-0.47777">
        <ele>42</ele>
        <time>2023-07-19T13:57:25Z</time>
      </trkpt>
      <trkpt lat="47.40336" lon="-0.47778">
        <ele>42.2</ele>
        <time>2023-07-19T13:57:26Z</time>
      </trkpt>
      <trkpt lat="47.40334" lon="-0.4778">
        <ele>42.2</ele>
        <time>2023-07-19T13:57:27Z</time>
      </trkpt>
      <trkpt lat="47.40331" lon="-0.47782">
        <ele>42.2</ele>
        <time>2023-07-19T13:57:28Z</time>
      </trkpt>
      <trkpt lat="47.40328" lon="-0.47784">
        <ele>42.2</ele>
        <time>2023-07-19T13:57:29Z</time>
      </trkpt>
      <trkpt lat="47.40319" lon="-0.47791">
        <ele>42.2</ele>
        <time>2023-07-19T13:57:32Z</time>
      </trkpt>
      <trkpt lat="47.40301" lon="-0.47805">
        <ele>42</ele>
        <time>2023-07-19T13:57:37Z</time>
      </trkpt>
      <trkpt lat="47.40299" lon="-0.47808">
        <ele>41.8</ele>
        <time>2023-07-19T13:57:38Z</time>
      </trkpt>
      <trkpt lat="47.40297" lon="-0.47812">
        <ele>41.8</ele>
        <time>2023-07-19T13:57:39Z</time>
      </trkpt>
      <trkpt lat="47.40296" lon="-0.47816">
        <ele>41.8</ele>
        <time>2023-07-19T13:57:40Z</time>
      </trkpt>
      <trkpt lat="47.40295" lon="-0.47821">
        <ele>41.6</ele>
        <time>2023-07-19T13:57:41Z</time>
      </trkpt>
      <trkpt lat="47.40292" lon="-0.47824">
        <ele>41.4</ele>
        <time>2023-07-19T13:57:42Z</time>
      </trkpt>
      <trkpt lat="47.40289" lon="-0.47825">
        <ele>41.2</ele>
        <time>2023-07-19T13:57:43Z</time>
      </trkpt>
      <trkpt lat="47.40282" lon="-0.4782">
        <ele>40.6</ele>
        <time>2023-07-19T13:57:45Z</time>
      </trkpt>
      <trkpt lat="47.40274" lon="-0.47816">
        <ele>40.4</ele>
        <time>2023-07-19T13:57:47Z</time>
      </trkpt>
      <trkpt lat="47.40265" lon="-0.47816">
        <ele>40.2</ele>
        <time>2023-07-19T13:57:49Z</time>
      </trkpt>
      <trkpt lat="47.40261" lon="-0.47816">
        <ele>40.2</ele>
        <time>2023-07-19T13:57:50Z</time>
      </trkpt>
      <trkpt lat="47.40256" lon="-0.47817">
        <ele>40</ele>
        <time>2023-07-19T13:57:51Z</time>
      </trkpt>
      <trkpt lat="47.40251" lon="-0.47818">
        <ele>39.8</ele>
        <time>2023-07-19T13:57:52Z</time>
      </trkpt>
      <trkpt lat="47.40236" lon="-0.47821">
        <ele>39.4</ele>
        <time>2023-07-19T13:57:55Z</time>
      </trkpt>
      <trkpt lat="47.40215" lon="-0.47825">
        <ele>38.2</ele>
        <time>2023-07-19T13:57:59Z</time>
      </trkpt>
      <trkpt lat="47.4021" lon="-0.47827">
        <ele>38.2</ele>
        <time>2023-07-19T13:58:00Z</time>
      </trkpt>
      <trkpt lat="47.40205" lon="-0.47828">
        <ele>38</ele>
        <time>2023-07-19T13:58:01Z</time>
      </trkpt>
      <trkpt lat="47.4019" lon="-0.4783">
        <ele>37.8</ele>
        <time>2023-07-19T13:58:04Z</time>
      </trkpt>
      <trkpt lat="47.40176" lon="-0.47834">
        <ele>37.8</ele>
        <time>2023-07-19T13:58:07Z</time>
      </trkpt>
      <trkpt lat="47.40172" lon="-0.47835">
        <ele>37.8</ele>
        <time>2023-07-19T13:58:08Z</time>
      </trkpt>
      <trkpt lat="47.40168" lon="-0.47836">
        <ele>37.8</ele>
        <time>2023-07-19T13:58:09Z</time>
      </trkpt>
      <trkpt lat="47.40164" lon="-0.47838">
        <ele>37.6</ele>
        <time>2023-07-19T13:58:10Z</time>
      </trkpt>
      <trkpt lat="47.4016" lon="-0.4784">
        <ele>37.6</ele>
        <time>2023-07-19T13:58:11Z</time>
      </trkpt>
      <trkpt lat="47.40156" lon="-0.47843">
        <ele>37.6</ele>
        <time>2023-07-19T13:58:12Z</time>
      </trkpt>
      <trkpt lat="47.40152" lon="-0.47845">
        <ele>37.6</ele>
        <time>2023-07-19T13:58:13Z</time>
      </trkpt>
      <trkpt lat="47.40149" lon="-0.47847">
        <ele>37.6</ele>
        <time>2023-07-19T13:58:14Z</time>
      </trkpt>
      <trkpt lat="47.40146" lon="-0.47848">
        <ele>37.6</ele>
        <time>2023-07-19T13:58:15Z</time>
      </trkpt>
      <trkpt lat="47.40143" lon="-0.47847">
        <ele>37.6</ele>
        <time>2023-07-19T13:58:16Z</time>
      </trkpt>
      <trkpt lat="47.40141" lon="-0.47844">
        <ele>37.8</ele>
        <time>2023-07-19T13:58:17Z</time>
      </trkpt>
      <trkpt lat="47.40138" lon="-0.4784">
        <ele>37.8</ele>
        <time>2023-07-19T13:58:18Z</time>
      </trkpt>
      <trkpt lat="47.40135" lon="-0.47838">
        <ele>37.8</ele>
        <time>2023-07-19T13:58:19Z</time>
      </trkpt>
      <trkpt lat="47.40132" lon="-0.47836">
        <ele>37.8</ele>
        <time>2023-07-19T13:58:20Z</time>
      </trkpt>
      <trkpt lat="47.40125" lon="-0.47834">
        <ele>38</ele>
        <time>2023-07-19T13:58:22Z</time>
      </trkpt>
      <trkpt lat="47.40122" lon="-0.47833">
        <ele>38</ele>
        <time>2023-07-19T13:58:23Z</time>
      </trkpt>
      <trkpt lat="47.40119" lon="-0.47833">
        <ele>38</ele>
        <time>2023-07-19T13:58:24Z</time>
      </trkpt>
      <trkpt lat="47.40117" lon="-0.47833">
        <ele>38</ele>
        <time>2023-07-19T13:58:25Z</time>
      </trkpt>
      <trkpt lat="47.40113" lon="-0.47833">
        <ele>38.2</ele>
        <time>2023-07-19T13:58:26Z</time>
      </trkpt>
      <trkpt lat="47.40111" lon="-0.47832">
        <ele>38.2</ele>
        <time>2023-07-19T13:58:27Z</time>
      </trkpt>
      <trkpt lat="47.40108" lon="-0.47832">
        <ele>38.4</ele>
        <time>2023-07-19T13:58:28Z</time>
      </trkpt>
      <trkpt lat="47.40105" lon="-0.47831">
        <ele>38.4</ele>
        <time>2023-07-19T13:58:29Z</time>
      </trkpt>
      <trkpt lat="47.40102" lon="-0.47831">
        <ele>38.6</ele>
        <time>2023-07-19T13:58:30Z</time>
      </trkpt>
      <trkpt lat="47.40099" lon="-0.4783">
        <ele>38.8</ele>
        <time>2023-07-19T13:58:31Z</time>
      </trkpt>
      <trkpt lat="47.40063" lon="-0.47821">
        <ele>39.4</ele>
        <time>2023-07-19T13:58:42Z</time>
      </trkpt>
      <trkpt lat="47.4006" lon="-0.4782">
        <ele>39.4</ele>
        <time>2023-07-19T13:58:43Z</time>
      </trkpt>
      <trkpt lat="47.40048" lon="-0.47816">
        <ele>39.6</ele>
        <time>2023-07-19T13:58:47Z</time>
      </trkpt>
      <trkpt lat="47.40045" lon="-0.47815">
        <ele>39.6</ele>
        <time>2023-07-19T13:58:48Z</time>
      </trkpt>
      <trkpt lat="47.40042" lon="-0.47813">
        <ele>39.6</ele>
        <time>2023-07-19T13:58:49Z</time>
      </trkpt>
      <trkpt lat="47.40039" lon="-0.47812">
        <ele>39.6</ele>
        <time>2023-07-19T13:58:50Z</time>
      </trkpt>
      <trkpt lat="47.40035" lon="-0.47811">
        <ele>39.6</ele>
        <time>2023-07-19T13:58:51Z</time>
      </trkpt>
      <trkpt lat="47.40008" lon="-0.47807">
        <ele>40</ele>
        <time>2023-07-19T13:59:00Z</time>
      </trkpt>
      <trkpt lat="47.40005" lon="-0.47806">
        <ele>40</ele>
        <time>2023-07-19T13:59:01Z</time>
      </trkpt>
      <trkpt lat="47.40002" lon="-0.47806">
        <ele>40</ele>
        <time>2023-07-19T13:59:02Z</time>
      </trkpt>
      <trkpt lat="47.39999" lon="-0.47806">
        <ele>40</ele>
        <time>2023-07-19T13:59:03Z</time>
      </trkpt>
      <trkpt lat="47.39994" lon="-0.47805">
        <ele>40</ele>
        <time>2023-07-19T13:59:05Z</time>
      </trkpt>
      <trkpt lat="47.39991" lon="-0.47804">
        <ele>40</ele>
        <time>2023-07-19T13:59:06Z</time>
      </trkpt>
      <trkpt lat="47.39982" lon="-0.47801">
        <ele>40.2</ele>
        <time>2023-07-19T13:59:09Z</time>
      </trkpt>
      <trkpt lat="47.39963" lon="-0.47798">
        <ele>40.4</ele>
        <time>2023-07-19T13:59:15Z</time>
      </trkpt>
      <trkpt lat="47.39957" lon="-0.47797">
        <ele>40.6</ele>
        <time>2023-07-19T13:59:17Z</time>
      </trkpt>
      <trkpt lat="47.39935" lon="-0.4779">
        <ele>41</ele>
        <time>2023-07-19T13:59:24Z</time>
      </trkpt>
      <trkpt lat="47.399" lon="-0.47786">
        <ele>41.2</ele>
        <time>2023-07-19T13:59:35Z</time>
      </trkpt>
      <trkpt lat="47.39895" lon="-0.47784">
        <ele>41.4</ele>
        <time>2023-07-19T13:59:37Z</time>
      </trkpt>
      <trkpt lat="47.39892" lon="-0.47784">
        <ele>41.4</ele>
        <time>2023-07-19T13:59:38Z</time>
      </trkpt>
      <trkpt lat="47.3989" lon="-0.47783">
        <ele>41.6</ele>
        <time>2023-07-19T13:59:39Z</time>
      </trkpt>
      <trkpt lat="47.39885" lon="-0.47782">
        <ele>41.6</ele>
        <time>2023-07-19T13:59:41Z</time>
      </trkpt>
      <trkpt lat="47.39882" lon="-0.47781">
        <ele>41.6</ele>
        <time>2023-07-19T13:59:42Z</time>
      </trkpt>
      <trkpt lat="47.3988" lon="-0.4778">
        <ele>41.8</ele>
        <time>2023-07-19T13:59:43Z</time>
      </trkpt>
      <trkpt lat="47.39877" lon="-0.47779">
        <ele>41.8</ele>
        <time>2023-07-19T13:59:44Z</time>
      </trkpt>
      <trkpt lat="47.39875" lon="-0.47777">
        <ele>41.8</ele>
        <time>2023-07-19T13:59:45Z</time>
      </trkpt>
      <trkpt lat="47.39863" lon="-0.47771">
        <ele>42</ele>
        <time>2023-07-19T13:59:50Z</time>
      </trkpt>
      <trkpt lat="47.39842" lon="-0.47764">
        <ele>42</ele>
        <time>2023-07-19T13:59:58Z</time>
      </trkpt>
      <trkpt lat="47.3984" lon="-0.47764">
        <ele>42</ele>
        <time>2023-07-19T13:59:59Z</time>
      </trkpt>
      <trkpt lat="47.39837" lon="-0.47764">
        <ele>42</ele>
        <time>2023-07-19T14:00:00Z</time>
      </trkpt>
      <trkpt lat="47.39835" lon="-0.47764">
        <ele>42</ele>
        <time>2023-07-19T14:00:01Z</time>
      </trkpt>
      <trkpt lat="47.39833" lon="-0.47764">
        <ele>42</ele>
        <time>2023-07-19T14:00:02Z</time>
      </trkpt>
      <trkpt lat="47.39831" lon="-0.47764">
        <ele>42</ele>
        <time>2023-07-19T14:00:03Z</time>
      </trkpt>
      <trkpt lat="47.39829" lon="-0.47763">
        <ele>42</ele>
        <time>2023-07-19T14:00:04Z</time>
      </trkpt>
      <trkpt lat="47.39827" lon="-0.47763">
        <ele>42</ele>
        <time>2023-07-19T14:00:05Z</time>
      </trkpt>
      <trkpt lat="47.39826" lon="-0.47763">
        <ele>42</ele>
        <time>2023-07-19T14:00:06Z</time>
      </trkpt>
      <trkpt lat="47.39825" lon="-0.47763">
        <ele>42</ele>
        <time>2023-07-19T14:00:07Z</time>
      </trkpt>
      <trkpt lat="47.39825" lon="-0.47763">
        <ele>42</ele>
        <time>2023-07-19T14:00:09Z</time>
      </trkpt>
      <trkpt lat="47.3982" lon="-0.47763">
        <ele>41.8</ele>
        <time>2023-07-19T14:00:42Z</time>
      </trkpt>
      <trkpt lat="47.39818" lon="-0.47764">
        <ele>41.8</ele>
        <time>2023-07-19T14:00:43Z</time>
      </trkpt>
      <trkpt lat="47.39816" lon="-0.47764">
        <ele>41.8</ele>
        <time>2023-07-19T14:00:44Z</time>
      </trkpt>
      <trkpt lat="47.39812" lon="-0.47765">
        <ele>41.8</ele>
        <time>2023-07-19T14:00:46Z</time>
      </trkpt>
      <trkpt lat="47.39805" lon="-0.47768">
        <ele>41.8</ele>
        <time>2023-07-19T14:00:49Z</time>
      </trkpt>
      <trkpt lat="47.39792" lon="-0.47771">
        <ele>42</ele>
        <time>2023-07-19T14:00:53Z</time>
      </trkpt>
      <trkpt lat="47.39789" lon="-0.47771">
        <ele>42</ele>
        <time>2023-07-19T14:00:54Z</time>
      </trkpt>
      <trkpt lat="47.39782" lon="-0.47773">
        <ele>42.2</ele>
        <time>2023-07-19T14:00:56Z</time>
      </trkpt>
      <trkpt lat="47.3976" lon="-0.47779">
        <ele>42.4</ele>
        <time>2023-07-19T14:01:03Z</time>
      </trkpt>
      <trkpt lat="47.39757" lon="-0.4778">
        <ele>42.4</ele>
        <time>2023-07-19T14:01:04Z</time>
      </trkpt>
      <trkpt lat="47.39754" lon="-0.4778">
        <ele>42.4</ele>
        <time>2023-07-19T14:01:05Z</time>
      </trkpt>
      <trkpt lat="47.39751" lon="-0.47781">
        <ele>42.6</ele>
        <time>2023-07-19T14:01:06Z</time>
      </trkpt>
      <trkpt lat="47.39749" lon="-0.47781">
        <ele>43</ele>
        <time>2023-07-19T14:01:07Z</time>
      </trkpt>
      <trkpt lat="47.39746" lon="-0.47783">
        <ele>43.2</ele>
        <time>2023-07-19T14:01:08Z</time>
      </trkpt>
      <trkpt lat="47.39743" lon="-0.47783">
        <ele>43.4</ele>
        <time>2023-07-19T14:01:09Z</time>
      </trkpt>
      <trkpt lat="47.3974" lon="-0.47784">
        <ele>43.6</ele>
        <time>2023-07-19T14:01:10Z</time>
      </trkpt>
      <trkpt lat="47.39738" lon="-0.47785">
        <ele>43.8</ele>
        <time>2023-07-19T14:01:11Z</time>
      </trkpt>
      <trkpt lat="47.39735" lon="-0.47785">
        <ele>44</ele>
        <time>2023-07-19T14:01:12Z</time>
      </trkpt>
      <trkpt lat="47.39732" lon="-0.47786">
        <ele>44.2</ele>
        <time>2023-07-19T14:01:13Z</time>
      </trkpt>
      <trkpt lat="47.3973" lon="-0.47786">
        <ele>44.2</ele>
        <time>2023-07-19T14:01:14Z</time>
      </trkpt>
      <trkpt lat="47.39727" lon="-0.47787">
        <ele>44.2</ele>
        <time>2023-07-19T14:01:15Z</time>
      </trkpt>
      <trkpt lat="47.39724" lon="-0.47788">
        <ele>44.2</ele>
        <time>2023-07-19T14:01:16Z</time>
      </trkpt>
      <trkpt lat="47.39712" lon="-0.47792">
        <ele>44.4</ele>
        <time>2023-07-19T14:01:21Z</time>
      </trkpt>
      <trkpt lat="47.3971" lon="-0.47792">
        <ele>44.4</ele>
        <time>2023-07-19T14:01:22Z</time>
      </trkpt>
      <trkpt lat="47.39707" lon="-0.47793">
        <ele>44.6</ele>
        <time>2023-07-19T14:01:23Z</time>
      </trkpt>
      <trkpt lat="47.39705" lon="-0.47794">
        <ele>44.8</ele>
        <time>2023-07-19T14:01:24Z</time>
      </trkpt>
      <trkpt lat="47.39702" lon="-0.47794">
        <ele>45</ele>
        <time>2023-07-19T14:01:25Z</time>
      </trkpt>
      <trkpt lat="47.397" lon="-0.47795">
        <ele>45</ele>
        <time>2023-07-19T14:01:26Z</time>
      </trkpt>
      <trkpt lat="47.39697" lon="-0.47796">
        <ele>45</ele>
        <time>2023-07-19T14:01:27Z</time>
      </trkpt>
      <trkpt lat="47.39688" lon="-0.47799">
        <ele>45.4</ele>
        <time>2023-07-19T14:01:31Z</time>
      </trkpt>
      <trkpt lat="47.39663" lon="-0.47808">
        <ele>45.8</ele>
        <time>2023-07-19T14:01:40Z</time>
      </trkpt>
      <trkpt lat="47.3964" lon="-0.47817">
        <ele>46</ele>
        <time>2023-07-19T14:01:48Z</time>
      </trkpt>
      <trkpt lat="47.39634" lon="-0.47818">
        <ele>46.2</ele>
        <time>2023-07-19T14:01:50Z</time>
      </trkpt>
      <trkpt lat="47.39615" lon="-0.47824">
        <ele>46.6</ele>
        <time>2023-07-19T14:01:57Z</time>
      </trkpt>
      <trkpt lat="47.3961" lon="-0.47825">
        <ele>46.6</ele>
        <time>2023-07-19T14:01:59Z</time>
      </trkpt>
      <trkpt lat="47.39607" lon="-0.47825">
        <ele>46.6</ele>
        <time>2023-07-19T14:02:00Z</time>
      </trkpt>
      <trkpt lat="47.39592" lon="-0.47824">
        <ele>47.2</ele>
        <time>2023-07-19T14:02:05Z</time>
      </trkpt>
      <trkpt lat="47.39586" lon="-0.47824">
        <ele>47.4</ele>
        <time>2023-07-19T14:02:07Z</time>
      </trkpt>
      <trkpt lat="47.39554" lon="-0.47817">
        <ele>47.6</ele>
        <time>2023-07-19T14:02:17Z</time>
      </trkpt>
      <trkpt lat="47.39538" lon="-0.47811">
        <ele>47.6</ele>
        <time>2023-07-19T14:02:22Z</time>
      </trkpt>
      <trkpt lat="47.39536" lon="-0.4781">
        <ele>47.6</ele>
        <time>2023-07-19T14:02:23Z</time>
      </trkpt>
      <trkpt lat="47.39533" lon="-0.47809">
        <ele>47.6</ele>
        <time>2023-07-19T14:02:24Z</time>
      </trkpt>
      <trkpt lat="47.39531" lon="-0.47807">
        <ele>47.6</ele>
        <time>2023-07-19T14:02:25Z</time>
      </trkpt>
      <trkpt lat="47.39528" lon="-0.47806">
        <ele>47.6</ele>
        <time>2023-07-19T14:02:26Z</time>
      </trkpt>
      <trkpt lat="47.39526" lon="-0.47805">
        <ele>47.8</ele>
        <time>2023-07-19T14:02:27Z</time>
      </trkpt>
      <trkpt lat="47.39524" lon="-0.47804">
        <ele>47.8</ele>
        <time>2023-07-19T14:02:28Z</time>
      </trkpt>
      <trkpt lat="47.39512" lon="-0.47799">
        <ele>48</ele>
        <time>2023-07-19T14:02:33Z</time>
      </trkpt>
      <trkpt lat="47.39495" lon="-0.47792">
        <ele>48.4</ele>
        <time>2023-07-19T14:02:40Z</time>
      </trkpt>
      <trkpt lat="47.39488" lon="-0.47791">
        <ele>48.4</ele>
        <time>2023-07-19T14:02:43Z</time>
      </trkpt>
      <trkpt lat="47.39485" lon="-0.4779">
        <ele>48.6</ele>
        <time>2023-07-19T14:02:44Z</time>
      </trkpt>
      <trkpt lat="47.39472" lon="-0.47789">
        <ele>48.6</ele>
        <time>2023-07-19T14:02:49Z</time>
      </trkpt>
      <trkpt lat="47.39463" lon="-0.47788">
        <ele>48.8</ele>
        <time>2023-07-19T14:02:53Z</time>
      </trkpt>
      <trkpt lat="47.39461" lon="-0.47788">
        <ele>48.8</ele>
        <time>2023-07-19T14:02:54Z</time>
      </trkpt>
      <trkpt lat="47.39459" lon="-0.47788">
        <ele>48.8</ele>
        <time>2023-07-19T14:02:55Z</time>
      </trkpt>
      <trkpt lat="47.39457" lon="-0.47789">
        <ele>48.8</ele>
        <time>2023-07-19T14:02:56Z</time>
      </trkpt>
      <trkpt lat="47.39455" lon="-0.47789">
        <ele>48.8</ele>
        <time>2023-07-19T14:02:57Z</time>
      </trkpt>
      <trkpt lat="47.39453" lon="-0.47788">
        <ele>48.8</ele>
        <time>2023-07-19T14:02:58Z</time>
      </trkpt>
      <trkpt lat="47.39451" lon="-0.47788">
        <ele>48.8</ele>
        <time>2023-07-19T14:02:59Z</time>
      </trkpt>
      <trkpt lat="47.39449" lon="-0.47788">
        <ele>48.8</ele>
        <time>2023-07-19T14:03:00Z</time>
      </trkpt>
      <trkpt lat="47.39447" lon="-0.47788">
        <ele>48.8</ele>
        <time>2023-07-19T14:03:01Z</time>
      </trkpt>
      <trkpt lat="47.39444" lon="-0.47788">
        <ele>48.8</ele>
        <time>2023-07-19T14:03:02Z</time>
      </trkpt>
      <trkpt lat="47.39437" lon="-0.47789">
        <ele>49</ele>
        <time>2023-07-19T14:03:05Z</time>
      </trkpt>
      <trkpt lat="47.39417" lon="-0.4779">
        <ele>49.4</ele>
        <time>2023-07-19T14:03:12Z</time>
      </trkpt>
      <trkpt lat="47.39412" lon="-0.47789">
        <ele>49.4</ele>
        <time>2023-07-19T14:03:14Z</time>
      </trkpt>
      <trkpt lat="47.39396" lon="-0.4779">
        <ele>49.8</ele>
        <time>2023-07-19T14:03:20Z</time>
      </trkpt>
      <trkpt lat="47.39394" lon="-0.47791">
        <ele>49.8</ele>
        <time>2023-07-19T14:03:21Z</time>
      </trkpt>
      <trkpt lat="47.39393" lon="-0.47791">
        <ele>49.8</ele>
        <time>2023-07-19T14:03:22Z</time>
      </trkpt>
      <trkpt lat="47.39392" lon="-0.47791">
        <ele>49.8</ele>
        <time>2023-07-19T14:03:23Z</time>
      </trkpt>
      <trkpt lat="47.39392" lon="-0.47791">
        <ele>49.8</ele>
        <time>2023-07-19T14:03:25Z</time>
      </trkpt>
      <trkpt lat="47.39388" lon="-0.47791">
        <ele>50.6</ele>
        <time>2023-07-19T14:04:27Z</time>
      </trkpt>
      <trkpt lat="47.39383" lon="-0.47792">
        <ele>50.6</ele>
        <time>2023-07-19T14:04:29Z</time>
      </trkpt>
      <trkpt lat="47.39367" lon="-0.47791">
        <ele>50.4</ele>
        <time>2023-07-19T14:04:34Z</time>
      </trkpt>
      <trkpt lat="47.39364" lon="-0.47791">
        <ele>50.2</ele>
        <time>2023-07-19T14:04:35Z</time>
      </trkpt>
      <trkpt lat="47.39362" lon="-0.47791">
        <ele>50.2</ele>
        <time>2023-07-19T14:04:36Z</time>
      </trkpt>
      <trkpt lat="47.39352" lon="-0.47789">
        <ele>50</ele>
        <time>2023-07-19T14:04:40Z</time>
      </trkpt>
      <trkpt lat="47.39349" lon="-0.47789">
        <ele>50</ele>
        <time>2023-07-19T14:04:41Z</time>
      </trkpt>
      <trkpt lat="47.39347" lon="-0.47788">
        <ele>50</ele>
        <time>2023-07-19T14:04:42Z</time>
      </trkpt>
      <trkpt lat="47.39345" lon="-0.47788">
        <ele>50</ele>
        <time>2023-07-19T14:04:43Z</time>
      </trkpt>
      <trkpt lat="47.39342" lon="-0.47788">
        <ele>50</ele>
        <time>2023-07-19T14:04:44Z</time>
      </trkpt>
      <trkpt lat="47.3934" lon="-0.47788">
        <ele>50</ele>
        <time>2023-07-19T14:04:45Z</time>
      </trkpt>
      <trkpt lat="47.39337" lon="-0.47788">
        <ele>50</ele>
        <time>2023-07-19T14:04:46Z</time>
      </trkpt>
      <trkpt lat="47.39335" lon="-0.47787">
        <ele>50.2</ele>
        <time>2023-07-19T14:04:47Z</time>
      </trkpt>
      <trkpt lat="47.39328" lon="-0.47784">
        <ele>50.4</ele>
        <time>2023-07-19T14:04:50Z</time>
      </trkpt>
      <trkpt lat="47.39323" lon="-0.47782">
        <ele>50.6</ele>
        <time>2023-07-19T14:04:52Z</time>
      </trkpt>
      <trkpt lat="47.3932" lon="-0.47781">
        <ele>50.6</ele>
        <time>2023-07-19T14:04:53Z</time>
      </trkpt>
      <trkpt lat="47.39302" lon="-0.47767">
        <ele>50.6</ele>
        <time>2023-07-19T14:05:00Z</time>
      </trkpt>
      <trkpt lat="47.39279" lon="-0.47747">
        <ele>50.4</ele>
        <time>2023-07-19T14:05:09Z</time>
      </trkpt>
      <trkpt lat="47.39253" lon="-0.47728">
        <ele>50.4</ele>
        <time>2023-07-19T14:05:18Z</time>
      </trkpt>
      <trkpt lat="47.39233" lon="-0.47718">
        <ele>50.4</ele>
        <time>2023-07-19T14:05:24Z</time>
      </trkpt>
      <trkpt lat="47.39231" lon="-0.47717">
        <ele>50.4</ele>
        <time>2023-07-19T14:05:25Z</time>
      </trkpt>
      <trkpt lat="47.39196" lon="-0.47706">
        <ele>50</ele>
        <time>2023-07-19T14:05:35Z</time>
      </trkpt>
      <trkpt lat="47.39193" lon="-0.47705">
        <ele>50</ele>
        <time>2023-07-19T14:05:36Z</time>
      </trkpt>
      <trkpt lat="47.3919" lon="-0.47704">
        <ele>50</ele>
        <time>2023-07-19T14:05:37Z</time>
      </trkpt>
      <trkpt lat="47.39187" lon="-0.47703">
        <ele>50</ele>
        <time>2023-07-19T14:05:38Z</time>
      </trkpt>
      <trkpt lat="47.39183" lon="-0.47702">
        <ele>50</ele>
        <time>2023-07-19T14:05:39Z</time>
      </trkpt>
      <trkpt lat="47.39166" lon="-0.477">
        <ele>50</ele>
        <time>2023-07-19T14:05:44Z</time>
      </trkpt>
      <trkpt lat="47.39146" lon="-0.47703">
        <ele>50</ele>
        <time>2023-07-19T14:05:50Z</time>
      </trkpt>
      <trkpt lat="47.39143" lon="-0.47704">
        <ele>50</ele>
        <time>2023-07-19T14:05:51Z</time>
      </trkpt>
      <trkpt lat="47.3914" lon="-0.47705">
        <ele>50</ele>
        <time>2023-07-19T14:05:52Z</time>
      </trkpt>
      <trkpt lat="47.39127" lon="-0.4771">
        <ele>50</ele>
        <time>2023-07-19T14:05:56Z</time>
      </trkpt>
      <trkpt lat="47.39124" lon="-0.47711">
        <ele>50</ele>
        <time>2023-07-19T14:05:57Z</time>
      </trkpt>
      <trkpt lat="47.39114" lon="-0.47714">
        <ele>49.8</ele>
        <time>2023-07-19T14:06:00Z</time>
      </trkpt>
      <trkpt lat="47.39102" lon="-0.47719">
        <ele>49.8</ele>
        <time>2023-07-19T14:06:04Z</time>
      </trkpt>
      <trkpt lat="47.39099" lon="-0.4772">
        <ele>49.8</ele>
        <time>2023-07-19T14:06:05Z</time>
      </trkpt>
      <trkpt lat="47.39096" lon="-0.47721">
        <ele>49.8</ele>
        <time>2023-07-19T14:06:06Z</time>
      </trkpt>
      <trkpt lat="47.39092" lon="-0.47722">
        <ele>49.8</ele>
        <time>2023-07-19T14:06:07Z</time>
      </trkpt>
      <trkpt lat="47.39079" lon="-0.47727">
        <ele>49.8</ele>
        <time>2023-07-19T14:06:11Z</time>
      </trkpt>
      <trkpt lat="47.3905" lon="-0.47733">
        <ele>50</ele>
        <time>2023-07-19T14:06:20Z</time>
      </trkpt>
      <trkpt lat="47.39047" lon="-0.47731">
        <ele>50</ele>
        <time>2023-07-19T14:06:21Z</time>
      </trkpt>
      <trkpt lat="47.39044" lon="-0.47729">
        <ele>50.2</ele>
        <time>2023-07-19T14:06:22Z</time>
      </trkpt>
      <trkpt lat="47.39042" lon="-0.47727">
        <ele>50.2</ele>
        <time>2023-07-19T14:06:23Z</time>
      </trkpt>
      <trkpt lat="47.39039" lon="-0.47724">
        <ele>50.2</ele>
        <time>2023-07-19T14:06:24Z</time>
      </trkpt>
      <trkpt lat="47.39037" lon="-0.47721">
        <ele>50.2</ele>
        <time>2023-07-19T14:06:25Z</time>
      </trkpt>
      <trkpt lat="47.39028" lon="-0.47709">
        <ele>50.4</ele>
        <time>2023-07-19T14:06:29Z</time>
      </trkpt>
      <trkpt lat="47.39025" lon="-0.47706">
        <ele>50.4</ele>
        <time>2023-07-19T14:06:30Z</time>
      </trkpt>
      <trkpt lat="47.39023" lon="-0.47704">
        <ele>50.4</ele>
        <time>2023-07-19T14:06:31Z</time>
      </trkpt>
      <trkpt lat="47.3902" lon="-0.47701">
        <ele>50.4</ele>
        <time>2023-07-19T14:06:32Z</time>
      </trkpt>
      <trkpt lat="47.38991" lon="-0.47668">
        <ele>50.6</ele>
        <time>2023-07-19T14:06:43Z</time>
      </trkpt>
      <trkpt lat="47.38964" lon="-0.47645">
        <ele>50.4</ele>
        <time>2023-07-19T14:06:52Z</time>
      </trkpt>
      <trkpt lat="47.38942" lon="-0.47626">
        <ele>50.4</ele>
        <time>2023-07-19T14:06:59Z</time>
      </trkpt>
      <trkpt lat="47.38937" lon="-0.4762">
        <ele>50.6</ele>
        <time>2023-07-19T14:07:01Z</time>
      </trkpt>
      <trkpt lat="47.38934" lon="-0.47617">
        <ele>50.6</ele>
        <time>2023-07-19T14:07:02Z</time>
      </trkpt>
      <trkpt lat="47.38929" lon="-0.47612">
        <ele>50.6</ele>
        <time>2023-07-19T14:07:04Z</time>
      </trkpt>
      <trkpt lat="47.38926" lon="-0.47609">
        <ele>50.6</ele>
        <time>2023-07-19T14:07:05Z</time>
      </trkpt>
      <trkpt lat="47.38924" lon="-0.47606">
        <ele>50.6</ele>
        <time>2023-07-19T14:07:06Z</time>
      </trkpt>
      <trkpt lat="47.38922" lon="-0.47604">
        <ele>50.8</ele>
        <time>2023-07-19T14:07:07Z</time>
      </trkpt>
      <trkpt lat="47.3892" lon="-0.47601">
        <ele>50.8</ele>
        <time>2023-07-19T14:07:08Z</time>
      </trkpt>
      <trkpt lat="47.38918" lon="-0.47599">
        <ele>50.8</ele>
        <time>2023-07-19T14:07:09Z</time>
      </trkpt>
      <trkpt lat="47.38915" lon="-0.47596">
        <ele>50.8</ele>
        <time>2023-07-19T14:07:10Z</time>
      </trkpt>
      <trkpt lat="47.38912" lon="-0.47595">
        <ele>50.8</ele>
        <time>2023-07-19T14:07:11Z</time>
      </trkpt>
      <trkpt lat="47.3891" lon="-0.47595">
        <ele>50.8</ele>
        <time>2023-07-19T14:07:12Z</time>
      </trkpt>
      <trkpt lat="47.38907" lon="-0.47597">
        <ele>50.8</ele>
        <time>2023-07-19T14:07:13Z</time>
      </trkpt>
      <trkpt lat="47.38905" lon="-0.47599">
        <ele>50.8</ele>
        <time>2023-07-19T14:07:14Z</time>
      </trkpt>
      <trkpt lat="47.38902" lon="-0.47602">
        <ele>50.8</ele>
        <time>2023-07-19T14:07:15Z</time>
      </trkpt>
      <trkpt lat="47.389" lon="-0.47604">
        <ele>50.8</ele>
        <time>2023-07-19T14:07:16Z</time>
      </trkpt>
      <trkpt lat="47.3889" lon="-0.47617">
        <ele>50.8</ele>
        <time>2023-07-19T14:07:20Z</time>
      </trkpt>
      <trkpt lat="47.38872" lon="-0.47641">
        <ele>50.6</ele>
        <time>2023-07-19T14:07:27Z</time>
      </trkpt>
      <trkpt lat="47.38867" lon="-0.47648">
        <ele>50.6</ele>
        <time>2023-07-19T14:07:29Z</time>
      </trkpt>
      <trkpt lat="47.3885" lon="-0.4767">
        <ele>50.6</ele>
        <time>2023-07-19T14:07:36Z</time>
      </trkpt>
      <trkpt lat="47.38848" lon="-0.47673">
        <ele>50.6</ele>
        <time>2023-07-19T14:07:37Z</time>
      </trkpt>
      <trkpt lat="47.38846" lon="-0.47676">
        <ele>50.6</ele>
        <time>2023-07-19T14:07:38Z</time>
      </trkpt>
      <trkpt lat="47.38843" lon="-0.47679">
        <ele>50.6</ele>
        <time>2023-07-19T14:07:39Z</time>
      </trkpt>
      <trkpt lat="47.38841" lon="-0.47681">
        <ele>50.6</ele>
        <time>2023-07-19T14:07:40Z</time>
      </trkpt>
      <trkpt lat="47.38839" lon="-0.47684">
        <ele>50.6</ele>
        <time>2023-07-19T14:07:41Z</time>
      </trkpt>
      <trkpt lat="47.38837" lon="-0.47686">
        <ele>50.6</ele>
        <time>2023-07-19T14:07:42Z</time>
      </trkpt>
      <trkpt lat="47.38835" lon="-0.47689">
        <ele>50.6</ele>
        <time>2023-07-19T14:07:43Z</time>
      </trkpt>
      <trkpt lat="47.38834" lon="-0.47692">
        <ele>50.6</ele>
        <time>2023-07-19T14:07:44Z</time>
      </trkpt>
      <trkpt lat="47.38831" lon="-0.47695">
        <ele>50.6</ele>
        <time>2023-07-19T14:07:45Z</time>
      </trkpt>
      <trkpt lat="47.38826" lon="-0.47701">
        <ele>50.6</ele>
        <time>2023-07-19T14:07:47Z</time>
      </trkpt>
      <trkpt lat="47.38807" lon="-0.47727">
        <ele>50.2</ele>
        <time>2023-07-19T14:07:55Z</time>
      </trkpt>
      <trkpt lat="47.38784" lon="-0.47755">
        <ele>49.4</ele>
        <time>2023-07-19T14:08:04Z</time>
      </trkpt>
      <trkpt lat="47.38782" lon="-0.47757">
        <ele>49</ele>
        <time>2023-07-19T14:08:05Z</time>
      </trkpt>
      <trkpt lat="47.3878" lon="-0.47757">
        <ele>49</ele>
        <time>2023-07-19T14:08:06Z</time>
      </trkpt>
      <trkpt lat="47.38778" lon="-0.47757">
        <ele>48.6</ele>
        <time>2023-07-19T14:08:07Z</time>
      </trkpt>
      <trkpt lat="47.38776" lon="-0.47755">
        <ele>48.2</ele>
        <time>2023-07-19T14:08:08Z</time>
      </trkpt>
      <trkpt lat="47.38772" lon="-0.47749">
        <ele>48</ele>
        <time>2023-07-19T14:08:10Z</time>
      </trkpt>
      <trkpt lat="47.38766" lon="-0.4774">
        <ele>47.8</ele>
        <time>2023-07-19T14:08:13Z</time>
      </trkpt>
      <trkpt lat="47.38749" lon="-0.47716">
        <ele>47.8</ele>
        <time>2023-07-19T14:08:21Z</time>
      </trkpt>
      <trkpt lat="47.38745" lon="-0.47711">
        <ele>47.8</ele>
        <time>2023-07-19T14:08:23Z</time>
      </trkpt>
      <trkpt lat="47.38736" lon="-0.47705">
        <ele>48.2</ele>
        <time>2023-07-19T14:08:26Z</time>
      </trkpt>
      <trkpt lat="47.38733" lon="-0.47705">
        <ele>48.2</ele>
        <time>2023-07-19T14:08:27Z</time>
      </trkpt>
      <trkpt lat="47.38729" lon="-0.47706">
        <ele>48.2</ele>
        <time>2023-07-19T14:08:28Z</time>
      </trkpt>
      <trkpt lat="47.38726" lon="-0.47707">
        <ele>48.2</ele>
        <time>2023-07-19T14:08:29Z</time>
      </trkpt>
      <trkpt lat="47.38719" lon="-0.47709">
        <ele>48.2</ele>
        <time>2023-07-19T14:08:31Z</time>
      </trkpt>
      <trkpt lat="47.38697" lon="-0.47721">
        <ele>48.2</ele>
        <time>2023-07-19T14:08:38Z</time>
      </trkpt>
      <trkpt lat="47.38694" lon="-0.47723">
        <ele>48.2</ele>
        <time>2023-07-19T14:08:39Z</time>
      </trkpt>
      <trkpt lat="47.38691" lon="-0.47725">
        <ele>48.2</ele>
        <time>2023-07-19T14:08:40Z</time>
      </trkpt>
      <trkpt lat="47.38688" lon="-0.47727">
        <ele>48.2</ele>
        <time>2023-07-19T14:08:41Z</time>
      </trkpt>
      <trkpt lat="47.38679" lon="-0.47732">
        <ele>48.2</ele>
        <time>2023-07-19T14:08:44Z</time>
      </trkpt>
      <trkpt lat="47.38676" lon="-0.47733">
        <ele>48.2</ele>
        <time>2023-07-19T14:08:45Z</time>
      </trkpt>
      <trkpt lat="47.38673" lon="-0.47735">
        <ele>48</ele>
        <time>2023-07-19T14:08:46Z</time>
      </trkpt>
      <trkpt lat="47.3867" lon="-0.47737">
        <ele>48</ele>
        <time>2023-07-19T14:08:47Z</time>
      </trkpt>
      <trkpt lat="47.38667" lon="-0.47739">
        <ele>48</ele>
        <time>2023-07-19T14:08:48Z</time>
      </trkpt>
      <trkpt lat="47.38662" lon="-0.47743">
        <ele>48</ele>
        <time>2023-07-19T14:08:50Z</time>
      </trkpt>
      <trkpt lat="47.38659" lon="-0.47745">
        <ele>48</ele>
        <time>2023-07-19T14:08:51Z</time>
      </trkpt>
      <trkpt lat="47.38656" lon="-0.47747">
        <ele>48</ele>
        <time>2023-07-19T14:08:52Z</time>
      </trkpt>
      <trkpt lat="47.38653" lon="-0.47748">
        <ele>48</ele>
        <time>2023-07-19T14:08:53Z</time>
      </trkpt>
      <trkpt lat="47.3865" lon="-0.4775">
        <ele>48</ele>
        <time>2023-07-19T14:08:54Z</time>
      </trkpt>
      <trkpt lat="47.38644" lon="-0.47753">
        <ele>48</ele>
        <time>2023-07-19T14:08:56Z</time>
      </trkpt>
      <trkpt lat="47.38641" lon="-0.47755">
        <ele>48.2</ele>
        <time>2023-07-19T14:08:57Z</time>
      </trkpt>
      <trkpt lat="47.38639" lon="-0.47757">
        <ele>48.2</ele>
        <time>2023-07-19T14:08:58Z</time>
      </trkpt>
      <trkpt lat="47.38636" lon="-0.47759">
        <ele>48.2</ele>
        <time>2023-07-19T14:08:59Z</time>
      </trkpt>
      <trkpt lat="47.38633" lon="-0.47761">
        <ele>48.2</ele>
        <time>2023-07-19T14:09:00Z</time>
      </trkpt>
      <trkpt lat="47.38631" lon="-0.47763">
        <ele>48.4</ele>
        <time>2023-07-19T14:09:01Z</time>
      </trkpt>
      <trkpt lat="47.38628" lon="-0.47765">
        <ele>48.4</ele>
        <time>2023-07-19T14:09:02Z</time>
      </trkpt>
      <trkpt lat="47.38626" lon="-0.47767">
        <ele>48.4</ele>
        <time>2023-07-19T14:09:03Z</time>
      </trkpt>
      <trkpt lat="47.38623" lon="-0.47769">
        <ele>48.4</ele>
        <time>2023-07-19T14:09:04Z</time>
      </trkpt>
      <trkpt lat="47.38621" lon="-0.47771">
        <ele>48.6</ele>
        <time>2023-07-19T14:09:05Z</time>
      </trkpt>
      <trkpt lat="47.38618" lon="-0.47773">
        <ele>48.6</ele>
        <time>2023-07-19T14:09:06Z</time>
      </trkpt>
      <trkpt lat="47.38613" lon="-0.47777">
        <ele>48.6</ele>
        <time>2023-07-19T14:09:08Z</time>
      </trkpt>
      <trkpt lat="47.38608" lon="-0.47781">
        <ele>49</ele>
        <time>2023-07-19T14:09:10Z</time>
      </trkpt>
      <trkpt lat="47.38595" lon="-0.47789">
        <ele>49.2</ele>
        <time>2023-07-19T14:09:15Z</time>
      </trkpt>
      <trkpt lat="47.38592" lon="-0.47789">
        <ele>49.2</ele>
        <time>2023-07-19T14:09:16Z</time>
      </trkpt>
      <trkpt lat="47.3859" lon="-0.47788">
        <ele>49.4</ele>
        <time>2023-07-19T14:09:17Z</time>
      </trkpt>
      <trkpt lat="47.38588" lon="-0.47785">
        <ele>49.4</ele>
        <time>2023-07-19T14:09:18Z</time>
      </trkpt>
      <trkpt lat="47.38587" lon="-0.47782">
        <ele>49.4</ele>
        <time>2023-07-19T14:09:19Z</time>
      </trkpt>
      <trkpt lat="47.38585" lon="-0.4778">
        <ele>49.4</ele>
        <time>2023-07-19T14:09:20Z</time>
      </trkpt>
      <trkpt lat="47.38584" lon="-0.47777">
        <ele>49.4</ele>
        <time>2023-07-19T14:09:21Z</time>
      </trkpt>
      <trkpt lat="47.38583" lon="-0.47774">
        <ele>49.6</ele>
        <time>2023-07-19T14:09:22Z</time>
      </trkpt>
      <trkpt lat="47.38582" lon="-0.47771">
        <ele>49.6</ele>
        <time>2023-07-19T14:09:23Z</time>
      </trkpt>
      <trkpt lat="47.38581" lon="-0.47768">
        <ele>49.6</ele>
        <time>2023-07-19T14:09:24Z</time>
      </trkpt>
      <trkpt lat="47.3858" lon="-0.47765">
        <ele>49.6</ele>
        <time>2023-07-19T14:09:25Z</time>
      </trkpt>
      <trkpt lat="47.38579" lon="-0.47762">
        <ele>49.8</ele>
        <time>2023-07-19T14:09:26Z</time>
      </trkpt>
      <trkpt lat="47.38578" lon="-0.47759">
        <ele>49.8</ele>
        <time>2023-07-19T14:09:27Z</time>
      </trkpt>
      <trkpt lat="47.38576" lon="-0.47756">
        <ele>50.2</ele>
        <time>2023-07-19T14:09:28Z</time>
      </trkpt>
      <trkpt lat="47.38576" lon="-0.47753">
        <ele>50.6</ele>
        <time>2023-07-19T14:09:29Z</time>
      </trkpt>
      <trkpt lat="47.38575" lon="-0.4775">
        <ele>50.8</ele>
        <time>2023-07-19T14:09:30Z</time>
      </trkpt>
      <trkpt lat="47.38574" lon="-0.47747">
        <ele>51</ele>
        <time>2023-07-19T14:09:31Z</time>
      </trkpt>
      <trkpt lat="47.38571" lon="-0.47738">
        <ele>51</ele>
        <time>2023-07-19T14:09:34Z</time>
      </trkpt>
      <trkpt lat="47.38567" lon="-0.47728">
        <ele>51.2</ele>
        <time>2023-07-19T14:09:37Z</time>
      </trkpt>
      <trkpt lat="47.3856" lon="-0.47713">
        <ele>51.4</ele>
        <time>2023-07-19T14:09:41Z</time>
      </trkpt>
      <trkpt lat="47.38551" lon="-0.47694">
        <ele>51.4</ele>
        <time>2023-07-19T14:09:46Z</time>
      </trkpt>
      <trkpt lat="47.38536" lon="-0.47654">
        <ele>51.4</ele>
        <time>2023-07-19T14:09:56Z</time>
      </trkpt>
      <trkpt lat="47.38519" lon="-0.47611">
        <ele>52</ele>
        <time>2023-07-19T14:10:07Z</time>
      </trkpt>
      <trkpt lat="47.38518" lon="-0.47609">
        <ele>52</ele>
        <time>2023-07-19T14:10:08Z</time>
      </trkpt>
      <trkpt lat="47.38518" lon="-0.47608">
        <ele>52</ele>
        <time>2023-07-19T14:10:09Z</time>
      </trkpt>
      <trkpt lat="47.38518" lon="-0.47608">
        <ele>52</ele>
        <time>2023-07-19T14:10:10Z</time>
      </trkpt>
      <trkpt lat="47.38517" lon="-0.47608">
        <ele>52</ele>
        <time>2023-07-19T14:10:11Z</time>
      </trkpt>
      <trkpt lat="47.38513" lon="-0.47599">
        <ele>52</ele>
        <time>2023-07-19T14:10:51Z</time>
      </trkpt>
      <trkpt lat="47.3851" lon="-0.4759">
        <ele>52</ele>
        <time>2023-07-19T14:10:54Z</time>
      </trkpt>
      <trkpt lat="47.38499" lon="-0.47565">
        <ele>52</ele>
        <time>2023-07-19T14:11:00Z</time>
      </trkpt>
      <trkpt lat="47.38497" lon="-0.47561">
        <ele>52</ele>
        <time>2023-07-19T14:11:01Z</time>
      </trkpt>
      <trkpt lat="47.38485" lon="-0.47527">
        <ele>52</ele>
        <time>2023-07-19T14:11:08Z</time>
      </trkpt>
      <trkpt lat="47.38471" lon="-0.47489">
        <ele>52.2</ele>
        <time>2023-07-19T14:11:16Z</time>
      </trkpt>
      <trkpt lat="47.3845" lon="-0.47439">
        <ele>52.2</ele>
        <time>2023-07-19T14:11:26Z</time>
      </trkpt>
      <trkpt lat="47.38431" lon="-0.47397">
        <ele>52.4</ele>
        <time>2023-07-19T14:11:34Z</time>
      </trkpt>
      <trkpt lat="47.38423" lon="-0.47381">
        <ele>52.4</ele>
        <time>2023-07-19T14:11:37Z</time>
      </trkpt>
      <trkpt lat="47.38408" lon="-0.4735">
        <ele>52.4</ele>
        <time>2023-07-19T14:11:43Z</time>
      </trkpt>
      <trkpt lat="47.38398" lon="-0.4733">
        <ele>52.4</ele>
        <time>2023-07-19T14:11:47Z</time>
      </trkpt>
      <trkpt lat="47.38396" lon="-0.47326">
        <ele>52.4</ele>
        <time>2023-07-19T14:11:48Z</time>
      </trkpt>
      <trkpt lat="47.38395" lon="-0.47324">
        <ele>52.4</ele>
        <time>2023-07-19T14:11:49Z</time>
      </trkpt>
      <trkpt lat="47.38394" lon="-0.47322">
        <ele>52.4</ele>
        <time>2023-07-19T14:11:50Z</time>
      </trkpt>
      <trkpt lat="47.38394" lon="-0.47322">
        <ele>52.4</ele>
        <time>2023-07-19T14:11:51Z</time>
      </trkpt>
      <trkpt lat="47.38394" lon="-0.47322">
        <ele>52.6</ele>
        <time>2023-07-19T14:11:53Z</time>
      </trkpt>
      <trkpt lat="47.38392" lon="-0.47317">
        <ele>53</ele>
        <time>2023-07-19T14:12:53Z</time>
      </trkpt>
      <trkpt lat="47.38391" lon="-0.47316">
        <ele>52.8</ele>
        <time>2023-07-19T14:12:54Z</time>
      </trkpt>
      <trkpt lat="47.38386" lon="-0.47303">
        <ele>52.8</ele>
        <time>2023-07-19T14:12:59Z</time>
      </trkpt>
      <trkpt lat="47.38378" lon="-0.47286">
        <ele>53</ele>
        <time>2023-07-19T14:13:04Z</time>
      </trkpt>
      <trkpt lat="47.38362" lon="-0.47259">
        <ele>53</ele>
        <time>2023-07-19T14:13:11Z</time>
      </trkpt>
      <trkpt lat="47.38341" lon="-0.47224">
        <ele>53</ele>
        <time>2023-07-19T14:13:20Z</time>
      </trkpt>
      <trkpt lat="47.38323" lon="-0.4719">
        <ele>53.2</ele>
        <time>2023-07-19T14:13:27Z</time>
      </trkpt>
      <trkpt lat="47.38309" lon="-0.47163">
        <ele>53.2</ele>
        <time>2023-07-19T14:13:33Z</time>
      </trkpt>
      <trkpt lat="47.38303" lon="-0.47156">
        <ele>53.2</ele>
        <time>2023-07-19T14:13:35Z</time>
      </trkpt>
      <trkpt lat="47.38301" lon="-0.47152">
        <ele>53.2</ele>
        <time>2023-07-19T14:13:36Z</time>
      </trkpt>
      <trkpt lat="47.38299" lon="-0.47148">
        <ele>53.2</ele>
        <time>2023-07-19T14:13:37Z</time>
      </trkpt>
      <trkpt lat="47.38294" lon="-0.4714">
        <ele>53.2</ele>
        <time>2023-07-19T14:13:39Z</time>
      </trkpt>
      <trkpt lat="47.38289" lon="-0.47133">
        <ele>53.4</ele>
        <time>2023-07-19T14:13:41Z</time>
      </trkpt>
      <trkpt lat="47.38287" lon="-0.47128">
        <ele>53.4</ele>
        <time>2023-07-19T14:13:42Z</time>
      </trkpt>
      <trkpt lat="47.38277" lon="-0.4711">
        <ele>53.6</ele>
        <time>2023-07-19T14:13:46Z</time>
      </trkpt>
      <trkpt lat="47.38272" lon="-0.47102">
        <ele>53.6</ele>
        <time>2023-07-19T14:13:48Z</time>
      </trkpt>
      <trkpt lat="47.3827" lon="-0.47098">
        <ele>53.6</ele>
        <time>2023-07-19T14:13:49Z</time>
      </trkpt>
      <trkpt lat="47.38265" lon="-0.47089">
        <ele>53.8</ele>
        <time>2023-07-19T14:13:51Z</time>
      </trkpt>
      <trkpt lat="47.38263" lon="-0.47085">
        <ele>53.8</ele>
        <time>2023-07-19T14:13:52Z</time>
      </trkpt>
      <trkpt lat="47.38261" lon="-0.47081">
        <ele>53.8</ele>
        <time>2023-07-19T14:13:53Z</time>
      </trkpt>
      <trkpt lat="47.38252" lon="-0.47062">
        <ele>53.8</ele>
        <time>2023-07-19T14:13:57Z</time>
      </trkpt>
      <trkpt lat="47.38246" lon="-0.47049">
        <ele>54</ele>
        <time>2023-07-19T14:14:00Z</time>
      </trkpt>
      <trkpt lat="47.38236" lon="-0.47029">
        <ele>54.2</ele>
        <time>2023-07-19T14:14:04Z</time>
      </trkpt>
      <trkpt lat="47.38218" lon="-0.46998">
        <ele>54.4</ele>
        <time>2023-07-19T14:14:11Z</time>
      </trkpt>
      <trkpt lat="47.38215" lon="-0.46994">
        <ele>54.4</ele>
        <time>2023-07-19T14:14:12Z</time>
      </trkpt>
      <trkpt lat="47.38192" lon="-0.46954">
        <ele>54.8</ele>
        <time>2023-07-19T14:14:21Z</time>
      </trkpt>
      <trkpt lat="47.38166" lon="-0.46908">
        <ele>55.4</ele>
        <time>2023-07-19T14:14:31Z</time>
      </trkpt>
      <trkpt lat="47.38164" lon="-0.46903">
        <ele>55.6</ele>
        <time>2023-07-19T14:14:32Z</time>
      </trkpt>
      <trkpt lat="47.38137" lon="-0.46856">
        <ele>56</ele>
        <time>2023-07-19T14:14:42Z</time>
      </trkpt>
      <trkpt lat="47.38119" lon="-0.46824">
        <ele>56.2</ele>
        <time>2023-07-19T14:14:49Z</time>
      </trkpt>
      <trkpt lat="47.38117" lon="-0.4682">
        <ele>56.2</ele>
        <time>2023-07-19T14:14:50Z</time>
      </trkpt>
      <trkpt lat="47.38115" lon="-0.46815">
        <ele>56.2</ele>
        <time>2023-07-19T14:14:51Z</time>
      </trkpt>
      <trkpt lat="47.38113" lon="-0.4681">
        <ele>56.2</ele>
        <time>2023-07-19T14:14:52Z</time>
      </trkpt>
      <trkpt lat="47.38111" lon="-0.46806">
        <ele>56.4</ele>
        <time>2023-07-19T14:14:53Z</time>
      </trkpt>
      <trkpt lat="47.38109" lon="-0.46802">
        <ele>56.4</ele>
        <time>2023-07-19T14:14:54Z</time>
      </trkpt>
      <trkpt lat="47.38107" lon="-0.46799">
        <ele>56.4</ele>
        <time>2023-07-19T14:14:55Z</time>
      </trkpt>
      <trkpt lat="47.38105" lon="-0.46795">
        <ele>56.4</ele>
        <time>2023-07-19T14:14:56Z</time>
      </trkpt>
      <trkpt lat="47.38103" lon="-0.46791">
        <ele>56.4</ele>
        <time>2023-07-19T14:14:57Z</time>
      </trkpt>
      <trkpt lat="47.38102" lon="-0.46788">
        <ele>56.4</ele>
        <time>2023-07-19T14:14:58Z</time>
      </trkpt>
      <trkpt lat="47.381" lon="-0.46785">
        <ele>56.6</ele>
        <time>2023-07-19T14:14:59Z</time>
      </trkpt>
      <trkpt lat="47.38098" lon="-0.46782">
        <ele>56.6</ele>
        <time>2023-07-19T14:15:00Z</time>
      </trkpt>
      <trkpt lat="47.38096" lon="-0.46778">
        <ele>56.6</ele>
        <time>2023-07-19T14:15:01Z</time>
      </trkpt>
      <trkpt lat="47.38093" lon="-0.46774">
        <ele>56.6</ele>
        <time>2023-07-19T14:15:02Z</time>
      </trkpt>
      <trkpt lat="47.38078" lon="-0.46746">
        <ele>56.8</ele>
        <time>2023-07-19T14:15:09Z</time>
      </trkpt>
      <trkpt lat="47.38074" lon="-0.46739">
        <ele>56.8</ele>
        <time>2023-07-19T14:15:11Z</time>
      </trkpt>
      <trkpt lat="47.38051" lon="-0.46701">
        <ele>57</ele>
        <time>2023-07-19T14:15:21Z</time>
      </trkpt>
      <trkpt lat="47.38025" lon="-0.46656">
        <ele>57.2</ele>
        <time>2023-07-19T14:15:32Z</time>
      </trkpt>
      <trkpt lat="47.38012" lon="-0.46634">
        <ele>57.4</ele>
        <time>2023-07-19T14:15:38Z</time>
      </trkpt>
      <trkpt lat="47.3801" lon="-0.4663">
        <ele>57.4</ele>
        <time>2023-07-19T14:15:39Z</time>
      </trkpt>
      <trkpt lat="47.38008" lon="-0.46626">
        <ele>57.4</ele>
        <time>2023-07-19T14:15:40Z</time>
      </trkpt>
      <trkpt lat="47.38006" lon="-0.46623">
        <ele>57.6</ele>
        <time>2023-07-19T14:15:41Z</time>
      </trkpt>
      <trkpt lat="47.38004" lon="-0.46619">
        <ele>57.6</ele>
        <time>2023-07-19T14:15:42Z</time>
      </trkpt>
      <trkpt lat="47.38002" lon="-0.46616">
        <ele>57.6</ele>
        <time>2023-07-19T14:15:43Z</time>
      </trkpt>
      <trkpt lat="47.38" lon="-0.46612">
        <ele>57.8</ele>
        <time>2023-07-19T14:15:44Z</time>
      </trkpt>
      <trkpt lat="47.37989" lon="-0.46591">
        <ele>58</ele>
        <time>2023-07-19T14:15:49Z</time>
      </trkpt>
      <trkpt lat="47.37976" lon="-0.4657">
        <ele>58.2</ele>
        <time>2023-07-19T14:15:54Z</time>
      </trkpt>
      <trkpt lat="47.37973" lon="-0.46565">
        <ele>58.2</ele>
        <time>2023-07-19T14:15:55Z</time>
      </trkpt>
      <trkpt lat="47.37963" lon="-0.46544">
        <ele>58.2</ele>
        <time>2023-07-19T14:16:00Z</time>
      </trkpt>
      <trkpt lat="47.37961" lon="-0.4654">
        <ele>58.2</ele>
        <time>2023-07-19T14:16:01Z</time>
      </trkpt>
      <trkpt lat="47.37959" lon="-0.46536">
        <ele>58.2</ele>
        <time>2023-07-19T14:16:02Z</time>
      </trkpt>
      <trkpt lat="47.37956" lon="-0.46533">
        <ele>58</ele>
        <time>2023-07-19T14:16:03Z</time>
      </trkpt>
      <trkpt lat="47.37954" lon="-0.46529">
        <ele>58</ele>
        <time>2023-07-19T14:16:04Z</time>
      </trkpt>
      <trkpt lat="47.37952" lon="-0.46526">
        <ele>58</ele>
        <time>2023-07-19T14:16:05Z</time>
      </trkpt>
      <trkpt lat="47.3795" lon="-0.46522">
        <ele>58</ele>
        <time>2023-07-19T14:16:06Z</time>
      </trkpt>
      <trkpt lat="47.37948" lon="-0.46518">
        <ele>58</ele>
        <time>2023-07-19T14:16:07Z</time>
      </trkpt>
      <trkpt lat="47.37946" lon="-0.46515">
        <ele>58</ele>
        <time>2023-07-19T14:16:08Z</time>
      </trkpt>
      <trkpt lat="47.37944" lon="-0.46512">
        <ele>58</ele>
        <time>2023-07-19T14:16:09Z</time>
      </trkpt>
      <trkpt lat="47.37941" lon="-0.46505">
        <ele>58</ele>
        <time>2023-07-19T14:16:11Z</time>
      </trkpt>
      <trkpt lat="47.37928" lon="-0.46484">
        <ele>58</ele>
        <time>2023-07-19T14:16:17Z</time>
      </trkpt>
      <trkpt lat="47.3791" lon="-0.46449">
        <ele>58.2</ele>
        <time>2023-07-19T14:16:25Z</time>
      </trkpt>
      <trkpt lat="47.37893" lon="-0.46419">
        <ele>58.2</ele>
        <time>2023-07-19T14:16:32Z</time>
      </trkpt>
      <trkpt lat="47.37888" lon="-0.4641">
        <ele>58.2</ele>
        <time>2023-07-19T14:16:34Z</time>
      </trkpt>
      <trkpt lat="47.37881" lon="-0.46397">
        <ele>58.4</ele>
        <time>2023-07-19T14:16:37Z</time>
      </trkpt>
      <trkpt lat="47.37858" lon="-0.46357">
        <ele>58.8</ele>
        <time>2023-07-19T14:16:46Z</time>
      </trkpt>
      <trkpt lat="47.3784" lon="-0.46323">
        <ele>58.8</ele>
        <time>2023-07-19T14:16:53Z</time>
      </trkpt>
      <trkpt lat="47.37837" lon="-0.46319">
        <ele>58.8</ele>
        <time>2023-07-19T14:16:54Z</time>
      </trkpt>
      <trkpt lat="47.37835" lon="-0.46316">
        <ele>58.8</ele>
        <time>2023-07-19T14:16:55Z</time>
      </trkpt>
      <trkpt lat="47.37832" lon="-0.46311">
        <ele>58.6</ele>
        <time>2023-07-19T14:16:56Z</time>
      </trkpt>
      <trkpt lat="47.37831" lon="-0.46307">
        <ele>58.6</ele>
        <time>2023-07-19T14:16:57Z</time>
      </trkpt>
      <trkpt lat="47.37829" lon="-0.46303">
        <ele>58.6</ele>
        <time>2023-07-19T14:16:58Z</time>
      </trkpt>
      <trkpt lat="47.37827" lon="-0.463">
        <ele>58.6</ele>
        <time>2023-07-19T14:16:59Z</time>
      </trkpt>
      <trkpt lat="47.37825" lon="-0.46296">
        <ele>58.6</ele>
        <time>2023-07-19T14:17:00Z</time>
      </trkpt>
      <trkpt lat="47.37823" lon="-0.46293">
        <ele>58.6</ele>
        <time>2023-07-19T14:17:01Z</time>
      </trkpt>
      <trkpt lat="47.37822" lon="-0.4629">
        <ele>58.6</ele>
        <time>2023-07-19T14:17:02Z</time>
      </trkpt>
      <trkpt lat="47.3782" lon="-0.46286">
        <ele>58.6</ele>
        <time>2023-07-19T14:17:03Z</time>
      </trkpt>
      <trkpt lat="47.37818" lon="-0.46283">
        <ele>58.6</ele>
        <time>2023-07-19T14:17:04Z</time>
      </trkpt>
      <trkpt lat="47.37816" lon="-0.4628">
        <ele>58.6</ele>
        <time>2023-07-19T14:17:05Z</time>
      </trkpt>
      <trkpt lat="47.37814" lon="-0.46277">
        <ele>58.6</ele>
        <time>2023-07-19T14:17:06Z</time>
      </trkpt>
      <trkpt lat="47.37812" lon="-0.46274">
        <ele>58.6</ele>
        <time>2023-07-19T14:17:07Z</time>
      </trkpt>
      <trkpt lat="47.3781" lon="-0.46271">
        <ele>58.6</ele>
        <time>2023-07-19T14:17:08Z</time>
      </trkpt>
      <trkpt lat="47.37809" lon="-0.46269">
        <ele>58.6</ele>
        <time>2023-07-19T14:17:09Z</time>
      </trkpt>
      <trkpt lat="47.37807" lon="-0.46266">
        <ele>58.8</ele>
        <time>2023-07-19T14:17:10Z</time>
      </trkpt>
      <trkpt lat="47.37806" lon="-0.46264">
        <ele>58.8</ele>
        <time>2023-07-19T14:17:11Z</time>
      </trkpt>
      <trkpt lat="47.37804" lon="-0.46262">
        <ele>58.8</ele>
        <time>2023-07-19T14:17:12Z</time>
      </trkpt>
      <trkpt lat="47.37803" lon="-0.4626">
        <ele>58.8</ele>
        <time>2023-07-19T14:17:13Z</time>
      </trkpt>
      <trkpt lat="47.37802" lon="-0.46259">
        <ele>58.8</ele>
        <time>2023-07-19T14:17:14Z</time>
      </trkpt>
      <trkpt lat="47.37801" lon="-0.46258">
        <ele>59</ele>
        <time>2023-07-19T14:17:15Z</time>
      </trkpt>
      <trkpt lat="47.37801" lon="-0.46258">
        <ele>59</ele>
        <time>2023-07-19T14:17:16Z</time>
      </trkpt>
      <trkpt lat="47.37797" lon="-0.46256">
        <ele>59.4</ele>
        <time>2023-07-19T14:20:12Z</time>
      </trkpt>
      <trkpt lat="47.37794" lon="-0.46252">
        <ele>59.4</ele>
        <time>2023-07-19T14:20:14Z</time>
      </trkpt>
      <trkpt lat="47.37792" lon="-0.46248">
        <ele>59.2</ele>
        <time>2023-07-19T14:20:15Z</time>
      </trkpt>
      <trkpt lat="47.37791" lon="-0.46245">
        <ele>59.2</ele>
        <time>2023-07-19T14:20:16Z</time>
      </trkpt>
      <trkpt lat="47.3779" lon="-0.46241">
        <ele>59.2</ele>
        <time>2023-07-19T14:20:17Z</time>
      </trkpt>
      <trkpt lat="47.37787" lon="-0.46234">
        <ele>59.2</ele>
        <time>2023-07-19T14:20:19Z</time>
      </trkpt>
      <trkpt lat="47.37786" lon="-0.46231">
        <ele>59.2</ele>
        <time>2023-07-19T14:20:20Z</time>
      </trkpt>
      <trkpt lat="47.37766" lon="-0.46205">
        <ele>59.2</ele>
        <time>2023-07-19T14:20:29Z</time>
      </trkpt>
      <trkpt lat="47.3776" lon="-0.46196">
        <ele>59.6</ele>
        <time>2023-07-19T14:20:32Z</time>
      </trkpt>
      <trkpt lat="47.37753" lon="-0.46188">
        <ele>59.8</ele>
        <time>2023-07-19T14:20:35Z</time>
      </trkpt>
      <trkpt lat="47.37751" lon="-0.46186">
        <ele>60</ele>
        <time>2023-07-19T14:20:36Z</time>
      </trkpt>
      <trkpt lat="47.37749" lon="-0.46184">
        <ele>60.4</ele>
        <time>2023-07-19T14:20:37Z</time>
      </trkpt>
      <trkpt lat="47.37747" lon="-0.46182">
        <ele>60.6</ele>
        <time>2023-07-19T14:20:38Z</time>
      </trkpt>
      <trkpt lat="47.37746" lon="-0.4618">
        <ele>60.6</ele>
        <time>2023-07-19T14:20:39Z</time>
      </trkpt>
      <trkpt lat="47.37745" lon="-0.46178">
        <ele>60.8</ele>
        <time>2023-07-19T14:20:40Z</time>
      </trkpt>
      <trkpt lat="47.37742" lon="-0.46175">
        <ele>61</ele>
        <time>2023-07-19T14:20:42Z</time>
      </trkpt>
      <trkpt lat="47.37741" lon="-0.46174">
        <ele>61</ele>
        <time>2023-07-19T14:20:43Z</time>
      </trkpt>
      <trkpt lat="47.3774" lon="-0.46172">
        <ele>61</ele>
        <time>2023-07-19T14:20:44Z</time>
      </trkpt>
      <trkpt lat="47.37738" lon="-0.46169">
        <ele>61</ele>
        <time>2023-07-19T14:20:45Z</time>
      </trkpt>
      <trkpt lat="47.37736" lon="-0.46166">
        <ele>61.2</ele>
        <time>2023-07-19T14:20:46Z</time>
      </trkpt>
      <trkpt lat="47.37727" lon="-0.46155">
        <ele>61.8</ele>
        <time>2023-07-19T14:20:50Z</time>
      </trkpt>
      <trkpt lat="47.37722" lon="-0.46149">
        <ele>61.8</ele>
        <time>2023-07-19T14:20:52Z</time>
      </trkpt>
      <trkpt lat="47.3772" lon="-0.46147">
        <ele>62</ele>
        <time>2023-07-19T14:20:53Z</time>
      </trkpt>
      <trkpt lat="47.37695" lon="-0.46121">
        <ele>62</ele>
        <time>2023-07-19T14:21:03Z</time>
      </trkpt>
      <trkpt lat="47.37669" lon="-0.46095">
        <ele>62.2</ele>
        <time>2023-07-19T14:21:13Z</time>
      </trkpt>
      <trkpt lat="47.37636" lon="-0.46065">
        <ele>62.8</ele>
        <time>2023-07-19T14:21:25Z</time>
      </trkpt>
      <trkpt lat="47.37628" lon="-0.46058">
        <ele>63.4</ele>
        <time>2023-07-19T14:21:28Z</time>
      </trkpt>
      <trkpt lat="47.37623" lon="-0.46054">
        <ele>63.4</ele>
        <time>2023-07-19T14:21:30Z</time>
      </trkpt>
      <trkpt lat="47.37621" lon="-0.46051">
        <ele>63.6</ele>
        <time>2023-07-19T14:21:31Z</time>
      </trkpt>
      <trkpt lat="47.37619" lon="-0.46049">
        <ele>63.6</ele>
        <time>2023-07-19T14:21:32Z</time>
      </trkpt>
      <trkpt lat="47.37616" lon="-0.46047">
        <ele>63.8</ele>
        <time>2023-07-19T14:21:33Z</time>
      </trkpt>
      <trkpt lat="47.37613" lon="-0.46045">
        <ele>63.8</ele>
        <time>2023-07-19T14:21:34Z</time>
      </trkpt>
      <trkpt lat="47.37611" lon="-0.46043">
        <ele>63.8</ele>
        <time>2023-07-19T14:21:35Z</time>
      </trkpt>
      <trkpt lat="47.3759" lon="-0.46026">
        <ele>64.4</ele>
        <time>2023-07-19T14:21:43Z</time>
      </trkpt>
      <trkpt lat="47.37568" lon="-0.46007">
        <ele>64.4</ele>
        <time>2023-07-19T14:21:51Z</time>
      </trkpt>
      <trkpt lat="47.37544" lon="-0.45986">
        <ele>64.4</ele>
        <time>2023-07-19T14:22:00Z</time>
      </trkpt>
      <trkpt lat="47.37542" lon="-0.45984">
        <ele>64.4</ele>
        <time>2023-07-19T14:22:01Z</time>
      </trkpt>
      <trkpt lat="47.37539" lon="-0.45982">
        <ele>64.4</ele>
        <time>2023-07-19T14:22:02Z</time>
      </trkpt>
      <trkpt lat="47.37537" lon="-0.45979">
        <ele>64.6</ele>
        <time>2023-07-19T14:22:03Z</time>
      </trkpt>
      <trkpt lat="47.37534" lon="-0.45977">
        <ele>64.4</ele>
        <time>2023-07-19T14:22:04Z</time>
      </trkpt>
      <trkpt lat="47.37531" lon="-0.45975">
        <ele>64.4</ele>
        <time>2023-07-19T14:22:05Z</time>
      </trkpt>
      <trkpt lat="47.37529" lon="-0.45973">
        <ele>64.4</ele>
        <time>2023-07-19T14:22:06Z</time>
      </trkpt>
      <trkpt lat="47.37521" lon="-0.45966">
        <ele>64.6</ele>
        <time>2023-07-19T14:22:09Z</time>
      </trkpt>
      <trkpt lat="47.37518" lon="-0.45964">
        <ele>64.6</ele>
        <time>2023-07-19T14:22:10Z</time>
      </trkpt>
      <trkpt lat="47.37494" lon="-0.45943">
        <ele>64.8</ele>
        <time>2023-07-19T14:22:19Z</time>
      </trkpt>
      <trkpt lat="47.37488" lon="-0.45938">
        <ele>64.8</ele>
        <time>2023-07-19T14:22:21Z</time>
      </trkpt>
      <trkpt lat="47.37486" lon="-0.45936">
        <ele>64.8</ele>
        <time>2023-07-19T14:22:22Z</time>
      </trkpt>
      <trkpt lat="47.37478" lon="-0.45929">
        <ele>65</ele>
        <time>2023-07-19T14:22:25Z</time>
      </trkpt>
      <trkpt lat="47.37476" lon="-0.45927">
        <ele>65</ele>
        <time>2023-07-19T14:22:26Z</time>
      </trkpt>
      <trkpt lat="47.37473" lon="-0.45925">
        <ele>65</ele>
        <time>2023-07-19T14:22:27Z</time>
      </trkpt>
      <trkpt lat="47.3747" lon="-0.45923">
        <ele>65</ele>
        <time>2023-07-19T14:22:28Z</time>
      </trkpt>
      <trkpt lat="47.37465" lon="-0.45919">
        <ele>65</ele>
        <time>2023-07-19T14:22:30Z</time>
      </trkpt>
      <trkpt lat="47.37454" lon="-0.4591">
        <ele>65.2</ele>
        <time>2023-07-19T14:22:34Z</time>
      </trkpt>
      <trkpt lat="47.37452" lon="-0.45907">
        <ele>65.4</ele>
        <time>2023-07-19T14:22:35Z</time>
      </trkpt>
      <trkpt lat="47.37441" lon="-0.45899">
        <ele>65.6</ele>
        <time>2023-07-19T14:22:39Z</time>
      </trkpt>
      <trkpt lat="47.37414" lon="-0.45877">
        <ele>66</ele>
        <time>2023-07-19T14:22:49Z</time>
      </trkpt>
      <trkpt lat="47.3739" lon="-0.45856">
        <ele>66.4</ele>
        <time>2023-07-19T14:22:58Z</time>
      </trkpt>
      <trkpt lat="47.37387" lon="-0.45854">
        <ele>66.4</ele>
        <time>2023-07-19T14:22:59Z</time>
      </trkpt>
      <trkpt lat="47.37385" lon="-0.45852">
        <ele>66.6</ele>
        <time>2023-07-19T14:23:00Z</time>
      </trkpt>
      <trkpt lat="47.37382" lon="-0.4585">
        <ele>66.6</ele>
        <time>2023-07-19T14:23:01Z</time>
      </trkpt>
      <trkpt lat="47.3738" lon="-0.45847">
        <ele>66.8</ele>
        <time>2023-07-19T14:23:02Z</time>
      </trkpt>
      <trkpt lat="47.37377" lon="-0.45845">
        <ele>66.8</ele>
        <time>2023-07-19T14:23:03Z</time>
      </trkpt>
      <trkpt lat="47.37375" lon="-0.45843">
        <ele>66.8</ele>
        <time>2023-07-19T14:23:04Z</time>
      </trkpt>
      <trkpt lat="47.37372" lon="-0.4584">
        <ele>66.8</ele>
        <time>2023-07-19T14:23:05Z</time>
      </trkpt>
      <trkpt lat="47.37367" lon="-0.45835">
        <ele>67</ele>
        <time>2023-07-19T14:23:07Z</time>
      </trkpt>
      <trkpt lat="47.3735" lon="-0.45822">
        <ele>67.4</ele>
        <time>2023-07-19T14:23:13Z</time>
      </trkpt>
      <trkpt lat="47.37348" lon="-0.4582">
        <ele>67.6</ele>
        <time>2023-07-19T14:23:14Z</time>
      </trkpt>
      <trkpt lat="47.37343" lon="-0.45816">
        <ele>67.6</ele>
        <time>2023-07-19T14:23:16Z</time>
      </trkpt>
      <trkpt lat="47.3734" lon="-0.45813">
        <ele>67.8</ele>
        <time>2023-07-19T14:23:17Z</time>
      </trkpt>
      <trkpt lat="47.37337" lon="-0.45811">
        <ele>67.8</ele>
        <time>2023-07-19T14:23:18Z</time>
      </trkpt>
      <trkpt lat="47.37335" lon="-0.45809">
        <ele>67.8</ele>
        <time>2023-07-19T14:23:19Z</time>
      </trkpt>
      <trkpt lat="47.37332" lon="-0.45807">
        <ele>68</ele>
        <time>2023-07-19T14:23:20Z</time>
      </trkpt>
      <trkpt lat="47.3733" lon="-0.45804">
        <ele>68</ele>
        <time>2023-07-19T14:23:21Z</time>
      </trkpt>
      <trkpt lat="47.37327" lon="-0.45802">
        <ele>68</ele>
        <time>2023-07-19T14:23:22Z</time>
      </trkpt>
      <trkpt lat="47.37325" lon="-0.458">
        <ele>68</ele>
        <time>2023-07-19T14:23:23Z</time>
      </trkpt>
      <trkpt lat="47.3732" lon="-0.45796">
        <ele>68.2</ele>
        <time>2023-07-19T14:23:25Z</time>
      </trkpt>
      <trkpt lat="47.37314" lon="-0.45792">
        <ele>68.6</ele>
        <time>2023-07-19T14:23:27Z</time>
      </trkpt>
      <trkpt lat="47.37302" lon="-0.45782">
        <ele>69.2</ele>
        <time>2023-07-19T14:23:32Z</time>
      </trkpt>
      <trkpt lat="47.37295" lon="-0.45776">
        <ele>69.4</ele>
        <time>2023-07-19T14:23:35Z</time>
      </trkpt>
      <trkpt lat="47.37269" lon="-0.45752">
        <ele>69.4</ele>
        <time>2023-07-19T14:23:46Z</time>
      </trkpt>
      <trkpt lat="47.37264" lon="-0.45749">
        <ele>69.4</ele>
        <time>2023-07-19T14:23:48Z</time>
      </trkpt>
      <trkpt lat="47.37262" lon="-0.45747">
        <ele>69.4</ele>
        <time>2023-07-19T14:23:49Z</time>
      </trkpt>
      <trkpt lat="47.37259" lon="-0.45745">
        <ele>69.4</ele>
        <time>2023-07-19T14:23:50Z</time>
      </trkpt>
      <trkpt lat="47.37257" lon="-0.45743">
        <ele>69.6</ele>
        <time>2023-07-19T14:23:51Z</time>
      </trkpt>
      <trkpt lat="47.37252" lon="-0.45738">
        <ele>69.8</ele>
        <time>2023-07-19T14:23:53Z</time>
      </trkpt>
      <trkpt lat="47.3725" lon="-0.45736">
        <ele>69.8</ele>
        <time>2023-07-19T14:23:54Z</time>
      </trkpt>
      <trkpt lat="47.37246" lon="-0.45731">
        <ele>69.8</ele>
        <time>2023-07-19T14:23:56Z</time>
      </trkpt>
      <trkpt lat="47.37243" lon="-0.45728">
        <ele>70</ele>
        <time>2023-07-19T14:23:57Z</time>
      </trkpt>
      <trkpt lat="47.37224" lon="-0.45707">
        <ele>70</ele>
        <time>2023-07-19T14:24:05Z</time>
      </trkpt>
      <trkpt lat="47.37205" lon="-0.45682">
        <ele>70</ele>
        <time>2023-07-19T14:24:13Z</time>
      </trkpt>
      <trkpt lat="47.37191" lon="-0.45663">
        <ele>70.2</ele>
        <time>2023-07-19T14:24:19Z</time>
      </trkpt>
      <trkpt lat="47.37188" lon="-0.4566">
        <ele>70.2</ele>
        <time>2023-07-19T14:24:20Z</time>
      </trkpt>
      <trkpt lat="47.37186" lon="-0.45657">
        <ele>70.2</ele>
        <time>2023-07-19T14:24:21Z</time>
      </trkpt>
      <trkpt lat="47.37184" lon="-0.45653">
        <ele>70.2</ele>
        <time>2023-07-19T14:24:22Z</time>
      </trkpt>
      <trkpt lat="47.37183" lon="-0.45649">
        <ele>70.2</ele>
        <time>2023-07-19T14:24:23Z</time>
      </trkpt>
      <trkpt lat="47.37172" lon="-0.45633">
        <ele>70.4</ele>
        <time>2023-07-19T14:24:28Z</time>
      </trkpt>
      <trkpt lat="47.37162" lon="-0.45614">
        <ele>70.6</ele>
        <time>2023-07-19T14:24:33Z</time>
      </trkpt>
      <trkpt lat="47.37157" lon="-0.45606">
        <ele>70.8</ele>
        <time>2023-07-19T14:24:35Z</time>
      </trkpt>
      <trkpt lat="47.37144" lon="-0.45577">
        <ele>71</ele>
        <time>2023-07-19T14:24:42Z</time>
      </trkpt>
      <trkpt lat="47.37136" lon="-0.4556">
        <ele>71.2</ele>
        <time>2023-07-19T14:24:46Z</time>
      </trkpt>
      <trkpt lat="47.37123" lon="-0.45527">
        <ele>71.2</ele>
        <time>2023-07-19T14:24:53Z</time>
      </trkpt>
      <trkpt lat="47.37106" lon="-0.45477">
        <ele>71.2</ele>
        <time>2023-07-19T14:25:03Z</time>
      </trkpt>
      <trkpt lat="47.37094" lon="-0.4544">
        <ele>71</ele>
        <time>2023-07-19T14:25:10Z</time>
      </trkpt>
      <trkpt lat="47.37093" lon="-0.45435">
        <ele>71</ele>
        <time>2023-07-19T14:25:11Z</time>
      </trkpt>
      <trkpt lat="47.37092" lon="-0.4543">
        <ele>71</ele>
        <time>2023-07-19T14:25:12Z</time>
      </trkpt>
      <trkpt lat="47.37091" lon="-0.45425">
        <ele>71</ele>
        <time>2023-07-19T14:25:13Z</time>
      </trkpt>
      <trkpt lat="47.37089" lon="-0.4542">
        <ele>70.8</ele>
        <time>2023-07-19T14:25:14Z</time>
      </trkpt>
      <trkpt lat="47.37088" lon="-0.45415">
        <ele>70.6</ele>
        <time>2023-07-19T14:25:15Z</time>
      </trkpt>
      <trkpt lat="47.37087" lon="-0.45411">
        <ele>70.6</ele>
        <time>2023-07-19T14:25:16Z</time>
      </trkpt>
      <trkpt lat="47.37086" lon="-0.45406">
        <ele>70.6</ele>
        <time>2023-07-19T14:25:17Z</time>
      </trkpt>
      <trkpt lat="47.37084" lon="-0.454">
        <ele>70.4</ele>
        <time>2023-07-19T14:25:18Z</time>
      </trkpt>
      <trkpt lat="47.37076" lon="-0.45355">
        <ele>70.2</ele>
        <time>2023-07-19T14:25:26Z</time>
      </trkpt>
      <trkpt lat="47.37073" lon="-0.45342">
        <ele>70.2</ele>
        <time>2023-07-19T14:25:28Z</time>
      </trkpt>
      <trkpt lat="47.37071" lon="-0.45323">
        <ele>70</ele>
        <time>2023-07-19T14:25:31Z</time>
      </trkpt>
      <trkpt lat="47.37068" lon="-0.45305">
        <ele>69.8</ele>
        <time>2023-07-19T14:25:34Z</time>
      </trkpt>
      <trkpt lat="47.37066" lon="-0.45287">
        <ele>69.6</ele>
        <time>2023-07-19T14:25:37Z</time>
      </trkpt>
      <trkpt lat="47.37066" lon="-0.45281">
        <ele>69.4</ele>
        <time>2023-07-19T14:25:38Z</time>
      </trkpt>
      <trkpt lat="47.37065" lon="-0.45275">
        <ele>69.2</ele>
        <time>2023-07-19T14:25:39Z</time>
      </trkpt>
      <trkpt lat="47.37065" lon="-0.45269">
        <ele>69</ele>
        <time>2023-07-19T14:25:40Z</time>
      </trkpt>
      <trkpt lat="47.37064" lon="-0.45256">
        <ele>68.8</ele>
        <time>2023-07-19T14:25:42Z</time>
      </trkpt>
      <trkpt lat="47.37062" lon="-0.45214">
        <ele>68.2</ele>
        <time>2023-07-19T14:25:49Z</time>
      </trkpt>
      <trkpt lat="47.37062" lon="-0.45201">
        <ele>68</ele>
        <time>2023-07-19T14:25:51Z</time>
      </trkpt>
      <trkpt lat="47.37061" lon="-0.45178">
        <ele>67.6</ele>
        <time>2023-07-19T14:25:55Z</time>
      </trkpt>
      <trkpt lat="47.37063" lon="-0.45139">
        <ele>67.6</ele>
        <time>2023-07-19T14:26:01Z</time>
      </trkpt>
      <trkpt lat="47.37066" lon="-0.45095">
        <ele>67.2</ele>
        <time>2023-07-19T14:26:08Z</time>
      </trkpt>
      <trkpt lat="47.3707" lon="-0.45065">
        <ele>67</ele>
        <time>2023-07-19T14:26:13Z</time>
      </trkpt>
      <trkpt lat="47.37073" lon="-0.45041">
        <ele>67</ele>
        <time>2023-07-19T14:26:17Z</time>
      </trkpt>
      <trkpt lat="47.37074" lon="-0.45035">
        <ele>67</ele>
        <time>2023-07-19T14:26:18Z</time>
      </trkpt>
      <trkpt lat="47.37074" lon="-0.45029">
        <ele>67</ele>
        <time>2023-07-19T14:26:19Z</time>
      </trkpt>
      <trkpt lat="47.37077" lon="-0.45011">
        <ele>66.8</ele>
        <time>2023-07-19T14:26:22Z</time>
      </trkpt>
      <trkpt lat="47.37079" lon="-0.44994">
        <ele>66.6</ele>
        <time>2023-07-19T14:26:25Z</time>
      </trkpt>
      <trkpt lat="47.3708" lon="-0.44989">
        <ele>66.6</ele>
        <time>2023-07-19T14:26:26Z</time>
      </trkpt>
      <trkpt lat="47.37081" lon="-0.44984">
        <ele>66.6</ele>
        <time>2023-07-19T14:26:27Z</time>
      </trkpt>
      <trkpt lat="47.37082" lon="-0.44978">
        <ele>66.6</ele>
        <time>2023-07-19T14:26:28Z</time>
      </trkpt>
      <trkpt lat="47.37082" lon="-0.44973">
        <ele>66.6</ele>
        <time>2023-07-19T14:26:29Z</time>
      </trkpt>
      <trkpt lat="47.37083" lon="-0.44968">
        <ele>66.4</ele>
        <time>2023-07-19T14:26:30Z</time>
      </trkpt>
      <trkpt lat="47.37084" lon="-0.44963">
        <ele>66.4</ele>
        <time>2023-07-19T14:26:31Z</time>
      </trkpt>
      <trkpt lat="47.37084" lon="-0.44958">
        <ele>66.4</ele>
        <time>2023-07-19T14:26:32Z</time>
      </trkpt>
      <trkpt lat="47.37085" lon="-0.44953">
        <ele>66.4</ele>
        <time>2023-07-19T14:26:33Z</time>
      </trkpt>
      <trkpt lat="47.37086" lon="-0.44949">
        <ele>66.2</ele>
        <time>2023-07-19T14:26:34Z</time>
      </trkpt>
      <trkpt lat="47.37087" lon="-0.44944">
        <ele>66.2</ele>
        <time>2023-07-19T14:26:35Z</time>
      </trkpt>
      <trkpt lat="47.37087" lon="-0.44939">
        <ele>66.2</ele>
        <time>2023-07-19T14:26:36Z</time>
      </trkpt>
      <trkpt lat="47.37088" lon="-0.44934">
        <ele>66.2</ele>
        <time>2023-07-19T14:26:37Z</time>
      </trkpt>
      <trkpt lat="47.37089" lon="-0.44929">
        <ele>66.2</ele>
        <time>2023-07-19T14:26:38Z</time>
      </trkpt>
      <trkpt lat="47.37089" lon="-0.44925">
        <ele>66</ele>
        <time>2023-07-19T14:26:39Z</time>
      </trkpt>
      <trkpt lat="47.3709" lon="-0.4492">
        <ele>66</ele>
        <time>2023-07-19T14:26:40Z</time>
      </trkpt>
      <trkpt lat="47.3709" lon="-0.44917">
        <ele>66</ele>
        <time>2023-07-19T14:26:41Z</time>
      </trkpt>
      <trkpt lat="47.3709" lon="-0.44913">
        <ele>66</ele>
        <time>2023-07-19T14:26:42Z</time>
      </trkpt>
      <trkpt lat="47.37091" lon="-0.44909">
        <ele>66</ele>
        <time>2023-07-19T14:26:43Z</time>
      </trkpt>
      <trkpt lat="47.37092" lon="-0.44899">
        <ele>66</ele>
        <time>2023-07-19T14:26:45Z</time>
      </trkpt>
      <trkpt lat="47.37097" lon="-0.44871">
        <ele>65.8</ele>
        <time>2023-07-19T14:26:50Z</time>
      </trkpt>
      <trkpt lat="47.37097" lon="-0.4486">
        <ele>65.8</ele>
        <time>2023-07-19T14:26:52Z</time>
      </trkpt>
      <trkpt lat="47.37102" lon="-0.44822">
        <ele>65</ele>
        <time>2023-07-19T14:26:59Z</time>
      </trkpt>
      <trkpt lat="47.37103" lon="-0.44817">
        <ele>65</ele>
        <time>2023-07-19T14:27:00Z</time>
      </trkpt>
      <trkpt lat="47.37104" lon="-0.44812">
        <ele>64.8</ele>
        <time>2023-07-19T14:27:01Z</time>
      </trkpt>
      <trkpt lat="47.37105" lon="-0.44807">
        <ele>64.6</ele>
        <time>2023-07-19T14:27:02Z</time>
      </trkpt>
      <trkpt lat="47.37105" lon="-0.44802">
        <ele>64.6</ele>
        <time>2023-07-19T14:27:03Z</time>
      </trkpt>
      <trkpt lat="47.37108" lon="-0.44778">
        <ele>64.4</ele>
        <time>2023-07-19T14:27:07Z</time>
      </trkpt>
      <trkpt lat="47.37114" lon="-0.44736">
        <ele>64</ele>
        <time>2023-07-19T14:27:14Z</time>
      </trkpt>
      <trkpt lat="47.37116" lon="-0.44717">
        <ele>63.6</ele>
        <time>2023-07-19T14:27:17Z</time>
      </trkpt>
      <trkpt lat="47.37119" lon="-0.44686">
        <ele>63.2</ele>
        <time>2023-07-19T14:27:22Z</time>
      </trkpt>
      <trkpt lat="47.3712" lon="-0.44679">
        <ele>63</ele>
        <time>2023-07-19T14:27:23Z</time>
      </trkpt>
      <trkpt lat="47.37122" lon="-0.44648">
        <ele>62.6</ele>
        <time>2023-07-19T14:27:28Z</time>
      </trkpt>
      <trkpt lat="47.37123" lon="-0.4463">
        <ele>62.4</ele>
        <time>2023-07-19T14:27:31Z</time>
      </trkpt>
      <trkpt lat="47.37123" lon="-0.44624">
        <ele>62.4</ele>
        <time>2023-07-19T14:27:32Z</time>
      </trkpt>
      <trkpt lat="47.37123" lon="-0.44618">
        <ele>62.4</ele>
        <time>2023-07-19T14:27:33Z</time>
      </trkpt>
      <trkpt lat="47.37123" lon="-0.44606">
        <ele>62.2</ele>
        <time>2023-07-19T14:27:35Z</time>
      </trkpt>
      <trkpt lat="47.37123" lon="-0.44576">
        <ele>61.8</ele>
        <time>2023-07-19T14:27:40Z</time>
      </trkpt>
      <trkpt lat="47.37122" lon="-0.44565">
        <ele>61.8</ele>
        <time>2023-07-19T14:27:42Z</time>
      </trkpt>
      <trkpt lat="47.37122" lon="-0.44548">
        <ele>61.8</ele>
        <time>2023-07-19T14:27:45Z</time>
      </trkpt>
      <trkpt lat="47.37122" lon="-0.44543">
        <ele>61.8</ele>
        <time>2023-07-19T14:27:46Z</time>
      </trkpt>
      <trkpt lat="47.37122" lon="-0.44537">
        <ele>61.6</ele>
        <time>2023-07-19T14:27:47Z</time>
      </trkpt>
      <trkpt lat="47.37121" lon="-0.44532">
        <ele>61.6</ele>
        <time>2023-07-19T14:27:48Z</time>
      </trkpt>
      <trkpt lat="47.37121" lon="-0.44527">
        <ele>61.6</ele>
        <time>2023-07-19T14:27:49Z</time>
      </trkpt>
      <trkpt lat="47.3712" lon="-0.44521">
        <ele>61.6</ele>
        <time>2023-07-19T14:27:50Z</time>
      </trkpt>
      <trkpt lat="47.37114" lon="-0.44463">
        <ele>61.2</ele>
        <time>2023-07-19T14:27:59Z</time>
      </trkpt>
      <trkpt lat="47.37112" lon="-0.44451">
        <ele>61.2</ele>
        <time>2023-07-19T14:28:01Z</time>
      </trkpt>
      <trkpt lat="47.37107" lon="-0.44419">
        <ele>60.6</ele>
        <time>2023-07-19T14:28:06Z</time>
      </trkpt>
      <trkpt lat="47.37103" lon="-0.444">
        <ele>60.6</ele>
        <time>2023-07-19T14:28:09Z</time>
      </trkpt>
      <trkpt lat="47.371" lon="-0.44387">
        <ele>60.4</ele>
        <time>2023-07-19T14:28:11Z</time>
      </trkpt>
      <trkpt lat="47.37093" lon="-0.44363">
        <ele>60</ele>
        <time>2023-07-19T14:28:15Z</time>
      </trkpt>
      <trkpt lat="47.37088" lon="-0.44345">
        <ele>59.6</ele>
        <time>2023-07-19T14:28:18Z</time>
      </trkpt>
      <trkpt lat="47.37086" lon="-0.44339">
        <ele>59.4</ele>
        <time>2023-07-19T14:28:19Z</time>
      </trkpt>
      <trkpt lat="47.37085" lon="-0.44334">
        <ele>59.2</ele>
        <time>2023-07-19T14:28:20Z</time>
      </trkpt>
      <trkpt lat="47.37083" lon="-0.44328">
        <ele>59</ele>
        <time>2023-07-19T14:28:21Z</time>
      </trkpt>
      <trkpt lat="47.37082" lon="-0.44322">
        <ele>59</ele>
        <time>2023-07-19T14:28:22Z</time>
      </trkpt>
      <trkpt lat="47.37077" lon="-0.44307">
        <ele>58.8</ele>
        <time>2023-07-19T14:28:25Z</time>
      </trkpt>
      <trkpt lat="47.37075" lon="-0.44301">
        <ele>58.6</ele>
        <time>2023-07-19T14:28:26Z</time>
      </trkpt>
      <trkpt lat="47.37073" lon="-0.44295">
        <ele>58.6</ele>
        <time>2023-07-19T14:28:27Z</time>
      </trkpt>
      <trkpt lat="47.3707" lon="-0.4429">
        <ele>58.6</ele>
        <time>2023-07-19T14:28:28Z</time>
      </trkpt>
      <trkpt lat="47.37066" lon="-0.44278">
        <ele>58.4</ele>
        <time>2023-07-19T14:28:30Z</time>
      </trkpt>
      <trkpt lat="47.37049" lon="-0.44239">
        <ele>58.2</ele>
        <time>2023-07-19T14:28:37Z</time>
      </trkpt>
      <trkpt lat="47.37047" lon="-0.44234">
        <ele>58.2</ele>
        <time>2023-07-19T14:28:38Z</time>
      </trkpt>
      <trkpt lat="47.37041" lon="-0.44224">
        <ele>58</ele>
        <time>2023-07-19T14:28:40Z</time>
      </trkpt>
      <trkpt lat="47.37038" lon="-0.44219">
        <ele>58</ele>
        <time>2023-07-19T14:28:41Z</time>
      </trkpt>
      <trkpt lat="47.37035" lon="-0.44213">
        <ele>57.8</ele>
        <time>2023-07-19T14:28:42Z</time>
      </trkpt>
      <trkpt lat="47.37033" lon="-0.44208">
        <ele>57.8</ele>
        <time>2023-07-19T14:28:43Z</time>
      </trkpt>
      <trkpt lat="47.37015" lon="-0.44169">
        <ele>57.6</ele>
        <time>2023-07-19T14:28:50Z</time>
      </trkpt>
      <trkpt lat="47.37001" lon="-0.44137">
        <ele>57.6</ele>
        <time>2023-07-19T14:28:56Z</time>
      </trkpt>
      <trkpt lat="47.37" lon="-0.44132">
        <ele>57.4</ele>
        <time>2023-07-19T14:28:57Z</time>
      </trkpt>
      <trkpt lat="47.36998" lon="-0.44127">
        <ele>57.4</ele>
        <time>2023-07-19T14:28:58Z</time>
      </trkpt>
      <trkpt lat="47.36996" lon="-0.44122">
        <ele>57.6</ele>
        <time>2023-07-19T14:28:59Z</time>
      </trkpt>
      <trkpt lat="47.36993" lon="-0.44118">
        <ele>57.6</ele>
        <time>2023-07-19T14:29:00Z</time>
      </trkpt>
      <trkpt lat="47.36991" lon="-0.44115">
        <ele>57.4</ele>
        <time>2023-07-19T14:29:01Z</time>
      </trkpt>
      <trkpt lat="47.36989" lon="-0.44112">
        <ele>57.4</ele>
        <time>2023-07-19T14:29:02Z</time>
      </trkpt>
      <trkpt lat="47.36984" lon="-0.44103">
        <ele>57.4</ele>
        <time>2023-07-19T14:29:04Z</time>
      </trkpt>
      <trkpt lat="47.36962" lon="-0.44054">
        <ele>57</ele>
        <time>2023-07-19T14:29:13Z</time>
      </trkpt>
      <trkpt lat="47.36951" lon="-0.44034">
        <ele>56.6</ele>
        <time>2023-07-19T14:29:17Z</time>
      </trkpt>
      <trkpt lat="47.36937" lon="-0.44009">
        <ele>56.4</ele>
        <time>2023-07-19T14:29:22Z</time>
      </trkpt>
      <trkpt lat="47.36927" lon="-0.4399">
        <ele>56.2</ele>
        <time>2023-07-19T14:29:26Z</time>
      </trkpt>
      <trkpt lat="47.36924" lon="-0.43986">
        <ele>56.2</ele>
        <time>2023-07-19T14:29:27Z</time>
      </trkpt>
      <trkpt lat="47.36921" lon="-0.43983">
        <ele>56.2</ele>
        <time>2023-07-19T14:29:28Z</time>
      </trkpt>
      <trkpt lat="47.36918" lon="-0.43979">
        <ele>56.2</ele>
        <time>2023-07-19T14:29:29Z</time>
      </trkpt>
      <trkpt lat="47.36915" lon="-0.43975">
        <ele>56.2</ele>
        <time>2023-07-19T14:29:30Z</time>
      </trkpt>
      <trkpt lat="47.36913" lon="-0.43971">
        <ele>56.2</ele>
        <time>2023-07-19T14:29:31Z</time>
      </trkpt>
      <trkpt lat="47.3691" lon="-0.43967">
        <ele>56.2</ele>
        <time>2023-07-19T14:29:32Z</time>
      </trkpt>
      <trkpt lat="47.36901" lon="-0.43956">
        <ele>56</ele>
        <time>2023-07-19T14:29:35Z</time>
      </trkpt>
      <trkpt lat="47.36892" lon="-0.43945">
        <ele>55.6</ele>
        <time>2023-07-19T14:29:38Z</time>
      </trkpt>
      <trkpt lat="47.36877" lon="-0.43928">
        <ele>55.2</ele>
        <time>2023-07-19T14:29:43Z</time>
      </trkpt>
      <trkpt lat="47.36867" lon="-0.43919">
        <ele>55.2</ele>
        <time>2023-07-19T14:29:46Z</time>
      </trkpt>
      <trkpt lat="47.36864" lon="-0.43916">
        <ele>55.2</ele>
        <time>2023-07-19T14:29:47Z</time>
      </trkpt>
      <trkpt lat="47.36861" lon="-0.43913">
        <ele>55.2</ele>
        <time>2023-07-19T14:29:48Z</time>
      </trkpt>
      <trkpt lat="47.36855" lon="-0.43906">
        <ele>55.2</ele>
        <time>2023-07-19T14:29:50Z</time>
      </trkpt>
      <trkpt lat="47.36849" lon="-0.439">
        <ele>55.2</ele>
        <time>2023-07-19T14:29:52Z</time>
      </trkpt>
      <trkpt lat="47.36846" lon="-0.43897">
        <ele>55.2</ele>
        <time>2023-07-19T14:29:53Z</time>
      </trkpt>
      <trkpt lat="47.36843" lon="-0.43894">
        <ele>55.2</ele>
        <time>2023-07-19T14:29:54Z</time>
      </trkpt>
      <trkpt lat="47.3684" lon="-0.43891">
        <ele>55.2</ele>
        <time>2023-07-19T14:29:55Z</time>
      </trkpt>
      <trkpt lat="47.36834" lon="-0.43886">
        <ele>55.4</ele>
        <time>2023-07-19T14:29:57Z</time>
      </trkpt>
      <trkpt lat="47.36831" lon="-0.43884">
        <ele>55.4</ele>
        <time>2023-07-19T14:29:58Z</time>
      </trkpt>
      <trkpt lat="47.36827" lon="-0.43881">
        <ele>55.4</ele>
        <time>2023-07-19T14:29:59Z</time>
      </trkpt>
      <trkpt lat="47.36824" lon="-0.43878">
        <ele>55.4</ele>
        <time>2023-07-19T14:30:00Z</time>
      </trkpt>
      <trkpt lat="47.36822" lon="-0.43876">
        <ele>55.4</ele>
        <time>2023-07-19T14:30:01Z</time>
      </trkpt>
      <trkpt lat="47.36819" lon="-0.43873">
        <ele>55.4</ele>
        <time>2023-07-19T14:30:02Z</time>
      </trkpt>
      <trkpt lat="47.36815" lon="-0.43871">
        <ele>55.4</ele>
        <time>2023-07-19T14:30:03Z</time>
      </trkpt>
      <trkpt lat="47.36812" lon="-0.43868">
        <ele>55.4</ele>
        <time>2023-07-19T14:30:04Z</time>
      </trkpt>
      <trkpt lat="47.36803" lon="-0.43861">
        <ele>55.4</ele>
        <time>2023-07-19T14:30:07Z</time>
      </trkpt>
      <trkpt lat="47.368" lon="-0.43859">
        <ele>55.4</ele>
        <time>2023-07-19T14:30:08Z</time>
      </trkpt>
      <trkpt lat="47.36797" lon="-0.43857">
        <ele>55.4</ele>
        <time>2023-07-19T14:30:09Z</time>
      </trkpt>
      <trkpt lat="47.36794" lon="-0.43855">
        <ele>55.4</ele>
        <time>2023-07-19T14:30:10Z</time>
      </trkpt>
      <trkpt lat="47.36791" lon="-0.43853">
        <ele>55.4</ele>
        <time>2023-07-19T14:30:11Z</time>
      </trkpt>
      <trkpt lat="47.36788" lon="-0.43851">
        <ele>55.4</ele>
        <time>2023-07-19T14:30:12Z</time>
      </trkpt>
      <trkpt lat="47.36785" lon="-0.43849">
        <ele>55.4</ele>
        <time>2023-07-19T14:30:13Z</time>
      </trkpt>
      <trkpt lat="47.36783" lon="-0.43848">
        <ele>55.4</ele>
        <time>2023-07-19T14:30:14Z</time>
      </trkpt>
      <trkpt lat="47.3678" lon="-0.43846">
        <ele>55.4</ele>
        <time>2023-07-19T14:30:15Z</time>
      </trkpt>
      <trkpt lat="47.36777" lon="-0.43844">
        <ele>55.4</ele>
        <time>2023-07-19T14:30:16Z</time>
      </trkpt>
      <trkpt lat="47.36756" lon="-0.43832">
        <ele>55.6</ele>
        <time>2023-07-19T14:30:22Z</time>
      </trkpt>
      <trkpt lat="47.36722" lon="-0.43815">
        <ele>55.2</ele>
        <time>2023-07-19T14:30:31Z</time>
      </trkpt>
      <trkpt lat="47.36694" lon="-0.43802">
        <ele>55</ele>
        <time>2023-07-19T14:30:38Z</time>
      </trkpt>
      <trkpt lat="47.36686" lon="-0.43799">
        <ele>55</ele>
        <time>2023-07-19T14:30:40Z</time>
      </trkpt>
      <trkpt lat="47.36682" lon="-0.43797">
        <ele>55</ele>
        <time>2023-07-19T14:30:41Z</time>
      </trkpt>
      <trkpt lat="47.36678" lon="-0.43796">
        <ele>55</ele>
        <time>2023-07-19T14:30:42Z</time>
      </trkpt>
      <trkpt lat="47.36675" lon="-0.43794">
        <ele>55</ele>
        <time>2023-07-19T14:30:43Z</time>
      </trkpt>
      <trkpt lat="47.36672" lon="-0.43792">
        <ele>54.8</ele>
        <time>2023-07-19T14:30:44Z</time>
      </trkpt>
      <trkpt lat="47.36671" lon="-0.43789">
        <ele>55</ele>
        <time>2023-07-19T14:30:45Z</time>
      </trkpt>
      <trkpt lat="47.36669" lon="-0.43785">
        <ele>55</ele>
        <time>2023-07-19T14:30:46Z</time>
      </trkpt>
      <trkpt lat="47.36669" lon="-0.43782">
        <ele>55</ele>
        <time>2023-07-19T14:30:47Z</time>
      </trkpt>
      <trkpt lat="47.36671" lon="-0.4378">
        <ele>55</ele>
        <time>2023-07-19T14:30:48Z</time>
      </trkpt>
      <trkpt lat="47.36678" lon="-0.43776">
        <ele>55</ele>
        <time>2023-07-19T14:30:51Z</time>
      </trkpt>
      <trkpt lat="47.3668" lon="-0.43775">
        <ele>55</ele>
        <time>2023-07-19T14:30:52Z</time>
      </trkpt>
      <trkpt lat="47.36682" lon="-0.43774">
        <ele>55.2</ele>
        <time>2023-07-19T14:30:53Z</time>
      </trkpt>
      <trkpt lat="47.36684" lon="-0.43773">
        <ele>55.2</ele>
        <time>2023-07-19T14:30:54Z</time>
      </trkpt>
      <trkpt lat="47.36686" lon="-0.43772">
        <ele>55.4</ele>
        <time>2023-07-19T14:30:55Z</time>
      </trkpt>
      <trkpt lat="47.36688" lon="-0.43771">
        <ele>55.4</ele>
        <time>2023-07-19T14:30:56Z</time>
      </trkpt>
      <trkpt lat="47.3669" lon="-0.4377">
        <ele>55.4</ele>
        <time>2023-07-19T14:30:57Z</time>
      </trkpt>
      <trkpt lat="47.36692" lon="-0.43769">
        <ele>55.6</ele>
        <time>2023-07-19T14:30:58Z</time>
      </trkpt>
      <trkpt lat="47.36693" lon="-0.43768">
        <ele>55.6</ele>
        <time>2023-07-19T14:30:59Z</time>
      </trkpt>
      <trkpt lat="47.36694" lon="-0.43768">
        <ele>55.8</ele>
        <time>2023-07-19T14:31:00Z</time>
      </trkpt>
      <trkpt lat="47.36694" lon="-0.43768">
        <ele>56</ele>
        <time>2023-07-19T14:31:02Z</time>
      </trkpt>
      <trkpt lat="47.36701" lon="-0.43763">
        <ele>56.8</ele>
        <time>2023-07-19T14:34:00Z</time>
      </trkpt>
      <trkpt lat="47.36703" lon="-0.43762">
        <ele>56.8</ele>
        <time>2023-07-19T14:34:01Z</time>
      </trkpt>
      <trkpt lat="47.36713" lon="-0.43755">
        <ele>56.8</ele>
        <time>2023-07-19T14:34:05Z</time>
      </trkpt>
      <trkpt lat="47.36721" lon="-0.4375">
        <ele>56.8</ele>
        <time>2023-07-19T14:34:08Z</time>
      </trkpt>
      <trkpt lat="47.36741" lon="-0.43736">
        <ele>56.8</ele>
        <time>2023-07-19T14:34:15Z</time>
      </trkpt>
      <trkpt lat="47.3676" lon="-0.43723">
        <ele>57</ele>
        <time>2023-07-19T14:34:22Z</time>
      </trkpt>
      <trkpt lat="47.36766" lon="-0.43719">
        <ele>57</ele>
        <time>2023-07-19T14:34:24Z</time>
      </trkpt>
      <trkpt lat="47.36784" lon="-0.43707">
        <ele>57.2</ele>
        <time>2023-07-19T14:34:30Z</time>
      </trkpt>
      <trkpt lat="47.36814" lon="-0.43687">
        <ele>57.4</ele>
        <time>2023-07-19T14:34:39Z</time>
      </trkpt>
      <trkpt lat="47.3684" lon="-0.43668">
        <ele>57.2</ele>
        <time>2023-07-19T14:34:47Z</time>
      </trkpt>
      <trkpt lat="47.36869" lon="-0.43657">
        <ele>57.2</ele>
        <time>2023-07-19T14:34:55Z</time>
      </trkpt>
      <trkpt lat="47.36895" lon="-0.43654">
        <ele>57.2</ele>
        <time>2023-07-19T14:35:02Z</time>
      </trkpt>
      <trkpt lat="47.36899" lon="-0.43654">
        <ele>57.2</ele>
        <time>2023-07-19T14:35:03Z</time>
      </trkpt>
      <trkpt lat="47.36902" lon="-0.43653">
        <ele>57.2</ele>
        <time>2023-07-19T14:35:04Z</time>
      </trkpt>
      <trkpt lat="47.36933" lon="-0.43652">
        <ele>57.2</ele>
        <time>2023-07-19T14:35:12Z</time>
      </trkpt>
      <trkpt lat="47.3694" lon="-0.4365">
        <ele>57.4</ele>
        <time>2023-07-19T14:35:14Z</time>
      </trkpt>
      <trkpt lat="47.36958" lon="-0.43641">
        <ele>57.6</ele>
        <time>2023-07-19T14:35:19Z</time>
      </trkpt>
      <trkpt lat="47.36971" lon="-0.43631">
        <ele>57.8</ele>
        <time>2023-07-19T14:35:23Z</time>
      </trkpt>
      <trkpt lat="47.36975" lon="-0.43628">
        <ele>57.8</ele>
        <time>2023-07-19T14:35:24Z</time>
      </trkpt>
      <trkpt lat="47.36981" lon="-0.43623">
        <ele>57.8</ele>
        <time>2023-07-19T14:35:26Z</time>
      </trkpt>
      <trkpt lat="47.36984" lon="-0.4362">
        <ele>57.8</ele>
        <time>2023-07-19T14:35:27Z</time>
      </trkpt>
      <trkpt lat="47.36987" lon="-0.43617">
        <ele>58</ele>
        <time>2023-07-19T14:35:28Z</time>
      </trkpt>
      <trkpt lat="47.3699" lon="-0.43614">
        <ele>58</ele>
        <time>2023-07-19T14:35:29Z</time>
      </trkpt>
      <trkpt lat="47.37021" lon="-0.43589">
        <ele>58.8</ele>
        <time>2023-07-19T14:35:38Z</time>
      </trkpt>
      <trkpt lat="47.37035" lon="-0.43577">
        <ele>59</ele>
        <time>2023-07-19T14:35:42Z</time>
      </trkpt>
      <trkpt lat="47.37049" lon="-0.43566">
        <ele>59</ele>
        <time>2023-07-19T14:35:46Z</time>
      </trkpt>
      <trkpt lat="47.37062" lon="-0.43555">
        <ele>59.2</ele>
        <time>2023-07-19T14:35:50Z</time>
      </trkpt>
      <trkpt lat="47.37072" lon="-0.43547">
        <ele>59.4</ele>
        <time>2023-07-19T14:35:53Z</time>
      </trkpt>
      <trkpt lat="47.37075" lon="-0.43545">
        <ele>59.4</ele>
        <time>2023-07-19T14:35:54Z</time>
      </trkpt>
      <trkpt lat="47.3709" lon="-0.43538">
        <ele>59.4</ele>
        <time>2023-07-19T14:35:58Z</time>
      </trkpt>
      <trkpt lat="47.37102" lon="-0.43534">
        <ele>59.6</ele>
        <time>2023-07-19T14:36:01Z</time>
      </trkpt>
      <trkpt lat="47.37106" lon="-0.43534">
        <ele>59.6</ele>
        <time>2023-07-19T14:36:02Z</time>
      </trkpt>
      <trkpt lat="47.37117" lon="-0.43531">
        <ele>59.6</ele>
        <time>2023-07-19T14:36:05Z</time>
      </trkpt>
      <trkpt lat="47.37121" lon="-0.4353">
        <ele>59.6</ele>
        <time>2023-07-19T14:36:06Z</time>
      </trkpt>
      <trkpt lat="47.37125" lon="-0.43529">
        <ele>59.6</ele>
        <time>2023-07-19T14:36:07Z</time>
      </trkpt>
      <trkpt lat="47.37136" lon="-0.43527">
        <ele>59.6</ele>
        <time>2023-07-19T14:36:10Z</time>
      </trkpt>
      <trkpt lat="47.37143" lon="-0.43525">
        <ele>59.6</ele>
        <time>2023-07-19T14:36:12Z</time>
      </trkpt>
      <trkpt lat="47.37147" lon="-0.43524">
        <ele>59.6</ele>
        <time>2023-07-19T14:36:13Z</time>
      </trkpt>
      <trkpt lat="47.37151" lon="-0.43523">
        <ele>59.6</ele>
        <time>2023-07-19T14:36:14Z</time>
      </trkpt>
      <trkpt lat="47.37154" lon="-0.43522">
        <ele>59.6</ele>
        <time>2023-07-19T14:36:15Z</time>
      </trkpt>
      <trkpt lat="47.37158" lon="-0.43521">
        <ele>59.6</ele>
        <time>2023-07-19T14:36:16Z</time>
      </trkpt>
      <trkpt lat="47.37182" lon="-0.43515">
        <ele>59.8</ele>
        <time>2023-07-19T14:36:22Z</time>
      </trkpt>
      <trkpt lat="47.37208" lon="-0.43509">
        <ele>59.6</ele>
        <time>2023-07-19T14:36:29Z</time>
      </trkpt>
      <trkpt lat="47.37212" lon="-0.43508">
        <ele>59.6</ele>
        <time>2023-07-19T14:36:30Z</time>
      </trkpt>
      <trkpt lat="47.37215" lon="-0.43507">
        <ele>59.6</ele>
        <time>2023-07-19T14:36:31Z</time>
      </trkpt>
      <trkpt lat="47.37219" lon="-0.43507">
        <ele>59.6</ele>
        <time>2023-07-19T14:36:32Z</time>
      </trkpt>
      <trkpt lat="47.37222" lon="-0.43506">
        <ele>59.6</ele>
        <time>2023-07-19T14:36:33Z</time>
      </trkpt>
      <trkpt lat="47.37226" lon="-0.43505">
        <ele>59.6</ele>
        <time>2023-07-19T14:36:34Z</time>
      </trkpt>
      <trkpt lat="47.3723" lon="-0.43504">
        <ele>59.6</ele>
        <time>2023-07-19T14:36:35Z</time>
      </trkpt>
      <trkpt lat="47.37232" lon="-0.43503">
        <ele>59.4</ele>
        <time>2023-07-19T14:36:36Z</time>
      </trkpt>
      <trkpt lat="47.37235" lon="-0.435">
        <ele>59.4</ele>
        <time>2023-07-19T14:36:37Z</time>
      </trkpt>
      <trkpt lat="47.37236" lon="-0.43496">
        <ele>59.4</ele>
        <time>2023-07-19T14:36:38Z</time>
      </trkpt>
      <trkpt lat="47.37236" lon="-0.43492">
        <ele>59.2</ele>
        <time>2023-07-19T14:36:39Z</time>
      </trkpt>
      <trkpt lat="47.37235" lon="-0.43487">
        <ele>59.2</ele>
        <time>2023-07-19T14:36:40Z</time>
      </trkpt>
      <trkpt lat="47.37235" lon="-0.43482">
        <ele>59.2</ele>
        <time>2023-07-19T14:36:41Z</time>
      </trkpt>
      <trkpt lat="47.37235" lon="-0.43478">
        <ele>59.4</ele>
        <time>2023-07-19T14:36:42Z</time>
      </trkpt>
      <trkpt lat="47.37235" lon="-0.43471">
        <ele>59.2</ele>
        <time>2023-07-19T14:36:43Z</time>
      </trkpt>
      <trkpt lat="47.37233" lon="-0.43438">
        <ele>59.2</ele>
        <time>2023-07-19T14:36:49Z</time>
      </trkpt>
      <trkpt lat="47.37233" lon="-0.43432">
        <ele>59.2</ele>
        <time>2023-07-19T14:36:50Z</time>
      </trkpt>
      <trkpt lat="47.37234" lon="-0.43377">
        <ele>58.8</ele>
        <time>2023-07-19T14:36:59Z</time>
      </trkpt>
      <trkpt lat="47.37234" lon="-0.43365">
        <ele>58.8</ele>
        <time>2023-07-19T14:37:01Z</time>
      </trkpt>
      <trkpt lat="47.37236" lon="-0.43348">
        <ele>58.8</ele>
        <time>2023-07-19T14:37:04Z</time>
      </trkpt>
      <trkpt lat="47.37237" lon="-0.43343">
        <ele>58.8</ele>
        <time>2023-07-19T14:37:05Z</time>
      </trkpt>
      <trkpt lat="47.37239" lon="-0.43338">
        <ele>58.8</ele>
        <time>2023-07-19T14:37:06Z</time>
      </trkpt>
      <trkpt lat="47.37241" lon="-0.43334">
        <ele>58.8</ele>
        <time>2023-07-19T14:37:07Z</time>
      </trkpt>
      <trkpt lat="47.37242" lon="-0.4333">
        <ele>58.8</ele>
        <time>2023-07-19T14:37:08Z</time>
      </trkpt>
      <trkpt lat="47.37243" lon="-0.43326">
        <ele>58.6</ele>
        <time>2023-07-19T14:37:09Z</time>
      </trkpt>
      <trkpt lat="47.37242" lon="-0.43321">
        <ele>58.6</ele>
        <time>2023-07-19T14:37:10Z</time>
      </trkpt>
      <trkpt lat="47.37241" lon="-0.43316">
        <ele>58.6</ele>
        <time>2023-07-19T14:37:11Z</time>
      </trkpt>
      <trkpt lat="47.37238" lon="-0.43311">
        <ele>58.6</ele>
        <time>2023-07-19T14:37:12Z</time>
      </trkpt>
      <trkpt lat="47.37232" lon="-0.43301">
        <ele>58.6</ele>
        <time>2023-07-19T14:37:14Z</time>
      </trkpt>
      <trkpt lat="47.37229" lon="-0.43297">
        <ele>58.6</ele>
        <time>2023-07-19T14:37:15Z</time>
      </trkpt>
      <trkpt lat="47.37218" lon="-0.43282">
        <ele>58.4</ele>
        <time>2023-07-19T14:37:18Z</time>
      </trkpt>
      <trkpt lat="47.37212" lon="-0.43271">
        <ele>58</ele>
        <time>2023-07-19T14:37:20Z</time>
      </trkpt>
      <trkpt lat="47.37209" lon="-0.43266">
        <ele>58</ele>
        <time>2023-07-19T14:37:21Z</time>
      </trkpt>
      <trkpt lat="47.372" lon="-0.43243">
        <ele>57.8</ele>
        <time>2023-07-19T14:37:25Z</time>
      </trkpt>
      <trkpt lat="47.37198" lon="-0.43238">
        <ele>57.8</ele>
        <time>2023-07-19T14:37:26Z</time>
      </trkpt>
      <trkpt lat="47.37196" lon="-0.43233">
        <ele>57.6</ele>
        <time>2023-07-19T14:37:27Z</time>
      </trkpt>
      <trkpt lat="47.37194" lon="-0.43228">
        <ele>57.6</ele>
        <time>2023-07-19T14:37:28Z</time>
      </trkpt>
      <trkpt lat="47.37192" lon="-0.43223">
        <ele>57.6</ele>
        <time>2023-07-19T14:37:29Z</time>
      </trkpt>
      <trkpt lat="47.37189" lon="-0.43217">
        <ele>57.6</ele>
        <time>2023-07-19T14:37:30Z</time>
      </trkpt>
      <trkpt lat="47.37187" lon="-0.43212">
        <ele>57.6</ele>
        <time>2023-07-19T14:37:31Z</time>
      </trkpt>
      <trkpt lat="47.37185" lon="-0.43207">
        <ele>57.6</ele>
        <time>2023-07-19T14:37:32Z</time>
      </trkpt>
      <trkpt lat="47.37182" lon="-0.43202">
        <ele>57.6</ele>
        <time>2023-07-19T14:37:33Z</time>
      </trkpt>
      <trkpt lat="47.37179" lon="-0.43197">
        <ele>57.6</ele>
        <time>2023-07-19T14:37:34Z</time>
      </trkpt>
      <trkpt lat="47.37168" lon="-0.43178">
        <ele>57.6</ele>
        <time>2023-07-19T14:37:38Z</time>
      </trkpt>
      <trkpt lat="47.37158" lon="-0.43165">
        <ele>57.6</ele>
        <time>2023-07-19T14:37:41Z</time>
      </trkpt>
      <trkpt lat="47.37145" lon="-0.43151">
        <ele>57.6</ele>
        <time>2023-07-19T14:37:45Z</time>
      </trkpt>
      <trkpt lat="47.37142" lon="-0.43148">
        <ele>57.6</ele>
        <time>2023-07-19T14:37:46Z</time>
      </trkpt>
      <trkpt lat="47.37132" lon="-0.43139">
        <ele>57.4</ele>
        <time>2023-07-19T14:37:49Z</time>
      </trkpt>
      <trkpt lat="47.37107" lon="-0.43126">
        <ele>57</ele>
        <time>2023-07-19T14:37:55Z</time>
      </trkpt>
      <trkpt lat="47.37103" lon="-0.43124">
        <ele>57</ele>
        <time>2023-07-19T14:37:56Z</time>
      </trkpt>
      <trkpt lat="47.37091" lon="-0.43117">
        <ele>56.6</ele>
        <time>2023-07-19T14:37:59Z</time>
      </trkpt>
      <trkpt lat="47.37083" lon="-0.43114">
        <ele>56</ele>
        <time>2023-07-19T14:38:01Z</time>
      </trkpt>
      <trkpt lat="47.37078" lon="-0.43112">
        <ele>55.8</ele>
        <time>2023-07-19T14:38:02Z</time>
      </trkpt>
      <trkpt lat="47.3707" lon="-0.43108">
        <ele>55.8</ele>
        <time>2023-07-19T14:38:04Z</time>
      </trkpt>
      <trkpt lat="47.37017" lon="-0.4309">
        <ele>55.4</ele>
        <time>2023-07-19T14:38:16Z</time>
      </trkpt>
      <trkpt lat="47.36988" lon="-0.4307">
        <ele>55.4</ele>
        <time>2023-07-19T14:38:23Z</time>
      </trkpt>
      <trkpt lat="47.3698" lon="-0.43063">
        <ele>55.4</ele>
        <time>2023-07-19T14:38:25Z</time>
      </trkpt>
      <trkpt lat="47.36964" lon="-0.43049">
        <ele>55.4</ele>
        <time>2023-07-19T14:38:29Z</time>
      </trkpt>
      <trkpt lat="47.36956" lon="-0.43042">
        <ele>55.4</ele>
        <time>2023-07-19T14:38:31Z</time>
      </trkpt>
      <trkpt lat="47.36953" lon="-0.43037">
        <ele>55.4</ele>
        <time>2023-07-19T14:38:32Z</time>
      </trkpt>
      <trkpt lat="47.36949" lon="-0.43033">
        <ele>55.4</ele>
        <time>2023-07-19T14:38:33Z</time>
      </trkpt>
      <trkpt lat="47.36947" lon="-0.43027">
        <ele>55.4</ele>
        <time>2023-07-19T14:38:34Z</time>
      </trkpt>
      <trkpt lat="47.36937" lon="-0.43004">
        <ele>55.4</ele>
        <time>2023-07-19T14:38:38Z</time>
      </trkpt>
      <trkpt lat="47.36936" lon="-0.42997">
        <ele>55.4</ele>
        <time>2023-07-19T14:38:39Z</time>
      </trkpt>
      <trkpt lat="47.36924" lon="-0.42937">
        <ele>55.2</ele>
        <time>2023-07-19T14:38:48Z</time>
      </trkpt>
      <trkpt lat="47.36916" lon="-0.42879">
        <ele>55</ele>
        <time>2023-07-19T14:38:56Z</time>
      </trkpt>
      <trkpt lat="47.36915" lon="-0.42872">
        <ele>54.8</ele>
        <time>2023-07-19T14:38:57Z</time>
      </trkpt>
      <trkpt lat="47.36913" lon="-0.42852">
        <ele>54.6</ele>
        <time>2023-07-19T14:39:00Z</time>
      </trkpt>
      <trkpt lat="47.36912" lon="-0.42845">
        <ele>54.4</ele>
        <time>2023-07-19T14:39:01Z</time>
      </trkpt>
      <trkpt lat="47.36911" lon="-0.42839">
        <ele>54.4</ele>
        <time>2023-07-19T14:39:02Z</time>
      </trkpt>
      <trkpt lat="47.3691" lon="-0.42832">
        <ele>54.2</ele>
        <time>2023-07-19T14:39:03Z</time>
      </trkpt>
      <trkpt lat="47.36909" lon="-0.42825">
        <ele>54.2</ele>
        <time>2023-07-19T14:39:04Z</time>
      </trkpt>
      <trkpt lat="47.36908" lon="-0.42819">
        <ele>54</ele>
        <time>2023-07-19T14:39:05Z</time>
      </trkpt>
      <trkpt lat="47.36907" lon="-0.42812">
        <ele>54</ele>
        <time>2023-07-19T14:39:06Z</time>
      </trkpt>
      <trkpt lat="47.36905" lon="-0.42806">
        <ele>54</ele>
        <time>2023-07-19T14:39:07Z</time>
      </trkpt>
      <trkpt lat="47.36904" lon="-0.42801">
        <ele>53.8</ele>
        <time>2023-07-19T14:39:08Z</time>
      </trkpt>
      <trkpt lat="47.36901" lon="-0.42797">
        <ele>53.8</ele>
        <time>2023-07-19T14:39:09Z</time>
      </trkpt>
      <trkpt lat="47.36898" lon="-0.42794">
        <ele>53.8</ele>
        <time>2023-07-19T14:39:10Z</time>
      </trkpt>
      <trkpt lat="47.36896" lon="-0.42794">
        <ele>53.8</ele>
        <time>2023-07-19T14:39:11Z</time>
      </trkpt>
      <trkpt lat="47.36893" lon="-0.42795">
        <ele>53.6</ele>
        <time>2023-07-19T14:39:12Z</time>
      </trkpt>
      <trkpt lat="47.36884" lon="-0.42804">
        <ele>53.6</ele>
        <time>2023-07-19T14:39:15Z</time>
      </trkpt>
      <trkpt lat="47.36881" lon="-0.42808">
        <ele>53.6</ele>
        <time>2023-07-19T14:39:16Z</time>
      </trkpt>
      <trkpt lat="47.3686" lon="-0.42835">
        <ele>53</ele>
        <time>2023-07-19T14:39:22Z</time>
      </trkpt>
      <trkpt lat="47.36856" lon="-0.42839">
        <ele>53</ele>
        <time>2023-07-19T14:39:23Z</time>
      </trkpt>
      <trkpt lat="47.36841" lon="-0.42857">
        <ele>52.8</ele>
        <time>2023-07-19T14:39:27Z</time>
      </trkpt>
      <trkpt lat="47.3683" lon="-0.42871">
        <ele>52.6</ele>
        <time>2023-07-19T14:39:30Z</time>
      </trkpt>
      <trkpt lat="47.36804" lon="-0.42903">
        <ele>52.2</ele>
        <time>2023-07-19T14:39:37Z</time>
      </trkpt>
      <trkpt lat="47.36793" lon="-0.42917">
        <ele>52.2</ele>
        <time>2023-07-19T14:39:40Z</time>
      </trkpt>
      <trkpt lat="47.3679" lon="-0.42921">
        <ele>52.2</ele>
        <time>2023-07-19T14:39:41Z</time>
      </trkpt>
      <trkpt lat="47.36779" lon="-0.42933">
        <ele>52.2</ele>
        <time>2023-07-19T14:39:44Z</time>
      </trkpt>
      <trkpt lat="47.36776" lon="-0.42937">
        <ele>52.2</ele>
        <time>2023-07-19T14:39:45Z</time>
      </trkpt>
      <trkpt lat="47.36772" lon="-0.42941">
        <ele>52.6</ele>
        <time>2023-07-19T14:39:46Z</time>
      </trkpt>
      <trkpt lat="47.36769" lon="-0.42946">
        <ele>52.8</ele>
        <time>2023-07-19T14:39:47Z</time>
      </trkpt>
      <trkpt lat="47.36765" lon="-0.4295">
        <ele>52.8</ele>
        <time>2023-07-19T14:39:48Z</time>
      </trkpt>
      <trkpt lat="47.36754" lon="-0.42963">
        <ele>52.8</ele>
        <time>2023-07-19T14:39:51Z</time>
      </trkpt>
      <trkpt lat="47.36737" lon="-0.42984">
        <ele>53</ele>
        <time>2023-07-19T14:39:56Z</time>
      </trkpt>
      <trkpt lat="47.36724" lon="-0.42996">
        <ele>53</ele>
        <time>2023-07-19T14:39:59Z</time>
      </trkpt>
      <trkpt lat="47.3672" lon="-0.42997">
        <ele>53</ele>
        <time>2023-07-19T14:40:00Z</time>
      </trkpt>
      <trkpt lat="47.36715" lon="-0.42996">
        <ele>53</ele>
        <time>2023-07-19T14:40:01Z</time>
      </trkpt>
      <trkpt lat="47.36709" lon="-0.42986">
        <ele>53</ele>
        <time>2023-07-19T14:40:03Z</time>
      </trkpt>
      <trkpt lat="47.36707" lon="-0.42978">
        <ele>53</ele>
        <time>2023-07-19T14:40:04Z</time>
      </trkpt>
      <trkpt lat="47.36705" lon="-0.42963">
        <ele>53</ele>
        <time>2023-07-19T14:40:06Z</time>
      </trkpt>
      <trkpt lat="47.36705" lon="-0.42955">
        <ele>53</ele>
        <time>2023-07-19T14:40:07Z</time>
      </trkpt>
      <trkpt lat="47.36705" lon="-0.42932">
        <ele>53</ele>
        <time>2023-07-19T14:40:10Z</time>
      </trkpt>
      <trkpt lat="47.36703" lon="-0.429">
        <ele>52.6</ele>
        <time>2023-07-19T14:40:14Z</time>
      </trkpt>
      <trkpt lat="47.36704" lon="-0.4287">
        <ele>52.2</ele>
        <time>2023-07-19T14:40:18Z</time>
      </trkpt>
      <trkpt lat="47.36704" lon="-0.42863">
        <ele>52.2</ele>
        <time>2023-07-19T14:40:19Z</time>
      </trkpt>
      <trkpt lat="47.36705" lon="-0.42855">
        <ele>52</ele>
        <time>2023-07-19T14:40:20Z</time>
      </trkpt>
      <trkpt lat="47.36708" lon="-0.42834">
        <ele>51.6</ele>
        <time>2023-07-19T14:40:23Z</time>
      </trkpt>
      <trkpt lat="47.36711" lon="-0.4282">
        <ele>51.4</ele>
        <time>2023-07-19T14:40:25Z</time>
      </trkpt>
      <trkpt lat="47.36714" lon="-0.42806">
        <ele>51.4</ele>
        <time>2023-07-19T14:40:27Z</time>
      </trkpt>
      <trkpt lat="47.36716" lon="-0.42799">
        <ele>51.4</ele>
        <time>2023-07-19T14:40:28Z</time>
      </trkpt>
      <trkpt lat="47.36721" lon="-0.42779">
        <ele>51.4</ele>
        <time>2023-07-19T14:40:31Z</time>
      </trkpt>
      <trkpt lat="47.36723" lon="-0.42773">
        <ele>51.4</ele>
        <time>2023-07-19T14:40:32Z</time>
      </trkpt>
      <trkpt lat="47.36724" lon="-0.42766">
        <ele>51.4</ele>
        <time>2023-07-19T14:40:33Z</time>
      </trkpt>
      <trkpt lat="47.36726" lon="-0.4276">
        <ele>51.4</ele>
        <time>2023-07-19T14:40:34Z</time>
      </trkpt>
      <trkpt lat="47.36728" lon="-0.42753">
        <ele>51.4</ele>
        <time>2023-07-19T14:40:35Z</time>
      </trkpt>
      <trkpt lat="47.36729" lon="-0.42747">
        <ele>51.4</ele>
        <time>2023-07-19T14:40:36Z</time>
      </trkpt>
      <trkpt lat="47.36731" lon="-0.42741">
        <ele>51.4</ele>
        <time>2023-07-19T14:40:37Z</time>
      </trkpt>
      <trkpt lat="47.36733" lon="-0.42736">
        <ele>51.4</ele>
        <time>2023-07-19T14:40:38Z</time>
      </trkpt>
      <trkpt lat="47.36734" lon="-0.4273">
        <ele>51.4</ele>
        <time>2023-07-19T14:40:39Z</time>
      </trkpt>
      <trkpt lat="47.36736" lon="-0.42725">
        <ele>51.4</ele>
        <time>2023-07-19T14:40:40Z</time>
      </trkpt>
      <trkpt lat="47.36737" lon="-0.42719">
        <ele>51.4</ele>
        <time>2023-07-19T14:40:41Z</time>
      </trkpt>
      <trkpt lat="47.36738" lon="-0.42714">
        <ele>51.4</ele>
        <time>2023-07-19T14:40:42Z</time>
      </trkpt>
      <trkpt lat="47.36739" lon="-0.42709">
        <ele>51.6</ele>
        <time>2023-07-19T14:40:43Z</time>
      </trkpt>
      <trkpt lat="47.36741" lon="-0.42704">
        <ele>51.6</ele>
        <time>2023-07-19T14:40:44Z</time>
      </trkpt>
      <trkpt lat="47.36742" lon="-0.42698">
        <ele>51.6</ele>
        <time>2023-07-19T14:40:45Z</time>
      </trkpt>
      <trkpt lat="47.36743" lon="-0.42693">
        <ele>51.8</ele>
        <time>2023-07-19T14:40:46Z</time>
      </trkpt>
      <trkpt lat="47.36744" lon="-0.42688">
        <ele>51.8</ele>
        <time>2023-07-19T14:40:47Z</time>
      </trkpt>
      <trkpt lat="47.36745" lon="-0.42682">
        <ele>51.8</ele>
        <time>2023-07-19T14:40:48Z</time>
      </trkpt>
      <trkpt lat="47.36747" lon="-0.42677">
        <ele>51.8</ele>
        <time>2023-07-19T14:40:49Z</time>
      </trkpt>
      <trkpt lat="47.36757" lon="-0.42635">
        <ele>52</ele>
        <time>2023-07-19T14:40:57Z</time>
      </trkpt>
      <trkpt lat="47.36758" lon="-0.4263">
        <ele>52</ele>
        <time>2023-07-19T14:40:58Z</time>
      </trkpt>
      <trkpt lat="47.3676" lon="-0.42625">
        <ele>52</ele>
        <time>2023-07-19T14:40:59Z</time>
      </trkpt>
      <trkpt lat="47.36761" lon="-0.4262">
        <ele>52.2</ele>
        <time>2023-07-19T14:41:00Z</time>
      </trkpt>
      <trkpt lat="47.36762" lon="-0.42615">
        <ele>52.2</ele>
        <time>2023-07-19T14:41:01Z</time>
      </trkpt>
      <trkpt lat="47.3677" lon="-0.42578">
        <ele>52.6</ele>
        <time>2023-07-19T14:41:08Z</time>
      </trkpt>
      <trkpt lat="47.36774" lon="-0.42553">
        <ele>52.8</ele>
        <time>2023-07-19T14:41:13Z</time>
      </trkpt>
      <trkpt lat="47.36775" lon="-0.42547">
        <ele>52.8</ele>
        <time>2023-07-19T14:41:14Z</time>
      </trkpt>
      <trkpt lat="47.36779" lon="-0.42526">
        <ele>53</ele>
        <time>2023-07-19T14:41:18Z</time>
      </trkpt>
      <trkpt lat="47.3678" lon="-0.4252">
        <ele>53</ele>
        <time>2023-07-19T14:41:19Z</time>
      </trkpt>
      <trkpt lat="47.36783" lon="-0.42475">
        <ele>53.6</ele>
        <time>2023-07-19T14:41:27Z</time>
      </trkpt>
      <trkpt lat="47.36784" lon="-0.42426">
        <ele>53.6</ele>
        <time>2023-07-19T14:41:35Z</time>
      </trkpt>
      <trkpt lat="47.36781" lon="-0.42401">
        <ele>53.6</ele>
        <time>2023-07-19T14:41:39Z</time>
      </trkpt>
      <trkpt lat="47.36779" lon="-0.42382">
        <ele>53.2</ele>
        <time>2023-07-19T14:41:42Z</time>
      </trkpt>
      <trkpt lat="47.36775" lon="-0.42356">
        <ele>53</ele>
        <time>2023-07-19T14:41:46Z</time>
      </trkpt>
      <trkpt lat="47.36773" lon="-0.42318">
        <ele>52.6</ele>
        <time>2023-07-19T14:41:52Z</time>
      </trkpt>
      <trkpt lat="47.36771" lon="-0.42254">
        <ele>52.2</ele>
        <time>2023-07-19T14:42:01Z</time>
      </trkpt>
      <trkpt lat="47.36771" lon="-0.42247">
        <ele>52</ele>
        <time>2023-07-19T14:42:02Z</time>
      </trkpt>
      <trkpt lat="47.36773" lon="-0.42184">
        <ele>51</ele>
        <time>2023-07-19T14:42:11Z</time>
      </trkpt>
      <trkpt lat="47.36772" lon="-0.4217">
        <ele>51</ele>
        <time>2023-07-19T14:42:13Z</time>
      </trkpt>
      <trkpt lat="47.36771" lon="-0.42141">
        <ele>51</ele>
        <time>2023-07-19T14:42:17Z</time>
      </trkpt>
      <trkpt lat="47.36771" lon="-0.42134">
        <ele>51</ele>
        <time>2023-07-19T14:42:18Z</time>
      </trkpt>
      <trkpt lat="47.36768" lon="-0.42079">
        <ele>50.6</ele>
        <time>2023-07-19T14:42:26Z</time>
      </trkpt>
      <trkpt lat="47.36767" lon="-0.42073">
        <ele>50.6</ele>
        <time>2023-07-19T14:42:27Z</time>
      </trkpt>
      <trkpt lat="47.36766" lon="-0.42067">
        <ele>50.6</ele>
        <time>2023-07-19T14:42:28Z</time>
      </trkpt>
      <trkpt lat="47.36765" lon="-0.42061">
        <ele>50.6</ele>
        <time>2023-07-19T14:42:29Z</time>
      </trkpt>
      <trkpt lat="47.36764" lon="-0.42055">
        <ele>50.6</ele>
        <time>2023-07-19T14:42:30Z</time>
      </trkpt>
      <trkpt lat="47.36763" lon="-0.42049">
        <ele>50.6</ele>
        <time>2023-07-19T14:42:31Z</time>
      </trkpt>
      <trkpt lat="47.36762" lon="-0.42043">
        <ele>50.6</ele>
        <time>2023-07-19T14:42:32Z</time>
      </trkpt>
      <trkpt lat="47.36761" lon="-0.42038">
        <ele>50.6</ele>
        <time>2023-07-19T14:42:33Z</time>
      </trkpt>
      <trkpt lat="47.3676" lon="-0.42032">
        <ele>50.6</ele>
        <time>2023-07-19T14:42:34Z</time>
      </trkpt>
      <trkpt lat="47.36759" lon="-0.42026">
        <ele>50.6</ele>
        <time>2023-07-19T14:42:35Z</time>
      </trkpt>
      <trkpt lat="47.36757" lon="-0.42021">
        <ele>50.6</ele>
        <time>2023-07-19T14:42:36Z</time>
      </trkpt>
      <trkpt lat="47.36757" lon="-0.42015">
        <ele>50.8</ele>
        <time>2023-07-19T14:42:37Z</time>
      </trkpt>
      <trkpt lat="47.36756" lon="-0.4201">
        <ele>51</ele>
        <time>2023-07-19T14:42:38Z</time>
      </trkpt>
      <trkpt lat="47.36755" lon="-0.42004">
        <ele>51</ele>
        <time>2023-07-19T14:42:39Z</time>
      </trkpt>
      <trkpt lat="47.36754" lon="-0.41998">
        <ele>51.2</ele>
        <time>2023-07-19T14:42:40Z</time>
      </trkpt>
      <trkpt lat="47.36753" lon="-0.41993">
        <ele>51.4</ele>
        <time>2023-07-19T14:42:41Z</time>
      </trkpt>
      <trkpt lat="47.36751" lon="-0.41988">
        <ele>51.6</ele>
        <time>2023-07-19T14:42:42Z</time>
      </trkpt>
      <trkpt lat="47.36745" lon="-0.41974">
        <ele>52.2</ele>
        <time>2023-07-19T14:42:45Z</time>
      </trkpt>
      <trkpt lat="47.36742" lon="-0.4197">
        <ele>52.2</ele>
        <time>2023-07-19T14:42:46Z</time>
      </trkpt>
      <trkpt lat="47.3672" lon="-0.41954">
        <ele>52.8</ele>
        <time>2023-07-19T14:42:52Z</time>
      </trkpt>
      <trkpt lat="47.36688" lon="-0.4194">
        <ele>53</ele>
        <time>2023-07-19T14:43:00Z</time>
      </trkpt>
      <trkpt lat="47.36677" lon="-0.41932">
        <ele>53</ele>
        <time>2023-07-19T14:43:03Z</time>
      </trkpt>
      <trkpt lat="47.36674" lon="-0.41928">
        <ele>53</ele>
        <time>2023-07-19T14:43:04Z</time>
      </trkpt>
      <trkpt lat="47.36671" lon="-0.41925">
        <ele>53</ele>
        <time>2023-07-19T14:43:05Z</time>
      </trkpt>
      <trkpt lat="47.36667" lon="-0.41922">
        <ele>53</ele>
        <time>2023-07-19T14:43:06Z</time>
      </trkpt>
      <trkpt lat="47.36664" lon="-0.41918">
        <ele>53</ele>
        <time>2023-07-19T14:43:07Z</time>
      </trkpt>
      <trkpt lat="47.36643" lon="-0.41891">
        <ele>53.2</ele>
        <time>2023-07-19T14:43:14Z</time>
      </trkpt>
      <trkpt lat="47.36634" lon="-0.41878">
        <ele>53.2</ele>
        <time>2023-07-19T14:43:17Z</time>
      </trkpt>
      <trkpt lat="47.36611" lon="-0.41836">
        <ele>53.6</ele>
        <time>2023-07-19T14:43:26Z</time>
      </trkpt>
      <trkpt lat="47.36604" lon="-0.41815">
        <ele>53.6</ele>
        <time>2023-07-19T14:43:30Z</time>
      </trkpt>
      <trkpt lat="47.36603" lon="-0.4181">
        <ele>53.8</ele>
        <time>2023-07-19T14:43:31Z</time>
      </trkpt>
      <trkpt lat="47.36602" lon="-0.41804">
        <ele>53.8</ele>
        <time>2023-07-19T14:43:32Z</time>
      </trkpt>
      <trkpt lat="47.36601" lon="-0.41799">
        <ele>53.8</ele>
        <time>2023-07-19T14:43:33Z</time>
      </trkpt>
      <trkpt lat="47.36599" lon="-0.41793">
        <ele>53.8</ele>
        <time>2023-07-19T14:43:34Z</time>
      </trkpt>
      <trkpt lat="47.36591" lon="-0.41754">
        <ele>54.2</ele>
        <time>2023-07-19T14:43:41Z</time>
      </trkpt>
      <trkpt lat="47.3659" lon="-0.41749">
        <ele>54.4</ele>
        <time>2023-07-19T14:43:42Z</time>
      </trkpt>
      <trkpt lat="47.36589" lon="-0.41728">
        <ele>54.6</ele>
        <time>2023-07-19T14:43:46Z</time>
      </trkpt>
      <trkpt lat="47.3659" lon="-0.41723">
        <ele>54.6</ele>
        <time>2023-07-19T14:43:47Z</time>
      </trkpt>
      <trkpt lat="47.36592" lon="-0.4172">
        <ele>54.6</ele>
        <time>2023-07-19T14:43:48Z</time>
      </trkpt>
      <trkpt lat="47.36595" lon="-0.41717">
        <ele>54.6</ele>
        <time>2023-07-19T14:43:49Z</time>
      </trkpt>
      <trkpt lat="47.36597" lon="-0.41715">
        <ele>54.6</ele>
        <time>2023-07-19T14:43:50Z</time>
      </trkpt>
      <trkpt lat="47.366" lon="-0.41713">
        <ele>54.6</ele>
        <time>2023-07-19T14:43:51Z</time>
      </trkpt>
      <trkpt lat="47.36602" lon="-0.41711">
        <ele>54.6</ele>
        <time>2023-07-19T14:43:52Z</time>
      </trkpt>
      <trkpt lat="47.36606" lon="-0.4171">
        <ele>54.6</ele>
        <time>2023-07-19T14:43:53Z</time>
      </trkpt>
      <trkpt lat="47.36609" lon="-0.41708">
        <ele>54.8</ele>
        <time>2023-07-19T14:43:54Z</time>
      </trkpt>
      <trkpt lat="47.36612" lon="-0.41707">
        <ele>54.8</ele>
        <time>2023-07-19T14:43:55Z</time>
      </trkpt>
      <trkpt lat="47.36615" lon="-0.41705">
        <ele>55</ele>
        <time>2023-07-19T14:43:56Z</time>
      </trkpt>
      <trkpt lat="47.36621" lon="-0.41701">
        <ele>55.4</ele>
        <time>2023-07-19T14:43:58Z</time>
      </trkpt>
      <trkpt lat="47.36624" lon="-0.417">
        <ele>55.6</ele>
        <time>2023-07-19T14:43:59Z</time>
      </trkpt>
      <trkpt lat="47.36627" lon="-0.41699">
        <ele>55.6</ele>
        <time>2023-07-19T14:44:00Z</time>
      </trkpt>
      <trkpt lat="47.36629" lon="-0.41698">
        <ele>55.6</ele>
        <time>2023-07-19T14:44:01Z</time>
      </trkpt>
      <trkpt lat="47.36631" lon="-0.41697">
        <ele>55.6</ele>
        <time>2023-07-19T14:44:02Z</time>
      </trkpt>
      <trkpt lat="47.36633" lon="-0.41697">
        <ele>55.8</ele>
        <time>2023-07-19T14:44:03Z</time>
      </trkpt>
      <trkpt lat="47.36634" lon="-0.41695">
        <ele>55.8</ele>
        <time>2023-07-19T14:44:04Z</time>
      </trkpt>
      <trkpt lat="47.36634" lon="-0.41695">
        <ele>56</ele>
        <time>2023-07-19T14:44:05Z</time>
      </trkpt>
      <trkpt lat="47.36634" lon="-0.41695">
        <ele>56.2</ele>
        <time>2023-07-19T14:44:06Z</time>
      </trkpt>
      <trkpt lat="47.36634" lon="-0.41695">
        <ele>56.2</ele>
        <time>2023-07-19T14:44:07Z</time>
      </trkpt>
      <trkpt lat="47.3664" lon="-0.41693">
        <ele>57</ele>
        <time>2023-07-19T14:44:47Z</time>
      </trkpt>
      <trkpt lat="47.36643" lon="-0.4169">
        <ele>57</ele>
        <time>2023-07-19T14:44:49Z</time>
      </trkpt>
      <trkpt lat="47.36646" lon="-0.41687">
        <ele>57</ele>
        <time>2023-07-19T14:44:51Z</time>
      </trkpt>
      <trkpt lat="47.36648" lon="-0.41685">
        <ele>57</ele>
        <time>2023-07-19T14:44:52Z</time>
      </trkpt>
      <trkpt lat="47.36656" lon="-0.41679">
        <ele>57</ele>
        <time>2023-07-19T14:44:56Z</time>
      </trkpt>
      <trkpt lat="47.36676" lon="-0.41668">
        <ele>57.2</ele>
        <time>2023-07-19T14:45:04Z</time>
      </trkpt>
      <trkpt lat="47.36695" lon="-0.41655">
        <ele>57.8</ele>
        <time>2023-07-19T14:45:12Z</time>
      </trkpt>
      <trkpt lat="47.36697" lon="-0.41653">
        <ele>57.8</ele>
        <time>2023-07-19T14:45:13Z</time>
      </trkpt>
      <trkpt lat="47.36699" lon="-0.41651">
        <ele>58</ele>
        <time>2023-07-19T14:45:14Z</time>
      </trkpt>
      <trkpt lat="47.36702" lon="-0.4165">
        <ele>58.2</ele>
        <time>2023-07-19T14:45:15Z</time>
      </trkpt>
      <trkpt lat="47.36704" lon="-0.41649">
        <ele>58.2</ele>
        <time>2023-07-19T14:45:16Z</time>
      </trkpt>
      <trkpt lat="47.36706" lon="-0.41647">
        <ele>58.4</ele>
        <time>2023-07-19T14:45:17Z</time>
      </trkpt>
      <trkpt lat="47.36708" lon="-0.41645">
        <ele>58.4</ele>
        <time>2023-07-19T14:45:18Z</time>
      </trkpt>
      <trkpt lat="47.36711" lon="-0.41644">
        <ele>58.4</ele>
        <time>2023-07-19T14:45:19Z</time>
      </trkpt>
      <trkpt lat="47.36717" lon="-0.4164">
        <ele>59</ele>
        <time>2023-07-19T14:45:22Z</time>
      </trkpt>
      <trkpt lat="47.36721" lon="-0.41637">
        <ele>59.2</ele>
        <time>2023-07-19T14:45:24Z</time>
      </trkpt>
      <trkpt lat="47.36723" lon="-0.41636">
        <ele>59.2</ele>
        <time>2023-07-19T14:45:25Z</time>
      </trkpt>
      <trkpt lat="47.36727" lon="-0.41633">
        <ele>59.4</ele>
        <time>2023-07-19T14:45:27Z</time>
      </trkpt>
      <trkpt lat="47.36731" lon="-0.41629">
        <ele>59.8</ele>
        <time>2023-07-19T14:45:29Z</time>
      </trkpt>
      <trkpt lat="47.36733" lon="-0.41627">
        <ele>60</ele>
        <time>2023-07-19T14:45:30Z</time>
      </trkpt>
      <trkpt lat="47.36735" lon="-0.41625">
        <ele>60</ele>
        <time>2023-07-19T14:45:31Z</time>
      </trkpt>
      <trkpt lat="47.36736" lon="-0.41624">
        <ele>60.2</ele>
        <time>2023-07-19T14:45:32Z</time>
      </trkpt>
      <trkpt lat="47.36738" lon="-0.41624">
        <ele>60.4</ele>
        <time>2023-07-19T14:45:33Z</time>
      </trkpt>
      <trkpt lat="47.3674" lon="-0.41623">
        <ele>60.6</ele>
        <time>2023-07-19T14:45:34Z</time>
      </trkpt>
      <trkpt lat="47.36743" lon="-0.41623">
        <ele>60.8</ele>
        <time>2023-07-19T14:45:35Z</time>
      </trkpt>
      <trkpt lat="47.36745" lon="-0.41622">
        <ele>60.8</ele>
        <time>2023-07-19T14:45:36Z</time>
      </trkpt>
      <trkpt lat="47.36747" lon="-0.4162">
        <ele>61</ele>
        <time>2023-07-19T14:45:37Z</time>
      </trkpt>
      <trkpt lat="47.36749" lon="-0.41619">
        <ele>61</ele>
        <time>2023-07-19T14:45:38Z</time>
      </trkpt>
      <trkpt lat="47.36751" lon="-0.41618">
        <ele>61.2</ele>
        <time>2023-07-19T14:45:39Z</time>
      </trkpt>
      <trkpt lat="47.36753" lon="-0.41616">
        <ele>61.4</ele>
        <time>2023-07-19T14:45:40Z</time>
      </trkpt>
      <trkpt lat="47.36756" lon="-0.41615">
        <ele>61.4</ele>
        <time>2023-07-19T14:45:41Z</time>
      </trkpt>
      <trkpt lat="47.36758" lon="-0.41614">
        <ele>61.6</ele>
        <time>2023-07-19T14:45:42Z</time>
      </trkpt>
      <trkpt lat="47.3676" lon="-0.41612">
        <ele>61.6</ele>
        <time>2023-07-19T14:45:43Z</time>
      </trkpt>
      <trkpt lat="47.36762" lon="-0.41611">
        <ele>61.8</ele>
        <time>2023-07-19T14:45:44Z</time>
      </trkpt>
      <trkpt lat="47.36764" lon="-0.4161">
        <ele>61.8</ele>
        <time>2023-07-19T14:45:45Z</time>
      </trkpt>
      <trkpt lat="47.36766" lon="-0.41608">
        <ele>61.8</ele>
        <time>2023-07-19T14:45:46Z</time>
      </trkpt>
      <trkpt lat="47.36768" lon="-0.41606">
        <ele>61.8</ele>
        <time>2023-07-19T14:45:47Z</time>
      </trkpt>
      <trkpt lat="47.36771" lon="-0.41605">
        <ele>62</ele>
        <time>2023-07-19T14:45:48Z</time>
      </trkpt>
      <trkpt lat="47.36772" lon="-0.41603">
        <ele>62</ele>
        <time>2023-07-19T14:45:49Z</time>
      </trkpt>
      <trkpt lat="47.36774" lon="-0.41601">
        <ele>62</ele>
        <time>2023-07-19T14:45:50Z</time>
      </trkpt>
      <trkpt lat="47.36776" lon="-0.41599">
        <ele>62.2</ele>
        <time>2023-07-19T14:45:51Z</time>
      </trkpt>
      <trkpt lat="47.36778" lon="-0.41598">
        <ele>62.2</ele>
        <time>2023-07-19T14:45:52Z</time>
      </trkpt>
      <trkpt lat="47.3678" lon="-0.41597">
        <ele>62.4</ele>
        <time>2023-07-19T14:45:53Z</time>
      </trkpt>
      <trkpt lat="47.36782" lon="-0.41595">
        <ele>62.4</ele>
        <time>2023-07-19T14:45:54Z</time>
      </trkpt>
      <trkpt lat="47.36784" lon="-0.41594">
        <ele>62.6</ele>
        <time>2023-07-19T14:45:55Z</time>
      </trkpt>
      <trkpt lat="47.36786" lon="-0.41592">
        <ele>62.6</ele>
        <time>2023-07-19T14:45:56Z</time>
      </trkpt>
      <trkpt lat="47.36787" lon="-0.4159">
        <ele>62.8</ele>
        <time>2023-07-19T14:45:57Z</time>
      </trkpt>
      <trkpt lat="47.36789" lon="-0.41588">
        <ele>62.8</ele>
        <time>2023-07-19T14:45:58Z</time>
      </trkpt>
      <trkpt lat="47.3679" lon="-0.41587">
        <ele>63</ele>
        <time>2023-07-19T14:45:59Z</time>
      </trkpt>
      <trkpt lat="47.36792" lon="-0.41585">
        <ele>63</ele>
        <time>2023-07-19T14:46:00Z</time>
      </trkpt>
      <trkpt lat="47.36793" lon="-0.41583">
        <ele>63</ele>
        <time>2023-07-19T14:46:01Z</time>
      </trkpt>
      <trkpt lat="47.36794" lon="-0.41581">
        <ele>63.2</ele>
        <time>2023-07-19T14:46:02Z</time>
      </trkpt>
      <trkpt lat="47.36795" lon="-0.4158">
        <ele>63.2</ele>
        <time>2023-07-19T14:46:03Z</time>
      </trkpt>
      <trkpt lat="47.36797" lon="-0.41578">
        <ele>63.4</ele>
        <time>2023-07-19T14:46:04Z</time>
      </trkpt>
      <trkpt lat="47.36798" lon="-0.41576">
        <ele>63.6</ele>
        <time>2023-07-19T14:46:05Z</time>
      </trkpt>
      <trkpt lat="47.36799" lon="-0.41574">
        <ele>63.8</ele>
        <time>2023-07-19T14:46:06Z</time>
      </trkpt>
      <trkpt lat="47.36805" lon="-0.41567">
        <ele>64.4</ele>
        <time>2023-07-19T14:46:10Z</time>
      </trkpt>
      <trkpt lat="47.36806" lon="-0.41565">
        <ele>64.6</ele>
        <time>2023-07-19T14:46:11Z</time>
      </trkpt>
      <trkpt lat="47.36808" lon="-0.41563">
        <ele>64.8</ele>
        <time>2023-07-19T14:46:12Z</time>
      </trkpt>
      <trkpt lat="47.36809" lon="-0.41561">
        <ele>65</ele>
        <time>2023-07-19T14:46:13Z</time>
      </trkpt>
      <trkpt lat="47.36811" lon="-0.41559">
        <ele>65.2</ele>
        <time>2023-07-19T14:46:14Z</time>
      </trkpt>
      <trkpt lat="47.36812" lon="-0.41557">
        <ele>65.4</ele>
        <time>2023-07-19T14:46:15Z</time>
      </trkpt>
      <trkpt lat="47.36814" lon="-0.41555">
        <ele>65.6</ele>
        <time>2023-07-19T14:46:16Z</time>
      </trkpt>
      <trkpt lat="47.36815" lon="-0.41553">
        <ele>65.8</ele>
        <time>2023-07-19T14:46:17Z</time>
      </trkpt>
      <trkpt lat="47.36817" lon="-0.4155">
        <ele>66</ele>
        <time>2023-07-19T14:46:18Z</time>
      </trkpt>
      <trkpt lat="47.36818" lon="-0.41548">
        <ele>66.2</ele>
        <time>2023-07-19T14:46:19Z</time>
      </trkpt>
      <trkpt lat="47.36819" lon="-0.41546">
        <ele>66.2</ele>
        <time>2023-07-19T14:46:20Z</time>
      </trkpt>
      <trkpt lat="47.36821" lon="-0.41544">
        <ele>66.4</ele>
        <time>2023-07-19T14:46:21Z</time>
      </trkpt>
      <trkpt lat="47.36822" lon="-0.41542">
        <ele>66.8</ele>
        <time>2023-07-19T14:46:22Z</time>
      </trkpt>
      <trkpt lat="47.36824" lon="-0.4154">
        <ele>66.8</ele>
        <time>2023-07-19T14:46:23Z</time>
      </trkpt>
      <trkpt lat="47.36825" lon="-0.41537">
        <ele>67</ele>
        <time>2023-07-19T14:46:24Z</time>
      </trkpt>
      <trkpt lat="47.36826" lon="-0.41536">
        <ele>67</ele>
        <time>2023-07-19T14:46:25Z</time>
      </trkpt>
      <trkpt lat="47.36828" lon="-0.41534">
        <ele>67.2</ele>
        <time>2023-07-19T14:46:26Z</time>
      </trkpt>
      <trkpt lat="47.36829" lon="-0.41532">
        <ele>67.2</ele>
        <time>2023-07-19T14:46:27Z</time>
      </trkpt>
      <trkpt lat="47.36831" lon="-0.4153">
        <ele>67.2</ele>
        <time>2023-07-19T14:46:28Z</time>
      </trkpt>
      <trkpt lat="47.36833" lon="-0.41528">
        <ele>67.4</ele>
        <time>2023-07-19T14:46:29Z</time>
      </trkpt>
      <trkpt lat="47.36834" lon="-0.41526">
        <ele>67.6</ele>
        <time>2023-07-19T14:46:30Z</time>
      </trkpt>
      <trkpt lat="47.36835" lon="-0.41523">
        <ele>67.6</ele>
        <time>2023-07-19T14:46:31Z</time>
      </trkpt>
      <trkpt lat="47.36837" lon="-0.41521">
        <ele>67.8</ele>
        <time>2023-07-19T14:46:32Z</time>
      </trkpt>
      <trkpt lat="47.36838" lon="-0.41519">
        <ele>67.8</ele>
        <time>2023-07-19T14:46:33Z</time>
      </trkpt>
      <trkpt lat="47.3684" lon="-0.41517">
        <ele>68</ele>
        <time>2023-07-19T14:46:34Z</time>
      </trkpt>
      <trkpt lat="47.36841" lon="-0.41515">
        <ele>68</ele>
        <time>2023-07-19T14:46:35Z</time>
      </trkpt>
      <trkpt lat="47.36842" lon="-0.41513">
        <ele>68</ele>
        <time>2023-07-19T14:46:36Z</time>
      </trkpt>
      <trkpt lat="47.36844" lon="-0.41511">
        <ele>68</ele>
        <time>2023-07-19T14:46:37Z</time>
      </trkpt>
      <trkpt lat="47.36845" lon="-0.41509">
        <ele>68</ele>
        <time>2023-07-19T14:46:38Z</time>
      </trkpt>
      <trkpt lat="47.36846" lon="-0.41507">
        <ele>68</ele>
        <time>2023-07-19T14:46:39Z</time>
      </trkpt>
      <trkpt lat="47.36848" lon="-0.41504">
        <ele>68.2</ele>
        <time>2023-07-19T14:46:40Z</time>
      </trkpt>
      <trkpt lat="47.36849" lon="-0.41502">
        <ele>68.2</ele>
        <time>2023-07-19T14:46:41Z</time>
      </trkpt>
      <trkpt lat="47.3685" lon="-0.415">
        <ele>68.2</ele>
        <time>2023-07-19T14:46:42Z</time>
      </trkpt>
      <trkpt lat="47.36852" lon="-0.41498">
        <ele>68.2</ele>
        <time>2023-07-19T14:46:43Z</time>
      </trkpt>
      <trkpt lat="47.36854" lon="-0.41495">
        <ele>68.2</ele>
        <time>2023-07-19T14:46:44Z</time>
      </trkpt>
      <trkpt lat="47.36855" lon="-0.41493">
        <ele>68.4</ele>
        <time>2023-07-19T14:46:45Z</time>
      </trkpt>
      <trkpt lat="47.36856" lon="-0.4149">
        <ele>68.4</ele>
        <time>2023-07-19T14:46:46Z</time>
      </trkpt>
      <trkpt lat="47.36862" lon="-0.41481">
        <ele>68.6</ele>
        <time>2023-07-19T14:46:50Z</time>
      </trkpt>
      <trkpt lat="47.36865" lon="-0.41474">
        <ele>68.6</ele>
        <time>2023-07-19T14:46:53Z</time>
      </trkpt>
      <trkpt lat="47.36867" lon="-0.41472">
        <ele>68.6</ele>
        <time>2023-07-19T14:46:54Z</time>
      </trkpt>
      <trkpt lat="47.36876" lon="-0.41459">
        <ele>68.8</ele>
        <time>2023-07-19T14:47:00Z</time>
      </trkpt>
      <trkpt lat="47.36886" lon="-0.41444">
        <ele>69</ele>
        <time>2023-07-19T14:47:06Z</time>
      </trkpt>
      <trkpt lat="47.3689" lon="-0.41439">
        <ele>69</ele>
        <time>2023-07-19T14:47:08Z</time>
      </trkpt>
      <trkpt lat="47.369" lon="-0.41428">
        <ele>69.2</ele>
        <time>2023-07-19T14:47:13Z</time>
      </trkpt>
      <trkpt lat="47.36904" lon="-0.41421">
        <ele>69.2</ele>
        <time>2023-07-19T14:47:16Z</time>
      </trkpt>
      <trkpt lat="47.36906" lon="-0.41419">
        <ele>69.2</ele>
        <time>2023-07-19T14:47:17Z</time>
      </trkpt>
      <trkpt lat="47.36907" lon="-0.41417">
        <ele>69.2</ele>
        <time>2023-07-19T14:47:18Z</time>
      </trkpt>
      <trkpt lat="47.36908" lon="-0.41415">
        <ele>69.2</ele>
        <time>2023-07-19T14:47:19Z</time>
      </trkpt>
      <trkpt lat="47.3691" lon="-0.41413">
        <ele>69.2</ele>
        <time>2023-07-19T14:47:20Z</time>
      </trkpt>
      <trkpt lat="47.36912" lon="-0.41412">
        <ele>69.2</ele>
        <time>2023-07-19T14:47:21Z</time>
      </trkpt>
      <trkpt lat="47.36913" lon="-0.4141">
        <ele>69.2</ele>
        <time>2023-07-19T14:47:22Z</time>
      </trkpt>
      <trkpt lat="47.36915" lon="-0.41408">
        <ele>69.4</ele>
        <time>2023-07-19T14:47:23Z</time>
      </trkpt>
      <trkpt lat="47.36916" lon="-0.41406">
        <ele>69.4</ele>
        <time>2023-07-19T14:47:24Z</time>
      </trkpt>
      <trkpt lat="47.36917" lon="-0.41403">
        <ele>69.4</ele>
        <time>2023-07-19T14:47:25Z</time>
      </trkpt>
      <trkpt lat="47.36919" lon="-0.41401">
        <ele>69.4</ele>
        <time>2023-07-19T14:47:26Z</time>
      </trkpt>
      <trkpt lat="47.3692" lon="-0.41399">
        <ele>69.4</ele>
        <time>2023-07-19T14:47:27Z</time>
      </trkpt>
      <trkpt lat="47.36931" lon="-0.41389">
        <ele>69.6</ele>
        <time>2023-07-19T14:47:33Z</time>
      </trkpt>
      <trkpt lat="47.36941" lon="-0.41375">
        <ele>69.6</ele>
        <time>2023-07-19T14:47:40Z</time>
      </trkpt>
      <trkpt lat="47.36945" lon="-0.41371">
        <ele>69.6</ele>
        <time>2023-07-19T14:47:42Z</time>
      </trkpt>
      <trkpt lat="47.36947" lon="-0.4137">
        <ele>69.8</ele>
        <time>2023-07-19T14:47:43Z</time>
      </trkpt>
      <trkpt lat="47.36951" lon="-0.41366">
        <ele>69.8</ele>
        <time>2023-07-19T14:47:45Z</time>
      </trkpt>
      <trkpt lat="47.36954" lon="-0.41363">
        <ele>69.8</ele>
        <time>2023-07-19T14:47:47Z</time>
      </trkpt>
      <trkpt lat="47.36956" lon="-0.41362">
        <ele>70</ele>
        <time>2023-07-19T14:47:48Z</time>
      </trkpt>
      <trkpt lat="47.36958" lon="-0.4136">
        <ele>70</ele>
        <time>2023-07-19T14:47:49Z</time>
      </trkpt>
      <trkpt lat="47.36959" lon="-0.41359">
        <ele>70</ele>
        <time>2023-07-19T14:47:50Z</time>
      </trkpt>
      <trkpt lat="47.36961" lon="-0.41357">
        <ele>70</ele>
        <time>2023-07-19T14:47:51Z</time>
      </trkpt>
      <trkpt lat="47.36963" lon="-0.41355">
        <ele>70</ele>
        <time>2023-07-19T14:47:52Z</time>
      </trkpt>
      <trkpt lat="47.36964" lon="-0.41353">
        <ele>70</ele>
        <time>2023-07-19T14:47:53Z</time>
      </trkpt>
      <trkpt lat="47.36965" lon="-0.41351">
        <ele>70</ele>
        <time>2023-07-19T14:47:54Z</time>
      </trkpt>
      <trkpt lat="47.36967" lon="-0.41349">
        <ele>70</ele>
        <time>2023-07-19T14:47:55Z</time>
      </trkpt>
      <trkpt lat="47.36969" lon="-0.41346">
        <ele>70</ele>
        <time>2023-07-19T14:47:56Z</time>
      </trkpt>
      <trkpt lat="47.36972" lon="-0.41342">
        <ele>70.2</ele>
        <time>2023-07-19T14:47:58Z</time>
      </trkpt>
      <trkpt lat="47.36974" lon="-0.4134">
        <ele>70.2</ele>
        <time>2023-07-19T14:47:59Z</time>
      </trkpt>
      <trkpt lat="47.36974" lon="-0.41339">
        <ele>70.2</ele>
        <time>2023-07-19T14:48:00Z</time>
      </trkpt>
      <trkpt lat="47.36974" lon="-0.41339">
        <ele>70.4</ele>
        <time>2023-07-19T14:48:01Z</time>
      </trkpt>
      <trkpt lat="47.36974" lon="-0.41339">
        <ele>70.4</ele>
        <time>2023-07-19T14:48:02Z</time>
      </trkpt>
      <trkpt lat="47.36977" lon="-0.41334">
        <ele>70.4</ele>
        <time>2023-07-19T14:48:06Z</time>
      </trkpt>
      <trkpt lat="47.36979" lon="-0.41332">
        <ele>70.6</ele>
        <time>2023-07-19T14:48:07Z</time>
      </trkpt>
      <trkpt lat="47.36981" lon="-0.4133">
        <ele>70.6</ele>
        <time>2023-07-19T14:48:08Z</time>
      </trkpt>
      <trkpt lat="47.36986" lon="-0.41324">
        <ele>70.8</ele>
        <time>2023-07-19T14:48:11Z</time>
      </trkpt>
      <trkpt lat="47.36989" lon="-0.41319">
        <ele>70.8</ele>
        <time>2023-07-19T14:48:14Z</time>
      </trkpt>
      <trkpt lat="47.37" lon="-0.41306">
        <ele>71.2</ele>
        <time>2023-07-19T14:48:21Z</time>
      </trkpt>
      <trkpt lat="47.37014" lon="-0.41289">
        <ele>71.6</ele>
        <time>2023-07-19T14:48:29Z</time>
      </trkpt>
      <trkpt lat="47.37019" lon="-0.41281">
        <ele>71.8</ele>
        <time>2023-07-19T14:48:33Z</time>
      </trkpt>
      <trkpt lat="47.37021" lon="-0.41279">
        <ele>71.8</ele>
        <time>2023-07-19T14:48:34Z</time>
      </trkpt>
      <trkpt lat="47.37023" lon="-0.41277">
        <ele>72</ele>
        <time>2023-07-19T14:48:35Z</time>
      </trkpt>
      <trkpt lat="47.37024" lon="-0.41275">
        <ele>72</ele>
        <time>2023-07-19T14:48:36Z</time>
      </trkpt>
      <trkpt lat="47.37025" lon="-0.41273">
        <ele>72</ele>
        <time>2023-07-19T14:48:37Z</time>
      </trkpt>
      <trkpt lat="47.37026" lon="-0.41271">
        <ele>72.4</ele>
        <time>2023-07-19T14:48:38Z</time>
      </trkpt>
      <trkpt lat="47.3703" lon="-0.41267">
        <ele>72.4</ele>
        <time>2023-07-19T14:48:40Z</time>
      </trkpt>
      <trkpt lat="47.37037" lon="-0.41258">
        <ele>72.4</ele>
        <time>2023-07-19T14:48:44Z</time>
      </trkpt>
      <trkpt lat="47.37046" lon="-0.41245">
        <ele>72.8</ele>
        <time>2023-07-19T14:48:50Z</time>
      </trkpt>
      <trkpt lat="47.37047" lon="-0.41243">
        <ele>72.8</ele>
        <time>2023-07-19T14:48:51Z</time>
      </trkpt>
      <trkpt lat="47.37049" lon="-0.41241">
        <ele>72.8</ele>
        <time>2023-07-19T14:48:52Z</time>
      </trkpt>
      <trkpt lat="47.3705" lon="-0.41239">
        <ele>72.8</ele>
        <time>2023-07-19T14:48:53Z</time>
      </trkpt>
      <trkpt lat="47.37052" lon="-0.41237">
        <ele>72.8</ele>
        <time>2023-07-19T14:48:54Z</time>
      </trkpt>
      <trkpt lat="47.37062" lon="-0.41222">
        <ele>72.8</ele>
        <time>2023-07-19T14:49:00Z</time>
      </trkpt>
      <trkpt lat="47.37066" lon="-0.41218">
        <ele>73</ele>
        <time>2023-07-19T14:49:02Z</time>
      </trkpt>
      <trkpt lat="47.37069" lon="-0.41213">
        <ele>73</ele>
        <time>2023-07-19T14:49:04Z</time>
      </trkpt>
      <trkpt lat="47.3708" lon="-0.41202">
        <ele>73</ele>
        <time>2023-07-19T14:49:10Z</time>
      </trkpt>
      <trkpt lat="47.37094" lon="-0.41183">
        <ele>73</ele>
        <time>2023-07-19T14:49:18Z</time>
      </trkpt>
      <trkpt lat="47.37103" lon="-0.41168">
        <ele>73.2</ele>
        <time>2023-07-19T14:49:24Z</time>
      </trkpt>
      <trkpt lat="47.37108" lon="-0.41161">
        <ele>73.2</ele>
        <time>2023-07-19T14:49:27Z</time>
      </trkpt>
      <trkpt lat="47.37109" lon="-0.41159">
        <ele>73.2</ele>
        <time>2023-07-19T14:49:28Z</time>
      </trkpt>
      <trkpt lat="47.37111" lon="-0.41156">
        <ele>73.2</ele>
        <time>2023-07-19T14:49:29Z</time>
      </trkpt>
      <trkpt lat="47.37112" lon="-0.41153">
        <ele>73.2</ele>
        <time>2023-07-19T14:49:30Z</time>
      </trkpt>
      <trkpt lat="47.37113" lon="-0.41151">
        <ele>73.2</ele>
        <time>2023-07-19T14:49:31Z</time>
      </trkpt>
      <trkpt lat="47.37115" lon="-0.41149">
        <ele>73</ele>
        <time>2023-07-19T14:49:32Z</time>
      </trkpt>
      <trkpt lat="47.37115" lon="-0.41148">
        <ele>73</ele>
        <time>2023-07-19T14:49:33Z</time>
      </trkpt>
      <trkpt lat="47.37115" lon="-0.41148">
        <ele>73</ele>
        <time>2023-07-19T14:49:35Z</time>
      </trkpt>
      <trkpt lat="47.3711" lon="-0.41151">
        <ele>72.8</ele>
        <time>2023-07-19T14:49:47Z</time>
      </trkpt>
      <trkpt lat="47.37106" lon="-0.41158">
        <ele>72.8</ele>
        <time>2023-07-19T14:49:50Z</time>
      </trkpt>
      <trkpt lat="47.371" lon="-0.41164">
        <ele>72.8</ele>
        <time>2023-07-19T14:49:53Z</time>
      </trkpt>
      <trkpt lat="47.37098" lon="-0.41166">
        <ele>72.6</ele>
        <time>2023-07-19T14:49:54Z</time>
      </trkpt>
      <trkpt lat="47.37092" lon="-0.41172">
        <ele>72.6</ele>
        <time>2023-07-19T14:49:57Z</time>
      </trkpt>
      <trkpt lat="47.37074" lon="-0.41197">
        <ele>72.4</ele>
        <time>2023-07-19T14:50:05Z</time>
      </trkpt>
      <trkpt lat="47.37069" lon="-0.41204">
        <ele>72.4</ele>
        <time>2023-07-19T14:50:07Z</time>
      </trkpt>
      <trkpt lat="47.37054" lon="-0.4122">
        <ele>72.4</ele>
        <time>2023-07-19T14:50:12Z</time>
      </trkpt>
      <trkpt lat="47.37034" lon="-0.41245">
        <ele>72.4</ele>
        <time>2023-07-19T14:50:19Z</time>
      </trkpt>
      <trkpt lat="47.37011" lon="-0.41275">
        <ele>72.4</ele>
        <time>2023-07-19T14:50:26Z</time>
      </trkpt>
      <trkpt lat="47.37005" lon="-0.41283">
        <ele>72.2</ele>
        <time>2023-07-19T14:50:28Z</time>
      </trkpt>
      <trkpt lat="47.36986" lon="-0.41306">
        <ele>72</ele>
        <time>2023-07-19T14:50:33Z</time>
      </trkpt>
      <trkpt lat="47.3696" lon="-0.41339">
        <ele>71.4</ele>
        <time>2023-07-19T14:50:40Z</time>
      </trkpt>
      <trkpt lat="47.36957" lon="-0.41344">
        <ele>71.4</ele>
        <time>2023-07-19T14:50:41Z</time>
      </trkpt>
      <trkpt lat="47.36947" lon="-0.41357">
        <ele>70.8</ele>
        <time>2023-07-19T14:50:44Z</time>
      </trkpt>
      <trkpt lat="47.36944" lon="-0.41361">
        <ele>70.8</ele>
        <time>2023-07-19T14:50:45Z</time>
      </trkpt>
      <trkpt lat="47.36941" lon="-0.41365">
        <ele>70.6</ele>
        <time>2023-07-19T14:50:46Z</time>
      </trkpt>
      <trkpt lat="47.36939" lon="-0.41369">
        <ele>70.4</ele>
        <time>2023-07-19T14:50:47Z</time>
      </trkpt>
      <trkpt lat="47.36936" lon="-0.41373">
        <ele>70.2</ele>
        <time>2023-07-19T14:50:48Z</time>
      </trkpt>
      <trkpt lat="47.36934" lon="-0.41377">
        <ele>70.2</ele>
        <time>2023-07-19T14:50:49Z</time>
      </trkpt>
      <trkpt lat="47.3693" lon="-0.41381">
        <ele>70</ele>
        <time>2023-07-19T14:50:50Z</time>
      </trkpt>
      <trkpt lat="47.36928" lon="-0.41385">
        <ele>70</ele>
        <time>2023-07-19T14:50:51Z</time>
      </trkpt>
      <trkpt lat="47.36925" lon="-0.41388">
        <ele>69.8</ele>
        <time>2023-07-19T14:50:52Z</time>
      </trkpt>
      <trkpt lat="47.36923" lon="-0.41392">
        <ele>69.8</ele>
        <time>2023-07-19T14:50:53Z</time>
      </trkpt>
      <trkpt lat="47.3692" lon="-0.41395">
        <ele>69.6</ele>
        <time>2023-07-19T14:50:54Z</time>
      </trkpt>
      <trkpt lat="47.36918" lon="-0.41399">
        <ele>69.6</ele>
        <time>2023-07-19T14:50:55Z</time>
      </trkpt>
      <trkpt lat="47.36916" lon="-0.41402">
        <ele>69.6</ele>
        <time>2023-07-19T14:50:56Z</time>
      </trkpt>
      <trkpt lat="47.36916" lon="-0.41405">
        <ele>69.6</ele>
        <time>2023-07-19T14:50:57Z</time>
      </trkpt>
      <trkpt lat="47.36915" lon="-0.41407">
        <ele>69.6</ele>
        <time>2023-07-19T14:50:58Z</time>
      </trkpt>
      <trkpt lat="47.36915" lon="-0.41408">
        <ele>69.6</ele>
        <time>2023-07-19T14:50:59Z</time>
      </trkpt>
      <trkpt lat="47.36915" lon="-0.41408">
        <ele>69.6</ele>
        <time>2023-07-19T14:51:00Z</time>
      </trkpt>
      <trkpt lat="47.36915" lon="-0.41408">
        <ele>69.6</ele>
        <time>2023-07-19T14:51:01Z</time>
      </trkpt>
      <trkpt lat="47.36922" lon="-0.41399">
        <ele>69.6</ele>
        <time>2023-07-19T14:52:03Z</time>
      </trkpt>
      <trkpt lat="47.36924" lon="-0.41397">
        <ele>69.6</ele>
        <time>2023-07-19T14:52:04Z</time>
      </trkpt>
      <trkpt lat="47.36927" lon="-0.41394">
        <ele>69.6</ele>
        <time>2023-07-19T14:52:05Z</time>
      </trkpt>
      <trkpt lat="47.36937" lon="-0.41382">
        <ele>69.6</ele>
        <time>2023-07-19T14:52:09Z</time>
      </trkpt>
      <trkpt lat="47.36939" lon="-0.41379">
        <ele>69.6</ele>
        <time>2023-07-19T14:52:10Z</time>
      </trkpt>
      <trkpt lat="47.36941" lon="-0.41377">
        <ele>69.6</ele>
        <time>2023-07-19T14:52:11Z</time>
      </trkpt>
      <trkpt lat="47.36943" lon="-0.41373">
        <ele>69.6</ele>
        <time>2023-07-19T14:52:12Z</time>
      </trkpt>
      <trkpt lat="47.36944" lon="-0.41371">
        <ele>69.6</ele>
        <time>2023-07-19T14:52:13Z</time>
      </trkpt>
      <trkpt lat="47.36945" lon="-0.4137">
        <ele>69.6</ele>
        <time>2023-07-19T14:52:14Z</time>
      </trkpt>
      <trkpt lat="47.36945" lon="-0.41371">
        <ele>69.6</ele>
        <time>2023-07-19T14:52:15Z</time>
      </trkpt>
      <trkpt lat="47.36945" lon="-0.41371">
        <ele>69.6</ele>
        <time>2023-07-19T14:52:16Z</time>
      </trkpt>
      <trkpt lat="47.36945" lon="-0.41371">
        <ele>69.6</ele>
        <time>2023-07-19T14:52:18Z</time>
      </trkpt>
      <trkpt lat="47.36943" lon="-0.41376">
        <ele>70</ele>
        <time>2023-07-19T14:54:20Z</time>
      </trkpt>
      <trkpt lat="47.36942" lon="-0.41378">
        <ele>70</ele>
        <time>2023-07-19T14:54:21Z</time>
      </trkpt>
      <trkpt lat="47.3694" lon="-0.41381">
        <ele>70</ele>
        <time>2023-07-19T14:54:22Z</time>
      </trkpt>
      <trkpt lat="47.36937" lon="-0.41382">
        <ele>70</ele>
        <time>2023-07-19T14:54:23Z</time>
      </trkpt>
      <trkpt lat="47.3693" lon="-0.4139">
        <ele>70</ele>
        <time>2023-07-19T14:54:26Z</time>
      </trkpt>
      <trkpt lat="47.36929" lon="-0.41393">
        <ele>70</ele>
        <time>2023-07-19T14:54:27Z</time>
      </trkpt>
      <trkpt lat="47.36926" lon="-0.41395">
        <ele>70</ele>
        <time>2023-07-19T14:54:28Z</time>
      </trkpt>
      <trkpt lat="47.36917" lon="-0.41408">
        <ele>69.8</ele>
        <time>2023-07-19T14:54:33Z</time>
      </trkpt>
      <trkpt lat="47.36916" lon="-0.41411">
        <ele>69.8</ele>
        <time>2023-07-19T14:54:34Z</time>
      </trkpt>
      <trkpt lat="47.36917" lon="-0.41414">
        <ele>69.8</ele>
        <time>2023-07-19T14:54:35Z</time>
      </trkpt>
      <trkpt lat="47.36918" lon="-0.41418">
        <ele>69.8</ele>
        <time>2023-07-19T14:54:36Z</time>
      </trkpt>
      <trkpt lat="47.36919" lon="-0.4142">
        <ele>69.8</ele>
        <time>2023-07-19T14:54:37Z</time>
      </trkpt>
      <trkpt lat="47.36923" lon="-0.41425">
        <ele>69.8</ele>
        <time>2023-07-19T14:54:39Z</time>
      </trkpt>
      <trkpt lat="47.36925" lon="-0.41428">
        <ele>69.8</ele>
        <time>2023-07-19T14:54:40Z</time>
      </trkpt>
      <trkpt lat="47.36933" lon="-0.41436">
        <ele>69.8</ele>
        <time>2023-07-19T14:54:44Z</time>
      </trkpt>
      <trkpt lat="47.36935" lon="-0.41438">
        <ele>69.8</ele>
        <time>2023-07-19T14:54:45Z</time>
      </trkpt>
      <trkpt lat="47.36954" lon="-0.41458">
        <ele>70.2</ele>
        <time>2023-07-19T14:54:53Z</time>
      </trkpt>
      <trkpt lat="47.36976" lon="-0.41482">
        <ele>70.4</ele>
        <time>2023-07-19T14:55:02Z</time>
      </trkpt>
      <trkpt lat="47.36997" lon="-0.41504">
        <ele>70</ele>
        <time>2023-07-19T14:55:10Z</time>
      </trkpt>
      <trkpt lat="47.37016" lon="-0.41524">
        <ele>69.6</ele>
        <time>2023-07-19T14:55:16Z</time>
      </trkpt>
      <trkpt lat="47.37019" lon="-0.41528">
        <ele>69.2</ele>
        <time>2023-07-19T14:55:17Z</time>
      </trkpt>
      <trkpt lat="47.37046" lon="-0.41558">
        <ele>68.2</ele>
        <time>2023-07-19T14:55:24Z</time>
      </trkpt>
      <trkpt lat="47.37059" lon="-0.41573">
        <ele>68</ele>
        <time>2023-07-19T14:55:27Z</time>
      </trkpt>
      <trkpt lat="47.37072" lon="-0.41586">
        <ele>67</ele>
        <time>2023-07-19T14:55:30Z</time>
      </trkpt>
      <trkpt lat="47.37076" lon="-0.4159">
        <ele>66.6</ele>
        <time>2023-07-19T14:55:31Z</time>
      </trkpt>
      <trkpt lat="47.37093" lon="-0.41603">
        <ele>66.2</ele>
        <time>2023-07-19T14:55:35Z</time>
      </trkpt>
      <trkpt lat="47.37097" lon="-0.41606">
        <ele>66.2</ele>
        <time>2023-07-19T14:55:36Z</time>
      </trkpt>
      <trkpt lat="47.37101" lon="-0.41609">
        <ele>66.2</ele>
        <time>2023-07-19T14:55:37Z</time>
      </trkpt>
      <trkpt lat="47.37104" lon="-0.41611">
        <ele>66.2</ele>
        <time>2023-07-19T14:55:38Z</time>
      </trkpt>
      <trkpt lat="47.37107" lon="-0.41613">
        <ele>66.2</ele>
        <time>2023-07-19T14:55:39Z</time>
      </trkpt>
      <trkpt lat="47.3711" lon="-0.41615">
        <ele>66.2</ele>
        <time>2023-07-19T14:55:40Z</time>
      </trkpt>
      <trkpt lat="47.37113" lon="-0.41617">
        <ele>66.2</ele>
        <time>2023-07-19T14:55:41Z</time>
      </trkpt>
      <trkpt lat="47.37116" lon="-0.41619">
        <ele>66.2</ele>
        <time>2023-07-19T14:55:42Z</time>
      </trkpt>
      <trkpt lat="47.37119" lon="-0.4162">
        <ele>66.2</ele>
        <time>2023-07-19T14:55:43Z</time>
      </trkpt>
      <trkpt lat="47.37121" lon="-0.41623">
        <ele>66.4</ele>
        <time>2023-07-19T14:55:44Z</time>
      </trkpt>
      <trkpt lat="47.37126" lon="-0.41626">
        <ele>66.4</ele>
        <time>2023-07-19T14:55:46Z</time>
      </trkpt>
      <trkpt lat="47.37129" lon="-0.41627">
        <ele>66.4</ele>
        <time>2023-07-19T14:55:47Z</time>
      </trkpt>
      <trkpt lat="47.37131" lon="-0.41629">
        <ele>66.8</ele>
        <time>2023-07-19T14:55:48Z</time>
      </trkpt>
      <trkpt lat="47.37133" lon="-0.41631">
        <ele>66.8</ele>
        <time>2023-07-19T14:55:49Z</time>
      </trkpt>
      <trkpt lat="47.37135" lon="-0.41633">
        <ele>67.2</ele>
        <time>2023-07-19T14:55:50Z</time>
      </trkpt>
      <trkpt lat="47.37138" lon="-0.41634">
        <ele>67.4</ele>
        <time>2023-07-19T14:55:51Z</time>
      </trkpt>
      <trkpt lat="47.3714" lon="-0.41635">
        <ele>67.8</ele>
        <time>2023-07-19T14:55:52Z</time>
      </trkpt>
      <trkpt lat="47.37142" lon="-0.41637">
        <ele>67.8</ele>
        <time>2023-07-19T14:55:53Z</time>
      </trkpt>
      <trkpt lat="47.37144" lon="-0.41638">
        <ele>68</ele>
        <time>2023-07-19T14:55:54Z</time>
      </trkpt>
      <trkpt lat="47.37146" lon="-0.4164">
        <ele>68.2</ele>
        <time>2023-07-19T14:55:55Z</time>
      </trkpt>
      <trkpt lat="47.37148" lon="-0.41641">
        <ele>68.2</ele>
        <time>2023-07-19T14:55:56Z</time>
      </trkpt>
      <trkpt lat="47.37149" lon="-0.41642">
        <ele>68.4</ele>
        <time>2023-07-19T14:55:57Z</time>
      </trkpt>
      <trkpt lat="47.37151" lon="-0.41643">
        <ele>68.4</ele>
        <time>2023-07-19T14:55:58Z</time>
      </trkpt>
      <trkpt lat="47.37153" lon="-0.41644">
        <ele>68.6</ele>
        <time>2023-07-19T14:55:59Z</time>
      </trkpt>
      <trkpt lat="47.37155" lon="-0.41646">
        <ele>68.8</ele>
        <time>2023-07-19T14:56:00Z</time>
      </trkpt>
      <trkpt lat="47.37157" lon="-0.41647">
        <ele>68.8</ele>
        <time>2023-07-19T14:56:01Z</time>
      </trkpt>
      <trkpt lat="47.37159" lon="-0.41648">
        <ele>69</ele>
        <time>2023-07-19T14:56:02Z</time>
      </trkpt>
      <trkpt lat="47.3716" lon="-0.41649">
        <ele>69.2</ele>
        <time>2023-07-19T14:56:03Z</time>
      </trkpt>
      <trkpt lat="47.37162" lon="-0.41651">
        <ele>69.2</ele>
        <time>2023-07-19T14:56:04Z</time>
      </trkpt>
      <trkpt lat="47.37163" lon="-0.41652">
        <ele>69.2</ele>
        <time>2023-07-19T14:56:05Z</time>
      </trkpt>
      <trkpt lat="47.37165" lon="-0.41652">
        <ele>69.4</ele>
        <time>2023-07-19T14:56:06Z</time>
      </trkpt>
      <trkpt lat="47.37167" lon="-0.41652">
        <ele>69.6</ele>
        <time>2023-07-19T14:56:07Z</time>
      </trkpt>
      <trkpt lat="47.37169" lon="-0.41653">
        <ele>70</ele>
        <time>2023-07-19T14:56:08Z</time>
      </trkpt>
      <trkpt lat="47.37173" lon="-0.41655">
        <ele>70.6</ele>
        <time>2023-07-19T14:56:10Z</time>
      </trkpt>
      <trkpt lat="47.37175" lon="-0.41656">
        <ele>70.6</ele>
        <time>2023-07-19T14:56:11Z</time>
      </trkpt>
      <trkpt lat="47.37177" lon="-0.41657">
        <ele>70.8</ele>
        <time>2023-07-19T14:56:12Z</time>
      </trkpt>
      <trkpt lat="47.37179" lon="-0.41658">
        <ele>70.8</ele>
        <time>2023-07-19T14:56:13Z</time>
      </trkpt>
      <trkpt lat="47.37181" lon="-0.4166">
        <ele>71</ele>
        <time>2023-07-19T14:56:14Z</time>
      </trkpt>
      <trkpt lat="47.37183" lon="-0.41661">
        <ele>71</ele>
        <time>2023-07-19T14:56:15Z</time>
      </trkpt>
      <trkpt lat="47.37184" lon="-0.41662">
        <ele>71.2</ele>
        <time>2023-07-19T14:56:16Z</time>
      </trkpt>
      <trkpt lat="47.37186" lon="-0.41664">
        <ele>71.2</ele>
        <time>2023-07-19T14:56:17Z</time>
      </trkpt>
      <trkpt lat="47.37188" lon="-0.41665">
        <ele>71.4</ele>
        <time>2023-07-19T14:56:18Z</time>
      </trkpt>
      <trkpt lat="47.3719" lon="-0.41666">
        <ele>71.4</ele>
        <time>2023-07-19T14:56:19Z</time>
      </trkpt>
      <trkpt lat="47.37192" lon="-0.41667">
        <ele>71.6</ele>
        <time>2023-07-19T14:56:20Z</time>
      </trkpt>
      <trkpt lat="47.37193" lon="-0.41669">
        <ele>71.6</ele>
        <time>2023-07-19T14:56:21Z</time>
      </trkpt>
      <trkpt lat="47.37195" lon="-0.4167">
        <ele>71.6</ele>
        <time>2023-07-19T14:56:22Z</time>
      </trkpt>
      <trkpt lat="47.37198" lon="-0.41671">
        <ele>71.8</ele>
        <time>2023-07-19T14:56:23Z</time>
      </trkpt>
      <trkpt lat="47.372" lon="-0.41672">
        <ele>72</ele>
        <time>2023-07-19T14:56:24Z</time>
      </trkpt>
      <trkpt lat="47.37202" lon="-0.41673">
        <ele>72.2</ele>
        <time>2023-07-19T14:56:25Z</time>
      </trkpt>
      <trkpt lat="47.37204" lon="-0.41675">
        <ele>72.4</ele>
        <time>2023-07-19T14:56:26Z</time>
      </trkpt>
      <trkpt lat="47.37206" lon="-0.41676">
        <ele>72.4</ele>
        <time>2023-07-19T14:56:27Z</time>
      </trkpt>
      <trkpt lat="47.37208" lon="-0.41677">
        <ele>72.6</ele>
        <time>2023-07-19T14:56:28Z</time>
      </trkpt>
      <trkpt lat="47.3721" lon="-0.41679">
        <ele>72.6</ele>
        <time>2023-07-19T14:56:29Z</time>
      </trkpt>
      <trkpt lat="47.37212" lon="-0.41681">
        <ele>72.8</ele>
        <time>2023-07-19T14:56:30Z</time>
      </trkpt>
      <trkpt lat="47.37214" lon="-0.41682">
        <ele>73</ele>
        <time>2023-07-19T14:56:31Z</time>
      </trkpt>
      <trkpt lat="47.37217" lon="-0.41684">
        <ele>73.2</ele>
        <time>2023-07-19T14:56:32Z</time>
      </trkpt>
      <trkpt lat="47.37219" lon="-0.41685">
        <ele>73.2</ele>
        <time>2023-07-19T14:56:33Z</time>
      </trkpt>
      <trkpt lat="47.37222" lon="-0.41686">
        <ele>73.2</ele>
        <time>2023-07-19T14:56:34Z</time>
      </trkpt>
      <trkpt lat="47.37224" lon="-0.41688">
        <ele>73.2</ele>
        <time>2023-07-19T14:56:35Z</time>
      </trkpt>
      <trkpt lat="47.37226" lon="-0.41689">
        <ele>73.4</ele>
        <time>2023-07-19T14:56:36Z</time>
      </trkpt>
      <trkpt lat="47.37228" lon="-0.41691">
        <ele>73.4</ele>
        <time>2023-07-19T14:56:37Z</time>
      </trkpt>
      <trkpt lat="47.3723" lon="-0.41693">
        <ele>73.4</ele>
        <time>2023-07-19T14:56:38Z</time>
      </trkpt>
      <trkpt lat="47.37233" lon="-0.41694">
        <ele>73.6</ele>
        <time>2023-07-19T14:56:39Z</time>
      </trkpt>
      <trkpt lat="47.37235" lon="-0.41696">
        <ele>73.6</ele>
        <time>2023-07-19T14:56:40Z</time>
      </trkpt>
      <trkpt lat="47.37237" lon="-0.41697">
        <ele>73.8</ele>
        <time>2023-07-19T14:56:41Z</time>
      </trkpt>
      <trkpt lat="47.37239" lon="-0.41699">
        <ele>73.8</ele>
        <time>2023-07-19T14:56:42Z</time>
      </trkpt>
      <trkpt lat="47.37241" lon="-0.417">
        <ele>73.8</ele>
        <time>2023-07-19T14:56:43Z</time>
      </trkpt>
      <trkpt lat="47.37243" lon="-0.41701">
        <ele>74</ele>
        <time>2023-07-19T14:56:44Z</time>
      </trkpt>
      <trkpt lat="47.37245" lon="-0.41702">
        <ele>74</ele>
        <time>2023-07-19T14:56:45Z</time>
      </trkpt>
      <trkpt lat="47.37247" lon="-0.41704">
        <ele>74</ele>
        <time>2023-07-19T14:56:46Z</time>
      </trkpt>
      <trkpt lat="47.3725" lon="-0.41705">
        <ele>74</ele>
        <time>2023-07-19T14:56:47Z</time>
      </trkpt>
      <trkpt lat="47.37252" lon="-0.41706">
        <ele>74</ele>
        <time>2023-07-19T14:56:48Z</time>
      </trkpt>
      <trkpt lat="47.37254" lon="-0.41707">
        <ele>74.2</ele>
        <time>2023-07-19T14:56:49Z</time>
      </trkpt>
      <trkpt lat="47.37265" lon="-0.41716">
        <ele>74.2</ele>
        <time>2023-07-19T14:56:54Z</time>
      </trkpt>
      <trkpt lat="47.37286" lon="-0.4174">
        <ele>74.4</ele>
        <time>2023-07-19T14:57:04Z</time>
      </trkpt>
      <trkpt lat="47.373" lon="-0.41761">
        <ele>74.4</ele>
        <time>2023-07-19T14:57:11Z</time>
      </trkpt>
      <trkpt lat="47.3731" lon="-0.41774">
        <ele>74.4</ele>
        <time>2023-07-19T14:57:16Z</time>
      </trkpt>
      <trkpt lat="47.37312" lon="-0.41776">
        <ele>74.4</ele>
        <time>2023-07-19T14:57:17Z</time>
      </trkpt>
      <trkpt lat="47.37314" lon="-0.41779">
        <ele>74.4</ele>
        <time>2023-07-19T14:57:18Z</time>
      </trkpt>
      <trkpt lat="47.37316" lon="-0.41782">
        <ele>74.4</ele>
        <time>2023-07-19T14:57:19Z</time>
      </trkpt>
      <trkpt lat="47.37318" lon="-0.41784">
        <ele>74.4</ele>
        <time>2023-07-19T14:57:20Z</time>
      </trkpt>
      <trkpt lat="47.3732" lon="-0.41788">
        <ele>74.4</ele>
        <time>2023-07-19T14:57:21Z</time>
      </trkpt>
      <trkpt lat="47.37322" lon="-0.4179">
        <ele>74.4</ele>
        <time>2023-07-19T14:57:22Z</time>
      </trkpt>
      <trkpt lat="47.37331" lon="-0.41803">
        <ele>74.2</ele>
        <time>2023-07-19T14:57:26Z</time>
      </trkpt>
      <trkpt lat="47.37348" lon="-0.41827">
        <ele>73.8</ele>
        <time>2023-07-19T14:57:33Z</time>
      </trkpt>
      <trkpt lat="47.37367" lon="-0.41853">
        <ele>73.4</ele>
        <time>2023-07-19T14:57:41Z</time>
      </trkpt>
      <trkpt lat="47.37369" lon="-0.41855">
        <ele>73.4</ele>
        <time>2023-07-19T14:57:42Z</time>
      </trkpt>
      <trkpt lat="47.3737" lon="-0.41857">
        <ele>73.6</ele>
        <time>2023-07-19T14:57:43Z</time>
      </trkpt>
      <trkpt lat="47.37372" lon="-0.41859">
        <ele>73.4</ele>
        <time>2023-07-19T14:57:44Z</time>
      </trkpt>
      <trkpt lat="47.37373" lon="-0.41861">
        <ele>73.4</ele>
        <time>2023-07-19T14:57:45Z</time>
      </trkpt>
      <trkpt lat="47.37386" lon="-0.41877">
        <ele>73</ele>
        <time>2023-07-19T14:57:51Z</time>
      </trkpt>
      <trkpt lat="47.37388" lon="-0.4188">
        <ele>73</ele>
        <time>2023-07-19T14:57:52Z</time>
      </trkpt>
      <trkpt lat="47.37404" lon="-0.41891">
        <ele>72.8</ele>
        <time>2023-07-19T14:57:57Z</time>
      </trkpt>
      <trkpt lat="47.37434" lon="-0.41911">
        <ele>71.8</ele>
        <time>2023-07-19T14:58:06Z</time>
      </trkpt>
      <trkpt lat="47.3746" lon="-0.4193">
        <ele>70.8</ele>
        <time>2023-07-19T14:58:14Z</time>
      </trkpt>
      <trkpt lat="47.37462" lon="-0.41932">
        <ele>70.8</ele>
        <time>2023-07-19T14:58:15Z</time>
      </trkpt>
      <trkpt lat="47.37464" lon="-0.41934">
        <ele>70.8</ele>
        <time>2023-07-19T14:58:16Z</time>
      </trkpt>
      <trkpt lat="47.37467" lon="-0.41936">
        <ele>70.8</ele>
        <time>2023-07-19T14:58:17Z</time>
      </trkpt>
      <trkpt lat="47.37475" lon="-0.41942">
        <ele>70.8</ele>
        <time>2023-07-19T14:58:20Z</time>
      </trkpt>
      <trkpt lat="47.37493" lon="-0.41952">
        <ele>71</ele>
        <time>2023-07-19T14:58:26Z</time>
      </trkpt>
      <trkpt lat="47.37501" lon="-0.41956">
        <ele>71.2</ele>
        <time>2023-07-19T14:58:29Z</time>
      </trkpt>
      <trkpt lat="47.37509" lon="-0.4196">
        <ele>71.2</ele>
        <time>2023-07-19T14:58:32Z</time>
      </trkpt>
      <trkpt lat="47.37512" lon="-0.41961">
        <ele>71.2</ele>
        <time>2023-07-19T14:58:33Z</time>
      </trkpt>
      <trkpt lat="47.37514" lon="-0.41962">
        <ele>71.2</ele>
        <time>2023-07-19T14:58:34Z</time>
      </trkpt>
      <trkpt lat="47.37517" lon="-0.41963">
        <ele>71.4</ele>
        <time>2023-07-19T14:58:35Z</time>
      </trkpt>
      <trkpt lat="47.37519" lon="-0.41965">
        <ele>71.4</ele>
        <time>2023-07-19T14:58:36Z</time>
      </trkpt>
      <trkpt lat="47.37521" lon="-0.41966">
        <ele>71.4</ele>
        <time>2023-07-19T14:58:37Z</time>
      </trkpt>
      <trkpt lat="47.37523" lon="-0.41967">
        <ele>71.4</ele>
        <time>2023-07-19T14:58:38Z</time>
      </trkpt>
      <trkpt lat="47.37526" lon="-0.41968">
        <ele>71.6</ele>
        <time>2023-07-19T14:58:39Z</time>
      </trkpt>
      <trkpt lat="47.37528" lon="-0.41968">
        <ele>71.8</ele>
        <time>2023-07-19T14:58:40Z</time>
      </trkpt>
      <trkpt lat="47.3753" lon="-0.41969">
        <ele>72</ele>
        <time>2023-07-19T14:58:41Z</time>
      </trkpt>
      <trkpt lat="47.37533" lon="-0.4197">
        <ele>72</ele>
        <time>2023-07-19T14:58:42Z</time>
      </trkpt>
      <trkpt lat="47.37535" lon="-0.4197">
        <ele>72.2</ele>
        <time>2023-07-19T14:58:43Z</time>
      </trkpt>
      <trkpt lat="47.37537" lon="-0.41971">
        <ele>72.2</ele>
        <time>2023-07-19T14:58:44Z</time>
      </trkpt>
      <trkpt lat="47.3754" lon="-0.41972">
        <ele>72.2</ele>
        <time>2023-07-19T14:58:45Z</time>
      </trkpt>
      <trkpt lat="47.37542" lon="-0.41973">
        <ele>72.2</ele>
        <time>2023-07-19T14:58:46Z</time>
      </trkpt>
      <trkpt lat="47.37558" lon="-0.41977">
        <ele>72.8</ele>
        <time>2023-07-19T14:58:52Z</time>
      </trkpt>
      <trkpt lat="47.37559" lon="-0.41978">
        <ele>73.2</ele>
        <time>2023-07-19T14:58:53Z</time>
      </trkpt>
      <trkpt lat="47.37561" lon="-0.41979">
        <ele>73.6</ele>
        <time>2023-07-19T14:58:54Z</time>
      </trkpt>
      <trkpt lat="47.37569" lon="-0.41982">
        <ele>74</ele>
        <time>2023-07-19T14:58:57Z</time>
      </trkpt>
      <trkpt lat="47.37571" lon="-0.41983">
        <ele>74</ele>
        <time>2023-07-19T14:58:58Z</time>
      </trkpt>
      <trkpt lat="47.37573" lon="-0.41984">
        <ele>74</ele>
        <time>2023-07-19T14:58:59Z</time>
      </trkpt>
      <trkpt lat="47.37575" lon="-0.41985">
        <ele>74</ele>
        <time>2023-07-19T14:59:00Z</time>
      </trkpt>
      <trkpt lat="47.37577" lon="-0.41986">
        <ele>74.2</ele>
        <time>2023-07-19T14:59:01Z</time>
      </trkpt>
      <trkpt lat="47.37578" lon="-0.41986">
        <ele>74.4</ele>
        <time>2023-07-19T14:59:02Z</time>
      </trkpt>
      <trkpt lat="47.3758" lon="-0.41986">
        <ele>74.4</ele>
        <time>2023-07-19T14:59:03Z</time>
      </trkpt>
      <trkpt lat="47.37582" lon="-0.41987">
        <ele>74.6</ele>
        <time>2023-07-19T14:59:04Z</time>
      </trkpt>
      <trkpt lat="47.37585" lon="-0.41988">
        <ele>74.6</ele>
        <time>2023-07-19T14:59:05Z</time>
      </trkpt>
      <trkpt lat="47.37587" lon="-0.41988">
        <ele>74.8</ele>
        <time>2023-07-19T14:59:06Z</time>
      </trkpt>
      <trkpt lat="47.37589" lon="-0.41989">
        <ele>74.8</ele>
        <time>2023-07-19T14:59:07Z</time>
      </trkpt>
      <trkpt lat="47.37591" lon="-0.4199">
        <ele>74.8</ele>
        <time>2023-07-19T14:59:08Z</time>
      </trkpt>
      <trkpt lat="47.37593" lon="-0.41991">
        <ele>75</ele>
        <time>2023-07-19T14:59:09Z</time>
      </trkpt>
      <trkpt lat="47.37596" lon="-0.41992">
        <ele>75</ele>
        <time>2023-07-19T14:59:10Z</time>
      </trkpt>
      <trkpt lat="47.37598" lon="-0.41993">
        <ele>75.2</ele>
        <time>2023-07-19T14:59:11Z</time>
      </trkpt>
      <trkpt lat="47.376" lon="-0.41993">
        <ele>75.2</ele>
        <time>2023-07-19T14:59:12Z</time>
      </trkpt>
      <trkpt lat="47.37602" lon="-0.41994">
        <ele>75.2</ele>
        <time>2023-07-19T14:59:13Z</time>
      </trkpt>
      <trkpt lat="47.37605" lon="-0.41995">
        <ele>75.4</ele>
        <time>2023-07-19T14:59:14Z</time>
      </trkpt>
      <trkpt lat="47.37607" lon="-0.41996">
        <ele>75.4</ele>
        <time>2023-07-19T14:59:15Z</time>
      </trkpt>
      <trkpt lat="47.3761" lon="-0.41997">
        <ele>75.4</ele>
        <time>2023-07-19T14:59:16Z</time>
      </trkpt>
      <trkpt lat="47.37612" lon="-0.41998">
        <ele>75.4</ele>
        <time>2023-07-19T14:59:17Z</time>
      </trkpt>
      <trkpt lat="47.37623" lon="-0.42003">
        <ele>75.4</ele>
        <time>2023-07-19T14:59:21Z</time>
      </trkpt>
      <trkpt lat="47.37643" lon="-0.42016">
        <ele>75.8</ele>
        <time>2023-07-19T14:59:29Z</time>
      </trkpt>
      <trkpt lat="47.37645" lon="-0.42019">
        <ele>75.8</ele>
        <time>2023-07-19T14:59:30Z</time>
      </trkpt>
      <trkpt lat="47.37652" lon="-0.42024">
        <ele>75.8</ele>
        <time>2023-07-19T14:59:33Z</time>
      </trkpt>
      <trkpt lat="47.37662" lon="-0.42032">
        <ele>75.6</ele>
        <time>2023-07-19T14:59:37Z</time>
      </trkpt>
      <trkpt lat="47.37665" lon="-0.42034">
        <ele>75.6</ele>
        <time>2023-07-19T14:59:38Z</time>
      </trkpt>
      <trkpt lat="47.37667" lon="-0.42036">
        <ele>75.6</ele>
        <time>2023-07-19T14:59:39Z</time>
      </trkpt>
      <trkpt lat="47.37669" lon="-0.42038">
        <ele>75.6</ele>
        <time>2023-07-19T14:59:40Z</time>
      </trkpt>
      <trkpt lat="47.37671" lon="-0.42039">
        <ele>75.6</ele>
        <time>2023-07-19T14:59:41Z</time>
      </trkpt>
      <trkpt lat="47.37673" lon="-0.42041">
        <ele>75.6</ele>
        <time>2023-07-19T14:59:42Z</time>
      </trkpt>
      <trkpt lat="47.37676" lon="-0.42042">
        <ele>75.4</ele>
        <time>2023-07-19T14:59:43Z</time>
      </trkpt>
      <trkpt lat="47.37687" lon="-0.42049">
        <ele>75.2</ele>
        <time>2023-07-19T14:59:47Z</time>
      </trkpt>
      <trkpt lat="47.3769" lon="-0.4205">
        <ele>75.2</ele>
        <time>2023-07-19T14:59:48Z</time>
      </trkpt>
      <trkpt lat="47.37703" lon="-0.4205">
        <ele>75</ele>
        <time>2023-07-19T14:59:53Z</time>
      </trkpt>
      <trkpt lat="47.37705" lon="-0.42048">
        <ele>75</ele>
        <time>2023-07-19T14:59:54Z</time>
      </trkpt>
      <trkpt lat="47.37706" lon="-0.42046">
        <ele>75</ele>
        <time>2023-07-19T14:59:55Z</time>
      </trkpt>
      <trkpt lat="47.37708" lon="-0.42043">
        <ele>75.2</ele>
        <time>2023-07-19T14:59:56Z</time>
      </trkpt>
      <trkpt lat="47.37709" lon="-0.42041">
        <ele>75.2</ele>
        <time>2023-07-19T14:59:57Z</time>
      </trkpt>
      <trkpt lat="47.3771" lon="-0.42038">
        <ele>75</ele>
        <time>2023-07-19T14:59:58Z</time>
      </trkpt>
      <trkpt lat="47.37712" lon="-0.42036">
        <ele>75</ele>
        <time>2023-07-19T14:59:59Z</time>
      </trkpt>
      <trkpt lat="47.37713" lon="-0.42034">
        <ele>75</ele>
        <time>2023-07-19T15:00:00Z</time>
      </trkpt>
      <trkpt lat="47.37714" lon="-0.42031">
        <ele>75</ele>
        <time>2023-07-19T15:00:01Z</time>
      </trkpt>
      <trkpt lat="47.37715" lon="-0.42028">
        <ele>75</ele>
        <time>2023-07-19T15:00:02Z</time>
      </trkpt>
      <trkpt lat="47.37718" lon="-0.42023">
        <ele>74.8</ele>
        <time>2023-07-19T15:00:04Z</time>
      </trkpt>
      <trkpt lat="47.37719" lon="-0.4202">
        <ele>74.8</ele>
        <time>2023-07-19T15:00:05Z</time>
      </trkpt>
      <trkpt lat="47.3772" lon="-0.42018">
        <ele>74.8</ele>
        <time>2023-07-19T15:00:06Z</time>
      </trkpt>
      <trkpt lat="47.37722" lon="-0.42015">
        <ele>74.8</ele>
        <time>2023-07-19T15:00:07Z</time>
      </trkpt>
      <trkpt lat="47.37723" lon="-0.42013">
        <ele>74.8</ele>
        <time>2023-07-19T15:00:08Z</time>
      </trkpt>
      <trkpt lat="47.37725" lon="-0.42009">
        <ele>74.8</ele>
        <time>2023-07-19T15:00:10Z</time>
      </trkpt>
      <trkpt lat="47.37725" lon="-0.42008">
        <ele>74.8</ele>
        <time>2023-07-19T15:00:12Z</time>
      </trkpt>
      <trkpt lat="47.37728" lon="-0.42004">
        <ele>74</ele>
        <time>2023-07-19T15:01:27Z</time>
      </trkpt>
      <trkpt lat="47.37729" lon="-0.42002">
        <ele>73.8</ele>
        <time>2023-07-19T15:01:28Z</time>
      </trkpt>
      <trkpt lat="47.37731" lon="-0.41997">
        <ele>73.8</ele>
        <time>2023-07-19T15:01:30Z</time>
      </trkpt>
      <trkpt lat="47.37734" lon="-0.41991">
        <ele>73.8</ele>
        <time>2023-07-19T15:01:32Z</time>
      </trkpt>
      <trkpt lat="47.3774" lon="-0.41979">
        <ele>73.8</ele>
        <time>2023-07-19T15:01:36Z</time>
      </trkpt>
      <trkpt lat="47.37753" lon="-0.41958">
        <ele>74</ele>
        <time>2023-07-19T15:01:43Z</time>
      </trkpt>
      <trkpt lat="47.37767" lon="-0.4194">
        <ele>74</ele>
        <time>2023-07-19T15:01:50Z</time>
      </trkpt>
      <trkpt lat="47.37783" lon="-0.41917">
        <ele>74.2</ele>
        <time>2023-07-19T15:01:58Z</time>
      </trkpt>
      <trkpt lat="47.37807" lon="-0.41895">
        <ele>74.4</ele>
        <time>2023-07-19T15:02:07Z</time>
      </trkpt>
      <trkpt lat="47.37825" lon="-0.41885">
        <ele>74.6</ele>
        <time>2023-07-19T15:02:14Z</time>
      </trkpt>
      <trkpt lat="47.37827" lon="-0.41883">
        <ele>74.6</ele>
        <time>2023-07-19T15:02:15Z</time>
      </trkpt>
      <trkpt lat="47.3783" lon="-0.41882">
        <ele>74.4</ele>
        <time>2023-07-19T15:02:16Z</time>
      </trkpt>
      <trkpt lat="47.37832" lon="-0.41881">
        <ele>74.4</ele>
        <time>2023-07-19T15:02:17Z</time>
      </trkpt>
      <trkpt lat="47.37835" lon="-0.4188">
        <ele>74.4</ele>
        <time>2023-07-19T15:02:18Z</time>
      </trkpt>
      <trkpt lat="47.37838" lon="-0.41878">
        <ele>74.6</ele>
        <time>2023-07-19T15:02:19Z</time>
      </trkpt>
      <trkpt lat="47.3784" lon="-0.41877">
        <ele>74.6</ele>
        <time>2023-07-19T15:02:20Z</time>
      </trkpt>
      <trkpt lat="47.37843" lon="-0.41875">
        <ele>74.6</ele>
        <time>2023-07-19T15:02:21Z</time>
      </trkpt>
      <trkpt lat="47.37846" lon="-0.41874">
        <ele>74.6</ele>
        <time>2023-07-19T15:02:22Z</time>
      </trkpt>
      <trkpt lat="47.3787" lon="-0.41868">
        <ele>74.6</ele>
        <time>2023-07-19T15:02:31Z</time>
      </trkpt>
      <trkpt lat="47.37872" lon="-0.4187">
        <ele>74.6</ele>
        <time>2023-07-19T15:02:32Z</time>
      </trkpt>
      <trkpt lat="47.37876" lon="-0.41877">
        <ele>74.6</ele>
        <time>2023-07-19T15:02:34Z</time>
      </trkpt>
      <trkpt lat="47.37877" lon="-0.41881">
        <ele>74.4</ele>
        <time>2023-07-19T15:02:35Z</time>
      </trkpt>
      <trkpt lat="47.37878" lon="-0.41885">
        <ele>74.4</ele>
        <time>2023-07-19T15:02:36Z</time>
      </trkpt>
      <trkpt lat="47.37879" lon="-0.41888">
        <ele>74.2</ele>
        <time>2023-07-19T15:02:37Z</time>
      </trkpt>
      <trkpt lat="47.3788" lon="-0.41892">
        <ele>74.2</ele>
        <time>2023-07-19T15:02:38Z</time>
      </trkpt>
      <trkpt lat="47.37881" lon="-0.41896">
        <ele>74</ele>
        <time>2023-07-19T15:02:39Z</time>
      </trkpt>
      <trkpt lat="47.37883" lon="-0.41904">
        <ele>74</ele>
        <time>2023-07-19T15:02:41Z</time>
      </trkpt>
      <trkpt lat="47.37884" lon="-0.41908">
        <ele>74.2</ele>
        <time>2023-07-19T15:02:42Z</time>
      </trkpt>
      <trkpt lat="47.37889" lon="-0.41924">
        <ele>73.8</ele>
        <time>2023-07-19T15:02:46Z</time>
      </trkpt>
      <trkpt lat="47.37895" lon="-0.41943">
        <ele>73.6</ele>
        <time>2023-07-19T15:02:51Z</time>
      </trkpt>
      <trkpt lat="47.37896" lon="-0.41947">
        <ele>73.6</ele>
        <time>2023-07-19T15:02:52Z</time>
      </trkpt>
      <trkpt lat="47.37897" lon="-0.4195">
        <ele>73.4</ele>
        <time>2023-07-19T15:02:53Z</time>
      </trkpt>
      <trkpt lat="47.37903" lon="-0.41965">
        <ele>73.4</ele>
        <time>2023-07-19T15:02:57Z</time>
      </trkpt>
      <trkpt lat="47.37913" lon="-0.41995">
        <ele>73.4</ele>
        <time>2023-07-19T15:03:04Z</time>
      </trkpt>
      <trkpt lat="47.37914" lon="-0.41999">
        <ele>73.2</ele>
        <time>2023-07-19T15:03:05Z</time>
      </trkpt>
      <trkpt lat="47.37918" lon="-0.42012">
        <ele>73.2</ele>
        <time>2023-07-19T15:03:08Z</time>
      </trkpt>
      <trkpt lat="47.37919" lon="-0.42016">
        <ele>73.2</ele>
        <time>2023-07-19T15:03:09Z</time>
      </trkpt>
      <trkpt lat="47.3792" lon="-0.4202">
        <ele>73</ele>
        <time>2023-07-19T15:03:10Z</time>
      </trkpt>
      <trkpt lat="47.37925" lon="-0.4204">
        <ele>72.6</ele>
        <time>2023-07-19T15:03:14Z</time>
      </trkpt>
      <trkpt lat="47.3793" lon="-0.42064">
        <ele>72</ele>
        <time>2023-07-19T15:03:19Z</time>
      </trkpt>
      <trkpt lat="47.37932" lon="-0.42074">
        <ele>71.6</ele>
        <time>2023-07-19T15:03:21Z</time>
      </trkpt>
      <trkpt lat="47.37934" lon="-0.42082">
        <ele>71.4</ele>
        <time>2023-07-19T15:03:23Z</time>
      </trkpt>
      <trkpt lat="47.37936" lon="-0.42087">
        <ele>71.2</ele>
        <time>2023-07-19T15:03:24Z</time>
      </trkpt>
      <trkpt lat="47.37937" lon="-0.42091">
        <ele>71.2</ele>
        <time>2023-07-19T15:03:25Z</time>
      </trkpt>
      <trkpt lat="47.37941" lon="-0.4211">
        <ele>71</ele>
        <time>2023-07-19T15:03:29Z</time>
      </trkpt>
      <trkpt lat="47.37945" lon="-0.42125">
        <ele>70.8</ele>
        <time>2023-07-19T15:03:32Z</time>
      </trkpt>
      <trkpt lat="47.37952" lon="-0.42161">
        <ele>70.2</ele>
        <time>2023-07-19T15:03:39Z</time>
      </trkpt>
      <trkpt lat="47.37957" lon="-0.42188">
        <ele>70</ele>
        <time>2023-07-19T15:03:44Z</time>
      </trkpt>
      <trkpt lat="47.37958" lon="-0.42194">
        <ele>69.8</ele>
        <time>2023-07-19T15:03:45Z</time>
      </trkpt>
      <trkpt lat="47.37963" lon="-0.42217">
        <ele>69.6</ele>
        <time>2023-07-19T15:03:49Z</time>
      </trkpt>
      <trkpt lat="47.37969" lon="-0.42234">
        <ele>69.4</ele>
        <time>2023-07-19T15:03:52Z</time>
      </trkpt>
      <trkpt lat="47.37978" lon="-0.42258">
        <ele>68.8</ele>
        <time>2023-07-19T15:03:56Z</time>
      </trkpt>
      <trkpt lat="47.37988" lon="-0.42279">
        <ele>68</ele>
        <time>2023-07-19T15:04:00Z</time>
      </trkpt>
      <trkpt lat="47.37992" lon="-0.42288">
        <ele>67.6</ele>
        <time>2023-07-19T15:04:02Z</time>
      </trkpt>
      <trkpt lat="47.37998" lon="-0.42298">
        <ele>67.2</ele>
        <time>2023-07-19T15:04:04Z</time>
      </trkpt>
      <trkpt lat="47.38" lon="-0.42303">
        <ele>67</ele>
        <time>2023-07-19T15:04:05Z</time>
      </trkpt>
      <trkpt lat="47.38003" lon="-0.42307">
        <ele>67</ele>
        <time>2023-07-19T15:04:06Z</time>
      </trkpt>
      <trkpt lat="47.38005" lon="-0.42312">
        <ele>66.8</ele>
        <time>2023-07-19T15:04:07Z</time>
      </trkpt>
      <trkpt lat="47.38014" lon="-0.42325">
        <ele>66.6</ele>
        <time>2023-07-19T15:04:10Z</time>
      </trkpt>
      <trkpt lat="47.38031" lon="-0.42343">
        <ele>65.8</ele>
        <time>2023-07-19T15:04:15Z</time>
      </trkpt>
      <trkpt lat="47.38035" lon="-0.42346">
        <ele>65.8</ele>
        <time>2023-07-19T15:04:16Z</time>
      </trkpt>
      <trkpt lat="47.38046" lon="-0.42356">
        <ele>65.6</ele>
        <time>2023-07-19T15:04:19Z</time>
      </trkpt>
      <trkpt lat="47.3805" lon="-0.42359">
        <ele>65.4</ele>
        <time>2023-07-19T15:04:20Z</time>
      </trkpt>
      <trkpt lat="47.38054" lon="-0.42362">
        <ele>65.4</ele>
        <time>2023-07-19T15:04:21Z</time>
      </trkpt>
      <trkpt lat="47.38075" lon="-0.4238">
        <ele>65</ele>
        <time>2023-07-19T15:04:27Z</time>
      </trkpt>
      <trkpt lat="47.38078" lon="-0.42382">
        <ele>64.8</ele>
        <time>2023-07-19T15:04:28Z</time>
      </trkpt>
      <trkpt lat="47.38081" lon="-0.42385">
        <ele>64.8</ele>
        <time>2023-07-19T15:04:29Z</time>
      </trkpt>
      <trkpt lat="47.38084" lon="-0.42388">
        <ele>64.8</ele>
        <time>2023-07-19T15:04:30Z</time>
      </trkpt>
      <trkpt lat="47.38087" lon="-0.42391">
        <ele>64.8</ele>
        <time>2023-07-19T15:04:31Z</time>
      </trkpt>
      <trkpt lat="47.38089" lon="-0.42395">
        <ele>64.8</ele>
        <time>2023-07-19T15:04:32Z</time>
      </trkpt>
      <trkpt lat="47.38092" lon="-0.42398">
        <ele>64.8</ele>
        <time>2023-07-19T15:04:33Z</time>
      </trkpt>
      <trkpt lat="47.38095" lon="-0.42401">
        <ele>64.8</ele>
        <time>2023-07-19T15:04:34Z</time>
      </trkpt>
      <trkpt lat="47.38098" lon="-0.42405">
        <ele>64.8</ele>
        <time>2023-07-19T15:04:35Z</time>
      </trkpt>
      <trkpt lat="47.381" lon="-0.42408">
        <ele>64.8</ele>
        <time>2023-07-19T15:04:36Z</time>
      </trkpt>
      <trkpt lat="47.38105" lon="-0.42414">
        <ele>64.8</ele>
        <time>2023-07-19T15:04:38Z</time>
      </trkpt>
      <trkpt lat="47.38107" lon="-0.42418">
        <ele>64.8</ele>
        <time>2023-07-19T15:04:39Z</time>
      </trkpt>
      <trkpt lat="47.38109" lon="-0.4242">
        <ele>64.8</ele>
        <time>2023-07-19T15:04:40Z</time>
      </trkpt>
      <trkpt lat="47.38112" lon="-0.42423">
        <ele>65</ele>
        <time>2023-07-19T15:04:41Z</time>
      </trkpt>
      <trkpt lat="47.38114" lon="-0.42427">
        <ele>65</ele>
        <time>2023-07-19T15:04:42Z</time>
      </trkpt>
      <trkpt lat="47.38116" lon="-0.4243">
        <ele>65</ele>
        <time>2023-07-19T15:04:43Z</time>
      </trkpt>
      <trkpt lat="47.38118" lon="-0.42433">
        <ele>65</ele>
        <time>2023-07-19T15:04:44Z</time>
      </trkpt>
      <trkpt lat="47.3812" lon="-0.42436">
        <ele>65</ele>
        <time>2023-07-19T15:04:45Z</time>
      </trkpt>
      <trkpt lat="47.38122" lon="-0.42439">
        <ele>65.2</ele>
        <time>2023-07-19T15:04:46Z</time>
      </trkpt>
      <trkpt lat="47.38125" lon="-0.42442">
        <ele>65.2</ele>
        <time>2023-07-19T15:04:47Z</time>
      </trkpt>
      <trkpt lat="47.38127" lon="-0.42445">
        <ele>65.2</ele>
        <time>2023-07-19T15:04:48Z</time>
      </trkpt>
      <trkpt lat="47.38129" lon="-0.42447">
        <ele>65.2</ele>
        <time>2023-07-19T15:04:49Z</time>
      </trkpt>
      <trkpt lat="47.38131" lon="-0.4245">
        <ele>65.2</ele>
        <time>2023-07-19T15:04:50Z</time>
      </trkpt>
      <trkpt lat="47.38133" lon="-0.42452">
        <ele>65.2</ele>
        <time>2023-07-19T15:04:51Z</time>
      </trkpt>
      <trkpt lat="47.38135" lon="-0.42455">
        <ele>65.2</ele>
        <time>2023-07-19T15:04:52Z</time>
      </trkpt>
      <trkpt lat="47.38137" lon="-0.42458">
        <ele>65.2</ele>
        <time>2023-07-19T15:04:53Z</time>
      </trkpt>
      <trkpt lat="47.38139" lon="-0.4246">
        <ele>65.4</ele>
        <time>2023-07-19T15:04:54Z</time>
      </trkpt>
      <trkpt lat="47.38141" lon="-0.42462">
        <ele>65.6</ele>
        <time>2023-07-19T15:04:55Z</time>
      </trkpt>
      <trkpt lat="47.38143" lon="-0.42465">
        <ele>65.6</ele>
        <time>2023-07-19T15:04:56Z</time>
      </trkpt>
      <trkpt lat="47.38145" lon="-0.42468">
        <ele>65.8</ele>
        <time>2023-07-19T15:04:57Z</time>
      </trkpt>
      <trkpt lat="47.38146" lon="-0.4247">
        <ele>66</ele>
        <time>2023-07-19T15:04:58Z</time>
      </trkpt>
      <trkpt lat="47.38148" lon="-0.42472">
        <ele>66</ele>
        <time>2023-07-19T15:04:59Z</time>
      </trkpt>
      <trkpt lat="47.3815" lon="-0.42475">
        <ele>66.2</ele>
        <time>2023-07-19T15:05:00Z</time>
      </trkpt>
      <trkpt lat="47.38152" lon="-0.42477">
        <ele>66.4</ele>
        <time>2023-07-19T15:05:01Z</time>
      </trkpt>
      <trkpt lat="47.38154" lon="-0.4248">
        <ele>66.6</ele>
        <time>2023-07-19T15:05:02Z</time>
      </trkpt>
      <trkpt lat="47.38155" lon="-0.42482">
        <ele>66.8</ele>
        <time>2023-07-19T15:05:03Z</time>
      </trkpt>
      <trkpt lat="47.38157" lon="-0.42485">
        <ele>66.8</ele>
        <time>2023-07-19T15:05:04Z</time>
      </trkpt>
      <trkpt lat="47.3816" lon="-0.4249">
        <ele>67</ele>
        <time>2023-07-19T15:05:06Z</time>
      </trkpt>
      <trkpt lat="47.38162" lon="-0.42492">
        <ele>67.2</ele>
        <time>2023-07-19T15:05:07Z</time>
      </trkpt>
      <trkpt lat="47.38164" lon="-0.42494">
        <ele>67.4</ele>
        <time>2023-07-19T15:05:08Z</time>
      </trkpt>
      <trkpt lat="47.38166" lon="-0.42496">
        <ele>67.4</ele>
        <time>2023-07-19T15:05:09Z</time>
      </trkpt>
      <trkpt lat="47.38167" lon="-0.42498">
        <ele>67.6</ele>
        <time>2023-07-19T15:05:10Z</time>
      </trkpt>
      <trkpt lat="47.38169" lon="-0.425">
        <ele>67.8</ele>
        <time>2023-07-19T15:05:11Z</time>
      </trkpt>
      <trkpt lat="47.38171" lon="-0.42503">
        <ele>67.8</ele>
        <time>2023-07-19T15:05:12Z</time>
      </trkpt>
      <trkpt lat="47.38172" lon="-0.42505">
        <ele>68</ele>
        <time>2023-07-19T15:05:13Z</time>
      </trkpt>
      <trkpt lat="47.38175" lon="-0.42509">
        <ele>68</ele>
        <time>2023-07-19T15:05:15Z</time>
      </trkpt>
      <trkpt lat="47.38177" lon="-0.42511">
        <ele>68.2</ele>
        <time>2023-07-19T15:05:16Z</time>
      </trkpt>
      <trkpt lat="47.38178" lon="-0.42513">
        <ele>68.2</ele>
        <time>2023-07-19T15:05:17Z</time>
      </trkpt>
      <trkpt lat="47.3818" lon="-0.42515">
        <ele>68.4</ele>
        <time>2023-07-19T15:05:18Z</time>
      </trkpt>
      <trkpt lat="47.38182" lon="-0.42517">
        <ele>68.6</ele>
        <time>2023-07-19T15:05:19Z</time>
      </trkpt>
      <trkpt lat="47.38183" lon="-0.42519">
        <ele>68.8</ele>
        <time>2023-07-19T15:05:20Z</time>
      </trkpt>
      <trkpt lat="47.38185" lon="-0.42521">
        <ele>69</ele>
        <time>2023-07-19T15:05:21Z</time>
      </trkpt>
      <trkpt lat="47.38187" lon="-0.42523">
        <ele>69</ele>
        <time>2023-07-19T15:05:22Z</time>
      </trkpt>
      <trkpt lat="47.38189" lon="-0.42524">
        <ele>69.2</ele>
        <time>2023-07-19T15:05:23Z</time>
      </trkpt>
      <trkpt lat="47.38191" lon="-0.42525">
        <ele>69.4</ele>
        <time>2023-07-19T15:05:24Z</time>
      </trkpt>
      <trkpt lat="47.38193" lon="-0.42527">
        <ele>69.6</ele>
        <time>2023-07-19T15:05:25Z</time>
      </trkpt>
      <trkpt lat="47.38195" lon="-0.42528">
        <ele>69.8</ele>
        <time>2023-07-19T15:05:26Z</time>
      </trkpt>
      <trkpt lat="47.38197" lon="-0.42529">
        <ele>69.8</ele>
        <time>2023-07-19T15:05:27Z</time>
      </trkpt>
      <trkpt lat="47.38199" lon="-0.4253">
        <ele>70</ele>
        <time>2023-07-19T15:05:28Z</time>
      </trkpt>
      <trkpt lat="47.38201" lon="-0.42531">
        <ele>70.2</ele>
        <time>2023-07-19T15:05:29Z</time>
      </trkpt>
      <trkpt lat="47.38204" lon="-0.42532">
        <ele>70.2</ele>
        <time>2023-07-19T15:05:30Z</time>
      </trkpt>
      <trkpt lat="47.38206" lon="-0.42533">
        <ele>70.4</ele>
        <time>2023-07-19T15:05:31Z</time>
      </trkpt>
      <trkpt lat="47.38209" lon="-0.42533">
        <ele>70.6</ele>
        <time>2023-07-19T15:05:32Z</time>
      </trkpt>
      <trkpt lat="47.3821" lon="-0.42533">
        <ele>70.6</ele>
        <time>2023-07-19T15:05:33Z</time>
      </trkpt>
      <trkpt lat="47.38213" lon="-0.42533">
        <ele>70.8</ele>
        <time>2023-07-19T15:05:34Z</time>
      </trkpt>
      <trkpt lat="47.38215" lon="-0.42533">
        <ele>71</ele>
        <time>2023-07-19T15:05:35Z</time>
      </trkpt>
      <trkpt lat="47.38217" lon="-0.42533">
        <ele>71.2</ele>
        <time>2023-07-19T15:05:36Z</time>
      </trkpt>
      <trkpt lat="47.38219" lon="-0.42533">
        <ele>71.2</ele>
        <time>2023-07-19T15:05:37Z</time>
      </trkpt>
      <trkpt lat="47.38221" lon="-0.42533">
        <ele>71.4</ele>
        <time>2023-07-19T15:05:38Z</time>
      </trkpt>
      <trkpt lat="47.38223" lon="-0.42533">
        <ele>71.4</ele>
        <time>2023-07-19T15:05:39Z</time>
      </trkpt>
      <trkpt lat="47.38225" lon="-0.42533">
        <ele>71.6</ele>
        <time>2023-07-19T15:05:40Z</time>
      </trkpt>
      <trkpt lat="47.38227" lon="-0.42533">
        <ele>71.8</ele>
        <time>2023-07-19T15:05:41Z</time>
      </trkpt>
      <trkpt lat="47.38229" lon="-0.42533">
        <ele>71.8</ele>
        <time>2023-07-19T15:05:42Z</time>
      </trkpt>
      <trkpt lat="47.38231" lon="-0.42533">
        <ele>72</ele>
        <time>2023-07-19T15:05:43Z</time>
      </trkpt>
      <trkpt lat="47.38233" lon="-0.42533">
        <ele>72</ele>
        <time>2023-07-19T15:05:44Z</time>
      </trkpt>
      <trkpt lat="47.38235" lon="-0.42533">
        <ele>72.2</ele>
        <time>2023-07-19T15:05:45Z</time>
      </trkpt>
      <trkpt lat="47.38237" lon="-0.42534">
        <ele>72.2</ele>
        <time>2023-07-19T15:05:46Z</time>
      </trkpt>
      <trkpt lat="47.38239" lon="-0.42534">
        <ele>72.4</ele>
        <time>2023-07-19T15:05:47Z</time>
      </trkpt>
      <trkpt lat="47.38241" lon="-0.42535">
        <ele>72.6</ele>
        <time>2023-07-19T15:05:48Z</time>
      </trkpt>
      <trkpt lat="47.38243" lon="-0.42535">
        <ele>72.6</ele>
        <time>2023-07-19T15:05:49Z</time>
      </trkpt>
      <trkpt lat="47.38245" lon="-0.42536">
        <ele>72.8</ele>
        <time>2023-07-19T15:05:50Z</time>
      </trkpt>
      <trkpt lat="47.38247" lon="-0.42537">
        <ele>72.8</ele>
        <time>2023-07-19T15:05:51Z</time>
      </trkpt>
      <trkpt lat="47.38249" lon="-0.42537">
        <ele>72.8</ele>
        <time>2023-07-19T15:05:52Z</time>
      </trkpt>
      <trkpt lat="47.38251" lon="-0.42538">
        <ele>73</ele>
        <time>2023-07-19T15:05:53Z</time>
      </trkpt>
      <trkpt lat="47.38253" lon="-0.42539">
        <ele>73</ele>
        <time>2023-07-19T15:05:54Z</time>
      </trkpt>
      <trkpt lat="47.38255" lon="-0.4254">
        <ele>73</ele>
        <time>2023-07-19T15:05:55Z</time>
      </trkpt>
      <trkpt lat="47.38256" lon="-0.42542">
        <ele>73.2</ele>
        <time>2023-07-19T15:05:56Z</time>
      </trkpt>
      <trkpt lat="47.38257" lon="-0.42545">
        <ele>73.2</ele>
        <time>2023-07-19T15:05:57Z</time>
      </trkpt>
      <trkpt lat="47.38259" lon="-0.42547">
        <ele>73.2</ele>
        <time>2023-07-19T15:05:58Z</time>
      </trkpt>
      <trkpt lat="47.3826" lon="-0.42549">
        <ele>73.4</ele>
        <time>2023-07-19T15:05:59Z</time>
      </trkpt>
      <trkpt lat="47.38262" lon="-0.42551">
        <ele>73.6</ele>
        <time>2023-07-19T15:06:00Z</time>
      </trkpt>
      <trkpt lat="47.38264" lon="-0.42553">
        <ele>73.6</ele>
        <time>2023-07-19T15:06:01Z</time>
      </trkpt>
      <trkpt lat="47.38266" lon="-0.42555">
        <ele>73.8</ele>
        <time>2023-07-19T15:06:02Z</time>
      </trkpt>
      <trkpt lat="47.38268" lon="-0.42558">
        <ele>74</ele>
        <time>2023-07-19T15:06:03Z</time>
      </trkpt>
      <trkpt lat="47.38269" lon="-0.4256">
        <ele>74</ele>
        <time>2023-07-19T15:06:04Z</time>
      </trkpt>
      <trkpt lat="47.38271" lon="-0.42562">
        <ele>74.2</ele>
        <time>2023-07-19T15:06:05Z</time>
      </trkpt>
      <trkpt lat="47.38273" lon="-0.42564">
        <ele>74.2</ele>
        <time>2023-07-19T15:06:06Z</time>
      </trkpt>
      <trkpt lat="47.38275" lon="-0.42566">
        <ele>74.2</ele>
        <time>2023-07-19T15:06:07Z</time>
      </trkpt>
      <trkpt lat="47.38277" lon="-0.42568">
        <ele>74.4</ele>
        <time>2023-07-19T15:06:08Z</time>
      </trkpt>
      <trkpt lat="47.38279" lon="-0.4257">
        <ele>74.4</ele>
        <time>2023-07-19T15:06:09Z</time>
      </trkpt>
      <trkpt lat="47.38281" lon="-0.42572">
        <ele>74.6</ele>
        <time>2023-07-19T15:06:10Z</time>
      </trkpt>
      <trkpt lat="47.38282" lon="-0.42575">
        <ele>74.6</ele>
        <time>2023-07-19T15:06:11Z</time>
      </trkpt>
      <trkpt lat="47.38284" lon="-0.42577">
        <ele>74.6</ele>
        <time>2023-07-19T15:06:12Z</time>
      </trkpt>
      <trkpt lat="47.38289" lon="-0.42584">
        <ele>74.8</ele>
        <time>2023-07-19T15:06:15Z</time>
      </trkpt>
      <trkpt lat="47.38303" lon="-0.42599">
        <ele>75</ele>
        <time>2023-07-19T15:06:22Z</time>
      </trkpt>
      <trkpt lat="47.38306" lon="-0.42603">
        <ele>75.2</ele>
        <time>2023-07-19T15:06:24Z</time>
      </trkpt>
      <trkpt lat="47.38321" lon="-0.42624">
        <ele>75.4</ele>
        <time>2023-07-19T15:06:32Z</time>
      </trkpt>
      <trkpt lat="47.38339" lon="-0.42649">
        <ele>75.6</ele>
        <time>2023-07-19T15:06:41Z</time>
      </trkpt>
      <trkpt lat="47.3836" lon="-0.42682">
        <ele>75.2</ele>
        <time>2023-07-19T15:06:51Z</time>
      </trkpt>
      <trkpt lat="47.38379" lon="-0.42714">
        <ele>74.6</ele>
        <time>2023-07-19T15:07:00Z</time>
      </trkpt>
      <trkpt lat="47.3838" lon="-0.42717">
        <ele>74.6</ele>
        <time>2023-07-19T15:07:01Z</time>
      </trkpt>
      <trkpt lat="47.3838" lon="-0.4272">
        <ele>74.4</ele>
        <time>2023-07-19T15:07:02Z</time>
      </trkpt>
      <trkpt lat="47.38378" lon="-0.42723">
        <ele>74.4</ele>
        <time>2023-07-19T15:07:03Z</time>
      </trkpt>
      <trkpt lat="47.38377" lon="-0.42724">
        <ele>74.4</ele>
        <time>2023-07-19T15:07:04Z</time>
      </trkpt>
      <trkpt lat="47.38369" lon="-0.42726">
        <ele>74.2</ele>
        <time>2023-07-19T15:07:07Z</time>
      </trkpt>
      <trkpt lat="47.38366" lon="-0.42726">
        <ele>74.2</ele>
        <time>2023-07-19T15:07:08Z</time>
      </trkpt>
      <trkpt lat="47.38358" lon="-0.42727">
        <ele>74</ele>
        <time>2023-07-19T15:07:11Z</time>
      </trkpt>
      <trkpt lat="47.38349" lon="-0.42727">
        <ele>73.8</ele>
        <time>2023-07-19T15:07:14Z</time>
      </trkpt>
      <trkpt lat="47.38319" lon="-0.42727">
        <ele>73.2</ele>
        <time>2023-07-19T15:07:24Z</time>
      </trkpt>
      <trkpt lat="47.38304" lon="-0.42729">
        <ele>73</ele>
        <time>2023-07-19T15:07:29Z</time>
      </trkpt>
      <trkpt lat="47.38288" lon="-0.42731">
        <ele>72.6</ele>
        <time>2023-07-19T15:07:34Z</time>
      </trkpt>
      <trkpt lat="47.38258" lon="-0.42739">
        <ele>72.4</ele>
        <time>2023-07-19T15:07:42Z</time>
      </trkpt>
      <trkpt lat="47.38232" lon="-0.42748">
        <ele>72</ele>
        <time>2023-07-19T15:07:48Z</time>
      </trkpt>
      <trkpt lat="47.38222" lon="-0.42752">
        <ele>71.8</ele>
        <time>2023-07-19T15:07:50Z</time>
      </trkpt>
      <trkpt lat="47.38194" lon="-0.42763">
        <ele>70.8</ele>
        <time>2023-07-19T15:07:55Z</time>
      </trkpt>
      <trkpt lat="47.38181" lon="-0.42769">
        <ele>70.4</ele>
        <time>2023-07-19T15:07:57Z</time>
      </trkpt>
      <trkpt lat="47.38169" lon="-0.42775">
        <ele>69.8</ele>
        <time>2023-07-19T15:07:59Z</time>
      </trkpt>
      <trkpt lat="47.38162" lon="-0.42777">
        <ele>69.6</ele>
        <time>2023-07-19T15:08:00Z</time>
      </trkpt>
      <trkpt lat="47.38137" lon="-0.42789">
        <ele>68.6</ele>
        <time>2023-07-19T15:08:04Z</time>
      </trkpt>
      <trkpt lat="47.38131" lon="-0.42791">
        <ele>68.2</ele>
        <time>2023-07-19T15:08:05Z</time>
      </trkpt>
      <trkpt lat="47.38119" lon="-0.42797">
        <ele>67</ele>
        <time>2023-07-19T15:08:07Z</time>
      </trkpt>
      <trkpt lat="47.38099" lon="-0.42807">
        <ele>65.8</ele>
        <time>2023-07-19T15:08:10Z</time>
      </trkpt>
      <trkpt lat="47.38077" lon="-0.42818">
        <ele>65.2</ele>
        <time>2023-07-19T15:08:13Z</time>
      </trkpt>
      <trkpt lat="47.3807" lon="-0.42822">
        <ele>65</ele>
        <time>2023-07-19T15:08:14Z</time>
      </trkpt>
      <trkpt lat="47.38064" lon="-0.42825">
        <ele>64.8</ele>
        <time>2023-07-19T15:08:15Z</time>
      </trkpt>
      <trkpt lat="47.38031" lon="-0.42843">
        <ele>63.6</ele>
        <time>2023-07-19T15:08:20Z</time>
      </trkpt>
      <trkpt lat="47.38024" lon="-0.42847">
        <ele>63.4</ele>
        <time>2023-07-19T15:08:21Z</time>
      </trkpt>
      <trkpt lat="47.37999" lon="-0.42861">
        <ele>62.8</ele>
        <time>2023-07-19T15:08:25Z</time>
      </trkpt>
      <trkpt lat="47.37993" lon="-0.42865">
        <ele>62.6</ele>
        <time>2023-07-19T15:08:26Z</time>
      </trkpt>
      <trkpt lat="47.37987" lon="-0.42869">
        <ele>62.6</ele>
        <time>2023-07-19T15:08:27Z</time>
      </trkpt>
      <trkpt lat="47.37981" lon="-0.42873">
        <ele>62.4</ele>
        <time>2023-07-19T15:08:28Z</time>
      </trkpt>
      <trkpt lat="47.37974" lon="-0.42877">
        <ele>62.4</ele>
        <time>2023-07-19T15:08:29Z</time>
      </trkpt>
      <trkpt lat="47.3795" lon="-0.42891">
        <ele>62</ele>
        <time>2023-07-19T15:08:33Z</time>
      </trkpt>
      <trkpt lat="47.37945" lon="-0.42894">
        <ele>61.8</ele>
        <time>2023-07-19T15:08:34Z</time>
      </trkpt>
      <trkpt lat="47.37939" lon="-0.42898">
        <ele>61.4</ele>
        <time>2023-07-19T15:08:35Z</time>
      </trkpt>
      <trkpt lat="47.37935" lon="-0.42903">
        <ele>61.4</ele>
        <time>2023-07-19T15:08:36Z</time>
      </trkpt>
      <trkpt lat="47.37931" lon="-0.42908">
        <ele>61.4</ele>
        <time>2023-07-19T15:08:37Z</time>
      </trkpt>
      <trkpt lat="47.37928" lon="-0.42912">
        <ele>61.2</ele>
        <time>2023-07-19T15:08:38Z</time>
      </trkpt>
      <trkpt lat="47.37927" lon="-0.42918">
        <ele>61</ele>
        <time>2023-07-19T15:08:39Z</time>
      </trkpt>
      <trkpt lat="47.37926" lon="-0.42925">
        <ele>61</ele>
        <time>2023-07-19T15:08:40Z</time>
      </trkpt>
      <trkpt lat="47.37926" lon="-0.42931">
        <ele>61</ele>
        <time>2023-07-19T15:08:41Z</time>
      </trkpt>
      <trkpt lat="47.37927" lon="-0.42937">
        <ele>61</ele>
        <time>2023-07-19T15:08:42Z</time>
      </trkpt>
      <trkpt lat="47.37928" lon="-0.42942">
        <ele>61</ele>
        <time>2023-07-19T15:08:43Z</time>
      </trkpt>
      <trkpt lat="47.37929" lon="-0.42948">
        <ele>61</ele>
        <time>2023-07-19T15:08:44Z</time>
      </trkpt>
      <trkpt lat="47.37932" lon="-0.42959">
        <ele>61</ele>
        <time>2023-07-19T15:08:46Z</time>
      </trkpt>
      <trkpt lat="47.37932" lon="-0.42964">
        <ele>61</ele>
        <time>2023-07-19T15:08:47Z</time>
      </trkpt>
      <trkpt lat="47.37933" lon="-0.42969">
        <ele>61</ele>
        <time>2023-07-19T15:08:48Z</time>
      </trkpt>
      <trkpt lat="47.37934" lon="-0.42974">
        <ele>61</ele>
        <time>2023-07-19T15:08:49Z</time>
      </trkpt>
      <trkpt lat="47.37936" lon="-0.42979">
        <ele>61</ele>
        <time>2023-07-19T15:08:50Z</time>
      </trkpt>
      <trkpt lat="47.37937" lon="-0.42984">
        <ele>61.2</ele>
        <time>2023-07-19T15:08:51Z</time>
      </trkpt>
      <trkpt lat="47.37938" lon="-0.42988">
        <ele>61.2</ele>
        <time>2023-07-19T15:08:52Z</time>
      </trkpt>
      <trkpt lat="47.37938" lon="-0.42993">
        <ele>61.2</ele>
        <time>2023-07-19T15:08:53Z</time>
      </trkpt>
      <trkpt lat="47.37939" lon="-0.42998">
        <ele>61.2</ele>
        <time>2023-07-19T15:08:54Z</time>
      </trkpt>
      <trkpt lat="47.3794" lon="-0.43002">
        <ele>61.2</ele>
        <time>2023-07-19T15:08:55Z</time>
      </trkpt>
      <trkpt lat="47.37943" lon="-0.43027">
        <ele>61.4</ele>
        <time>2023-07-19T15:09:00Z</time>
      </trkpt>
      <trkpt lat="47.37949" lon="-0.43066">
        <ele>61</ele>
        <time>2023-07-19T15:09:08Z</time>
      </trkpt>
      <trkpt lat="47.37951" lon="-0.43075">
        <ele>60.8</ele>
        <time>2023-07-19T15:09:10Z</time>
      </trkpt>
      <trkpt lat="47.37952" lon="-0.4308">
        <ele>60.8</ele>
        <time>2023-07-19T15:09:11Z</time>
      </trkpt>
      <trkpt lat="47.37955" lon="-0.431">
        <ele>60.8</ele>
        <time>2023-07-19T15:09:15Z</time>
      </trkpt>
      <trkpt lat="47.37956" lon="-0.43104">
        <ele>60.8</ele>
        <time>2023-07-19T15:09:16Z</time>
      </trkpt>
      <trkpt lat="47.37957" lon="-0.43109">
        <ele>60.8</ele>
        <time>2023-07-19T15:09:17Z</time>
      </trkpt>
      <trkpt lat="47.37957" lon="-0.43113">
        <ele>60.8</ele>
        <time>2023-07-19T15:09:18Z</time>
      </trkpt>
      <trkpt lat="47.37958" lon="-0.43118">
        <ele>60.8</ele>
        <time>2023-07-19T15:09:19Z</time>
      </trkpt>
      <trkpt lat="47.37959" lon="-0.43123">
        <ele>60.8</ele>
        <time>2023-07-19T15:09:20Z</time>
      </trkpt>
      <trkpt lat="47.3796" lon="-0.43127">
        <ele>60.8</ele>
        <time>2023-07-19T15:09:21Z</time>
      </trkpt>
      <trkpt lat="47.3796" lon="-0.43131">
        <ele>60.8</ele>
        <time>2023-07-19T15:09:22Z</time>
      </trkpt>
      <trkpt lat="47.37961" lon="-0.43136">
        <ele>60.8</ele>
        <time>2023-07-19T15:09:23Z</time>
      </trkpt>
      <trkpt lat="47.37963" lon="-0.4315">
        <ele>60.8</ele>
        <time>2023-07-19T15:09:26Z</time>
      </trkpt>
      <trkpt lat="47.37964" lon="-0.43159">
        <ele>61</ele>
        <time>2023-07-19T15:09:28Z</time>
      </trkpt>
      <trkpt lat="47.37966" lon="-0.43168">
        <ele>61.2</ele>
        <time>2023-07-19T15:09:30Z</time>
      </trkpt>
      <trkpt lat="47.37967" lon="-0.43177">
        <ele>61.4</ele>
        <time>2023-07-19T15:09:32Z</time>
      </trkpt>
      <trkpt lat="47.37968" lon="-0.43181">
        <ele>61.6</ele>
        <time>2023-07-19T15:09:33Z</time>
      </trkpt>
      <trkpt lat="47.37969" lon="-0.43186">
        <ele>61.6</ele>
        <time>2023-07-19T15:09:34Z</time>
      </trkpt>
      <trkpt lat="47.37969" lon="-0.4319">
        <ele>61.6</ele>
        <time>2023-07-19T15:09:35Z</time>
      </trkpt>
      <trkpt lat="47.3797" lon="-0.43194">
        <ele>61.8</ele>
        <time>2023-07-19T15:09:36Z</time>
      </trkpt>
      <trkpt lat="47.37971" lon="-0.43206">
        <ele>61.8</ele>
        <time>2023-07-19T15:09:39Z</time>
      </trkpt>
      <trkpt lat="47.37971" lon="-0.4321">
        <ele>62</ele>
        <time>2023-07-19T15:09:40Z</time>
      </trkpt>
      <trkpt lat="47.37973" lon="-0.43219">
        <ele>62</ele>
        <time>2023-07-19T15:09:42Z</time>
      </trkpt>
      <trkpt lat="47.37974" lon="-0.43223">
        <ele>62</ele>
        <time>2023-07-19T15:09:43Z</time>
      </trkpt>
      <trkpt lat="47.37975" lon="-0.43227">
        <ele>62.2</ele>
        <time>2023-07-19T15:09:44Z</time>
      </trkpt>
      <trkpt lat="47.37975" lon="-0.4323">
        <ele>62.2</ele>
        <time>2023-07-19T15:09:45Z</time>
      </trkpt>
      <trkpt lat="47.37976" lon="-0.43234">
        <ele>62.2</ele>
        <time>2023-07-19T15:09:46Z</time>
      </trkpt>
      <trkpt lat="47.37978" lon="-0.43247">
        <ele>62.6</ele>
        <time>2023-07-19T15:09:49Z</time>
      </trkpt>
      <trkpt lat="47.37978" lon="-0.4325">
        <ele>62.6</ele>
        <time>2023-07-19T15:09:50Z</time>
      </trkpt>
      <trkpt lat="47.37978" lon="-0.43254">
        <ele>62.8</ele>
        <time>2023-07-19T15:09:51Z</time>
      </trkpt>
      <trkpt lat="47.37979" lon="-0.43258">
        <ele>62.8</ele>
        <time>2023-07-19T15:09:52Z</time>
      </trkpt>
      <trkpt lat="47.37979" lon="-0.43262">
        <ele>62.8</ele>
        <time>2023-07-19T15:09:53Z</time>
      </trkpt>
      <trkpt lat="47.37982" lon="-0.43285">
        <ele>63.6</ele>
        <time>2023-07-19T15:09:59Z</time>
      </trkpt>
      <trkpt lat="47.37987" lon="-0.43324">
        <ele>64.6</ele>
        <time>2023-07-19T15:10:09Z</time>
      </trkpt>
      <trkpt lat="47.3799" lon="-0.4334">
        <ele>64.8</ele>
        <time>2023-07-19T15:10:13Z</time>
      </trkpt>
      <trkpt lat="47.37995" lon="-0.43364">
        <ele>64.8</ele>
        <time>2023-07-19T15:10:19Z</time>
      </trkpt>
      <trkpt lat="47.37996" lon="-0.43368">
        <ele>65</ele>
        <time>2023-07-19T15:10:20Z</time>
      </trkpt>
      <trkpt lat="47.38003" lon="-0.43408">
        <ele>65.2</ele>
        <time>2023-07-19T15:10:29Z</time>
      </trkpt>
      <trkpt lat="47.38009" lon="-0.4345">
        <ele>65.2</ele>
        <time>2023-07-19T15:10:38Z</time>
      </trkpt>
      <trkpt lat="47.38011" lon="-0.43463">
        <ele>65.2</ele>
        <time>2023-07-19T15:10:41Z</time>
      </trkpt>
      <trkpt lat="47.38012" lon="-0.43467">
        <ele>65.4</ele>
        <time>2023-07-19T15:10:42Z</time>
      </trkpt>
      <trkpt lat="47.38012" lon="-0.43471">
        <ele>65.4</ele>
        <time>2023-07-19T15:10:43Z</time>
      </trkpt>
      <trkpt lat="47.38013" lon="-0.43476">
        <ele>65.4</ele>
        <time>2023-07-19T15:10:44Z</time>
      </trkpt>
      <trkpt lat="47.38013" lon="-0.4348">
        <ele>65.4</ele>
        <time>2023-07-19T15:10:45Z</time>
      </trkpt>
      <trkpt lat="47.38014" lon="-0.43484">
        <ele>65.4</ele>
        <time>2023-07-19T15:10:46Z</time>
      </trkpt>
      <trkpt lat="47.38015" lon="-0.43488">
        <ele>65.4</ele>
        <time>2023-07-19T15:10:47Z</time>
      </trkpt>
      <trkpt lat="47.38016" lon="-0.43495">
        <ele>65.6</ele>
        <time>2023-07-19T15:10:49Z</time>
      </trkpt>
      <trkpt lat="47.38017" lon="-0.435">
        <ele>65.6</ele>
        <time>2023-07-19T15:10:50Z</time>
      </trkpt>
      <trkpt lat="47.38018" lon="-0.43508">
        <ele>65.6</ele>
        <time>2023-07-19T15:10:52Z</time>
      </trkpt>
      <trkpt lat="47.38019" lon="-0.43513">
        <ele>65.6</ele>
        <time>2023-07-19T15:10:53Z</time>
      </trkpt>
      <trkpt lat="47.38019" lon="-0.43517">
        <ele>65.6</ele>
        <time>2023-07-19T15:10:54Z</time>
      </trkpt>
      <trkpt lat="47.3802" lon="-0.43521">
        <ele>65.6</ele>
        <time>2023-07-19T15:10:55Z</time>
      </trkpt>
      <trkpt lat="47.3802" lon="-0.43525">
        <ele>65.6</ele>
        <time>2023-07-19T15:10:56Z</time>
      </trkpt>
      <trkpt lat="47.3802" lon="-0.43529">
        <ele>65.6</ele>
        <time>2023-07-19T15:10:57Z</time>
      </trkpt>
      <trkpt lat="47.38022" lon="-0.43541">
        <ele>65.6</ele>
        <time>2023-07-19T15:11:00Z</time>
      </trkpt>
      <trkpt lat="47.38022" lon="-0.43545">
        <ele>65.8</ele>
        <time>2023-07-19T15:11:01Z</time>
      </trkpt>
      <trkpt lat="47.38023" lon="-0.43549">
        <ele>65.8</ele>
        <time>2023-07-19T15:11:02Z</time>
      </trkpt>
      <trkpt lat="47.38023" lon="-0.43552">
        <ele>65.8</ele>
        <time>2023-07-19T15:11:03Z</time>
      </trkpt>
      <trkpt lat="47.38024" lon="-0.4356">
        <ele>65.8</ele>
        <time>2023-07-19T15:11:05Z</time>
      </trkpt>
      <trkpt lat="47.38025" lon="-0.43568">
        <ele>66</ele>
        <time>2023-07-19T15:11:07Z</time>
      </trkpt>
      <trkpt lat="47.38029" lon="-0.436">
        <ele>66.2</ele>
        <time>2023-07-19T15:11:15Z</time>
      </trkpt>
      <trkpt lat="47.3803" lon="-0.43604">
        <ele>66.2</ele>
        <time>2023-07-19T15:11:16Z</time>
      </trkpt>
      <trkpt lat="47.3803" lon="-0.43608">
        <ele>66.2</ele>
        <time>2023-07-19T15:11:17Z</time>
      </trkpt>
      <trkpt lat="47.38031" lon="-0.43611">
        <ele>66.4</ele>
        <time>2023-07-19T15:11:18Z</time>
      </trkpt>
      <trkpt lat="47.38032" lon="-0.43615">
        <ele>66.4</ele>
        <time>2023-07-19T15:11:19Z</time>
      </trkpt>
      <trkpt lat="47.38032" lon="-0.43619">
        <ele>66.4</ele>
        <time>2023-07-19T15:11:20Z</time>
      </trkpt>
      <trkpt lat="47.38033" lon="-0.43622">
        <ele>66.4</ele>
        <time>2023-07-19T15:11:21Z</time>
      </trkpt>
      <trkpt lat="47.38033" lon="-0.43626">
        <ele>66.6</ele>
        <time>2023-07-19T15:11:22Z</time>
      </trkpt>
      <trkpt lat="47.38034" lon="-0.4363">
        <ele>66.6</ele>
        <time>2023-07-19T15:11:23Z</time>
      </trkpt>
      <trkpt lat="47.38035" lon="-0.43634">
        <ele>66.6</ele>
        <time>2023-07-19T15:11:24Z</time>
      </trkpt>
      <trkpt lat="47.38036" lon="-0.43641">
        <ele>66.8</ele>
        <time>2023-07-19T15:11:26Z</time>
      </trkpt>
      <trkpt lat="47.38037" lon="-0.43644">
        <ele>66.8</ele>
        <time>2023-07-19T15:11:27Z</time>
      </trkpt>
      <trkpt lat="47.38037" lon="-0.43651">
        <ele>67</ele>
        <time>2023-07-19T15:11:29Z</time>
      </trkpt>
      <trkpt lat="47.38038" lon="-0.43654">
        <ele>67</ele>
        <time>2023-07-19T15:11:30Z</time>
      </trkpt>
      <trkpt lat="47.38039" lon="-0.43656">
        <ele>67.2</ele>
        <time>2023-07-19T15:11:31Z</time>
      </trkpt>
      <trkpt lat="47.38039" lon="-0.4366">
        <ele>67.2</ele>
        <time>2023-07-19T15:11:32Z</time>
      </trkpt>
      <trkpt lat="47.3804" lon="-0.43663">
        <ele>67.2</ele>
        <time>2023-07-19T15:11:33Z</time>
      </trkpt>
      <trkpt lat="47.3804" lon="-0.43667">
        <ele>67.4</ele>
        <time>2023-07-19T15:11:34Z</time>
      </trkpt>
      <trkpt lat="47.3804" lon="-0.4367">
        <ele>67.4</ele>
        <time>2023-07-19T15:11:35Z</time>
      </trkpt>
      <trkpt lat="47.38043" lon="-0.43685">
        <ele>67.4</ele>
        <time>2023-07-19T15:11:39Z</time>
      </trkpt>
      <trkpt lat="47.3805" lon="-0.43701">
        <ele>67.8</ele>
        <time>2023-07-19T15:11:45Z</time>
      </trkpt>
      <trkpt lat="47.38052" lon="-0.43702">
        <ele>68</ele>
        <time>2023-07-19T15:11:46Z</time>
      </trkpt>
      <trkpt lat="47.38054" lon="-0.43703">
        <ele>68</ele>
        <time>2023-07-19T15:11:47Z</time>
      </trkpt>
      <trkpt lat="47.38057" lon="-0.43704">
        <ele>68</ele>
        <time>2023-07-19T15:11:48Z</time>
      </trkpt>
      <trkpt lat="47.38059" lon="-0.43704">
        <ele>68</ele>
        <time>2023-07-19T15:11:49Z</time>
      </trkpt>
      <trkpt lat="47.38061" lon="-0.43705">
        <ele>68.2</ele>
        <time>2023-07-19T15:11:50Z</time>
      </trkpt>
      <trkpt lat="47.38072" lon="-0.43706">
        <ele>69.2</ele>
        <time>2023-07-19T15:11:54Z</time>
      </trkpt>
      <trkpt lat="47.38081" lon="-0.43706">
        <ele>69.6</ele>
        <time>2023-07-19T15:11:58Z</time>
      </trkpt>
      <trkpt lat="47.38089" lon="-0.43707">
        <ele>70</ele>
        <time>2023-07-19T15:12:01Z</time>
      </trkpt>
      <trkpt lat="47.38091" lon="-0.43708">
        <ele>70</ele>
        <time>2023-07-19T15:12:02Z</time>
      </trkpt>
      <trkpt lat="47.38093" lon="-0.4371">
        <ele>70</ele>
        <time>2023-07-19T15:12:03Z</time>
      </trkpt>
      <trkpt lat="47.38095" lon="-0.43713">
        <ele>70</ele>
        <time>2023-07-19T15:12:04Z</time>
      </trkpt>
      <trkpt lat="47.38096" lon="-0.43715">
        <ele>70</ele>
        <time>2023-07-19T15:12:05Z</time>
      </trkpt>
      <trkpt lat="47.38098" lon="-0.43719">
        <ele>70</ele>
        <time>2023-07-19T15:12:06Z</time>
      </trkpt>
      <trkpt lat="47.38099" lon="-0.43722">
        <ele>70</ele>
        <time>2023-07-19T15:12:07Z</time>
      </trkpt>
      <trkpt lat="47.381" lon="-0.43725">
        <ele>70</ele>
        <time>2023-07-19T15:12:08Z</time>
      </trkpt>
      <trkpt lat="47.381" lon="-0.43729">
        <ele>70.2</ele>
        <time>2023-07-19T15:12:09Z</time>
      </trkpt>
      <trkpt lat="47.38102" lon="-0.43737">
        <ele>70.2</ele>
        <time>2023-07-19T15:12:11Z</time>
      </trkpt>
      <trkpt lat="47.38102" lon="-0.4374">
        <ele>70.2</ele>
        <time>2023-07-19T15:12:12Z</time>
      </trkpt>
      <trkpt lat="47.38103" lon="-0.43744">
        <ele>70.2</ele>
        <time>2023-07-19T15:12:13Z</time>
      </trkpt>
      <trkpt lat="47.38104" lon="-0.43747">
        <ele>70.2</ele>
        <time>2023-07-19T15:12:14Z</time>
      </trkpt>
      <trkpt lat="47.38106" lon="-0.43756">
        <ele>70.4</ele>
        <time>2023-07-19T15:12:17Z</time>
      </trkpt>
      <trkpt lat="47.3811" lon="-0.43789">
        <ele>70.8</ele>
        <time>2023-07-19T15:12:26Z</time>
      </trkpt>
      <trkpt lat="47.38112" lon="-0.43801">
        <ele>70.8</ele>
        <time>2023-07-19T15:12:29Z</time>
      </trkpt>
      <trkpt lat="47.38116" lon="-0.43816">
        <ele>71</ele>
        <time>2023-07-19T15:12:33Z</time>
      </trkpt>
      <trkpt lat="47.38119" lon="-0.43832">
        <ele>71.2</ele>
        <time>2023-07-19T15:12:37Z</time>
      </trkpt>
      <trkpt lat="47.3812" lon="-0.43835">
        <ele>71.2</ele>
        <time>2023-07-19T15:12:38Z</time>
      </trkpt>
      <trkpt lat="47.38121" lon="-0.43837">
        <ele>71.2</ele>
        <time>2023-07-19T15:12:39Z</time>
      </trkpt>
      <trkpt lat="47.38121" lon="-0.43838">
        <ele>71.4</ele>
        <time>2023-07-19T15:12:40Z</time>
      </trkpt>
      <trkpt lat="47.38121" lon="-0.43838">
        <ele>71.6</ele>
        <time>2023-07-19T15:12:41Z</time>
      </trkpt>
      <trkpt lat="47.3812" lon="-0.43842">
        <ele>71.4</ele>
        <time>2023-07-19T15:13:31Z</time>
      </trkpt>
      <trkpt lat="47.38121" lon="-0.43849">
        <ele>71.2</ele>
        <time>2023-07-19T15:13:33Z</time>
      </trkpt>
      <trkpt lat="47.38125" lon="-0.43872">
        <ele>71</ele>
        <time>2023-07-19T15:13:38Z</time>
      </trkpt>
      <trkpt lat="47.38126" lon="-0.43877">
        <ele>70.8</ele>
        <time>2023-07-19T15:13:39Z</time>
      </trkpt>
      <trkpt lat="47.38133" lon="-0.43916">
        <ele>70.6</ele>
        <time>2023-07-19T15:13:46Z</time>
      </trkpt>
      <trkpt lat="47.3814" lon="-0.43956">
        <ele>70.6</ele>
        <time>2023-07-19T15:13:53Z</time>
      </trkpt>
      <trkpt lat="47.38149" lon="-0.43994">
        <ele>70.4</ele>
        <time>2023-07-19T15:14:00Z</time>
      </trkpt>
      <trkpt lat="47.3815" lon="-0.43999">
        <ele>70.4</ele>
        <time>2023-07-19T15:14:01Z</time>
      </trkpt>
      <trkpt lat="47.38152" lon="-0.44004">
        <ele>70.4</ele>
        <time>2023-07-19T15:14:02Z</time>
      </trkpt>
      <trkpt lat="47.38153" lon="-0.44008">
        <ele>70.4</ele>
        <time>2023-07-19T15:14:03Z</time>
      </trkpt>
      <trkpt lat="47.38154" lon="-0.44011">
        <ele>70.4</ele>
        <time>2023-07-19T15:14:04Z</time>
      </trkpt>
      <trkpt lat="47.38156" lon="-0.44013">
        <ele>70.6</ele>
        <time>2023-07-19T15:14:05Z</time>
      </trkpt>
      <trkpt lat="47.38157" lon="-0.44014">
        <ele>70.6</ele>
        <time>2023-07-19T15:14:06Z</time>
      </trkpt>
      <trkpt lat="47.38158" lon="-0.44015">
        <ele>70.6</ele>
        <time>2023-07-19T15:14:07Z</time>
      </trkpt>
      <trkpt lat="47.38159" lon="-0.44016">
        <ele>70.6</ele>
        <time>2023-07-19T15:14:08Z</time>
      </trkpt>
      <trkpt lat="47.38161" lon="-0.44016">
        <ele>70.6</ele>
        <time>2023-07-19T15:14:09Z</time>
      </trkpt>
      <trkpt lat="47.38162" lon="-0.44016">
        <ele>70.8</ele>
        <time>2023-07-19T15:14:10Z</time>
      </trkpt>
      <trkpt lat="47.38164" lon="-0.44016">
        <ele>70.8</ele>
        <time>2023-07-19T15:14:11Z</time>
      </trkpt>
      <trkpt lat="47.38167" lon="-0.44013">
        <ele>71</ele>
        <time>2023-07-19T15:14:13Z</time>
      </trkpt>
      <trkpt lat="47.38168" lon="-0.44013">
        <ele>71</ele>
        <time>2023-07-19T15:14:14Z</time>
      </trkpt>
      <trkpt lat="47.38172" lon="-0.44011">
        <ele>71</ele>
        <time>2023-07-19T15:14:16Z</time>
      </trkpt>
      <trkpt lat="47.38181" lon="-0.44003">
        <ele>71.2</ele>
        <time>2023-07-19T15:14:22Z</time>
      </trkpt>
      <trkpt lat="47.38183" lon="-0.44002">
        <ele>71.2</ele>
        <time>2023-07-19T15:14:23Z</time>
      </trkpt>
      <trkpt lat="47.38198" lon="-0.43986">
        <ele>71.2</ele>
        <time>2023-07-19T15:14:31Z</time>
      </trkpt>
      <trkpt lat="47.38215" lon="-0.4397">
        <ele>71</ele>
        <time>2023-07-19T15:14:37Z</time>
      </trkpt>
      <trkpt lat="47.38226" lon="-0.43957">
        <ele>71</ele>
        <time>2023-07-19T15:14:40Z</time>
      </trkpt>
      <trkpt lat="47.38229" lon="-0.43953">
        <ele>71</ele>
        <time>2023-07-19T15:14:41Z</time>
      </trkpt>
      <trkpt lat="47.38232" lon="-0.43949">
        <ele>71</ele>
        <time>2023-07-19T15:14:42Z</time>
      </trkpt>
      <trkpt lat="47.38235" lon="-0.43946">
        <ele>71</ele>
        <time>2023-07-19T15:14:43Z</time>
      </trkpt>
      <trkpt lat="47.38238" lon="-0.43943">
        <ele>71</ele>
        <time>2023-07-19T15:14:44Z</time>
      </trkpt>
      <trkpt lat="47.38248" lon="-0.43932">
        <ele>70.8</ele>
        <time>2023-07-19T15:14:47Z</time>
      </trkpt>
      <trkpt lat="47.38251" lon="-0.43929">
        <ele>70.8</ele>
        <time>2023-07-19T15:14:48Z</time>
      </trkpt>
      <trkpt lat="47.38254" lon="-0.43926">
        <ele>70.8</ele>
        <time>2023-07-19T15:14:49Z</time>
      </trkpt>
      <trkpt lat="47.38258" lon="-0.43923">
        <ele>70.8</ele>
        <time>2023-07-19T15:14:50Z</time>
      </trkpt>
      <trkpt lat="47.3826" lon="-0.4392">
        <ele>70.8</ele>
        <time>2023-07-19T15:14:51Z</time>
      </trkpt>
      <trkpt lat="47.38262" lon="-0.43917">
        <ele>70.8</ele>
        <time>2023-07-19T15:14:52Z</time>
      </trkpt>
      <trkpt lat="47.38264" lon="-0.43914">
        <ele>70.8</ele>
        <time>2023-07-19T15:14:53Z</time>
      </trkpt>
      <trkpt lat="47.38267" lon="-0.43915">
        <ele>70.8</ele>
        <time>2023-07-19T15:14:54Z</time>
      </trkpt>
      <trkpt lat="47.38268" lon="-0.43916">
        <ele>70.8</ele>
        <time>2023-07-19T15:14:55Z</time>
      </trkpt>
      <trkpt lat="47.38268" lon="-0.43919">
        <ele>70.8</ele>
        <time>2023-07-19T15:14:56Z</time>
      </trkpt>
      <trkpt lat="47.38266" lon="-0.43922">
        <ele>70.8</ele>
        <time>2023-07-19T15:14:57Z</time>
      </trkpt>
      <trkpt lat="47.38257" lon="-0.43931">
        <ele>70.8</ele>
        <time>2023-07-19T15:15:00Z</time>
      </trkpt>
      <trkpt lat="47.38253" lon="-0.43934">
        <ele>70.8</ele>
        <time>2023-07-19T15:15:01Z</time>
      </trkpt>
      <trkpt lat="47.38249" lon="-0.43938">
        <ele>70.8</ele>
        <time>2023-07-19T15:15:02Z</time>
      </trkpt>
      <trkpt lat="47.38231" lon="-0.43956">
        <ele>70.6</ele>
        <time>2023-07-19T15:15:06Z</time>
      </trkpt>
      <trkpt lat="47.38222" lon="-0.43965">
        <ele>70.4</ele>
        <time>2023-07-19T15:15:08Z</time>
      </trkpt>
      <trkpt lat="47.38218" lon="-0.43971">
        <ele>70.4</ele>
        <time>2023-07-19T15:15:09Z</time>
      </trkpt>
      <trkpt lat="47.38203" lon="-0.43986">
        <ele>70.4</ele>
        <time>2023-07-19T15:15:12Z</time>
      </trkpt>
      <trkpt lat="47.38198" lon="-0.4399">
        <ele>70.4</ele>
        <time>2023-07-19T15:15:13Z</time>
      </trkpt>
      <trkpt lat="47.38194" lon="-0.43995">
        <ele>70.2</ele>
        <time>2023-07-19T15:15:14Z</time>
      </trkpt>
      <trkpt lat="47.38189" lon="-0.43999">
        <ele>70.2</ele>
        <time>2023-07-19T15:15:15Z</time>
      </trkpt>
      <trkpt lat="47.38176" lon="-0.4401">
        <ele>70.2</ele>
        <time>2023-07-19T15:15:18Z</time>
      </trkpt>
      <trkpt lat="47.38172" lon="-0.44013">
        <ele>70.2</ele>
        <time>2023-07-19T15:15:19Z</time>
      </trkpt>
      <trkpt lat="47.38168" lon="-0.44016">
        <ele>70.2</ele>
        <time>2023-07-19T15:15:20Z</time>
      </trkpt>
      <trkpt lat="47.38164" lon="-0.44019">
        <ele>70.2</ele>
        <time>2023-07-19T15:15:21Z</time>
      </trkpt>
      <trkpt lat="47.38161" lon="-0.4402">
        <ele>70.2</ele>
        <time>2023-07-19T15:15:22Z</time>
      </trkpt>
      <trkpt lat="47.38158" lon="-0.44019">
        <ele>70.2</ele>
        <time>2023-07-19T15:15:23Z</time>
      </trkpt>
      <trkpt lat="47.38158" lon="-0.44017">
        <ele>70.2</ele>
        <time>2023-07-19T15:15:24Z</time>
      </trkpt>
      <trkpt lat="47.3816" lon="-0.44015">
        <ele>70.2</ele>
        <time>2023-07-19T15:15:25Z</time>
      </trkpt>
      <trkpt lat="47.38162" lon="-0.44014">
        <ele>70.4</ele>
        <time>2023-07-19T15:15:26Z</time>
      </trkpt>
      <trkpt lat="47.38164" lon="-0.44013">
        <ele>70.4</ele>
        <time>2023-07-19T15:15:27Z</time>
      </trkpt>
      <trkpt lat="47.38167" lon="-0.44012">
        <ele>70.6</ele>
        <time>2023-07-19T15:15:28Z</time>
      </trkpt>
      <trkpt lat="47.3817" lon="-0.4401">
        <ele>70.8</ele>
        <time>2023-07-19T15:15:29Z</time>
      </trkpt>
      <trkpt lat="47.3818" lon="-0.44003">
        <ele>71</ele>
        <time>2023-07-19T15:15:32Z</time>
      </trkpt>
      <trkpt lat="47.38203" lon="-0.43982">
        <ele>71.4</ele>
        <time>2023-07-19T15:15:40Z</time>
      </trkpt>
      <trkpt lat="47.38212" lon="-0.43975">
        <ele>71.4</ele>
        <time>2023-07-19T15:15:43Z</time>
      </trkpt>
      <trkpt lat="47.38218" lon="-0.43967">
        <ele>71.4</ele>
        <time>2023-07-19T15:15:45Z</time>
      </trkpt>
      <trkpt lat="47.38244" lon="-0.43937">
        <ele>71.2</ele>
        <time>2023-07-19T15:15:53Z</time>
      </trkpt>
      <trkpt lat="47.3826" lon="-0.43922">
        <ele>71.2</ele>
        <time>2023-07-19T15:15:58Z</time>
      </trkpt>
      <trkpt lat="47.38263" lon="-0.43918">
        <ele>71.2</ele>
        <time>2023-07-19T15:15:59Z</time>
      </trkpt>
      <trkpt lat="47.38264" lon="-0.43913">
        <ele>71.2</ele>
        <time>2023-07-19T15:16:00Z</time>
      </trkpt>
      <trkpt lat="47.38264" lon="-0.43908">
        <ele>71.2</ele>
        <time>2023-07-19T15:16:01Z</time>
      </trkpt>
      <trkpt lat="47.38262" lon="-0.43899">
        <ele>71.2</ele>
        <time>2023-07-19T15:16:03Z</time>
      </trkpt>
      <trkpt lat="47.38261" lon="-0.43894">
        <ele>71.2</ele>
        <time>2023-07-19T15:16:04Z</time>
      </trkpt>
      <trkpt lat="47.3826" lon="-0.43889">
        <ele>71.2</ele>
        <time>2023-07-19T15:16:05Z</time>
      </trkpt>
      <trkpt lat="47.38259" lon="-0.43884">
        <ele>71.2</ele>
        <time>2023-07-19T15:16:06Z</time>
      </trkpt>
      <trkpt lat="47.38258" lon="-0.4388">
        <ele>71.2</ele>
        <time>2023-07-19T15:16:07Z</time>
      </trkpt>
      <trkpt lat="47.38257" lon="-0.43875">
        <ele>71.2</ele>
        <time>2023-07-19T15:16:08Z</time>
      </trkpt>
      <trkpt lat="47.38256" lon="-0.4387">
        <ele>71.2</ele>
        <time>2023-07-19T15:16:09Z</time>
      </trkpt>
      <trkpt lat="47.38255" lon="-0.43865">
        <ele>71.2</ele>
        <time>2023-07-19T15:16:10Z</time>
      </trkpt>
      <trkpt lat="47.38254" lon="-0.43855">
        <ele>71.2</ele>
        <time>2023-07-19T15:16:12Z</time>
      </trkpt>
      <trkpt lat="47.38246" lon="-0.43813">
        <ele>71.4</ele>
        <time>2023-07-19T15:16:20Z</time>
      </trkpt>
      <trkpt lat="47.3824" lon="-0.43766">
        <ele>71.4</ele>
        <time>2023-07-19T15:16:29Z</time>
      </trkpt>
      <trkpt lat="47.38239" lon="-0.43761">
        <ele>71.4</ele>
        <time>2023-07-19T15:16:30Z</time>
      </trkpt>
      <trkpt lat="47.38237" lon="-0.43745">
        <ele>71.6</ele>
        <time>2023-07-19T15:16:33Z</time>
      </trkpt>
      <trkpt lat="47.38236" lon="-0.4374">
        <ele>71.6</ele>
        <time>2023-07-19T15:16:34Z</time>
      </trkpt>
      <trkpt lat="47.38236" lon="-0.43735">
        <ele>71.6</ele>
        <time>2023-07-19T15:16:35Z</time>
      </trkpt>
      <trkpt lat="47.38235" lon="-0.4373">
        <ele>71.6</ele>
        <time>2023-07-19T15:16:36Z</time>
      </trkpt>
      <trkpt lat="47.38234" lon="-0.43725">
        <ele>71.6</ele>
        <time>2023-07-19T15:16:37Z</time>
      </trkpt>
      <trkpt lat="47.38233" lon="-0.43712">
        <ele>71.6</ele>
        <time>2023-07-19T15:16:40Z</time>
      </trkpt>
      <trkpt lat="47.38233" lon="-0.43707">
        <ele>71.6</ele>
        <time>2023-07-19T15:16:41Z</time>
      </trkpt>
      <trkpt lat="47.38234" lon="-0.43704">
        <ele>71.6</ele>
        <time>2023-07-19T15:16:42Z</time>
      </trkpt>
      <trkpt lat="47.38236" lon="-0.43701">
        <ele>71.6</ele>
        <time>2023-07-19T15:16:43Z</time>
      </trkpt>
      <trkpt lat="47.38238" lon="-0.43699">
        <ele>71.6</ele>
        <time>2023-07-19T15:16:44Z</time>
      </trkpt>
      <trkpt lat="47.3824" lon="-0.43698">
        <ele>71.6</ele>
        <time>2023-07-19T15:16:45Z</time>
      </trkpt>
      <trkpt lat="47.38241" lon="-0.43697">
        <ele>71.6</ele>
        <time>2023-07-19T15:16:46Z</time>
      </trkpt>
      <trkpt lat="47.38243" lon="-0.43696">
        <ele>71.6</ele>
        <time>2023-07-19T15:16:47Z</time>
      </trkpt>
      <trkpt lat="47.38245" lon="-0.43695">
        <ele>71.6</ele>
        <time>2023-07-19T15:16:48Z</time>
      </trkpt>
      <trkpt lat="47.38247" lon="-0.43694">
        <ele>71.6</ele>
        <time>2023-07-19T15:16:49Z</time>
      </trkpt>
      <trkpt lat="47.38247" lon="-0.43693">
        <ele>71.6</ele>
        <time>2023-07-19T15:16:50Z</time>
      </trkpt>
      <trkpt lat="47.38247" lon="-0.43693">
        <ele>71.6</ele>
        <time>2023-07-19T15:16:51Z</time>
      </trkpt>
      <trkpt lat="47.38247" lon="-0.43693">
        <ele>71.6</ele>
        <time>2023-07-19T15:16:52Z</time>
      </trkpt>
      <trkpt lat="47.38253" lon="-0.43689">
        <ele>71.6</ele>
        <time>2023-07-19T15:19:32Z</time>
      </trkpt>
      <trkpt lat="47.38256" lon="-0.43686">
        <ele>71.6</ele>
        <time>2023-07-19T15:19:34Z</time>
      </trkpt>
      <trkpt lat="47.38257" lon="-0.43685">
        <ele>71.6</ele>
        <time>2023-07-19T15:19:35Z</time>
      </trkpt>
      <trkpt lat="47.38258" lon="-0.43683">
        <ele>71.6</ele>
        <time>2023-07-19T15:19:36Z</time>
      </trkpt>
      <trkpt lat="47.38258" lon="-0.43682">
        <ele>71.6</ele>
        <time>2023-07-19T15:19:37Z</time>
      </trkpt>
      <trkpt lat="47.38258" lon="-0.4368">
        <ele>71.6</ele>
        <time>2023-07-19T15:19:38Z</time>
      </trkpt>
      <trkpt lat="47.38258" lon="-0.43678">
        <ele>71.6</ele>
        <time>2023-07-19T15:19:39Z</time>
      </trkpt>
      <trkpt lat="47.38258" lon="-0.43676">
        <ele>71.6</ele>
        <time>2023-07-19T15:19:40Z</time>
      </trkpt>
      <trkpt lat="47.38257" lon="-0.43674">
        <ele>71.6</ele>
        <time>2023-07-19T15:19:41Z</time>
      </trkpt>
      <trkpt lat="47.38257" lon="-0.43671">
        <ele>71.6</ele>
        <time>2023-07-19T15:19:42Z</time>
      </trkpt>
      <trkpt lat="47.38257" lon="-0.43663">
        <ele>71.8</ele>
        <time>2023-07-19T15:19:46Z</time>
      </trkpt>
      <trkpt lat="47.38257" lon="-0.43656">
        <ele>71.8</ele>
        <time>2023-07-19T15:19:50Z</time>
      </trkpt>
      <trkpt lat="47.38257" lon="-0.43654">
        <ele>71.8</ele>
        <time>2023-07-19T15:19:51Z</time>
      </trkpt>
      <trkpt lat="47.38257" lon="-0.43652">
        <ele>71.8</ele>
        <time>2023-07-19T15:19:52Z</time>
      </trkpt>
      <trkpt lat="47.38257" lon="-0.43651">
        <ele>71.8</ele>
        <time>2023-07-19T15:19:53Z</time>
      </trkpt>
      <trkpt lat="47.38257" lon="-0.43651">
        <ele>71.8</ele>
        <time>2023-07-19T15:19:55Z</time>
      </trkpt>
      <trkpt lat="47.38262" lon="-0.43648">
        <ele>71.4</ele>
        <time>2023-07-19T15:20:22Z</time>
      </trkpt>
      <trkpt lat="47.38266" lon="-0.43646">
        <ele>71.4</ele>
        <time>2023-07-19T15:20:24Z</time>
      </trkpt>
      <trkpt lat="47.38271" lon="-0.43646">
        <ele>71.4</ele>
        <time>2023-07-19T15:20:26Z</time>
      </trkpt>
      <trkpt lat="47.38273" lon="-0.43646">
        <ele>71.4</ele>
        <time>2023-07-19T15:20:27Z</time>
      </trkpt>
      <trkpt lat="47.38276" lon="-0.43648">
        <ele>71.4</ele>
        <time>2023-07-19T15:20:29Z</time>
      </trkpt>
      <trkpt lat="47.38277" lon="-0.4365">
        <ele>71.4</ele>
        <time>2023-07-19T15:20:30Z</time>
      </trkpt>
      <trkpt lat="47.38278" lon="-0.43652">
        <ele>71.6</ele>
        <time>2023-07-19T15:20:31Z</time>
      </trkpt>
      <trkpt lat="47.38279" lon="-0.43654">
        <ele>71.6</ele>
        <time>2023-07-19T15:20:32Z</time>
      </trkpt>
      <trkpt lat="47.38279" lon="-0.43656">
        <ele>71.6</ele>
        <time>2023-07-19T15:20:33Z</time>
      </trkpt>
      <trkpt lat="47.38278" lon="-0.43657">
        <ele>71.6</ele>
        <time>2023-07-19T15:20:34Z</time>
      </trkpt>
      <trkpt lat="47.38278" lon="-0.43659">
        <ele>71.6</ele>
        <time>2023-07-19T15:20:35Z</time>
      </trkpt>
      <trkpt lat="47.38278" lon="-0.43661">
        <ele>71.6</ele>
        <time>2023-07-19T15:20:36Z</time>
      </trkpt>
      <trkpt lat="47.38277" lon="-0.43663">
        <ele>71.8</ele>
        <time>2023-07-19T15:20:37Z</time>
      </trkpt>
      <trkpt lat="47.38277" lon="-0.43664">
        <ele>71.8</ele>
        <time>2023-07-19T15:20:38Z</time>
      </trkpt>
      <trkpt lat="47.38276" lon="-0.43666">
        <ele>72</ele>
        <time>2023-07-19T15:20:39Z</time>
      </trkpt>
      <trkpt lat="47.38276" lon="-0.43667">
        <ele>72</ele>
        <time>2023-07-19T15:20:40Z</time>
      </trkpt>
      <trkpt lat="47.38276" lon="-0.43667">
        <ele>72</ele>
        <time>2023-07-19T15:20:42Z</time>
      </trkpt>
      <trkpt lat="47.3828" lon="-0.4367">
        <ele>72</ele>
        <time>2023-07-19T15:20:46Z</time>
      </trkpt>
      <trkpt lat="47.3828" lon="-0.43672">
        <ele>72</ele>
        <time>2023-07-19T15:20:47Z</time>
      </trkpt>
      <trkpt lat="47.38279" lon="-0.43673">
        <ele>72</ele>
        <time>2023-07-19T15:20:49Z</time>
      </trkpt>
      <trkpt lat="47.38279" lon="-0.43674">
        <ele>72</ele>
        <time>2023-07-19T15:20:50Z</time>
      </trkpt>
      <trkpt lat="47.38279" lon="-0.43674">
        <ele>72</ele>
        <time>2023-07-19T15:20:51Z</time>
      </trkpt>
      <trkpt lat="47.38279" lon="-0.43674">
        <ele>72</ele>
        <time>2023-07-19T15:20:53Z</time>
      </trkpt>
    </trkseg>
  </trk>
</gpx>